<?xml version="1.0" encoding="UTF-8" standalone="no" ?>
<gpx xmlns="http://www.topografix.com/GPX/1/1" xmlns:xsi="http://www.w3.org/2001/XMLSchema-instance" xsi:schemaLocation="http://www.topografix.com/GPX/1/1 http://www.topografix.com/GPX/1/1/gpx.xsd" version="1.1" creator="VisuGPX - https://www.visugpx.com">
  <metadata>
    <name>Étape 21, Saint-Palais-sur-Mer - Braud-et-Saint-Louis</name>
    <desc><![CDATA[
]]></desc>
  </metadata>
  <trk>
    <name><![CDATA[jeudi 11 août 2022 09:04:48 +02:00]]></name>
    <desc><![CDATA[]]></desc>
    <trkseg>
      <trkpt lat="45.65266" lon="-1.08408">
        <ele>63</ele>
        <time>2022-08-11T09:04:49.668+02:00</time>
      </trkpt>
      <trkpt lat="45.65264" lon="-1.08412">
        <ele>73.2</ele>
        <time>2022-08-11T09:05:07.491+02:00</time>
      </trkpt>
      <trkpt lat="45.65264" lon="-1.08413">
        <ele>73.3</ele>
        <time>2022-08-11T09:05:08.5+02:00</time>
      </trkpt>
      <trkpt lat="45.65264" lon="-1.08426">
        <ele>71.3</ele>
        <time>2022-08-11T09:05:15.488+02:00</time>
      </trkpt>
      <trkpt lat="45.65269" lon="-1.08439">
        <ele>70.7</ele>
        <time>2022-08-11T09:05:19.486+02:00</time>
      </trkpt>
      <trkpt lat="45.65262" lon="-1.08448">
        <ele>70.6</ele>
        <time>2022-08-11T09:05:24.487+02:00</time>
      </trkpt>
      <trkpt lat="45.65251" lon="-1.08454">
        <ele>70.2</ele>
        <time>2022-08-11T09:05:28.483+02:00</time>
      </trkpt>
      <trkpt lat="45.65239" lon="-1.08459">
        <ele>69.8</ele>
        <time>2022-08-11T09:05:31.479+02:00</time>
      </trkpt>
      <trkpt lat="45.65227" lon="-1.08462">
        <ele>69.3</ele>
        <time>2022-08-11T09:05:34.483+02:00</time>
      </trkpt>
      <trkpt lat="45.65217" lon="-1.08462">
        <ele>69.5</ele>
        <time>2022-08-11T09:05:36.483+02:00</time>
      </trkpt>
      <trkpt lat="45.65207" lon="-1.08463">
        <ele>69.4</ele>
        <time>2022-08-11T09:05:38.483+02:00</time>
      </trkpt>
      <trkpt lat="45.65198" lon="-1.08463">
        <ele>69.3</ele>
        <time>2022-08-11T09:05:40.493+02:00</time>
      </trkpt>
      <trkpt lat="45.65189" lon="-1.08463">
        <ele>69</ele>
        <time>2022-08-11T09:05:42.483+02:00</time>
      </trkpt>
      <trkpt lat="45.6518" lon="-1.08462">
        <ele>69.1</ele>
        <time>2022-08-11T09:05:44.483+02:00</time>
      </trkpt>
      <trkpt lat="45.6517" lon="-1.08452">
        <ele>68.8</ele>
        <time>2022-08-11T09:05:47.484+02:00</time>
      </trkpt>
      <trkpt lat="45.65162" lon="-1.08447">
        <ele>68.4</ele>
        <time>2022-08-11T09:05:51.478+02:00</time>
      </trkpt>
      <trkpt lat="45.65152" lon="-1.08454">
        <ele>66.9</ele>
        <time>2022-08-11T09:05:55.485+02:00</time>
      </trkpt>
      <trkpt lat="45.65141" lon="-1.08459">
        <ele>66.6</ele>
        <time>2022-08-11T09:05:58.482+02:00</time>
      </trkpt>
      <trkpt lat="45.65128" lon="-1.0846">
        <ele>65.4</ele>
        <time>2022-08-11T09:06:01.478+02:00</time>
      </trkpt>
      <trkpt lat="45.65118" lon="-1.08462">
        <ele>65.3</ele>
        <time>2022-08-11T09:06:03.486+02:00</time>
      </trkpt>
      <trkpt lat="45.65108" lon="-1.08463">
        <ele>64.8</ele>
        <time>2022-08-11T09:06:05.484+02:00</time>
      </trkpt>
      <trkpt lat="45.65098" lon="-1.08466">
        <ele>64.4</ele>
        <time>2022-08-11T09:06:07.483+02:00</time>
      </trkpt>
      <trkpt lat="45.65087" lon="-1.08472">
        <ele>64.4</ele>
        <time>2022-08-11T09:06:10.483+02:00</time>
      </trkpt>
      <trkpt lat="45.65081" lon="-1.08484">
        <ele>63.4</ele>
        <time>2022-08-11T09:06:16.482+02:00</time>
      </trkpt>
      <trkpt lat="45.65083" lon="-1.08499">
        <ele>62.9</ele>
        <time>2022-08-11T09:06:20.478+02:00</time>
      </trkpt>
      <trkpt lat="45.65073" lon="-1.08513">
        <ele>61</ele>
        <time>2022-08-11T09:06:23.485+02:00</time>
      </trkpt>
      <trkpt lat="45.65065" lon="-1.08525">
        <ele>60.4</ele>
        <time>2022-08-11T09:06:25.484+02:00</time>
      </trkpt>
      <trkpt lat="45.65055" lon="-1.08538">
        <ele>60.1</ele>
        <time>2022-08-11T09:06:27.484+02:00</time>
      </trkpt>
      <trkpt lat="45.65046" lon="-1.0855">
        <ele>59.5</ele>
        <time>2022-08-11T09:06:29.486+02:00</time>
      </trkpt>
      <trkpt lat="45.65036" lon="-1.08564">
        <ele>59.3</ele>
        <time>2022-08-11T09:06:31.481+02:00</time>
      </trkpt>
      <trkpt lat="45.65027" lon="-1.08579">
        <ele>58.9</ele>
        <time>2022-08-11T09:06:33.485+02:00</time>
      </trkpt>
      <trkpt lat="45.65023" lon="-1.08597">
        <ele>59.1</ele>
        <time>2022-08-11T09:06:35.491+02:00</time>
      </trkpt>
      <trkpt lat="45.65022" lon="-1.08614">
        <ele>59.8</ele>
        <time>2022-08-11T09:06:37.485+02:00</time>
      </trkpt>
      <trkpt lat="45.6502" lon="-1.08632">
        <ele>59.9</ele>
        <time>2022-08-11T09:06:39.493+02:00</time>
      </trkpt>
      <trkpt lat="45.65018" lon="-1.08647">
        <ele>59.8</ele>
        <time>2022-08-11T09:06:41.479+02:00</time>
      </trkpt>
      <trkpt lat="45.65014" lon="-1.08661">
        <ele>59.5</ele>
        <time>2022-08-11T09:06:43.49+02:00</time>
      </trkpt>
      <trkpt lat="45.65009" lon="-1.08673">
        <ele>59.6</ele>
        <time>2022-08-11T09:06:45.486+02:00</time>
      </trkpt>
      <trkpt lat="45.65004" lon="-1.08687">
        <ele>61.3</ele>
        <time>2022-08-11T09:06:48.482+02:00</time>
      </trkpt>
      <trkpt lat="45.64999" lon="-1.08699">
        <ele>60.8</ele>
        <time>2022-08-11T09:06:52.485+02:00</time>
      </trkpt>
      <trkpt lat="45.64997" lon="-1.08715">
        <ele>61.7</ele>
        <time>2022-08-11T09:06:56.495+02:00</time>
      </trkpt>
      <trkpt lat="45.65002" lon="-1.08732">
        <ele>60.8</ele>
        <time>2022-08-11T09:06:59.498+02:00</time>
      </trkpt>
      <trkpt lat="45.65006" lon="-1.08747">
        <ele>60</ele>
        <time>2022-08-11T09:07:01.472+02:00</time>
      </trkpt>
      <trkpt lat="45.65007" lon="-1.08762">
        <ele>59.2</ele>
        <time>2022-08-11T09:07:03.489+02:00</time>
      </trkpt>
      <trkpt lat="45.65004" lon="-1.08779">
        <ele>58.4</ele>
        <time>2022-08-11T09:07:05.489+02:00</time>
      </trkpt>
      <trkpt lat="45.64998" lon="-1.08795">
        <ele>57.1</ele>
        <time>2022-08-11T09:07:07.484+02:00</time>
      </trkpt>
      <trkpt lat="45.64988" lon="-1.0881">
        <ele>56.2</ele>
        <time>2022-08-11T09:07:09.486+02:00</time>
      </trkpt>
      <trkpt lat="45.64975" lon="-1.08823">
        <ele>55.5</ele>
        <time>2022-08-11T09:07:11.48+02:00</time>
      </trkpt>
      <trkpt lat="45.64962" lon="-1.08835">
        <ele>55</ele>
        <time>2022-08-11T09:07:13.482+02:00</time>
      </trkpt>
      <trkpt lat="45.6495" lon="-1.08845">
        <ele>54.5</ele>
        <time>2022-08-11T09:07:15.489+02:00</time>
      </trkpt>
      <trkpt lat="45.64938" lon="-1.08852">
        <ele>54.9</ele>
        <time>2022-08-11T09:07:17.486+02:00</time>
      </trkpt>
      <trkpt lat="45.64925" lon="-1.08857">
        <ele>54.7</ele>
        <time>2022-08-11T09:07:19.486+02:00</time>
      </trkpt>
      <trkpt lat="45.64912" lon="-1.08856">
        <ele>55.1</ele>
        <time>2022-08-11T09:07:21.48+02:00</time>
      </trkpt>
      <trkpt lat="45.64901" lon="-1.08852">
        <ele>55</ele>
        <time>2022-08-11T09:07:23.491+02:00</time>
      </trkpt>
      <trkpt lat="45.6489" lon="-1.08848">
        <ele>55.5</ele>
        <time>2022-08-11T09:07:25.481+02:00</time>
      </trkpt>
      <trkpt lat="45.64878" lon="-1.0885">
        <ele>57.4</ele>
        <time>2022-08-11T09:07:27.486+02:00</time>
      </trkpt>
      <trkpt lat="45.64868" lon="-1.08856">
        <ele>55.9</ele>
        <time>2022-08-11T09:07:29.486+02:00</time>
      </trkpt>
      <trkpt lat="45.64859" lon="-1.08864">
        <ele>54.2</ele>
        <time>2022-08-11T09:07:31.476+02:00</time>
      </trkpt>
      <trkpt lat="45.64852" lon="-1.08878">
        <ele>53</ele>
        <time>2022-08-11T09:07:33.491+02:00</time>
      </trkpt>
      <trkpt lat="45.64841" lon="-1.08886">
        <ele>53.2</ele>
        <time>2022-08-11T09:07:35.493+02:00</time>
      </trkpt>
      <trkpt lat="45.64833" lon="-1.08894">
        <ele>52.9</ele>
        <time>2022-08-11T09:07:37.486+02:00</time>
      </trkpt>
      <trkpt lat="45.64823" lon="-1.08901">
        <ele>52.8</ele>
        <time>2022-08-11T09:07:39.489+02:00</time>
      </trkpt>
      <trkpt lat="45.64811" lon="-1.08908">
        <ele>53.8</ele>
        <time>2022-08-11T09:07:42.485+02:00</time>
      </trkpt>
      <trkpt lat="45.64803" lon="-1.08913">
        <ele>53.4</ele>
        <time>2022-08-11T09:07:44.486+02:00</time>
      </trkpt>
      <trkpt lat="45.64793" lon="-1.08916">
        <ele>52.9</ele>
        <time>2022-08-11T09:07:46.479+02:00</time>
      </trkpt>
      <trkpt lat="45.64784" lon="-1.0892">
        <ele>52.1</ele>
        <time>2022-08-11T09:07:48.48+02:00</time>
      </trkpt>
      <trkpt lat="45.64775" lon="-1.08923">
        <ele>51.6</ele>
        <time>2022-08-11T09:07:50.475+02:00</time>
      </trkpt>
      <trkpt lat="45.64766" lon="-1.08928">
        <ele>51.6</ele>
        <time>2022-08-11T09:07:52.474+02:00</time>
      </trkpt>
      <trkpt lat="45.64757" lon="-1.08932">
        <ele>51.6</ele>
        <time>2022-08-11T09:07:54.48+02:00</time>
      </trkpt>
      <trkpt lat="45.64747" lon="-1.08937">
        <ele>51.8</ele>
        <time>2022-08-11T09:07:56.494+02:00</time>
      </trkpt>
      <trkpt lat="45.64737" lon="-1.0894">
        <ele>51.9</ele>
        <time>2022-08-11T09:07:58.48+02:00</time>
      </trkpt>
      <trkpt lat="45.64727" lon="-1.08945">
        <ele>52.8</ele>
        <time>2022-08-11T09:08:00.494+02:00</time>
      </trkpt>
      <trkpt lat="45.64717" lon="-1.08948">
        <ele>52.5</ele>
        <time>2022-08-11T09:08:02.495+02:00</time>
      </trkpt>
      <trkpt lat="45.64708" lon="-1.08954">
        <ele>52.7</ele>
        <time>2022-08-11T09:08:04.487+02:00</time>
      </trkpt>
      <trkpt lat="45.64699" lon="-1.08961">
        <ele>51.7</ele>
        <time>2022-08-11T09:08:06.496+02:00</time>
      </trkpt>
      <trkpt lat="45.6469" lon="-1.08969">
        <ele>51.8</ele>
        <time>2022-08-11T09:08:08.496+02:00</time>
      </trkpt>
      <trkpt lat="45.64681" lon="-1.08971">
        <ele>52.6</ele>
        <time>2022-08-11T09:08:10.495+02:00</time>
      </trkpt>
      <trkpt lat="45.64672" lon="-1.08971">
        <ele>52.3</ele>
        <time>2022-08-11T09:08:12.505+02:00</time>
      </trkpt>
      <trkpt lat="45.64662" lon="-1.08971">
        <ele>52.2</ele>
        <time>2022-08-11T09:08:14.492+02:00</time>
      </trkpt>
      <trkpt lat="45.64649" lon="-1.08971">
        <ele>52.9</ele>
        <time>2022-08-11T09:08:17.49+02:00</time>
      </trkpt>
      <trkpt lat="45.64637" lon="-1.08973">
        <ele>52.6</ele>
        <time>2022-08-11T09:08:20.479+02:00</time>
      </trkpt>
      <trkpt lat="45.64625" lon="-1.08976">
        <ele>50</ele>
        <time>2022-08-11T09:08:23.48+02:00</time>
      </trkpt>
      <trkpt lat="45.64612" lon="-1.08976">
        <ele>50.6</ele>
        <time>2022-08-11T09:08:26.488+02:00</time>
      </trkpt>
      <trkpt lat="45.64603" lon="-1.08977">
        <ele>50.8</ele>
        <time>2022-08-11T09:08:28.486+02:00</time>
      </trkpt>
      <trkpt lat="45.64591" lon="-1.08979">
        <ele>51.6</ele>
        <time>2022-08-11T09:08:31.484+02:00</time>
      </trkpt>
      <trkpt lat="45.64582" lon="-1.08988">
        <ele>53.2</ele>
        <time>2022-08-11T09:08:35.49+02:00</time>
      </trkpt>
      <trkpt lat="45.64577" lon="-1.0899">
        <ele>53</ele>
        <time>2022-08-11T09:08:40.502+02:00</time>
      </trkpt>
      <trkpt lat="45.64577" lon="-1.0899">
        <ele>53.4</ele>
        <time>2022-08-11T09:08:41.488+02:00</time>
      </trkpt>
      <trkpt lat="45.64577" lon="-1.08989">
        <ele>53.3</ele>
        <time>2022-08-11T09:08:42.491+02:00</time>
      </trkpt>
      <trkpt lat="45.64577" lon="-1.08989">
        <ele>53.2</ele>
        <time>2022-08-11T09:08:43.497+02:00</time>
      </trkpt>
      <trkpt lat="45.64574" lon="-1.08988">
        <ele>53.2</ele>
        <time>2022-08-11T09:08:46.5+02:00</time>
      </trkpt>
      <trkpt lat="45.64575" lon="-1.08988">
        <ele>53.1</ele>
        <time>2022-08-11T09:08:47.49+02:00</time>
      </trkpt>
      <trkpt lat="45.64575" lon="-1.08989">
        <ele>52.7</ele>
        <time>2022-08-11T09:08:59.506+02:00</time>
      </trkpt>
      <trkpt lat="45.64575" lon="-1.08989">
        <ele>52.8</ele>
        <time>2022-08-11T09:09:00.489+02:00</time>
      </trkpt>
      <trkpt lat="45.64567" lon="-1.0898">
        <ele>53.8</ele>
        <time>2022-08-11T09:09:08.492+02:00</time>
      </trkpt>
      <trkpt lat="45.64558" lon="-1.08976">
        <ele>53.8</ele>
        <time>2022-08-11T09:09:14.493+02:00</time>
      </trkpt>
      <trkpt lat="45.64549" lon="-1.08969">
        <ele>52.8</ele>
        <time>2022-08-11T09:09:21.487+02:00</time>
      </trkpt>
      <trkpt lat="45.64547" lon="-1.08953">
        <ele>52.3</ele>
        <time>2022-08-11T09:09:25.493+02:00</time>
      </trkpt>
      <trkpt lat="45.64549" lon="-1.08938">
        <ele>52</ele>
        <time>2022-08-11T09:09:28.509+02:00</time>
      </trkpt>
      <trkpt lat="45.64549" lon="-1.08923">
        <ele>51.4</ele>
        <time>2022-08-11T09:09:31.493+02:00</time>
      </trkpt>
      <trkpt lat="45.64545" lon="-1.08908">
        <ele>51.9</ele>
        <time>2022-08-11T09:09:34.498+02:00</time>
      </trkpt>
      <trkpt lat="45.64539" lon="-1.08893">
        <ele>52.1</ele>
        <time>2022-08-11T09:09:37.5+02:00</time>
      </trkpt>
      <trkpt lat="45.64532" lon="-1.08878">
        <ele>52.9</ele>
        <time>2022-08-11T09:09:40.487+02:00</time>
      </trkpt>
      <trkpt lat="45.64523" lon="-1.08867">
        <ele>53.5</ele>
        <time>2022-08-11T09:09:43.501+02:00</time>
      </trkpt>
      <trkpt lat="45.64513" lon="-1.0886">
        <ele>53.1</ele>
        <time>2022-08-11T09:09:46.501+02:00</time>
      </trkpt>
      <trkpt lat="45.64504" lon="-1.08855">
        <ele>55.2</ele>
        <time>2022-08-11T09:09:48.494+02:00</time>
      </trkpt>
      <trkpt lat="45.64491" lon="-1.08848">
        <ele>53.9</ele>
        <time>2022-08-11T09:09:51.494+02:00</time>
      </trkpt>
      <trkpt lat="45.64482" lon="-1.08844">
        <ele>52.5</ele>
        <time>2022-08-11T09:09:53.5+02:00</time>
      </trkpt>
      <trkpt lat="45.64473" lon="-1.08844">
        <ele>52.3</ele>
        <time>2022-08-11T09:09:55.501+02:00</time>
      </trkpt>
      <trkpt lat="45.64463" lon="-1.08842">
        <ele>52.4</ele>
        <time>2022-08-11T09:09:57.496+02:00</time>
      </trkpt>
      <trkpt lat="45.64454" lon="-1.08835">
        <ele>52.8</ele>
        <time>2022-08-11T09:09:59.496+02:00</time>
      </trkpt>
      <trkpt lat="45.64447" lon="-1.08824">
        <ele>53.2</ele>
        <time>2022-08-11T09:10:02.496+02:00</time>
      </trkpt>
      <trkpt lat="45.64438" lon="-1.08814">
        <ele>54.2</ele>
        <time>2022-08-11T09:10:05.498+02:00</time>
      </trkpt>
      <trkpt lat="45.64428" lon="-1.08802">
        <ele>54.3</ele>
        <time>2022-08-11T09:10:08.496+02:00</time>
      </trkpt>
      <trkpt lat="45.64421" lon="-1.08794">
        <ele>55</ele>
        <time>2022-08-11T09:10:10.505+02:00</time>
      </trkpt>
      <trkpt lat="45.64411" lon="-1.08781">
        <ele>55.5</ele>
        <time>2022-08-11T09:10:13.505+02:00</time>
      </trkpt>
      <trkpt lat="45.64405" lon="-1.08772">
        <ele>55.4</ele>
        <time>2022-08-11T09:10:15.487+02:00</time>
      </trkpt>
      <trkpt lat="45.64398" lon="-1.08763">
        <ele>55.6</ele>
        <time>2022-08-11T09:10:17.495+02:00</time>
      </trkpt>
      <trkpt lat="45.64391" lon="-1.08754">
        <ele>55.2</ele>
        <time>2022-08-11T09:10:19.494+02:00</time>
      </trkpt>
      <trkpt lat="45.64382" lon="-1.08743">
        <ele>53.6</ele>
        <time>2022-08-11T09:10:22.501+02:00</time>
      </trkpt>
      <trkpt lat="45.64374" lon="-1.08749">
        <ele>51</ele>
        <time>2022-08-11T09:10:34.493+02:00</time>
      </trkpt>
      <trkpt lat="45.6438" lon="-1.08761">
        <ele>51</ele>
        <time>2022-08-11T09:10:38.495+02:00</time>
      </trkpt>
      <trkpt lat="45.64387" lon="-1.08771">
        <ele>51.5</ele>
        <time>2022-08-11T09:10:41.496+02:00</time>
      </trkpt>
      <trkpt lat="45.64394" lon="-1.0878">
        <ele>51.1</ele>
        <time>2022-08-11T09:10:44.497+02:00</time>
      </trkpt>
      <trkpt lat="45.64397" lon="-1.08794">
        <ele>51.2</ele>
        <time>2022-08-11T09:10:47.49+02:00</time>
      </trkpt>
      <trkpt lat="45.64391" lon="-1.08807">
        <ele>51.9</ele>
        <time>2022-08-11T09:10:50.498+02:00</time>
      </trkpt>
      <trkpt lat="45.64383" lon="-1.08818">
        <ele>52.3</ele>
        <time>2022-08-11T09:10:53.492+02:00</time>
      </trkpt>
      <trkpt lat="45.64375" lon="-1.08829">
        <ele>51.6</ele>
        <time>2022-08-11T09:10:57.491+02:00</time>
      </trkpt>
      <trkpt lat="45.64366" lon="-1.08835">
        <ele>53.1</ele>
        <time>2022-08-11T09:11:02.497+02:00</time>
      </trkpt>
      <trkpt lat="45.64357" lon="-1.08842">
        <ele>55.9</ele>
        <time>2022-08-11T09:11:06.495+02:00</time>
      </trkpt>
      <trkpt lat="45.64347" lon="-1.08852">
        <ele>58.2</ele>
        <time>2022-08-11T09:11:11.49+02:00</time>
      </trkpt>
      <trkpt lat="45.6434" lon="-1.0886">
        <ele>58.4</ele>
        <time>2022-08-11T09:11:15.501+02:00</time>
      </trkpt>
      <trkpt lat="45.64331" lon="-1.08868">
        <ele>58.5</ele>
        <time>2022-08-11T09:11:20.505+02:00</time>
      </trkpt>
      <trkpt lat="45.64322" lon="-1.08875">
        <ele>58.4</ele>
        <time>2022-08-11T09:11:26.489+02:00</time>
      </trkpt>
      <trkpt lat="45.64312" lon="-1.08873">
        <ele>57.1</ele>
        <time>2022-08-11T09:11:32.492+02:00</time>
      </trkpt>
      <trkpt lat="45.6431" lon="-1.08872">
        <ele>56.9</ele>
        <time>2022-08-11T09:11:35.498+02:00</time>
      </trkpt>
      <trkpt lat="45.6431" lon="-1.08872">
        <ele>57.1</ele>
        <time>2022-08-11T09:11:36.505+02:00</time>
      </trkpt>
      <trkpt lat="45.64308" lon="-1.08871">
        <ele>57.9</ele>
        <time>2022-08-11T09:11:54.494+02:00</time>
      </trkpt>
      <trkpt lat="45.64307" lon="-1.08872">
        <ele>58.1</ele>
        <time>2022-08-11T09:11:55.501+02:00</time>
      </trkpt>
      <trkpt lat="45.64299" lon="-1.08863">
        <ele>57.7</ele>
        <time>2022-08-11T09:12:00.499+02:00</time>
      </trkpt>
      <trkpt lat="45.64294" lon="-1.08851">
        <ele>56.9</ele>
        <time>2022-08-11T09:12:09.495+02:00</time>
      </trkpt>
      <trkpt lat="45.64291" lon="-1.08838">
        <ele>58.2</ele>
        <time>2022-08-11T09:12:13.494+02:00</time>
      </trkpt>
      <trkpt lat="45.64286" lon="-1.08827">
        <ele>57.8</ele>
        <time>2022-08-11T09:12:16.5+02:00</time>
      </trkpt>
      <trkpt lat="45.6428" lon="-1.08817">
        <ele>57.7</ele>
        <time>2022-08-11T09:12:19.496+02:00</time>
      </trkpt>
      <trkpt lat="45.64274" lon="-1.08805">
        <ele>58.2</ele>
        <time>2022-08-11T09:12:22.497+02:00</time>
      </trkpt>
      <trkpt lat="45.64266" lon="-1.08796">
        <ele>58.1</ele>
        <time>2022-08-11T09:12:25.502+02:00</time>
      </trkpt>
      <trkpt lat="45.64258" lon="-1.08784">
        <ele>58.5</ele>
        <time>2022-08-11T09:12:28.491+02:00</time>
      </trkpt>
      <trkpt lat="45.64251" lon="-1.08767">
        <ele>58.8</ele>
        <time>2022-08-11T09:12:31.489+02:00</time>
      </trkpt>
      <trkpt lat="45.64247" lon="-1.08753">
        <ele>56.3</ele>
        <time>2022-08-11T09:12:34.496+02:00</time>
      </trkpt>
      <trkpt lat="45.64245" lon="-1.08735">
        <ele>56</ele>
        <time>2022-08-11T09:12:37.505+02:00</time>
      </trkpt>
      <trkpt lat="45.64245" lon="-1.08717">
        <ele>56.3</ele>
        <time>2022-08-11T09:12:40.5+02:00</time>
      </trkpt>
      <trkpt lat="45.64242" lon="-1.08703">
        <ele>56.6</ele>
        <time>2022-08-11T09:12:43.499+02:00</time>
      </trkpt>
      <trkpt lat="45.64238" lon="-1.0869">
        <ele>56.5</ele>
        <time>2022-08-11T09:12:46.496+02:00</time>
      </trkpt>
      <trkpt lat="45.64234" lon="-1.08676">
        <ele>55</ele>
        <time>2022-08-11T09:12:49.495+02:00</time>
      </trkpt>
      <trkpt lat="45.64228" lon="-1.08663">
        <ele>56.6</ele>
        <time>2022-08-11T09:12:52.495+02:00</time>
      </trkpt>
      <trkpt lat="45.64222" lon="-1.08651">
        <ele>57.5</ele>
        <time>2022-08-11T09:12:55.503+02:00</time>
      </trkpt>
      <trkpt lat="45.64214" lon="-1.0864">
        <ele>57.5</ele>
        <time>2022-08-11T09:12:58.502+02:00</time>
      </trkpt>
      <trkpt lat="45.64207" lon="-1.08631">
        <ele>57.4</ele>
        <time>2022-08-11T09:13:01.489+02:00</time>
      </trkpt>
      <trkpt lat="45.642" lon="-1.08624">
        <ele>54.9</ele>
        <time>2022-08-11T09:13:08.502+02:00</time>
      </trkpt>
      <trkpt lat="45.64191" lon="-1.08614">
        <ele>54.8</ele>
        <time>2022-08-11T09:13:13.504+02:00</time>
      </trkpt>
      <trkpt lat="45.64182" lon="-1.08603">
        <ele>55.6</ele>
        <time>2022-08-11T09:13:17.506+02:00</time>
      </trkpt>
      <trkpt lat="45.64173" lon="-1.08593">
        <ele>55.8</ele>
        <time>2022-08-11T09:13:21.492+02:00</time>
      </trkpt>
      <trkpt lat="45.64164" lon="-1.08582">
        <ele>56.2</ele>
        <time>2022-08-11T09:13:25.483+02:00</time>
      </trkpt>
      <trkpt lat="45.64157" lon="-1.08573">
        <ele>56.8</ele>
        <time>2022-08-11T09:13:28.477+02:00</time>
      </trkpt>
      <trkpt lat="45.64149" lon="-1.08563">
        <ele>57</ele>
        <time>2022-08-11T09:13:32.502+02:00</time>
      </trkpt>
      <trkpt lat="45.6414" lon="-1.08553">
        <ele>57.7</ele>
        <time>2022-08-11T09:13:36.5+02:00</time>
      </trkpt>
      <trkpt lat="45.64131" lon="-1.08543">
        <ele>57.8</ele>
        <time>2022-08-11T09:13:40.492+02:00</time>
      </trkpt>
      <trkpt lat="45.64121" lon="-1.08535">
        <ele>57.8</ele>
        <time>2022-08-11T09:13:44.494+02:00</time>
      </trkpt>
      <trkpt lat="45.64113" lon="-1.08524">
        <ele>59</ele>
        <time>2022-08-11T09:13:48.488+02:00</time>
      </trkpt>
      <trkpt lat="45.64106" lon="-1.08513">
        <ele>59.3</ele>
        <time>2022-08-11T09:13:52.5+02:00</time>
      </trkpt>
      <trkpt lat="45.64098" lon="-1.08503">
        <ele>59.9</ele>
        <time>2022-08-11T09:13:56.485+02:00</time>
      </trkpt>
      <trkpt lat="45.64091" lon="-1.08492">
        <ele>59.6</ele>
        <time>2022-08-11T09:14:00.499+02:00</time>
      </trkpt>
      <trkpt lat="45.64085" lon="-1.08481">
        <ele>59.6</ele>
        <time>2022-08-11T09:14:04.508+02:00</time>
      </trkpt>
      <trkpt lat="45.64079" lon="-1.08468">
        <ele>61</ele>
        <time>2022-08-11T09:14:09.498+02:00</time>
      </trkpt>
      <trkpt lat="45.64072" lon="-1.08455">
        <ele>61.6</ele>
        <time>2022-08-11T09:14:14.5+02:00</time>
      </trkpt>
      <trkpt lat="45.64067" lon="-1.08444">
        <ele>62.3</ele>
        <time>2022-08-11T09:14:18.496+02:00</time>
      </trkpt>
      <trkpt lat="45.64062" lon="-1.08434">
        <ele>62.4</ele>
        <time>2022-08-11T09:14:22.504+02:00</time>
      </trkpt>
      <trkpt lat="45.64054" lon="-1.08424">
        <ele>63.7</ele>
        <time>2022-08-11T09:14:26.502+02:00</time>
      </trkpt>
      <trkpt lat="45.64047" lon="-1.08415">
        <ele>64.3</ele>
        <time>2022-08-11T09:14:30.511+02:00</time>
      </trkpt>
      <trkpt lat="45.64039" lon="-1.08408">
        <ele>64.2</ele>
        <time>2022-08-11T09:14:34.494+02:00</time>
      </trkpt>
      <trkpt lat="45.64029" lon="-1.08403">
        <ele>65.4</ele>
        <time>2022-08-11T09:14:38.508+02:00</time>
      </trkpt>
      <trkpt lat="45.6402" lon="-1.08398">
        <ele>65.3</ele>
        <time>2022-08-11T09:14:42.498+02:00</time>
      </trkpt>
      <trkpt lat="45.64011" lon="-1.08394">
        <ele>65.5</ele>
        <time>2022-08-11T09:14:46.498+02:00</time>
      </trkpt>
      <trkpt lat="45.64002" lon="-1.0839">
        <ele>61.6</ele>
        <time>2022-08-11T09:14:50.502+02:00</time>
      </trkpt>
      <trkpt lat="45.63991" lon="-1.08386">
        <ele>63</ele>
        <time>2022-08-11T09:14:54.496+02:00</time>
      </trkpt>
      <trkpt lat="45.63985" lon="-1.08375">
        <ele>63.7</ele>
        <time>2022-08-11T09:14:57.493+02:00</time>
      </trkpt>
      <trkpt lat="45.63979" lon="-1.08365">
        <ele>64</ele>
        <time>2022-08-11T09:15:00.505+02:00</time>
      </trkpt>
      <trkpt lat="45.63972" lon="-1.08353">
        <ele>65.3</ele>
        <time>2022-08-11T09:15:03.508+02:00</time>
      </trkpt>
      <trkpt lat="45.63966" lon="-1.08341">
        <ele>65.2</ele>
        <time>2022-08-11T09:15:06.501+02:00</time>
      </trkpt>
      <trkpt lat="45.63961" lon="-1.08327">
        <ele>65.5</ele>
        <time>2022-08-11T09:15:09.508+02:00</time>
      </trkpt>
      <trkpt lat="45.63958" lon="-1.08313">
        <ele>64.4</ele>
        <time>2022-08-11T09:15:12.502+02:00</time>
      </trkpt>
      <trkpt lat="45.63955" lon="-1.08298">
        <ele>65.4</ele>
        <time>2022-08-11T09:15:15.501+02:00</time>
      </trkpt>
      <trkpt lat="45.63952" lon="-1.08284">
        <ele>65.2</ele>
        <time>2022-08-11T09:15:18.501+02:00</time>
      </trkpt>
      <trkpt lat="45.63949" lon="-1.08268">
        <ele>64.9</ele>
        <time>2022-08-11T09:15:21.488+02:00</time>
      </trkpt>
      <trkpt lat="45.63946" lon="-1.08253">
        <ele>65.2</ele>
        <time>2022-08-11T09:15:24.503+02:00</time>
      </trkpt>
      <trkpt lat="45.63943" lon="-1.08236">
        <ele>65</ele>
        <time>2022-08-11T09:15:27.498+02:00</time>
      </trkpt>
      <trkpt lat="45.6394" lon="-1.08223">
        <ele>65</ele>
        <time>2022-08-11T09:15:29.498+02:00</time>
      </trkpt>
      <trkpt lat="45.63937" lon="-1.08211">
        <ele>65.2</ele>
        <time>2022-08-11T09:15:31.491+02:00</time>
      </trkpt>
      <trkpt lat="45.63934" lon="-1.08194">
        <ele>65.3</ele>
        <time>2022-08-11T09:15:34.501+02:00</time>
      </trkpt>
      <trkpt lat="45.6393" lon="-1.08177">
        <ele>64.9</ele>
        <time>2022-08-11T09:15:37.502+02:00</time>
      </trkpt>
      <trkpt lat="45.63928" lon="-1.08163">
        <ele>63.8</ele>
        <time>2022-08-11T09:15:39.494+02:00</time>
      </trkpt>
      <trkpt lat="45.63926" lon="-1.08149">
        <ele>63.2</ele>
        <time>2022-08-11T09:15:41.489+02:00</time>
      </trkpt>
      <trkpt lat="45.63923" lon="-1.08135">
        <ele>63.1</ele>
        <time>2022-08-11T09:15:43.498+02:00</time>
      </trkpt>
      <trkpt lat="45.6392" lon="-1.08121">
        <ele>62.5</ele>
        <time>2022-08-11T09:15:45.489+02:00</time>
      </trkpt>
      <trkpt lat="45.63917" lon="-1.08106">
        <ele>62.1</ele>
        <time>2022-08-11T09:15:47.491+02:00</time>
      </trkpt>
      <trkpt lat="45.63913" lon="-1.08089">
        <ele>61.5</ele>
        <time>2022-08-11T09:15:49.491+02:00</time>
      </trkpt>
      <trkpt lat="45.6391" lon="-1.08072">
        <ele>60.3</ele>
        <time>2022-08-11T09:15:51.478+02:00</time>
      </trkpt>
      <trkpt lat="45.63907" lon="-1.08055">
        <ele>59.5</ele>
        <time>2022-08-11T09:15:53.498+02:00</time>
      </trkpt>
      <trkpt lat="45.63904" lon="-1.08041">
        <ele>59</ele>
        <time>2022-08-11T09:15:55.498+02:00</time>
      </trkpt>
      <trkpt lat="45.63898" lon="-1.08029">
        <ele>55.5</ele>
        <time>2022-08-11T09:15:58.495+02:00</time>
      </trkpt>
      <trkpt lat="45.63897" lon="-1.08011">
        <ele>53.6</ele>
        <time>2022-08-11T09:16:02.5+02:00</time>
      </trkpt>
      <trkpt lat="45.63901" lon="-1.07999">
        <ele>53.3</ele>
        <time>2022-08-11T09:16:04.5+02:00</time>
      </trkpt>
      <trkpt lat="45.63905" lon="-1.07985">
        <ele>53.6</ele>
        <time>2022-08-11T09:16:06.48+02:00</time>
      </trkpt>
      <trkpt lat="45.63907" lon="-1.07971">
        <ele>53.9</ele>
        <time>2022-08-11T09:16:08.493+02:00</time>
      </trkpt>
      <trkpt lat="45.63911" lon="-1.07955">
        <ele>54.3</ele>
        <time>2022-08-11T09:16:10.497+02:00</time>
      </trkpt>
      <trkpt lat="45.63915" lon="-1.0794">
        <ele>54.3</ele>
        <time>2022-08-11T09:16:12.504+02:00</time>
      </trkpt>
      <trkpt lat="45.63919" lon="-1.07925">
        <ele>54.3</ele>
        <time>2022-08-11T09:16:14.501+02:00</time>
      </trkpt>
      <trkpt lat="45.63924" lon="-1.0791">
        <ele>56.2</ele>
        <time>2022-08-11T09:16:16.499+02:00</time>
      </trkpt>
      <trkpt lat="45.63928" lon="-1.07897">
        <ele>55.5</ele>
        <time>2022-08-11T09:16:18.504+02:00</time>
      </trkpt>
      <trkpt lat="45.63933" lon="-1.07883">
        <ele>55.4</ele>
        <time>2022-08-11T09:16:20.494+02:00</time>
      </trkpt>
      <trkpt lat="45.63938" lon="-1.0787">
        <ele>55.2</ele>
        <time>2022-08-11T09:16:22.496+02:00</time>
      </trkpt>
      <trkpt lat="45.63942" lon="-1.07856">
        <ele>55.3</ele>
        <time>2022-08-11T09:16:24.493+02:00</time>
      </trkpt>
      <trkpt lat="45.63945" lon="-1.07844">
        <ele>55.1</ele>
        <time>2022-08-11T09:16:26.498+02:00</time>
      </trkpt>
      <trkpt lat="45.63952" lon="-1.07827">
        <ele>55.3</ele>
        <time>2022-08-11T09:16:29.491+02:00</time>
      </trkpt>
      <trkpt lat="45.63958" lon="-1.0781">
        <ele>55.5</ele>
        <time>2022-08-11T09:16:32.494+02:00</time>
      </trkpt>
      <trkpt lat="45.63963" lon="-1.07796">
        <ele>55.8</ele>
        <time>2022-08-11T09:16:35.496+02:00</time>
      </trkpt>
      <trkpt lat="45.63968" lon="-1.07783">
        <ele>56.5</ele>
        <time>2022-08-11T09:16:38.502+02:00</time>
      </trkpt>
      <trkpt lat="45.63971" lon="-1.07771">
        <ele>56.9</ele>
        <time>2022-08-11T09:16:41.495+02:00</time>
      </trkpt>
      <trkpt lat="45.63974" lon="-1.07757">
        <ele>58.1</ele>
        <time>2022-08-11T09:16:44.502+02:00</time>
      </trkpt>
      <trkpt lat="45.63975" lon="-1.07744">
        <ele>57.7</ele>
        <time>2022-08-11T09:16:47.497+02:00</time>
      </trkpt>
      <trkpt lat="45.63976" lon="-1.0773">
        <ele>56.9</ele>
        <time>2022-08-11T09:16:50.501+02:00</time>
      </trkpt>
      <trkpt lat="45.63976" lon="-1.07714">
        <ele>56.5</ele>
        <time>2022-08-11T09:16:53.495+02:00</time>
      </trkpt>
      <trkpt lat="45.63976" lon="-1.07699">
        <ele>56.6</ele>
        <time>2022-08-11T09:16:56.492+02:00</time>
      </trkpt>
      <trkpt lat="45.63976" lon="-1.07683">
        <ele>56.7</ele>
        <time>2022-08-11T09:16:59.499+02:00</time>
      </trkpt>
      <trkpt lat="45.63974" lon="-1.07666">
        <ele>56.5</ele>
        <time>2022-08-11T09:17:02.498+02:00</time>
      </trkpt>
      <trkpt lat="45.6397" lon="-1.07649">
        <ele>56.1</ele>
        <time>2022-08-11T09:17:05.491+02:00</time>
      </trkpt>
      <trkpt lat="45.63966" lon="-1.07631">
        <ele>56.1</ele>
        <time>2022-08-11T09:17:08.493+02:00</time>
      </trkpt>
      <trkpt lat="45.63963" lon="-1.07618">
        <ele>55.8</ele>
        <time>2022-08-11T09:17:10.515+02:00</time>
      </trkpt>
      <trkpt lat="45.6396" lon="-1.07605">
        <ele>55.7</ele>
        <time>2022-08-11T09:17:12.507+02:00</time>
      </trkpt>
      <trkpt lat="45.63956" lon="-1.07588">
        <ele>54.2</ele>
        <time>2022-08-11T09:17:15.496+02:00</time>
      </trkpt>
      <trkpt lat="45.63953" lon="-1.07576">
        <ele>53.6</ele>
        <time>2022-08-11T09:17:18.495+02:00</time>
      </trkpt>
      <trkpt lat="45.63951" lon="-1.07562">
        <ele>53.7</ele>
        <time>2022-08-11T09:17:23.502+02:00</time>
      </trkpt>
      <trkpt lat="45.63948" lon="-1.07548">
        <ele>53.9</ele>
        <time>2022-08-11T09:17:26.501+02:00</time>
      </trkpt>
      <trkpt lat="45.63945" lon="-1.07531">
        <ele>54.2</ele>
        <time>2022-08-11T09:17:29.505+02:00</time>
      </trkpt>
      <trkpt lat="45.63942" lon="-1.07515">
        <ele>53.8</ele>
        <time>2022-08-11T09:17:32.503+02:00</time>
      </trkpt>
      <trkpt lat="45.63939" lon="-1.07499">
        <ele>53</ele>
        <time>2022-08-11T09:17:35.497+02:00</time>
      </trkpt>
      <trkpt lat="45.63936" lon="-1.07484">
        <ele>53.3</ele>
        <time>2022-08-11T09:17:38.494+02:00</time>
      </trkpt>
      <trkpt lat="45.63932" lon="-1.0747">
        <ele>53.9</ele>
        <time>2022-08-11T09:17:41.488+02:00</time>
      </trkpt>
      <trkpt lat="45.63928" lon="-1.07458">
        <ele>54.5</ele>
        <time>2022-08-11T09:17:44.495+02:00</time>
      </trkpt>
      <trkpt lat="45.63924" lon="-1.07446">
        <ele>55.8</ele>
        <time>2022-08-11T09:17:47.505+02:00</time>
      </trkpt>
      <trkpt lat="45.63919" lon="-1.07432">
        <ele>58</ele>
        <time>2022-08-11T09:17:51.491+02:00</time>
      </trkpt>
      <trkpt lat="45.63915" lon="-1.07419">
        <ele>57.9</ele>
        <time>2022-08-11T09:17:56.497+02:00</time>
      </trkpt>
      <trkpt lat="45.63909" lon="-1.07408">
        <ele>58.4</ele>
        <time>2022-08-11T09:18:00.507+02:00</time>
      </trkpt>
      <trkpt lat="45.63903" lon="-1.07396">
        <ele>59.1</ele>
        <time>2022-08-11T09:18:04.494+02:00</time>
      </trkpt>
      <trkpt lat="45.63897" lon="-1.07386">
        <ele>59.8</ele>
        <time>2022-08-11T09:18:08.505+02:00</time>
      </trkpt>
      <trkpt lat="45.63891" lon="-1.07376">
        <ele>60.3</ele>
        <time>2022-08-11T09:18:12.502+02:00</time>
      </trkpt>
      <trkpt lat="45.63884" lon="-1.07366">
        <ele>60.8</ele>
        <time>2022-08-11T09:18:16.495+02:00</time>
      </trkpt>
      <trkpt lat="45.63876" lon="-1.07356">
        <ele>61.4</ele>
        <time>2022-08-11T09:18:20.498+02:00</time>
      </trkpt>
      <trkpt lat="45.63867" lon="-1.07347">
        <ele>62.2</ele>
        <time>2022-08-11T09:18:24.496+02:00</time>
      </trkpt>
      <trkpt lat="45.63859" lon="-1.07338">
        <ele>62.8</ele>
        <time>2022-08-11T09:18:28.499+02:00</time>
      </trkpt>
      <trkpt lat="45.6385" lon="-1.0733">
        <ele>62.8</ele>
        <time>2022-08-11T09:18:32.499+02:00</time>
      </trkpt>
      <trkpt lat="45.63841" lon="-1.07321">
        <ele>63.4</ele>
        <time>2022-08-11T09:18:36.498+02:00</time>
      </trkpt>
      <trkpt lat="45.63833" lon="-1.07313">
        <ele>64.3</ele>
        <time>2022-08-11T09:18:40.498+02:00</time>
      </trkpt>
      <trkpt lat="45.63823" lon="-1.07308">
        <ele>65.4</ele>
        <time>2022-08-11T09:18:44.503+02:00</time>
      </trkpt>
      <trkpt lat="45.63814" lon="-1.07299">
        <ele>66.3</ele>
        <time>2022-08-11T09:18:48.494+02:00</time>
      </trkpt>
      <trkpt lat="45.63805" lon="-1.0729">
        <ele>66.5</ele>
        <time>2022-08-11T09:18:52.502+02:00</time>
      </trkpt>
      <trkpt lat="45.63798" lon="-1.07281">
        <ele>66.5</ele>
        <time>2022-08-11T09:18:56.496+02:00</time>
      </trkpt>
      <trkpt lat="45.6379" lon="-1.07271">
        <ele>66.2</ele>
        <time>2022-08-11T09:19:00.501+02:00</time>
      </trkpt>
      <trkpt lat="45.63784" lon="-1.07261">
        <ele>66.5</ele>
        <time>2022-08-11T09:19:03.501+02:00</time>
      </trkpt>
      <trkpt lat="45.63778" lon="-1.0725">
        <ele>66.4</ele>
        <time>2022-08-11T09:19:06.498+02:00</time>
      </trkpt>
      <trkpt lat="45.63772" lon="-1.07239">
        <ele>64.6</ele>
        <time>2022-08-11T09:19:09.492+02:00</time>
      </trkpt>
      <trkpt lat="45.63766" lon="-1.07227">
        <ele>66.5</ele>
        <time>2022-08-11T09:19:12.499+02:00</time>
      </trkpt>
      <trkpt lat="45.6376" lon="-1.07215">
        <ele>65.8</ele>
        <time>2022-08-11T09:19:15.496+02:00</time>
      </trkpt>
      <trkpt lat="45.63753" lon="-1.07202">
        <ele>66.4</ele>
        <time>2022-08-11T09:19:18.495+02:00</time>
      </trkpt>
      <trkpt lat="45.63746" lon="-1.0719">
        <ele>66.7</ele>
        <time>2022-08-11T09:19:21.479+02:00</time>
      </trkpt>
      <trkpt lat="45.63739" lon="-1.07177">
        <ele>66.6</ele>
        <time>2022-08-11T09:19:24.501+02:00</time>
      </trkpt>
      <trkpt lat="45.63732" lon="-1.07163">
        <ele>67.5</ele>
        <time>2022-08-11T09:19:27.49+02:00</time>
      </trkpt>
      <trkpt lat="45.63724" lon="-1.07149">
        <ele>67.8</ele>
        <time>2022-08-11T09:19:30.5+02:00</time>
      </trkpt>
      <trkpt lat="45.63716" lon="-1.07135">
        <ele>67.3</ele>
        <time>2022-08-11T09:19:33.497+02:00</time>
      </trkpt>
      <trkpt lat="45.63708" lon="-1.0712">
        <ele>67.4</ele>
        <time>2022-08-11T09:19:36.499+02:00</time>
      </trkpt>
      <trkpt lat="45.637" lon="-1.07105">
        <ele>68.2</ele>
        <time>2022-08-11T09:19:39.496+02:00</time>
      </trkpt>
      <trkpt lat="45.63694" lon="-1.07094">
        <ele>68</ele>
        <time>2022-08-11T09:19:41.494+02:00</time>
      </trkpt>
      <trkpt lat="45.63688" lon="-1.07084">
        <ele>67.7</ele>
        <time>2022-08-11T09:19:43.5+02:00</time>
      </trkpt>
      <trkpt lat="45.63682" lon="-1.07073">
        <ele>67.4</ele>
        <time>2022-08-11T09:19:45.503+02:00</time>
      </trkpt>
      <trkpt lat="45.63676" lon="-1.07062">
        <ele>68</ele>
        <time>2022-08-11T09:19:47.493+02:00</time>
      </trkpt>
      <trkpt lat="45.63669" lon="-1.07052">
        <ele>68</ele>
        <time>2022-08-11T09:19:49.503+02:00</time>
      </trkpt>
      <trkpt lat="45.63664" lon="-1.07041">
        <ele>67.7</ele>
        <time>2022-08-11T09:19:51.494+02:00</time>
      </trkpt>
      <trkpt lat="45.63658" lon="-1.0703">
        <ele>67.8</ele>
        <time>2022-08-11T09:19:53.491+02:00</time>
      </trkpt>
      <trkpt lat="45.6365" lon="-1.0702">
        <ele>66.4</ele>
        <time>2022-08-11T09:19:56.492+02:00</time>
      </trkpt>
      <trkpt lat="45.63642" lon="-1.07012">
        <ele>65.9</ele>
        <time>2022-08-11T09:19:59.502+02:00</time>
      </trkpt>
      <trkpt lat="45.63638" lon="-1.06997">
        <ele>65.8</ele>
        <time>2022-08-11T09:20:02.501+02:00</time>
      </trkpt>
      <trkpt lat="45.6363" lon="-1.06982">
        <ele>66.3</ele>
        <time>2022-08-11T09:20:05.503+02:00</time>
      </trkpt>
      <trkpt lat="45.63624" lon="-1.06971">
        <ele>66.2</ele>
        <time>2022-08-11T09:20:07.497+02:00</time>
      </trkpt>
      <trkpt lat="45.63617" lon="-1.0696">
        <ele>65.7</ele>
        <time>2022-08-11T09:20:09.495+02:00</time>
      </trkpt>
      <trkpt lat="45.63609" lon="-1.06949">
        <ele>65.9</ele>
        <time>2022-08-11T09:20:11.49+02:00</time>
      </trkpt>
      <trkpt lat="45.63602" lon="-1.06936">
        <ele>65.5</ele>
        <time>2022-08-11T09:20:13.499+02:00</time>
      </trkpt>
      <trkpt lat="45.63594" lon="-1.06925">
        <ele>65.3</ele>
        <time>2022-08-11T09:20:15.496+02:00</time>
      </trkpt>
      <trkpt lat="45.63586" lon="-1.06914">
        <ele>64.9</ele>
        <time>2022-08-11T09:20:17.5+02:00</time>
      </trkpt>
      <trkpt lat="45.63579" lon="-1.06902">
        <ele>64.9</ele>
        <time>2022-08-11T09:20:19.502+02:00</time>
      </trkpt>
      <trkpt lat="45.63571" lon="-1.0689">
        <ele>64.8</ele>
        <time>2022-08-11T09:20:21.486+02:00</time>
      </trkpt>
      <trkpt lat="45.63564" lon="-1.06879">
        <ele>64.3</ele>
        <time>2022-08-11T09:20:23.498+02:00</time>
      </trkpt>
      <trkpt lat="45.63555" lon="-1.06868">
        <ele>64.6</ele>
        <time>2022-08-11T09:20:25.499+02:00</time>
      </trkpt>
      <trkpt lat="45.63548" lon="-1.06858">
        <ele>65</ele>
        <time>2022-08-11T09:20:27.501+02:00</time>
      </trkpt>
      <trkpt lat="45.63541" lon="-1.06848">
        <ele>65.2</ele>
        <time>2022-08-11T09:20:29.487+02:00</time>
      </trkpt>
      <trkpt lat="45.63534" lon="-1.06839">
        <ele>65.1</ele>
        <time>2022-08-11T09:20:31.49+02:00</time>
      </trkpt>
      <trkpt lat="45.63528" lon="-1.0683">
        <ele>65.1</ele>
        <time>2022-08-11T09:20:33.498+02:00</time>
      </trkpt>
      <trkpt lat="45.63521" lon="-1.0682">
        <ele>65.4</ele>
        <time>2022-08-11T09:20:35.503+02:00</time>
      </trkpt>
      <trkpt lat="45.63511" lon="-1.06807">
        <ele>65.7</ele>
        <time>2022-08-11T09:20:38.502+02:00</time>
      </trkpt>
      <trkpt lat="45.63502" lon="-1.06795">
        <ele>65.8</ele>
        <time>2022-08-11T09:20:41.496+02:00</time>
      </trkpt>
      <trkpt lat="45.63494" lon="-1.06783">
        <ele>66.4</ele>
        <time>2022-08-11T09:20:44.5+02:00</time>
      </trkpt>
      <trkpt lat="45.63484" lon="-1.0677">
        <ele>66.3</ele>
        <time>2022-08-11T09:20:47.497+02:00</time>
      </trkpt>
      <trkpt lat="45.63475" lon="-1.06757">
        <ele>66.1</ele>
        <time>2022-08-11T09:20:50.495+02:00</time>
      </trkpt>
      <trkpt lat="45.63465" lon="-1.06746">
        <ele>66.5</ele>
        <time>2022-08-11T09:20:53.501+02:00</time>
      </trkpt>
      <trkpt lat="45.63459" lon="-1.06736">
        <ele>67.2</ele>
        <time>2022-08-11T09:20:55.506+02:00</time>
      </trkpt>
      <trkpt lat="45.6345" lon="-1.06722">
        <ele>67</ele>
        <time>2022-08-11T09:20:58.503+02:00</time>
      </trkpt>
      <trkpt lat="45.63443" lon="-1.06714">
        <ele>66.4</ele>
        <time>2022-08-11T09:21:00.497+02:00</time>
      </trkpt>
      <trkpt lat="45.63434" lon="-1.06702">
        <ele>65.8</ele>
        <time>2022-08-11T09:21:03.5+02:00</time>
      </trkpt>
      <trkpt lat="45.63425" lon="-1.0669">
        <ele>66.3</ele>
        <time>2022-08-11T09:21:06.494+02:00</time>
      </trkpt>
      <trkpt lat="45.63417" lon="-1.06679">
        <ele>66.6</ele>
        <time>2022-08-11T09:21:09.501+02:00</time>
      </trkpt>
      <trkpt lat="45.63408" lon="-1.06667">
        <ele>67.1</ele>
        <time>2022-08-11T09:21:12.502+02:00</time>
      </trkpt>
      <trkpt lat="45.63399" lon="-1.06655">
        <ele>67.7</ele>
        <time>2022-08-11T09:21:15.497+02:00</time>
      </trkpt>
      <trkpt lat="45.6339" lon="-1.06643">
        <ele>68</ele>
        <time>2022-08-11T09:21:18.494+02:00</time>
      </trkpt>
      <trkpt lat="45.63381" lon="-1.06631">
        <ele>68.4</ele>
        <time>2022-08-11T09:21:21.489+02:00</time>
      </trkpt>
      <trkpt lat="45.63373" lon="-1.0662">
        <ele>68.4</ele>
        <time>2022-08-11T09:21:24.506+02:00</time>
      </trkpt>
      <trkpt lat="45.63365" lon="-1.06608">
        <ele>68.3</ele>
        <time>2022-08-11T09:21:27.497+02:00</time>
      </trkpt>
      <trkpt lat="45.63357" lon="-1.06597">
        <ele>67.6</ele>
        <time>2022-08-11T09:21:30.5+02:00</time>
      </trkpt>
      <trkpt lat="45.6335" lon="-1.06586">
        <ele>67.9</ele>
        <time>2022-08-11T09:21:33.497+02:00</time>
      </trkpt>
      <trkpt lat="45.63342" lon="-1.06574">
        <ele>68.5</ele>
        <time>2022-08-11T09:21:36.505+02:00</time>
      </trkpt>
      <trkpt lat="45.63334" lon="-1.06563">
        <ele>68.7</ele>
        <time>2022-08-11T09:21:39.497+02:00</time>
      </trkpt>
      <trkpt lat="45.63326" lon="-1.06552">
        <ele>68.3</ele>
        <time>2022-08-11T09:21:42.493+02:00</time>
      </trkpt>
      <trkpt lat="45.63318" lon="-1.06539">
        <ele>68.6</ele>
        <time>2022-08-11T09:21:45.505+02:00</time>
      </trkpt>
      <trkpt lat="45.6331" lon="-1.06528">
        <ele>68.8</ele>
        <time>2022-08-11T09:21:48.502+02:00</time>
      </trkpt>
      <trkpt lat="45.63301" lon="-1.06515">
        <ele>68.4</ele>
        <time>2022-08-11T09:21:51.49+02:00</time>
      </trkpt>
      <trkpt lat="45.63292" lon="-1.06503">
        <ele>68.3</ele>
        <time>2022-08-11T09:21:54.498+02:00</time>
      </trkpt>
      <trkpt lat="45.63284" lon="-1.0649">
        <ele>68.3</ele>
        <time>2022-08-11T09:21:57.505+02:00</time>
      </trkpt>
      <trkpt lat="45.63276" lon="-1.06478">
        <ele>68.1</ele>
        <time>2022-08-11T09:22:00.496+02:00</time>
      </trkpt>
      <trkpt lat="45.63269" lon="-1.06467">
        <ele>67.2</ele>
        <time>2022-08-11T09:22:03.506+02:00</time>
      </trkpt>
      <trkpt lat="45.63261" lon="-1.06456">
        <ele>67</ele>
        <time>2022-08-11T09:22:06.495+02:00</time>
      </trkpt>
      <trkpt lat="45.63252" lon="-1.06443">
        <ele>68</ele>
        <time>2022-08-11T09:22:09.499+02:00</time>
      </trkpt>
      <trkpt lat="45.63242" lon="-1.06429">
        <ele>67.1</ele>
        <time>2022-08-11T09:22:12.488+02:00</time>
      </trkpt>
      <trkpt lat="45.63236" lon="-1.0642">
        <ele>67</ele>
        <time>2022-08-11T09:22:14.512+02:00</time>
      </trkpt>
      <trkpt lat="45.63226" lon="-1.06407">
        <ele>67</ele>
        <time>2022-08-11T09:22:17.501+02:00</time>
      </trkpt>
      <trkpt lat="45.63217" lon="-1.06394">
        <ele>66.7</ele>
        <time>2022-08-11T09:22:20.503+02:00</time>
      </trkpt>
      <trkpt lat="45.6321" lon="-1.06384">
        <ele>66.5</ele>
        <time>2022-08-11T09:22:22.497+02:00</time>
      </trkpt>
      <trkpt lat="45.63203" lon="-1.06375">
        <ele>66.1</ele>
        <time>2022-08-11T09:22:24.495+02:00</time>
      </trkpt>
      <trkpt lat="45.63195" lon="-1.06362">
        <ele>65.6</ele>
        <time>2022-08-11T09:22:27.504+02:00</time>
      </trkpt>
      <trkpt lat="45.63185" lon="-1.0635">
        <ele>64.6</ele>
        <time>2022-08-11T09:22:30.5+02:00</time>
      </trkpt>
      <trkpt lat="45.63176" lon="-1.06338">
        <ele>64.7</ele>
        <time>2022-08-11T09:22:33.5+02:00</time>
      </trkpt>
      <trkpt lat="45.63169" lon="-1.06327">
        <ele>65.7</ele>
        <time>2022-08-11T09:22:36.503+02:00</time>
      </trkpt>
      <trkpt lat="45.63163" lon="-1.06317">
        <ele>65.4</ele>
        <time>2022-08-11T09:22:39.498+02:00</time>
      </trkpt>
      <trkpt lat="45.63157" lon="-1.06305">
        <ele>65.1</ele>
        <time>2022-08-11T09:22:42.489+02:00</time>
      </trkpt>
      <trkpt lat="45.63149" lon="-1.06293">
        <ele>65</ele>
        <time>2022-08-11T09:22:45.499+02:00</time>
      </trkpt>
      <trkpt lat="45.63142" lon="-1.06281">
        <ele>66.1</ele>
        <time>2022-08-11T09:22:48.494+02:00</time>
      </trkpt>
      <trkpt lat="45.63135" lon="-1.0627">
        <ele>65.8</ele>
        <time>2022-08-11T09:22:51.495+02:00</time>
      </trkpt>
      <trkpt lat="45.63127" lon="-1.06258">
        <ele>65.4</ele>
        <time>2022-08-11T09:22:54.5+02:00</time>
      </trkpt>
      <trkpt lat="45.6312" lon="-1.06245">
        <ele>65.2</ele>
        <time>2022-08-11T09:22:57.496+02:00</time>
      </trkpt>
      <trkpt lat="45.63112" lon="-1.06233">
        <ele>65.2</ele>
        <time>2022-08-11T09:23:00.505+02:00</time>
      </trkpt>
      <trkpt lat="45.63104" lon="-1.06219">
        <ele>65.9</ele>
        <time>2022-08-11T09:23:03.481+02:00</time>
      </trkpt>
      <trkpt lat="45.63096" lon="-1.06206">
        <ele>65</ele>
        <time>2022-08-11T09:23:06.492+02:00</time>
      </trkpt>
      <trkpt lat="45.63089" lon="-1.06195">
        <ele>65.3</ele>
        <time>2022-08-11T09:23:09.491+02:00</time>
      </trkpt>
      <trkpt lat="45.63083" lon="-1.06183">
        <ele>66.6</ele>
        <time>2022-08-11T09:23:12.478+02:00</time>
      </trkpt>
      <trkpt lat="45.63076" lon="-1.06171">
        <ele>67.4</ele>
        <time>2022-08-11T09:23:15.494+02:00</time>
      </trkpt>
      <trkpt lat="45.63069" lon="-1.0616">
        <ele>67.6</ele>
        <time>2022-08-11T09:23:18.494+02:00</time>
      </trkpt>
      <trkpt lat="45.63061" lon="-1.06149">
        <ele>67.7</ele>
        <time>2022-08-11T09:23:21.507+02:00</time>
      </trkpt>
      <trkpt lat="45.63053" lon="-1.06136">
        <ele>67.6</ele>
        <time>2022-08-11T09:23:24.493+02:00</time>
      </trkpt>
      <trkpt lat="45.63045" lon="-1.06122">
        <ele>68.3</ele>
        <time>2022-08-11T09:23:27.495+02:00</time>
      </trkpt>
      <trkpt lat="45.63037" lon="-1.0611">
        <ele>68.1</ele>
        <time>2022-08-11T09:23:30.499+02:00</time>
      </trkpt>
      <trkpt lat="45.63029" lon="-1.06096">
        <ele>69.1</ele>
        <time>2022-08-11T09:23:33.499+02:00</time>
      </trkpt>
      <trkpt lat="45.63021" lon="-1.06082">
        <ele>69.4</ele>
        <time>2022-08-11T09:23:36.501+02:00</time>
      </trkpt>
      <trkpt lat="45.63013" lon="-1.06069">
        <ele>69.2</ele>
        <time>2022-08-11T09:23:39.499+02:00</time>
      </trkpt>
      <trkpt lat="45.63005" lon="-1.06055">
        <ele>69.3</ele>
        <time>2022-08-11T09:23:42.491+02:00</time>
      </trkpt>
      <trkpt lat="45.62997" lon="-1.06042">
        <ele>69.7</ele>
        <time>2022-08-11T09:23:45.503+02:00</time>
      </trkpt>
      <trkpt lat="45.62989" lon="-1.06029">
        <ele>70</ele>
        <time>2022-08-11T09:23:48.499+02:00</time>
      </trkpt>
      <trkpt lat="45.62981" lon="-1.06018">
        <ele>70.3</ele>
        <time>2022-08-11T09:23:51.493+02:00</time>
      </trkpt>
      <trkpt lat="45.62973" lon="-1.06006">
        <ele>70.8</ele>
        <time>2022-08-11T09:23:54.489+02:00</time>
      </trkpt>
      <trkpt lat="45.62966" lon="-1.05994">
        <ele>70</ele>
        <time>2022-08-11T09:23:57.501+02:00</time>
      </trkpt>
      <trkpt lat="45.62959" lon="-1.05981">
        <ele>70.4</ele>
        <time>2022-08-11T09:24:00.504+02:00</time>
      </trkpt>
      <trkpt lat="45.62952" lon="-1.05967">
        <ele>70.2</ele>
        <time>2022-08-11T09:24:03.494+02:00</time>
      </trkpt>
      <trkpt lat="45.62945" lon="-1.05951">
        <ele>69</ele>
        <time>2022-08-11T09:24:06.493+02:00</time>
      </trkpt>
      <trkpt lat="45.62942" lon="-1.05939">
        <ele>69</ele>
        <time>2022-08-11T09:24:08.494+02:00</time>
      </trkpt>
      <trkpt lat="45.62938" lon="-1.05922">
        <ele>68.1</ele>
        <time>2022-08-11T09:24:11.499+02:00</time>
      </trkpt>
      <trkpt lat="45.62936" lon="-1.05909">
        <ele>68.6</ele>
        <time>2022-08-11T09:24:13.504+02:00</time>
      </trkpt>
      <trkpt lat="45.62931" lon="-1.05891">
        <ele>67.4</ele>
        <time>2022-08-11T09:24:16.482+02:00</time>
      </trkpt>
      <trkpt lat="45.62926" lon="-1.05873">
        <ele>66.1</ele>
        <time>2022-08-11T09:24:19.5+02:00</time>
      </trkpt>
      <trkpt lat="45.62924" lon="-1.0586">
        <ele>66.2</ele>
        <time>2022-08-11T09:24:21.49+02:00</time>
      </trkpt>
      <trkpt lat="45.62922" lon="-1.05847">
        <ele>66</ele>
        <time>2022-08-11T09:24:23.499+02:00</time>
      </trkpt>
      <trkpt lat="45.62919" lon="-1.05834">
        <ele>65.4</ele>
        <time>2022-08-11T09:24:25.503+02:00</time>
      </trkpt>
      <trkpt lat="45.62916" lon="-1.05821">
        <ele>65.4</ele>
        <time>2022-08-11T09:24:27.487+02:00</time>
      </trkpt>
      <trkpt lat="45.62913" lon="-1.05808">
        <ele>64.9</ele>
        <time>2022-08-11T09:24:29.494+02:00</time>
      </trkpt>
      <trkpt lat="45.62911" lon="-1.05795">
        <ele>65.3</ele>
        <time>2022-08-11T09:24:31.491+02:00</time>
      </trkpt>
      <trkpt lat="45.62909" lon="-1.05782">
        <ele>65.1</ele>
        <time>2022-08-11T09:24:33.502+02:00</time>
      </trkpt>
      <trkpt lat="45.62907" lon="-1.0577">
        <ele>65.3</ele>
        <time>2022-08-11T09:24:35.505+02:00</time>
      </trkpt>
      <trkpt lat="45.62904" lon="-1.05752">
        <ele>65.6</ele>
        <time>2022-08-11T09:24:38.501+02:00</time>
      </trkpt>
      <trkpt lat="45.629" lon="-1.05735">
        <ele>64.6</ele>
        <time>2022-08-11T09:24:41.493+02:00</time>
      </trkpt>
      <trkpt lat="45.62897" lon="-1.05717">
        <ele>64.6</ele>
        <time>2022-08-11T09:24:44.507+02:00</time>
      </trkpt>
      <trkpt lat="45.62894" lon="-1.05699">
        <ele>64.7</ele>
        <time>2022-08-11T09:24:47.499+02:00</time>
      </trkpt>
      <trkpt lat="45.62891" lon="-1.05681">
        <ele>65.4</ele>
        <time>2022-08-11T09:24:50.496+02:00</time>
      </trkpt>
      <trkpt lat="45.62888" lon="-1.05664">
        <ele>65.1</ele>
        <time>2022-08-11T09:24:53.505+02:00</time>
      </trkpt>
      <trkpt lat="45.62885" lon="-1.05646">
        <ele>65</ele>
        <time>2022-08-11T09:24:56.502+02:00</time>
      </trkpt>
      <trkpt lat="45.62881" lon="-1.05629">
        <ele>64.7</ele>
        <time>2022-08-11T09:24:59.494+02:00</time>
      </trkpt>
      <trkpt lat="45.62876" lon="-1.05613">
        <ele>64.2</ele>
        <time>2022-08-11T09:25:02.489+02:00</time>
      </trkpt>
      <trkpt lat="45.62876" lon="-1.05598">
        <ele>63.8</ele>
        <time>2022-08-11T09:25:05.501+02:00</time>
      </trkpt>
      <trkpt lat="45.62876" lon="-1.05582">
        <ele>64.7</ele>
        <time>2022-08-11T09:25:08.496+02:00</time>
      </trkpt>
      <trkpt lat="45.62876" lon="-1.05565">
        <ele>65.5</ele>
        <time>2022-08-11T09:25:11.493+02:00</time>
      </trkpt>
      <trkpt lat="45.62875" lon="-1.05547">
        <ele>65.4</ele>
        <time>2022-08-11T09:25:14.494+02:00</time>
      </trkpt>
      <trkpt lat="45.62874" lon="-1.05529">
        <ele>65.3</ele>
        <time>2022-08-11T09:25:17.511+02:00</time>
      </trkpt>
      <trkpt lat="45.62875" lon="-1.05515">
        <ele>65.1</ele>
        <time>2022-08-11T09:25:19.5+02:00</time>
      </trkpt>
      <trkpt lat="45.62876" lon="-1.05502">
        <ele>65.2</ele>
        <time>2022-08-11T09:25:21.507+02:00</time>
      </trkpt>
      <trkpt lat="45.62876" lon="-1.05489">
        <ele>64.5</ele>
        <time>2022-08-11T09:25:23.501+02:00</time>
      </trkpt>
      <trkpt lat="45.62877" lon="-1.05474">
        <ele>64.5</ele>
        <time>2022-08-11T09:25:25.511+02:00</time>
      </trkpt>
      <trkpt lat="45.62878" lon="-1.05458">
        <ele>64</ele>
        <time>2022-08-11T09:25:27.489+02:00</time>
      </trkpt>
      <trkpt lat="45.62878" lon="-1.0544">
        <ele>63.5</ele>
        <time>2022-08-11T09:25:29.5+02:00</time>
      </trkpt>
      <trkpt lat="45.62878" lon="-1.05423">
        <ele>63.1</ele>
        <time>2022-08-11T09:25:31.493+02:00</time>
      </trkpt>
      <trkpt lat="45.62878" lon="-1.05407">
        <ele>61.9</ele>
        <time>2022-08-11T09:25:33.499+02:00</time>
      </trkpt>
      <trkpt lat="45.62878" lon="-1.05391">
        <ele>61.1</ele>
        <time>2022-08-11T09:25:35.497+02:00</time>
      </trkpt>
      <trkpt lat="45.62875" lon="-1.05379">
        <ele>60.7</ele>
        <time>2022-08-11T09:25:37.505+02:00</time>
      </trkpt>
      <trkpt lat="45.62869" lon="-1.05362">
        <ele>59</ele>
        <time>2022-08-11T09:25:40.502+02:00</time>
      </trkpt>
      <trkpt lat="45.62864" lon="-1.05351">
        <ele>58.7</ele>
        <time>2022-08-11T09:25:42.49+02:00</time>
      </trkpt>
      <trkpt lat="45.62857" lon="-1.05341">
        <ele>57.9</ele>
        <time>2022-08-11T09:25:44.496+02:00</time>
      </trkpt>
      <trkpt lat="45.62849" lon="-1.05331">
        <ele>57.4</ele>
        <time>2022-08-11T09:25:46.491+02:00</time>
      </trkpt>
      <trkpt lat="45.62841" lon="-1.05321">
        <ele>57.7</ele>
        <time>2022-08-11T09:25:48.5+02:00</time>
      </trkpt>
      <trkpt lat="45.62833" lon="-1.05313">
        <ele>58.4</ele>
        <time>2022-08-11T09:25:53.498+02:00</time>
      </trkpt>
      <trkpt lat="45.62826" lon="-1.05305">
        <ele>58.2</ele>
        <time>2022-08-11T09:26:00.482+02:00</time>
      </trkpt>
      <trkpt lat="45.62816" lon="-1.05303">
        <ele>57.8</ele>
        <time>2022-08-11T09:26:05.489+02:00</time>
      </trkpt>
      <trkpt lat="45.6281" lon="-1.05293">
        <ele>57.5</ele>
        <time>2022-08-11T09:26:11.5+02:00</time>
      </trkpt>
      <trkpt lat="45.62803" lon="-1.0528">
        <ele>57.7</ele>
        <time>2022-08-11T09:26:17.503+02:00</time>
      </trkpt>
      <trkpt lat="45.62795" lon="-1.05272">
        <ele>58</ele>
        <time>2022-08-11T09:26:21.496+02:00</time>
      </trkpt>
      <trkpt lat="45.62783" lon="-1.0527">
        <ele>57.9</ele>
        <time>2022-08-11T09:26:25.503+02:00</time>
      </trkpt>
      <trkpt lat="45.62775" lon="-1.05262">
        <ele>56.9</ele>
        <time>2022-08-11T09:26:29.503+02:00</time>
      </trkpt>
      <trkpt lat="45.62768" lon="-1.05252">
        <ele>55.2</ele>
        <time>2022-08-11T09:26:34.493+02:00</time>
      </trkpt>
      <trkpt lat="45.6276" lon="-1.05243">
        <ele>55.3</ele>
        <time>2022-08-11T09:26:38.498+02:00</time>
      </trkpt>
      <trkpt lat="45.62754" lon="-1.05232">
        <ele>56.3</ele>
        <time>2022-08-11T09:26:42.487+02:00</time>
      </trkpt>
      <trkpt lat="45.62749" lon="-1.05218">
        <ele>57.2</ele>
        <time>2022-08-11T09:26:46.505+02:00</time>
      </trkpt>
      <trkpt lat="45.62741" lon="-1.0521">
        <ele>57.4</ele>
        <time>2022-08-11T09:26:49.508+02:00</time>
      </trkpt>
      <trkpt lat="45.62733" lon="-1.052">
        <ele>58.8</ele>
        <time>2022-08-11T09:26:53.504+02:00</time>
      </trkpt>
      <trkpt lat="45.62725" lon="-1.05195">
        <ele>59.3</ele>
        <time>2022-08-11T09:26:57.5+02:00</time>
      </trkpt>
      <trkpt lat="45.62715" lon="-1.05193">
        <ele>59.1</ele>
        <time>2022-08-11T09:27:01.496+02:00</time>
      </trkpt>
      <trkpt lat="45.62705" lon="-1.05183">
        <ele>58.4</ele>
        <time>2022-08-11T09:27:05.493+02:00</time>
      </trkpt>
      <trkpt lat="45.627" lon="-1.05166">
        <ele>58.3</ele>
        <time>2022-08-11T09:27:08.494+02:00</time>
      </trkpt>
      <trkpt lat="45.62693" lon="-1.05151">
        <ele>57.7</ele>
        <time>2022-08-11T09:27:11.5+02:00</time>
      </trkpt>
      <trkpt lat="45.62685" lon="-1.05139">
        <ele>58.2</ele>
        <time>2022-08-11T09:27:14.503+02:00</time>
      </trkpt>
      <trkpt lat="45.62676" lon="-1.05131">
        <ele>58.5</ele>
        <time>2022-08-11T09:27:18.503+02:00</time>
      </trkpt>
      <trkpt lat="45.62674" lon="-1.05128">
        <ele>58.1</ele>
        <time>2022-08-11T09:27:22.492+02:00</time>
      </trkpt>
      <trkpt lat="45.62675" lon="-1.05128">
        <ele>58.2</ele>
        <time>2022-08-11T09:27:23.501+02:00</time>
      </trkpt>
      <trkpt lat="45.62675" lon="-1.0513">
        <ele>58.4</ele>
        <time>2022-08-11T09:28:52.472+02:00</time>
      </trkpt>
      <trkpt lat="45.62675" lon="-1.0513">
        <ele>58.2</ele>
        <time>2022-08-11T09:28:53.481+02:00</time>
      </trkpt>
      <trkpt lat="45.62675" lon="-1.0513">
        <ele>57.9</ele>
        <time>2022-08-11T09:28:54.478+02:00</time>
      </trkpt>
      <trkpt lat="45.62675" lon="-1.05128">
        <ele>58.4</ele>
        <time>2022-08-11T09:29:44.482+02:00</time>
      </trkpt>
      <trkpt lat="45.62675" lon="-1.05128">
        <ele>58.1</ele>
        <time>2022-08-11T09:29:45.503+02:00</time>
      </trkpt>
      <trkpt lat="45.62675" lon="-1.05129">
        <ele>57.9</ele>
        <time>2022-08-11T09:29:46.501+02:00</time>
      </trkpt>
      <trkpt lat="45.62675" lon="-1.05129">
        <ele>57.5</ele>
        <time>2022-08-11T09:29:47.494+02:00</time>
      </trkpt>
      <trkpt lat="45.62675" lon="-1.05131">
        <ele>56.8</ele>
        <time>2022-08-11T09:30:56.482+02:00</time>
      </trkpt>
      <trkpt lat="45.62676" lon="-1.05131">
        <ele>56.9</ele>
        <time>2022-08-11T09:30:57.475+02:00</time>
      </trkpt>
      <trkpt lat="45.62676" lon="-1.05131">
        <ele>56.6</ele>
        <time>2022-08-11T09:30:58.478+02:00</time>
      </trkpt>
      <trkpt lat="45.62676" lon="-1.0513">
        <ele>56.7</ele>
        <time>2022-08-11T09:31:01.496+02:00</time>
      </trkpt>
      <trkpt lat="45.62675" lon="-1.0513">
        <ele>57.4</ele>
        <time>2022-08-11T09:31:02.475+02:00</time>
      </trkpt>
      <trkpt lat="45.62675" lon="-1.0513">
        <ele>57.9</ele>
        <time>2022-08-11T09:31:03.498+02:00</time>
      </trkpt>
      <trkpt lat="45.62675" lon="-1.0513">
        <ele>58</ele>
        <time>2022-08-11T09:31:05.475+02:00</time>
      </trkpt>
      <trkpt lat="45.62675" lon="-1.0513">
        <ele>57.8</ele>
        <time>2022-08-11T09:31:06.49+02:00</time>
      </trkpt>
      <trkpt lat="45.62675" lon="-1.0513">
        <ele>58.3</ele>
        <time>2022-08-11T09:31:07.483+02:00</time>
      </trkpt>
      <trkpt lat="45.62675" lon="-1.05131">
        <ele>58.2</ele>
        <time>2022-08-11T09:31:14.5+02:00</time>
      </trkpt>
      <trkpt lat="45.62675" lon="-1.05131">
        <ele>58.1</ele>
        <time>2022-08-11T09:31:15.506+02:00</time>
      </trkpt>
      <trkpt lat="45.62669" lon="-1.05118">
        <ele>57.8</ele>
        <time>2022-08-11T09:31:25.487+02:00</time>
      </trkpt>
      <trkpt lat="45.62663" lon="-1.05108">
        <ele>58.9</ele>
        <time>2022-08-11T09:31:31.499+02:00</time>
      </trkpt>
      <trkpt lat="45.62655" lon="-1.05098">
        <ele>58.4</ele>
        <time>2022-08-11T09:31:37.495+02:00</time>
      </trkpt>
      <trkpt lat="45.62647" lon="-1.05087">
        <ele>58.3</ele>
        <time>2022-08-11T09:31:41.502+02:00</time>
      </trkpt>
      <trkpt lat="45.62639" lon="-1.05078">
        <ele>58.8</ele>
        <time>2022-08-11T09:31:45.496+02:00</time>
      </trkpt>
      <trkpt lat="45.62632" lon="-1.05069">
        <ele>58.9</ele>
        <time>2022-08-11T09:31:48.495+02:00</time>
      </trkpt>
      <trkpt lat="45.62624" lon="-1.0506">
        <ele>59</ele>
        <time>2022-08-11T09:31:51.498+02:00</time>
      </trkpt>
      <trkpt lat="45.62617" lon="-1.05052">
        <ele>59.9</ele>
        <time>2022-08-11T09:31:54.495+02:00</time>
      </trkpt>
      <trkpt lat="45.6261" lon="-1.05044">
        <ele>59.9</ele>
        <time>2022-08-11T09:31:57.498+02:00</time>
      </trkpt>
      <trkpt lat="45.62603" lon="-1.05035">
        <ele>60.9</ele>
        <time>2022-08-11T09:32:00.502+02:00</time>
      </trkpt>
      <trkpt lat="45.62596" lon="-1.05027">
        <ele>60.8</ele>
        <time>2022-08-11T09:32:03.503+02:00</time>
      </trkpt>
      <trkpt lat="45.62587" lon="-1.05016">
        <ele>61.4</ele>
        <time>2022-08-11T09:32:07.493+02:00</time>
      </trkpt>
      <trkpt lat="45.62577" lon="-1.05007">
        <ele>61.1</ele>
        <time>2022-08-11T09:32:11.496+02:00</time>
      </trkpt>
      <trkpt lat="45.62566" lon="-1.05002">
        <ele>61.8</ele>
        <time>2022-08-11T09:32:15.502+02:00</time>
      </trkpt>
      <trkpt lat="45.62555" lon="-1.04999">
        <ele>62.6</ele>
        <time>2022-08-11T09:32:19.497+02:00</time>
      </trkpt>
      <trkpt lat="45.62545" lon="-1.04997">
        <ele>62.8</ele>
        <time>2022-08-11T09:32:23.502+02:00</time>
      </trkpt>
      <trkpt lat="45.62535" lon="-1.04999">
        <ele>62.6</ele>
        <time>2022-08-11T09:32:28.502+02:00</time>
      </trkpt>
      <trkpt lat="45.62526" lon="-1.05007">
        <ele>62.2</ele>
        <time>2022-08-11T09:32:32.493+02:00</time>
      </trkpt>
      <trkpt lat="45.62518" lon="-1.05015">
        <ele>62.3</ele>
        <time>2022-08-11T09:32:35.502+02:00</time>
      </trkpt>
      <trkpt lat="45.62511" lon="-1.05023">
        <ele>62.5</ele>
        <time>2022-08-11T09:32:38.498+02:00</time>
      </trkpt>
      <trkpt lat="45.62502" lon="-1.05032">
        <ele>62.5</ele>
        <time>2022-08-11T09:32:41.5+02:00</time>
      </trkpt>
      <trkpt lat="45.62492" lon="-1.05039">
        <ele>63</ele>
        <time>2022-08-11T09:32:44.496+02:00</time>
      </trkpt>
      <trkpt lat="45.62481" lon="-1.05042">
        <ele>63.2</ele>
        <time>2022-08-11T09:32:47.501+02:00</time>
      </trkpt>
      <trkpt lat="45.6247" lon="-1.0504">
        <ele>63.2</ele>
        <time>2022-08-11T09:32:50.502+02:00</time>
      </trkpt>
      <trkpt lat="45.6246" lon="-1.05036">
        <ele>64.1</ele>
        <time>2022-08-11T09:32:53.498+02:00</time>
      </trkpt>
      <trkpt lat="45.6245" lon="-1.05041">
        <ele>64.3</ele>
        <time>2022-08-11T09:32:56.497+02:00</time>
      </trkpt>
      <trkpt lat="45.62437" lon="-1.05047">
        <ele>63.2</ele>
        <time>2022-08-11T09:32:59.498+02:00</time>
      </trkpt>
      <trkpt lat="45.62428" lon="-1.05051">
        <ele>62.8</ele>
        <time>2022-08-11T09:33:01.498+02:00</time>
      </trkpt>
      <trkpt lat="45.62418" lon="-1.05056">
        <ele>62.2</ele>
        <time>2022-08-11T09:33:03.496+02:00</time>
      </trkpt>
      <trkpt lat="45.62409" lon="-1.05061">
        <ele>61.5</ele>
        <time>2022-08-11T09:33:05.499+02:00</time>
      </trkpt>
      <trkpt lat="45.62399" lon="-1.05066">
        <ele>61.2</ele>
        <time>2022-08-11T09:33:07.494+02:00</time>
      </trkpt>
      <trkpt lat="45.62389" lon="-1.05072">
        <ele>61.5</ele>
        <time>2022-08-11T09:33:09.499+02:00</time>
      </trkpt>
      <trkpt lat="45.62379" lon="-1.05077">
        <ele>61.5</ele>
        <time>2022-08-11T09:33:11.498+02:00</time>
      </trkpt>
      <trkpt lat="45.62368" lon="-1.05081">
        <ele>60.9</ele>
        <time>2022-08-11T09:33:13.494+02:00</time>
      </trkpt>
      <trkpt lat="45.62357" lon="-1.05085">
        <ele>60.1</ele>
        <time>2022-08-11T09:33:15.497+02:00</time>
      </trkpt>
      <trkpt lat="45.62347" lon="-1.05092">
        <ele>59.8</ele>
        <time>2022-08-11T09:33:17.497+02:00</time>
      </trkpt>
      <trkpt lat="45.62338" lon="-1.05103">
        <ele>59.8</ele>
        <time>2022-08-11T09:33:19.497+02:00</time>
      </trkpt>
      <trkpt lat="45.62329" lon="-1.05114">
        <ele>59.4</ele>
        <time>2022-08-11T09:33:21.494+02:00</time>
      </trkpt>
      <trkpt lat="45.6232" lon="-1.05127">
        <ele>59.3</ele>
        <time>2022-08-11T09:33:23.501+02:00</time>
      </trkpt>
      <trkpt lat="45.62311" lon="-1.05139">
        <ele>58.7</ele>
        <time>2022-08-11T09:33:25.496+02:00</time>
      </trkpt>
      <trkpt lat="45.62302" lon="-1.05151">
        <ele>58.8</ele>
        <time>2022-08-11T09:33:27.51+02:00</time>
      </trkpt>
      <trkpt lat="45.62294" lon="-1.05163">
        <ele>58.8</ele>
        <time>2022-08-11T09:33:29.504+02:00</time>
      </trkpt>
      <trkpt lat="45.62287" lon="-1.05174">
        <ele>58.9</ele>
        <time>2022-08-11T09:33:31.502+02:00</time>
      </trkpt>
      <trkpt lat="45.62278" lon="-1.05182">
        <ele>58.5</ele>
        <time>2022-08-11T09:33:33.5+02:00</time>
      </trkpt>
      <trkpt lat="45.62269" lon="-1.05187">
        <ele>58.8</ele>
        <time>2022-08-11T09:33:35.504+02:00</time>
      </trkpt>
      <trkpt lat="45.62259" lon="-1.0519">
        <ele>58.8</ele>
        <time>2022-08-11T09:33:37.499+02:00</time>
      </trkpt>
      <trkpt lat="45.62249" lon="-1.0519">
        <ele>59.1</ele>
        <time>2022-08-11T09:33:39.496+02:00</time>
      </trkpt>
      <trkpt lat="45.62239" lon="-1.05188">
        <ele>59.4</ele>
        <time>2022-08-11T09:33:41.496+02:00</time>
      </trkpt>
      <trkpt lat="45.6223" lon="-1.05184">
        <ele>59.5</ele>
        <time>2022-08-11T09:33:43.494+02:00</time>
      </trkpt>
      <trkpt lat="45.62221" lon="-1.05176">
        <ele>60.3</ele>
        <time>2022-08-11T09:33:45.5+02:00</time>
      </trkpt>
      <trkpt lat="45.62214" lon="-1.05166">
        <ele>60.2</ele>
        <time>2022-08-11T09:33:47.499+02:00</time>
      </trkpt>
      <trkpt lat="45.62208" lon="-1.05155">
        <ele>60.2</ele>
        <time>2022-08-11T09:33:49.488+02:00</time>
      </trkpt>
      <trkpt lat="45.62202" lon="-1.05142">
        <ele>60.1</ele>
        <time>2022-08-11T09:33:51.498+02:00</time>
      </trkpt>
      <trkpt lat="45.62195" lon="-1.0513">
        <ele>60.1</ele>
        <time>2022-08-11T09:33:53.492+02:00</time>
      </trkpt>
      <trkpt lat="45.62188" lon="-1.05118">
        <ele>59.6</ele>
        <time>2022-08-11T09:33:55.496+02:00</time>
      </trkpt>
      <trkpt lat="45.62181" lon="-1.05106">
        <ele>59.5</ele>
        <time>2022-08-11T09:33:57.496+02:00</time>
      </trkpt>
      <trkpt lat="45.62175" lon="-1.05094">
        <ele>59.6</ele>
        <time>2022-08-11T09:33:59.495+02:00</time>
      </trkpt>
      <trkpt lat="45.62169" lon="-1.05081">
        <ele>59.9</ele>
        <time>2022-08-11T09:34:01.502+02:00</time>
      </trkpt>
      <trkpt lat="45.62164" lon="-1.0507">
        <ele>60.1</ele>
        <time>2022-08-11T09:34:03.503+02:00</time>
      </trkpt>
      <trkpt lat="45.62158" lon="-1.05059">
        <ele>60.3</ele>
        <time>2022-08-11T09:34:05.497+02:00</time>
      </trkpt>
      <trkpt lat="45.62153" lon="-1.05048">
        <ele>60.5</ele>
        <time>2022-08-11T09:34:07.508+02:00</time>
      </trkpt>
      <trkpt lat="45.62147" lon="-1.05036">
        <ele>60.5</ele>
        <time>2022-08-11T09:34:09.501+02:00</time>
      </trkpt>
      <trkpt lat="45.62142" lon="-1.05024">
        <ele>61</ele>
        <time>2022-08-11T09:34:11.502+02:00</time>
      </trkpt>
      <trkpt lat="45.62136" lon="-1.05013">
        <ele>60.8</ele>
        <time>2022-08-11T09:34:13.505+02:00</time>
      </trkpt>
      <trkpt lat="45.6213" lon="-1.05002">
        <ele>60.7</ele>
        <time>2022-08-11T09:34:15.497+02:00</time>
      </trkpt>
      <trkpt lat="45.62124" lon="-1.04992">
        <ele>60.7</ele>
        <time>2022-08-11T09:34:17.503+02:00</time>
      </trkpt>
      <trkpt lat="45.62118" lon="-1.04982">
        <ele>60.9</ele>
        <time>2022-08-11T09:34:19.504+02:00</time>
      </trkpt>
      <trkpt lat="45.62109" lon="-1.04968">
        <ele>60.9</ele>
        <time>2022-08-11T09:34:22.49+02:00</time>
      </trkpt>
      <trkpt lat="45.62101" lon="-1.04954">
        <ele>61.2</ele>
        <time>2022-08-11T09:34:25.496+02:00</time>
      </trkpt>
      <trkpt lat="45.62092" lon="-1.0494">
        <ele>61.5</ele>
        <time>2022-08-11T09:34:28.499+02:00</time>
      </trkpt>
      <trkpt lat="45.62086" lon="-1.0493">
        <ele>61.3</ele>
        <time>2022-08-11T09:34:30.497+02:00</time>
      </trkpt>
      <trkpt lat="45.62075" lon="-1.04918">
        <ele>60.9</ele>
        <time>2022-08-11T09:34:33.495+02:00</time>
      </trkpt>
      <trkpt lat="45.62068" lon="-1.04908">
        <ele>61</ele>
        <time>2022-08-11T09:34:35.489+02:00</time>
      </trkpt>
      <trkpt lat="45.62063" lon="-1.04897">
        <ele>60.7</ele>
        <time>2022-08-11T09:34:37.496+02:00</time>
      </trkpt>
      <trkpt lat="45.6206" lon="-1.04885">
        <ele>60.4</ele>
        <time>2022-08-11T09:34:39.497+02:00</time>
      </trkpt>
      <trkpt lat="45.62059" lon="-1.04872">
        <ele>60.4</ele>
        <time>2022-08-11T09:34:41.497+02:00</time>
      </trkpt>
      <trkpt lat="45.62062" lon="-1.04858">
        <ele>59.9</ele>
        <time>2022-08-11T09:34:43.495+02:00</time>
      </trkpt>
      <trkpt lat="45.62068" lon="-1.04847">
        <ele>59.8</ele>
        <time>2022-08-11T09:34:45.494+02:00</time>
      </trkpt>
      <trkpt lat="45.62077" lon="-1.0484">
        <ele>59.2</ele>
        <time>2022-08-11T09:34:47.502+02:00</time>
      </trkpt>
      <trkpt lat="45.62087" lon="-1.04835">
        <ele>58.6</ele>
        <time>2022-08-11T09:34:49.507+02:00</time>
      </trkpt>
      <trkpt lat="45.62096" lon="-1.04831">
        <ele>58.2</ele>
        <time>2022-08-11T09:34:51.49+02:00</time>
      </trkpt>
      <trkpt lat="45.62106" lon="-1.04828">
        <ele>58.3</ele>
        <time>2022-08-11T09:34:53.495+02:00</time>
      </trkpt>
      <trkpt lat="45.6212" lon="-1.04826">
        <ele>58.6</ele>
        <time>2022-08-11T09:34:56.495+02:00</time>
      </trkpt>
      <trkpt lat="45.62132" lon="-1.04825">
        <ele>58.4</ele>
        <time>2022-08-11T09:34:59.5+02:00</time>
      </trkpt>
      <trkpt lat="45.62142" lon="-1.04816">
        <ele>58.8</ele>
        <time>2022-08-11T09:35:02.49+02:00</time>
      </trkpt>
      <trkpt lat="45.62151" lon="-1.04802">
        <ele>58.8</ele>
        <time>2022-08-11T09:35:05.492+02:00</time>
      </trkpt>
      <trkpt lat="45.62159" lon="-1.04789">
        <ele>59</ele>
        <time>2022-08-11T09:35:08.494+02:00</time>
      </trkpt>
      <trkpt lat="45.62168" lon="-1.04775">
        <ele>58.9</ele>
        <time>2022-08-11T09:35:11.495+02:00</time>
      </trkpt>
      <trkpt lat="45.62176" lon="-1.04762">
        <ele>59.3</ele>
        <time>2022-08-11T09:35:14.495+02:00</time>
      </trkpt>
      <trkpt lat="45.62184" lon="-1.04748">
        <ele>59.2</ele>
        <time>2022-08-11T09:35:17.5+02:00</time>
      </trkpt>
      <trkpt lat="45.6219" lon="-1.04738">
        <ele>59.2</ele>
        <time>2022-08-11T09:35:19.509+02:00</time>
      </trkpt>
      <trkpt lat="45.62199" lon="-1.04724">
        <ele>58.8</ele>
        <time>2022-08-11T09:35:22.49+02:00</time>
      </trkpt>
      <trkpt lat="45.62206" lon="-1.04711">
        <ele>58.6</ele>
        <time>2022-08-11T09:35:25.493+02:00</time>
      </trkpt>
      <trkpt lat="45.62211" lon="-1.04696">
        <ele>58</ele>
        <time>2022-08-11T09:35:28.495+02:00</time>
      </trkpt>
      <trkpt lat="45.62209" lon="-1.04682">
        <ele>57.1</ele>
        <time>2022-08-11T09:35:30.495+02:00</time>
      </trkpt>
      <trkpt lat="45.62205" lon="-1.04668">
        <ele>56.7</ele>
        <time>2022-08-11T09:35:32.489+02:00</time>
      </trkpt>
      <trkpt lat="45.622" lon="-1.04654">
        <ele>56.2</ele>
        <time>2022-08-11T09:35:34.499+02:00</time>
      </trkpt>
      <trkpt lat="45.62195" lon="-1.04639">
        <ele>56.1</ele>
        <time>2022-08-11T09:35:36.5+02:00</time>
      </trkpt>
      <trkpt lat="45.62189" lon="-1.04626">
        <ele>56.2</ele>
        <time>2022-08-11T09:35:38.494+02:00</time>
      </trkpt>
      <trkpt lat="45.62181" lon="-1.04619">
        <ele>57.3</ele>
        <time>2022-08-11T09:35:40.505+02:00</time>
      </trkpt>
      <trkpt lat="45.62169" lon="-1.04617">
        <ele>58.3</ele>
        <time>2022-08-11T09:35:43.498+02:00</time>
      </trkpt>
      <trkpt lat="45.62159" lon="-1.04619">
        <ele>59.5</ele>
        <time>2022-08-11T09:35:46.497+02:00</time>
      </trkpt>
      <trkpt lat="45.62149" lon="-1.04622">
        <ele>59.9</ele>
        <time>2022-08-11T09:35:49.501+02:00</time>
      </trkpt>
      <trkpt lat="45.62139" lon="-1.04623">
        <ele>60</ele>
        <time>2022-08-11T09:35:52.485+02:00</time>
      </trkpt>
      <trkpt lat="45.62131" lon="-1.04619">
        <ele>60.3</ele>
        <time>2022-08-11T09:35:55.494+02:00</time>
      </trkpt>
      <trkpt lat="45.62123" lon="-1.04612">
        <ele>60.6</ele>
        <time>2022-08-11T09:35:58.5+02:00</time>
      </trkpt>
      <trkpt lat="45.62114" lon="-1.04606">
        <ele>60.4</ele>
        <time>2022-08-11T09:36:01.495+02:00</time>
      </trkpt>
      <trkpt lat="45.62104" lon="-1.04602">
        <ele>60.5</ele>
        <time>2022-08-11T09:36:04.498+02:00</time>
      </trkpt>
      <trkpt lat="45.62095" lon="-1.04599">
        <ele>60.7</ele>
        <time>2022-08-11T09:36:07.494+02:00</time>
      </trkpt>
      <trkpt lat="45.62085" lon="-1.04597">
        <ele>61.3</ele>
        <time>2022-08-11T09:36:10.501+02:00</time>
      </trkpt>
      <trkpt lat="45.62075" lon="-1.04594">
        <ele>61.3</ele>
        <time>2022-08-11T09:36:13.498+02:00</time>
      </trkpt>
      <trkpt lat="45.62066" lon="-1.04588">
        <ele>61.3</ele>
        <time>2022-08-11T09:36:16.5+02:00</time>
      </trkpt>
      <trkpt lat="45.62061" lon="-1.04575">
        <ele>61.3</ele>
        <time>2022-08-11T09:36:19.496+02:00</time>
      </trkpt>
      <trkpt lat="45.62058" lon="-1.04561">
        <ele>60.9</ele>
        <time>2022-08-11T09:36:22.478+02:00</time>
      </trkpt>
      <trkpt lat="45.62055" lon="-1.04547">
        <ele>60.6</ele>
        <time>2022-08-11T09:36:25.502+02:00</time>
      </trkpt>
      <trkpt lat="45.62053" lon="-1.04532">
        <ele>60.3</ele>
        <time>2022-08-11T09:36:28.501+02:00</time>
      </trkpt>
      <trkpt lat="45.62049" lon="-1.04515">
        <ele>60.1</ele>
        <time>2022-08-11T09:36:31.5+02:00</time>
      </trkpt>
      <trkpt lat="45.62046" lon="-1.04503">
        <ele>60.4</ele>
        <time>2022-08-11T09:36:33.5+02:00</time>
      </trkpt>
      <trkpt lat="45.62043" lon="-1.04491">
        <ele>60.5</ele>
        <time>2022-08-11T09:36:35.494+02:00</time>
      </trkpt>
      <trkpt lat="45.62041" lon="-1.04473">
        <ele>60.3</ele>
        <time>2022-08-11T09:36:38.502+02:00</time>
      </trkpt>
      <trkpt lat="45.62042" lon="-1.04456">
        <ele>60.7</ele>
        <time>2022-08-11T09:36:41.501+02:00</time>
      </trkpt>
      <trkpt lat="45.62049" lon="-1.04443">
        <ele>60.9</ele>
        <time>2022-08-11T09:36:44.496+02:00</time>
      </trkpt>
      <trkpt lat="45.62059" lon="-1.04433">
        <ele>60.7</ele>
        <time>2022-08-11T09:36:47.505+02:00</time>
      </trkpt>
      <trkpt lat="45.62065" lon="-1.04419">
        <ele>60.8</ele>
        <time>2022-08-11T09:36:50.5+02:00</time>
      </trkpt>
      <trkpt lat="45.62067" lon="-1.04403">
        <ele>60.6</ele>
        <time>2022-08-11T09:36:53.496+02:00</time>
      </trkpt>
      <trkpt lat="45.62065" lon="-1.04386">
        <ele>60.4</ele>
        <time>2022-08-11T09:36:56.495+02:00</time>
      </trkpt>
      <trkpt lat="45.62057" lon="-1.04371">
        <ele>60.5</ele>
        <time>2022-08-11T09:36:59.497+02:00</time>
      </trkpt>
      <trkpt lat="45.62049" lon="-1.04355">
        <ele>60.5</ele>
        <time>2022-08-11T09:37:02.487+02:00</time>
      </trkpt>
      <trkpt lat="45.62043" lon="-1.04345">
        <ele>60.4</ele>
        <time>2022-08-11T09:37:04.498+02:00</time>
      </trkpt>
      <trkpt lat="45.62038" lon="-1.04334">
        <ele>60.9</ele>
        <time>2022-08-11T09:37:06.495+02:00</time>
      </trkpt>
      <trkpt lat="45.62032" lon="-1.04323">
        <ele>61.3</ele>
        <time>2022-08-11T09:37:08.493+02:00</time>
      </trkpt>
      <trkpt lat="45.62028" lon="-1.04311">
        <ele>61.3</ele>
        <time>2022-08-11T09:37:10.489+02:00</time>
      </trkpt>
      <trkpt lat="45.62031" lon="-1.04293">
        <ele>60.8</ele>
        <time>2022-08-11T09:37:13.492+02:00</time>
      </trkpt>
      <trkpt lat="45.62041" lon="-1.04281">
        <ele>60.6</ele>
        <time>2022-08-11T09:37:16.492+02:00</time>
      </trkpt>
      <trkpt lat="45.62051" lon="-1.04269">
        <ele>60.7</ele>
        <time>2022-08-11T09:37:19.502+02:00</time>
      </trkpt>
      <trkpt lat="45.62061" lon="-1.0426">
        <ele>60.7</ele>
        <time>2022-08-11T09:37:22.49+02:00</time>
      </trkpt>
      <trkpt lat="45.62067" lon="-1.04248">
        <ele>61.1</ele>
        <time>2022-08-11T09:37:25.503+02:00</time>
      </trkpt>
      <trkpt lat="45.62064" lon="-1.04235">
        <ele>61.3</ele>
        <time>2022-08-11T09:37:28.495+02:00</time>
      </trkpt>
      <trkpt lat="45.62055" lon="-1.04225">
        <ele>61.3</ele>
        <time>2022-08-11T09:37:31.494+02:00</time>
      </trkpt>
      <trkpt lat="45.62046" lon="-1.04216">
        <ele>61.8</ele>
        <time>2022-08-11T09:37:34.496+02:00</time>
      </trkpt>
      <trkpt lat="45.62036" lon="-1.04206">
        <ele>62.2</ele>
        <time>2022-08-11T09:37:37.495+02:00</time>
      </trkpt>
      <trkpt lat="45.62027" lon="-1.04198">
        <ele>62.1</ele>
        <time>2022-08-11T09:37:40.491+02:00</time>
      </trkpt>
      <trkpt lat="45.62019" lon="-1.04189">
        <ele>62.5</ele>
        <time>2022-08-11T09:37:44.494+02:00</time>
      </trkpt>
      <trkpt lat="45.62012" lon="-1.04197">
        <ele>61.8</ele>
        <time>2022-08-11T09:37:50.501+02:00</time>
      </trkpt>
      <trkpt lat="45.62004" lon="-1.04204">
        <ele>61.3</ele>
        <time>2022-08-11T09:37:53.487+02:00</time>
      </trkpt>
      <trkpt lat="45.61993" lon="-1.04204">
        <ele>61.1</ele>
        <time>2022-08-11T09:37:56.491+02:00</time>
      </trkpt>
      <trkpt lat="45.61982" lon="-1.04201">
        <ele>60.6</ele>
        <time>2022-08-11T09:38:00.499+02:00</time>
      </trkpt>
      <trkpt lat="45.61973" lon="-1.04205">
        <ele>59.6</ele>
        <time>2022-08-11T09:38:04.5+02:00</time>
      </trkpt>
      <trkpt lat="45.61964" lon="-1.04208">
        <ele>59.3</ele>
        <time>2022-08-11T09:38:07.501+02:00</time>
      </trkpt>
      <trkpt lat="45.61954" lon="-1.04208">
        <ele>59.3</ele>
        <time>2022-08-11T09:38:10.495+02:00</time>
      </trkpt>
      <trkpt lat="45.61943" lon="-1.04208">
        <ele>59.3</ele>
        <time>2022-08-11T09:38:13.491+02:00</time>
      </trkpt>
      <trkpt lat="45.61932" lon="-1.04208">
        <ele>59.1</ele>
        <time>2022-08-11T09:38:16.5+02:00</time>
      </trkpt>
      <trkpt lat="45.61919" lon="-1.04209">
        <ele>60</ele>
        <time>2022-08-11T09:38:19.501+02:00</time>
      </trkpt>
      <trkpt lat="45.61908" lon="-1.04211">
        <ele>58.8</ele>
        <time>2022-08-11T09:38:22.494+02:00</time>
      </trkpt>
      <trkpt lat="45.61897" lon="-1.04214">
        <ele>58.6</ele>
        <time>2022-08-11T09:38:25.498+02:00</time>
      </trkpt>
      <trkpt lat="45.61889" lon="-1.04224">
        <ele>58.9</ele>
        <time>2022-08-11T09:38:28.504+02:00</time>
      </trkpt>
      <trkpt lat="45.61883" lon="-1.04237">
        <ele>58.9</ele>
        <time>2022-08-11T09:38:31.495+02:00</time>
      </trkpt>
      <trkpt lat="45.61878" lon="-1.0425">
        <ele>59.1</ele>
        <time>2022-08-11T09:38:34.495+02:00</time>
      </trkpt>
      <trkpt lat="45.61871" lon="-1.04259">
        <ele>59.3</ele>
        <time>2022-08-11T09:38:37.498+02:00</time>
      </trkpt>
      <trkpt lat="45.61864" lon="-1.04267">
        <ele>59.7</ele>
        <time>2022-08-11T09:38:40.499+02:00</time>
      </trkpt>
      <trkpt lat="45.61852" lon="-1.0427">
        <ele>60.5</ele>
        <time>2022-08-11T09:38:44.503+02:00</time>
      </trkpt>
      <trkpt lat="45.61842" lon="-1.04267">
        <ele>61.6</ele>
        <time>2022-08-11T09:38:48.495+02:00</time>
      </trkpt>
      <trkpt lat="45.61834" lon="-1.04263">
        <ele>62.4</ele>
        <time>2022-08-11T09:38:52.5+02:00</time>
      </trkpt>
      <trkpt lat="45.61825" lon="-1.04259">
        <ele>62.4</ele>
        <time>2022-08-11T09:38:56.495+02:00</time>
      </trkpt>
      <trkpt lat="45.61814" lon="-1.04253">
        <ele>62.5</ele>
        <time>2022-08-11T09:39:01.498+02:00</time>
      </trkpt>
      <trkpt lat="45.61805" lon="-1.04248">
        <ele>63.1</ele>
        <time>2022-08-11T09:39:06.497+02:00</time>
      </trkpt>
      <trkpt lat="45.61796" lon="-1.04241">
        <ele>63.4</ele>
        <time>2022-08-11T09:39:11.494+02:00</time>
      </trkpt>
      <trkpt lat="45.61791" lon="-1.04226">
        <ele>63.6</ele>
        <time>2022-08-11T09:39:16.5+02:00</time>
      </trkpt>
      <trkpt lat="45.61786" lon="-1.04213">
        <ele>63.2</ele>
        <time>2022-08-11T09:39:20.496+02:00</time>
      </trkpt>
      <trkpt lat="45.61779" lon="-1.042">
        <ele>63.5</ele>
        <time>2022-08-11T09:39:24.502+02:00</time>
      </trkpt>
      <trkpt lat="45.61774" lon="-1.04189">
        <ele>62.9</ele>
        <time>2022-08-11T09:39:27.501+02:00</time>
      </trkpt>
      <trkpt lat="45.61771" lon="-1.04176">
        <ele>62.6</ele>
        <time>2022-08-11T09:39:30.5+02:00</time>
      </trkpt>
      <trkpt lat="45.61768" lon="-1.04163">
        <ele>61</ele>
        <time>2022-08-11T09:39:33.492+02:00</time>
      </trkpt>
      <trkpt lat="45.61766" lon="-1.04146">
        <ele>60</ele>
        <time>2022-08-11T09:39:36.494+02:00</time>
      </trkpt>
      <trkpt lat="45.61764" lon="-1.04128">
        <ele>59.7</ele>
        <time>2022-08-11T09:39:39.493+02:00</time>
      </trkpt>
      <trkpt lat="45.61759" lon="-1.04112">
        <ele>59.5</ele>
        <time>2022-08-11T09:39:42.5+02:00</time>
      </trkpt>
      <trkpt lat="45.6176" lon="-1.04097">
        <ele>59.6</ele>
        <time>2022-08-11T09:39:45.5+02:00</time>
      </trkpt>
      <trkpt lat="45.61764" lon="-1.04084">
        <ele>59.4</ele>
        <time>2022-08-11T09:39:48.495+02:00</time>
      </trkpt>
      <trkpt lat="45.61773" lon="-1.04073">
        <ele>58.7</ele>
        <time>2022-08-11T09:39:51.506+02:00</time>
      </trkpt>
      <trkpt lat="45.61782" lon="-1.04063">
        <ele>58.7</ele>
        <time>2022-08-11T09:39:54.498+02:00</time>
      </trkpt>
      <trkpt lat="45.61789" lon="-1.04051">
        <ele>58.5</ele>
        <time>2022-08-11T09:39:57.494+02:00</time>
      </trkpt>
      <trkpt lat="45.61791" lon="-1.04037">
        <ele>58.3</ele>
        <time>2022-08-11T09:40:00.499+02:00</time>
      </trkpt>
      <trkpt lat="45.61789" lon="-1.04025">
        <ele>57.4</ele>
        <time>2022-08-11T09:40:03.493+02:00</time>
      </trkpt>
      <trkpt lat="45.61783" lon="-1.0401">
        <ele>56.8</ele>
        <time>2022-08-11T09:40:07.494+02:00</time>
      </trkpt>
      <trkpt lat="45.61783" lon="-1.03993">
        <ele>56.6</ele>
        <time>2022-08-11T09:40:11.512+02:00</time>
      </trkpt>
      <trkpt lat="45.61791" lon="-1.03983">
        <ele>56.6</ele>
        <time>2022-08-11T09:40:14.505+02:00</time>
      </trkpt>
      <trkpt lat="45.618" lon="-1.03971">
        <ele>56.1</ele>
        <time>2022-08-11T09:40:17.51+02:00</time>
      </trkpt>
      <trkpt lat="45.61806" lon="-1.03957">
        <ele>56</ele>
        <time>2022-08-11T09:40:20.498+02:00</time>
      </trkpt>
      <trkpt lat="45.61806" lon="-1.03942">
        <ele>56.6</ele>
        <time>2022-08-11T09:40:23.485+02:00</time>
      </trkpt>
      <trkpt lat="45.61805" lon="-1.03928">
        <ele>56.9</ele>
        <time>2022-08-11T09:40:27.493+02:00</time>
      </trkpt>
      <trkpt lat="45.61806" lon="-1.03913">
        <ele>58</ele>
        <time>2022-08-11T09:40:32.494+02:00</time>
      </trkpt>
      <trkpt lat="45.61803" lon="-1.03898">
        <ele>57.9</ele>
        <time>2022-08-11T09:40:37.5+02:00</time>
      </trkpt>
      <trkpt lat="45.61804" lon="-1.03883">
        <ele>57.7</ele>
        <time>2022-08-11T09:40:41.505+02:00</time>
      </trkpt>
      <trkpt lat="45.61804" lon="-1.03868">
        <ele>58.4</ele>
        <time>2022-08-11T09:40:45.493+02:00</time>
      </trkpt>
      <trkpt lat="45.61806" lon="-1.03854">
        <ele>59</ele>
        <time>2022-08-11T09:40:49.494+02:00</time>
      </trkpt>
      <trkpt lat="45.61806" lon="-1.03839">
        <ele>60.1</ele>
        <time>2022-08-11T09:40:54.493+02:00</time>
      </trkpt>
      <trkpt lat="45.61804" lon="-1.03829">
        <ele>60.5</ele>
        <time>2022-08-11T09:41:01.498+02:00</time>
      </trkpt>
      <trkpt lat="45.61804" lon="-1.03829">
        <ele>60.4</ele>
        <time>2022-08-11T09:41:02.504+02:00</time>
      </trkpt>
      <trkpt lat="45.61805" lon="-1.03829">
        <ele>60.3</ele>
        <time>2022-08-11T09:41:33.486+02:00</time>
      </trkpt>
      <trkpt lat="45.61805" lon="-1.03829">
        <ele>60.3</ele>
        <time>2022-08-11T09:41:34.495+02:00</time>
      </trkpt>
      <trkpt lat="45.61805" lon="-1.03816">
        <ele>59.9</ele>
        <time>2022-08-11T09:41:45.497+02:00</time>
      </trkpt>
      <trkpt lat="45.61804" lon="-1.038">
        <ele>59.9</ele>
        <time>2022-08-11T09:41:51.492+02:00</time>
      </trkpt>
      <trkpt lat="45.61802" lon="-1.03785">
        <ele>59.9</ele>
        <time>2022-08-11T09:41:57.495+02:00</time>
      </trkpt>
      <trkpt lat="45.61803" lon="-1.0377">
        <ele>60</ele>
        <time>2022-08-11T09:42:02.495+02:00</time>
      </trkpt>
      <trkpt lat="45.61802" lon="-1.03755">
        <ele>59.7</ele>
        <time>2022-08-11T09:42:06.482+02:00</time>
      </trkpt>
      <trkpt lat="45.61801" lon="-1.03739">
        <ele>58.8</ele>
        <time>2022-08-11T09:42:09.496+02:00</time>
      </trkpt>
      <trkpt lat="45.61798" lon="-1.03722">
        <ele>58</ele>
        <time>2022-08-11T09:42:12.502+02:00</time>
      </trkpt>
      <trkpt lat="45.61796" lon="-1.03709">
        <ele>58.3</ele>
        <time>2022-08-11T09:42:14.495+02:00</time>
      </trkpt>
      <trkpt lat="45.61794" lon="-1.03691">
        <ele>57.4</ele>
        <time>2022-08-11T09:42:17.498+02:00</time>
      </trkpt>
      <trkpt lat="45.61798" lon="-1.03674">
        <ele>57.3</ele>
        <time>2022-08-11T09:42:20.495+02:00</time>
      </trkpt>
      <trkpt lat="45.61805" lon="-1.03659">
        <ele>57.2</ele>
        <time>2022-08-11T09:42:23.487+02:00</time>
      </trkpt>
      <trkpt lat="45.61814" lon="-1.03648">
        <ele>57</ele>
        <time>2022-08-11T09:42:26.496+02:00</time>
      </trkpt>
      <trkpt lat="45.61823" lon="-1.03642">
        <ele>57</ele>
        <time>2022-08-11T09:42:29.498+02:00</time>
      </trkpt>
      <trkpt lat="45.61834" lon="-1.03635">
        <ele>57.4</ele>
        <time>2022-08-11T09:42:33.492+02:00</time>
      </trkpt>
      <trkpt lat="45.61842" lon="-1.03628">
        <ele>57.7</ele>
        <time>2022-08-11T09:42:36.501+02:00</time>
      </trkpt>
      <trkpt lat="45.6185" lon="-1.03622">
        <ele>57.6</ele>
        <time>2022-08-11T09:42:39.499+02:00</time>
      </trkpt>
      <trkpt lat="45.6186" lon="-1.03614">
        <ele>57.7</ele>
        <time>2022-08-11T09:42:43.496+02:00</time>
      </trkpt>
      <trkpt lat="45.61871" lon="-1.03607">
        <ele>58.5</ele>
        <time>2022-08-11T09:42:47.499+02:00</time>
      </trkpt>
      <trkpt lat="45.61882" lon="-1.036">
        <ele>59.1</ele>
        <time>2022-08-11T09:42:51.497+02:00</time>
      </trkpt>
      <trkpt lat="45.61891" lon="-1.03591">
        <ele>59.9</ele>
        <time>2022-08-11T09:42:55.498+02:00</time>
      </trkpt>
      <trkpt lat="45.61899" lon="-1.03584">
        <ele>59.7</ele>
        <time>2022-08-11T09:42:58.498+02:00</time>
      </trkpt>
      <trkpt lat="45.61907" lon="-1.03578">
        <ele>59.5</ele>
        <time>2022-08-11T09:43:01.501+02:00</time>
      </trkpt>
      <trkpt lat="45.61916" lon="-1.03572">
        <ele>59.7</ele>
        <time>2022-08-11T09:43:04.506+02:00</time>
      </trkpt>
      <trkpt lat="45.61924" lon="-1.03565">
        <ele>59.8</ele>
        <time>2022-08-11T09:43:07.499+02:00</time>
      </trkpt>
      <trkpt lat="45.61932" lon="-1.03559">
        <ele>60</ele>
        <time>2022-08-11T09:43:10.498+02:00</time>
      </trkpt>
      <trkpt lat="45.61942" lon="-1.03553">
        <ele>60.2</ele>
        <time>2022-08-11T09:43:14.504+02:00</time>
      </trkpt>
      <trkpt lat="45.61949" lon="-1.03544">
        <ele>60.8</ele>
        <time>2022-08-11T09:43:18.492+02:00</time>
      </trkpt>
      <trkpt lat="45.61959" lon="-1.03535">
        <ele>60.6</ele>
        <time>2022-08-11T09:43:22.495+02:00</time>
      </trkpt>
      <trkpt lat="45.61969" lon="-1.03528">
        <ele>60.9</ele>
        <time>2022-08-11T09:43:26.496+02:00</time>
      </trkpt>
      <trkpt lat="45.61978" lon="-1.0352">
        <ele>61.7</ele>
        <time>2022-08-11T09:43:30.498+02:00</time>
      </trkpt>
      <trkpt lat="45.61984" lon="-1.03507">
        <ele>62.1</ele>
        <time>2022-08-11T09:43:34.473+02:00</time>
      </trkpt>
      <trkpt lat="45.6199" lon="-1.03494">
        <ele>62.9</ele>
        <time>2022-08-11T09:43:38.48+02:00</time>
      </trkpt>
      <trkpt lat="45.61997" lon="-1.03481">
        <ele>62.5</ele>
        <time>2022-08-11T09:43:42.493+02:00</time>
      </trkpt>
      <trkpt lat="45.61999" lon="-1.03465">
        <ele>63.3</ele>
        <time>2022-08-11T09:43:46.5+02:00</time>
      </trkpt>
      <trkpt lat="45.61997" lon="-1.03451">
        <ele>62.8</ele>
        <time>2022-08-11T09:43:50.498+02:00</time>
      </trkpt>
      <trkpt lat="45.61995" lon="-1.03438">
        <ele>63.4</ele>
        <time>2022-08-11T09:43:54.5+02:00</time>
      </trkpt>
      <trkpt lat="45.61992" lon="-1.03424">
        <ele>63.2</ele>
        <time>2022-08-11T09:43:58.5+02:00</time>
      </trkpt>
      <trkpt lat="45.61986" lon="-1.03411">
        <ele>62.8</ele>
        <time>2022-08-11T09:44:01.5+02:00</time>
      </trkpt>
      <trkpt lat="45.6198" lon="-1.03397">
        <ele>62.5</ele>
        <time>2022-08-11T09:44:04.507+02:00</time>
      </trkpt>
      <trkpt lat="45.61974" lon="-1.03384">
        <ele>62.6</ele>
        <time>2022-08-11T09:44:07.503+02:00</time>
      </trkpt>
      <trkpt lat="45.61968" lon="-1.03372">
        <ele>62.1</ele>
        <time>2022-08-11T09:44:10.5+02:00</time>
      </trkpt>
      <trkpt lat="45.61964" lon="-1.0336">
        <ele>61.7</ele>
        <time>2022-08-11T09:44:13.491+02:00</time>
      </trkpt>
      <trkpt lat="45.61961" lon="-1.03348">
        <ele>61.6</ele>
        <time>2022-08-11T09:44:16.499+02:00</time>
      </trkpt>
      <trkpt lat="45.61956" lon="-1.03336">
        <ele>60.7</ele>
        <time>2022-08-11T09:44:19.479+02:00</time>
      </trkpt>
      <trkpt lat="45.6195" lon="-1.03324">
        <ele>60.9</ele>
        <time>2022-08-11T09:44:22.474+02:00</time>
      </trkpt>
      <trkpt lat="45.61945" lon="-1.03311">
        <ele>61.5</ele>
        <time>2022-08-11T09:44:25.492+02:00</time>
      </trkpt>
      <trkpt lat="45.61941" lon="-1.033">
        <ele>61.3</ele>
        <time>2022-08-11T09:44:28.496+02:00</time>
      </trkpt>
      <trkpt lat="45.61935" lon="-1.03285">
        <ele>61.7</ele>
        <time>2022-08-11T09:44:32.491+02:00</time>
      </trkpt>
      <trkpt lat="45.61929" lon="-1.03273">
        <ele>62.1</ele>
        <time>2022-08-11T09:44:37.495+02:00</time>
      </trkpt>
      <trkpt lat="45.61923" lon="-1.03262">
        <ele>62.4</ele>
        <time>2022-08-11T09:44:43.489+02:00</time>
      </trkpt>
      <trkpt lat="45.61918" lon="-1.0325">
        <ele>62.9</ele>
        <time>2022-08-11T09:44:50.488+02:00</time>
      </trkpt>
      <trkpt lat="45.61914" lon="-1.03239">
        <ele>62.6</ele>
        <time>2022-08-11T09:44:56.498+02:00</time>
      </trkpt>
      <trkpt lat="45.61914" lon="-1.03239">
        <ele>62.7</ele>
        <time>2022-08-11T09:44:57.517+02:00</time>
      </trkpt>
      <trkpt lat="45.61915" lon="-1.03239">
        <ele>62.1</ele>
        <time>2022-08-11T09:45:04.493+02:00</time>
      </trkpt>
      <trkpt lat="45.61915" lon="-1.03238">
        <ele>62</ele>
        <time>2022-08-11T09:45:05.486+02:00</time>
      </trkpt>
      <trkpt lat="45.61923" lon="-1.03236">
        <ele>61.4</ele>
        <time>2022-08-11T09:45:10.51+02:00</time>
      </trkpt>
      <trkpt lat="45.61923" lon="-1.03236">
        <ele>61.6</ele>
        <time>2022-08-11T09:45:11.502+02:00</time>
      </trkpt>
      <trkpt lat="45.61923" lon="-1.03236">
        <ele>61.6</ele>
        <time>2022-08-11T09:45:12.493+02:00</time>
      </trkpt>
      <trkpt lat="45.61923" lon="-1.03235">
        <ele>61.8</ele>
        <time>2022-08-11T09:45:13.485+02:00</time>
      </trkpt>
      <trkpt lat="45.61921" lon="-1.03222">
        <ele>60.9</ele>
        <time>2022-08-11T09:45:20.494+02:00</time>
      </trkpt>
      <trkpt lat="45.61922" lon="-1.03207">
        <ele>61.1</ele>
        <time>2022-08-11T09:45:25.497+02:00</time>
      </trkpt>
      <trkpt lat="45.61919" lon="-1.03195">
        <ele>61.3</ele>
        <time>2022-08-11T09:45:29.49+02:00</time>
      </trkpt>
      <trkpt lat="45.61915" lon="-1.03183">
        <ele>61.5</ele>
        <time>2022-08-11T09:45:34.495+02:00</time>
      </trkpt>
      <trkpt lat="45.61913" lon="-1.0318">
        <ele>60.7</ele>
        <time>2022-08-11T09:45:37.509+02:00</time>
      </trkpt>
      <trkpt lat="45.61913" lon="-1.03181">
        <ele>60.7</ele>
        <time>2022-08-11T09:45:38.493+02:00</time>
      </trkpt>
      <trkpt lat="45.61912" lon="-1.03181">
        <ele>60.8</ele>
        <time>2022-08-11T09:45:41.496+02:00</time>
      </trkpt>
      <trkpt lat="45.61912" lon="-1.03181">
        <ele>61.1</ele>
        <time>2022-08-11T09:45:42.498+02:00</time>
      </trkpt>
      <trkpt lat="45.61912" lon="-1.03181">
        <ele>61.3</ele>
        <time>2022-08-11T09:45:43.498+02:00</time>
      </trkpt>
      <trkpt lat="45.61912" lon="-1.03182">
        <ele>60.5</ele>
        <time>2022-08-11T09:46:02.48+02:00</time>
      </trkpt>
      <trkpt lat="45.61912" lon="-1.03182">
        <ele>60.4</ele>
        <time>2022-08-11T09:46:03.48+02:00</time>
      </trkpt>
      <trkpt lat="45.61912" lon="-1.03183">
        <ele>60.6</ele>
        <time>2022-08-11T09:46:04.482+02:00</time>
      </trkpt>
      <trkpt lat="45.61912" lon="-1.03183">
        <ele>59.6</ele>
        <time>2022-08-11T09:46:18.499+02:00</time>
      </trkpt>
      <trkpt lat="45.61912" lon="-1.03183">
        <ele>59</ele>
        <time>2022-08-11T09:46:19.478+02:00</time>
      </trkpt>
      <trkpt lat="45.61912" lon="-1.03183">
        <ele>58.9</ele>
        <time>2022-08-11T09:46:20.498+02:00</time>
      </trkpt>
      <trkpt lat="45.61911" lon="-1.03183">
        <ele>57.9</ele>
        <time>2022-08-11T09:46:26.486+02:00</time>
      </trkpt>
      <trkpt lat="45.61911" lon="-1.03183">
        <ele>58.5</ele>
        <time>2022-08-11T09:46:27.498+02:00</time>
      </trkpt>
      <trkpt lat="45.61911" lon="-1.03183">
        <ele>58.6</ele>
        <time>2022-08-11T09:46:28.494+02:00</time>
      </trkpt>
      <trkpt lat="45.61911" lon="-1.03183">
        <ele>58.4</ele>
        <time>2022-08-11T09:46:30.49+02:00</time>
      </trkpt>
      <trkpt lat="45.61911" lon="-1.03183">
        <ele>58.3</ele>
        <time>2022-08-11T09:46:31.493+02:00</time>
      </trkpt>
      <trkpt lat="45.61912" lon="-1.03183">
        <ele>57.9</ele>
        <time>2022-08-11T09:46:33.471+02:00</time>
      </trkpt>
      <trkpt lat="45.61912" lon="-1.03182">
        <ele>58.1</ele>
        <time>2022-08-11T09:46:34.479+02:00</time>
      </trkpt>
      <trkpt lat="45.61912" lon="-1.03183">
        <ele>59.3</ele>
        <time>2022-08-11T09:46:42.487+02:00</time>
      </trkpt>
      <trkpt lat="45.61912" lon="-1.03183">
        <ele>58.9</ele>
        <time>2022-08-11T09:46:43.472+02:00</time>
      </trkpt>
      <trkpt lat="45.61912" lon="-1.03183">
        <ele>59.1</ele>
        <time>2022-08-11T09:46:44.474+02:00</time>
      </trkpt>
      <trkpt lat="45.61913" lon="-1.03183">
        <ele>58.9</ele>
        <time>2022-08-11T09:49:20.499+02:00</time>
      </trkpt>
      <trkpt lat="45.61913" lon="-1.03182">
        <ele>59.3</ele>
        <time>2022-08-11T09:49:21.502+02:00</time>
      </trkpt>
      <trkpt lat="45.61913" lon="-1.03183">
        <ele>59.3</ele>
        <time>2022-08-11T09:49:22.508+02:00</time>
      </trkpt>
      <trkpt lat="45.61912" lon="-1.03182">
        <ele>59.4</ele>
        <time>2022-08-11T09:49:56.491+02:00</time>
      </trkpt>
      <trkpt lat="45.61912" lon="-1.03182">
        <ele>59.7</ele>
        <time>2022-08-11T09:49:57.504+02:00</time>
      </trkpt>
      <trkpt lat="45.61912" lon="-1.03182">
        <ele>60</ele>
        <time>2022-08-11T09:49:58.496+02:00</time>
      </trkpt>
      <trkpt lat="45.61912" lon="-1.03183">
        <ele>60.4</ele>
        <time>2022-08-11T09:50:00.494+02:00</time>
      </trkpt>
      <trkpt lat="45.61912" lon="-1.03182">
        <ele>60.9</ele>
        <time>2022-08-11T09:50:01.495+02:00</time>
      </trkpt>
      <trkpt lat="45.61912" lon="-1.03182">
        <ele>61</ele>
        <time>2022-08-11T09:50:02.504+02:00</time>
      </trkpt>
      <trkpt lat="45.61912" lon="-1.03182">
        <ele>61</ele>
        <time>2022-08-11T09:50:03.477+02:00</time>
      </trkpt>
      <trkpt lat="45.61912" lon="-1.03182">
        <ele>61.1</ele>
        <time>2022-08-11T09:50:04.507+02:00</time>
      </trkpt>
      <trkpt lat="45.6192" lon="-1.03173">
        <ele>59.8</ele>
        <time>2022-08-11T09:50:12.489+02:00</time>
      </trkpt>
      <trkpt lat="45.61929" lon="-1.03167">
        <ele>58.4</ele>
        <time>2022-08-11T09:50:16.497+02:00</time>
      </trkpt>
      <trkpt lat="45.61939" lon="-1.0316">
        <ele>58.7</ele>
        <time>2022-08-11T09:50:20.505+02:00</time>
      </trkpt>
      <trkpt lat="45.61948" lon="-1.03153">
        <ele>59.1</ele>
        <time>2022-08-11T09:50:24.5+02:00</time>
      </trkpt>
      <trkpt lat="45.61956" lon="-1.03146">
        <ele>58.8</ele>
        <time>2022-08-11T09:50:29.505+02:00</time>
      </trkpt>
      <trkpt lat="45.61962" lon="-1.03137">
        <ele>59.2</ele>
        <time>2022-08-11T09:50:33.503+02:00</time>
      </trkpt>
      <trkpt lat="45.61969" lon="-1.03127">
        <ele>59.7</ele>
        <time>2022-08-11T09:50:37.492+02:00</time>
      </trkpt>
      <trkpt lat="45.61979" lon="-1.03122">
        <ele>60.2</ele>
        <time>2022-08-11T09:50:42.494+02:00</time>
      </trkpt>
      <trkpt lat="45.61988" lon="-1.03115">
        <ele>59.5</ele>
        <time>2022-08-11T09:50:46.499+02:00</time>
      </trkpt>
      <trkpt lat="45.61997" lon="-1.03108">
        <ele>59.6</ele>
        <time>2022-08-11T09:50:50.495+02:00</time>
      </trkpt>
      <trkpt lat="45.62006" lon="-1.031">
        <ele>58.7</ele>
        <time>2022-08-11T09:50:54.496+02:00</time>
      </trkpt>
      <trkpt lat="45.62016" lon="-1.03092">
        <ele>59.8</ele>
        <time>2022-08-11T09:50:58.497+02:00</time>
      </trkpt>
      <trkpt lat="45.62025" lon="-1.03085">
        <ele>60.1</ele>
        <time>2022-08-11T09:51:02.498+02:00</time>
      </trkpt>
      <trkpt lat="45.62034" lon="-1.03078">
        <ele>60.4</ele>
        <time>2022-08-11T09:51:05.496+02:00</time>
      </trkpt>
      <trkpt lat="45.62044" lon="-1.03071">
        <ele>59.2</ele>
        <time>2022-08-11T09:51:09.495+02:00</time>
      </trkpt>
      <trkpt lat="45.62053" lon="-1.03063">
        <ele>58.8</ele>
        <time>2022-08-11T09:51:13.484+02:00</time>
      </trkpt>
      <trkpt lat="45.62063" lon="-1.03053">
        <ele>58.6</ele>
        <time>2022-08-11T09:51:17.498+02:00</time>
      </trkpt>
      <trkpt lat="45.6207" lon="-1.03044">
        <ele>57.8</ele>
        <time>2022-08-11T09:51:20.499+02:00</time>
      </trkpt>
      <trkpt lat="45.62077" lon="-1.03034">
        <ele>57.2</ele>
        <time>2022-08-11T09:51:23.486+02:00</time>
      </trkpt>
      <trkpt lat="45.62084" lon="-1.03024">
        <ele>57.3</ele>
        <time>2022-08-11T09:51:26.497+02:00</time>
      </trkpt>
      <trkpt lat="45.62092" lon="-1.03014">
        <ele>56.4</ele>
        <time>2022-08-11T09:51:30.503+02:00</time>
      </trkpt>
      <trkpt lat="45.62099" lon="-1.03006">
        <ele>55.3</ele>
        <time>2022-08-11T09:51:33.501+02:00</time>
      </trkpt>
      <trkpt lat="45.62108" lon="-1.03003">
        <ele>55</ele>
        <time>2022-08-11T09:51:37.497+02:00</time>
      </trkpt>
      <trkpt lat="45.62116" lon="-1.02993">
        <ele>55.3</ele>
        <time>2022-08-11T09:51:45.495+02:00</time>
      </trkpt>
      <trkpt lat="45.62125" lon="-1.02986">
        <ele>55</ele>
        <time>2022-08-11T09:51:52.495+02:00</time>
      </trkpt>
      <trkpt lat="45.62135" lon="-1.02978">
        <ele>55.4</ele>
        <time>2022-08-11T09:51:57.497+02:00</time>
      </trkpt>
      <trkpt lat="45.6214" lon="-1.02966">
        <ele>55.3</ele>
        <time>2022-08-11T09:52:01.494+02:00</time>
      </trkpt>
      <trkpt lat="45.62142" lon="-1.02952">
        <ele>54.6</ele>
        <time>2022-08-11T09:52:04.495+02:00</time>
      </trkpt>
      <trkpt lat="45.62142" lon="-1.02936">
        <ele>54.2</ele>
        <time>2022-08-11T09:52:07.498+02:00</time>
      </trkpt>
      <trkpt lat="45.62144" lon="-1.02919">
        <ele>53.8</ele>
        <time>2022-08-11T09:52:10.5+02:00</time>
      </trkpt>
      <trkpt lat="45.62145" lon="-1.02903">
        <ele>53.7</ele>
        <time>2022-08-11T09:52:13.488+02:00</time>
      </trkpt>
      <trkpt lat="45.62148" lon="-1.0289">
        <ele>53.8</ele>
        <time>2022-08-11T09:52:16.501+02:00</time>
      </trkpt>
      <trkpt lat="45.62152" lon="-1.02876">
        <ele>53.6</ele>
        <time>2022-08-11T09:52:20.501+02:00</time>
      </trkpt>
      <trkpt lat="45.62157" lon="-1.02862">
        <ele>53.7</ele>
        <time>2022-08-11T09:52:24.481+02:00</time>
      </trkpt>
      <trkpt lat="45.6216" lon="-1.02853">
        <ele>53.7</ele>
        <time>2022-08-11T09:52:31.501+02:00</time>
      </trkpt>
      <trkpt lat="45.62161" lon="-1.02853">
        <ele>54</ele>
        <time>2022-08-11T09:52:32.497+02:00</time>
      </trkpt>
      <trkpt lat="45.62161" lon="-1.02853">
        <ele>53.8</ele>
        <time>2022-08-11T09:52:33.488+02:00</time>
      </trkpt>
      <trkpt lat="45.62161" lon="-1.02853">
        <ele>53.4</ele>
        <time>2022-08-11T09:52:34.498+02:00</time>
      </trkpt>
      <trkpt lat="45.62171" lon="-1.02857">
        <ele>53.2</ele>
        <time>2022-08-11T09:52:45.502+02:00</time>
      </trkpt>
      <trkpt lat="45.62175" lon="-1.02846">
        <ele>53.2</ele>
        <time>2022-08-11T09:52:48.495+02:00</time>
      </trkpt>
      <trkpt lat="45.6218" lon="-1.02834">
        <ele>52.7</ele>
        <time>2022-08-11T09:52:51.502+02:00</time>
      </trkpt>
      <trkpt lat="45.62185" lon="-1.02819">
        <ele>52.7</ele>
        <time>2022-08-11T09:52:55.492+02:00</time>
      </trkpt>
      <trkpt lat="45.62191" lon="-1.02808">
        <ele>53</ele>
        <time>2022-08-11T09:52:59.516+02:00</time>
      </trkpt>
      <trkpt lat="45.62194" lon="-1.02795">
        <ele>53.1</ele>
        <time>2022-08-11T09:53:03.488+02:00</time>
      </trkpt>
      <trkpt lat="45.62192" lon="-1.02782">
        <ele>53.3</ele>
        <time>2022-08-11T09:53:06.495+02:00</time>
      </trkpt>
      <trkpt lat="45.62194" lon="-1.02769">
        <ele>53.1</ele>
        <time>2022-08-11T09:53:09.495+02:00</time>
      </trkpt>
      <trkpt lat="45.62197" lon="-1.02754">
        <ele>53.4</ele>
        <time>2022-08-11T09:53:12.494+02:00</time>
      </trkpt>
      <trkpt lat="45.62202" lon="-1.02736">
        <ele>53.6</ele>
        <time>2022-08-11T09:53:15.505+02:00</time>
      </trkpt>
      <trkpt lat="45.62207" lon="-1.02721">
        <ele>53.4</ele>
        <time>2022-08-11T09:53:18.498+02:00</time>
      </trkpt>
      <trkpt lat="45.62213" lon="-1.02709">
        <ele>53.8</ele>
        <time>2022-08-11T09:53:21.495+02:00</time>
      </trkpt>
      <trkpt lat="45.62222" lon="-1.02703">
        <ele>52.5</ele>
        <time>2022-08-11T09:53:25.476+02:00</time>
      </trkpt>
      <trkpt lat="45.62231" lon="-1.02709">
        <ele>51.8</ele>
        <time>2022-08-11T09:53:29.479+02:00</time>
      </trkpt>
      <trkpt lat="45.6224" lon="-1.02714">
        <ele>52.2</ele>
        <time>2022-08-11T09:53:32.481+02:00</time>
      </trkpt>
      <trkpt lat="45.62249" lon="-1.02722">
        <ele>52.3</ele>
        <time>2022-08-11T09:53:35.484+02:00</time>
      </trkpt>
      <trkpt lat="45.62258" lon="-1.02731">
        <ele>52.3</ele>
        <time>2022-08-11T09:53:38.503+02:00</time>
      </trkpt>
      <trkpt lat="45.62268" lon="-1.02739">
        <ele>52.5</ele>
        <time>2022-08-11T09:53:41.496+02:00</time>
      </trkpt>
      <trkpt lat="45.62277" lon="-1.02746">
        <ele>51.9</ele>
        <time>2022-08-11T09:53:44.494+02:00</time>
      </trkpt>
      <trkpt lat="45.62286" lon="-1.02754">
        <ele>52</ele>
        <time>2022-08-11T09:53:47.5+02:00</time>
      </trkpt>
      <trkpt lat="45.62296" lon="-1.02762">
        <ele>52.1</ele>
        <time>2022-08-11T09:53:50.486+02:00</time>
      </trkpt>
      <trkpt lat="45.62305" lon="-1.02769">
        <ele>51.9</ele>
        <time>2022-08-11T09:53:53.496+02:00</time>
      </trkpt>
      <trkpt lat="45.62314" lon="-1.02777">
        <ele>52</ele>
        <time>2022-08-11T09:53:56.494+02:00</time>
      </trkpt>
      <trkpt lat="45.62322" lon="-1.02785">
        <ele>52.1</ele>
        <time>2022-08-11T09:53:59.497+02:00</time>
      </trkpt>
      <trkpt lat="45.6233" lon="-1.02792">
        <ele>52.3</ele>
        <time>2022-08-11T09:54:02.496+02:00</time>
      </trkpt>
      <trkpt lat="45.62338" lon="-1.02798">
        <ele>52.9</ele>
        <time>2022-08-11T09:54:05.496+02:00</time>
      </trkpt>
      <trkpt lat="45.62346" lon="-1.02792">
        <ele>52.6</ele>
        <time>2022-08-11T09:54:08.495+02:00</time>
      </trkpt>
      <trkpt lat="45.62352" lon="-1.0278">
        <ele>53.3</ele>
        <time>2022-08-11T09:54:11.497+02:00</time>
      </trkpt>
      <trkpt lat="45.62358" lon="-1.02766">
        <ele>53</ele>
        <time>2022-08-11T09:54:14.488+02:00</time>
      </trkpt>
      <trkpt lat="45.62362" lon="-1.02749">
        <ele>52.7</ele>
        <time>2022-08-11T09:54:17.498+02:00</time>
      </trkpt>
      <trkpt lat="45.62366" lon="-1.02736">
        <ele>52.5</ele>
        <time>2022-08-11T09:54:20.5+02:00</time>
      </trkpt>
      <trkpt lat="45.62369" lon="-1.02722">
        <ele>52.7</ele>
        <time>2022-08-11T09:54:23.494+02:00</time>
      </trkpt>
      <trkpt lat="45.62372" lon="-1.02707">
        <ele>52.9</ele>
        <time>2022-08-11T09:54:26.5+02:00</time>
      </trkpt>
      <trkpt lat="45.62376" lon="-1.02693">
        <ele>53.5</ele>
        <time>2022-08-11T09:54:29.505+02:00</time>
      </trkpt>
      <trkpt lat="45.62378" lon="-1.0268">
        <ele>53.8</ele>
        <time>2022-08-11T09:54:32.508+02:00</time>
      </trkpt>
      <trkpt lat="45.6238" lon="-1.02666">
        <ele>53.6</ele>
        <time>2022-08-11T09:54:35.5+02:00</time>
      </trkpt>
      <trkpt lat="45.62383" lon="-1.02652">
        <ele>54.1</ele>
        <time>2022-08-11T09:54:38.492+02:00</time>
      </trkpt>
      <trkpt lat="45.62385" lon="-1.02638">
        <ele>54.4</ele>
        <time>2022-08-11T09:54:41.495+02:00</time>
      </trkpt>
      <trkpt lat="45.62387" lon="-1.02624">
        <ele>54.9</ele>
        <time>2022-08-11T09:54:44.488+02:00</time>
      </trkpt>
      <trkpt lat="45.62388" lon="-1.0261">
        <ele>55.4</ele>
        <time>2022-08-11T09:54:47.498+02:00</time>
      </trkpt>
      <trkpt lat="45.62389" lon="-1.02595">
        <ele>56.8</ele>
        <time>2022-08-11T09:54:50.498+02:00</time>
      </trkpt>
      <trkpt lat="45.62388" lon="-1.0258">
        <ele>56.1</ele>
        <time>2022-08-11T09:54:53.502+02:00</time>
      </trkpt>
      <trkpt lat="45.62387" lon="-1.02565">
        <ele>56.2</ele>
        <time>2022-08-11T09:54:56.495+02:00</time>
      </trkpt>
      <trkpt lat="45.62386" lon="-1.02551">
        <ele>57.2</ele>
        <time>2022-08-11T09:54:59.507+02:00</time>
      </trkpt>
      <trkpt lat="45.62383" lon="-1.02536">
        <ele>56.4</ele>
        <time>2022-08-11T09:55:02.505+02:00</time>
      </trkpt>
      <trkpt lat="45.62379" lon="-1.02522">
        <ele>56.4</ele>
        <time>2022-08-11T09:55:05.503+02:00</time>
      </trkpt>
      <trkpt lat="45.62375" lon="-1.02509">
        <ele>56.3</ele>
        <time>2022-08-11T09:55:08.498+02:00</time>
      </trkpt>
      <trkpt lat="45.62371" lon="-1.02496">
        <ele>56</ele>
        <time>2022-08-11T09:55:11.501+02:00</time>
      </trkpt>
      <trkpt lat="45.62366" lon="-1.02483">
        <ele>55.9</ele>
        <time>2022-08-11T09:55:14.486+02:00</time>
      </trkpt>
      <trkpt lat="45.62362" lon="-1.0247">
        <ele>55.6</ele>
        <time>2022-08-11T09:55:17.49+02:00</time>
      </trkpt>
      <trkpt lat="45.62357" lon="-1.02457">
        <ele>55.6</ele>
        <time>2022-08-11T09:55:20.503+02:00</time>
      </trkpt>
      <trkpt lat="45.62354" lon="-1.02445">
        <ele>54.6</ele>
        <time>2022-08-11T09:55:23.498+02:00</time>
      </trkpt>
      <trkpt lat="45.62349" lon="-1.02431">
        <ele>54.8</ele>
        <time>2022-08-11T09:55:27.5+02:00</time>
      </trkpt>
      <trkpt lat="45.62344" lon="-1.02419">
        <ele>54.2</ele>
        <time>2022-08-11T09:55:31.481+02:00</time>
      </trkpt>
      <trkpt lat="45.62343" lon="-1.02404">
        <ele>54.2</ele>
        <time>2022-08-11T09:55:35.503+02:00</time>
      </trkpt>
      <trkpt lat="45.62349" lon="-1.02393">
        <ele>54.2</ele>
        <time>2022-08-11T09:55:38.502+02:00</time>
      </trkpt>
      <trkpt lat="45.62357" lon="-1.02383">
        <ele>53.4</ele>
        <time>2022-08-11T09:55:41.498+02:00</time>
      </trkpt>
      <trkpt lat="45.62361" lon="-1.0237">
        <ele>52.7</ele>
        <time>2022-08-11T09:55:45.501+02:00</time>
      </trkpt>
      <trkpt lat="45.62358" lon="-1.02357">
        <ele>48.7</ele>
        <time>2022-08-11T09:55:51.503+02:00</time>
      </trkpt>
      <trkpt lat="45.62349" lon="-1.02347">
        <ele>50</ele>
        <time>2022-08-11T09:55:55.501+02:00</time>
      </trkpt>
      <trkpt lat="45.62341" lon="-1.02335">
        <ele>51.7</ele>
        <time>2022-08-11T09:55:58.495+02:00</time>
      </trkpt>
      <trkpt lat="45.62335" lon="-1.0232">
        <ele>53.1</ele>
        <time>2022-08-11T09:56:01.497+02:00</time>
      </trkpt>
      <trkpt lat="45.62329" lon="-1.02305">
        <ele>54.1</ele>
        <time>2022-08-11T09:56:04.487+02:00</time>
      </trkpt>
      <trkpt lat="45.62322" lon="-1.02291">
        <ele>53.7</ele>
        <time>2022-08-11T09:56:07.499+02:00</time>
      </trkpt>
      <trkpt lat="45.62314" lon="-1.0228">
        <ele>54.2</ele>
        <time>2022-08-11T09:56:10.497+02:00</time>
      </trkpt>
      <trkpt lat="45.62307" lon="-1.02267">
        <ele>54.6</ele>
        <time>2022-08-11T09:56:13.493+02:00</time>
      </trkpt>
      <trkpt lat="45.62301" lon="-1.02254">
        <ele>54.9</ele>
        <time>2022-08-11T09:56:16.501+02:00</time>
      </trkpt>
      <trkpt lat="45.62294" lon="-1.02241">
        <ele>54.9</ele>
        <time>2022-08-11T09:56:19.497+02:00</time>
      </trkpt>
      <trkpt lat="45.62287" lon="-1.02228">
        <ele>54.9</ele>
        <time>2022-08-11T09:56:22.489+02:00</time>
      </trkpt>
      <trkpt lat="45.62279" lon="-1.02213">
        <ele>54.2</ele>
        <time>2022-08-11T09:56:25.479+02:00</time>
      </trkpt>
      <trkpt lat="45.62274" lon="-1.02202">
        <ele>54.1</ele>
        <time>2022-08-11T09:56:27.499+02:00</time>
      </trkpt>
      <trkpt lat="45.62266" lon="-1.02187">
        <ele>53.8</ele>
        <time>2022-08-11T09:56:30.501+02:00</time>
      </trkpt>
      <trkpt lat="45.62258" lon="-1.02173">
        <ele>53.9</ele>
        <time>2022-08-11T09:56:33.497+02:00</time>
      </trkpt>
      <trkpt lat="45.62251" lon="-1.0216">
        <ele>52.9</ele>
        <time>2022-08-11T09:56:36.505+02:00</time>
      </trkpt>
      <trkpt lat="45.62244" lon="-1.02148">
        <ele>52.8</ele>
        <time>2022-08-11T09:56:39.496+02:00</time>
      </trkpt>
      <trkpt lat="45.62236" lon="-1.02134">
        <ele>53</ele>
        <time>2022-08-11T09:56:42.497+02:00</time>
      </trkpt>
      <trkpt lat="45.62229" lon="-1.02119">
        <ele>52.1</ele>
        <time>2022-08-11T09:56:45.494+02:00</time>
      </trkpt>
      <trkpt lat="45.62223" lon="-1.02108">
        <ele>52.2</ele>
        <time>2022-08-11T09:56:47.507+02:00</time>
      </trkpt>
      <trkpt lat="45.62217" lon="-1.02096">
        <ele>52.4</ele>
        <time>2022-08-11T09:56:49.51+02:00</time>
      </trkpt>
      <trkpt lat="45.62211" lon="-1.02086">
        <ele>52.7</ele>
        <time>2022-08-11T09:56:51.497+02:00</time>
      </trkpt>
      <trkpt lat="45.62203" lon="-1.02071">
        <ele>52.9</ele>
        <time>2022-08-11T09:56:54.485+02:00</time>
      </trkpt>
      <trkpt lat="45.62196" lon="-1.02059">
        <ele>53.4</ele>
        <time>2022-08-11T09:56:57.497+02:00</time>
      </trkpt>
      <trkpt lat="45.62189" lon="-1.02046">
        <ele>53.3</ele>
        <time>2022-08-11T09:57:00.499+02:00</time>
      </trkpt>
      <trkpt lat="45.62181" lon="-1.02032">
        <ele>53.2</ele>
        <time>2022-08-11T09:57:03.496+02:00</time>
      </trkpt>
      <trkpt lat="45.62173" lon="-1.02019">
        <ele>54</ele>
        <time>2022-08-11T09:57:06.506+02:00</time>
      </trkpt>
      <trkpt lat="45.62166" lon="-1.02005">
        <ele>54.8</ele>
        <time>2022-08-11T09:57:09.501+02:00</time>
      </trkpt>
      <trkpt lat="45.62156" lon="-1.01992">
        <ele>54.4</ele>
        <time>2022-08-11T09:57:12.498+02:00</time>
      </trkpt>
      <trkpt lat="45.62146" lon="-1.0198">
        <ele>54.8</ele>
        <time>2022-08-11T09:57:15.499+02:00</time>
      </trkpt>
      <trkpt lat="45.62136" lon="-1.01968">
        <ele>55.2</ele>
        <time>2022-08-11T09:57:18.494+02:00</time>
      </trkpt>
      <trkpt lat="45.6213" lon="-1.01959">
        <ele>55.1</ele>
        <time>2022-08-11T09:57:20.498+02:00</time>
      </trkpt>
      <trkpt lat="45.62123" lon="-1.01951">
        <ele>55.6</ele>
        <time>2022-08-11T09:57:22.499+02:00</time>
      </trkpt>
      <trkpt lat="45.62113" lon="-1.01938">
        <ele>55.6</ele>
        <time>2022-08-11T09:57:25.498+02:00</time>
      </trkpt>
      <trkpt lat="45.62103" lon="-1.01925">
        <ele>56</ele>
        <time>2022-08-11T09:57:28.499+02:00</time>
      </trkpt>
      <trkpt lat="45.62096" lon="-1.01917">
        <ele>55.9</ele>
        <time>2022-08-11T09:57:30.5+02:00</time>
      </trkpt>
      <trkpt lat="45.62089" lon="-1.01909">
        <ele>55.7</ele>
        <time>2022-08-11T09:57:32.504+02:00</time>
      </trkpt>
      <trkpt lat="45.62082" lon="-1.019">
        <ele>55.8</ele>
        <time>2022-08-11T09:57:34.48+02:00</time>
      </trkpt>
      <trkpt lat="45.62075" lon="-1.01891">
        <ele>56</ele>
        <time>2022-08-11T09:57:36.501+02:00</time>
      </trkpt>
      <trkpt lat="45.62068" lon="-1.01881">
        <ele>55.6</ele>
        <time>2022-08-11T09:57:38.497+02:00</time>
      </trkpt>
      <trkpt lat="45.62061" lon="-1.01872">
        <ele>55.7</ele>
        <time>2022-08-11T09:57:40.502+02:00</time>
      </trkpt>
      <trkpt lat="45.62053" lon="-1.01863">
        <ele>54.9</ele>
        <time>2022-08-11T09:57:42.5+02:00</time>
      </trkpt>
      <trkpt lat="45.62047" lon="-1.01854">
        <ele>54.5</ele>
        <time>2022-08-11T09:57:44.48+02:00</time>
      </trkpt>
      <trkpt lat="45.62039" lon="-1.01844">
        <ele>54.3</ele>
        <time>2022-08-11T09:57:46.497+02:00</time>
      </trkpt>
      <trkpt lat="45.62032" lon="-1.01835">
        <ele>54.6</ele>
        <time>2022-08-11T09:57:48.503+02:00</time>
      </trkpt>
      <trkpt lat="45.62025" lon="-1.01826">
        <ele>55.2</ele>
        <time>2022-08-11T09:57:50.497+02:00</time>
      </trkpt>
      <trkpt lat="45.62017" lon="-1.01817">
        <ele>54.8</ele>
        <time>2022-08-11T09:57:52.499+02:00</time>
      </trkpt>
      <trkpt lat="45.6201" lon="-1.01808">
        <ele>54.9</ele>
        <time>2022-08-11T09:57:54.487+02:00</time>
      </trkpt>
      <trkpt lat="45.62003" lon="-1.01799">
        <ele>55.1</ele>
        <time>2022-08-11T09:57:56.485+02:00</time>
      </trkpt>
      <trkpt lat="45.61996" lon="-1.0179">
        <ele>55.1</ele>
        <time>2022-08-11T09:57:58.501+02:00</time>
      </trkpt>
      <trkpt lat="45.61988" lon="-1.01781">
        <ele>55</ele>
        <time>2022-08-11T09:58:00.491+02:00</time>
      </trkpt>
      <trkpt lat="45.61981" lon="-1.01771">
        <ele>54.9</ele>
        <time>2022-08-11T09:58:02.498+02:00</time>
      </trkpt>
      <trkpt lat="45.61974" lon="-1.01763">
        <ele>55.2</ele>
        <time>2022-08-11T09:58:04.49+02:00</time>
      </trkpt>
      <trkpt lat="45.61968" lon="-1.01753">
        <ele>54.8</ele>
        <time>2022-08-11T09:58:06.499+02:00</time>
      </trkpt>
      <trkpt lat="45.6196" lon="-1.01745">
        <ele>54.7</ele>
        <time>2022-08-11T09:58:08.499+02:00</time>
      </trkpt>
      <trkpt lat="45.61953" lon="-1.01736">
        <ele>54.6</ele>
        <time>2022-08-11T09:58:10.499+02:00</time>
      </trkpt>
      <trkpt lat="45.61944" lon="-1.01724">
        <ele>55.2</ele>
        <time>2022-08-11T09:58:13.485+02:00</time>
      </trkpt>
      <trkpt lat="45.61937" lon="-1.01716">
        <ele>55</ele>
        <time>2022-08-11T09:58:15.478+02:00</time>
      </trkpt>
      <trkpt lat="45.6193" lon="-1.01706">
        <ele>55.2</ele>
        <time>2022-08-11T09:58:17.483+02:00</time>
      </trkpt>
      <trkpt lat="45.61923" lon="-1.01697">
        <ele>55.1</ele>
        <time>2022-08-11T09:58:19.477+02:00</time>
      </trkpt>
      <trkpt lat="45.61915" lon="-1.01687">
        <ele>55</ele>
        <time>2022-08-11T09:58:21.48+02:00</time>
      </trkpt>
      <trkpt lat="45.61909" lon="-1.01679">
        <ele>55.5</ele>
        <time>2022-08-11T09:58:23.486+02:00</time>
      </trkpt>
      <trkpt lat="45.61902" lon="-1.0167">
        <ele>55.3</ele>
        <time>2022-08-11T09:58:25.499+02:00</time>
      </trkpt>
      <trkpt lat="45.61891" lon="-1.01658">
        <ele>55.1</ele>
        <time>2022-08-11T09:58:28.501+02:00</time>
      </trkpt>
      <trkpt lat="45.61884" lon="-1.01649">
        <ele>55.2</ele>
        <time>2022-08-11T09:58:30.494+02:00</time>
      </trkpt>
      <trkpt lat="45.61877" lon="-1.0164">
        <ele>55</ele>
        <time>2022-08-11T09:58:32.496+02:00</time>
      </trkpt>
      <trkpt lat="45.6187" lon="-1.01631">
        <ele>54.9</ele>
        <time>2022-08-11T09:58:34.488+02:00</time>
      </trkpt>
      <trkpt lat="45.61862" lon="-1.01621">
        <ele>54.5</ele>
        <time>2022-08-11T09:58:36.497+02:00</time>
      </trkpt>
      <trkpt lat="45.61855" lon="-1.01612">
        <ele>54.4</ele>
        <time>2022-08-11T09:58:38.498+02:00</time>
      </trkpt>
      <trkpt lat="45.61847" lon="-1.01603">
        <ele>54.4</ele>
        <time>2022-08-11T09:58:40.483+02:00</time>
      </trkpt>
      <trkpt lat="45.6184" lon="-1.01594">
        <ele>54.4</ele>
        <time>2022-08-11T09:58:42.504+02:00</time>
      </trkpt>
      <trkpt lat="45.61833" lon="-1.01584">
        <ele>54.4</ele>
        <time>2022-08-11T09:58:44.482+02:00</time>
      </trkpt>
      <trkpt lat="45.61825" lon="-1.01575">
        <ele>54.6</ele>
        <time>2022-08-11T09:58:46.499+02:00</time>
      </trkpt>
      <trkpt lat="45.61818" lon="-1.01565">
        <ele>54.6</ele>
        <time>2022-08-11T09:58:48.497+02:00</time>
      </trkpt>
      <trkpt lat="45.61811" lon="-1.01556">
        <ele>54.8</ele>
        <time>2022-08-11T09:58:50.5+02:00</time>
      </trkpt>
      <trkpt lat="45.61804" lon="-1.01548">
        <ele>55.1</ele>
        <time>2022-08-11T09:58:52.495+02:00</time>
      </trkpt>
      <trkpt lat="45.61793" lon="-1.01536">
        <ele>55.1</ele>
        <time>2022-08-11T09:58:55.504+02:00</time>
      </trkpt>
      <trkpt lat="45.61786" lon="-1.01527">
        <ele>55.3</ele>
        <time>2022-08-11T09:58:57.496+02:00</time>
      </trkpt>
      <trkpt lat="45.61779" lon="-1.01517">
        <ele>55.1</ele>
        <time>2022-08-11T09:58:59.497+02:00</time>
      </trkpt>
      <trkpt lat="45.61773" lon="-1.01508">
        <ele>54.9</ele>
        <time>2022-08-11T09:59:01.497+02:00</time>
      </trkpt>
      <trkpt lat="45.61766" lon="-1.01498">
        <ele>54.7</ele>
        <time>2022-08-11T09:59:03.502+02:00</time>
      </trkpt>
      <trkpt lat="45.61759" lon="-1.0149">
        <ele>54.3</ele>
        <time>2022-08-11T09:59:05.497+02:00</time>
      </trkpt>
      <trkpt lat="45.61749" lon="-1.01478">
        <ele>54.4</ele>
        <time>2022-08-11T09:59:08.49+02:00</time>
      </trkpt>
      <trkpt lat="45.61742" lon="-1.01469">
        <ele>54.6</ele>
        <time>2022-08-11T09:59:10.497+02:00</time>
      </trkpt>
      <trkpt lat="45.61735" lon="-1.0146">
        <ele>54.6</ele>
        <time>2022-08-11T09:59:12.5+02:00</time>
      </trkpt>
      <trkpt lat="45.61728" lon="-1.01452">
        <ele>54.8</ele>
        <time>2022-08-11T09:59:14.491+02:00</time>
      </trkpt>
      <trkpt lat="45.61721" lon="-1.01443">
        <ele>55.1</ele>
        <time>2022-08-11T09:59:16.504+02:00</time>
      </trkpt>
      <trkpt lat="45.61714" lon="-1.01435">
        <ele>54.6</ele>
        <time>2022-08-11T09:59:18.5+02:00</time>
      </trkpt>
      <trkpt lat="45.61707" lon="-1.01426">
        <ele>54.4</ele>
        <time>2022-08-11T09:59:20.494+02:00</time>
      </trkpt>
      <trkpt lat="45.61699" lon="-1.01417">
        <ele>54.6</ele>
        <time>2022-08-11T09:59:22.495+02:00</time>
      </trkpt>
      <trkpt lat="45.61692" lon="-1.01408">
        <ele>54.3</ele>
        <time>2022-08-11T09:59:24.484+02:00</time>
      </trkpt>
      <trkpt lat="45.61682" lon="-1.01396">
        <ele>53.9</ele>
        <time>2022-08-11T09:59:27.496+02:00</time>
      </trkpt>
      <trkpt lat="45.61675" lon="-1.01387">
        <ele>53.9</ele>
        <time>2022-08-11T09:59:29.499+02:00</time>
      </trkpt>
      <trkpt lat="45.61667" lon="-1.01378">
        <ele>54.1</ele>
        <time>2022-08-11T09:59:31.497+02:00</time>
      </trkpt>
      <trkpt lat="45.61659" lon="-1.01369">
        <ele>54.2</ele>
        <time>2022-08-11T09:59:33.5+02:00</time>
      </trkpt>
      <trkpt lat="45.61651" lon="-1.01361">
        <ele>53.8</ele>
        <time>2022-08-11T09:59:35.496+02:00</time>
      </trkpt>
      <trkpt lat="45.61644" lon="-1.01352">
        <ele>54.1</ele>
        <time>2022-08-11T09:59:37.503+02:00</time>
      </trkpt>
      <trkpt lat="45.61635" lon="-1.01342">
        <ele>54.5</ele>
        <time>2022-08-11T09:59:40.494+02:00</time>
      </trkpt>
      <trkpt lat="45.61627" lon="-1.01334">
        <ele>55.1</ele>
        <time>2022-08-11T09:59:45.498+02:00</time>
      </trkpt>
      <trkpt lat="45.61617" lon="-1.01322">
        <ele>55.2</ele>
        <time>2022-08-11T09:59:49.499+02:00</time>
      </trkpt>
      <trkpt lat="45.61609" lon="-1.01314">
        <ele>55.1</ele>
        <time>2022-08-11T09:59:51.505+02:00</time>
      </trkpt>
      <trkpt lat="45.61601" lon="-1.01306">
        <ele>54.8</ele>
        <time>2022-08-11T09:59:53.489+02:00</time>
      </trkpt>
      <trkpt lat="45.61593" lon="-1.01297">
        <ele>54.7</ele>
        <time>2022-08-11T09:59:55.495+02:00</time>
      </trkpt>
      <trkpt lat="45.61584" lon="-1.01289">
        <ele>54.9</ele>
        <time>2022-08-11T09:59:57.495+02:00</time>
      </trkpt>
      <trkpt lat="45.61576" lon="-1.0128">
        <ele>54.7</ele>
        <time>2022-08-11T09:59:59.497+02:00</time>
      </trkpt>
      <trkpt lat="45.61569" lon="-1.01272">
        <ele>54.1</ele>
        <time>2022-08-11T10:00:01.505+02:00</time>
      </trkpt>
      <trkpt lat="45.61559" lon="-1.01262">
        <ele>53.7</ele>
        <time>2022-08-11T10:00:04.476+02:00</time>
      </trkpt>
      <trkpt lat="45.61548" lon="-1.01251">
        <ele>54.2</ele>
        <time>2022-08-11T10:00:07.502+02:00</time>
      </trkpt>
      <trkpt lat="45.61537" lon="-1.0124">
        <ele>53.4</ele>
        <time>2022-08-11T10:00:10.499+02:00</time>
      </trkpt>
      <trkpt lat="45.61529" lon="-1.01233">
        <ele>53.3</ele>
        <time>2022-08-11T10:00:12.497+02:00</time>
      </trkpt>
      <trkpt lat="45.61521" lon="-1.01226">
        <ele>53.3</ele>
        <time>2022-08-11T10:00:14.495+02:00</time>
      </trkpt>
      <trkpt lat="45.61514" lon="-1.01218">
        <ele>53.5</ele>
        <time>2022-08-11T10:00:16.495+02:00</time>
      </trkpt>
      <trkpt lat="45.61502" lon="-1.01208">
        <ele>53.1</ele>
        <time>2022-08-11T10:00:19.495+02:00</time>
      </trkpt>
      <trkpt lat="45.61494" lon="-1.01201">
        <ele>52.7</ele>
        <time>2022-08-11T10:00:21.493+02:00</time>
      </trkpt>
      <trkpt lat="45.61486" lon="-1.01193">
        <ele>52.6</ele>
        <time>2022-08-11T10:00:23.496+02:00</time>
      </trkpt>
      <trkpt lat="45.61477" lon="-1.01185">
        <ele>52.8</ele>
        <time>2022-08-11T10:00:25.496+02:00</time>
      </trkpt>
      <trkpt lat="45.61469" lon="-1.01177">
        <ele>53.1</ele>
        <time>2022-08-11T10:00:27.499+02:00</time>
      </trkpt>
      <trkpt lat="45.61461" lon="-1.0117">
        <ele>53.3</ele>
        <time>2022-08-11T10:00:29.496+02:00</time>
      </trkpt>
      <trkpt lat="45.61453" lon="-1.01162">
        <ele>53.8</ele>
        <time>2022-08-11T10:00:31.499+02:00</time>
      </trkpt>
      <trkpt lat="45.61442" lon="-1.01152">
        <ele>53.6</ele>
        <time>2022-08-11T10:00:34.492+02:00</time>
      </trkpt>
      <trkpt lat="45.61434" lon="-1.01146">
        <ele>53.7</ele>
        <time>2022-08-11T10:00:36.509+02:00</time>
      </trkpt>
      <trkpt lat="45.61426" lon="-1.01139">
        <ele>53.5</ele>
        <time>2022-08-11T10:00:38.5+02:00</time>
      </trkpt>
      <trkpt lat="45.61418" lon="-1.01131">
        <ele>54</ele>
        <time>2022-08-11T10:00:40.505+02:00</time>
      </trkpt>
      <trkpt lat="45.6141" lon="-1.01124">
        <ele>53.6</ele>
        <time>2022-08-11T10:00:42.497+02:00</time>
      </trkpt>
      <trkpt lat="45.61402" lon="-1.01117">
        <ele>53.9</ele>
        <time>2022-08-11T10:00:44.488+02:00</time>
      </trkpt>
      <trkpt lat="45.61394" lon="-1.01109">
        <ele>53.9</ele>
        <time>2022-08-11T10:00:46.499+02:00</time>
      </trkpt>
      <trkpt lat="45.61386" lon="-1.01102">
        <ele>53.7</ele>
        <time>2022-08-11T10:00:48.495+02:00</time>
      </trkpt>
      <trkpt lat="45.61378" lon="-1.01095">
        <ele>53.7</ele>
        <time>2022-08-11T10:00:50.499+02:00</time>
      </trkpt>
      <trkpt lat="45.6137" lon="-1.01088">
        <ele>53.7</ele>
        <time>2022-08-11T10:00:52.496+02:00</time>
      </trkpt>
      <trkpt lat="45.61362" lon="-1.01081">
        <ele>53.8</ele>
        <time>2022-08-11T10:00:54.49+02:00</time>
      </trkpt>
      <trkpt lat="45.61354" lon="-1.01074">
        <ele>54.3</ele>
        <time>2022-08-11T10:00:56.493+02:00</time>
      </trkpt>
      <trkpt lat="45.61343" lon="-1.01065">
        <ele>55.8</ele>
        <time>2022-08-11T10:00:59.494+02:00</time>
      </trkpt>
      <trkpt lat="45.61332" lon="-1.01056">
        <ele>55.1</ele>
        <time>2022-08-11T10:01:02.485+02:00</time>
      </trkpt>
      <trkpt lat="45.6132" lon="-1.01046">
        <ele>55.5</ele>
        <time>2022-08-11T10:01:05.502+02:00</time>
      </trkpt>
      <trkpt lat="45.61308" lon="-1.01037">
        <ele>55.8</ele>
        <time>2022-08-11T10:01:08.491+02:00</time>
      </trkpt>
      <trkpt lat="45.61297" lon="-1.01028">
        <ele>55.8</ele>
        <time>2022-08-11T10:01:11.497+02:00</time>
      </trkpt>
      <trkpt lat="45.61289" lon="-1.01022">
        <ele>56.4</ele>
        <time>2022-08-11T10:01:13.495+02:00</time>
      </trkpt>
      <trkpt lat="45.61277" lon="-1.01012">
        <ele>56.1</ele>
        <time>2022-08-11T10:01:16.501+02:00</time>
      </trkpt>
      <trkpt lat="45.61265" lon="-1.01004">
        <ele>56.1</ele>
        <time>2022-08-11T10:01:19.5+02:00</time>
      </trkpt>
      <trkpt lat="45.61253" lon="-1.00996">
        <ele>55.3</ele>
        <time>2022-08-11T10:01:22.499+02:00</time>
      </trkpt>
      <trkpt lat="45.61241" lon="-1.00988">
        <ele>54.9</ele>
        <time>2022-08-11T10:01:25.496+02:00</time>
      </trkpt>
      <trkpt lat="45.61232" lon="-1.00982">
        <ele>55.4</ele>
        <time>2022-08-11T10:01:27.49+02:00</time>
      </trkpt>
      <trkpt lat="45.61223" lon="-1.00978">
        <ele>55.6</ele>
        <time>2022-08-11T10:01:29.506+02:00</time>
      </trkpt>
      <trkpt lat="45.61215" lon="-1.00972">
        <ele>55.2</ele>
        <time>2022-08-11T10:01:31.494+02:00</time>
      </trkpt>
      <trkpt lat="45.61206" lon="-1.00967">
        <ele>55</ele>
        <time>2022-08-11T10:01:33.493+02:00</time>
      </trkpt>
      <trkpt lat="45.61197" lon="-1.00963">
        <ele>55.5</ele>
        <time>2022-08-11T10:01:35.507+02:00</time>
      </trkpt>
      <trkpt lat="45.61188" lon="-1.00959">
        <ele>54.6</ele>
        <time>2022-08-11T10:01:37.504+02:00</time>
      </trkpt>
      <trkpt lat="45.6118" lon="-1.00955">
        <ele>54.7</ele>
        <time>2022-08-11T10:01:39.492+02:00</time>
      </trkpt>
      <trkpt lat="45.6117" lon="-1.00951">
        <ele>55.1</ele>
        <time>2022-08-11T10:01:41.494+02:00</time>
      </trkpt>
      <trkpt lat="45.61157" lon="-1.00946">
        <ele>54.6</ele>
        <time>2022-08-11T10:01:44.492+02:00</time>
      </trkpt>
      <trkpt lat="45.61148" lon="-1.00943">
        <ele>54.5</ele>
        <time>2022-08-11T10:01:46.504+02:00</time>
      </trkpt>
      <trkpt lat="45.61139" lon="-1.00939">
        <ele>54.5</ele>
        <time>2022-08-11T10:01:48.497+02:00</time>
      </trkpt>
      <trkpt lat="45.61126" lon="-1.00935">
        <ele>54.3</ele>
        <time>2022-08-11T10:01:51.496+02:00</time>
      </trkpt>
      <trkpt lat="45.61117" lon="-1.00931">
        <ele>54.4</ele>
        <time>2022-08-11T10:01:53.495+02:00</time>
      </trkpt>
      <trkpt lat="45.61108" lon="-1.00928">
        <ele>54.4</ele>
        <time>2022-08-11T10:01:55.503+02:00</time>
      </trkpt>
      <trkpt lat="45.61099" lon="-1.00924">
        <ele>54.5</ele>
        <time>2022-08-11T10:01:57.495+02:00</time>
      </trkpt>
      <trkpt lat="45.6109" lon="-1.00921">
        <ele>54.3</ele>
        <time>2022-08-11T10:01:59.507+02:00</time>
      </trkpt>
      <trkpt lat="45.61081" lon="-1.00918">
        <ele>54.4</ele>
        <time>2022-08-11T10:02:01.504+02:00</time>
      </trkpt>
      <trkpt lat="45.61068" lon="-1.00915">
        <ele>54.1</ele>
        <time>2022-08-11T10:02:04.49+02:00</time>
      </trkpt>
      <trkpt lat="45.61059" lon="-1.00912">
        <ele>54.1</ele>
        <time>2022-08-11T10:02:06.496+02:00</time>
      </trkpt>
      <trkpt lat="45.61046" lon="-1.00908">
        <ele>54.3</ele>
        <time>2022-08-11T10:02:09.5+02:00</time>
      </trkpt>
      <trkpt lat="45.61033" lon="-1.00905">
        <ele>53.9</ele>
        <time>2022-08-11T10:02:12.492+02:00</time>
      </trkpt>
      <trkpt lat="45.61024" lon="-1.00902">
        <ele>54</ele>
        <time>2022-08-11T10:02:14.494+02:00</time>
      </trkpt>
      <trkpt lat="45.61012" lon="-1.00898">
        <ele>54.9</ele>
        <time>2022-08-11T10:02:17.505+02:00</time>
      </trkpt>
      <trkpt lat="45.61003" lon="-1.00896">
        <ele>55.1</ele>
        <time>2022-08-11T10:02:20.488+02:00</time>
      </trkpt>
      <trkpt lat="45.60993" lon="-1.00895">
        <ele>55.6</ele>
        <time>2022-08-11T10:02:23.508+02:00</time>
      </trkpt>
      <trkpt lat="45.60981" lon="-1.00891">
        <ele>55.3</ele>
        <time>2022-08-11T10:02:26.489+02:00</time>
      </trkpt>
      <trkpt lat="45.60972" lon="-1.00889">
        <ele>55.1</ele>
        <time>2022-08-11T10:02:28.492+02:00</time>
      </trkpt>
      <trkpt lat="45.60963" lon="-1.00887">
        <ele>55.2</ele>
        <time>2022-08-11T10:02:30.496+02:00</time>
      </trkpt>
      <trkpt lat="45.60954" lon="-1.00885">
        <ele>55.2</ele>
        <time>2022-08-11T10:02:32.499+02:00</time>
      </trkpt>
      <trkpt lat="45.60941" lon="-1.00882">
        <ele>55.1</ele>
        <time>2022-08-11T10:02:35.501+02:00</time>
      </trkpt>
      <trkpt lat="45.60929" lon="-1.00879">
        <ele>55.1</ele>
        <time>2022-08-11T10:02:38.503+02:00</time>
      </trkpt>
      <trkpt lat="45.60919" lon="-1.00876">
        <ele>54.9</ele>
        <time>2022-08-11T10:02:40.496+02:00</time>
      </trkpt>
      <trkpt lat="45.6091" lon="-1.00874">
        <ele>55</ele>
        <time>2022-08-11T10:02:42.495+02:00</time>
      </trkpt>
      <trkpt lat="45.60901" lon="-1.00872">
        <ele>55.2</ele>
        <time>2022-08-11T10:02:44.488+02:00</time>
      </trkpt>
      <trkpt lat="45.60892" lon="-1.0087">
        <ele>54.7</ele>
        <time>2022-08-11T10:02:46.495+02:00</time>
      </trkpt>
      <trkpt lat="45.60882" lon="-1.00867">
        <ele>54.7</ele>
        <time>2022-08-11T10:02:48.503+02:00</time>
      </trkpt>
      <trkpt lat="45.60869" lon="-1.00864">
        <ele>53.6</ele>
        <time>2022-08-11T10:02:51.493+02:00</time>
      </trkpt>
      <trkpt lat="45.6086" lon="-1.00862">
        <ele>53.7</ele>
        <time>2022-08-11T10:02:53.49+02:00</time>
      </trkpt>
      <trkpt lat="45.60851" lon="-1.0086">
        <ele>54.1</ele>
        <time>2022-08-11T10:02:55.498+02:00</time>
      </trkpt>
      <trkpt lat="45.60842" lon="-1.00859">
        <ele>54.4</ele>
        <time>2022-08-11T10:02:57.498+02:00</time>
      </trkpt>
      <trkpt lat="45.60829" lon="-1.00854">
        <ele>54</ele>
        <time>2022-08-11T10:03:00.495+02:00</time>
      </trkpt>
      <trkpt lat="45.6082" lon="-1.00849">
        <ele>54.5</ele>
        <time>2022-08-11T10:03:02.493+02:00</time>
      </trkpt>
      <trkpt lat="45.60809" lon="-1.00841">
        <ele>55.1</ele>
        <time>2022-08-11T10:03:05.502+02:00</time>
      </trkpt>
      <trkpt lat="45.60801" lon="-1.00827">
        <ele>55.4</ele>
        <time>2022-08-11T10:03:08.497+02:00</time>
      </trkpt>
      <trkpt lat="45.60795" lon="-1.00813">
        <ele>55.8</ele>
        <time>2022-08-11T10:03:11.499+02:00</time>
      </trkpt>
      <trkpt lat="45.60788" lon="-1.00802">
        <ele>55.9</ele>
        <time>2022-08-11T10:03:14.478+02:00</time>
      </trkpt>
      <trkpt lat="45.6078" lon="-1.00789">
        <ele>56.6</ele>
        <time>2022-08-11T10:03:17.479+02:00</time>
      </trkpt>
      <trkpt lat="45.60773" lon="-1.00776">
        <ele>56.8</ele>
        <time>2022-08-11T10:03:20.503+02:00</time>
      </trkpt>
      <trkpt lat="45.60766" lon="-1.00765">
        <ele>57.3</ele>
        <time>2022-08-11T10:03:23.488+02:00</time>
      </trkpt>
      <trkpt lat="45.60758" lon="-1.00753">
        <ele>57.3</ele>
        <time>2022-08-11T10:03:26.496+02:00</time>
      </trkpt>
      <trkpt lat="45.60751" lon="-1.00741">
        <ele>58.2</ele>
        <time>2022-08-11T10:03:29.498+02:00</time>
      </trkpt>
      <trkpt lat="45.60744" lon="-1.00729">
        <ele>59.1</ele>
        <time>2022-08-11T10:03:32.496+02:00</time>
      </trkpt>
      <trkpt lat="45.60737" lon="-1.00719">
        <ele>59.8</ele>
        <time>2022-08-11T10:03:35.503+02:00</time>
      </trkpt>
      <trkpt lat="45.60729" lon="-1.00707">
        <ele>60.5</ele>
        <time>2022-08-11T10:03:39.497+02:00</time>
      </trkpt>
      <trkpt lat="45.60722" lon="-1.00697">
        <ele>61.3</ele>
        <time>2022-08-11T10:03:42.502+02:00</time>
      </trkpt>
      <trkpt lat="45.60716" lon="-1.00688">
        <ele>61.8</ele>
        <time>2022-08-11T10:03:45.486+02:00</time>
      </trkpt>
      <trkpt lat="45.6071" lon="-1.00677">
        <ele>62.6</ele>
        <time>2022-08-11T10:03:48.5+02:00</time>
      </trkpt>
      <trkpt lat="45.60703" lon="-1.00666">
        <ele>61.9</ele>
        <time>2022-08-11T10:03:52.491+02:00</time>
      </trkpt>
      <trkpt lat="45.60697" lon="-1.00655">
        <ele>61.4</ele>
        <time>2022-08-11T10:03:55.501+02:00</time>
      </trkpt>
      <trkpt lat="45.60689" lon="-1.00643">
        <ele>60.9</ele>
        <time>2022-08-11T10:03:58.504+02:00</time>
      </trkpt>
      <trkpt lat="45.60681" lon="-1.00631">
        <ele>61.7</ele>
        <time>2022-08-11T10:04:01.488+02:00</time>
      </trkpt>
      <trkpt lat="45.60672" lon="-1.00621">
        <ele>61.5</ele>
        <time>2022-08-11T10:04:04.478+02:00</time>
      </trkpt>
      <trkpt lat="45.60662" lon="-1.00615">
        <ele>63.2</ele>
        <time>2022-08-11T10:04:07.497+02:00</time>
      </trkpt>
      <trkpt lat="45.60652" lon="-1.00609">
        <ele>64</ele>
        <time>2022-08-11T10:04:10.499+02:00</time>
      </trkpt>
      <trkpt lat="45.60643" lon="-1.00605">
        <ele>64.3</ele>
        <time>2022-08-11T10:04:13.495+02:00</time>
      </trkpt>
      <trkpt lat="45.60633" lon="-1.00603">
        <ele>64</ele>
        <time>2022-08-11T10:04:16.495+02:00</time>
      </trkpt>
      <trkpt lat="45.60623" lon="-1.00603">
        <ele>64.8</ele>
        <time>2022-08-11T10:04:19.5+02:00</time>
      </trkpt>
      <trkpt lat="45.60613" lon="-1.00603">
        <ele>65.9</ele>
        <time>2022-08-11T10:04:22.493+02:00</time>
      </trkpt>
      <trkpt lat="45.60604" lon="-1.00602">
        <ele>66.7</ele>
        <time>2022-08-11T10:04:25.497+02:00</time>
      </trkpt>
      <trkpt lat="45.60594" lon="-1.00601">
        <ele>67.7</ele>
        <time>2022-08-11T10:04:28.499+02:00</time>
      </trkpt>
      <trkpt lat="45.60584" lon="-1.00602">
        <ele>68.2</ele>
        <time>2022-08-11T10:04:31.5+02:00</time>
      </trkpt>
      <trkpt lat="45.60574" lon="-1.00601">
        <ele>68.5</ele>
        <time>2022-08-11T10:04:34.479+02:00</time>
      </trkpt>
      <trkpt lat="45.60563" lon="-1.00598">
        <ele>68.5</ele>
        <time>2022-08-11T10:04:37.504+02:00</time>
      </trkpt>
      <trkpt lat="45.6055" lon="-1.00593">
        <ele>67.8</ele>
        <time>2022-08-11T10:04:40.5+02:00</time>
      </trkpt>
      <trkpt lat="45.60542" lon="-1.00587">
        <ele>67.4</ele>
        <time>2022-08-11T10:04:42.493+02:00</time>
      </trkpt>
      <trkpt lat="45.60532" lon="-1.00578">
        <ele>67.3</ele>
        <time>2022-08-11T10:04:45.496+02:00</time>
      </trkpt>
      <trkpt lat="45.60523" lon="-1.00569">
        <ele>66.7</ele>
        <time>2022-08-11T10:04:48.495+02:00</time>
      </trkpt>
      <trkpt lat="45.60516" lon="-1.0056">
        <ele>65.8</ele>
        <time>2022-08-11T10:04:50.51+02:00</time>
      </trkpt>
      <trkpt lat="45.60508" lon="-1.00552">
        <ele>64.7</ele>
        <time>2022-08-11T10:04:52.498+02:00</time>
      </trkpt>
      <trkpt lat="45.60499" lon="-1.00542">
        <ele>64.2</ele>
        <time>2022-08-11T10:04:54.501+02:00</time>
      </trkpt>
      <trkpt lat="45.60489" lon="-1.00531">
        <ele>63.9</ele>
        <time>2022-08-11T10:04:56.503+02:00</time>
      </trkpt>
      <trkpt lat="45.60479" lon="-1.00519">
        <ele>63.8</ele>
        <time>2022-08-11T10:04:58.495+02:00</time>
      </trkpt>
      <trkpt lat="45.60467" lon="-1.00507">
        <ele>63.5</ele>
        <time>2022-08-11T10:05:00.506+02:00</time>
      </trkpt>
      <trkpt lat="45.60457" lon="-1.00495">
        <ele>62.3</ele>
        <time>2022-08-11T10:05:02.5+02:00</time>
      </trkpt>
      <trkpt lat="45.60445" lon="-1.00483">
        <ele>61.6</ele>
        <time>2022-08-11T10:05:04.49+02:00</time>
      </trkpt>
      <trkpt lat="45.60434" lon="-1.00471">
        <ele>60.9</ele>
        <time>2022-08-11T10:05:06.497+02:00</time>
      </trkpt>
      <trkpt lat="45.60423" lon="-1.00459">
        <ele>60.5</ele>
        <time>2022-08-11T10:05:08.498+02:00</time>
      </trkpt>
      <trkpt lat="45.60414" lon="-1.00448">
        <ele>59.6</ele>
        <time>2022-08-11T10:05:10.497+02:00</time>
      </trkpt>
      <trkpt lat="45.60406" lon="-1.00437">
        <ele>59.8</ele>
        <time>2022-08-11T10:05:12.495+02:00</time>
      </trkpt>
      <trkpt lat="45.60399" lon="-1.00428">
        <ele>59.6</ele>
        <time>2022-08-11T10:05:14.486+02:00</time>
      </trkpt>
      <trkpt lat="45.60391" lon="-1.00417">
        <ele>59.8</ele>
        <time>2022-08-11T10:05:18.501+02:00</time>
      </trkpt>
      <trkpt lat="45.60383" lon="-1.00405">
        <ele>59.7</ele>
        <time>2022-08-11T10:05:22.502+02:00</time>
      </trkpt>
      <trkpt lat="45.60374" lon="-1.00391">
        <ele>58.9</ele>
        <time>2022-08-11T10:05:25.494+02:00</time>
      </trkpt>
      <trkpt lat="45.60367" lon="-1.00382">
        <ele>58.8</ele>
        <time>2022-08-11T10:05:27.499+02:00</time>
      </trkpt>
      <trkpt lat="45.60359" lon="-1.00372">
        <ele>58.6</ele>
        <time>2022-08-11T10:05:29.495+02:00</time>
      </trkpt>
      <trkpt lat="45.60352" lon="-1.00361">
        <ele>58.3</ele>
        <time>2022-08-11T10:05:31.505+02:00</time>
      </trkpt>
      <trkpt lat="45.60344" lon="-1.0035">
        <ele>57.9</ele>
        <time>2022-08-11T10:05:33.496+02:00</time>
      </trkpt>
      <trkpt lat="45.60336" lon="-1.0034">
        <ele>57.9</ele>
        <time>2022-08-11T10:05:35.495+02:00</time>
      </trkpt>
      <trkpt lat="45.60327" lon="-1.0033">
        <ele>57.7</ele>
        <time>2022-08-11T10:05:37.502+02:00</time>
      </trkpt>
      <trkpt lat="45.60318" lon="-1.00321">
        <ele>58.6</ele>
        <time>2022-08-11T10:05:39.504+02:00</time>
      </trkpt>
      <trkpt lat="45.60309" lon="-1.00312">
        <ele>58.7</ele>
        <time>2022-08-11T10:05:41.5+02:00</time>
      </trkpt>
      <trkpt lat="45.60301" lon="-1.00305">
        <ele>58.8</ele>
        <time>2022-08-11T10:05:43.503+02:00</time>
      </trkpt>
      <trkpt lat="45.60291" lon="-1.00298">
        <ele>58.5</ele>
        <time>2022-08-11T10:05:45.497+02:00</time>
      </trkpt>
      <trkpt lat="45.60283" lon="-1.0029">
        <ele>58.1</ele>
        <time>2022-08-11T10:05:47.499+02:00</time>
      </trkpt>
      <trkpt lat="45.60273" lon="-1.00283">
        <ele>57.6</ele>
        <time>2022-08-11T10:05:49.493+02:00</time>
      </trkpt>
      <trkpt lat="45.60263" lon="-1.00276">
        <ele>57.4</ele>
        <time>2022-08-11T10:05:51.493+02:00</time>
      </trkpt>
      <trkpt lat="45.60255" lon="-1.0027">
        <ele>57.3</ele>
        <time>2022-08-11T10:05:53.495+02:00</time>
      </trkpt>
      <trkpt lat="45.60246" lon="-1.00264">
        <ele>57.6</ele>
        <time>2022-08-11T10:05:55.5+02:00</time>
      </trkpt>
      <trkpt lat="45.60238" lon="-1.00258">
        <ele>57.3</ele>
        <time>2022-08-11T10:05:57.5+02:00</time>
      </trkpt>
      <trkpt lat="45.60229" lon="-1.00253">
        <ele>57.2</ele>
        <time>2022-08-11T10:05:59.501+02:00</time>
      </trkpt>
      <trkpt lat="45.60219" lon="-1.00248">
        <ele>57.3</ele>
        <time>2022-08-11T10:06:02.489+02:00</time>
      </trkpt>
      <trkpt lat="45.60214" lon="-1.0025">
        <ele>57.5</ele>
        <time>2022-08-11T10:06:05.495+02:00</time>
      </trkpt>
      <trkpt lat="45.60214" lon="-1.0025">
        <ele>57.5</ele>
        <time>2022-08-11T10:06:06.506+02:00</time>
      </trkpt>
      <trkpt lat="45.60214" lon="-1.0025">
        <ele>57.8</ele>
        <time>2022-08-11T10:06:08.504+02:00</time>
      </trkpt>
      <trkpt lat="45.60213" lon="-1.0025">
        <ele>58</ele>
        <time>2022-08-11T10:06:09.501+02:00</time>
      </trkpt>
      <trkpt lat="45.60207" lon="-1.00237">
        <ele>57</ele>
        <time>2022-08-11T10:06:15.493+02:00</time>
      </trkpt>
      <trkpt lat="45.60204" lon="-1.0022">
        <ele>56.2</ele>
        <time>2022-08-11T10:06:18.495+02:00</time>
      </trkpt>
      <trkpt lat="45.60199" lon="-1.00206">
        <ele>55.9</ele>
        <time>2022-08-11T10:06:20.495+02:00</time>
      </trkpt>
      <trkpt lat="45.60196" lon="-1.00192">
        <ele>55.3</ele>
        <time>2022-08-11T10:06:22.495+02:00</time>
      </trkpt>
      <trkpt lat="45.60193" lon="-1.00176">
        <ele>54.9</ele>
        <time>2022-08-11T10:06:24.492+02:00</time>
      </trkpt>
      <trkpt lat="45.60189" lon="-1.00161">
        <ele>54.7</ele>
        <time>2022-08-11T10:06:26.499+02:00</time>
      </trkpt>
      <trkpt lat="45.60185" lon="-1.00146">
        <ele>54.2</ele>
        <time>2022-08-11T10:06:28.495+02:00</time>
      </trkpt>
      <trkpt lat="45.60182" lon="-1.00132">
        <ele>54.1</ele>
        <time>2022-08-11T10:06:30.504+02:00</time>
      </trkpt>
      <trkpt lat="45.60179" lon="-1.00119">
        <ele>53.9</ele>
        <time>2022-08-11T10:06:32.489+02:00</time>
      </trkpt>
      <trkpt lat="45.60176" lon="-1.00107">
        <ele>54.1</ele>
        <time>2022-08-11T10:06:34.489+02:00</time>
      </trkpt>
      <trkpt lat="45.60171" lon="-1.0009">
        <ele>53.8</ele>
        <time>2022-08-11T10:06:37.499+02:00</time>
      </trkpt>
      <trkpt lat="45.60165" lon="-1.00072">
        <ele>54.6</ele>
        <time>2022-08-11T10:06:40.504+02:00</time>
      </trkpt>
      <trkpt lat="45.60162" lon="-1.0006">
        <ele>54.2</ele>
        <time>2022-08-11T10:06:42.497+02:00</time>
      </trkpt>
      <trkpt lat="45.60157" lon="-1.00042">
        <ele>53.9</ele>
        <time>2022-08-11T10:06:45.495+02:00</time>
      </trkpt>
      <trkpt lat="45.60153" lon="-1.00026">
        <ele>53.8</ele>
        <time>2022-08-11T10:06:48.497+02:00</time>
      </trkpt>
      <trkpt lat="45.60148" lon="-1.0001">
        <ele>53.6</ele>
        <time>2022-08-11T10:06:51.499+02:00</time>
      </trkpt>
      <trkpt lat="45.60144" lon="-0.99993">
        <ele>53.8</ele>
        <time>2022-08-11T10:06:54.485+02:00</time>
      </trkpt>
      <trkpt lat="45.60139" lon="-0.99977">
        <ele>53.7</ele>
        <time>2022-08-11T10:06:57.491+02:00</time>
      </trkpt>
      <trkpt lat="45.60135" lon="-0.9996">
        <ele>54.2</ele>
        <time>2022-08-11T10:07:00.495+02:00</time>
      </trkpt>
      <trkpt lat="45.6013" lon="-0.99943">
        <ele>54.2</ele>
        <time>2022-08-11T10:07:03.497+02:00</time>
      </trkpt>
      <trkpt lat="45.60126" lon="-0.99925">
        <ele>53.3</ele>
        <time>2022-08-11T10:07:06.496+02:00</time>
      </trkpt>
      <trkpt lat="45.60122" lon="-0.99907">
        <ele>53.4</ele>
        <time>2022-08-11T10:07:09.496+02:00</time>
      </trkpt>
      <trkpt lat="45.60118" lon="-0.9989">
        <ele>53.8</ele>
        <time>2022-08-11T10:07:12.497+02:00</time>
      </trkpt>
      <trkpt lat="45.60114" lon="-0.99873">
        <ele>53.8</ele>
        <time>2022-08-11T10:07:15.499+02:00</time>
      </trkpt>
      <trkpt lat="45.6011" lon="-0.99857">
        <ele>54</ele>
        <time>2022-08-11T10:07:18.497+02:00</time>
      </trkpt>
      <trkpt lat="45.60107" lon="-0.99841">
        <ele>54.5</ele>
        <time>2022-08-11T10:07:21.504+02:00</time>
      </trkpt>
      <trkpt lat="45.60104" lon="-0.99825">
        <ele>54.5</ele>
        <time>2022-08-11T10:07:25.475+02:00</time>
      </trkpt>
      <trkpt lat="45.60098" lon="-0.99811">
        <ele>54.6</ele>
        <time>2022-08-11T10:07:29.494+02:00</time>
      </trkpt>
      <trkpt lat="45.60093" lon="-0.998">
        <ele>54.9</ele>
        <time>2022-08-11T10:07:34.499+02:00</time>
      </trkpt>
      <trkpt lat="45.6009" lon="-0.99787">
        <ele>54.9</ele>
        <time>2022-08-11T10:07:37.498+02:00</time>
      </trkpt>
      <trkpt lat="45.60085" lon="-0.99773">
        <ele>54.8</ele>
        <time>2022-08-11T10:07:40.486+02:00</time>
      </trkpt>
      <trkpt lat="45.6008" lon="-0.99758">
        <ele>54.9</ele>
        <time>2022-08-11T10:07:43.494+02:00</time>
      </trkpt>
      <trkpt lat="45.60074" lon="-0.99743">
        <ele>54.8</ele>
        <time>2022-08-11T10:07:46.497+02:00</time>
      </trkpt>
      <trkpt lat="45.60068" lon="-0.99729">
        <ele>54.8</ele>
        <time>2022-08-11T10:07:49.497+02:00</time>
      </trkpt>
      <trkpt lat="45.60062" lon="-0.99714">
        <ele>54.8</ele>
        <time>2022-08-11T10:07:52.502+02:00</time>
      </trkpt>
      <trkpt lat="45.60057" lon="-0.99698">
        <ele>54.7</ele>
        <time>2022-08-11T10:07:55.485+02:00</time>
      </trkpt>
      <trkpt lat="45.60051" lon="-0.99682">
        <ele>54.9</ele>
        <time>2022-08-11T10:07:58.497+02:00</time>
      </trkpt>
      <trkpt lat="45.60045" lon="-0.99666">
        <ele>54.9</ele>
        <time>2022-08-11T10:08:01.502+02:00</time>
      </trkpt>
      <trkpt lat="45.60038" lon="-0.9965">
        <ele>54.8</ele>
        <time>2022-08-11T10:08:04.497+02:00</time>
      </trkpt>
      <trkpt lat="45.60034" lon="-0.99638">
        <ele>54.5</ele>
        <time>2022-08-11T10:08:06.499+02:00</time>
      </trkpt>
      <trkpt lat="45.60029" lon="-0.99627">
        <ele>54.4</ele>
        <time>2022-08-11T10:08:08.492+02:00</time>
      </trkpt>
      <trkpt lat="45.60022" lon="-0.99611">
        <ele>53.7</ele>
        <time>2022-08-11T10:08:11.499+02:00</time>
      </trkpt>
      <trkpt lat="45.60018" lon="-0.996">
        <ele>53.8</ele>
        <time>2022-08-11T10:08:13.5+02:00</time>
      </trkpt>
      <trkpt lat="45.60011" lon="-0.99583">
        <ele>53.7</ele>
        <time>2022-08-11T10:08:16.501+02:00</time>
      </trkpt>
      <trkpt lat="45.60004" lon="-0.99568">
        <ele>54</ele>
        <time>2022-08-11T10:08:19.501+02:00</time>
      </trkpt>
      <trkpt lat="45.59997" lon="-0.99552">
        <ele>54.5</ele>
        <time>2022-08-11T10:08:22.493+02:00</time>
      </trkpt>
      <trkpt lat="45.59989" lon="-0.99537">
        <ele>54.9</ele>
        <time>2022-08-11T10:08:25.487+02:00</time>
      </trkpt>
      <trkpt lat="45.59983" lon="-0.99524">
        <ele>55.2</ele>
        <time>2022-08-11T10:08:28.488+02:00</time>
      </trkpt>
      <trkpt lat="45.59976" lon="-0.99511">
        <ele>55.1</ele>
        <time>2022-08-11T10:08:31.496+02:00</time>
      </trkpt>
      <trkpt lat="45.59969" lon="-0.99496">
        <ele>55.7</ele>
        <time>2022-08-11T10:08:34.496+02:00</time>
      </trkpt>
      <trkpt lat="45.59961" lon="-0.99484">
        <ele>56.1</ele>
        <time>2022-08-11T10:08:37.496+02:00</time>
      </trkpt>
      <trkpt lat="45.59951" lon="-0.99474">
        <ele>55.9</ele>
        <time>2022-08-11T10:08:40.501+02:00</time>
      </trkpt>
      <trkpt lat="45.59942" lon="-0.99466">
        <ele>56.2</ele>
        <time>2022-08-11T10:08:43.494+02:00</time>
      </trkpt>
      <trkpt lat="45.59932" lon="-0.99458">
        <ele>56.9</ele>
        <time>2022-08-11T10:08:46.496+02:00</time>
      </trkpt>
      <trkpt lat="45.59924" lon="-0.9945">
        <ele>56.8</ele>
        <time>2022-08-11T10:08:49.501+02:00</time>
      </trkpt>
      <trkpt lat="45.59917" lon="-0.99441">
        <ele>57.3</ele>
        <time>2022-08-11T10:08:52.5+02:00</time>
      </trkpt>
      <trkpt lat="45.59911" lon="-0.99431">
        <ele>57.1</ele>
        <time>2022-08-11T10:08:55.487+02:00</time>
      </trkpt>
      <trkpt lat="45.59903" lon="-0.9942">
        <ele>57</ele>
        <time>2022-08-11T10:08:59.495+02:00</time>
      </trkpt>
      <trkpt lat="45.59897" lon="-0.99405">
        <ele>56.9</ele>
        <time>2022-08-11T10:09:03.502+02:00</time>
      </trkpt>
      <trkpt lat="45.59893" lon="-0.99389">
        <ele>56.9</ele>
        <time>2022-08-11T10:09:06.497+02:00</time>
      </trkpt>
      <trkpt lat="45.59887" lon="-0.99376">
        <ele>57.8</ele>
        <time>2022-08-11T10:09:09.494+02:00</time>
      </trkpt>
      <trkpt lat="45.59879" lon="-0.99368">
        <ele>58.2</ele>
        <time>2022-08-11T10:09:12.497+02:00</time>
      </trkpt>
      <trkpt lat="45.59869" lon="-0.99367">
        <ele>57.7</ele>
        <time>2022-08-11T10:09:16.49+02:00</time>
      </trkpt>
      <trkpt lat="45.59859" lon="-0.99354">
        <ele>57.4</ele>
        <time>2022-08-11T10:09:19.498+02:00</time>
      </trkpt>
      <trkpt lat="45.59852" lon="-0.99346">
        <ele>56.9</ele>
        <time>2022-08-11T10:09:21.495+02:00</time>
      </trkpt>
      <trkpt lat="45.59844" lon="-0.99338">
        <ele>56.8</ele>
        <time>2022-08-11T10:09:23.504+02:00</time>
      </trkpt>
      <trkpt lat="45.59834" lon="-0.9933">
        <ele>56.8</ele>
        <time>2022-08-11T10:09:25.488+02:00</time>
      </trkpt>
      <trkpt lat="45.59825" lon="-0.99324">
        <ele>57</ele>
        <time>2022-08-11T10:09:27.497+02:00</time>
      </trkpt>
      <trkpt lat="45.59816" lon="-0.99317">
        <ele>56.8</ele>
        <time>2022-08-11T10:09:29.497+02:00</time>
      </trkpt>
      <trkpt lat="45.59807" lon="-0.99311">
        <ele>56.4</ele>
        <time>2022-08-11T10:09:31.497+02:00</time>
      </trkpt>
      <trkpt lat="45.59798" lon="-0.99306">
        <ele>56.3</ele>
        <time>2022-08-11T10:09:33.492+02:00</time>
      </trkpt>
      <trkpt lat="45.59789" lon="-0.99301">
        <ele>55.4</ele>
        <time>2022-08-11T10:09:35.487+02:00</time>
      </trkpt>
      <trkpt lat="45.59779" lon="-0.99296">
        <ele>56.1</ele>
        <time>2022-08-11T10:09:37.494+02:00</time>
      </trkpt>
      <trkpt lat="45.5977" lon="-0.99292">
        <ele>56.3</ele>
        <time>2022-08-11T10:09:39.49+02:00</time>
      </trkpt>
      <trkpt lat="45.5976" lon="-0.99288">
        <ele>56.5</ele>
        <time>2022-08-11T10:09:41.5+02:00</time>
      </trkpt>
      <trkpt lat="45.59751" lon="-0.99284">
        <ele>56.9</ele>
        <time>2022-08-11T10:09:43.493+02:00</time>
      </trkpt>
      <trkpt lat="45.59739" lon="-0.99278">
        <ele>56.3</ele>
        <time>2022-08-11T10:09:46.496+02:00</time>
      </trkpt>
      <trkpt lat="45.59727" lon="-0.99273">
        <ele>55.6</ele>
        <time>2022-08-11T10:09:49.495+02:00</time>
      </trkpt>
      <trkpt lat="45.59716" lon="-0.99268">
        <ele>55.9</ele>
        <time>2022-08-11T10:09:52.503+02:00</time>
      </trkpt>
      <trkpt lat="45.59704" lon="-0.99264">
        <ele>55.8</ele>
        <time>2022-08-11T10:09:55.486+02:00</time>
      </trkpt>
      <trkpt lat="45.59692" lon="-0.99258">
        <ele>55.5</ele>
        <time>2022-08-11T10:09:58.491+02:00</time>
      </trkpt>
      <trkpt lat="45.59683" lon="-0.99253">
        <ele>55.9</ele>
        <time>2022-08-11T10:10:00.502+02:00</time>
      </trkpt>
      <trkpt lat="45.59673" lon="-0.99248">
        <ele>55.7</ele>
        <time>2022-08-11T10:10:02.493+02:00</time>
      </trkpt>
      <trkpt lat="45.59663" lon="-0.99244">
        <ele>55.2</ele>
        <time>2022-08-11T10:10:04.493+02:00</time>
      </trkpt>
      <trkpt lat="45.59652" lon="-0.9924">
        <ele>55.4</ele>
        <time>2022-08-11T10:10:06.505+02:00</time>
      </trkpt>
      <trkpt lat="45.59641" lon="-0.99235">
        <ele>55.3</ele>
        <time>2022-08-11T10:10:08.496+02:00</time>
      </trkpt>
      <trkpt lat="45.5963" lon="-0.9923">
        <ele>55.4</ele>
        <time>2022-08-11T10:10:10.499+02:00</time>
      </trkpt>
      <trkpt lat="45.59619" lon="-0.99226">
        <ele>55.4</ele>
        <time>2022-08-11T10:10:12.496+02:00</time>
      </trkpt>
      <trkpt lat="45.59609" lon="-0.99221">
        <ele>55.2</ele>
        <time>2022-08-11T10:10:14.508+02:00</time>
      </trkpt>
      <trkpt lat="45.59599" lon="-0.99217">
        <ele>54.6</ele>
        <time>2022-08-11T10:10:16.496+02:00</time>
      </trkpt>
      <trkpt lat="45.59589" lon="-0.99212">
        <ele>54.8</ele>
        <time>2022-08-11T10:10:18.495+02:00</time>
      </trkpt>
      <trkpt lat="45.59579" lon="-0.99207">
        <ele>54.5</ele>
        <time>2022-08-11T10:10:20.486+02:00</time>
      </trkpt>
      <trkpt lat="45.59569" lon="-0.99203">
        <ele>54.6</ele>
        <time>2022-08-11T10:10:22.498+02:00</time>
      </trkpt>
      <trkpt lat="45.59559" lon="-0.99198">
        <ele>54.7</ele>
        <time>2022-08-11T10:10:24.493+02:00</time>
      </trkpt>
      <trkpt lat="45.59549" lon="-0.99194">
        <ele>54.7</ele>
        <time>2022-08-11T10:10:26.503+02:00</time>
      </trkpt>
      <trkpt lat="45.59539" lon="-0.99189">
        <ele>55.1</ele>
        <time>2022-08-11T10:10:28.501+02:00</time>
      </trkpt>
      <trkpt lat="45.59529" lon="-0.99185">
        <ele>55.3</ele>
        <time>2022-08-11T10:10:30.5+02:00</time>
      </trkpt>
      <trkpt lat="45.5952" lon="-0.9918">
        <ele>54.9</ele>
        <time>2022-08-11T10:10:32.49+02:00</time>
      </trkpt>
      <trkpt lat="45.5951" lon="-0.99175">
        <ele>54.7</ele>
        <time>2022-08-11T10:10:34.5+02:00</time>
      </trkpt>
      <trkpt lat="45.59499" lon="-0.99171">
        <ele>54.1</ele>
        <time>2022-08-11T10:10:36.496+02:00</time>
      </trkpt>
      <trkpt lat="45.59488" lon="-0.99167">
        <ele>54.3</ele>
        <time>2022-08-11T10:10:38.499+02:00</time>
      </trkpt>
      <trkpt lat="45.59477" lon="-0.99163">
        <ele>54.7</ele>
        <time>2022-08-11T10:10:40.486+02:00</time>
      </trkpt>
      <trkpt lat="45.59467" lon="-0.99159">
        <ele>54</ele>
        <time>2022-08-11T10:10:42.495+02:00</time>
      </trkpt>
      <trkpt lat="45.59457" lon="-0.99154">
        <ele>53.9</ele>
        <time>2022-08-11T10:10:44.501+02:00</time>
      </trkpt>
      <trkpt lat="45.59446" lon="-0.99149">
        <ele>53.9</ele>
        <time>2022-08-11T10:10:46.498+02:00</time>
      </trkpt>
      <trkpt lat="45.59435" lon="-0.99144">
        <ele>53.9</ele>
        <time>2022-08-11T10:10:48.499+02:00</time>
      </trkpt>
      <trkpt lat="45.59424" lon="-0.99139">
        <ele>54.3</ele>
        <time>2022-08-11T10:10:50.498+02:00</time>
      </trkpt>
      <trkpt lat="45.59414" lon="-0.99135">
        <ele>54.3</ele>
        <time>2022-08-11T10:10:52.491+02:00</time>
      </trkpt>
      <trkpt lat="45.59403" lon="-0.9913">
        <ele>54.6</ele>
        <time>2022-08-11T10:10:54.492+02:00</time>
      </trkpt>
      <trkpt lat="45.59393" lon="-0.99125">
        <ele>54.6</ele>
        <time>2022-08-11T10:10:56.5+02:00</time>
      </trkpt>
      <trkpt lat="45.59382" lon="-0.99121">
        <ele>55</ele>
        <time>2022-08-11T10:10:58.495+02:00</time>
      </trkpt>
      <trkpt lat="45.59371" lon="-0.99116">
        <ele>55</ele>
        <time>2022-08-11T10:11:00.499+02:00</time>
      </trkpt>
      <trkpt lat="45.59361" lon="-0.99111">
        <ele>54.8</ele>
        <time>2022-08-11T10:11:02.5+02:00</time>
      </trkpt>
      <trkpt lat="45.5935" lon="-0.99107">
        <ele>54.8</ele>
        <time>2022-08-11T10:11:04.505+02:00</time>
      </trkpt>
      <trkpt lat="45.59341" lon="-0.99102">
        <ele>54.9</ele>
        <time>2022-08-11T10:11:06.498+02:00</time>
      </trkpt>
      <trkpt lat="45.59331" lon="-0.99097">
        <ele>55</ele>
        <time>2022-08-11T10:11:08.499+02:00</time>
      </trkpt>
      <trkpt lat="45.59322" lon="-0.99093">
        <ele>54.8</ele>
        <time>2022-08-11T10:11:10.488+02:00</time>
      </trkpt>
      <trkpt lat="45.5931" lon="-0.99088">
        <ele>54.9</ele>
        <time>2022-08-11T10:11:13.496+02:00</time>
      </trkpt>
      <trkpt lat="45.59297" lon="-0.99081">
        <ele>55.2</ele>
        <time>2022-08-11T10:11:16.497+02:00</time>
      </trkpt>
      <trkpt lat="45.59288" lon="-0.99077">
        <ele>55.1</ele>
        <time>2022-08-11T10:11:18.494+02:00</time>
      </trkpt>
      <trkpt lat="45.59279" lon="-0.99074">
        <ele>54.7</ele>
        <time>2022-08-11T10:11:20.492+02:00</time>
      </trkpt>
      <trkpt lat="45.5927" lon="-0.9907">
        <ele>54.9</ele>
        <time>2022-08-11T10:11:22.497+02:00</time>
      </trkpt>
      <trkpt lat="45.5926" lon="-0.99066">
        <ele>55</ele>
        <time>2022-08-11T10:11:24.494+02:00</time>
      </trkpt>
      <trkpt lat="45.59251" lon="-0.99063">
        <ele>54.8</ele>
        <time>2022-08-11T10:11:26.506+02:00</time>
      </trkpt>
      <trkpt lat="45.59243" lon="-0.99059">
        <ele>54.9</ele>
        <time>2022-08-11T10:11:28.494+02:00</time>
      </trkpt>
      <trkpt lat="45.59234" lon="-0.99055">
        <ele>55.1</ele>
        <time>2022-08-11T10:11:30.492+02:00</time>
      </trkpt>
      <trkpt lat="45.59224" lon="-0.99051">
        <ele>55.2</ele>
        <time>2022-08-11T10:11:32.498+02:00</time>
      </trkpt>
      <trkpt lat="45.59215" lon="-0.99047">
        <ele>55.8</ele>
        <time>2022-08-11T10:11:34.488+02:00</time>
      </trkpt>
      <trkpt lat="45.59206" lon="-0.99044">
        <ele>55.8</ele>
        <time>2022-08-11T10:11:36.483+02:00</time>
      </trkpt>
      <trkpt lat="45.59198" lon="-0.9904">
        <ele>55.9</ele>
        <time>2022-08-11T10:11:38.496+02:00</time>
      </trkpt>
      <trkpt lat="45.59185" lon="-0.99035">
        <ele>55.8</ele>
        <time>2022-08-11T10:11:41.501+02:00</time>
      </trkpt>
      <trkpt lat="45.59171" lon="-0.99029">
        <ele>55.8</ele>
        <time>2022-08-11T10:11:44.495+02:00</time>
      </trkpt>
      <trkpt lat="45.59162" lon="-0.99024">
        <ele>56.5</ele>
        <time>2022-08-11T10:11:46.496+02:00</time>
      </trkpt>
      <trkpt lat="45.59153" lon="-0.99021">
        <ele>56.5</ele>
        <time>2022-08-11T10:11:48.5+02:00</time>
      </trkpt>
      <trkpt lat="45.5914" lon="-0.99015">
        <ele>56.9</ele>
        <time>2022-08-11T10:11:51.494+02:00</time>
      </trkpt>
      <trkpt lat="45.59127" lon="-0.9901">
        <ele>57.4</ele>
        <time>2022-08-11T10:11:54.497+02:00</time>
      </trkpt>
      <trkpt lat="45.59114" lon="-0.99005">
        <ele>57.7</ele>
        <time>2022-08-11T10:11:57.493+02:00</time>
      </trkpt>
      <trkpt lat="45.59102" lon="-0.99">
        <ele>58</ele>
        <time>2022-08-11T10:12:00.483+02:00</time>
      </trkpt>
      <trkpt lat="45.5909" lon="-0.98995">
        <ele>57.9</ele>
        <time>2022-08-11T10:12:03.497+02:00</time>
      </trkpt>
      <trkpt lat="45.59077" lon="-0.9899">
        <ele>57.7</ele>
        <time>2022-08-11T10:12:06.501+02:00</time>
      </trkpt>
      <trkpt lat="45.59065" lon="-0.98985">
        <ele>58.2</ele>
        <time>2022-08-11T10:12:09.495+02:00</time>
      </trkpt>
      <trkpt lat="45.59053" lon="-0.9898">
        <ele>58.2</ele>
        <time>2022-08-11T10:12:12.498+02:00</time>
      </trkpt>
      <trkpt lat="45.59041" lon="-0.98976">
        <ele>58.9</ele>
        <time>2022-08-11T10:12:15.487+02:00</time>
      </trkpt>
      <trkpt lat="45.59029" lon="-0.9897">
        <ele>59.3</ele>
        <time>2022-08-11T10:12:18.492+02:00</time>
      </trkpt>
      <trkpt lat="45.59016" lon="-0.98964">
        <ele>59.5</ele>
        <time>2022-08-11T10:12:21.496+02:00</time>
      </trkpt>
      <trkpt lat="45.59007" lon="-0.9896">
        <ele>59.3</ele>
        <time>2022-08-11T10:12:23.493+02:00</time>
      </trkpt>
      <trkpt lat="45.58997" lon="-0.98956">
        <ele>59.4</ele>
        <time>2022-08-11T10:12:25.483+02:00</time>
      </trkpt>
      <trkpt lat="45.58987" lon="-0.98952">
        <ele>59.7</ele>
        <time>2022-08-11T10:12:27.493+02:00</time>
      </trkpt>
      <trkpt lat="45.58977" lon="-0.98949">
        <ele>59.7</ele>
        <time>2022-08-11T10:12:29.49+02:00</time>
      </trkpt>
      <trkpt lat="45.58966" lon="-0.98945">
        <ele>60</ele>
        <time>2022-08-11T10:12:31.5+02:00</time>
      </trkpt>
      <trkpt lat="45.58957" lon="-0.98941">
        <ele>59.7</ele>
        <time>2022-08-11T10:12:33.499+02:00</time>
      </trkpt>
      <trkpt lat="45.58948" lon="-0.98935">
        <ele>60</ele>
        <time>2022-08-11T10:12:35.492+02:00</time>
      </trkpt>
      <trkpt lat="45.58939" lon="-0.98924">
        <ele>60.9</ele>
        <time>2022-08-11T10:12:38.495+02:00</time>
      </trkpt>
      <trkpt lat="45.58934" lon="-0.98913">
        <ele>60.9</ele>
        <time>2022-08-11T10:12:41.496+02:00</time>
      </trkpt>
      <trkpt lat="45.58929" lon="-0.989">
        <ele>61</ele>
        <time>2022-08-11T10:12:46.495+02:00</time>
      </trkpt>
      <trkpt lat="45.58926" lon="-0.98885">
        <ele>61.2</ele>
        <time>2022-08-11T10:12:49.504+02:00</time>
      </trkpt>
      <trkpt lat="45.58926" lon="-0.98869">
        <ele>61.1</ele>
        <time>2022-08-11T10:12:52.502+02:00</time>
      </trkpt>
      <trkpt lat="45.58927" lon="-0.98854">
        <ele>61.1</ele>
        <time>2022-08-11T10:12:55.481+02:00</time>
      </trkpt>
      <trkpt lat="45.58929" lon="-0.98838">
        <ele>61.6</ele>
        <time>2022-08-11T10:12:58.5+02:00</time>
      </trkpt>
      <trkpt lat="45.58931" lon="-0.98823">
        <ele>61.4</ele>
        <time>2022-08-11T10:13:01.492+02:00</time>
      </trkpt>
      <trkpt lat="45.58934" lon="-0.98808">
        <ele>61.3</ele>
        <time>2022-08-11T10:13:04.5+02:00</time>
      </trkpt>
      <trkpt lat="45.58936" lon="-0.98792">
        <ele>61.8</ele>
        <time>2022-08-11T10:13:07.504+02:00</time>
      </trkpt>
      <trkpt lat="45.58937" lon="-0.98777">
        <ele>62.1</ele>
        <time>2022-08-11T10:13:10.503+02:00</time>
      </trkpt>
      <trkpt lat="45.58938" lon="-0.98763">
        <ele>62.1</ele>
        <time>2022-08-11T10:13:13.502+02:00</time>
      </trkpt>
      <trkpt lat="45.58937" lon="-0.98749">
        <ele>62.4</ele>
        <time>2022-08-11T10:13:17.5+02:00</time>
      </trkpt>
      <trkpt lat="45.58933" lon="-0.98734">
        <ele>62</ele>
        <time>2022-08-11T10:13:22.498+02:00</time>
      </trkpt>
      <trkpt lat="45.58934" lon="-0.98719">
        <ele>61.9</ele>
        <time>2022-08-11T10:13:26.482+02:00</time>
      </trkpt>
      <trkpt lat="45.58929" lon="-0.98704">
        <ele>60.6</ele>
        <time>2022-08-11T10:13:29.486+02:00</time>
      </trkpt>
      <trkpt lat="45.58922" lon="-0.98688">
        <ele>59.8</ele>
        <time>2022-08-11T10:13:32.483+02:00</time>
      </trkpt>
      <trkpt lat="45.58914" lon="-0.98678">
        <ele>60.2</ele>
        <time>2022-08-11T10:13:35.476+02:00</time>
      </trkpt>
      <trkpt lat="45.58906" lon="-0.98667">
        <ele>58.9</ele>
        <time>2022-08-11T10:13:38.496+02:00</time>
      </trkpt>
      <trkpt lat="45.58899" lon="-0.98654">
        <ele>59.6</ele>
        <time>2022-08-11T10:13:41.501+02:00</time>
      </trkpt>
      <trkpt lat="45.58892" lon="-0.98644">
        <ele>60.1</ele>
        <time>2022-08-11T10:13:44.48+02:00</time>
      </trkpt>
      <trkpt lat="45.58885" lon="-0.98632">
        <ele>60.1</ele>
        <time>2022-08-11T10:13:47.478+02:00</time>
      </trkpt>
      <trkpt lat="45.58879" lon="-0.98621">
        <ele>61</ele>
        <time>2022-08-11T10:13:50.498+02:00</time>
      </trkpt>
      <trkpt lat="45.58873" lon="-0.98609">
        <ele>61.8</ele>
        <time>2022-08-11T10:13:53.489+02:00</time>
      </trkpt>
      <trkpt lat="45.58864" lon="-0.98596">
        <ele>61.6</ele>
        <time>2022-08-11T10:13:56.499+02:00</time>
      </trkpt>
      <trkpt lat="45.58856" lon="-0.98587">
        <ele>60.8</ele>
        <time>2022-08-11T10:13:59.497+02:00</time>
      </trkpt>
      <trkpt lat="45.58848" lon="-0.98577">
        <ele>60.5</ele>
        <time>2022-08-11T10:14:03.498+02:00</time>
      </trkpt>
      <trkpt lat="45.58839" lon="-0.98571">
        <ele>60.7</ele>
        <time>2022-08-11T10:14:06.494+02:00</time>
      </trkpt>
      <trkpt lat="45.5883" lon="-0.98565">
        <ele>61.3</ele>
        <time>2022-08-11T10:14:09.494+02:00</time>
      </trkpt>
      <trkpt lat="45.5882" lon="-0.98559">
        <ele>61.9</ele>
        <time>2022-08-11T10:14:13.501+02:00</time>
      </trkpt>
      <trkpt lat="45.58811" lon="-0.98553">
        <ele>62.8</ele>
        <time>2022-08-11T10:14:17.503+02:00</time>
      </trkpt>
      <trkpt lat="45.58801" lon="-0.98547">
        <ele>60.8</ele>
        <time>2022-08-11T10:14:21.507+02:00</time>
      </trkpt>
      <trkpt lat="45.58792" lon="-0.98541">
        <ele>61</ele>
        <time>2022-08-11T10:14:24.505+02:00</time>
      </trkpt>
      <trkpt lat="45.58783" lon="-0.98535">
        <ele>61.2</ele>
        <time>2022-08-11T10:14:27.501+02:00</time>
      </trkpt>
      <trkpt lat="45.58775" lon="-0.9853">
        <ele>60.5</ele>
        <time>2022-08-11T10:14:30.469+02:00</time>
      </trkpt>
      <trkpt lat="45.58765" lon="-0.98524">
        <ele>60.7</ele>
        <time>2022-08-11T10:14:33.49+02:00</time>
      </trkpt>
      <trkpt lat="45.58754" lon="-0.98518">
        <ele>61</ele>
        <time>2022-08-11T10:14:36.49+02:00</time>
      </trkpt>
      <trkpt lat="45.58741" lon="-0.98514">
        <ele>60.9</ele>
        <time>2022-08-11T10:14:39.496+02:00</time>
      </trkpt>
      <trkpt lat="45.5873" lon="-0.98511">
        <ele>59.1</ele>
        <time>2022-08-11T10:14:42.494+02:00</time>
      </trkpt>
      <trkpt lat="45.58719" lon="-0.9851">
        <ele>60.1</ele>
        <time>2022-08-11T10:14:45.487+02:00</time>
      </trkpt>
      <trkpt lat="45.58709" lon="-0.9851">
        <ele>59.7</ele>
        <time>2022-08-11T10:14:48.492+02:00</time>
      </trkpt>
      <trkpt lat="45.58697" lon="-0.9851">
        <ele>60.3</ele>
        <time>2022-08-11T10:14:51.491+02:00</time>
      </trkpt>
      <trkpt lat="45.58685" lon="-0.98514">
        <ele>59.9</ele>
        <time>2022-08-11T10:14:54.496+02:00</time>
      </trkpt>
      <trkpt lat="45.58673" lon="-0.98517">
        <ele>59.8</ele>
        <time>2022-08-11T10:14:57.501+02:00</time>
      </trkpt>
      <trkpt lat="45.58663" lon="-0.98521">
        <ele>59.7</ele>
        <time>2022-08-11T10:15:00.5+02:00</time>
      </trkpt>
      <trkpt lat="45.58654" lon="-0.98525">
        <ele>59.6</ele>
        <time>2022-08-11T10:15:07.499+02:00</time>
      </trkpt>
      <trkpt lat="45.58644" lon="-0.98528">
        <ele>58.2</ele>
        <time>2022-08-11T10:15:14.496+02:00</time>
      </trkpt>
      <trkpt lat="45.58635" lon="-0.98532">
        <ele>57.9</ele>
        <time>2022-08-11T10:15:17.497+02:00</time>
      </trkpt>
      <trkpt lat="45.58624" lon="-0.98538">
        <ele>57.7</ele>
        <time>2022-08-11T10:15:20.498+02:00</time>
      </trkpt>
      <trkpt lat="45.58612" lon="-0.98545">
        <ele>57.6</ele>
        <time>2022-08-11T10:15:23.502+02:00</time>
      </trkpt>
      <trkpt lat="45.58601" lon="-0.98552">
        <ele>58.1</ele>
        <time>2022-08-11T10:15:26.507+02:00</time>
      </trkpt>
      <trkpt lat="45.58589" lon="-0.9856">
        <ele>58.7</ele>
        <time>2022-08-11T10:15:29.517+02:00</time>
      </trkpt>
      <trkpt lat="45.58576" lon="-0.98565">
        <ele>58.4</ele>
        <time>2022-08-11T10:15:32.499+02:00</time>
      </trkpt>
      <trkpt lat="45.58567" lon="-0.98567">
        <ele>58.8</ele>
        <time>2022-08-11T10:15:34.504+02:00</time>
      </trkpt>
      <trkpt lat="45.58557" lon="-0.98569">
        <ele>59.5</ele>
        <time>2022-08-11T10:15:36.497+02:00</time>
      </trkpt>
      <trkpt lat="45.58548" lon="-0.98571">
        <ele>59.4</ele>
        <time>2022-08-11T10:15:38.491+02:00</time>
      </trkpt>
      <trkpt lat="45.58539" lon="-0.9857">
        <ele>60.3</ele>
        <time>2022-08-11T10:15:40.501+02:00</time>
      </trkpt>
      <trkpt lat="45.58525" lon="-0.98569">
        <ele>60.4</ele>
        <time>2022-08-11T10:15:43.495+02:00</time>
      </trkpt>
      <trkpt lat="45.58514" lon="-0.98568">
        <ele>60.4</ele>
        <time>2022-08-11T10:15:46.506+02:00</time>
      </trkpt>
      <trkpt lat="45.58504" lon="-0.98566">
        <ele>59.7</ele>
        <time>2022-08-11T10:15:50.498+02:00</time>
      </trkpt>
      <trkpt lat="45.58492" lon="-0.98565">
        <ele>60.1</ele>
        <time>2022-08-11T10:15:53.499+02:00</time>
      </trkpt>
      <trkpt lat="45.58483" lon="-0.98563">
        <ele>60.2</ele>
        <time>2022-08-11T10:15:55.492+02:00</time>
      </trkpt>
      <trkpt lat="45.58474" lon="-0.98562">
        <ele>59.9</ele>
        <time>2022-08-11T10:15:57.482+02:00</time>
      </trkpt>
      <trkpt lat="45.58464" lon="-0.9856">
        <ele>59.5</ele>
        <time>2022-08-11T10:15:59.48+02:00</time>
      </trkpt>
      <trkpt lat="45.58454" lon="-0.98559">
        <ele>58.9</ele>
        <time>2022-08-11T10:16:01.484+02:00</time>
      </trkpt>
      <trkpt lat="45.58445" lon="-0.98557">
        <ele>58.5</ele>
        <time>2022-08-11T10:16:03.504+02:00</time>
      </trkpt>
      <trkpt lat="45.58435" lon="-0.98556">
        <ele>57.4</ele>
        <time>2022-08-11T10:16:05.489+02:00</time>
      </trkpt>
      <trkpt lat="45.58426" lon="-0.98555">
        <ele>56.7</ele>
        <time>2022-08-11T10:16:07.483+02:00</time>
      </trkpt>
      <trkpt lat="45.58412" lon="-0.98554">
        <ele>55.6</ele>
        <time>2022-08-11T10:16:10.504+02:00</time>
      </trkpt>
      <trkpt lat="45.58402" lon="-0.98553">
        <ele>55.5</ele>
        <time>2022-08-11T10:16:12.489+02:00</time>
      </trkpt>
      <trkpt lat="45.58391" lon="-0.98551">
        <ele>55.9</ele>
        <time>2022-08-11T10:16:14.498+02:00</time>
      </trkpt>
      <trkpt lat="45.5838" lon="-0.98549">
        <ele>56.1</ele>
        <time>2022-08-11T10:16:16.504+02:00</time>
      </trkpt>
      <trkpt lat="45.58369" lon="-0.98547">
        <ele>56.4</ele>
        <time>2022-08-11T10:16:18.496+02:00</time>
      </trkpt>
      <trkpt lat="45.58359" lon="-0.98545">
        <ele>56.3</ele>
        <time>2022-08-11T10:16:20.475+02:00</time>
      </trkpt>
      <trkpt lat="45.58349" lon="-0.98544">
        <ele>56.2</ele>
        <time>2022-08-11T10:16:22.478+02:00</time>
      </trkpt>
      <trkpt lat="45.58339" lon="-0.98541">
        <ele>56.5</ele>
        <time>2022-08-11T10:16:24.474+02:00</time>
      </trkpt>
      <trkpt lat="45.58329" lon="-0.9854">
        <ele>57</ele>
        <time>2022-08-11T10:16:26.482+02:00</time>
      </trkpt>
      <trkpt lat="45.58319" lon="-0.98538">
        <ele>57.1</ele>
        <time>2022-08-11T10:16:28.5+02:00</time>
      </trkpt>
      <trkpt lat="45.58309" lon="-0.98536">
        <ele>58.5</ele>
        <time>2022-08-11T10:16:30.493+02:00</time>
      </trkpt>
      <trkpt lat="45.58299" lon="-0.98535">
        <ele>58.3</ele>
        <time>2022-08-11T10:16:32.493+02:00</time>
      </trkpt>
      <trkpt lat="45.58289" lon="-0.98534">
        <ele>59.3</ele>
        <time>2022-08-11T10:16:34.497+02:00</time>
      </trkpt>
      <trkpt lat="45.58278" lon="-0.98532">
        <ele>58.8</ele>
        <time>2022-08-11T10:16:37.494+02:00</time>
      </trkpt>
      <trkpt lat="45.58268" lon="-0.98531">
        <ele>58.8</ele>
        <time>2022-08-11T10:16:40.496+02:00</time>
      </trkpt>
      <trkpt lat="45.58259" lon="-0.9853">
        <ele>57.8</ele>
        <time>2022-08-11T10:16:43.502+02:00</time>
      </trkpt>
      <trkpt lat="45.58249" lon="-0.98529">
        <ele>58.6</ele>
        <time>2022-08-11T10:16:46.497+02:00</time>
      </trkpt>
      <trkpt lat="45.5824" lon="-0.98526">
        <ele>60</ele>
        <time>2022-08-11T10:16:49.478+02:00</time>
      </trkpt>
      <trkpt lat="45.58229" lon="-0.98525">
        <ele>60.5</ele>
        <time>2022-08-11T10:16:53.498+02:00</time>
      </trkpt>
      <trkpt lat="45.58219" lon="-0.98525">
        <ele>61.2</ele>
        <time>2022-08-11T10:16:57.497+02:00</time>
      </trkpt>
      <trkpt lat="45.58208" lon="-0.98524">
        <ele>63.2</ele>
        <time>2022-08-11T10:17:01.498+02:00</time>
      </trkpt>
      <trkpt lat="45.58197" lon="-0.98523">
        <ele>63.5</ele>
        <time>2022-08-11T10:17:05.495+02:00</time>
      </trkpt>
      <trkpt lat="45.58186" lon="-0.98523">
        <ele>64.1</ele>
        <time>2022-08-11T10:17:09.498+02:00</time>
      </trkpt>
      <trkpt lat="45.58177" lon="-0.98524">
        <ele>64.5</ele>
        <time>2022-08-11T10:17:13.495+02:00</time>
      </trkpt>
      <trkpt lat="45.58168" lon="-0.98524">
        <ele>65.7</ele>
        <time>2022-08-11T10:17:17.504+02:00</time>
      </trkpt>
      <trkpt lat="45.58158" lon="-0.98525">
        <ele>66.8</ele>
        <time>2022-08-11T10:17:21.502+02:00</time>
      </trkpt>
      <trkpt lat="45.58149" lon="-0.98526">
        <ele>66.8</ele>
        <time>2022-08-11T10:17:25.489+02:00</time>
      </trkpt>
      <trkpt lat="45.5814" lon="-0.98527">
        <ele>67.7</ele>
        <time>2022-08-11T10:17:29.498+02:00</time>
      </trkpt>
      <trkpt lat="45.5813" lon="-0.98528">
        <ele>68.4</ele>
        <time>2022-08-11T10:17:33.499+02:00</time>
      </trkpt>
      <trkpt lat="45.58121" lon="-0.98531">
        <ele>68.4</ele>
        <time>2022-08-11T10:17:37.499+02:00</time>
      </trkpt>
      <trkpt lat="45.58111" lon="-0.98534">
        <ele>67.7</ele>
        <time>2022-08-11T10:17:41.496+02:00</time>
      </trkpt>
      <trkpt lat="45.58102" lon="-0.98537">
        <ele>68.9</ele>
        <time>2022-08-11T10:17:45.475+02:00</time>
      </trkpt>
      <trkpt lat="45.58093" lon="-0.9854">
        <ele>68.9</ele>
        <time>2022-08-11T10:17:49.492+02:00</time>
      </trkpt>
      <trkpt lat="45.58084" lon="-0.98542">
        <ele>69.7</ele>
        <time>2022-08-11T10:17:53.499+02:00</time>
      </trkpt>
      <trkpt lat="45.58074" lon="-0.98546">
        <ele>69.2</ele>
        <time>2022-08-11T10:17:58.497+02:00</time>
      </trkpt>
      <trkpt lat="45.58065" lon="-0.98551">
        <ele>70.3</ele>
        <time>2022-08-11T10:18:02.498+02:00</time>
      </trkpt>
      <trkpt lat="45.58056" lon="-0.98555">
        <ele>71.2</ele>
        <time>2022-08-11T10:18:06.494+02:00</time>
      </trkpt>
      <trkpt lat="45.58047" lon="-0.98559">
        <ele>70.3</ele>
        <time>2022-08-11T10:18:10.499+02:00</time>
      </trkpt>
      <trkpt lat="45.58038" lon="-0.98563">
        <ele>70.7</ele>
        <time>2022-08-11T10:18:14.502+02:00</time>
      </trkpt>
      <trkpt lat="45.58029" lon="-0.98568">
        <ele>71.6</ele>
        <time>2022-08-11T10:18:18.478+02:00</time>
      </trkpt>
      <trkpt lat="45.5802" lon="-0.98574">
        <ele>72.3</ele>
        <time>2022-08-11T10:18:22.508+02:00</time>
      </trkpt>
      <trkpt lat="45.5801" lon="-0.98579">
        <ele>73</ele>
        <time>2022-08-11T10:18:26.491+02:00</time>
      </trkpt>
      <trkpt lat="45.58002" lon="-0.98585">
        <ele>72.9</ele>
        <time>2022-08-11T10:18:30.496+02:00</time>
      </trkpt>
      <trkpt lat="45.57993" lon="-0.98592">
        <ele>74.2</ele>
        <time>2022-08-11T10:18:34.491+02:00</time>
      </trkpt>
      <trkpt lat="45.57985" lon="-0.98598">
        <ele>75.7</ele>
        <time>2022-08-11T10:18:38.5+02:00</time>
      </trkpt>
      <trkpt lat="45.57976" lon="-0.98605">
        <ele>77.1</ele>
        <time>2022-08-11T10:18:42.495+02:00</time>
      </trkpt>
      <trkpt lat="45.57967" lon="-0.98612">
        <ele>78.5</ele>
        <time>2022-08-11T10:18:46.488+02:00</time>
      </trkpt>
      <trkpt lat="45.57958" lon="-0.98619">
        <ele>79.6</ele>
        <time>2022-08-11T10:18:50.495+02:00</time>
      </trkpt>
      <trkpt lat="45.5795" lon="-0.98627">
        <ele>80.4</ele>
        <time>2022-08-11T10:18:54.496+02:00</time>
      </trkpt>
      <trkpt lat="45.57941" lon="-0.98635">
        <ele>81</ele>
        <time>2022-08-11T10:18:58.498+02:00</time>
      </trkpt>
      <trkpt lat="45.57932" lon="-0.98644">
        <ele>81.9</ele>
        <time>2022-08-11T10:19:02.506+02:00</time>
      </trkpt>
      <trkpt lat="45.57924" lon="-0.98652">
        <ele>82.2</ele>
        <time>2022-08-11T10:19:06.501+02:00</time>
      </trkpt>
      <trkpt lat="45.57915" lon="-0.98661">
        <ele>83.3</ele>
        <time>2022-08-11T10:19:10.505+02:00</time>
      </trkpt>
      <trkpt lat="45.57906" lon="-0.98666">
        <ele>83.7</ele>
        <time>2022-08-11T10:19:14.498+02:00</time>
      </trkpt>
      <trkpt lat="45.57895" lon="-0.98673">
        <ele>84.3</ele>
        <time>2022-08-11T10:19:18.494+02:00</time>
      </trkpt>
      <trkpt lat="45.57886" lon="-0.98676">
        <ele>85.2</ele>
        <time>2022-08-11T10:19:21.496+02:00</time>
      </trkpt>
      <trkpt lat="45.57875" lon="-0.98679">
        <ele>78.6</ele>
        <time>2022-08-11T10:19:24.498+02:00</time>
      </trkpt>
      <trkpt lat="45.57864" lon="-0.9868">
        <ele>82.4</ele>
        <time>2022-08-11T10:19:27.502+02:00</time>
      </trkpt>
      <trkpt lat="45.57855" lon="-0.98679">
        <ele>83.1</ele>
        <time>2022-08-11T10:19:29.504+02:00</time>
      </trkpt>
      <trkpt lat="45.57845" lon="-0.98677">
        <ele>83.6</ele>
        <time>2022-08-11T10:19:31.5+02:00</time>
      </trkpt>
      <trkpt lat="45.57836" lon="-0.98675">
        <ele>83.6</ele>
        <time>2022-08-11T10:19:33.495+02:00</time>
      </trkpt>
      <trkpt lat="45.57826" lon="-0.98672">
        <ele>82.9</ele>
        <time>2022-08-11T10:19:35.475+02:00</time>
      </trkpt>
      <trkpt lat="45.57814" lon="-0.98668">
        <ele>82.5</ele>
        <time>2022-08-11T10:19:37.488+02:00</time>
      </trkpt>
      <trkpt lat="45.57801" lon="-0.98665">
        <ele>81.8</ele>
        <time>2022-08-11T10:19:39.49+02:00</time>
      </trkpt>
      <trkpt lat="45.57787" lon="-0.98661">
        <ele>81.7</ele>
        <time>2022-08-11T10:19:41.492+02:00</time>
      </trkpt>
      <trkpt lat="45.57773" lon="-0.98658">
        <ele>80.5</ele>
        <time>2022-08-11T10:19:43.496+02:00</time>
      </trkpt>
      <trkpt lat="45.57758" lon="-0.98654">
        <ele>80.1</ele>
        <time>2022-08-11T10:19:45.48+02:00</time>
      </trkpt>
      <trkpt lat="45.57743" lon="-0.9865">
        <ele>78.6</ele>
        <time>2022-08-11T10:19:47.499+02:00</time>
      </trkpt>
      <trkpt lat="45.57728" lon="-0.98641">
        <ele>78.4</ele>
        <time>2022-08-11T10:19:49.499+02:00</time>
      </trkpt>
      <trkpt lat="45.57714" lon="-0.9863">
        <ele>77.5</ele>
        <time>2022-08-11T10:19:51.493+02:00</time>
      </trkpt>
      <trkpt lat="45.57701" lon="-0.98613">
        <ele>75.9</ele>
        <time>2022-08-11T10:19:53.505+02:00</time>
      </trkpt>
      <trkpt lat="45.5769" lon="-0.98592">
        <ele>74.4</ele>
        <time>2022-08-11T10:19:55.488+02:00</time>
      </trkpt>
      <trkpt lat="45.57686" lon="-0.9858">
        <ele>73.5</ele>
        <time>2022-08-11T10:19:56.496+02:00</time>
      </trkpt>
      <trkpt lat="45.57682" lon="-0.98568">
        <ele>73.7</ele>
        <time>2022-08-11T10:19:57.494+02:00</time>
      </trkpt>
      <trkpt lat="45.5768" lon="-0.98556">
        <ele>72.5</ele>
        <time>2022-08-11T10:19:58.497+02:00</time>
      </trkpt>
      <trkpt lat="45.57677" lon="-0.98543">
        <ele>73.1</ele>
        <time>2022-08-11T10:19:59.497+02:00</time>
      </trkpt>
      <trkpt lat="45.57677" lon="-0.9853">
        <ele>71.8</ele>
        <time>2022-08-11T10:20:00.501+02:00</time>
      </trkpt>
      <trkpt lat="45.57678" lon="-0.98517">
        <ele>70.9</ele>
        <time>2022-08-11T10:20:01.504+02:00</time>
      </trkpt>
      <trkpt lat="45.57679" lon="-0.98504">
        <ele>70.1</ele>
        <time>2022-08-11T10:20:02.507+02:00</time>
      </trkpt>
      <trkpt lat="45.57682" lon="-0.98491">
        <ele>69.4</ele>
        <time>2022-08-11T10:20:03.501+02:00</time>
      </trkpt>
      <trkpt lat="45.57688" lon="-0.98468">
        <ele>67.4</ele>
        <time>2022-08-11T10:20:05.476+02:00</time>
      </trkpt>
      <trkpt lat="45.57698" lon="-0.98448">
        <ele>65.6</ele>
        <time>2022-08-11T10:20:07.494+02:00</time>
      </trkpt>
      <trkpt lat="45.5771" lon="-0.98427">
        <ele>63.8</ele>
        <time>2022-08-11T10:20:09.493+02:00</time>
      </trkpt>
      <trkpt lat="45.57721" lon="-0.98408">
        <ele>62.4</ele>
        <time>2022-08-11T10:20:11.496+02:00</time>
      </trkpt>
      <trkpt lat="45.57728" lon="-0.98391">
        <ele>61.3</ele>
        <time>2022-08-11T10:20:13.499+02:00</time>
      </trkpt>
      <trkpt lat="45.57734" lon="-0.98372">
        <ele>60.2</ele>
        <time>2022-08-11T10:20:15.477+02:00</time>
      </trkpt>
      <trkpt lat="45.57737" lon="-0.98354">
        <ele>62.4</ele>
        <time>2022-08-11T10:20:17.5+02:00</time>
      </trkpt>
      <trkpt lat="45.5774" lon="-0.98335">
        <ele>59.9</ele>
        <time>2022-08-11T10:20:19.492+02:00</time>
      </trkpt>
      <trkpt lat="45.5774" lon="-0.98315">
        <ele>58.1</ele>
        <time>2022-08-11T10:20:21.496+02:00</time>
      </trkpt>
      <trkpt lat="45.57739" lon="-0.98296">
        <ele>56.7</ele>
        <time>2022-08-11T10:20:23.498+02:00</time>
      </trkpt>
      <trkpt lat="45.57736" lon="-0.98276">
        <ele>55.6</ele>
        <time>2022-08-11T10:20:25.495+02:00</time>
      </trkpt>
      <trkpt lat="45.57734" lon="-0.98257">
        <ele>54.9</ele>
        <time>2022-08-11T10:20:27.5+02:00</time>
      </trkpt>
      <trkpt lat="45.57728" lon="-0.98244">
        <ele>54.8</ele>
        <time>2022-08-11T10:20:29.493+02:00</time>
      </trkpt>
      <trkpt lat="45.57722" lon="-0.98229">
        <ele>54.9</ele>
        <time>2022-08-11T10:20:31.496+02:00</time>
      </trkpt>
      <trkpt lat="45.57716" lon="-0.98216">
        <ele>55.9</ele>
        <time>2022-08-11T10:20:33.497+02:00</time>
      </trkpt>
      <trkpt lat="45.57708" lon="-0.98204">
        <ele>56.5</ele>
        <time>2022-08-11T10:20:35.477+02:00</time>
      </trkpt>
      <trkpt lat="45.57701" lon="-0.98194">
        <ele>57.7</ele>
        <time>2022-08-11T10:20:37.5+02:00</time>
      </trkpt>
      <trkpt lat="45.57694" lon="-0.98184">
        <ele>57.8</ele>
        <time>2022-08-11T10:20:39.493+02:00</time>
      </trkpt>
      <trkpt lat="45.57686" lon="-0.9817">
        <ele>58.5</ele>
        <time>2022-08-11T10:20:42.49+02:00</time>
      </trkpt>
      <trkpt lat="45.57679" lon="-0.98156">
        <ele>59.6</ele>
        <time>2022-08-11T10:20:45.469+02:00</time>
      </trkpt>
      <trkpt lat="45.57672" lon="-0.98143">
        <ele>60.8</ele>
        <time>2022-08-11T10:20:48.473+02:00</time>
      </trkpt>
      <trkpt lat="45.57665" lon="-0.98132">
        <ele>60.9</ele>
        <time>2022-08-11T10:20:53.493+02:00</time>
      </trkpt>
      <trkpt lat="45.57658" lon="-0.98122">
        <ele>61.9</ele>
        <time>2022-08-11T10:20:58.492+02:00</time>
      </trkpt>
      <trkpt lat="45.57651" lon="-0.98111">
        <ele>60.6</ele>
        <time>2022-08-11T10:21:03.491+02:00</time>
      </trkpt>
      <trkpt lat="45.57644" lon="-0.981">
        <ele>62.3</ele>
        <time>2022-08-11T10:21:08.487+02:00</time>
      </trkpt>
      <trkpt lat="45.57637" lon="-0.98089">
        <ele>62.5</ele>
        <time>2022-08-11T10:21:13.493+02:00</time>
      </trkpt>
      <trkpt lat="45.5763" lon="-0.98077">
        <ele>63.1</ele>
        <time>2022-08-11T10:21:17.496+02:00</time>
      </trkpt>
      <trkpt lat="45.57623" lon="-0.98065">
        <ele>63.8</ele>
        <time>2022-08-11T10:21:21.496+02:00</time>
      </trkpt>
      <trkpt lat="45.57615" lon="-0.98054">
        <ele>65.2</ele>
        <time>2022-08-11T10:21:25.487+02:00</time>
      </trkpt>
      <trkpt lat="45.57609" lon="-0.98044">
        <ele>66.1</ele>
        <time>2022-08-11T10:21:29.499+02:00</time>
      </trkpt>
      <trkpt lat="45.57602" lon="-0.98032">
        <ele>66</ele>
        <time>2022-08-11T10:21:33.487+02:00</time>
      </trkpt>
      <trkpt lat="45.57595" lon="-0.98021">
        <ele>66</ele>
        <time>2022-08-11T10:21:37.497+02:00</time>
      </trkpt>
      <trkpt lat="45.57588" lon="-0.9801">
        <ele>66.9</ele>
        <time>2022-08-11T10:21:41.49+02:00</time>
      </trkpt>
      <trkpt lat="45.57581" lon="-0.97998">
        <ele>65.7</ele>
        <time>2022-08-11T10:21:45.489+02:00</time>
      </trkpt>
      <trkpt lat="45.57576" lon="-0.97988">
        <ele>66.5</ele>
        <time>2022-08-11T10:21:49.486+02:00</time>
      </trkpt>
      <trkpt lat="45.5757" lon="-0.97974">
        <ele>66.5</ele>
        <time>2022-08-11T10:21:53.49+02:00</time>
      </trkpt>
      <trkpt lat="45.57565" lon="-0.97962">
        <ele>65.9</ele>
        <time>2022-08-11T10:21:56.494+02:00</time>
      </trkpt>
      <trkpt lat="45.57561" lon="-0.97949">
        <ele>65.7</ele>
        <time>2022-08-11T10:21:59.493+02:00</time>
      </trkpt>
      <trkpt lat="45.57557" lon="-0.97936">
        <ele>65.4</ele>
        <time>2022-08-11T10:22:02.498+02:00</time>
      </trkpt>
      <trkpt lat="45.57554" lon="-0.97919">
        <ele>65.4</ele>
        <time>2022-08-11T10:22:06.49+02:00</time>
      </trkpt>
      <trkpt lat="45.57551" lon="-0.97903">
        <ele>67.4</ele>
        <time>2022-08-11T10:22:10.485+02:00</time>
      </trkpt>
      <trkpt lat="45.57549" lon="-0.97888">
        <ele>67.5</ele>
        <time>2022-08-11T10:22:14.494+02:00</time>
      </trkpt>
      <trkpt lat="45.57548" lon="-0.97871">
        <ele>66.4</ele>
        <time>2022-08-11T10:22:18.498+02:00</time>
      </trkpt>
      <trkpt lat="45.57547" lon="-0.97858">
        <ele>68.3</ele>
        <time>2022-08-11T10:22:21.491+02:00</time>
      </trkpt>
      <trkpt lat="45.57545" lon="-0.97845">
        <ele>69.1</ele>
        <time>2022-08-11T10:22:24.5+02:00</time>
      </trkpt>
      <trkpt lat="45.57544" lon="-0.97829">
        <ele>70.3</ele>
        <time>2022-08-11T10:22:28.495+02:00</time>
      </trkpt>
      <trkpt lat="45.57542" lon="-0.97814">
        <ele>70.4</ele>
        <time>2022-08-11T10:22:32.497+02:00</time>
      </trkpt>
      <trkpt lat="45.57539" lon="-0.97798">
        <ele>70.6</ele>
        <time>2022-08-11T10:22:36.495+02:00</time>
      </trkpt>
      <trkpt lat="45.57536" lon="-0.97784">
        <ele>70.9</ele>
        <time>2022-08-11T10:22:39.482+02:00</time>
      </trkpt>
      <trkpt lat="45.57533" lon="-0.9777">
        <ele>72.8</ele>
        <time>2022-08-11T10:22:42.489+02:00</time>
      </trkpt>
      <trkpt lat="45.57529" lon="-0.97758">
        <ele>73.6</ele>
        <time>2022-08-11T10:22:45.495+02:00</time>
      </trkpt>
      <trkpt lat="45.57526" lon="-0.97742">
        <ele>74.5</ele>
        <time>2022-08-11T10:22:49.489+02:00</time>
      </trkpt>
      <trkpt lat="45.57525" lon="-0.97728">
        <ele>76</ele>
        <time>2022-08-11T10:22:52.494+02:00</time>
      </trkpt>
      <trkpt lat="45.57525" lon="-0.97712">
        <ele>78.4</ele>
        <time>2022-08-11T10:22:55.488+02:00</time>
      </trkpt>
      <trkpt lat="45.57526" lon="-0.97697">
        <ele>79.5</ele>
        <time>2022-08-11T10:22:58.485+02:00</time>
      </trkpt>
      <trkpt lat="45.57525" lon="-0.97684">
        <ele>78.3</ele>
        <time>2022-08-11T10:23:01.478+02:00</time>
      </trkpt>
      <trkpt lat="45.57525" lon="-0.97668">
        <ele>74</ele>
        <time>2022-08-11T10:23:04.489+02:00</time>
      </trkpt>
      <trkpt lat="45.57525" lon="-0.97651">
        <ele>75.6</ele>
        <time>2022-08-11T10:23:07.498+02:00</time>
      </trkpt>
      <trkpt lat="45.57524" lon="-0.97638">
        <ele>75.4</ele>
        <time>2022-08-11T10:23:10.481+02:00</time>
      </trkpt>
      <trkpt lat="45.57524" lon="-0.97623">
        <ele>76.2</ele>
        <time>2022-08-11T10:23:14.474+02:00</time>
      </trkpt>
      <trkpt lat="45.57522" lon="-0.97609">
        <ele>76.4</ele>
        <time>2022-08-11T10:23:18.495+02:00</time>
      </trkpt>
      <trkpt lat="45.57521" lon="-0.97593">
        <ele>75.8</ele>
        <time>2022-08-11T10:23:22.484+02:00</time>
      </trkpt>
      <trkpt lat="45.57522" lon="-0.97578">
        <ele>77.9</ele>
        <time>2022-08-11T10:23:26.496+02:00</time>
      </trkpt>
      <trkpt lat="45.57527" lon="-0.97564">
        <ele>77.9</ele>
        <time>2022-08-11T10:23:30.477+02:00</time>
      </trkpt>
      <trkpt lat="45.57534" lon="-0.97552">
        <ele>78.5</ele>
        <time>2022-08-11T10:23:34.47+02:00</time>
      </trkpt>
      <trkpt lat="45.57539" lon="-0.97541">
        <ele>79.4</ele>
        <time>2022-08-11T10:23:37.48+02:00</time>
      </trkpt>
      <trkpt lat="45.57546" lon="-0.9753">
        <ele>79.8</ele>
        <time>2022-08-11T10:23:40.48+02:00</time>
      </trkpt>
      <trkpt lat="45.57552" lon="-0.97517">
        <ele>78.4</ele>
        <time>2022-08-11T10:23:43.477+02:00</time>
      </trkpt>
      <trkpt lat="45.57562" lon="-0.97506">
        <ele>76.9</ele>
        <time>2022-08-11T10:23:46.48+02:00</time>
      </trkpt>
      <trkpt lat="45.5757" lon="-0.97498">
        <ele>76</ele>
        <time>2022-08-11T10:23:48.483+02:00</time>
      </trkpt>
      <trkpt lat="45.57579" lon="-0.97484">
        <ele>74.6</ele>
        <time>2022-08-11T10:23:51.482+02:00</time>
      </trkpt>
      <trkpt lat="45.57586" lon="-0.97471">
        <ele>73.2</ele>
        <time>2022-08-11T10:23:54.475+02:00</time>
      </trkpt>
      <trkpt lat="45.57592" lon="-0.9746">
        <ele>72.5</ele>
        <time>2022-08-11T10:23:56.484+02:00</time>
      </trkpt>
      <trkpt lat="45.57598" lon="-0.9745">
        <ele>71.4</ele>
        <time>2022-08-11T10:23:58.484+02:00</time>
      </trkpt>
      <trkpt lat="45.57605" lon="-0.97439">
        <ele>71</ele>
        <time>2022-08-11T10:24:00.487+02:00</time>
      </trkpt>
      <trkpt lat="45.57614" lon="-0.97429">
        <ele>70.5</ele>
        <time>2022-08-11T10:24:02.481+02:00</time>
      </trkpt>
      <trkpt lat="45.57623" lon="-0.97421">
        <ele>69.3</ele>
        <time>2022-08-11T10:24:04.48+02:00</time>
      </trkpt>
      <trkpt lat="45.57634" lon="-0.9741">
        <ele>68.6</ele>
        <time>2022-08-11T10:24:06.488+02:00</time>
      </trkpt>
      <trkpt lat="45.57645" lon="-0.97397">
        <ele>68</ele>
        <time>2022-08-11T10:24:08.48+02:00</time>
      </trkpt>
      <trkpt lat="45.57656" lon="-0.97383">
        <ele>67.8</ele>
        <time>2022-08-11T10:24:10.482+02:00</time>
      </trkpt>
      <trkpt lat="45.57664" lon="-0.97366">
        <ele>67</ele>
        <time>2022-08-11T10:24:12.48+02:00</time>
      </trkpt>
      <trkpt lat="45.57666" lon="-0.97346">
        <ele>67</ele>
        <time>2022-08-11T10:24:14.479+02:00</time>
      </trkpt>
      <trkpt lat="45.57663" lon="-0.97328">
        <ele>66.7</ele>
        <time>2022-08-11T10:24:16.481+02:00</time>
      </trkpt>
      <trkpt lat="45.57656" lon="-0.97313">
        <ele>66.4</ele>
        <time>2022-08-11T10:24:18.478+02:00</time>
      </trkpt>
      <trkpt lat="45.5765" lon="-0.973">
        <ele>65.9</ele>
        <time>2022-08-11T10:24:20.48+02:00</time>
      </trkpt>
      <trkpt lat="45.57644" lon="-0.97286">
        <ele>66</ele>
        <time>2022-08-11T10:24:22.48+02:00</time>
      </trkpt>
      <trkpt lat="45.57638" lon="-0.97274">
        <ele>65.9</ele>
        <time>2022-08-11T10:24:24.48+02:00</time>
      </trkpt>
      <trkpt lat="45.57633" lon="-0.97262">
        <ele>66.3</ele>
        <time>2022-08-11T10:24:26.487+02:00</time>
      </trkpt>
      <trkpt lat="45.57627" lon="-0.9725">
        <ele>66.4</ele>
        <time>2022-08-11T10:24:28.493+02:00</time>
      </trkpt>
      <trkpt lat="45.57621" lon="-0.97235">
        <ele>66.5</ele>
        <time>2022-08-11T10:24:31.485+02:00</time>
      </trkpt>
      <trkpt lat="45.57613" lon="-0.9722">
        <ele>66.4</ele>
        <time>2022-08-11T10:24:34.491+02:00</time>
      </trkpt>
      <trkpt lat="45.57608" lon="-0.97206">
        <ele>66.6</ele>
        <time>2022-08-11T10:24:37.471+02:00</time>
      </trkpt>
      <trkpt lat="45.57605" lon="-0.97192">
        <ele>66.1</ele>
        <time>2022-08-11T10:24:40.496+02:00</time>
      </trkpt>
      <trkpt lat="45.57599" lon="-0.9718">
        <ele>66</ele>
        <time>2022-08-11T10:24:43.492+02:00</time>
      </trkpt>
      <trkpt lat="45.57592" lon="-0.9717">
        <ele>66.5</ele>
        <time>2022-08-11T10:24:46.498+02:00</time>
      </trkpt>
      <trkpt lat="45.57586" lon="-0.9716">
        <ele>66.3</ele>
        <time>2022-08-11T10:24:49.5+02:00</time>
      </trkpt>
      <trkpt lat="45.57579" lon="-0.97151">
        <ele>67.9</ele>
        <time>2022-08-11T10:24:52.5+02:00</time>
      </trkpt>
      <trkpt lat="45.57571" lon="-0.97143">
        <ele>69</ele>
        <time>2022-08-11T10:24:55.49+02:00</time>
      </trkpt>
      <trkpt lat="45.57561" lon="-0.97135">
        <ele>70.4</ele>
        <time>2022-08-11T10:24:59.489+02:00</time>
      </trkpt>
      <trkpt lat="45.5755" lon="-0.97129">
        <ele>72</ele>
        <time>2022-08-11T10:25:04.499+02:00</time>
      </trkpt>
      <trkpt lat="45.57541" lon="-0.97126">
        <ele>73.4</ele>
        <time>2022-08-11T10:25:09.495+02:00</time>
      </trkpt>
      <trkpt lat="45.5753" lon="-0.9712">
        <ele>74.3</ele>
        <time>2022-08-11T10:25:14.492+02:00</time>
      </trkpt>
      <trkpt lat="45.5752" lon="-0.97115">
        <ele>75.3</ele>
        <time>2022-08-11T10:25:19.486+02:00</time>
      </trkpt>
      <trkpt lat="45.57511" lon="-0.97109">
        <ele>75.9</ele>
        <time>2022-08-11T10:25:23.499+02:00</time>
      </trkpt>
      <trkpt lat="45.57502" lon="-0.97102">
        <ele>76.9</ele>
        <time>2022-08-11T10:25:28.496+02:00</time>
      </trkpt>
      <trkpt lat="45.57494" lon="-0.97094">
        <ele>77.5</ele>
        <time>2022-08-11T10:25:33.499+02:00</time>
      </trkpt>
      <trkpt lat="45.57486" lon="-0.97086">
        <ele>77.1</ele>
        <time>2022-08-11T10:25:38.508+02:00</time>
      </trkpt>
      <trkpt lat="45.57478" lon="-0.97077">
        <ele>76.8</ele>
        <time>2022-08-11T10:25:43.5+02:00</time>
      </trkpt>
      <trkpt lat="45.57469" lon="-0.97068">
        <ele>77.3</ele>
        <time>2022-08-11T10:25:48.501+02:00</time>
      </trkpt>
      <trkpt lat="45.57462" lon="-0.97058">
        <ele>77.7</ele>
        <time>2022-08-11T10:25:53.499+02:00</time>
      </trkpt>
      <trkpt lat="45.57454" lon="-0.9705">
        <ele>77</ele>
        <time>2022-08-11T10:25:58.496+02:00</time>
      </trkpt>
      <trkpt lat="45.57447" lon="-0.97042">
        <ele>77.3</ele>
        <time>2022-08-11T10:26:02.495+02:00</time>
      </trkpt>
      <trkpt lat="45.5744" lon="-0.97033">
        <ele>77.5</ele>
        <time>2022-08-11T10:26:06.489+02:00</time>
      </trkpt>
      <trkpt lat="45.57432" lon="-0.9702">
        <ele>76.6</ele>
        <time>2022-08-11T10:26:10.502+02:00</time>
      </trkpt>
      <trkpt lat="45.57426" lon="-0.97009">
        <ele>76.4</ele>
        <time>2022-08-11T10:26:13.484+02:00</time>
      </trkpt>
      <trkpt lat="45.5742" lon="-0.96998">
        <ele>76</ele>
        <time>2022-08-11T10:26:16.475+02:00</time>
      </trkpt>
      <trkpt lat="45.57412" lon="-0.96985">
        <ele>76.5</ele>
        <time>2022-08-11T10:26:20.496+02:00</time>
      </trkpt>
      <trkpt lat="45.57406" lon="-0.96971">
        <ele>76.7</ele>
        <time>2022-08-11T10:26:24.505+02:00</time>
      </trkpt>
      <trkpt lat="45.574" lon="-0.96957">
        <ele>76.4</ele>
        <time>2022-08-11T10:26:28.503+02:00</time>
      </trkpt>
      <trkpt lat="45.57395" lon="-0.96946">
        <ele>76.6</ele>
        <time>2022-08-11T10:26:31.499+02:00</time>
      </trkpt>
      <trkpt lat="45.5739" lon="-0.96934">
        <ele>76.8</ele>
        <time>2022-08-11T10:26:34.497+02:00</time>
      </trkpt>
      <trkpt lat="45.57386" lon="-0.96921">
        <ele>76.8</ele>
        <time>2022-08-11T10:26:37.495+02:00</time>
      </trkpt>
      <trkpt lat="45.57381" lon="-0.96909">
        <ele>76.7</ele>
        <time>2022-08-11T10:26:40.502+02:00</time>
      </trkpt>
      <trkpt lat="45.57376" lon="-0.96894">
        <ele>76.9</ele>
        <time>2022-08-11T10:26:44.493+02:00</time>
      </trkpt>
      <trkpt lat="45.57371" lon="-0.96882">
        <ele>77</ele>
        <time>2022-08-11T10:26:47.499+02:00</time>
      </trkpt>
      <trkpt lat="45.57367" lon="-0.96869">
        <ele>76.8</ele>
        <time>2022-08-11T10:26:50.497+02:00</time>
      </trkpt>
      <trkpt lat="45.57362" lon="-0.96857">
        <ele>76.8</ele>
        <time>2022-08-11T10:26:53.495+02:00</time>
      </trkpt>
      <trkpt lat="45.57357" lon="-0.96845">
        <ele>76.8</ele>
        <time>2022-08-11T10:26:56.487+02:00</time>
      </trkpt>
      <trkpt lat="45.57352" lon="-0.96833">
        <ele>76.6</ele>
        <time>2022-08-11T10:26:59.502+02:00</time>
      </trkpt>
      <trkpt lat="45.57347" lon="-0.96822">
        <ele>76.7</ele>
        <time>2022-08-11T10:27:02.496+02:00</time>
      </trkpt>
      <trkpt lat="45.57342" lon="-0.9681">
        <ele>75.9</ele>
        <time>2022-08-11T10:27:05.509+02:00</time>
      </trkpt>
      <trkpt lat="45.57338" lon="-0.96799">
        <ele>76.2</ele>
        <time>2022-08-11T10:27:08.496+02:00</time>
      </trkpt>
      <trkpt lat="45.57333" lon="-0.96787">
        <ele>75.6</ele>
        <time>2022-08-11T10:27:11.5+02:00</time>
      </trkpt>
      <trkpt lat="45.57328" lon="-0.96776">
        <ele>75.6</ele>
        <time>2022-08-11T10:27:14.498+02:00</time>
      </trkpt>
      <trkpt lat="45.57324" lon="-0.96764">
        <ele>75.8</ele>
        <time>2022-08-11T10:27:17.496+02:00</time>
      </trkpt>
      <trkpt lat="45.57318" lon="-0.9675">
        <ele>75.3</ele>
        <time>2022-08-11T10:27:20.5+02:00</time>
      </trkpt>
      <trkpt lat="45.57311" lon="-0.96737">
        <ele>75</ele>
        <time>2022-08-11T10:27:23.504+02:00</time>
      </trkpt>
      <trkpt lat="45.57305" lon="-0.96723">
        <ele>74.6</ele>
        <time>2022-08-11T10:27:26.494+02:00</time>
      </trkpt>
      <trkpt lat="45.57298" lon="-0.96709">
        <ele>74.1</ele>
        <time>2022-08-11T10:27:29.503+02:00</time>
      </trkpt>
      <trkpt lat="45.5729" lon="-0.96697">
        <ele>74.5</ele>
        <time>2022-08-11T10:27:32.493+02:00</time>
      </trkpt>
      <trkpt lat="45.57283" lon="-0.96687">
        <ele>74.6</ele>
        <time>2022-08-11T10:27:35.489+02:00</time>
      </trkpt>
      <trkpt lat="45.57275" lon="-0.96677">
        <ele>75</ele>
        <time>2022-08-11T10:27:38.496+02:00</time>
      </trkpt>
      <trkpt lat="45.57268" lon="-0.96668">
        <ele>75.7</ele>
        <time>2022-08-11T10:27:41.492+02:00</time>
      </trkpt>
      <trkpt lat="45.57261" lon="-0.96656">
        <ele>75.1</ele>
        <time>2022-08-11T10:27:44.501+02:00</time>
      </trkpt>
      <trkpt lat="45.57254" lon="-0.96644">
        <ele>74.4</ele>
        <time>2022-08-11T10:27:47.504+02:00</time>
      </trkpt>
      <trkpt lat="45.57248" lon="-0.96632">
        <ele>74.4</ele>
        <time>2022-08-11T10:27:50.49+02:00</time>
      </trkpt>
      <trkpt lat="45.57242" lon="-0.96618">
        <ele>75.1</ele>
        <time>2022-08-11T10:27:53.501+02:00</time>
      </trkpt>
      <trkpt lat="45.57237" lon="-0.96603">
        <ele>74.3</ele>
        <time>2022-08-11T10:27:56.484+02:00</time>
      </trkpt>
      <trkpt lat="45.57232" lon="-0.96589">
        <ele>74.5</ele>
        <time>2022-08-11T10:27:59.498+02:00</time>
      </trkpt>
      <trkpt lat="45.57226" lon="-0.96576">
        <ele>74.7</ele>
        <time>2022-08-11T10:28:02.492+02:00</time>
      </trkpt>
      <trkpt lat="45.57221" lon="-0.96564">
        <ele>74.4</ele>
        <time>2022-08-11T10:28:05.503+02:00</time>
      </trkpt>
      <trkpt lat="45.57213" lon="-0.96555">
        <ele>75.3</ele>
        <time>2022-08-11T10:28:08.496+02:00</time>
      </trkpt>
      <trkpt lat="45.57204" lon="-0.96548">
        <ele>75.4</ele>
        <time>2022-08-11T10:28:11.502+02:00</time>
      </trkpt>
      <trkpt lat="45.57193" lon="-0.96543">
        <ele>75.4</ele>
        <time>2022-08-11T10:28:14.496+02:00</time>
      </trkpt>
      <trkpt lat="45.57181" lon="-0.96539">
        <ele>75.2</ele>
        <time>2022-08-11T10:28:17.501+02:00</time>
      </trkpt>
      <trkpt lat="45.57171" lon="-0.96537">
        <ele>75.3</ele>
        <time>2022-08-11T10:28:20.507+02:00</time>
      </trkpt>
      <trkpt lat="45.57161" lon="-0.96534">
        <ele>75.5</ele>
        <time>2022-08-11T10:28:23.496+02:00</time>
      </trkpt>
      <trkpt lat="45.57152" lon="-0.96532">
        <ele>75.8</ele>
        <time>2022-08-11T10:28:26.486+02:00</time>
      </trkpt>
      <trkpt lat="45.57142" lon="-0.96527">
        <ele>76.4</ele>
        <time>2022-08-11T10:28:30.5+02:00</time>
      </trkpt>
      <trkpt lat="45.57132" lon="-0.9652">
        <ele>76.4</ele>
        <time>2022-08-11T10:28:34.495+02:00</time>
      </trkpt>
      <trkpt lat="45.57123" lon="-0.96512">
        <ele>76.3</ele>
        <time>2022-08-11T10:28:37.486+02:00</time>
      </trkpt>
      <trkpt lat="45.57114" lon="-0.96501">
        <ele>76.7</ele>
        <time>2022-08-11T10:28:40.495+02:00</time>
      </trkpt>
      <trkpt lat="45.57107" lon="-0.96489">
        <ele>75.7</ele>
        <time>2022-08-11T10:28:43.495+02:00</time>
      </trkpt>
      <trkpt lat="45.571" lon="-0.96477">
        <ele>75.6</ele>
        <time>2022-08-11T10:28:46.489+02:00</time>
      </trkpt>
      <trkpt lat="45.57091" lon="-0.96466">
        <ele>75.9</ele>
        <time>2022-08-11T10:28:49.479+02:00</time>
      </trkpt>
      <trkpt lat="45.5708" lon="-0.96458">
        <ele>76</ele>
        <time>2022-08-11T10:28:52.502+02:00</time>
      </trkpt>
      <trkpt lat="45.5707" lon="-0.96452">
        <ele>76.4</ele>
        <time>2022-08-11T10:28:55.508+02:00</time>
      </trkpt>
      <trkpt lat="45.57059" lon="-0.96447">
        <ele>76.5</ele>
        <time>2022-08-11T10:28:58.497+02:00</time>
      </trkpt>
      <trkpt lat="45.57046" lon="-0.9644">
        <ele>75.9</ele>
        <time>2022-08-11T10:29:01.503+02:00</time>
      </trkpt>
      <trkpt lat="45.57038" lon="-0.96434">
        <ele>75.8</ele>
        <time>2022-08-11T10:29:03.5+02:00</time>
      </trkpt>
      <trkpt lat="45.57029" lon="-0.96428">
        <ele>76.1</ele>
        <time>2022-08-11T10:29:05.495+02:00</time>
      </trkpt>
      <trkpt lat="45.57021" lon="-0.96422">
        <ele>76.5</ele>
        <time>2022-08-11T10:29:07.499+02:00</time>
      </trkpt>
      <trkpt lat="45.57011" lon="-0.96415">
        <ele>76.8</ele>
        <time>2022-08-11T10:29:10.5+02:00</time>
      </trkpt>
      <trkpt lat="45.57001" lon="-0.96409">
        <ele>76.8</ele>
        <time>2022-08-11T10:29:13.5+02:00</time>
      </trkpt>
      <trkpt lat="45.56992" lon="-0.96404">
        <ele>76.5</ele>
        <time>2022-08-11T10:29:16.491+02:00</time>
      </trkpt>
      <trkpt lat="45.56982" lon="-0.964">
        <ele>76.3</ele>
        <time>2022-08-11T10:29:19.494+02:00</time>
      </trkpt>
      <trkpt lat="45.56973" lon="-0.96396">
        <ele>76.2</ele>
        <time>2022-08-11T10:29:22.489+02:00</time>
      </trkpt>
      <trkpt lat="45.56962" lon="-0.9639">
        <ele>76.4</ele>
        <time>2022-08-11T10:29:25.498+02:00</time>
      </trkpt>
      <trkpt lat="45.5695" lon="-0.96385">
        <ele>76.4</ele>
        <time>2022-08-11T10:29:28.494+02:00</time>
      </trkpt>
      <trkpt lat="45.56939" lon="-0.9638">
        <ele>76.8</ele>
        <time>2022-08-11T10:29:31.494+02:00</time>
      </trkpt>
      <trkpt lat="45.56927" lon="-0.96375">
        <ele>77.6</ele>
        <time>2022-08-11T10:29:34.488+02:00</time>
      </trkpt>
      <trkpt lat="45.56916" lon="-0.96369">
        <ele>77.6</ele>
        <time>2022-08-11T10:29:37.499+02:00</time>
      </trkpt>
      <trkpt lat="45.56906" lon="-0.96364">
        <ele>78</ele>
        <time>2022-08-11T10:29:42.501+02:00</time>
      </trkpt>
      <trkpt lat="45.56897" lon="-0.96359">
        <ele>77.9</ele>
        <time>2022-08-11T10:29:45.496+02:00</time>
      </trkpt>
      <trkpt lat="45.56887" lon="-0.96353">
        <ele>78.3</ele>
        <time>2022-08-11T10:29:48.507+02:00</time>
      </trkpt>
      <trkpt lat="45.56877" lon="-0.96347">
        <ele>79</ele>
        <time>2022-08-11T10:29:51.49+02:00</time>
      </trkpt>
      <trkpt lat="45.56868" lon="-0.96342">
        <ele>78.6</ele>
        <time>2022-08-11T10:29:54.499+02:00</time>
      </trkpt>
      <trkpt lat="45.5686" lon="-0.96337">
        <ele>79.2</ele>
        <time>2022-08-11T10:29:57.495+02:00</time>
      </trkpt>
      <trkpt lat="45.56848" lon="-0.96331">
        <ele>79.7</ele>
        <time>2022-08-11T10:30:01.494+02:00</time>
      </trkpt>
      <trkpt lat="45.5684" lon="-0.96326">
        <ele>80.1</ele>
        <time>2022-08-11T10:30:04.502+02:00</time>
      </trkpt>
      <trkpt lat="45.5683" lon="-0.96319">
        <ele>80.3</ele>
        <time>2022-08-11T10:30:08.497+02:00</time>
      </trkpt>
      <trkpt lat="45.56819" lon="-0.96313">
        <ele>81.7</ele>
        <time>2022-08-11T10:30:12.482+02:00</time>
      </trkpt>
      <trkpt lat="45.56808" lon="-0.96306">
        <ele>82.2</ele>
        <time>2022-08-11T10:30:16.493+02:00</time>
      </trkpt>
      <trkpt lat="45.56798" lon="-0.963">
        <ele>82.7</ele>
        <time>2022-08-11T10:30:20.497+02:00</time>
      </trkpt>
      <trkpt lat="45.56789" lon="-0.96295">
        <ele>83.2</ele>
        <time>2022-08-11T10:30:24.5+02:00</time>
      </trkpt>
      <trkpt lat="45.5678" lon="-0.9629">
        <ele>83.9</ele>
        <time>2022-08-11T10:30:28.486+02:00</time>
      </trkpt>
      <trkpt lat="45.56772" lon="-0.96286">
        <ele>84.5</ele>
        <time>2022-08-11T10:30:32.499+02:00</time>
      </trkpt>
      <trkpt lat="45.5676" lon="-0.96281">
        <ele>83.9</ele>
        <time>2022-08-11T10:30:36.494+02:00</time>
      </trkpt>
      <trkpt lat="45.5675" lon="-0.96275">
        <ele>83.8</ele>
        <time>2022-08-11T10:30:39.5+02:00</time>
      </trkpt>
      <trkpt lat="45.56741" lon="-0.96271">
        <ele>83.6</ele>
        <time>2022-08-11T10:30:43.5+02:00</time>
      </trkpt>
      <trkpt lat="45.56732" lon="-0.96266">
        <ele>82.9</ele>
        <time>2022-08-11T10:30:46.496+02:00</time>
      </trkpt>
      <trkpt lat="45.56724" lon="-0.96261">
        <ele>81.2</ele>
        <time>2022-08-11T10:30:49.498+02:00</time>
      </trkpt>
      <trkpt lat="45.56714" lon="-0.96255">
        <ele>83.5</ele>
        <time>2022-08-11T10:30:52.496+02:00</time>
      </trkpt>
      <trkpt lat="45.56703" lon="-0.96249">
        <ele>84.1</ele>
        <time>2022-08-11T10:30:55.489+02:00</time>
      </trkpt>
      <trkpt lat="45.56692" lon="-0.96242">
        <ele>84.6</ele>
        <time>2022-08-11T10:30:58.489+02:00</time>
      </trkpt>
      <trkpt lat="45.5668" lon="-0.96234">
        <ele>84</ele>
        <time>2022-08-11T10:31:01.496+02:00</time>
      </trkpt>
      <trkpt lat="45.56671" lon="-0.96227">
        <ele>83.4</ele>
        <time>2022-08-11T10:31:03.5+02:00</time>
      </trkpt>
      <trkpt lat="45.56662" lon="-0.9622">
        <ele>82.9</ele>
        <time>2022-08-11T10:31:05.497+02:00</time>
      </trkpt>
      <trkpt lat="45.56652" lon="-0.96213">
        <ele>81.9</ele>
        <time>2022-08-11T10:31:07.5+02:00</time>
      </trkpt>
      <trkpt lat="45.56642" lon="-0.96206">
        <ele>80.8</ele>
        <time>2022-08-11T10:31:09.494+02:00</time>
      </trkpt>
      <trkpt lat="45.56631" lon="-0.96199">
        <ele>79.9</ele>
        <time>2022-08-11T10:31:11.498+02:00</time>
      </trkpt>
      <trkpt lat="45.5662" lon="-0.96191">
        <ele>79.8</ele>
        <time>2022-08-11T10:31:13.49+02:00</time>
      </trkpt>
      <trkpt lat="45.56609" lon="-0.96183">
        <ele>79.9</ele>
        <time>2022-08-11T10:31:15.5+02:00</time>
      </trkpt>
      <trkpt lat="45.566" lon="-0.96176">
        <ele>79.2</ele>
        <time>2022-08-11T10:31:17.495+02:00</time>
      </trkpt>
      <trkpt lat="45.56591" lon="-0.96169">
        <ele>79.1</ele>
        <time>2022-08-11T10:31:19.491+02:00</time>
      </trkpt>
      <trkpt lat="45.56584" lon="-0.96162">
        <ele>79.4</ele>
        <time>2022-08-11T10:31:21.495+02:00</time>
      </trkpt>
      <trkpt lat="45.56576" lon="-0.96152">
        <ele>78.1</ele>
        <time>2022-08-11T10:31:25.488+02:00</time>
      </trkpt>
      <trkpt lat="45.56575" lon="-0.96151">
        <ele>78.5</ele>
        <time>2022-08-11T10:31:26.475+02:00</time>
      </trkpt>
      <trkpt lat="45.56575" lon="-0.96151">
        <ele>79.1</ele>
        <time>2022-08-11T10:31:27.477+02:00</time>
      </trkpt>
      <trkpt lat="45.56575" lon="-0.96151">
        <ele>78.8</ele>
        <time>2022-08-11T10:31:28.478+02:00</time>
      </trkpt>
      <trkpt lat="45.56575" lon="-0.96151">
        <ele>79</ele>
        <time>2022-08-11T10:31:29.491+02:00</time>
      </trkpt>
      <trkpt lat="45.56576" lon="-0.96151">
        <ele>80</ele>
        <time>2022-08-11T10:31:31.5+02:00</time>
      </trkpt>
      <trkpt lat="45.56575" lon="-0.96151">
        <ele>79.7</ele>
        <time>2022-08-11T10:31:32.499+02:00</time>
      </trkpt>
      <trkpt lat="45.56565" lon="-0.96149">
        <ele>78</ele>
        <time>2022-08-11T10:31:41.488+02:00</time>
      </trkpt>
      <trkpt lat="45.56554" lon="-0.96152">
        <ele>77.5</ele>
        <time>2022-08-11T10:31:44.472+02:00</time>
      </trkpt>
      <trkpt lat="45.56542" lon="-0.96156">
        <ele>75.7</ele>
        <time>2022-08-11T10:31:47.479+02:00</time>
      </trkpt>
      <trkpt lat="45.56532" lon="-0.96144">
        <ele>74.9</ele>
        <time>2022-08-11T10:31:50.482+02:00</time>
      </trkpt>
      <trkpt lat="45.56528" lon="-0.96131">
        <ele>73.2</ele>
        <time>2022-08-11T10:31:52.48+02:00</time>
      </trkpt>
      <trkpt lat="45.5652" lon="-0.9612">
        <ele>72.2</ele>
        <time>2022-08-11T10:31:54.476+02:00</time>
      </trkpt>
      <trkpt lat="45.5651" lon="-0.9611">
        <ele>71.9</ele>
        <time>2022-08-11T10:31:56.482+02:00</time>
      </trkpt>
      <trkpt lat="45.56498" lon="-0.96101">
        <ele>70.5</ele>
        <time>2022-08-11T10:31:58.477+02:00</time>
      </trkpt>
      <trkpt lat="45.56486" lon="-0.96093">
        <ele>70.1</ele>
        <time>2022-08-11T10:32:00.476+02:00</time>
      </trkpt>
      <trkpt lat="45.56474" lon="-0.96086">
        <ele>69.9</ele>
        <time>2022-08-11T10:32:02.491+02:00</time>
      </trkpt>
      <trkpt lat="45.56462" lon="-0.96078">
        <ele>69.4</ele>
        <time>2022-08-11T10:32:04.48+02:00</time>
      </trkpt>
      <trkpt lat="45.56451" lon="-0.96069">
        <ele>68.9</ele>
        <time>2022-08-11T10:32:06.472+02:00</time>
      </trkpt>
      <trkpt lat="45.5644" lon="-0.96061">
        <ele>68.4</ele>
        <time>2022-08-11T10:32:08.479+02:00</time>
      </trkpt>
      <trkpt lat="45.56429" lon="-0.96052">
        <ele>68.5</ele>
        <time>2022-08-11T10:32:10.483+02:00</time>
      </trkpt>
      <trkpt lat="45.56417" lon="-0.96043">
        <ele>67.7</ele>
        <time>2022-08-11T10:32:12.474+02:00</time>
      </trkpt>
      <trkpt lat="45.56406" lon="-0.96036">
        <ele>67.4</ele>
        <time>2022-08-11T10:32:14.484+02:00</time>
      </trkpt>
      <trkpt lat="45.56394" lon="-0.96027">
        <ele>66.3</ele>
        <time>2022-08-11T10:32:16.477+02:00</time>
      </trkpt>
      <trkpt lat="45.56381" lon="-0.96018">
        <ele>65.9</ele>
        <time>2022-08-11T10:32:18.487+02:00</time>
      </trkpt>
      <trkpt lat="45.56369" lon="-0.96009">
        <ele>65.4</ele>
        <time>2022-08-11T10:32:20.483+02:00</time>
      </trkpt>
      <trkpt lat="45.56356" lon="-0.95999">
        <ele>66.2</ele>
        <time>2022-08-11T10:32:22.48+02:00</time>
      </trkpt>
      <trkpt lat="45.56344" lon="-0.95991">
        <ele>66.6</ele>
        <time>2022-08-11T10:32:24.476+02:00</time>
      </trkpt>
      <trkpt lat="45.56333" lon="-0.95984">
        <ele>66.4</ele>
        <time>2022-08-11T10:32:26.475+02:00</time>
      </trkpt>
      <trkpt lat="45.56322" lon="-0.95976">
        <ele>66.3</ele>
        <time>2022-08-11T10:32:28.485+02:00</time>
      </trkpt>
      <trkpt lat="45.56312" lon="-0.95967">
        <ele>66</ele>
        <time>2022-08-11T10:32:30.48+02:00</time>
      </trkpt>
      <trkpt lat="45.56303" lon="-0.95959">
        <ele>66.1</ele>
        <time>2022-08-11T10:32:32.482+02:00</time>
      </trkpt>
      <trkpt lat="45.56294" lon="-0.95951">
        <ele>66.5</ele>
        <time>2022-08-11T10:32:34.476+02:00</time>
      </trkpt>
      <trkpt lat="45.56287" lon="-0.95944">
        <ele>67</ele>
        <time>2022-08-11T10:32:36.474+02:00</time>
      </trkpt>
      <trkpt lat="45.56277" lon="-0.95934">
        <ele>67.4</ele>
        <time>2022-08-11T10:32:39.482+02:00</time>
      </trkpt>
      <trkpt lat="45.56267" lon="-0.95926">
        <ele>67.9</ele>
        <time>2022-08-11T10:32:42.48+02:00</time>
      </trkpt>
      <trkpt lat="45.56259" lon="-0.95919">
        <ele>68.9</ele>
        <time>2022-08-11T10:32:45.478+02:00</time>
      </trkpt>
      <trkpt lat="45.56252" lon="-0.95911">
        <ele>69.5</ele>
        <time>2022-08-11T10:32:48.483+02:00</time>
      </trkpt>
      <trkpt lat="45.56244" lon="-0.95904">
        <ele>70.5</ele>
        <time>2022-08-11T10:32:51.478+02:00</time>
      </trkpt>
      <trkpt lat="45.56236" lon="-0.95897">
        <ele>71.3</ele>
        <time>2022-08-11T10:32:54.474+02:00</time>
      </trkpt>
      <trkpt lat="45.56228" lon="-0.95889">
        <ele>71.3</ele>
        <time>2022-08-11T10:32:57.473+02:00</time>
      </trkpt>
      <trkpt lat="45.56221" lon="-0.95882">
        <ele>70.6</ele>
        <time>2022-08-11T10:33:00.477+02:00</time>
      </trkpt>
      <trkpt lat="45.56212" lon="-0.95873">
        <ele>71.3</ele>
        <time>2022-08-11T10:33:03.494+02:00</time>
      </trkpt>
      <trkpt lat="45.56202" lon="-0.95864">
        <ele>70.9</ele>
        <time>2022-08-11T10:33:06.485+02:00</time>
      </trkpt>
      <trkpt lat="45.56192" lon="-0.95854">
        <ele>70.3</ele>
        <time>2022-08-11T10:33:09.504+02:00</time>
      </trkpt>
      <trkpt lat="45.56182" lon="-0.95844">
        <ele>70.2</ele>
        <time>2022-08-11T10:33:12.492+02:00</time>
      </trkpt>
      <trkpt lat="45.56172" lon="-0.95835">
        <ele>70.4</ele>
        <time>2022-08-11T10:33:15.494+02:00</time>
      </trkpt>
      <trkpt lat="45.56164" lon="-0.95827">
        <ele>70.4</ele>
        <time>2022-08-11T10:33:17.487+02:00</time>
      </trkpt>
      <trkpt lat="45.56157" lon="-0.9582">
        <ele>69.3</ele>
        <time>2022-08-11T10:33:19.489+02:00</time>
      </trkpt>
      <trkpt lat="45.56148" lon="-0.95814">
        <ele>68.8</ele>
        <time>2022-08-11T10:33:21.496+02:00</time>
      </trkpt>
      <trkpt lat="45.56137" lon="-0.95809">
        <ele>69.3</ele>
        <time>2022-08-11T10:33:23.497+02:00</time>
      </trkpt>
      <trkpt lat="45.56127" lon="-0.95806">
        <ele>68.9</ele>
        <time>2022-08-11T10:33:25.506+02:00</time>
      </trkpt>
      <trkpt lat="45.56118" lon="-0.95802">
        <ele>68.2</ele>
        <time>2022-08-11T10:33:27.494+02:00</time>
      </trkpt>
      <trkpt lat="45.56106" lon="-0.95797">
        <ele>66.9</ele>
        <time>2022-08-11T10:33:30.494+02:00</time>
      </trkpt>
      <trkpt lat="45.56093" lon="-0.95801">
        <ele>66.8</ele>
        <time>2022-08-11T10:33:33.506+02:00</time>
      </trkpt>
      <trkpt lat="45.56086" lon="-0.95816">
        <ele>66.5</ele>
        <time>2022-08-11T10:33:36.48+02:00</time>
      </trkpt>
      <trkpt lat="45.56085" lon="-0.95833">
        <ele>67.9</ele>
        <time>2022-08-11T10:33:39.502+02:00</time>
      </trkpt>
      <trkpt lat="45.56083" lon="-0.9585">
        <ele>68.8</ele>
        <time>2022-08-11T10:33:42.495+02:00</time>
      </trkpt>
      <trkpt lat="45.56082" lon="-0.95867">
        <ele>69.1</ele>
        <time>2022-08-11T10:33:45.5+02:00</time>
      </trkpt>
      <trkpt lat="45.5608" lon="-0.95883">
        <ele>69.3</ele>
        <time>2022-08-11T10:33:48.497+02:00</time>
      </trkpt>
      <trkpt lat="45.56078" lon="-0.95897">
        <ele>69.1</ele>
        <time>2022-08-11T10:33:51.502+02:00</time>
      </trkpt>
      <trkpt lat="45.56077" lon="-0.95911">
        <ele>69.2</ele>
        <time>2022-08-11T10:33:54.494+02:00</time>
      </trkpt>
      <trkpt lat="45.56074" lon="-0.95925">
        <ele>68.3</ele>
        <time>2022-08-11T10:33:57.494+02:00</time>
      </trkpt>
      <trkpt lat="45.56072" lon="-0.95937">
        <ele>68.5</ele>
        <time>2022-08-11T10:34:00.505+02:00</time>
      </trkpt>
      <trkpt lat="45.56071" lon="-0.95955">
        <ele>68.9</ele>
        <time>2022-08-11T10:34:04.487+02:00</time>
      </trkpt>
      <trkpt lat="45.5607" lon="-0.95968">
        <ele>68.9</ele>
        <time>2022-08-11T10:34:07.489+02:00</time>
      </trkpt>
      <trkpt lat="45.56067" lon="-0.95985">
        <ele>69</ele>
        <time>2022-08-11T10:34:11.491+02:00</time>
      </trkpt>
      <trkpt lat="45.56066" lon="-0.96001">
        <ele>69.6</ele>
        <time>2022-08-11T10:34:15.495+02:00</time>
      </trkpt>
      <trkpt lat="45.56064" lon="-0.96017">
        <ele>69.1</ele>
        <time>2022-08-11T10:34:19.5+02:00</time>
      </trkpt>
      <trkpt lat="45.56063" lon="-0.96033">
        <ele>70.3</ele>
        <time>2022-08-11T10:34:23.494+02:00</time>
      </trkpt>
      <trkpt lat="45.56062" lon="-0.96049">
        <ele>70.8</ele>
        <time>2022-08-11T10:34:27.495+02:00</time>
      </trkpt>
      <trkpt lat="45.56059" lon="-0.96065">
        <ele>71.1</ele>
        <time>2022-08-11T10:34:31.5+02:00</time>
      </trkpt>
      <trkpt lat="45.56058" lon="-0.96078">
        <ele>71.1</ele>
        <time>2022-08-11T10:34:34.485+02:00</time>
      </trkpt>
      <trkpt lat="45.56056" lon="-0.9609">
        <ele>71.5</ele>
        <time>2022-08-11T10:34:37.49+02:00</time>
      </trkpt>
      <trkpt lat="45.56054" lon="-0.96103">
        <ele>71.1</ele>
        <time>2022-08-11T10:34:40.493+02:00</time>
      </trkpt>
      <trkpt lat="45.56052" lon="-0.96116">
        <ele>71.6</ele>
        <time>2022-08-11T10:34:43.499+02:00</time>
      </trkpt>
      <trkpt lat="45.5605" lon="-0.96134">
        <ele>71.3</ele>
        <time>2022-08-11T10:34:47.498+02:00</time>
      </trkpt>
      <trkpt lat="45.56048" lon="-0.96147">
        <ele>71.5</ele>
        <time>2022-08-11T10:34:50.498+02:00</time>
      </trkpt>
      <trkpt lat="45.56046" lon="-0.96164">
        <ele>71.9</ele>
        <time>2022-08-11T10:34:54.489+02:00</time>
      </trkpt>
      <trkpt lat="45.56045" lon="-0.96178">
        <ele>71.1</ele>
        <time>2022-08-11T10:34:57.472+02:00</time>
      </trkpt>
      <trkpt lat="45.56044" lon="-0.96194">
        <ele>70.7</ele>
        <time>2022-08-11T10:35:01.473+02:00</time>
      </trkpt>
      <trkpt lat="45.56042" lon="-0.9621">
        <ele>70.2</ele>
        <time>2022-08-11T10:35:05.476+02:00</time>
      </trkpt>
      <trkpt lat="45.56041" lon="-0.96225">
        <ele>71.4</ele>
        <time>2022-08-11T10:35:09.47+02:00</time>
      </trkpt>
      <trkpt lat="45.56037" lon="-0.96239">
        <ele>72.3</ele>
        <time>2022-08-11T10:35:13.471+02:00</time>
      </trkpt>
      <trkpt lat="45.56036" lon="-0.96254">
        <ele>71.4</ele>
        <time>2022-08-11T10:35:17.467+02:00</time>
      </trkpt>
      <trkpt lat="45.56034" lon="-0.96269">
        <ele>69.2</ele>
        <time>2022-08-11T10:35:21.476+02:00</time>
      </trkpt>
      <trkpt lat="45.56032" lon="-0.96282">
        <ele>68.7</ele>
        <time>2022-08-11T10:35:24.475+02:00</time>
      </trkpt>
      <trkpt lat="45.56029" lon="-0.963">
        <ele>69.7</ele>
        <time>2022-08-11T10:35:27.497+02:00</time>
      </trkpt>
      <trkpt lat="45.56027" lon="-0.96313">
        <ele>69.9</ele>
        <time>2022-08-11T10:35:29.484+02:00</time>
      </trkpt>
      <trkpt lat="45.56025" lon="-0.96328">
        <ele>70.1</ele>
        <time>2022-08-11T10:35:31.49+02:00</time>
      </trkpt>
      <trkpt lat="45.56022" lon="-0.96345">
        <ele>68.7</ele>
        <time>2022-08-11T10:35:34.502+02:00</time>
      </trkpt>
      <trkpt lat="45.56019" lon="-0.96362">
        <ele>68.6</ele>
        <time>2022-08-11T10:35:37.49+02:00</time>
      </trkpt>
      <trkpt lat="45.56015" lon="-0.96378">
        <ele>67.5</ele>
        <time>2022-08-11T10:35:41.504+02:00</time>
      </trkpt>
      <trkpt lat="45.56006" lon="-0.96381">
        <ele>67.1</ele>
        <time>2022-08-11T10:35:44.494+02:00</time>
      </trkpt>
      <trkpt lat="45.55996" lon="-0.96378">
        <ele>67.4</ele>
        <time>2022-08-11T10:35:49.494+02:00</time>
      </trkpt>
      <trkpt lat="45.55985" lon="-0.96377">
        <ele>68.5</ele>
        <time>2022-08-11T10:35:55.495+02:00</time>
      </trkpt>
      <trkpt lat="45.55975" lon="-0.96385">
        <ele>69.8</ele>
        <time>2022-08-11T10:36:00.5+02:00</time>
      </trkpt>
      <trkpt lat="45.55969" lon="-0.96394">
        <ele>70.5</ele>
        <time>2022-08-11T10:36:04.495+02:00</time>
      </trkpt>
      <trkpt lat="45.55963" lon="-0.96404">
        <ele>72.8</ele>
        <time>2022-08-11T10:36:08.497+02:00</time>
      </trkpt>
      <trkpt lat="45.55955" lon="-0.96412">
        <ele>72</ele>
        <time>2022-08-11T10:36:12.491+02:00</time>
      </trkpt>
      <trkpt lat="45.55945" lon="-0.9642">
        <ele>72.4</ele>
        <time>2022-08-11T10:36:16.484+02:00</time>
      </trkpt>
      <trkpt lat="45.55935" lon="-0.96428">
        <ele>72.6</ele>
        <time>2022-08-11T10:36:20.502+02:00</time>
      </trkpt>
      <trkpt lat="45.55924" lon="-0.96431">
        <ele>74.4</ele>
        <time>2022-08-11T10:36:24.5+02:00</time>
      </trkpt>
      <trkpt lat="45.55915" lon="-0.96424">
        <ele>74.2</ele>
        <time>2022-08-11T10:36:27.499+02:00</time>
      </trkpt>
      <trkpt lat="45.5591" lon="-0.96409">
        <ele>74.7</ele>
        <time>2022-08-11T10:36:30.493+02:00</time>
      </trkpt>
      <trkpt lat="45.55906" lon="-0.96391">
        <ele>75.4</ele>
        <time>2022-08-11T10:36:33.504+02:00</time>
      </trkpt>
      <trkpt lat="45.55904" lon="-0.96376">
        <ele>74</ele>
        <time>2022-08-11T10:36:36.472+02:00</time>
      </trkpt>
      <trkpt lat="45.55901" lon="-0.96361">
        <ele>73.1</ele>
        <time>2022-08-11T10:36:39.495+02:00</time>
      </trkpt>
      <trkpt lat="45.55893" lon="-0.96347">
        <ele>72.8</ele>
        <time>2022-08-11T10:36:42.498+02:00</time>
      </trkpt>
      <trkpt lat="45.55885" lon="-0.96333">
        <ele>73</ele>
        <time>2022-08-11T10:36:45.49+02:00</time>
      </trkpt>
      <trkpt lat="45.55878" lon="-0.96317">
        <ele>73.6</ele>
        <time>2022-08-11T10:36:48.497+02:00</time>
      </trkpt>
      <trkpt lat="45.55873" lon="-0.96301">
        <ele>74</ele>
        <time>2022-08-11T10:36:51.493+02:00</time>
      </trkpt>
      <trkpt lat="45.5587" lon="-0.96286">
        <ele>73.4</ele>
        <time>2022-08-11T10:36:54.496+02:00</time>
      </trkpt>
      <trkpt lat="45.55863" lon="-0.96273">
        <ele>73.4</ele>
        <time>2022-08-11T10:36:57.487+02:00</time>
      </trkpt>
      <trkpt lat="45.55855" lon="-0.96266">
        <ele>73.5</ele>
        <time>2022-08-11T10:37:00.501+02:00</time>
      </trkpt>
      <trkpt lat="45.55846" lon="-0.96258">
        <ele>73.8</ele>
        <time>2022-08-11T10:37:03.497+02:00</time>
      </trkpt>
      <trkpt lat="45.55838" lon="-0.96251">
        <ele>74.4</ele>
        <time>2022-08-11T10:37:06.476+02:00</time>
      </trkpt>
      <trkpt lat="45.55829" lon="-0.96244">
        <ele>72.5</ele>
        <time>2022-08-11T10:37:09.484+02:00</time>
      </trkpt>
      <trkpt lat="45.5582" lon="-0.96237">
        <ele>75.2</ele>
        <time>2022-08-11T10:37:12.491+02:00</time>
      </trkpt>
      <trkpt lat="45.55812" lon="-0.9623">
        <ele>75.1</ele>
        <time>2022-08-11T10:37:15.485+02:00</time>
      </trkpt>
      <trkpt lat="45.55803" lon="-0.9622">
        <ele>72.4</ele>
        <time>2022-08-11T10:37:19.5+02:00</time>
      </trkpt>
      <trkpt lat="45.55794" lon="-0.96208">
        <ele>76</ele>
        <time>2022-08-11T10:37:23.493+02:00</time>
      </trkpt>
      <trkpt lat="45.55788" lon="-0.96194">
        <ele>76.1</ele>
        <time>2022-08-11T10:37:27.498+02:00</time>
      </trkpt>
      <trkpt lat="45.55783" lon="-0.96183">
        <ele>75.7</ele>
        <time>2022-08-11T10:37:30.496+02:00</time>
      </trkpt>
      <trkpt lat="45.55778" lon="-0.96172">
        <ele>75.7</ele>
        <time>2022-08-11T10:37:33.497+02:00</time>
      </trkpt>
      <trkpt lat="45.55773" lon="-0.96158">
        <ele>76.1</ele>
        <time>2022-08-11T10:37:37.497+02:00</time>
      </trkpt>
      <trkpt lat="45.55769" lon="-0.96146">
        <ele>75.2</ele>
        <time>2022-08-11T10:37:40.497+02:00</time>
      </trkpt>
      <trkpt lat="45.55764" lon="-0.96133">
        <ele>74.7</ele>
        <time>2022-08-11T10:37:43.489+02:00</time>
      </trkpt>
      <trkpt lat="45.55759" lon="-0.9612">
        <ele>74.7</ele>
        <time>2022-08-11T10:37:46.482+02:00</time>
      </trkpt>
      <trkpt lat="45.55755" lon="-0.96105">
        <ele>74.4</ele>
        <time>2022-08-11T10:37:49.491+02:00</time>
      </trkpt>
      <trkpt lat="45.55749" lon="-0.96089">
        <ele>74.5</ele>
        <time>2022-08-11T10:37:52.493+02:00</time>
      </trkpt>
      <trkpt lat="45.55744" lon="-0.96072">
        <ele>73.8</ele>
        <time>2022-08-11T10:37:55.505+02:00</time>
      </trkpt>
      <trkpt lat="45.5574" lon="-0.9606">
        <ele>73.8</ele>
        <time>2022-08-11T10:37:57.499+02:00</time>
      </trkpt>
      <trkpt lat="45.55736" lon="-0.96047">
        <ele>73.7</ele>
        <time>2022-08-11T10:37:59.489+02:00</time>
      </trkpt>
      <trkpt lat="45.55731" lon="-0.96035">
        <ele>73.3</ele>
        <time>2022-08-11T10:38:01.507+02:00</time>
      </trkpt>
      <trkpt lat="45.55727" lon="-0.96024">
        <ele>72.7</ele>
        <time>2022-08-11T10:38:03.491+02:00</time>
      </trkpt>
      <trkpt lat="45.55722" lon="-0.96011">
        <ele>72.6</ele>
        <time>2022-08-11T10:38:05.504+02:00</time>
      </trkpt>
      <trkpt lat="45.55718" lon="-0.95999">
        <ele>72.2</ele>
        <time>2022-08-11T10:38:07.49+02:00</time>
      </trkpt>
      <trkpt lat="45.55713" lon="-0.95986">
        <ele>72.2</ele>
        <time>2022-08-11T10:38:09.491+02:00</time>
      </trkpt>
      <trkpt lat="45.55708" lon="-0.95973">
        <ele>71.3</ele>
        <time>2022-08-11T10:38:11.5+02:00</time>
      </trkpt>
      <trkpt lat="45.55703" lon="-0.95959">
        <ele>71.1</ele>
        <time>2022-08-11T10:38:13.502+02:00</time>
      </trkpt>
      <trkpt lat="45.55698" lon="-0.95945">
        <ele>71</ele>
        <time>2022-08-11T10:38:15.505+02:00</time>
      </trkpt>
      <trkpt lat="45.55694" lon="-0.95933">
        <ele>70.8</ele>
        <time>2022-08-11T10:38:19.495+02:00</time>
      </trkpt>
      <trkpt lat="45.55683" lon="-0.9593">
        <ele>72.5</ele>
        <time>2022-08-11T10:38:26.473+02:00</time>
      </trkpt>
      <trkpt lat="45.55673" lon="-0.95927">
        <ele>71.4</ele>
        <time>2022-08-11T10:38:29.48+02:00</time>
      </trkpt>
      <trkpt lat="45.55662" lon="-0.95924">
        <ele>69.8</ele>
        <time>2022-08-11T10:38:32.479+02:00</time>
      </trkpt>
      <trkpt lat="45.5565" lon="-0.95919">
        <ele>70</ele>
        <time>2022-08-11T10:38:35.479+02:00</time>
      </trkpt>
      <trkpt lat="45.55642" lon="-0.95906">
        <ele>70.9</ele>
        <time>2022-08-11T10:38:38.478+02:00</time>
      </trkpt>
      <trkpt lat="45.55637" lon="-0.95895">
        <ele>70.9</ele>
        <time>2022-08-11T10:38:40.476+02:00</time>
      </trkpt>
      <trkpt lat="45.55634" lon="-0.95882">
        <ele>70.7</ele>
        <time>2022-08-11T10:38:42.479+02:00</time>
      </trkpt>
      <trkpt lat="45.55629" lon="-0.95869">
        <ele>70.6</ele>
        <time>2022-08-11T10:38:44.484+02:00</time>
      </trkpt>
      <trkpt lat="45.55623" lon="-0.95857">
        <ele>70.2</ele>
        <time>2022-08-11T10:38:46.472+02:00</time>
      </trkpt>
      <trkpt lat="45.55614" lon="-0.95847">
        <ele>70.1</ele>
        <time>2022-08-11T10:38:48.482+02:00</time>
      </trkpt>
      <trkpt lat="45.55606" lon="-0.95839">
        <ele>70.1</ele>
        <time>2022-08-11T10:38:50.478+02:00</time>
      </trkpt>
      <trkpt lat="45.55598" lon="-0.95831">
        <ele>69.4</ele>
        <time>2022-08-11T10:38:52.478+02:00</time>
      </trkpt>
      <trkpt lat="45.5559" lon="-0.95822">
        <ele>69</ele>
        <time>2022-08-11T10:38:54.493+02:00</time>
      </trkpt>
      <trkpt lat="45.55583" lon="-0.9581">
        <ele>69</ele>
        <time>2022-08-11T10:38:56.472+02:00</time>
      </trkpt>
      <trkpt lat="45.55576" lon="-0.95796">
        <ele>69.1</ele>
        <time>2022-08-11T10:38:58.479+02:00</time>
      </trkpt>
      <trkpt lat="45.5557" lon="-0.95782">
        <ele>69.1</ele>
        <time>2022-08-11T10:39:00.492+02:00</time>
      </trkpt>
      <trkpt lat="45.55564" lon="-0.95769">
        <ele>69.6</ele>
        <time>2022-08-11T10:39:02.479+02:00</time>
      </trkpt>
      <trkpt lat="45.55558" lon="-0.95759">
        <ele>69.4</ele>
        <time>2022-08-11T10:39:04.478+02:00</time>
      </trkpt>
      <trkpt lat="45.5555" lon="-0.95751">
        <ele>70</ele>
        <time>2022-08-11T10:39:06.472+02:00</time>
      </trkpt>
      <trkpt lat="45.5554" lon="-0.9574">
        <ele>70.1</ele>
        <time>2022-08-11T10:39:09.475+02:00</time>
      </trkpt>
      <trkpt lat="45.55535" lon="-0.95729">
        <ele>69.6</ele>
        <time>2022-08-11T10:39:12.472+02:00</time>
      </trkpt>
      <trkpt lat="45.5553" lon="-0.95715">
        <ele>69.8</ele>
        <time>2022-08-11T10:39:16.471+02:00</time>
      </trkpt>
      <trkpt lat="45.55523" lon="-0.95706">
        <ele>69.6</ele>
        <time>2022-08-11T10:39:20.478+02:00</time>
      </trkpt>
      <trkpt lat="45.55517" lon="-0.95695">
        <ele>69.5</ele>
        <time>2022-08-11T10:39:24.488+02:00</time>
      </trkpt>
      <trkpt lat="45.55511" lon="-0.95684">
        <ele>70.6</ele>
        <time>2022-08-11T10:39:29.47+02:00</time>
      </trkpt>
      <trkpt lat="45.55508" lon="-0.9567">
        <ele>69.9</ele>
        <time>2022-08-11T10:39:34.481+02:00</time>
      </trkpt>
      <trkpt lat="45.55504" lon="-0.95656">
        <ele>69.6</ele>
        <time>2022-08-11T10:39:39.476+02:00</time>
      </trkpt>
      <trkpt lat="45.55502" lon="-0.95642">
        <ele>69.5</ele>
        <time>2022-08-11T10:39:44.493+02:00</time>
      </trkpt>
      <trkpt lat="45.55509" lon="-0.95634">
        <ele>69.2</ele>
        <time>2022-08-11T10:39:50.495+02:00</time>
      </trkpt>
      <trkpt lat="45.55517" lon="-0.95628">
        <ele>69.3</ele>
        <time>2022-08-11T10:39:54.49+02:00</time>
      </trkpt>
      <trkpt lat="45.55525" lon="-0.9562">
        <ele>69.9</ele>
        <time>2022-08-11T10:39:58.497+02:00</time>
      </trkpt>
      <trkpt lat="45.55531" lon="-0.95608">
        <ele>69.7</ele>
        <time>2022-08-11T10:40:02.49+02:00</time>
      </trkpt>
      <trkpt lat="45.55529" lon="-0.95596">
        <ele>68.1</ele>
        <time>2022-08-11T10:40:05.488+02:00</time>
      </trkpt>
      <trkpt lat="45.55524" lon="-0.95583">
        <ele>68.1</ele>
        <time>2022-08-11T10:40:08.497+02:00</time>
      </trkpt>
      <trkpt lat="45.55518" lon="-0.9557">
        <ele>68.2</ele>
        <time>2022-08-11T10:40:11.495+02:00</time>
      </trkpt>
      <trkpt lat="45.55513" lon="-0.95558">
        <ele>68.3</ele>
        <time>2022-08-11T10:40:14.49+02:00</time>
      </trkpt>
      <trkpt lat="45.55507" lon="-0.95546">
        <ele>68</ele>
        <time>2022-08-11T10:40:17.49+02:00</time>
      </trkpt>
      <trkpt lat="45.55502" lon="-0.95535">
        <ele>69.6</ele>
        <time>2022-08-11T10:40:20.476+02:00</time>
      </trkpt>
      <trkpt lat="45.55497" lon="-0.95522">
        <ele>67.6</ele>
        <time>2022-08-11T10:40:24.476+02:00</time>
      </trkpt>
      <trkpt lat="45.55493" lon="-0.9551">
        <ele>66.7</ele>
        <time>2022-08-11T10:40:27.475+02:00</time>
      </trkpt>
      <trkpt lat="45.55488" lon="-0.95496">
        <ele>66.4</ele>
        <time>2022-08-11T10:40:30.468+02:00</time>
      </trkpt>
      <trkpt lat="45.55482" lon="-0.95478">
        <ele>65.2</ele>
        <time>2022-08-11T10:40:33.482+02:00</time>
      </trkpt>
      <trkpt lat="45.55478" lon="-0.95465">
        <ele>64.7</ele>
        <time>2022-08-11T10:40:35.499+02:00</time>
      </trkpt>
      <trkpt lat="45.55472" lon="-0.95452">
        <ele>65.6</ele>
        <time>2022-08-11T10:40:37.483+02:00</time>
      </trkpt>
      <trkpt lat="45.55467" lon="-0.9544">
        <ele>65.3</ele>
        <time>2022-08-11T10:40:39.499+02:00</time>
      </trkpt>
      <trkpt lat="45.5546" lon="-0.95427">
        <ele>66.9</ele>
        <time>2022-08-11T10:40:42.491+02:00</time>
      </trkpt>
      <trkpt lat="45.55454" lon="-0.95415">
        <ele>66.6</ele>
        <time>2022-08-11T10:40:45.498+02:00</time>
      </trkpt>
      <trkpt lat="45.55448" lon="-0.95401">
        <ele>65.4</ele>
        <time>2022-08-11T10:40:48.496+02:00</time>
      </trkpt>
      <trkpt lat="45.55443" lon="-0.95389">
        <ele>65.1</ele>
        <time>2022-08-11T10:40:50.492+02:00</time>
      </trkpt>
      <trkpt lat="45.55436" lon="-0.9538">
        <ele>65.9</ele>
        <time>2022-08-11T10:40:52.497+02:00</time>
      </trkpt>
      <trkpt lat="45.55425" lon="-0.95377">
        <ele>65.7</ele>
        <time>2022-08-11T10:40:55.504+02:00</time>
      </trkpt>
      <trkpt lat="45.55418" lon="-0.95363">
        <ele>64.5</ele>
        <time>2022-08-11T10:40:58.496+02:00</time>
      </trkpt>
      <trkpt lat="45.55415" lon="-0.95347">
        <ele>65.3</ele>
        <time>2022-08-11T10:41:01.5+02:00</time>
      </trkpt>
      <trkpt lat="45.55412" lon="-0.95333">
        <ele>66.4</ele>
        <time>2022-08-11T10:41:04.481+02:00</time>
      </trkpt>
      <trkpt lat="45.5541" lon="-0.95319">
        <ele>65.8</ele>
        <time>2022-08-11T10:41:07.498+02:00</time>
      </trkpt>
      <trkpt lat="45.55407" lon="-0.95302">
        <ele>65.6</ele>
        <time>2022-08-11T10:41:10.495+02:00</time>
      </trkpt>
      <trkpt lat="45.55401" lon="-0.95285">
        <ele>65.3</ele>
        <time>2022-08-11T10:41:13.49+02:00</time>
      </trkpt>
      <trkpt lat="45.55395" lon="-0.95273">
        <ele>65.1</ele>
        <time>2022-08-11T10:41:15.499+02:00</time>
      </trkpt>
      <trkpt lat="45.5539" lon="-0.95262">
        <ele>65.1</ele>
        <time>2022-08-11T10:41:17.482+02:00</time>
      </trkpt>
      <trkpt lat="45.55385" lon="-0.95251">
        <ele>64.9</ele>
        <time>2022-08-11T10:41:19.498+02:00</time>
      </trkpt>
      <trkpt lat="45.55377" lon="-0.95236">
        <ele>65.1</ele>
        <time>2022-08-11T10:41:22.49+02:00</time>
      </trkpt>
      <trkpt lat="45.55371" lon="-0.95225">
        <ele>65.3</ele>
        <time>2022-08-11T10:41:24.507+02:00</time>
      </trkpt>
      <trkpt lat="45.55365" lon="-0.95214">
        <ele>65.8</ele>
        <time>2022-08-11T10:41:26.49+02:00</time>
      </trkpt>
      <trkpt lat="45.55357" lon="-0.95199">
        <ele>65.6</ele>
        <time>2022-08-11T10:41:29.495+02:00</time>
      </trkpt>
      <trkpt lat="45.55352" lon="-0.95189">
        <ele>65.9</ele>
        <time>2022-08-11T10:41:31.502+02:00</time>
      </trkpt>
      <trkpt lat="45.55346" lon="-0.95177">
        <ele>66.2</ele>
        <time>2022-08-11T10:41:33.501+02:00</time>
      </trkpt>
      <trkpt lat="45.55341" lon="-0.95166">
        <ele>65.8</ele>
        <time>2022-08-11T10:41:35.498+02:00</time>
      </trkpt>
      <trkpt lat="45.55335" lon="-0.95155">
        <ele>67.8</ele>
        <time>2022-08-11T10:41:37.492+02:00</time>
      </trkpt>
      <trkpt lat="45.5533" lon="-0.95143">
        <ele>66.8</ele>
        <time>2022-08-11T10:41:39.496+02:00</time>
      </trkpt>
      <trkpt lat="45.55325" lon="-0.95131">
        <ele>66.2</ele>
        <time>2022-08-11T10:41:41.488+02:00</time>
      </trkpt>
      <trkpt lat="45.5532" lon="-0.95119">
        <ele>65.7</ele>
        <time>2022-08-11T10:41:43.494+02:00</time>
      </trkpt>
      <trkpt lat="45.55317" lon="-0.95106">
        <ele>65.4</ele>
        <time>2022-08-11T10:41:45.496+02:00</time>
      </trkpt>
      <trkpt lat="45.55314" lon="-0.95094">
        <ele>65.1</ele>
        <time>2022-08-11T10:41:47.486+02:00</time>
      </trkpt>
      <trkpt lat="45.5531" lon="-0.95082">
        <ele>65.1</ele>
        <time>2022-08-11T10:41:49.484+02:00</time>
      </trkpt>
      <trkpt lat="45.55307" lon="-0.95069">
        <ele>65.2</ele>
        <time>2022-08-11T10:41:51.498+02:00</time>
      </trkpt>
      <trkpt lat="45.55303" lon="-0.95057">
        <ele>65</ele>
        <time>2022-08-11T10:41:53.497+02:00</time>
      </trkpt>
      <trkpt lat="45.553" lon="-0.95044">
        <ele>65</ele>
        <time>2022-08-11T10:41:55.499+02:00</time>
      </trkpt>
      <trkpt lat="45.55296" lon="-0.95027">
        <ele>64.8</ele>
        <time>2022-08-11T10:41:58.497+02:00</time>
      </trkpt>
      <trkpt lat="45.55291" lon="-0.9501">
        <ele>64.7</ele>
        <time>2022-08-11T10:42:01.498+02:00</time>
      </trkpt>
      <trkpt lat="45.55287" lon="-0.94993">
        <ele>64.8</ele>
        <time>2022-08-11T10:42:04.499+02:00</time>
      </trkpt>
      <trkpt lat="45.55282" lon="-0.94977">
        <ele>65</ele>
        <time>2022-08-11T10:42:07.493+02:00</time>
      </trkpt>
      <trkpt lat="45.55276" lon="-0.9496">
        <ele>64.9</ele>
        <time>2022-08-11T10:42:10.495+02:00</time>
      </trkpt>
      <trkpt lat="45.55272" lon="-0.94945">
        <ele>65</ele>
        <time>2022-08-11T10:42:13.495+02:00</time>
      </trkpt>
      <trkpt lat="45.55267" lon="-0.94931">
        <ele>64.6</ele>
        <time>2022-08-11T10:42:16.498+02:00</time>
      </trkpt>
      <trkpt lat="45.55263" lon="-0.94916">
        <ele>64.5</ele>
        <time>2022-08-11T10:42:19.495+02:00</time>
      </trkpt>
      <trkpt lat="45.55259" lon="-0.94899">
        <ele>64.6</ele>
        <time>2022-08-11T10:42:22.494+02:00</time>
      </trkpt>
      <trkpt lat="45.55254" lon="-0.94882">
        <ele>64.5</ele>
        <time>2022-08-11T10:42:25.491+02:00</time>
      </trkpt>
      <trkpt lat="45.5525" lon="-0.94866">
        <ele>64.5</ele>
        <time>2022-08-11T10:42:28.495+02:00</time>
      </trkpt>
      <trkpt lat="45.55246" lon="-0.94849">
        <ele>64.4</ele>
        <time>2022-08-11T10:42:31.497+02:00</time>
      </trkpt>
      <trkpt lat="45.5524" lon="-0.94831">
        <ele>64.2</ele>
        <time>2022-08-11T10:42:34.488+02:00</time>
      </trkpt>
      <trkpt lat="45.55235" lon="-0.94813">
        <ele>64.2</ele>
        <time>2022-08-11T10:42:37.492+02:00</time>
      </trkpt>
      <trkpt lat="45.5523" lon="-0.94797">
        <ele>64</ele>
        <time>2022-08-11T10:42:40.492+02:00</time>
      </trkpt>
      <trkpt lat="45.55226" lon="-0.9478">
        <ele>63.9</ele>
        <time>2022-08-11T10:42:43.493+02:00</time>
      </trkpt>
      <trkpt lat="45.5522" lon="-0.94764">
        <ele>64</ele>
        <time>2022-08-11T10:42:46.492+02:00</time>
      </trkpt>
      <trkpt lat="45.55215" lon="-0.94746">
        <ele>63.6</ele>
        <time>2022-08-11T10:42:49.492+02:00</time>
      </trkpt>
      <trkpt lat="45.55211" lon="-0.94733">
        <ele>63.2</ele>
        <time>2022-08-11T10:42:51.497+02:00</time>
      </trkpt>
      <trkpt lat="45.55208" lon="-0.9472">
        <ele>62.9</ele>
        <time>2022-08-11T10:42:53.498+02:00</time>
      </trkpt>
      <trkpt lat="45.55206" lon="-0.94706">
        <ele>62.9</ele>
        <time>2022-08-11T10:42:55.492+02:00</time>
      </trkpt>
      <trkpt lat="45.55204" lon="-0.94692">
        <ele>62.8</ele>
        <time>2022-08-11T10:42:57.485+02:00</time>
      </trkpt>
      <trkpt lat="45.55203" lon="-0.94679">
        <ele>62.6</ele>
        <time>2022-08-11T10:42:59.492+02:00</time>
      </trkpt>
      <trkpt lat="45.55202" lon="-0.94666">
        <ele>62.4</ele>
        <time>2022-08-11T10:43:01.505+02:00</time>
      </trkpt>
      <trkpt lat="45.552" lon="-0.94647">
        <ele>61.9</ele>
        <time>2022-08-11T10:43:04.499+02:00</time>
      </trkpt>
      <trkpt lat="45.55201" lon="-0.94634">
        <ele>61.4</ele>
        <time>2022-08-11T10:43:06.493+02:00</time>
      </trkpt>
      <trkpt lat="45.55203" lon="-0.9462">
        <ele>61.2</ele>
        <time>2022-08-11T10:43:08.502+02:00</time>
      </trkpt>
      <trkpt lat="45.55208" lon="-0.94609">
        <ele>60.8</ele>
        <time>2022-08-11T10:43:10.498+02:00</time>
      </trkpt>
      <trkpt lat="45.55214" lon="-0.94597">
        <ele>60.2</ele>
        <time>2022-08-11T10:43:12.5+02:00</time>
      </trkpt>
      <trkpt lat="45.55219" lon="-0.94583">
        <ele>60.8</ele>
        <time>2022-08-11T10:43:14.495+02:00</time>
      </trkpt>
      <trkpt lat="45.55222" lon="-0.94566">
        <ele>59.6</ele>
        <time>2022-08-11T10:43:16.475+02:00</time>
      </trkpt>
      <trkpt lat="45.55224" lon="-0.94549">
        <ele>58.1</ele>
        <time>2022-08-11T10:43:18.493+02:00</time>
      </trkpt>
      <trkpt lat="45.55227" lon="-0.94532">
        <ele>57.3</ele>
        <time>2022-08-11T10:43:20.497+02:00</time>
      </trkpt>
      <trkpt lat="45.55229" lon="-0.94514">
        <ele>56.4</ele>
        <time>2022-08-11T10:43:22.492+02:00</time>
      </trkpt>
      <trkpt lat="45.5523" lon="-0.94496">
        <ele>55.9</ele>
        <time>2022-08-11T10:43:24.491+02:00</time>
      </trkpt>
      <trkpt lat="45.55231" lon="-0.94478">
        <ele>55.4</ele>
        <time>2022-08-11T10:43:26.482+02:00</time>
      </trkpt>
      <trkpt lat="45.55233" lon="-0.94461">
        <ele>55</ele>
        <time>2022-08-11T10:43:28.478+02:00</time>
      </trkpt>
      <trkpt lat="45.55235" lon="-0.94445">
        <ele>54.7</ele>
        <time>2022-08-11T10:43:30.481+02:00</time>
      </trkpt>
      <trkpt lat="45.5524" lon="-0.94428">
        <ele>54.5</ele>
        <time>2022-08-11T10:43:33.487+02:00</time>
      </trkpt>
      <trkpt lat="45.55248" lon="-0.94422">
        <ele>54.7</ele>
        <time>2022-08-11T10:43:35.505+02:00</time>
      </trkpt>
      <trkpt lat="45.55258" lon="-0.94419">
        <ele>54.7</ele>
        <time>2022-08-11T10:43:37.491+02:00</time>
      </trkpt>
      <trkpt lat="45.55267" lon="-0.9442">
        <ele>59.5</ele>
        <time>2022-08-11T10:43:39.496+02:00</time>
      </trkpt>
      <trkpt lat="45.55277" lon="-0.94423">
        <ele>57.5</ele>
        <time>2022-08-11T10:43:41.502+02:00</time>
      </trkpt>
      <trkpt lat="45.55285" lon="-0.94429">
        <ele>56.9</ele>
        <time>2022-08-11T10:43:43.486+02:00</time>
      </trkpt>
      <trkpt lat="45.55296" lon="-0.94438">
        <ele>56.5</ele>
        <time>2022-08-11T10:43:46.494+02:00</time>
      </trkpt>
      <trkpt lat="45.55307" lon="-0.94448">
        <ele>55.9</ele>
        <time>2022-08-11T10:43:49.495+02:00</time>
      </trkpt>
      <trkpt lat="45.55315" lon="-0.94455">
        <ele>55.9</ele>
        <time>2022-08-11T10:43:51.494+02:00</time>
      </trkpt>
      <trkpt lat="45.55324" lon="-0.94469">
        <ele>55.2</ele>
        <time>2022-08-11T10:43:54.489+02:00</time>
      </trkpt>
      <trkpt lat="45.5533" lon="-0.94481">
        <ele>55.5</ele>
        <time>2022-08-11T10:43:56.491+02:00</time>
      </trkpt>
      <trkpt lat="45.55338" lon="-0.94494">
        <ele>54.2</ele>
        <time>2022-08-11T10:43:58.508+02:00</time>
      </trkpt>
      <trkpt lat="45.55348" lon="-0.94506">
        <ele>53.3</ele>
        <time>2022-08-11T10:44:00.501+02:00</time>
      </trkpt>
      <trkpt lat="45.5536" lon="-0.94513">
        <ele>53.1</ele>
        <time>2022-08-11T10:44:02.495+02:00</time>
      </trkpt>
      <trkpt lat="45.55372" lon="-0.94519">
        <ele>52.1</ele>
        <time>2022-08-11T10:44:04.495+02:00</time>
      </trkpt>
      <trkpt lat="45.55383" lon="-0.94525">
        <ele>51</ele>
        <time>2022-08-11T10:44:06.493+02:00</time>
      </trkpt>
      <trkpt lat="45.55395" lon="-0.94522">
        <ele>50.2</ele>
        <time>2022-08-11T10:44:08.497+02:00</time>
      </trkpt>
      <trkpt lat="45.55404" lon="-0.94512">
        <ele>50.3</ele>
        <time>2022-08-11T10:44:10.488+02:00</time>
      </trkpt>
      <trkpt lat="45.55409" lon="-0.945">
        <ele>50.8</ele>
        <time>2022-08-11T10:44:12.498+02:00</time>
      </trkpt>
      <trkpt lat="45.55416" lon="-0.94489">
        <ele>50.8</ele>
        <time>2022-08-11T10:44:15.496+02:00</time>
      </trkpt>
      <trkpt lat="45.55427" lon="-0.94493">
        <ele>51.3</ele>
        <time>2022-08-11T10:44:19.494+02:00</time>
      </trkpt>
      <trkpt lat="45.55435" lon="-0.94502">
        <ele>52</ele>
        <time>2022-08-11T10:44:23.489+02:00</time>
      </trkpt>
      <trkpt lat="45.55443" lon="-0.9451">
        <ele>52.2</ele>
        <time>2022-08-11T10:44:27.49+02:00</time>
      </trkpt>
      <trkpt lat="45.55453" lon="-0.94516">
        <ele>52.6</ele>
        <time>2022-08-11T10:44:31.502+02:00</time>
      </trkpt>
      <trkpt lat="45.55462" lon="-0.94522">
        <ele>51.8</ele>
        <time>2022-08-11T10:44:35.482+02:00</time>
      </trkpt>
      <trkpt lat="45.55471" lon="-0.94529">
        <ele>52.4</ele>
        <time>2022-08-11T10:44:39.483+02:00</time>
      </trkpt>
      <trkpt lat="45.55479" lon="-0.94535">
        <ele>52.1</ele>
        <time>2022-08-11T10:44:43.496+02:00</time>
      </trkpt>
      <trkpt lat="45.55487" lon="-0.94543">
        <ele>52.6</ele>
        <time>2022-08-11T10:44:48.494+02:00</time>
      </trkpt>
      <trkpt lat="45.55497" lon="-0.94549">
        <ele>52.4</ele>
        <time>2022-08-11T10:44:53.495+02:00</time>
      </trkpt>
      <trkpt lat="45.55505" lon="-0.94557">
        <ele>52.8</ele>
        <time>2022-08-11T10:44:58.468+02:00</time>
      </trkpt>
      <trkpt lat="45.55508" lon="-0.94571">
        <ele>53.1</ele>
        <time>2022-08-11T10:45:02.473+02:00</time>
      </trkpt>
      <trkpt lat="45.55508" lon="-0.94584">
        <ele>52.9</ele>
        <time>2022-08-11T10:45:05.466+02:00</time>
      </trkpt>
      <trkpt lat="45.55509" lon="-0.946">
        <ele>54.8</ele>
        <time>2022-08-11T10:45:09.469+02:00</time>
      </trkpt>
      <trkpt lat="45.55509" lon="-0.94614">
        <ele>53.8</ele>
        <time>2022-08-11T10:45:12.496+02:00</time>
      </trkpt>
      <trkpt lat="45.55509" lon="-0.94628">
        <ele>53.3</ele>
        <time>2022-08-11T10:45:15.484+02:00</time>
      </trkpt>
      <trkpt lat="45.55511" lon="-0.94642">
        <ele>53.4</ele>
        <time>2022-08-11T10:45:18.49+02:00</time>
      </trkpt>
      <trkpt lat="45.55514" lon="-0.94656">
        <ele>53.8</ele>
        <time>2022-08-11T10:45:21.502+02:00</time>
      </trkpt>
      <trkpt lat="45.55516" lon="-0.9467">
        <ele>54</ele>
        <time>2022-08-11T10:45:24.47+02:00</time>
      </trkpt>
      <trkpt lat="45.55517" lon="-0.94684">
        <ele>57.6</ele>
        <time>2022-08-11T10:45:27.473+02:00</time>
      </trkpt>
      <trkpt lat="45.55521" lon="-0.94698">
        <ele>55.2</ele>
        <time>2022-08-11T10:45:30.479+02:00</time>
      </trkpt>
      <trkpt lat="45.55524" lon="-0.94713">
        <ele>54.2</ele>
        <time>2022-08-11T10:45:33.483+02:00</time>
      </trkpt>
      <trkpt lat="45.55527" lon="-0.94728">
        <ele>53.9</ele>
        <time>2022-08-11T10:45:36.491+02:00</time>
      </trkpt>
      <trkpt lat="45.55529" lon="-0.94743">
        <ele>53.7</ele>
        <time>2022-08-11T10:45:39.501+02:00</time>
      </trkpt>
      <trkpt lat="45.55532" lon="-0.94757">
        <ele>53.8</ele>
        <time>2022-08-11T10:45:42.488+02:00</time>
      </trkpt>
      <trkpt lat="45.55536" lon="-0.94771">
        <ele>53.7</ele>
        <time>2022-08-11T10:45:45.507+02:00</time>
      </trkpt>
      <trkpt lat="45.55539" lon="-0.94787">
        <ele>53.3</ele>
        <time>2022-08-11T10:45:48.498+02:00</time>
      </trkpt>
      <trkpt lat="45.55542" lon="-0.94803">
        <ele>53.8</ele>
        <time>2022-08-11T10:45:51.496+02:00</time>
      </trkpt>
      <trkpt lat="45.55546" lon="-0.94819">
        <ele>54.1</ele>
        <time>2022-08-11T10:45:54.496+02:00</time>
      </trkpt>
      <trkpt lat="45.55548" lon="-0.94834">
        <ele>54.1</ele>
        <time>2022-08-11T10:45:57.49+02:00</time>
      </trkpt>
      <trkpt lat="45.55551" lon="-0.94847">
        <ele>54.3</ele>
        <time>2022-08-11T10:46:00.495+02:00</time>
      </trkpt>
      <trkpt lat="45.55553" lon="-0.94859">
        <ele>54.4</ele>
        <time>2022-08-11T10:46:03.493+02:00</time>
      </trkpt>
      <trkpt lat="45.55556" lon="-0.94872">
        <ele>54.8</ele>
        <time>2022-08-11T10:46:06.496+02:00</time>
      </trkpt>
      <trkpt lat="45.55561" lon="-0.94883">
        <ele>54.7</ele>
        <time>2022-08-11T10:46:09.468+02:00</time>
      </trkpt>
      <trkpt lat="45.55565" lon="-0.94895">
        <ele>54.5</ele>
        <time>2022-08-11T10:46:12.48+02:00</time>
      </trkpt>
      <trkpt lat="45.5557" lon="-0.94909">
        <ele>54.2</ele>
        <time>2022-08-11T10:46:16.496+02:00</time>
      </trkpt>
      <trkpt lat="45.55576" lon="-0.94923">
        <ele>53.9</ele>
        <time>2022-08-11T10:46:20.494+02:00</time>
      </trkpt>
      <trkpt lat="45.55586" lon="-0.94929">
        <ele>54.1</ele>
        <time>2022-08-11T10:46:24.484+02:00</time>
      </trkpt>
      <trkpt lat="45.55597" lon="-0.94923">
        <ele>59.2</ele>
        <time>2022-08-11T10:46:28.488+02:00</time>
      </trkpt>
      <trkpt lat="45.55606" lon="-0.94917">
        <ele>55.1</ele>
        <time>2022-08-11T10:46:31.497+02:00</time>
      </trkpt>
      <trkpt lat="45.55615" lon="-0.9491">
        <ele>53.9</ele>
        <time>2022-08-11T10:46:34.496+02:00</time>
      </trkpt>
      <trkpt lat="45.55624" lon="-0.94906">
        <ele>53.6</ele>
        <time>2022-08-11T10:46:37.478+02:00</time>
      </trkpt>
      <trkpt lat="45.55633" lon="-0.94902">
        <ele>53</ele>
        <time>2022-08-11T10:46:40.497+02:00</time>
      </trkpt>
      <trkpt lat="45.55643" lon="-0.94898">
        <ele>52.8</ele>
        <time>2022-08-11T10:46:43.488+02:00</time>
      </trkpt>
      <trkpt lat="45.55653" lon="-0.94893">
        <ele>52.1</ele>
        <time>2022-08-11T10:46:46.488+02:00</time>
      </trkpt>
      <trkpt lat="45.55664" lon="-0.9489">
        <ele>51.7</ele>
        <time>2022-08-11T10:46:49.499+02:00</time>
      </trkpt>
      <trkpt lat="45.55675" lon="-0.94885">
        <ele>51.1</ele>
        <time>2022-08-11T10:46:52.482+02:00</time>
      </trkpt>
      <trkpt lat="45.55685" lon="-0.9488">
        <ele>50.8</ele>
        <time>2022-08-11T10:46:56.497+02:00</time>
      </trkpt>
      <trkpt lat="45.55689" lon="-0.94867">
        <ele>51.1</ele>
        <time>2022-08-11T10:47:00.471+02:00</time>
      </trkpt>
      <trkpt lat="45.55687" lon="-0.94854">
        <ele>50.8</ele>
        <time>2022-08-11T10:47:03.49+02:00</time>
      </trkpt>
      <trkpt lat="45.55685" lon="-0.94839">
        <ele>50.5</ele>
        <time>2022-08-11T10:47:06.478+02:00</time>
      </trkpt>
      <trkpt lat="45.55684" lon="-0.94825">
        <ele>50.3</ele>
        <time>2022-08-11T10:47:09.506+02:00</time>
      </trkpt>
      <trkpt lat="45.55681" lon="-0.94812">
        <ele>50.8</ele>
        <time>2022-08-11T10:47:12.494+02:00</time>
      </trkpt>
      <trkpt lat="45.55675" lon="-0.94799">
        <ele>51.2</ele>
        <time>2022-08-11T10:47:15.505+02:00</time>
      </trkpt>
      <trkpt lat="45.55669" lon="-0.94786">
        <ele>51</ele>
        <time>2022-08-11T10:47:18.493+02:00</time>
      </trkpt>
      <trkpt lat="45.55661" lon="-0.94773">
        <ele>50.7</ele>
        <time>2022-08-11T10:47:21.488+02:00</time>
      </trkpt>
      <trkpt lat="45.55652" lon="-0.94761">
        <ele>50.6</ele>
        <time>2022-08-11T10:47:24.489+02:00</time>
      </trkpt>
      <trkpt lat="45.55643" lon="-0.94749">
        <ele>50.8</ele>
        <time>2022-08-11T10:47:27.481+02:00</time>
      </trkpt>
      <trkpt lat="45.55636" lon="-0.94738">
        <ele>51</ele>
        <time>2022-08-11T10:47:30.495+02:00</time>
      </trkpt>
      <trkpt lat="45.5563" lon="-0.94723">
        <ele>51.2</ele>
        <time>2022-08-11T10:47:33.495+02:00</time>
      </trkpt>
      <trkpt lat="45.55625" lon="-0.94706">
        <ele>51.2</ele>
        <time>2022-08-11T10:47:36.489+02:00</time>
      </trkpt>
      <trkpt lat="45.55623" lon="-0.9469">
        <ele>51.3</ele>
        <time>2022-08-11T10:47:39.494+02:00</time>
      </trkpt>
      <trkpt lat="45.5562" lon="-0.94675">
        <ele>51</ele>
        <time>2022-08-11T10:47:42.492+02:00</time>
      </trkpt>
      <trkpt lat="45.55617" lon="-0.94661">
        <ele>51.2</ele>
        <time>2022-08-11T10:47:45.499+02:00</time>
      </trkpt>
      <trkpt lat="45.55614" lon="-0.94648">
        <ele>51.1</ele>
        <time>2022-08-11T10:47:48.487+02:00</time>
      </trkpt>
      <trkpt lat="45.55611" lon="-0.94634">
        <ele>51.3</ele>
        <time>2022-08-11T10:47:52.491+02:00</time>
      </trkpt>
      <trkpt lat="45.55606" lon="-0.94619">
        <ele>51.8</ele>
        <time>2022-08-11T10:47:56.49+02:00</time>
      </trkpt>
      <trkpt lat="45.55601" lon="-0.94606">
        <ele>51.8</ele>
        <time>2022-08-11T10:47:59.474+02:00</time>
      </trkpt>
      <trkpt lat="45.55596" lon="-0.94592">
        <ele>51.6</ele>
        <time>2022-08-11T10:48:02.491+02:00</time>
      </trkpt>
      <trkpt lat="45.55591" lon="-0.94578">
        <ele>51.7</ele>
        <time>2022-08-11T10:48:05.489+02:00</time>
      </trkpt>
      <trkpt lat="45.55584" lon="-0.94565">
        <ele>51.8</ele>
        <time>2022-08-11T10:48:08.491+02:00</time>
      </trkpt>
      <trkpt lat="45.55576" lon="-0.94555">
        <ele>51.5</ele>
        <time>2022-08-11T10:48:11.495+02:00</time>
      </trkpt>
      <trkpt lat="45.55568" lon="-0.94545">
        <ele>51.5</ele>
        <time>2022-08-11T10:48:14.499+02:00</time>
      </trkpt>
      <trkpt lat="45.55558" lon="-0.94536">
        <ele>51.9</ele>
        <time>2022-08-11T10:48:17.49+02:00</time>
      </trkpt>
      <trkpt lat="45.55549" lon="-0.94529">
        <ele>52</ele>
        <time>2022-08-11T10:48:20.495+02:00</time>
      </trkpt>
      <trkpt lat="45.5554" lon="-0.94523">
        <ele>52.1</ele>
        <time>2022-08-11T10:48:23.491+02:00</time>
      </trkpt>
      <trkpt lat="45.55531" lon="-0.94519">
        <ele>51.9</ele>
        <time>2022-08-11T10:48:26.494+02:00</time>
      </trkpt>
      <trkpt lat="45.55519" lon="-0.94512">
        <ele>51.7</ele>
        <time>2022-08-11T10:48:30.493+02:00</time>
      </trkpt>
      <trkpt lat="45.55512" lon="-0.94505">
        <ele>51.9</ele>
        <time>2022-08-11T10:48:33.5+02:00</time>
      </trkpt>
      <trkpt lat="45.55507" lon="-0.94492">
        <ele>52.2</ele>
        <time>2022-08-11T10:48:37.486+02:00</time>
      </trkpt>
      <trkpt lat="45.55514" lon="-0.9448">
        <ele>53.4</ele>
        <time>2022-08-11T10:48:41.486+02:00</time>
      </trkpt>
      <trkpt lat="45.55522" lon="-0.94473">
        <ele>53.4</ele>
        <time>2022-08-11T10:48:44.489+02:00</time>
      </trkpt>
      <trkpt lat="45.5553" lon="-0.94466">
        <ele>53.1</ele>
        <time>2022-08-11T10:48:47.487+02:00</time>
      </trkpt>
      <trkpt lat="45.55538" lon="-0.94456">
        <ele>53.2</ele>
        <time>2022-08-11T10:48:50.488+02:00</time>
      </trkpt>
      <trkpt lat="45.55546" lon="-0.94448">
        <ele>52.8</ele>
        <time>2022-08-11T10:48:53.486+02:00</time>
      </trkpt>
      <trkpt lat="45.55552" lon="-0.94437">
        <ele>52.6</ele>
        <time>2022-08-11T10:48:56.492+02:00</time>
      </trkpt>
      <trkpt lat="45.55559" lon="-0.94424">
        <ele>52.5</ele>
        <time>2022-08-11T10:49:00.486+02:00</time>
      </trkpt>
      <trkpt lat="45.55562" lon="-0.94412">
        <ele>51.9</ele>
        <time>2022-08-11T10:49:03.497+02:00</time>
      </trkpt>
      <trkpt lat="45.55558" lon="-0.94397">
        <ele>52.3</ele>
        <time>2022-08-11T10:49:06.49+02:00</time>
      </trkpt>
      <trkpt lat="45.55553" lon="-0.94385">
        <ele>51.5</ele>
        <time>2022-08-11T10:49:09.5+02:00</time>
      </trkpt>
      <trkpt lat="45.55548" lon="-0.94373">
        <ele>51.1</ele>
        <time>2022-08-11T10:49:12.488+02:00</time>
      </trkpt>
      <trkpt lat="45.55542" lon="-0.94362">
        <ele>51</ele>
        <time>2022-08-11T10:49:15.494+02:00</time>
      </trkpt>
      <trkpt lat="45.55537" lon="-0.9435">
        <ele>50.9</ele>
        <time>2022-08-11T10:49:18.491+02:00</time>
      </trkpt>
      <trkpt lat="45.55538" lon="-0.94334">
        <ele>51.2</ele>
        <time>2022-08-11T10:49:22.492+02:00</time>
      </trkpt>
      <trkpt lat="45.55543" lon="-0.9432">
        <ele>51.1</ele>
        <time>2022-08-11T10:49:26.497+02:00</time>
      </trkpt>
      <trkpt lat="45.55551" lon="-0.94307">
        <ele>50.7</ele>
        <time>2022-08-11T10:49:30.49+02:00</time>
      </trkpt>
      <trkpt lat="45.55559" lon="-0.94295">
        <ele>50.4</ele>
        <time>2022-08-11T10:49:34.491+02:00</time>
      </trkpt>
      <trkpt lat="45.55567" lon="-0.94287">
        <ele>49.8</ele>
        <time>2022-08-11T10:49:39.504+02:00</time>
      </trkpt>
      <trkpt lat="45.5557" lon="-0.94282">
        <ele>49.2</ele>
        <time>2022-08-11T10:49:44.494+02:00</time>
      </trkpt>
      <trkpt lat="45.5557" lon="-0.94281">
        <ele>49.1</ele>
        <time>2022-08-11T10:49:45.508+02:00</time>
      </trkpt>
      <trkpt lat="45.5557" lon="-0.94282">
        <ele>48.9</ele>
        <time>2022-08-11T10:49:46.492+02:00</time>
      </trkpt>
      <trkpt lat="45.5557" lon="-0.94282">
        <ele>48.7</ele>
        <time>2022-08-11T10:49:47.493+02:00</time>
      </trkpt>
      <trkpt lat="45.5557" lon="-0.94281">
        <ele>48.5</ele>
        <time>2022-08-11T10:52:04.473+02:00</time>
      </trkpt>
      <trkpt lat="45.5557" lon="-0.94281">
        <ele>48.7</ele>
        <time>2022-08-11T10:52:05.469+02:00</time>
      </trkpt>
      <trkpt lat="45.55569" lon="-0.94281">
        <ele>48.6</ele>
        <time>2022-08-11T10:52:06.474+02:00</time>
      </trkpt>
      <trkpt lat="45.55569" lon="-0.94281">
        <ele>49</ele>
        <time>2022-08-11T10:52:13.48+02:00</time>
      </trkpt>
      <trkpt lat="45.55569" lon="-0.94281">
        <ele>48.9</ele>
        <time>2022-08-11T10:52:14.482+02:00</time>
      </trkpt>
      <trkpt lat="45.55569" lon="-0.94281">
        <ele>49.1</ele>
        <time>2022-08-11T10:52:15.49+02:00</time>
      </trkpt>
      <trkpt lat="45.5557" lon="-0.94281">
        <ele>49</ele>
        <time>2022-08-11T10:52:16.5+02:00</time>
      </trkpt>
      <trkpt lat="45.55571" lon="-0.94282">
        <ele>49.8</ele>
        <time>2022-08-11T10:52:19.5+02:00</time>
      </trkpt>
      <trkpt lat="45.55572" lon="-0.94281">
        <ele>49.3</ele>
        <time>2022-08-11T10:52:20.494+02:00</time>
      </trkpt>
      <trkpt lat="45.55571" lon="-0.94282">
        <ele>47.7</ele>
        <time>2022-08-11T10:52:28.491+02:00</time>
      </trkpt>
      <trkpt lat="45.55572" lon="-0.94282">
        <ele>47.9</ele>
        <time>2022-08-11T10:52:29.498+02:00</time>
      </trkpt>
      <trkpt lat="45.5558" lon="-0.94277">
        <ele>48.6</ele>
        <time>2022-08-11T10:52:36.493+02:00</time>
      </trkpt>
      <trkpt lat="45.55589" lon="-0.94272">
        <ele>48.9</ele>
        <time>2022-08-11T10:52:40.486+02:00</time>
      </trkpt>
      <trkpt lat="45.55597" lon="-0.94267">
        <ele>49.5</ele>
        <time>2022-08-11T10:52:44.489+02:00</time>
      </trkpt>
      <trkpt lat="45.55608" lon="-0.9426">
        <ele>50.4</ele>
        <time>2022-08-11T10:52:48.492+02:00</time>
      </trkpt>
      <trkpt lat="45.55619" lon="-0.94252">
        <ele>50.7</ele>
        <time>2022-08-11T10:52:52.497+02:00</time>
      </trkpt>
      <trkpt lat="45.55629" lon="-0.94246">
        <ele>50.8</ele>
        <time>2022-08-11T10:52:55.495+02:00</time>
      </trkpt>
      <trkpt lat="45.5564" lon="-0.94241">
        <ele>51.2</ele>
        <time>2022-08-11T10:52:58.485+02:00</time>
      </trkpt>
      <trkpt lat="45.5565" lon="-0.94235">
        <ele>51.5</ele>
        <time>2022-08-11T10:53:01.488+02:00</time>
      </trkpt>
      <trkpt lat="45.5566" lon="-0.9423">
        <ele>52</ele>
        <time>2022-08-11T10:53:04.494+02:00</time>
      </trkpt>
      <trkpt lat="45.5567" lon="-0.94225">
        <ele>52</ele>
        <time>2022-08-11T10:53:07.473+02:00</time>
      </trkpt>
      <trkpt lat="45.55681" lon="-0.94219">
        <ele>52.1</ele>
        <time>2022-08-11T10:53:10.495+02:00</time>
      </trkpt>
      <trkpt lat="45.55692" lon="-0.94213">
        <ele>51.8</ele>
        <time>2022-08-11T10:53:13.492+02:00</time>
      </trkpt>
      <trkpt lat="45.55698" lon="-0.942">
        <ele>51.6</ele>
        <time>2022-08-11T10:53:16.49+02:00</time>
      </trkpt>
      <trkpt lat="45.55702" lon="-0.94184">
        <ele>51.8</ele>
        <time>2022-08-11T10:53:19.486+02:00</time>
      </trkpt>
      <trkpt lat="45.55703" lon="-0.94168">
        <ele>51.6</ele>
        <time>2022-08-11T10:53:22.496+02:00</time>
      </trkpt>
      <trkpt lat="45.55707" lon="-0.94153">
        <ele>51.7</ele>
        <time>2022-08-11T10:53:25.492+02:00</time>
      </trkpt>
      <trkpt lat="45.55712" lon="-0.94139">
        <ele>52</ele>
        <time>2022-08-11T10:53:28.485+02:00</time>
      </trkpt>
      <trkpt lat="45.55719" lon="-0.94125">
        <ele>51.9</ele>
        <time>2022-08-11T10:53:31.492+02:00</time>
      </trkpt>
      <trkpt lat="45.55724" lon="-0.9411">
        <ele>52</ele>
        <time>2022-08-11T10:53:34.503+02:00</time>
      </trkpt>
      <trkpt lat="45.55728" lon="-0.94095">
        <ele>52.2</ele>
        <time>2022-08-11T10:53:37.491+02:00</time>
      </trkpt>
      <trkpt lat="45.5573" lon="-0.9408">
        <ele>52.4</ele>
        <time>2022-08-11T10:53:40.483+02:00</time>
      </trkpt>
      <trkpt lat="45.55733" lon="-0.94064">
        <ele>52.2</ele>
        <time>2022-08-11T10:53:43.493+02:00</time>
      </trkpt>
      <trkpt lat="45.55734" lon="-0.94048">
        <ele>52</ele>
        <time>2022-08-11T10:53:46.491+02:00</time>
      </trkpt>
      <trkpt lat="45.55735" lon="-0.94032">
        <ele>51.7</ele>
        <time>2022-08-11T10:53:49.499+02:00</time>
      </trkpt>
      <trkpt lat="45.55736" lon="-0.94016">
        <ele>51.3</ele>
        <time>2022-08-11T10:53:52.503+02:00</time>
      </trkpt>
      <trkpt lat="45.55737" lon="-0.93999">
        <ele>51.3</ele>
        <time>2022-08-11T10:53:55.5+02:00</time>
      </trkpt>
      <trkpt lat="45.55736" lon="-0.93983">
        <ele>51</ele>
        <time>2022-08-11T10:53:58.482+02:00</time>
      </trkpt>
      <trkpt lat="45.55734" lon="-0.93966">
        <ele>51.6</ele>
        <time>2022-08-11T10:54:01.499+02:00</time>
      </trkpt>
      <trkpt lat="45.55732" lon="-0.9395">
        <ele>51.8</ele>
        <time>2022-08-11T10:54:04.497+02:00</time>
      </trkpt>
      <trkpt lat="45.5573" lon="-0.93934">
        <ele>51.6</ele>
        <time>2022-08-11T10:54:07.49+02:00</time>
      </trkpt>
      <trkpt lat="45.55728" lon="-0.93919">
        <ele>52</ele>
        <time>2022-08-11T10:54:10.499+02:00</time>
      </trkpt>
      <trkpt lat="45.55726" lon="-0.93904">
        <ele>52.1</ele>
        <time>2022-08-11T10:54:13.498+02:00</time>
      </trkpt>
      <trkpt lat="45.55729" lon="-0.9389">
        <ele>52.4</ele>
        <time>2022-08-11T10:54:16.492+02:00</time>
      </trkpt>
      <trkpt lat="45.55738" lon="-0.93883">
        <ele>52.8</ele>
        <time>2022-08-11T10:54:19.495+02:00</time>
      </trkpt>
      <trkpt lat="45.55749" lon="-0.93879">
        <ele>53</ele>
        <time>2022-08-11T10:54:22.491+02:00</time>
      </trkpt>
      <trkpt lat="45.55761" lon="-0.93877">
        <ele>52.8</ele>
        <time>2022-08-11T10:54:25.481+02:00</time>
      </trkpt>
      <trkpt lat="45.55773" lon="-0.93875">
        <ele>52.9</ele>
        <time>2022-08-11T10:54:28.495+02:00</time>
      </trkpt>
      <trkpt lat="45.55785" lon="-0.93873">
        <ele>53</ele>
        <time>2022-08-11T10:54:31.5+02:00</time>
      </trkpt>
      <trkpt lat="45.55796" lon="-0.93869">
        <ele>52.4</ele>
        <time>2022-08-11T10:54:34.492+02:00</time>
      </trkpt>
      <trkpt lat="45.55799" lon="-0.93855">
        <ele>52.5</ele>
        <time>2022-08-11T10:54:37.486+02:00</time>
      </trkpt>
      <trkpt lat="45.55797" lon="-0.9384">
        <ele>52.6</ele>
        <time>2022-08-11T10:54:40.491+02:00</time>
      </trkpt>
      <trkpt lat="45.55796" lon="-0.93825">
        <ele>52.6</ele>
        <time>2022-08-11T10:54:43.493+02:00</time>
      </trkpt>
      <trkpt lat="45.55794" lon="-0.9381">
        <ele>52</ele>
        <time>2022-08-11T10:54:46.488+02:00</time>
      </trkpt>
      <trkpt lat="45.55791" lon="-0.93795">
        <ele>51.6</ele>
        <time>2022-08-11T10:54:49.496+02:00</time>
      </trkpt>
      <trkpt lat="45.5579" lon="-0.9378">
        <ele>51.1</ele>
        <time>2022-08-11T10:54:52.508+02:00</time>
      </trkpt>
      <trkpt lat="45.55787" lon="-0.93764">
        <ele>51.2</ele>
        <time>2022-08-11T10:54:55.499+02:00</time>
      </trkpt>
      <trkpt lat="45.55785" lon="-0.93748">
        <ele>51</ele>
        <time>2022-08-11T10:54:58.487+02:00</time>
      </trkpt>
      <trkpt lat="45.55782" lon="-0.93731">
        <ele>51</ele>
        <time>2022-08-11T10:55:01.497+02:00</time>
      </trkpt>
      <trkpt lat="45.5578" lon="-0.93714">
        <ele>51</ele>
        <time>2022-08-11T10:55:04.495+02:00</time>
      </trkpt>
      <trkpt lat="45.55778" lon="-0.93697">
        <ele>50.8</ele>
        <time>2022-08-11T10:55:07.479+02:00</time>
      </trkpt>
      <trkpt lat="45.55776" lon="-0.9368">
        <ele>51.1</ele>
        <time>2022-08-11T10:55:10.499+02:00</time>
      </trkpt>
      <trkpt lat="45.55774" lon="-0.93664">
        <ele>50.9</ele>
        <time>2022-08-11T10:55:13.501+02:00</time>
      </trkpt>
      <trkpt lat="45.55771" lon="-0.93648">
        <ele>51</ele>
        <time>2022-08-11T10:55:16.494+02:00</time>
      </trkpt>
      <trkpt lat="45.55769" lon="-0.93631">
        <ele>51.1</ele>
        <time>2022-08-11T10:55:19.504+02:00</time>
      </trkpt>
      <trkpt lat="45.55767" lon="-0.93615">
        <ele>51.2</ele>
        <time>2022-08-11T10:55:22.495+02:00</time>
      </trkpt>
      <trkpt lat="45.55765" lon="-0.93598">
        <ele>51.1</ele>
        <time>2022-08-11T10:55:25.492+02:00</time>
      </trkpt>
      <trkpt lat="45.55763" lon="-0.9358">
        <ele>51.1</ele>
        <time>2022-08-11T10:55:28.486+02:00</time>
      </trkpt>
      <trkpt lat="45.55761" lon="-0.93563">
        <ele>50.7</ele>
        <time>2022-08-11T10:55:31.502+02:00</time>
      </trkpt>
      <trkpt lat="45.55759" lon="-0.93545">
        <ele>50.7</ele>
        <time>2022-08-11T10:55:34.493+02:00</time>
      </trkpt>
      <trkpt lat="45.55758" lon="-0.93528">
        <ele>51.1</ele>
        <time>2022-08-11T10:55:37.476+02:00</time>
      </trkpt>
      <trkpt lat="45.55757" lon="-0.9351">
        <ele>51.1</ele>
        <time>2022-08-11T10:55:40.481+02:00</time>
      </trkpt>
      <trkpt lat="45.55756" lon="-0.93493">
        <ele>51.2</ele>
        <time>2022-08-11T10:55:43.49+02:00</time>
      </trkpt>
      <trkpt lat="45.55755" lon="-0.93476">
        <ele>51.3</ele>
        <time>2022-08-11T10:55:46.498+02:00</time>
      </trkpt>
      <trkpt lat="45.55755" lon="-0.93459">
        <ele>51.2</ele>
        <time>2022-08-11T10:55:49.497+02:00</time>
      </trkpt>
      <trkpt lat="45.55756" lon="-0.93442">
        <ele>51.2</ele>
        <time>2022-08-11T10:55:52.489+02:00</time>
      </trkpt>
      <trkpt lat="45.55757" lon="-0.93424">
        <ele>50.7</ele>
        <time>2022-08-11T10:55:55.489+02:00</time>
      </trkpt>
      <trkpt lat="45.55759" lon="-0.93409">
        <ele>50.8</ele>
        <time>2022-08-11T10:55:58.48+02:00</time>
      </trkpt>
      <trkpt lat="45.55765" lon="-0.93396">
        <ele>50.9</ele>
        <time>2022-08-11T10:56:01.49+02:00</time>
      </trkpt>
      <trkpt lat="45.55768" lon="-0.93381">
        <ele>50.8</ele>
        <time>2022-08-11T10:56:04.494+02:00</time>
      </trkpt>
      <trkpt lat="45.55771" lon="-0.93365">
        <ele>50.9</ele>
        <time>2022-08-11T10:56:07.484+02:00</time>
      </trkpt>
      <trkpt lat="45.55776" lon="-0.93352">
        <ele>51</ele>
        <time>2022-08-11T10:56:10.496+02:00</time>
      </trkpt>
      <trkpt lat="45.5578" lon="-0.93336">
        <ele>50.8</ele>
        <time>2022-08-11T10:56:13.498+02:00</time>
      </trkpt>
      <trkpt lat="45.55778" lon="-0.93321">
        <ele>50.9</ele>
        <time>2022-08-11T10:56:16.495+02:00</time>
      </trkpt>
      <trkpt lat="45.55774" lon="-0.93307">
        <ele>51.1</ele>
        <time>2022-08-11T10:56:20.496+02:00</time>
      </trkpt>
      <trkpt lat="45.55768" lon="-0.93292">
        <ele>50.6</ele>
        <time>2022-08-11T10:56:24.5+02:00</time>
      </trkpt>
      <trkpt lat="45.55761" lon="-0.93279">
        <ele>50.4</ele>
        <time>2022-08-11T10:56:27.491+02:00</time>
      </trkpt>
      <trkpt lat="45.55755" lon="-0.93267">
        <ele>50.8</ele>
        <time>2022-08-11T10:56:30.491+02:00</time>
      </trkpt>
      <trkpt lat="45.55749" lon="-0.93255">
        <ele>51.4</ele>
        <time>2022-08-11T10:56:33.487+02:00</time>
      </trkpt>
      <trkpt lat="45.55743" lon="-0.93244">
        <ele>51.2</ele>
        <time>2022-08-11T10:56:36.496+02:00</time>
      </trkpt>
      <trkpt lat="45.55735" lon="-0.93237">
        <ele>51.4</ele>
        <time>2022-08-11T10:56:39.507+02:00</time>
      </trkpt>
      <trkpt lat="45.55725" lon="-0.93231">
        <ele>51.1</ele>
        <time>2022-08-11T10:56:42.487+02:00</time>
      </trkpt>
      <trkpt lat="45.55718" lon="-0.93221">
        <ele>50.8</ele>
        <time>2022-08-11T10:56:45.501+02:00</time>
      </trkpt>
      <trkpt lat="45.55711" lon="-0.9321">
        <ele>50.8</ele>
        <time>2022-08-11T10:56:48.484+02:00</time>
      </trkpt>
      <trkpt lat="45.55703" lon="-0.93199">
        <ele>50.9</ele>
        <time>2022-08-11T10:56:51.493+02:00</time>
      </trkpt>
      <trkpt lat="45.55695" lon="-0.93188">
        <ele>51.3</ele>
        <time>2022-08-11T10:56:54.496+02:00</time>
      </trkpt>
      <trkpt lat="45.55688" lon="-0.93176">
        <ele>51.4</ele>
        <time>2022-08-11T10:56:57.482+02:00</time>
      </trkpt>
      <trkpt lat="45.55682" lon="-0.93164">
        <ele>51.2</ele>
        <time>2022-08-11T10:57:00.49+02:00</time>
      </trkpt>
      <trkpt lat="45.55676" lon="-0.93152">
        <ele>51</ele>
        <time>2022-08-11T10:57:03.486+02:00</time>
      </trkpt>
      <trkpt lat="45.55671" lon="-0.9314">
        <ele>51.3</ele>
        <time>2022-08-11T10:57:06.5+02:00</time>
      </trkpt>
      <trkpt lat="45.55665" lon="-0.93127">
        <ele>51.6</ele>
        <time>2022-08-11T10:57:09.502+02:00</time>
      </trkpt>
      <trkpt lat="45.5566" lon="-0.93114">
        <ele>51.2</ele>
        <time>2022-08-11T10:57:12.478+02:00</time>
      </trkpt>
      <trkpt lat="45.55655" lon="-0.93101">
        <ele>53.8</ele>
        <time>2022-08-11T10:57:15.496+02:00</time>
      </trkpt>
      <trkpt lat="45.55651" lon="-0.93089">
        <ele>52.1</ele>
        <time>2022-08-11T10:57:18.486+02:00</time>
      </trkpt>
      <trkpt lat="45.55646" lon="-0.93077">
        <ele>52</ele>
        <time>2022-08-11T10:57:21.492+02:00</time>
      </trkpt>
      <trkpt lat="45.55642" lon="-0.93065">
        <ele>55.2</ele>
        <time>2022-08-11T10:57:24.485+02:00</time>
      </trkpt>
      <trkpt lat="45.55637" lon="-0.93053">
        <ele>53</ele>
        <time>2022-08-11T10:57:27.489+02:00</time>
      </trkpt>
      <trkpt lat="45.55637" lon="-0.93039">
        <ele>52.1</ele>
        <time>2022-08-11T10:57:30.494+02:00</time>
      </trkpt>
      <trkpt lat="45.5564" lon="-0.93025">
        <ele>53.8</ele>
        <time>2022-08-11T10:57:33.498+02:00</time>
      </trkpt>
      <trkpt lat="45.55643" lon="-0.93012">
        <ele>52.2</ele>
        <time>2022-08-11T10:57:36.486+02:00</time>
      </trkpt>
      <trkpt lat="45.55643" lon="-0.92998">
        <ele>51.8</ele>
        <time>2022-08-11T10:57:39.5+02:00</time>
      </trkpt>
      <trkpt lat="45.55639" lon="-0.92985">
        <ele>51.5</ele>
        <time>2022-08-11T10:57:42.492+02:00</time>
      </trkpt>
      <trkpt lat="45.55634" lon="-0.92973">
        <ele>51.1</ele>
        <time>2022-08-11T10:57:45.507+02:00</time>
      </trkpt>
      <trkpt lat="45.55628" lon="-0.92961">
        <ele>52.3</ele>
        <time>2022-08-11T10:57:48.487+02:00</time>
      </trkpt>
      <trkpt lat="45.55623" lon="-0.92948">
        <ele>51.3</ele>
        <time>2022-08-11T10:57:51.49+02:00</time>
      </trkpt>
      <trkpt lat="45.55618" lon="-0.92935">
        <ele>51</ele>
        <time>2022-08-11T10:57:54.478+02:00</time>
      </trkpt>
      <trkpt lat="45.55614" lon="-0.92923">
        <ele>50.5</ele>
        <time>2022-08-11T10:57:57.48+02:00</time>
      </trkpt>
      <trkpt lat="45.55609" lon="-0.92911">
        <ele>50.4</ele>
        <time>2022-08-11T10:58:00.497+02:00</time>
      </trkpt>
      <trkpt lat="45.55604" lon="-0.92899">
        <ele>50.2</ele>
        <time>2022-08-11T10:58:03.497+02:00</time>
      </trkpt>
      <trkpt lat="45.55598" lon="-0.92886">
        <ele>50.1</ele>
        <time>2022-08-11T10:58:06.496+02:00</time>
      </trkpt>
      <trkpt lat="45.55592" lon="-0.92874">
        <ele>50.1</ele>
        <time>2022-08-11T10:58:09.502+02:00</time>
      </trkpt>
      <trkpt lat="45.55585" lon="-0.92862">
        <ele>50</ele>
        <time>2022-08-11T10:58:12.491+02:00</time>
      </trkpt>
      <trkpt lat="45.55579" lon="-0.92851">
        <ele>50.1</ele>
        <time>2022-08-11T10:58:15.489+02:00</time>
      </trkpt>
      <trkpt lat="45.55573" lon="-0.92839">
        <ele>50.4</ele>
        <time>2022-08-11T10:58:18.483+02:00</time>
      </trkpt>
      <trkpt lat="45.55567" lon="-0.92828">
        <ele>50.6</ele>
        <time>2022-08-11T10:58:21.495+02:00</time>
      </trkpt>
      <trkpt lat="45.55561" lon="-0.92818">
        <ele>50.3</ele>
        <time>2022-08-11T10:58:24.489+02:00</time>
      </trkpt>
      <trkpt lat="45.55556" lon="-0.92807">
        <ele>50.2</ele>
        <time>2022-08-11T10:58:27.494+02:00</time>
      </trkpt>
      <trkpt lat="45.5555" lon="-0.92795">
        <ele>49.8</ele>
        <time>2022-08-11T10:58:30.492+02:00</time>
      </trkpt>
      <trkpt lat="45.55545" lon="-0.9278">
        <ele>49.8</ele>
        <time>2022-08-11T10:58:33.494+02:00</time>
      </trkpt>
      <trkpt lat="45.5554" lon="-0.92764">
        <ele>49.6</ele>
        <time>2022-08-11T10:58:36.488+02:00</time>
      </trkpt>
      <trkpt lat="45.55534" lon="-0.92749">
        <ele>49.7</ele>
        <time>2022-08-11T10:58:39.503+02:00</time>
      </trkpt>
      <trkpt lat="45.55527" lon="-0.92735">
        <ele>49.7</ele>
        <time>2022-08-11T10:58:42.488+02:00</time>
      </trkpt>
      <trkpt lat="45.55519" lon="-0.92721">
        <ele>49.9</ele>
        <time>2022-08-11T10:58:45.5+02:00</time>
      </trkpt>
      <trkpt lat="45.55512" lon="-0.92708">
        <ele>49.8</ele>
        <time>2022-08-11T10:58:48.487+02:00</time>
      </trkpt>
      <trkpt lat="45.55504" lon="-0.92695">
        <ele>50.1</ele>
        <time>2022-08-11T10:58:51.481+02:00</time>
      </trkpt>
      <trkpt lat="45.55496" lon="-0.92684">
        <ele>49.9</ele>
        <time>2022-08-11T10:58:54.481+02:00</time>
      </trkpt>
      <trkpt lat="45.55487" lon="-0.92672">
        <ele>50.3</ele>
        <time>2022-08-11T10:58:57.497+02:00</time>
      </trkpt>
      <trkpt lat="45.55479" lon="-0.92659">
        <ele>50.4</ele>
        <time>2022-08-11T10:59:00.494+02:00</time>
      </trkpt>
      <trkpt lat="45.55471" lon="-0.92647">
        <ele>50.4</ele>
        <time>2022-08-11T10:59:03.491+02:00</time>
      </trkpt>
      <trkpt lat="45.55463" lon="-0.92635">
        <ele>50.4</ele>
        <time>2022-08-11T10:59:06.491+02:00</time>
      </trkpt>
      <trkpt lat="45.55455" lon="-0.92624">
        <ele>50.5</ele>
        <time>2022-08-11T10:59:09.5+02:00</time>
      </trkpt>
      <trkpt lat="45.55447" lon="-0.92613">
        <ele>50.7</ele>
        <time>2022-08-11T10:59:12.499+02:00</time>
      </trkpt>
      <trkpt lat="45.55438" lon="-0.92601">
        <ele>50.5</ele>
        <time>2022-08-11T10:59:15.504+02:00</time>
      </trkpt>
      <trkpt lat="45.55428" lon="-0.92588">
        <ele>50.3</ele>
        <time>2022-08-11T10:59:18.477+02:00</time>
      </trkpt>
      <trkpt lat="45.5542" lon="-0.92576">
        <ele>50.2</ele>
        <time>2022-08-11T10:59:21.493+02:00</time>
      </trkpt>
      <trkpt lat="45.55411" lon="-0.92564">
        <ele>50.4</ele>
        <time>2022-08-11T10:59:24.496+02:00</time>
      </trkpt>
      <trkpt lat="45.55402" lon="-0.92551">
        <ele>50.6</ele>
        <time>2022-08-11T10:59:27.494+02:00</time>
      </trkpt>
      <trkpt lat="45.55393" lon="-0.92539">
        <ele>50.9</ele>
        <time>2022-08-11T10:59:30.495+02:00</time>
      </trkpt>
      <trkpt lat="45.55384" lon="-0.92527">
        <ele>50.8</ele>
        <time>2022-08-11T10:59:33.484+02:00</time>
      </trkpt>
      <trkpt lat="45.55375" lon="-0.92515">
        <ele>50.6</ele>
        <time>2022-08-11T10:59:36.493+02:00</time>
      </trkpt>
      <trkpt lat="45.55366" lon="-0.92505">
        <ele>51.2</ele>
        <time>2022-08-11T10:59:39.497+02:00</time>
      </trkpt>
      <trkpt lat="45.55357" lon="-0.92494">
        <ele>51.5</ele>
        <time>2022-08-11T10:59:42.486+02:00</time>
      </trkpt>
      <trkpt lat="45.55348" lon="-0.92483">
        <ele>51.8</ele>
        <time>2022-08-11T10:59:45.488+02:00</time>
      </trkpt>
      <trkpt lat="45.55338" lon="-0.92471">
        <ele>51.6</ele>
        <time>2022-08-11T10:59:48.486+02:00</time>
      </trkpt>
      <trkpt lat="45.55328" lon="-0.9246">
        <ele>51.6</ele>
        <time>2022-08-11T10:59:51.495+02:00</time>
      </trkpt>
      <trkpt lat="45.55319" lon="-0.92449">
        <ele>51.9</ele>
        <time>2022-08-11T10:59:54.499+02:00</time>
      </trkpt>
      <trkpt lat="45.55311" lon="-0.92439">
        <ele>51.7</ele>
        <time>2022-08-11T10:59:57.484+02:00</time>
      </trkpt>
      <trkpt lat="45.55302" lon="-0.9243">
        <ele>51.5</ele>
        <time>2022-08-11T11:00:00.503+02:00</time>
      </trkpt>
      <trkpt lat="45.55294" lon="-0.92422">
        <ele>51.1</ele>
        <time>2022-08-11T11:00:03.49+02:00</time>
      </trkpt>
      <trkpt lat="45.55284" lon="-0.92413">
        <ele>51.2</ele>
        <time>2022-08-11T11:00:06.492+02:00</time>
      </trkpt>
      <trkpt lat="45.55275" lon="-0.92405">
        <ele>51.2</ele>
        <time>2022-08-11T11:00:09.491+02:00</time>
      </trkpt>
      <trkpt lat="45.55266" lon="-0.92396">
        <ele>51</ele>
        <time>2022-08-11T11:00:12.492+02:00</time>
      </trkpt>
      <trkpt lat="45.55257" lon="-0.92389">
        <ele>50.4</ele>
        <time>2022-08-11T11:00:15.485+02:00</time>
      </trkpt>
      <trkpt lat="45.55248" lon="-0.92383">
        <ele>49.9</ele>
        <time>2022-08-11T11:00:18.484+02:00</time>
      </trkpt>
      <trkpt lat="45.55238" lon="-0.92379">
        <ele>49.6</ele>
        <time>2022-08-11T11:00:21.491+02:00</time>
      </trkpt>
      <trkpt lat="45.55229" lon="-0.92376">
        <ele>49.3</ele>
        <time>2022-08-11T11:00:24.492+02:00</time>
      </trkpt>
      <trkpt lat="45.5522" lon="-0.92374">
        <ele>49.4</ele>
        <time>2022-08-11T11:00:27.5+02:00</time>
      </trkpt>
      <trkpt lat="45.55208" lon="-0.92373">
        <ele>49</ele>
        <time>2022-08-11T11:00:31.491+02:00</time>
      </trkpt>
      <trkpt lat="45.55196" lon="-0.92373">
        <ele>48.9</ele>
        <time>2022-08-11T11:00:35.497+02:00</time>
      </trkpt>
      <trkpt lat="45.55187" lon="-0.92371">
        <ele>50.4</ele>
        <time>2022-08-11T11:00:38.482+02:00</time>
      </trkpt>
      <trkpt lat="45.55176" lon="-0.92369">
        <ele>51</ele>
        <time>2022-08-11T11:00:41.477+02:00</time>
      </trkpt>
      <trkpt lat="45.55166" lon="-0.92366">
        <ele>48.9</ele>
        <time>2022-08-11T11:00:44.503+02:00</time>
      </trkpt>
      <trkpt lat="45.55157" lon="-0.92361">
        <ele>48.9</ele>
        <time>2022-08-11T11:00:47.492+02:00</time>
      </trkpt>
      <trkpt lat="45.5515" lon="-0.92354">
        <ele>49.2</ele>
        <time>2022-08-11T11:00:50.495+02:00</time>
      </trkpt>
      <trkpt lat="45.55144" lon="-0.92344">
        <ele>49.5</ele>
        <time>2022-08-11T11:00:53.495+02:00</time>
      </trkpt>
      <trkpt lat="45.55138" lon="-0.92334">
        <ele>52.2</ele>
        <time>2022-08-11T11:00:56.483+02:00</time>
      </trkpt>
      <trkpt lat="45.55132" lon="-0.92319">
        <ele>51.2</ele>
        <time>2022-08-11T11:01:00.486+02:00</time>
      </trkpt>
      <trkpt lat="45.55128" lon="-0.92308">
        <ele>52.2</ele>
        <time>2022-08-11T11:01:03.496+02:00</time>
      </trkpt>
      <trkpt lat="45.55124" lon="-0.92293">
        <ele>50.9</ele>
        <time>2022-08-11T11:01:07.499+02:00</time>
      </trkpt>
      <trkpt lat="45.55121" lon="-0.9228">
        <ele>51.1</ele>
        <time>2022-08-11T11:01:10.487+02:00</time>
      </trkpt>
      <trkpt lat="45.55118" lon="-0.92264">
        <ele>51.1</ele>
        <time>2022-08-11T11:01:14.498+02:00</time>
      </trkpt>
      <trkpt lat="45.55118" lon="-0.92248">
        <ele>50.8</ele>
        <time>2022-08-11T11:01:18.486+02:00</time>
      </trkpt>
      <trkpt lat="45.55121" lon="-0.92231">
        <ele>50.6</ele>
        <time>2022-08-11T11:01:22.51+02:00</time>
      </trkpt>
      <trkpt lat="45.55124" lon="-0.92219">
        <ele>50.4</ele>
        <time>2022-08-11T11:01:25.477+02:00</time>
      </trkpt>
      <trkpt lat="45.55127" lon="-0.92205">
        <ele>50.4</ele>
        <time>2022-08-11T11:01:28.491+02:00</time>
      </trkpt>
      <trkpt lat="45.5513" lon="-0.92192">
        <ele>50.5</ele>
        <time>2022-08-11T11:01:31.489+02:00</time>
      </trkpt>
      <trkpt lat="45.55134" lon="-0.92177">
        <ele>50.6</ele>
        <time>2022-08-11T11:01:35.494+02:00</time>
      </trkpt>
      <trkpt lat="45.55138" lon="-0.92162">
        <ele>50.6</ele>
        <time>2022-08-11T11:01:39.482+02:00</time>
      </trkpt>
      <trkpt lat="45.55144" lon="-0.92152">
        <ele>50.7</ele>
        <time>2022-08-11T11:01:42.495+02:00</time>
      </trkpt>
      <trkpt lat="45.55152" lon="-0.92145">
        <ele>50.9</ele>
        <time>2022-08-11T11:01:45.502+02:00</time>
      </trkpt>
      <trkpt lat="45.55159" lon="-0.92138">
        <ele>51.1</ele>
        <time>2022-08-11T11:01:48.482+02:00</time>
      </trkpt>
      <trkpt lat="45.55167" lon="-0.9213">
        <ele>51.2</ele>
        <time>2022-08-11T11:01:51.496+02:00</time>
      </trkpt>
      <trkpt lat="45.55175" lon="-0.92123">
        <ele>51.2</ele>
        <time>2022-08-11T11:01:54.497+02:00</time>
      </trkpt>
      <trkpt lat="45.55182" lon="-0.92115">
        <ele>51.2</ele>
        <time>2022-08-11T11:01:57.499+02:00</time>
      </trkpt>
      <trkpt lat="45.5519" lon="-0.92108">
        <ele>51</ele>
        <time>2022-08-11T11:02:00.486+02:00</time>
      </trkpt>
      <trkpt lat="45.552" lon="-0.92098">
        <ele>51.2</ele>
        <time>2022-08-11T11:02:04.495+02:00</time>
      </trkpt>
      <trkpt lat="45.55207" lon="-0.92091">
        <ele>51.2</ele>
        <time>2022-08-11T11:02:07.497+02:00</time>
      </trkpt>
      <trkpt lat="45.55216" lon="-0.9208">
        <ele>51.9</ele>
        <time>2022-08-11T11:02:11.497+02:00</time>
      </trkpt>
      <trkpt lat="45.55224" lon="-0.92073">
        <ele>52</ele>
        <time>2022-08-11T11:02:14.492+02:00</time>
      </trkpt>
      <trkpt lat="45.55234" lon="-0.92065">
        <ele>52.4</ele>
        <time>2022-08-11T11:02:18.474+02:00</time>
      </trkpt>
      <trkpt lat="45.55244" lon="-0.92057">
        <ele>53</ele>
        <time>2022-08-11T11:02:22.491+02:00</time>
      </trkpt>
      <trkpt lat="45.55249" lon="-0.92045">
        <ele>53.1</ele>
        <time>2022-08-11T11:02:28.476+02:00</time>
      </trkpt>
      <trkpt lat="45.55242" lon="-0.92032">
        <ele>53.6</ele>
        <time>2022-08-11T11:02:32.492+02:00</time>
      </trkpt>
      <trkpt lat="45.55236" lon="-0.92021">
        <ele>53.2</ele>
        <time>2022-08-11T11:02:35.502+02:00</time>
      </trkpt>
      <trkpt lat="45.55229" lon="-0.92007">
        <ele>52.2</ele>
        <time>2022-08-11T11:02:38.476+02:00</time>
      </trkpt>
      <trkpt lat="45.55219" lon="-0.91996">
        <ele>52.1</ele>
        <time>2022-08-11T11:02:40.474+02:00</time>
      </trkpt>
      <trkpt lat="45.55212" lon="-0.91984">
        <ele>54.3</ele>
        <time>2022-08-11T11:02:42.478+02:00</time>
      </trkpt>
      <trkpt lat="45.55206" lon="-0.91972">
        <ele>53</ele>
        <time>2022-08-11T11:02:44.486+02:00</time>
      </trkpt>
      <trkpt lat="45.55199" lon="-0.91958">
        <ele>51.8</ele>
        <time>2022-08-11T11:02:46.478+02:00</time>
      </trkpt>
      <trkpt lat="45.55192" lon="-0.91944">
        <ele>50.6</ele>
        <time>2022-08-11T11:02:48.475+02:00</time>
      </trkpt>
      <trkpt lat="45.55183" lon="-0.9193">
        <ele>50.2</ele>
        <time>2022-08-11T11:02:50.49+02:00</time>
      </trkpt>
      <trkpt lat="45.55176" lon="-0.91915">
        <ele>49.9</ele>
        <time>2022-08-11T11:02:52.494+02:00</time>
      </trkpt>
      <trkpt lat="45.5517" lon="-0.91901">
        <ele>49.2</ele>
        <time>2022-08-11T11:02:54.491+02:00</time>
      </trkpt>
      <trkpt lat="45.55166" lon="-0.91886">
        <ele>49.2</ele>
        <time>2022-08-11T11:02:56.496+02:00</time>
      </trkpt>
      <trkpt lat="45.55162" lon="-0.91873">
        <ele>49.3</ele>
        <time>2022-08-11T11:02:58.482+02:00</time>
      </trkpt>
      <trkpt lat="45.5516" lon="-0.91854">
        <ele>49.3</ele>
        <time>2022-08-11T11:03:01.486+02:00</time>
      </trkpt>
      <trkpt lat="45.55157" lon="-0.91836">
        <ele>50.5</ele>
        <time>2022-08-11T11:03:04.498+02:00</time>
      </trkpt>
      <trkpt lat="45.55156" lon="-0.91822">
        <ele>49.6</ele>
        <time>2022-08-11T11:03:06.492+02:00</time>
      </trkpt>
      <trkpt lat="45.55155" lon="-0.91809">
        <ele>49.2</ele>
        <time>2022-08-11T11:03:08.476+02:00</time>
      </trkpt>
      <trkpt lat="45.55152" lon="-0.91791">
        <ele>48.6</ele>
        <time>2022-08-11T11:03:11.508+02:00</time>
      </trkpt>
      <trkpt lat="45.55151" lon="-0.91777">
        <ele>48.8</ele>
        <time>2022-08-11T11:03:13.493+02:00</time>
      </trkpt>
      <trkpt lat="45.55149" lon="-0.91765">
        <ele>48.5</ele>
        <time>2022-08-11T11:03:15.478+02:00</time>
      </trkpt>
      <trkpt lat="45.55148" lon="-0.91752">
        <ele>48.6</ele>
        <time>2022-08-11T11:03:17.497+02:00</time>
      </trkpt>
      <trkpt lat="45.55146" lon="-0.91739">
        <ele>48.9</ele>
        <time>2022-08-11T11:03:19.488+02:00</time>
      </trkpt>
      <trkpt lat="45.55144" lon="-0.91727">
        <ele>48.7</ele>
        <time>2022-08-11T11:03:21.492+02:00</time>
      </trkpt>
      <trkpt lat="45.55141" lon="-0.91708">
        <ele>48.5</ele>
        <time>2022-08-11T11:03:24.487+02:00</time>
      </trkpt>
      <trkpt lat="45.55138" lon="-0.91689">
        <ele>48.3</ele>
        <time>2022-08-11T11:03:27.494+02:00</time>
      </trkpt>
      <trkpt lat="45.55134" lon="-0.91676">
        <ele>48.4</ele>
        <time>2022-08-11T11:03:29.498+02:00</time>
      </trkpt>
      <trkpt lat="45.55128" lon="-0.91659">
        <ele>48.1</ele>
        <time>2022-08-11T11:03:32.479+02:00</time>
      </trkpt>
      <trkpt lat="45.55121" lon="-0.91643">
        <ele>47.5</ele>
        <time>2022-08-11T11:03:35.487+02:00</time>
      </trkpt>
      <trkpt lat="45.55115" lon="-0.91633">
        <ele>47.4</ele>
        <time>2022-08-11T11:03:37.493+02:00</time>
      </trkpt>
      <trkpt lat="45.55109" lon="-0.91623">
        <ele>51.8</ele>
        <time>2022-08-11T11:03:39.487+02:00</time>
      </trkpt>
      <trkpt lat="45.55102" lon="-0.91613">
        <ele>49.4</ele>
        <time>2022-08-11T11:03:41.495+02:00</time>
      </trkpt>
      <trkpt lat="45.55096" lon="-0.91604">
        <ele>48.7</ele>
        <time>2022-08-11T11:03:43.499+02:00</time>
      </trkpt>
      <trkpt lat="45.5509" lon="-0.91594">
        <ele>48.2</ele>
        <time>2022-08-11T11:03:45.495+02:00</time>
      </trkpt>
      <trkpt lat="45.55082" lon="-0.9158">
        <ele>48.4</ele>
        <time>2022-08-11T11:03:48.479+02:00</time>
      </trkpt>
      <trkpt lat="45.55076" lon="-0.91567">
        <ele>48.9</ele>
        <time>2022-08-11T11:03:51.477+02:00</time>
      </trkpt>
      <trkpt lat="45.55075" lon="-0.91553">
        <ele>48.7</ele>
        <time>2022-08-11T11:03:55.47+02:00</time>
      </trkpt>
      <trkpt lat="45.55075" lon="-0.91551">
        <ele>48.8</ele>
        <time>2022-08-11T11:03:57.515+02:00</time>
      </trkpt>
      <trkpt lat="45.55075" lon="-0.91551">
        <ele>48.5</ele>
        <time>2022-08-11T11:03:58.465+02:00</time>
      </trkpt>
      <trkpt lat="45.55076" lon="-0.91551">
        <ele>48.7</ele>
        <time>2022-08-11T11:04:03.475+02:00</time>
      </trkpt>
      <trkpt lat="45.55076" lon="-0.91551">
        <ele>48.8</ele>
        <time>2022-08-11T11:04:04.488+02:00</time>
      </trkpt>
      <trkpt lat="45.55076" lon="-0.91564">
        <ele>48.9</ele>
        <time>2022-08-11T11:04:11.486+02:00</time>
      </trkpt>
      <trkpt lat="45.55079" lon="-0.91577">
        <ele>49</ele>
        <time>2022-08-11T11:04:14.491+02:00</time>
      </trkpt>
      <trkpt lat="45.55084" lon="-0.9159">
        <ele>49.1</ele>
        <time>2022-08-11T11:04:17.495+02:00</time>
      </trkpt>
      <trkpt lat="45.55092" lon="-0.91602">
        <ele>49.3</ele>
        <time>2022-08-11T11:04:20.494+02:00</time>
      </trkpt>
      <trkpt lat="45.551" lon="-0.91613">
        <ele>49.6</ele>
        <time>2022-08-11T11:04:23.491+02:00</time>
      </trkpt>
      <trkpt lat="45.55108" lon="-0.91624">
        <ele>49.5</ele>
        <time>2022-08-11T11:04:26.49+02:00</time>
      </trkpt>
      <trkpt lat="45.55116" lon="-0.91636">
        <ele>49.6</ele>
        <time>2022-08-11T11:04:29.497+02:00</time>
      </trkpt>
      <trkpt lat="45.55124" lon="-0.91647">
        <ele>50</ele>
        <time>2022-08-11T11:04:32.491+02:00</time>
      </trkpt>
      <trkpt lat="45.5513" lon="-0.9166">
        <ele>49.7</ele>
        <time>2022-08-11T11:04:35.492+02:00</time>
      </trkpt>
      <trkpt lat="45.55135" lon="-0.91675">
        <ele>49.9</ele>
        <time>2022-08-11T11:04:38.484+02:00</time>
      </trkpt>
      <trkpt lat="45.55139" lon="-0.9169">
        <ele>50.1</ele>
        <time>2022-08-11T11:04:41.487+02:00</time>
      </trkpt>
      <trkpt lat="45.55143" lon="-0.91706">
        <ele>49.9</ele>
        <time>2022-08-11T11:04:44.484+02:00</time>
      </trkpt>
      <trkpt lat="45.55145" lon="-0.91722">
        <ele>50.1</ele>
        <time>2022-08-11T11:04:47.476+02:00</time>
      </trkpt>
      <trkpt lat="45.55147" lon="-0.91739">
        <ele>49.9</ele>
        <time>2022-08-11T11:04:50.49+02:00</time>
      </trkpt>
      <trkpt lat="45.55149" lon="-0.91756">
        <ele>49.7</ele>
        <time>2022-08-11T11:04:53.482+02:00</time>
      </trkpt>
      <trkpt lat="45.55152" lon="-0.91773">
        <ele>49.6</ele>
        <time>2022-08-11T11:04:56.5+02:00</time>
      </trkpt>
      <trkpt lat="45.55154" lon="-0.91789">
        <ele>49.6</ele>
        <time>2022-08-11T11:04:59.503+02:00</time>
      </trkpt>
      <trkpt lat="45.55155" lon="-0.91804">
        <ele>49.6</ele>
        <time>2022-08-11T11:05:02.494+02:00</time>
      </trkpt>
      <trkpt lat="45.55155" lon="-0.91817">
        <ele>49.6</ele>
        <time>2022-08-11T11:05:05.486+02:00</time>
      </trkpt>
      <trkpt lat="45.55147" lon="-0.91826">
        <ele>49.4</ele>
        <time>2022-08-11T11:05:08.479+02:00</time>
      </trkpt>
      <trkpt lat="45.55137" lon="-0.91834">
        <ele>49.6</ele>
        <time>2022-08-11T11:05:11.482+02:00</time>
      </trkpt>
      <trkpt lat="45.55127" lon="-0.91832">
        <ele>49.9</ele>
        <time>2022-08-11T11:05:14.494+02:00</time>
      </trkpt>
      <trkpt lat="45.5512" lon="-0.91821">
        <ele>50.1</ele>
        <time>2022-08-11T11:05:17.498+02:00</time>
      </trkpt>
      <trkpt lat="45.55115" lon="-0.9181">
        <ele>50.3</ele>
        <time>2022-08-11T11:05:20.486+02:00</time>
      </trkpt>
      <trkpt lat="45.55109" lon="-0.91797">
        <ele>50.5</ele>
        <time>2022-08-11T11:05:23.479+02:00</time>
      </trkpt>
      <trkpt lat="45.55103" lon="-0.91783">
        <ele>50.8</ele>
        <time>2022-08-11T11:05:26.481+02:00</time>
      </trkpt>
      <trkpt lat="45.55096" lon="-0.91768">
        <ele>50.8</ele>
        <time>2022-08-11T11:05:29.499+02:00</time>
      </trkpt>
      <trkpt lat="45.5509" lon="-0.91754">
        <ele>50.6</ele>
        <time>2022-08-11T11:05:32.496+02:00</time>
      </trkpt>
      <trkpt lat="45.55083" lon="-0.91739">
        <ele>50.5</ele>
        <time>2022-08-11T11:05:35.494+02:00</time>
      </trkpt>
      <trkpt lat="45.55077" lon="-0.91724">
        <ele>50.6</ele>
        <time>2022-08-11T11:05:38.479+02:00</time>
      </trkpt>
      <trkpt lat="45.5507" lon="-0.9171">
        <ele>50.6</ele>
        <time>2022-08-11T11:05:41.482+02:00</time>
      </trkpt>
      <trkpt lat="45.55062" lon="-0.91695">
        <ele>50.7</ele>
        <time>2022-08-11T11:05:44.495+02:00</time>
      </trkpt>
      <trkpt lat="45.55054" lon="-0.91681">
        <ele>51.1</ele>
        <time>2022-08-11T11:05:47.486+02:00</time>
      </trkpt>
      <trkpt lat="45.55046" lon="-0.91666">
        <ele>51.2</ele>
        <time>2022-08-11T11:05:50.494+02:00</time>
      </trkpt>
      <trkpt lat="45.55038" lon="-0.91652">
        <ele>51.3</ele>
        <time>2022-08-11T11:05:53.491+02:00</time>
      </trkpt>
      <trkpt lat="45.55029" lon="-0.91638">
        <ele>51.6</ele>
        <time>2022-08-11T11:05:56.491+02:00</time>
      </trkpt>
      <trkpt lat="45.5502" lon="-0.91624">
        <ele>51.6</ele>
        <time>2022-08-11T11:05:59.481+02:00</time>
      </trkpt>
      <trkpt lat="45.55011" lon="-0.9161">
        <ele>51.7</ele>
        <time>2022-08-11T11:06:02.491+02:00</time>
      </trkpt>
      <trkpt lat="45.55002" lon="-0.91596">
        <ele>52</ele>
        <time>2022-08-11T11:06:05.479+02:00</time>
      </trkpt>
      <trkpt lat="45.54993" lon="-0.91583">
        <ele>52.1</ele>
        <time>2022-08-11T11:06:08.475+02:00</time>
      </trkpt>
      <trkpt lat="45.54983" lon="-0.9157">
        <ele>52.1</ele>
        <time>2022-08-11T11:06:11.492+02:00</time>
      </trkpt>
      <trkpt lat="45.54973" lon="-0.91558">
        <ele>52.2</ele>
        <time>2022-08-11T11:06:14.49+02:00</time>
      </trkpt>
      <trkpt lat="45.54964" lon="-0.91544">
        <ele>52.8</ele>
        <time>2022-08-11T11:06:17.502+02:00</time>
      </trkpt>
      <trkpt lat="45.54955" lon="-0.91531">
        <ele>53.1</ele>
        <time>2022-08-11T11:06:20.487+02:00</time>
      </trkpt>
      <trkpt lat="45.54946" lon="-0.9152">
        <ele>53</ele>
        <time>2022-08-11T11:06:23.496+02:00</time>
      </trkpt>
      <trkpt lat="45.54936" lon="-0.91508">
        <ele>52.5</ele>
        <time>2022-08-11T11:06:26.494+02:00</time>
      </trkpt>
      <trkpt lat="45.54929" lon="-0.91498">
        <ele>52.5</ele>
        <time>2022-08-11T11:06:28.471+02:00</time>
      </trkpt>
      <trkpt lat="45.54922" lon="-0.9149">
        <ele>52.3</ele>
        <time>2022-08-11T11:06:30.487+02:00</time>
      </trkpt>
      <trkpt lat="45.54912" lon="-0.91478">
        <ele>52.1</ele>
        <time>2022-08-11T11:06:33.489+02:00</time>
      </trkpt>
      <trkpt lat="45.54902" lon="-0.91466">
        <ele>51.9</ele>
        <time>2022-08-11T11:06:36.488+02:00</time>
      </trkpt>
      <trkpt lat="45.54895" lon="-0.91458">
        <ele>51.9</ele>
        <time>2022-08-11T11:06:38.471+02:00</time>
      </trkpt>
      <trkpt lat="45.54888" lon="-0.9145">
        <ele>51.6</ele>
        <time>2022-08-11T11:06:40.487+02:00</time>
      </trkpt>
      <trkpt lat="45.5488" lon="-0.91441">
        <ele>51.6</ele>
        <time>2022-08-11T11:06:42.498+02:00</time>
      </trkpt>
      <trkpt lat="45.54873" lon="-0.91433">
        <ele>51.4</ele>
        <time>2022-08-11T11:06:44.488+02:00</time>
      </trkpt>
      <trkpt lat="45.54862" lon="-0.91421">
        <ele>50.9</ele>
        <time>2022-08-11T11:06:47.499+02:00</time>
      </trkpt>
      <trkpt lat="45.54852" lon="-0.9141">
        <ele>50.5</ele>
        <time>2022-08-11T11:06:50.487+02:00</time>
      </trkpt>
      <trkpt lat="45.54844" lon="-0.91402">
        <ele>50.7</ele>
        <time>2022-08-11T11:06:52.485+02:00</time>
      </trkpt>
      <trkpt lat="45.54837" lon="-0.91394">
        <ele>50.6</ele>
        <time>2022-08-11T11:06:54.494+02:00</time>
      </trkpt>
      <trkpt lat="45.5483" lon="-0.91386">
        <ele>50.8</ele>
        <time>2022-08-11T11:06:56.498+02:00</time>
      </trkpt>
      <trkpt lat="45.54822" lon="-0.91378">
        <ele>50.8</ele>
        <time>2022-08-11T11:06:58.468+02:00</time>
      </trkpt>
      <trkpt lat="45.54815" lon="-0.9137">
        <ele>50.7</ele>
        <time>2022-08-11T11:07:00.485+02:00</time>
      </trkpt>
      <trkpt lat="45.54807" lon="-0.91361">
        <ele>50.9</ele>
        <time>2022-08-11T11:07:02.497+02:00</time>
      </trkpt>
      <trkpt lat="45.54801" lon="-0.91353">
        <ele>51</ele>
        <time>2022-08-11T11:07:04.484+02:00</time>
      </trkpt>
      <trkpt lat="45.54793" lon="-0.91346">
        <ele>51.1</ele>
        <time>2022-08-11T11:07:06.491+02:00</time>
      </trkpt>
      <trkpt lat="45.54782" lon="-0.91335">
        <ele>51.1</ele>
        <time>2022-08-11T11:07:09.485+02:00</time>
      </trkpt>
      <trkpt lat="45.54771" lon="-0.91325">
        <ele>50.7</ele>
        <time>2022-08-11T11:07:12.506+02:00</time>
      </trkpt>
      <trkpt lat="45.54759" lon="-0.91318">
        <ele>50.6</ele>
        <time>2022-08-11T11:07:15.481+02:00</time>
      </trkpt>
      <trkpt lat="45.54748" lon="-0.91309">
        <ele>50.6</ele>
        <time>2022-08-11T11:07:18.48+02:00</time>
      </trkpt>
      <trkpt lat="45.5474" lon="-0.91303">
        <ele>50.6</ele>
        <time>2022-08-11T11:07:20.486+02:00</time>
      </trkpt>
      <trkpt lat="45.54729" lon="-0.91292">
        <ele>51.1</ele>
        <time>2022-08-11T11:07:23.495+02:00</time>
      </trkpt>
      <trkpt lat="45.54718" lon="-0.91282">
        <ele>50.4</ele>
        <time>2022-08-11T11:07:26.484+02:00</time>
      </trkpt>
      <trkpt lat="45.5471" lon="-0.91275">
        <ele>50.5</ele>
        <time>2022-08-11T11:07:28.48+02:00</time>
      </trkpt>
      <trkpt lat="45.54699" lon="-0.91264">
        <ele>50.1</ele>
        <time>2022-08-11T11:07:31.495+02:00</time>
      </trkpt>
      <trkpt lat="45.54689" lon="-0.91254">
        <ele>49.7</ele>
        <time>2022-08-11T11:07:34.491+02:00</time>
      </trkpt>
      <trkpt lat="45.54678" lon="-0.91245">
        <ele>49.4</ele>
        <time>2022-08-11T11:07:37.491+02:00</time>
      </trkpt>
      <trkpt lat="45.54668" lon="-0.91236">
        <ele>49.6</ele>
        <time>2022-08-11T11:07:40.488+02:00</time>
      </trkpt>
      <trkpt lat="45.54658" lon="-0.91228">
        <ele>49.8</ele>
        <time>2022-08-11T11:07:43.493+02:00</time>
      </trkpt>
      <trkpt lat="45.54648" lon="-0.91221">
        <ele>49.6</ele>
        <time>2022-08-11T11:07:46.483+02:00</time>
      </trkpt>
      <trkpt lat="45.54639" lon="-0.91214">
        <ele>49.8</ele>
        <time>2022-08-11T11:07:49.489+02:00</time>
      </trkpt>
      <trkpt lat="45.54629" lon="-0.91206">
        <ele>50.2</ele>
        <time>2022-08-11T11:07:52.495+02:00</time>
      </trkpt>
      <trkpt lat="45.54619" lon="-0.91198">
        <ele>50.1</ele>
        <time>2022-08-11T11:07:55.491+02:00</time>
      </trkpt>
      <trkpt lat="45.54609" lon="-0.91189">
        <ele>50</ele>
        <time>2022-08-11T11:07:58.479+02:00</time>
      </trkpt>
      <trkpt lat="45.54598" lon="-0.91181">
        <ele>50.1</ele>
        <time>2022-08-11T11:08:01.497+02:00</time>
      </trkpt>
      <trkpt lat="45.54588" lon="-0.91173">
        <ele>49.7</ele>
        <time>2022-08-11T11:08:04.496+02:00</time>
      </trkpt>
      <trkpt lat="45.54576" lon="-0.91163">
        <ele>49.7</ele>
        <time>2022-08-11T11:08:07.486+02:00</time>
      </trkpt>
      <trkpt lat="45.54565" lon="-0.91154">
        <ele>49.8</ele>
        <time>2022-08-11T11:08:10.49+02:00</time>
      </trkpt>
      <trkpt lat="45.54553" lon="-0.91146">
        <ele>49.6</ele>
        <time>2022-08-11T11:08:13.482+02:00</time>
      </trkpt>
      <trkpt lat="45.54543" lon="-0.91137">
        <ele>49.5</ele>
        <time>2022-08-11T11:08:16.491+02:00</time>
      </trkpt>
      <trkpt lat="45.54533" lon="-0.91128">
        <ele>49.6</ele>
        <time>2022-08-11T11:08:19.49+02:00</time>
      </trkpt>
      <trkpt lat="45.54525" lon="-0.91122">
        <ele>49.4</ele>
        <time>2022-08-11T11:08:22.492+02:00</time>
      </trkpt>
      <trkpt lat="45.54518" lon="-0.91109">
        <ele>48.3</ele>
        <time>2022-08-11T11:08:25.491+02:00</time>
      </trkpt>
      <trkpt lat="45.54508" lon="-0.911">
        <ele>48.4</ele>
        <time>2022-08-11T11:08:28.482+02:00</time>
      </trkpt>
      <trkpt lat="45.54497" lon="-0.91092">
        <ele>48.3</ele>
        <time>2022-08-11T11:08:31.496+02:00</time>
      </trkpt>
      <trkpt lat="45.54486" lon="-0.91083">
        <ele>48.3</ele>
        <time>2022-08-11T11:08:34.495+02:00</time>
      </trkpt>
      <trkpt lat="45.54475" lon="-0.91075">
        <ele>48.4</ele>
        <time>2022-08-11T11:08:37.489+02:00</time>
      </trkpt>
      <trkpt lat="45.54464" lon="-0.91067">
        <ele>48.3</ele>
        <time>2022-08-11T11:08:40.487+02:00</time>
      </trkpt>
      <trkpt lat="45.54453" lon="-0.91058">
        <ele>48.3</ele>
        <time>2022-08-11T11:08:43.489+02:00</time>
      </trkpt>
      <trkpt lat="45.54441" lon="-0.91048">
        <ele>48.2</ele>
        <time>2022-08-11T11:08:46.498+02:00</time>
      </trkpt>
      <trkpt lat="45.54432" lon="-0.91041">
        <ele>48.1</ele>
        <time>2022-08-11T11:08:48.482+02:00</time>
      </trkpt>
      <trkpt lat="45.54423" lon="-0.91034">
        <ele>48</ele>
        <time>2022-08-11T11:08:50.489+02:00</time>
      </trkpt>
      <trkpt lat="45.54414" lon="-0.91027">
        <ele>47.8</ele>
        <time>2022-08-11T11:08:52.497+02:00</time>
      </trkpt>
      <trkpt lat="45.54405" lon="-0.9102">
        <ele>47.7</ele>
        <time>2022-08-11T11:08:54.521+02:00</time>
      </trkpt>
      <trkpt lat="45.54396" lon="-0.91013">
        <ele>47.3</ele>
        <time>2022-08-11T11:08:56.494+02:00</time>
      </trkpt>
      <trkpt lat="45.54386" lon="-0.91005">
        <ele>47.1</ele>
        <time>2022-08-11T11:08:58.478+02:00</time>
      </trkpt>
      <trkpt lat="45.54376" lon="-0.90997">
        <ele>47.3</ele>
        <time>2022-08-11T11:09:00.485+02:00</time>
      </trkpt>
      <trkpt lat="45.54366" lon="-0.90989">
        <ele>47</ele>
        <time>2022-08-11T11:09:02.492+02:00</time>
      </trkpt>
      <trkpt lat="45.54357" lon="-0.90982">
        <ele>46.7</ele>
        <time>2022-08-11T11:09:04.493+02:00</time>
      </trkpt>
      <trkpt lat="45.54347" lon="-0.90974">
        <ele>46.4</ele>
        <time>2022-08-11T11:09:06.475+02:00</time>
      </trkpt>
      <trkpt lat="45.54337" lon="-0.90965">
        <ele>46.5</ele>
        <time>2022-08-11T11:09:08.478+02:00</time>
      </trkpt>
      <trkpt lat="45.54327" lon="-0.90958">
        <ele>46.1</ele>
        <time>2022-08-11T11:09:10.491+02:00</time>
      </trkpt>
      <trkpt lat="45.54317" lon="-0.9095">
        <ele>45.9</ele>
        <time>2022-08-11T11:09:12.483+02:00</time>
      </trkpt>
      <trkpt lat="45.54307" lon="-0.90942">
        <ele>45.9</ele>
        <time>2022-08-11T11:09:14.491+02:00</time>
      </trkpt>
      <trkpt lat="45.54297" lon="-0.90934">
        <ele>46.1</ele>
        <time>2022-08-11T11:09:16.488+02:00</time>
      </trkpt>
      <trkpt lat="45.54287" lon="-0.90925">
        <ele>46.2</ele>
        <time>2022-08-11T11:09:18.479+02:00</time>
      </trkpt>
      <trkpt lat="45.54277" lon="-0.90918">
        <ele>46.3</ele>
        <time>2022-08-11T11:09:20.488+02:00</time>
      </trkpt>
      <trkpt lat="45.54267" lon="-0.9091">
        <ele>46.5</ele>
        <time>2022-08-11T11:09:22.49+02:00</time>
      </trkpt>
      <trkpt lat="45.54258" lon="-0.90903">
        <ele>46.9</ele>
        <time>2022-08-11T11:09:24.484+02:00</time>
      </trkpt>
      <trkpt lat="45.54248" lon="-0.90895">
        <ele>46.8</ele>
        <time>2022-08-11T11:09:26.491+02:00</time>
      </trkpt>
      <trkpt lat="45.54239" lon="-0.90887">
        <ele>46.9</ele>
        <time>2022-08-11T11:09:28.478+02:00</time>
      </trkpt>
      <trkpt lat="45.54229" lon="-0.9088">
        <ele>46.7</ele>
        <time>2022-08-11T11:09:30.492+02:00</time>
      </trkpt>
      <trkpt lat="45.54219" lon="-0.90872">
        <ele>47.1</ele>
        <time>2022-08-11T11:09:32.494+02:00</time>
      </trkpt>
      <trkpt lat="45.54209" lon="-0.90864">
        <ele>47.2</ele>
        <time>2022-08-11T11:09:34.49+02:00</time>
      </trkpt>
      <trkpt lat="45.54199" lon="-0.90856">
        <ele>47.3</ele>
        <time>2022-08-11T11:09:36.488+02:00</time>
      </trkpt>
      <trkpt lat="45.5419" lon="-0.90848">
        <ele>47.4</ele>
        <time>2022-08-11T11:09:38.474+02:00</time>
      </trkpt>
      <trkpt lat="45.5418" lon="-0.9084">
        <ele>47.2</ele>
        <time>2022-08-11T11:09:40.496+02:00</time>
      </trkpt>
      <trkpt lat="45.54169" lon="-0.90832">
        <ele>47.3</ele>
        <time>2022-08-11T11:09:42.491+02:00</time>
      </trkpt>
      <trkpt lat="45.5416" lon="-0.90825">
        <ele>47.2</ele>
        <time>2022-08-11T11:09:44.49+02:00</time>
      </trkpt>
      <trkpt lat="45.54149" lon="-0.90817">
        <ele>47.3</ele>
        <time>2022-08-11T11:09:46.489+02:00</time>
      </trkpt>
      <trkpt lat="45.5414" lon="-0.90808">
        <ele>47.1</ele>
        <time>2022-08-11T11:09:48.476+02:00</time>
      </trkpt>
      <trkpt lat="45.54129" lon="-0.908">
        <ele>47.4</ele>
        <time>2022-08-11T11:09:50.494+02:00</time>
      </trkpt>
      <trkpt lat="45.54119" lon="-0.90793">
        <ele>47</ele>
        <time>2022-08-11T11:09:52.492+02:00</time>
      </trkpt>
      <trkpt lat="45.54109" lon="-0.90785">
        <ele>47.1</ele>
        <time>2022-08-11T11:09:54.492+02:00</time>
      </trkpt>
      <trkpt lat="45.54099" lon="-0.90777">
        <ele>47.3</ele>
        <time>2022-08-11T11:09:56.494+02:00</time>
      </trkpt>
      <trkpt lat="45.54089" lon="-0.90769">
        <ele>47.4</ele>
        <time>2022-08-11T11:09:58.49+02:00</time>
      </trkpt>
      <trkpt lat="45.5408" lon="-0.90761">
        <ele>47.8</ele>
        <time>2022-08-11T11:10:00.485+02:00</time>
      </trkpt>
      <trkpt lat="45.5407" lon="-0.90754">
        <ele>47.9</ele>
        <time>2022-08-11T11:10:02.488+02:00</time>
      </trkpt>
      <trkpt lat="45.54061" lon="-0.90747">
        <ele>47.7</ele>
        <time>2022-08-11T11:10:04.489+02:00</time>
      </trkpt>
      <trkpt lat="45.54052" lon="-0.90741">
        <ele>47.7</ele>
        <time>2022-08-11T11:10:06.483+02:00</time>
      </trkpt>
      <trkpt lat="45.54042" lon="-0.90733">
        <ele>47.9</ele>
        <time>2022-08-11T11:10:08.483+02:00</time>
      </trkpt>
      <trkpt lat="45.54034" lon="-0.90727">
        <ele>47.6</ele>
        <time>2022-08-11T11:10:10.495+02:00</time>
      </trkpt>
      <trkpt lat="45.54025" lon="-0.9072">
        <ele>47.3</ele>
        <time>2022-08-11T11:10:12.489+02:00</time>
      </trkpt>
      <trkpt lat="45.54017" lon="-0.90713">
        <ele>47.4</ele>
        <time>2022-08-11T11:10:14.497+02:00</time>
      </trkpt>
      <trkpt lat="45.54008" lon="-0.90706">
        <ele>47.6</ele>
        <time>2022-08-11T11:10:16.491+02:00</time>
      </trkpt>
      <trkpt lat="45.53999" lon="-0.90699">
        <ele>47.7</ele>
        <time>2022-08-11T11:10:18.488+02:00</time>
      </trkpt>
      <trkpt lat="45.5399" lon="-0.90692">
        <ele>47.7</ele>
        <time>2022-08-11T11:10:20.495+02:00</time>
      </trkpt>
      <trkpt lat="45.53981" lon="-0.90685">
        <ele>48.1</ele>
        <time>2022-08-11T11:10:22.494+02:00</time>
      </trkpt>
      <trkpt lat="45.53972" lon="-0.90678">
        <ele>47.9</ele>
        <time>2022-08-11T11:10:24.488+02:00</time>
      </trkpt>
      <trkpt lat="45.53963" lon="-0.90671">
        <ele>47.9</ele>
        <time>2022-08-11T11:10:26.493+02:00</time>
      </trkpt>
      <trkpt lat="45.53954" lon="-0.90663">
        <ele>48.1</ele>
        <time>2022-08-11T11:10:28.491+02:00</time>
      </trkpt>
      <trkpt lat="45.53945" lon="-0.90655">
        <ele>47.9</ele>
        <time>2022-08-11T11:10:30.497+02:00</time>
      </trkpt>
      <trkpt lat="45.53936" lon="-0.90648">
        <ele>47.9</ele>
        <time>2022-08-11T11:10:32.495+02:00</time>
      </trkpt>
      <trkpt lat="45.53927" lon="-0.90641">
        <ele>48.1</ele>
        <time>2022-08-11T11:10:34.487+02:00</time>
      </trkpt>
      <trkpt lat="45.53919" lon="-0.90634">
        <ele>47.9</ele>
        <time>2022-08-11T11:10:36.494+02:00</time>
      </trkpt>
      <trkpt lat="45.5391" lon="-0.90626">
        <ele>48.2</ele>
        <time>2022-08-11T11:10:38.491+02:00</time>
      </trkpt>
      <trkpt lat="45.53901" lon="-0.90619">
        <ele>48.3</ele>
        <time>2022-08-11T11:10:40.486+02:00</time>
      </trkpt>
      <trkpt lat="45.53892" lon="-0.90612">
        <ele>48.4</ele>
        <time>2022-08-11T11:10:42.495+02:00</time>
      </trkpt>
      <trkpt lat="45.53883" lon="-0.90605">
        <ele>48.7</ele>
        <time>2022-08-11T11:10:44.493+02:00</time>
      </trkpt>
      <trkpt lat="45.53875" lon="-0.90598">
        <ele>48.1</ele>
        <time>2022-08-11T11:10:46.491+02:00</time>
      </trkpt>
      <trkpt lat="45.53866" lon="-0.90592">
        <ele>47.8</ele>
        <time>2022-08-11T11:10:48.489+02:00</time>
      </trkpt>
      <trkpt lat="45.53858" lon="-0.90586">
        <ele>47.3</ele>
        <time>2022-08-11T11:10:50.488+02:00</time>
      </trkpt>
      <trkpt lat="45.53847" lon="-0.90576">
        <ele>47.3</ele>
        <time>2022-08-11T11:10:53.486+02:00</time>
      </trkpt>
      <trkpt lat="45.53836" lon="-0.90569">
        <ele>47.4</ele>
        <time>2022-08-11T11:10:56.495+02:00</time>
      </trkpt>
      <trkpt lat="45.53825" lon="-0.90561">
        <ele>47.1</ele>
        <time>2022-08-11T11:10:59.485+02:00</time>
      </trkpt>
      <trkpt lat="45.53813" lon="-0.90558">
        <ele>47.1</ele>
        <time>2022-08-11T11:11:02.49+02:00</time>
      </trkpt>
      <trkpt lat="45.538" lon="-0.90562">
        <ele>47.6</ele>
        <time>2022-08-11T11:11:05.492+02:00</time>
      </trkpt>
      <trkpt lat="45.53788" lon="-0.90568">
        <ele>48.7</ele>
        <time>2022-08-11T11:11:08.498+02:00</time>
      </trkpt>
      <trkpt lat="45.53775" lon="-0.90575">
        <ele>48.9</ele>
        <time>2022-08-11T11:11:11.497+02:00</time>
      </trkpt>
      <trkpt lat="45.53763" lon="-0.90582">
        <ele>49</ele>
        <time>2022-08-11T11:11:14.486+02:00</time>
      </trkpt>
      <trkpt lat="45.53751" lon="-0.90588">
        <ele>49</ele>
        <time>2022-08-11T11:11:17.493+02:00</time>
      </trkpt>
      <trkpt lat="45.5374" lon="-0.90592">
        <ele>49.4</ele>
        <time>2022-08-11T11:11:20.491+02:00</time>
      </trkpt>
      <trkpt lat="45.53729" lon="-0.90592">
        <ele>49.9</ele>
        <time>2022-08-11T11:11:23.493+02:00</time>
      </trkpt>
      <trkpt lat="45.5372" lon="-0.90592">
        <ele>49</ele>
        <time>2022-08-11T11:11:28.494+02:00</time>
      </trkpt>
      <trkpt lat="45.53712" lon="-0.90596">
        <ele>49.1</ele>
        <time>2022-08-11T11:11:31.496+02:00</time>
      </trkpt>
      <trkpt lat="45.53702" lon="-0.90602">
        <ele>49.4</ele>
        <time>2022-08-11T11:11:34.486+02:00</time>
      </trkpt>
      <trkpt lat="45.53692" lon="-0.90608">
        <ele>49.3</ele>
        <time>2022-08-11T11:11:37.492+02:00</time>
      </trkpt>
      <trkpt lat="45.53681" lon="-0.90614">
        <ele>49.5</ele>
        <time>2022-08-11T11:11:40.495+02:00</time>
      </trkpt>
      <trkpt lat="45.5367" lon="-0.9062">
        <ele>50.2</ele>
        <time>2022-08-11T11:11:43.491+02:00</time>
      </trkpt>
      <trkpt lat="45.53661" lon="-0.90629">
        <ele>50.3</ele>
        <time>2022-08-11T11:11:46.491+02:00</time>
      </trkpt>
      <trkpt lat="45.53652" lon="-0.90639">
        <ele>49.9</ele>
        <time>2022-08-11T11:11:49.491+02:00</time>
      </trkpt>
      <trkpt lat="45.53645" lon="-0.90648">
        <ele>49.9</ele>
        <time>2022-08-11T11:11:53.492+02:00</time>
      </trkpt>
      <trkpt lat="45.53645" lon="-0.90648">
        <ele>49.8</ele>
        <time>2022-08-11T11:11:54.492+02:00</time>
      </trkpt>
      <trkpt lat="45.53646" lon="-0.90648">
        <ele>50.3</ele>
        <time>2022-08-11T11:12:01.464+02:00</time>
      </trkpt>
      <trkpt lat="45.53646" lon="-0.90649">
        <ele>50.2</ele>
        <time>2022-08-11T11:12:02.469+02:00</time>
      </trkpt>
      <trkpt lat="45.53636" lon="-0.90655">
        <ele>50.2</ele>
        <time>2022-08-11T11:12:12.483+02:00</time>
      </trkpt>
      <trkpt lat="45.53628" lon="-0.90665">
        <ele>50</ele>
        <time>2022-08-11T11:12:17.484+02:00</time>
      </trkpt>
      <trkpt lat="45.53621" lon="-0.90674">
        <ele>51</ele>
        <time>2022-08-11T11:12:23.495+02:00</time>
      </trkpt>
      <trkpt lat="45.53619" lon="-0.90678">
        <ele>50.5</ele>
        <time>2022-08-11T11:12:27.482+02:00</time>
      </trkpt>
      <trkpt lat="45.53619" lon="-0.90678">
        <ele>50.6</ele>
        <time>2022-08-11T11:12:28.49+02:00</time>
      </trkpt>
      <trkpt lat="45.53619" lon="-0.90679">
        <ele>51</ele>
        <time>2022-08-11T11:13:03.466+02:00</time>
      </trkpt>
      <trkpt lat="45.53619" lon="-0.90679">
        <ele>50.9</ele>
        <time>2022-08-11T11:13:04.466+02:00</time>
      </trkpt>
      <trkpt lat="45.53623" lon="-0.90666">
        <ele>49.7</ele>
        <time>2022-08-11T11:13:12.485+02:00</time>
      </trkpt>
      <trkpt lat="45.53624" lon="-0.9065">
        <ele>49.6</ele>
        <time>2022-08-11T11:13:17.493+02:00</time>
      </trkpt>
      <trkpt lat="45.53621" lon="-0.90636">
        <ele>49.2</ele>
        <time>2022-08-11T11:13:21.491+02:00</time>
      </trkpt>
      <trkpt lat="45.53616" lon="-0.90624">
        <ele>48.7</ele>
        <time>2022-08-11T11:13:25.49+02:00</time>
      </trkpt>
      <trkpt lat="45.5361" lon="-0.90614">
        <ele>48.4</ele>
        <time>2022-08-11T11:13:31.485+02:00</time>
      </trkpt>
      <trkpt lat="45.53604" lon="-0.90603">
        <ele>49</ele>
        <time>2022-08-11T11:13:37.484+02:00</time>
      </trkpt>
      <trkpt lat="45.53604" lon="-0.9059">
        <ele>48.2</ele>
        <time>2022-08-11T11:13:46.488+02:00</time>
      </trkpt>
      <trkpt lat="45.53603" lon="-0.90576">
        <ele>48.4</ele>
        <time>2022-08-11T11:13:50.478+02:00</time>
      </trkpt>
      <trkpt lat="45.53599" lon="-0.90561">
        <ele>48.6</ele>
        <time>2022-08-11T11:13:54.49+02:00</time>
      </trkpt>
      <trkpt lat="45.53596" lon="-0.90548">
        <ele>49</ele>
        <time>2022-08-11T11:13:57.483+02:00</time>
      </trkpt>
      <trkpt lat="45.53594" lon="-0.90533">
        <ele>49.3</ele>
        <time>2022-08-11T11:14:01.491+02:00</time>
      </trkpt>
      <trkpt lat="45.53592" lon="-0.9052">
        <ele>49.4</ele>
        <time>2022-08-11T11:14:04.489+02:00</time>
      </trkpt>
      <trkpt lat="45.53589" lon="-0.90506">
        <ele>49.5</ele>
        <time>2022-08-11T11:14:07.489+02:00</time>
      </trkpt>
      <trkpt lat="45.53587" lon="-0.90492">
        <ele>49.4</ele>
        <time>2022-08-11T11:14:10.489+02:00</time>
      </trkpt>
      <trkpt lat="45.53586" lon="-0.90479">
        <ele>49.4</ele>
        <time>2022-08-11T11:14:13.494+02:00</time>
      </trkpt>
      <trkpt lat="45.53583" lon="-0.90465">
        <ele>49.4</ele>
        <time>2022-08-11T11:14:16.485+02:00</time>
      </trkpt>
      <trkpt lat="45.53581" lon="-0.9045">
        <ele>49.2</ele>
        <time>2022-08-11T11:14:19.482+02:00</time>
      </trkpt>
      <trkpt lat="45.53578" lon="-0.90434">
        <ele>53.3</ele>
        <time>2022-08-11T11:14:22.479+02:00</time>
      </trkpt>
      <trkpt lat="45.53574" lon="-0.90419">
        <ele>50.2</ele>
        <time>2022-08-11T11:14:25.494+02:00</time>
      </trkpt>
      <trkpt lat="45.53571" lon="-0.90403">
        <ele>51.3</ele>
        <time>2022-08-11T11:14:28.498+02:00</time>
      </trkpt>
      <trkpt lat="45.53566" lon="-0.90388">
        <ele>51.1</ele>
        <time>2022-08-11T11:14:31.495+02:00</time>
      </trkpt>
      <trkpt lat="45.5356" lon="-0.90374">
        <ele>52.1</ele>
        <time>2022-08-11T11:14:34.485+02:00</time>
      </trkpt>
      <trkpt lat="45.53555" lon="-0.9036">
        <ele>49.3</ele>
        <time>2022-08-11T11:14:37.493+02:00</time>
      </trkpt>
      <trkpt lat="45.53549" lon="-0.90347">
        <ele>48.3</ele>
        <time>2022-08-11T11:14:40.484+02:00</time>
      </trkpt>
      <trkpt lat="45.53542" lon="-0.90334">
        <ele>48.2</ele>
        <time>2022-08-11T11:14:43.487+02:00</time>
      </trkpt>
      <trkpt lat="45.53536" lon="-0.90321">
        <ele>48.2</ele>
        <time>2022-08-11T11:14:46.494+02:00</time>
      </trkpt>
      <trkpt lat="45.53529" lon="-0.90309">
        <ele>48.4</ele>
        <time>2022-08-11T11:14:49.482+02:00</time>
      </trkpt>
      <trkpt lat="45.53522" lon="-0.90298">
        <ele>48.1</ele>
        <time>2022-08-11T11:14:52.481+02:00</time>
      </trkpt>
      <trkpt lat="45.53515" lon="-0.90286">
        <ele>48.3</ele>
        <time>2022-08-11T11:14:55.491+02:00</time>
      </trkpt>
      <trkpt lat="45.53507" lon="-0.90275">
        <ele>48.7</ele>
        <time>2022-08-11T11:14:58.471+02:00</time>
      </trkpt>
      <trkpt lat="45.535" lon="-0.90266">
        <ele>48.8</ele>
        <time>2022-08-11T11:15:01.506+02:00</time>
      </trkpt>
      <trkpt lat="45.53493" lon="-0.90256">
        <ele>49.2</ele>
        <time>2022-08-11T11:15:04.475+02:00</time>
      </trkpt>
      <trkpt lat="45.53485" lon="-0.90245">
        <ele>49.3</ele>
        <time>2022-08-11T11:15:07.486+02:00</time>
      </trkpt>
      <trkpt lat="45.53478" lon="-0.90233">
        <ele>48.8</ele>
        <time>2022-08-11T11:15:10.478+02:00</time>
      </trkpt>
      <trkpt lat="45.53472" lon="-0.90221">
        <ele>48.6</ele>
        <time>2022-08-11T11:15:13.483+02:00</time>
      </trkpt>
      <trkpt lat="45.53467" lon="-0.90207">
        <ele>47.9</ele>
        <time>2022-08-11T11:15:16.49+02:00</time>
      </trkpt>
      <trkpt lat="45.5346" lon="-0.90194">
        <ele>47.7</ele>
        <time>2022-08-11T11:15:19.483+02:00</time>
      </trkpt>
      <trkpt lat="45.53449" lon="-0.90188">
        <ele>47.8</ele>
        <time>2022-08-11T11:15:22.477+02:00</time>
      </trkpt>
      <trkpt lat="45.53439" lon="-0.90186">
        <ele>49</ele>
        <time>2022-08-11T11:15:25.477+02:00</time>
      </trkpt>
      <trkpt lat="45.5343" lon="-0.90188">
        <ele>49.1</ele>
        <time>2022-08-11T11:15:28.483+02:00</time>
      </trkpt>
      <trkpt lat="45.53419" lon="-0.90191">
        <ele>48.9</ele>
        <time>2022-08-11T11:15:32.485+02:00</time>
      </trkpt>
      <trkpt lat="45.53408" lon="-0.90191">
        <ele>50.1</ele>
        <time>2022-08-11T11:15:36.485+02:00</time>
      </trkpt>
      <trkpt lat="45.53397" lon="-0.90188">
        <ele>50.4</ele>
        <time>2022-08-11T11:15:40.479+02:00</time>
      </trkpt>
      <trkpt lat="45.53386" lon="-0.90185">
        <ele>52.9</ele>
        <time>2022-08-11T11:15:45.477+02:00</time>
      </trkpt>
      <trkpt lat="45.53377" lon="-0.90181">
        <ele>51.3</ele>
        <time>2022-08-11T11:15:50.483+02:00</time>
      </trkpt>
      <trkpt lat="45.53368" lon="-0.90177">
        <ele>54.1</ele>
        <time>2022-08-11T11:15:54.483+02:00</time>
      </trkpt>
      <trkpt lat="45.5336" lon="-0.90185">
        <ele>55.2</ele>
        <time>2022-08-11T11:16:00.495+02:00</time>
      </trkpt>
      <trkpt lat="45.53352" lon="-0.90197">
        <ele>53.5</ele>
        <time>2022-08-11T11:16:05.49+02:00</time>
      </trkpt>
      <trkpt lat="45.53345" lon="-0.90208">
        <ele>54.6</ele>
        <time>2022-08-11T11:16:10.482+02:00</time>
      </trkpt>
      <trkpt lat="45.53339" lon="-0.90218">
        <ele>54.7</ele>
        <time>2022-08-11T11:16:14.485+02:00</time>
      </trkpt>
      <trkpt lat="45.53333" lon="-0.90228">
        <ele>54.6</ele>
        <time>2022-08-11T11:16:18.488+02:00</time>
      </trkpt>
      <trkpt lat="45.53325" lon="-0.90236">
        <ele>55</ele>
        <time>2022-08-11T11:16:22.488+02:00</time>
      </trkpt>
      <trkpt lat="45.53317" lon="-0.90245">
        <ele>57.3</ele>
        <time>2022-08-11T11:16:26.477+02:00</time>
      </trkpt>
      <trkpt lat="45.53308" lon="-0.90255">
        <ele>55.3</ele>
        <time>2022-08-11T11:16:30.5+02:00</time>
      </trkpt>
      <trkpt lat="45.53298" lon="-0.90264">
        <ele>55.6</ele>
        <time>2022-08-11T11:16:34.491+02:00</time>
      </trkpt>
      <trkpt lat="45.53288" lon="-0.90264">
        <ele>56.1</ele>
        <time>2022-08-11T11:16:38.493+02:00</time>
      </trkpt>
      <trkpt lat="45.53279" lon="-0.90259">
        <ele>55.9</ele>
        <time>2022-08-11T11:16:42.482+02:00</time>
      </trkpt>
      <trkpt lat="45.5327" lon="-0.9026">
        <ele>56.4</ele>
        <time>2022-08-11T11:16:46.489+02:00</time>
      </trkpt>
      <trkpt lat="45.53261" lon="-0.90268">
        <ele>57.7</ele>
        <time>2022-08-11T11:16:50.492+02:00</time>
      </trkpt>
      <trkpt lat="45.53253" lon="-0.90278">
        <ele>56.9</ele>
        <time>2022-08-11T11:16:54.473+02:00</time>
      </trkpt>
      <trkpt lat="45.53246" lon="-0.90287">
        <ele>56.9</ele>
        <time>2022-08-11T11:16:58.484+02:00</time>
      </trkpt>
      <trkpt lat="45.53237" lon="-0.90296">
        <ele>57.9</ele>
        <time>2022-08-11T11:17:03.486+02:00</time>
      </trkpt>
      <trkpt lat="45.53227" lon="-0.90297">
        <ele>58.9</ele>
        <time>2022-08-11T11:17:08.488+02:00</time>
      </trkpt>
      <trkpt lat="45.53217" lon="-0.90289">
        <ele>59.8</ele>
        <time>2022-08-11T11:17:13.489+02:00</time>
      </trkpt>
      <trkpt lat="45.5321" lon="-0.90279">
        <ele>60</ele>
        <time>2022-08-11T11:17:17.495+02:00</time>
      </trkpt>
      <trkpt lat="45.53204" lon="-0.90268">
        <ele>59.9</ele>
        <time>2022-08-11T11:17:21.491+02:00</time>
      </trkpt>
      <trkpt lat="45.53198" lon="-0.90258">
        <ele>60.1</ele>
        <time>2022-08-11T11:17:25.493+02:00</time>
      </trkpt>
      <trkpt lat="45.53192" lon="-0.90247">
        <ele>60.8</ele>
        <time>2022-08-11T11:17:29.485+02:00</time>
      </trkpt>
      <trkpt lat="45.53186" lon="-0.90237">
        <ele>61.5</ele>
        <time>2022-08-11T11:17:33.475+02:00</time>
      </trkpt>
      <trkpt lat="45.5318" lon="-0.90227">
        <ele>62</ele>
        <time>2022-08-11T11:17:37.492+02:00</time>
      </trkpt>
      <trkpt lat="45.53172" lon="-0.90216">
        <ele>62.7</ele>
        <time>2022-08-11T11:17:41.485+02:00</time>
      </trkpt>
      <trkpt lat="45.53166" lon="-0.90205">
        <ele>63.2</ele>
        <time>2022-08-11T11:17:45.496+02:00</time>
      </trkpt>
      <trkpt lat="45.53159" lon="-0.90193">
        <ele>63.8</ele>
        <time>2022-08-11T11:17:49.483+02:00</time>
      </trkpt>
      <trkpt lat="45.53153" lon="-0.90181">
        <ele>64.9</ele>
        <time>2022-08-11T11:17:53.481+02:00</time>
      </trkpt>
      <trkpt lat="45.53146" lon="-0.90171">
        <ele>66</ele>
        <time>2022-08-11T11:17:57.49+02:00</time>
      </trkpt>
      <trkpt lat="45.5314" lon="-0.90159">
        <ele>66.6</ele>
        <time>2022-08-11T11:18:01.495+02:00</time>
      </trkpt>
      <trkpt lat="45.53134" lon="-0.90149">
        <ele>66.8</ele>
        <time>2022-08-11T11:18:04.489+02:00</time>
      </trkpt>
      <trkpt lat="45.53127" lon="-0.90139">
        <ele>66.9</ele>
        <time>2022-08-11T11:18:07.5+02:00</time>
      </trkpt>
      <trkpt lat="45.53119" lon="-0.90128">
        <ele>67</ele>
        <time>2022-08-11T11:18:10.497+02:00</time>
      </trkpt>
      <trkpt lat="45.53112" lon="-0.90116">
        <ele>67.4</ele>
        <time>2022-08-11T11:18:13.488+02:00</time>
      </trkpt>
      <trkpt lat="45.53105" lon="-0.90105">
        <ele>68</ele>
        <time>2022-08-11T11:18:16.494+02:00</time>
      </trkpt>
      <trkpt lat="45.53098" lon="-0.90094">
        <ele>68.7</ele>
        <time>2022-08-11T11:18:19.47+02:00</time>
      </trkpt>
      <trkpt lat="45.53092" lon="-0.90082">
        <ele>69.3</ele>
        <time>2022-08-11T11:18:22.491+02:00</time>
      </trkpt>
      <trkpt lat="45.53087" lon="-0.9007">
        <ele>69.2</ele>
        <time>2022-08-11T11:18:25.497+02:00</time>
      </trkpt>
      <trkpt lat="45.53081" lon="-0.90057">
        <ele>69.2</ele>
        <time>2022-08-11T11:18:29.486+02:00</time>
      </trkpt>
      <trkpt lat="45.53076" lon="-0.90044">
        <ele>69.7</ele>
        <time>2022-08-11T11:18:33.498+02:00</time>
      </trkpt>
      <trkpt lat="45.53071" lon="-0.9003">
        <ele>69.1</ele>
        <time>2022-08-11T11:18:37.499+02:00</time>
      </trkpt>
      <trkpt lat="45.53066" lon="-0.90016">
        <ele>69.4</ele>
        <time>2022-08-11T11:18:41.494+02:00</time>
      </trkpt>
      <trkpt lat="45.53061" lon="-0.90004">
        <ele>69.6</ele>
        <time>2022-08-11T11:18:45.491+02:00</time>
      </trkpt>
      <trkpt lat="45.53056" lon="-0.8999">
        <ele>70.3</ele>
        <time>2022-08-11T11:18:50.496+02:00</time>
      </trkpt>
      <trkpt lat="45.53052" lon="-0.89978">
        <ele>70.4</ele>
        <time>2022-08-11T11:18:55.497+02:00</time>
      </trkpt>
      <trkpt lat="45.53047" lon="-0.89965">
        <ele>70.7</ele>
        <time>2022-08-11T11:19:00.491+02:00</time>
      </trkpt>
      <trkpt lat="45.53042" lon="-0.89952">
        <ele>70.5</ele>
        <time>2022-08-11T11:19:05.5+02:00</time>
      </trkpt>
      <trkpt lat="45.53036" lon="-0.89944">
        <ele>70.3</ele>
        <time>2022-08-11T11:19:10.491+02:00</time>
      </trkpt>
      <trkpt lat="45.53036" lon="-0.89944">
        <ele>70.5</ele>
        <time>2022-08-11T11:19:11.489+02:00</time>
      </trkpt>
      <trkpt lat="45.53037" lon="-0.89944">
        <ele>70.2</ele>
        <time>2022-08-11T11:19:52.491+02:00</time>
      </trkpt>
      <trkpt lat="45.53037" lon="-0.89944">
        <ele>70.2</ele>
        <time>2022-08-11T11:19:53.496+02:00</time>
      </trkpt>
      <trkpt lat="45.53032" lon="-0.8993">
        <ele>68.9</ele>
        <time>2022-08-11T11:20:01.494+02:00</time>
      </trkpt>
      <trkpt lat="45.53028" lon="-0.89917">
        <ele>68.3</ele>
        <time>2022-08-11T11:20:04.49+02:00</time>
      </trkpt>
      <trkpt lat="45.53029" lon="-0.89901">
        <ele>68</ele>
        <time>2022-08-11T11:20:07.497+02:00</time>
      </trkpt>
      <trkpt lat="45.53028" lon="-0.89884">
        <ele>67.2</ele>
        <time>2022-08-11T11:20:10.484+02:00</time>
      </trkpt>
      <trkpt lat="45.53022" lon="-0.89867">
        <ele>66.8</ele>
        <time>2022-08-11T11:20:13.495+02:00</time>
      </trkpt>
      <trkpt lat="45.53016" lon="-0.8985">
        <ele>66.7</ele>
        <time>2022-08-11T11:20:16.484+02:00</time>
      </trkpt>
      <trkpt lat="45.53011" lon="-0.89835">
        <ele>67.1</ele>
        <time>2022-08-11T11:20:19.466+02:00</time>
      </trkpt>
      <trkpt lat="45.53005" lon="-0.8982">
        <ele>67.3</ele>
        <time>2022-08-11T11:20:22.492+02:00</time>
      </trkpt>
      <trkpt lat="45.52998" lon="-0.89805">
        <ele>67.2</ele>
        <time>2022-08-11T11:20:25.49+02:00</time>
      </trkpt>
      <trkpt lat="45.52993" lon="-0.8979">
        <ele>67.1</ele>
        <time>2022-08-11T11:20:28.496+02:00</time>
      </trkpt>
      <trkpt lat="45.52987" lon="-0.89775">
        <ele>66.6</ele>
        <time>2022-08-11T11:20:32.473+02:00</time>
      </trkpt>
      <trkpt lat="45.52983" lon="-0.89762">
        <ele>66.6</ele>
        <time>2022-08-11T11:20:35.484+02:00</time>
      </trkpt>
      <trkpt lat="45.52978" lon="-0.89748">
        <ele>67.1</ele>
        <time>2022-08-11T11:20:38.491+02:00</time>
      </trkpt>
      <trkpt lat="45.52973" lon="-0.89733">
        <ele>67.2</ele>
        <time>2022-08-11T11:20:41.492+02:00</time>
      </trkpt>
      <trkpt lat="45.52967" lon="-0.8972">
        <ele>67.4</ele>
        <time>2022-08-11T11:20:44.495+02:00</time>
      </trkpt>
      <trkpt lat="45.52962" lon="-0.89706">
        <ele>67.4</ele>
        <time>2022-08-11T11:20:47.486+02:00</time>
      </trkpt>
      <trkpt lat="45.52957" lon="-0.89693">
        <ele>67.6</ele>
        <time>2022-08-11T11:20:50.482+02:00</time>
      </trkpt>
      <trkpt lat="45.52953" lon="-0.89682">
        <ele>67.9</ele>
        <time>2022-08-11T11:20:53.488+02:00</time>
      </trkpt>
      <trkpt lat="45.52948" lon="-0.89668">
        <ele>67.6</ele>
        <time>2022-08-11T11:20:56.49+02:00</time>
      </trkpt>
      <trkpt lat="45.52943" lon="-0.89656">
        <ele>67.5</ele>
        <time>2022-08-11T11:20:59.473+02:00</time>
      </trkpt>
      <trkpt lat="45.52938" lon="-0.89642">
        <ele>68.1</ele>
        <time>2022-08-11T11:21:02.481+02:00</time>
      </trkpt>
      <trkpt lat="45.52933" lon="-0.89628">
        <ele>68.4</ele>
        <time>2022-08-11T11:21:05.494+02:00</time>
      </trkpt>
      <trkpt lat="45.52929" lon="-0.89615">
        <ele>68.7</ele>
        <time>2022-08-11T11:21:08.488+02:00</time>
      </trkpt>
      <trkpt lat="45.52928" lon="-0.896">
        <ele>68.4</ele>
        <time>2022-08-11T11:21:11.486+02:00</time>
      </trkpt>
      <trkpt lat="45.52934" lon="-0.89584">
        <ele>68.2</ele>
        <time>2022-08-11T11:21:14.486+02:00</time>
      </trkpt>
      <trkpt lat="45.5294" lon="-0.89568">
        <ele>67.8</ele>
        <time>2022-08-11T11:21:17.481+02:00</time>
      </trkpt>
      <trkpt lat="45.52946" lon="-0.89558">
        <ele>67.1</ele>
        <time>2022-08-11T11:21:19.463+02:00</time>
      </trkpt>
      <trkpt lat="45.52953" lon="-0.89541">
        <ele>66.7</ele>
        <time>2022-08-11T11:21:22.49+02:00</time>
      </trkpt>
      <trkpt lat="45.52957" lon="-0.89529">
        <ele>66.2</ele>
        <time>2022-08-11T11:21:24.487+02:00</time>
      </trkpt>
      <trkpt lat="45.52961" lon="-0.89517">
        <ele>65.8</ele>
        <time>2022-08-11T11:21:26.48+02:00</time>
      </trkpt>
      <trkpt lat="45.52965" lon="-0.89506">
        <ele>66.1</ele>
        <time>2022-08-11T11:21:28.489+02:00</time>
      </trkpt>
      <trkpt lat="45.5297" lon="-0.89493">
        <ele>66.2</ele>
        <time>2022-08-11T11:21:31.48+02:00</time>
      </trkpt>
      <trkpt lat="45.52975" lon="-0.89479">
        <ele>65.6</ele>
        <time>2022-08-11T11:21:35.486+02:00</time>
      </trkpt>
      <trkpt lat="45.52981" lon="-0.89468">
        <ele>65.5</ele>
        <time>2022-08-11T11:21:38.479+02:00</time>
      </trkpt>
      <trkpt lat="45.52989" lon="-0.89462">
        <ele>65.4</ele>
        <time>2022-08-11T11:21:41.485+02:00</time>
      </trkpt>
      <trkpt lat="45.52998" lon="-0.89455">
        <ele>65.9</ele>
        <time>2022-08-11T11:21:44.485+02:00</time>
      </trkpt>
      <trkpt lat="45.53006" lon="-0.8945">
        <ele>66.2</ele>
        <time>2022-08-11T11:21:47.485+02:00</time>
      </trkpt>
      <trkpt lat="45.53015" lon="-0.89444">
        <ele>66.3</ele>
        <time>2022-08-11T11:21:50.484+02:00</time>
      </trkpt>
      <trkpt lat="45.53024" lon="-0.89436">
        <ele>66.1</ele>
        <time>2022-08-11T11:21:53.486+02:00</time>
      </trkpt>
      <trkpt lat="45.53035" lon="-0.89428">
        <ele>65.3</ele>
        <time>2022-08-11T11:21:56.49+02:00</time>
      </trkpt>
      <trkpt lat="45.53046" lon="-0.89419">
        <ele>64.7</ele>
        <time>2022-08-11T11:21:59.476+02:00</time>
      </trkpt>
      <trkpt lat="45.53054" lon="-0.89413">
        <ele>64.2</ele>
        <time>2022-08-11T11:22:01.48+02:00</time>
      </trkpt>
      <trkpt lat="45.53061" lon="-0.89405">
        <ele>63.5</ele>
        <time>2022-08-11T11:22:03.485+02:00</time>
      </trkpt>
      <trkpt lat="45.53068" lon="-0.89396">
        <ele>62.3</ele>
        <time>2022-08-11T11:22:05.486+02:00</time>
      </trkpt>
      <trkpt lat="45.53075" lon="-0.89388">
        <ele>61.8</ele>
        <time>2022-08-11T11:22:07.487+02:00</time>
      </trkpt>
      <trkpt lat="45.53085" lon="-0.89377">
        <ele>60.7</ele>
        <time>2022-08-11T11:22:10.486+02:00</time>
      </trkpt>
      <trkpt lat="45.53095" lon="-0.89372">
        <ele>60.1</ele>
        <time>2022-08-11T11:22:13.486+02:00</time>
      </trkpt>
      <trkpt lat="45.53105" lon="-0.89375">
        <ele>59.4</ele>
        <time>2022-08-11T11:22:16.488+02:00</time>
      </trkpt>
      <trkpt lat="45.53116" lon="-0.89374">
        <ele>58.7</ele>
        <time>2022-08-11T11:22:20.492+02:00</time>
      </trkpt>
      <trkpt lat="45.53123" lon="-0.89362">
        <ele>58.2</ele>
        <time>2022-08-11T11:22:23.493+02:00</time>
      </trkpt>
      <trkpt lat="45.53132" lon="-0.89357">
        <ele>57.6</ele>
        <time>2022-08-11T11:22:26.491+02:00</time>
      </trkpt>
      <trkpt lat="45.53143" lon="-0.89361">
        <ele>57.3</ele>
        <time>2022-08-11T11:22:29.474+02:00</time>
      </trkpt>
      <trkpt lat="45.53153" lon="-0.89365">
        <ele>57.7</ele>
        <time>2022-08-11T11:22:32.482+02:00</time>
      </trkpt>
      <trkpt lat="45.53163" lon="-0.89358">
        <ele>56.2</ele>
        <time>2022-08-11T11:22:35.492+02:00</time>
      </trkpt>
      <trkpt lat="45.53169" lon="-0.89347">
        <ele>57.4</ele>
        <time>2022-08-11T11:22:38.488+02:00</time>
      </trkpt>
      <trkpt lat="45.53174" lon="-0.89334">
        <ele>56.3</ele>
        <time>2022-08-11T11:22:41.489+02:00</time>
      </trkpt>
      <trkpt lat="45.53175" lon="-0.89319">
        <ele>55.9</ele>
        <time>2022-08-11T11:22:44.487+02:00</time>
      </trkpt>
      <trkpt lat="45.53175" lon="-0.89306">
        <ele>55.6</ele>
        <time>2022-08-11T11:22:47.495+02:00</time>
      </trkpt>
      <trkpt lat="45.53176" lon="-0.89289">
        <ele>55.5</ele>
        <time>2022-08-11T11:22:51.493+02:00</time>
      </trkpt>
      <trkpt lat="45.53176" lon="-0.89272">
        <ele>55.1</ele>
        <time>2022-08-11T11:22:55.497+02:00</time>
      </trkpt>
      <trkpt lat="45.53177" lon="-0.89258">
        <ele>55.2</ele>
        <time>2022-08-11T11:22:58.479+02:00</time>
      </trkpt>
      <trkpt lat="45.53179" lon="-0.89243">
        <ele>54</ele>
        <time>2022-08-11T11:23:02.474+02:00</time>
      </trkpt>
      <trkpt lat="45.5318" lon="-0.89228">
        <ele>53.7</ele>
        <time>2022-08-11T11:23:06.493+02:00</time>
      </trkpt>
      <trkpt lat="45.5318" lon="-0.89215">
        <ele>52.9</ele>
        <time>2022-08-11T11:23:10.497+02:00</time>
      </trkpt>
      <trkpt lat="45.53179" lon="-0.89201">
        <ele>52.9</ele>
        <time>2022-08-11T11:23:14.486+02:00</time>
      </trkpt>
      <trkpt lat="45.53179" lon="-0.89186">
        <ele>52.5</ele>
        <time>2022-08-11T11:23:18.496+02:00</time>
      </trkpt>
      <trkpt lat="45.53178" lon="-0.8917">
        <ele>52</ele>
        <time>2022-08-11T11:23:22.485+02:00</time>
      </trkpt>
      <trkpt lat="45.53174" lon="-0.89156">
        <ele>51.3</ele>
        <time>2022-08-11T11:23:25.479+02:00</time>
      </trkpt>
      <trkpt lat="45.53169" lon="-0.8914">
        <ele>50.5</ele>
        <time>2022-08-11T11:23:28.49+02:00</time>
      </trkpt>
      <trkpt lat="45.53165" lon="-0.89124">
        <ele>50</ele>
        <time>2022-08-11T11:23:31.489+02:00</time>
      </trkpt>
      <trkpt lat="45.5316" lon="-0.89109">
        <ele>49.1</ele>
        <time>2022-08-11T11:23:34.493+02:00</time>
      </trkpt>
      <trkpt lat="45.53155" lon="-0.89093">
        <ele>48.8</ele>
        <time>2022-08-11T11:23:37.493+02:00</time>
      </trkpt>
      <trkpt lat="45.53149" lon="-0.89076">
        <ele>49</ele>
        <time>2022-08-11T11:23:40.488+02:00</time>
      </trkpt>
      <trkpt lat="45.53142" lon="-0.89062">
        <ele>49.5</ele>
        <time>2022-08-11T11:23:43.494+02:00</time>
      </trkpt>
      <trkpt lat="45.53133" lon="-0.89051">
        <ele>50.3</ele>
        <time>2022-08-11T11:23:46.478+02:00</time>
      </trkpt>
      <trkpt lat="45.53126" lon="-0.8904">
        <ele>50.7</ele>
        <time>2022-08-11T11:23:49.484+02:00</time>
      </trkpt>
      <trkpt lat="45.53122" lon="-0.89027">
        <ele>50.8</ele>
        <time>2022-08-11T11:23:52.502+02:00</time>
      </trkpt>
      <trkpt lat="45.53118" lon="-0.89014">
        <ele>50.9</ele>
        <time>2022-08-11T11:23:55.487+02:00</time>
      </trkpt>
      <trkpt lat="45.53113" lon="-0.89002">
        <ele>51.4</ele>
        <time>2022-08-11T11:23:58.489+02:00</time>
      </trkpt>
      <trkpt lat="45.53109" lon="-0.88988">
        <ele>51.4</ele>
        <time>2022-08-11T11:24:01.481+02:00</time>
      </trkpt>
      <trkpt lat="45.53104" lon="-0.88975">
        <ele>51.7</ele>
        <time>2022-08-11T11:24:04.494+02:00</time>
      </trkpt>
      <trkpt lat="45.53099" lon="-0.88962">
        <ele>51.7</ele>
        <time>2022-08-11T11:24:07.482+02:00</time>
      </trkpt>
      <trkpt lat="45.53095" lon="-0.8895">
        <ele>52.2</ele>
        <time>2022-08-11T11:24:10.478+02:00</time>
      </trkpt>
      <trkpt lat="45.53091" lon="-0.88938">
        <ele>51.9</ele>
        <time>2022-08-11T11:24:13.495+02:00</time>
      </trkpt>
      <trkpt lat="45.53087" lon="-0.88926">
        <ele>51.7</ele>
        <time>2022-08-11T11:24:16.481+02:00</time>
      </trkpt>
      <trkpt lat="45.53082" lon="-0.88911">
        <ele>52.1</ele>
        <time>2022-08-11T11:24:20.483+02:00</time>
      </trkpt>
      <trkpt lat="45.53077" lon="-0.88898">
        <ele>52.3</ele>
        <time>2022-08-11T11:24:23.491+02:00</time>
      </trkpt>
      <trkpt lat="45.53071" lon="-0.8888">
        <ele>52.4</ele>
        <time>2022-08-11T11:24:26.494+02:00</time>
      </trkpt>
      <trkpt lat="45.53068" lon="-0.88867">
        <ele>52.1</ele>
        <time>2022-08-11T11:24:28.486+02:00</time>
      </trkpt>
      <trkpt lat="45.53063" lon="-0.88854">
        <ele>51.9</ele>
        <time>2022-08-11T11:24:30.479+02:00</time>
      </trkpt>
      <trkpt lat="45.53058" lon="-0.88842">
        <ele>52.1</ele>
        <time>2022-08-11T11:24:32.491+02:00</time>
      </trkpt>
      <trkpt lat="45.53054" lon="-0.8883">
        <ele>51.6</ele>
        <time>2022-08-11T11:24:34.483+02:00</time>
      </trkpt>
      <trkpt lat="45.53049" lon="-0.88818">
        <ele>51.4</ele>
        <time>2022-08-11T11:24:36.484+02:00</time>
      </trkpt>
      <trkpt lat="45.53044" lon="-0.88806">
        <ele>51.6</ele>
        <time>2022-08-11T11:24:38.493+02:00</time>
      </trkpt>
      <trkpt lat="45.53039" lon="-0.88793">
        <ele>51.6</ele>
        <time>2022-08-11T11:24:40.474+02:00</time>
      </trkpt>
      <trkpt lat="45.53033" lon="-0.8878">
        <ele>51.6</ele>
        <time>2022-08-11T11:24:42.485+02:00</time>
      </trkpt>
      <trkpt lat="45.53028" lon="-0.88766">
        <ele>51.8</ele>
        <time>2022-08-11T11:24:44.494+02:00</time>
      </trkpt>
      <trkpt lat="45.53022" lon="-0.88754">
        <ele>51.9</ele>
        <time>2022-08-11T11:24:46.485+02:00</time>
      </trkpt>
      <trkpt lat="45.53015" lon="-0.88743">
        <ele>51.8</ele>
        <time>2022-08-11T11:24:48.496+02:00</time>
      </trkpt>
      <trkpt lat="45.5301" lon="-0.88732">
        <ele>51.5</ele>
        <time>2022-08-11T11:24:50.475+02:00</time>
      </trkpt>
      <trkpt lat="45.53002" lon="-0.88716">
        <ele>51</ele>
        <time>2022-08-11T11:24:53.495+02:00</time>
      </trkpt>
      <trkpt lat="45.52998" lon="-0.88703">
        <ele>50.6</ele>
        <time>2022-08-11T11:24:55.491+02:00</time>
      </trkpt>
      <trkpt lat="45.52994" lon="-0.88691">
        <ele>50.5</ele>
        <time>2022-08-11T11:24:57.487+02:00</time>
      </trkpt>
      <trkpt lat="45.52992" lon="-0.88677">
        <ele>50.4</ele>
        <time>2022-08-11T11:24:59.495+02:00</time>
      </trkpt>
      <trkpt lat="45.52988" lon="-0.88664">
        <ele>50.3</ele>
        <time>2022-08-11T11:25:01.487+02:00</time>
      </trkpt>
      <trkpt lat="45.52984" lon="-0.8865">
        <ele>50.2</ele>
        <time>2022-08-11T11:25:03.48+02:00</time>
      </trkpt>
      <trkpt lat="45.5298" lon="-0.88637">
        <ele>50</ele>
        <time>2022-08-11T11:25:05.497+02:00</time>
      </trkpt>
      <trkpt lat="45.52976" lon="-0.88624">
        <ele>50.3</ele>
        <time>2022-08-11T11:25:07.49+02:00</time>
      </trkpt>
      <trkpt lat="45.52972" lon="-0.88612">
        <ele>49.9</ele>
        <time>2022-08-11T11:25:09.495+02:00</time>
      </trkpt>
      <trkpt lat="45.52967" lon="-0.886">
        <ele>49.8</ele>
        <time>2022-08-11T11:25:11.49+02:00</time>
      </trkpt>
      <trkpt lat="45.52963" lon="-0.88588">
        <ele>49.6</ele>
        <time>2022-08-11T11:25:13.485+02:00</time>
      </trkpt>
      <trkpt lat="45.52959" lon="-0.88576">
        <ele>49.3</ele>
        <time>2022-08-11T11:25:15.484+02:00</time>
      </trkpt>
      <trkpt lat="45.52954" lon="-0.88564">
        <ele>49.3</ele>
        <time>2022-08-11T11:25:17.485+02:00</time>
      </trkpt>
      <trkpt lat="45.52949" lon="-0.88552">
        <ele>49.4</ele>
        <time>2022-08-11T11:25:19.495+02:00</time>
      </trkpt>
      <trkpt lat="45.52944" lon="-0.88541">
        <ele>49.3</ele>
        <time>2022-08-11T11:25:21.488+02:00</time>
      </trkpt>
      <trkpt lat="45.52938" lon="-0.88529">
        <ele>48.9</ele>
        <time>2022-08-11T11:25:23.487+02:00</time>
      </trkpt>
      <trkpt lat="45.52932" lon="-0.88519">
        <ele>49.3</ele>
        <time>2022-08-11T11:25:25.485+02:00</time>
      </trkpt>
      <trkpt lat="45.52927" lon="-0.88509">
        <ele>49.3</ele>
        <time>2022-08-11T11:25:27.493+02:00</time>
      </trkpt>
      <trkpt lat="45.52919" lon="-0.88495">
        <ele>48.9</ele>
        <time>2022-08-11T11:25:30.468+02:00</time>
      </trkpt>
      <trkpt lat="45.52911" lon="-0.88482">
        <ele>48.8</ele>
        <time>2022-08-11T11:25:33.471+02:00</time>
      </trkpt>
      <trkpt lat="45.52903" lon="-0.88469">
        <ele>49.3</ele>
        <time>2022-08-11T11:25:36.478+02:00</time>
      </trkpt>
      <trkpt lat="45.52896" lon="-0.88456">
        <ele>49.1</ele>
        <time>2022-08-11T11:25:39.46+02:00</time>
      </trkpt>
      <trkpt lat="45.52891" lon="-0.88443">
        <ele>48.1</ele>
        <time>2022-08-11T11:25:42.469+02:00</time>
      </trkpt>
      <trkpt lat="45.52885" lon="-0.88429">
        <ele>47.8</ele>
        <time>2022-08-11T11:25:45.49+02:00</time>
      </trkpt>
      <trkpt lat="45.52877" lon="-0.88417">
        <ele>47.5</ele>
        <time>2022-08-11T11:25:48.476+02:00</time>
      </trkpt>
      <trkpt lat="45.52869" lon="-0.88405">
        <ele>47.2</ele>
        <time>2022-08-11T11:25:51.497+02:00</time>
      </trkpt>
      <trkpt lat="45.52861" lon="-0.88394">
        <ele>47.5</ele>
        <time>2022-08-11T11:25:54.482+02:00</time>
      </trkpt>
      <trkpt lat="45.52854" lon="-0.88383">
        <ele>47.8</ele>
        <time>2022-08-11T11:25:57.481+02:00</time>
      </trkpt>
      <trkpt lat="45.52846" lon="-0.88372">
        <ele>48.3</ele>
        <time>2022-08-11T11:26:00.482+02:00</time>
      </trkpt>
      <trkpt lat="45.52838" lon="-0.8836">
        <ele>48.5</ele>
        <time>2022-08-11T11:26:03.486+02:00</time>
      </trkpt>
      <trkpt lat="45.5283" lon="-0.88348">
        <ele>48.4</ele>
        <time>2022-08-11T11:26:06.485+02:00</time>
      </trkpt>
      <trkpt lat="45.52822" lon="-0.88336">
        <ele>48.7</ele>
        <time>2022-08-11T11:26:09.489+02:00</time>
      </trkpt>
      <trkpt lat="45.52814" lon="-0.88324">
        <ele>48.9</ele>
        <time>2022-08-11T11:26:12.492+02:00</time>
      </trkpt>
      <trkpt lat="45.52806" lon="-0.88313">
        <ele>49</ele>
        <time>2022-08-11T11:26:15.491+02:00</time>
      </trkpt>
      <trkpt lat="45.52798" lon="-0.88301">
        <ele>49</ele>
        <time>2022-08-11T11:26:18.483+02:00</time>
      </trkpt>
      <trkpt lat="45.52791" lon="-0.88289">
        <ele>48.9</ele>
        <time>2022-08-11T11:26:21.494+02:00</time>
      </trkpt>
      <trkpt lat="45.52783" lon="-0.88277">
        <ele>49.5</ele>
        <time>2022-08-11T11:26:24.485+02:00</time>
      </trkpt>
      <trkpt lat="45.52774" lon="-0.88266">
        <ele>49.8</ele>
        <time>2022-08-11T11:26:27.497+02:00</time>
      </trkpt>
      <trkpt lat="45.52766" lon="-0.88253">
        <ele>50</ele>
        <time>2022-08-11T11:26:30.485+02:00</time>
      </trkpt>
      <trkpt lat="45.52759" lon="-0.88238">
        <ele>49.8</ele>
        <time>2022-08-11T11:26:33.49+02:00</time>
      </trkpt>
      <trkpt lat="45.52752" lon="-0.88228">
        <ele>49.5</ele>
        <time>2022-08-11T11:26:36.486+02:00</time>
      </trkpt>
      <trkpt lat="45.52744" lon="-0.88221">
        <ele>48.9</ele>
        <time>2022-08-11T11:26:39.49+02:00</time>
      </trkpt>
      <trkpt lat="45.52736" lon="-0.8821">
        <ele>49.1</ele>
        <time>2022-08-11T11:26:42.487+02:00</time>
      </trkpt>
      <trkpt lat="45.52727" lon="-0.88198">
        <ele>49.2</ele>
        <time>2022-08-11T11:26:45.476+02:00</time>
      </trkpt>
      <trkpt lat="45.52718" lon="-0.88185">
        <ele>49.4</ele>
        <time>2022-08-11T11:26:48.489+02:00</time>
      </trkpt>
      <trkpt lat="45.52709" lon="-0.88173">
        <ele>49</ele>
        <time>2022-08-11T11:26:51.487+02:00</time>
      </trkpt>
      <trkpt lat="45.527" lon="-0.88161">
        <ele>48.6</ele>
        <time>2022-08-11T11:26:54.491+02:00</time>
      </trkpt>
      <trkpt lat="45.5269" lon="-0.88149">
        <ele>48.1</ele>
        <time>2022-08-11T11:26:57.489+02:00</time>
      </trkpt>
      <trkpt lat="45.52681" lon="-0.88137">
        <ele>48.2</ele>
        <time>2022-08-11T11:27:00.486+02:00</time>
      </trkpt>
      <trkpt lat="45.52671" lon="-0.88126">
        <ele>48.2</ele>
        <time>2022-08-11T11:27:03.481+02:00</time>
      </trkpt>
      <trkpt lat="45.52661" lon="-0.88114">
        <ele>47.8</ele>
        <time>2022-08-11T11:27:06.495+02:00</time>
      </trkpt>
      <trkpt lat="45.52652" lon="-0.88103">
        <ele>47.9</ele>
        <time>2022-08-11T11:27:09.488+02:00</time>
      </trkpt>
      <trkpt lat="45.52644" lon="-0.88094">
        <ele>47.7</ele>
        <time>2022-08-11T11:27:12.494+02:00</time>
      </trkpt>
      <trkpt lat="45.52642" lon="-0.88081">
        <ele>47.9</ele>
        <time>2022-08-11T11:27:16.492+02:00</time>
      </trkpt>
      <trkpt lat="45.52651" lon="-0.88077">
        <ele>48.6</ele>
        <time>2022-08-11T11:27:21.492+02:00</time>
      </trkpt>
      <trkpt lat="45.5266" lon="-0.88075">
        <ele>50.1</ele>
        <time>2022-08-11T11:27:27.488+02:00</time>
      </trkpt>
      <trkpt lat="45.52671" lon="-0.88073">
        <ele>51</ele>
        <time>2022-08-11T11:27:32.485+02:00</time>
      </trkpt>
      <trkpt lat="45.5268" lon="-0.8807">
        <ele>51.2</ele>
        <time>2022-08-11T11:27:36.493+02:00</time>
      </trkpt>
      <trkpt lat="45.5269" lon="-0.88067">
        <ele>51</ele>
        <time>2022-08-11T11:27:40.483+02:00</time>
      </trkpt>
      <trkpt lat="45.52702" lon="-0.88067">
        <ele>51</ele>
        <time>2022-08-11T11:27:44.484+02:00</time>
      </trkpt>
      <trkpt lat="45.52713" lon="-0.88065">
        <ele>51.7</ele>
        <time>2022-08-11T11:27:48.469+02:00</time>
      </trkpt>
      <trkpt lat="45.52719" lon="-0.88053">
        <ele>52.5</ele>
        <time>2022-08-11T11:27:52.489+02:00</time>
      </trkpt>
      <trkpt lat="45.52716" lon="-0.88039">
        <ele>52</ele>
        <time>2022-08-11T11:27:56.487+02:00</time>
      </trkpt>
      <trkpt lat="45.52713" lon="-0.88024">
        <ele>53.1</ele>
        <time>2022-08-11T11:28:00.479+02:00</time>
      </trkpt>
      <trkpt lat="45.5271" lon="-0.8801">
        <ele>53.6</ele>
        <time>2022-08-11T11:28:04.485+02:00</time>
      </trkpt>
      <trkpt lat="45.52708" lon="-0.87997">
        <ele>54.2</ele>
        <time>2022-08-11T11:28:08.491+02:00</time>
      </trkpt>
      <trkpt lat="45.52706" lon="-0.87984">
        <ele>55.6</ele>
        <time>2022-08-11T11:28:12.482+02:00</time>
      </trkpt>
      <trkpt lat="45.52705" lon="-0.87971">
        <ele>55.8</ele>
        <time>2022-08-11T11:28:16.478+02:00</time>
      </trkpt>
      <trkpt lat="45.52703" lon="-0.87957">
        <ele>56.3</ele>
        <time>2022-08-11T11:28:20.482+02:00</time>
      </trkpt>
      <trkpt lat="45.527" lon="-0.87943">
        <ele>57</ele>
        <time>2022-08-11T11:28:24.494+02:00</time>
      </trkpt>
      <trkpt lat="45.52696" lon="-0.87927">
        <ele>57.2</ele>
        <time>2022-08-11T11:28:28.48+02:00</time>
      </trkpt>
      <trkpt lat="45.5269" lon="-0.87913">
        <ele>57.2</ele>
        <time>2022-08-11T11:28:32.469+02:00</time>
      </trkpt>
      <trkpt lat="45.52684" lon="-0.87901">
        <ele>59</ele>
        <time>2022-08-11T11:28:36.494+02:00</time>
      </trkpt>
      <trkpt lat="45.52677" lon="-0.87889">
        <ele>58.5</ele>
        <time>2022-08-11T11:28:40.481+02:00</time>
      </trkpt>
      <trkpt lat="45.5267" lon="-0.87877">
        <ele>58</ele>
        <time>2022-08-11T11:28:44.492+02:00</time>
      </trkpt>
      <trkpt lat="45.52664" lon="-0.87865">
        <ele>57.9</ele>
        <time>2022-08-11T11:28:48.491+02:00</time>
      </trkpt>
      <trkpt lat="45.52657" lon="-0.87854">
        <ele>57.6</ele>
        <time>2022-08-11T11:28:51.473+02:00</time>
      </trkpt>
      <trkpt lat="45.5265" lon="-0.8784">
        <ele>57.5</ele>
        <time>2022-08-11T11:28:54.482+02:00</time>
      </trkpt>
      <trkpt lat="45.52643" lon="-0.87825">
        <ele>57</ele>
        <time>2022-08-11T11:28:57.487+02:00</time>
      </trkpt>
      <trkpt lat="45.52637" lon="-0.8781">
        <ele>57.2</ele>
        <time>2022-08-11T11:29:00.48+02:00</time>
      </trkpt>
      <trkpt lat="45.52631" lon="-0.87794">
        <ele>57</ele>
        <time>2022-08-11T11:29:03.489+02:00</time>
      </trkpt>
      <trkpt lat="45.52624" lon="-0.8778">
        <ele>56.8</ele>
        <time>2022-08-11T11:29:06.486+02:00</time>
      </trkpt>
      <trkpt lat="45.52617" lon="-0.87766">
        <ele>56.8</ele>
        <time>2022-08-11T11:29:09.483+02:00</time>
      </trkpt>
      <trkpt lat="45.52608" lon="-0.87753">
        <ele>57</ele>
        <time>2022-08-11T11:29:12.491+02:00</time>
      </trkpt>
      <trkpt lat="45.526" lon="-0.87741">
        <ele>57.4</ele>
        <time>2022-08-11T11:29:15.491+02:00</time>
      </trkpt>
      <trkpt lat="45.52591" lon="-0.87731">
        <ele>57.5</ele>
        <time>2022-08-11T11:29:18.48+02:00</time>
      </trkpt>
      <trkpt lat="45.52583" lon="-0.87721">
        <ele>58</ele>
        <time>2022-08-11T11:29:21.493+02:00</time>
      </trkpt>
      <trkpt lat="45.52575" lon="-0.87713">
        <ele>58.3</ele>
        <time>2022-08-11T11:29:24.483+02:00</time>
      </trkpt>
      <trkpt lat="45.52568" lon="-0.87704">
        <ele>58.3</ele>
        <time>2022-08-11T11:29:27.492+02:00</time>
      </trkpt>
      <trkpt lat="45.5256" lon="-0.87695">
        <ele>58.8</ele>
        <time>2022-08-11T11:29:31.494+02:00</time>
      </trkpt>
      <trkpt lat="45.52552" lon="-0.87684">
        <ele>58.2</ele>
        <time>2022-08-11T11:29:35.481+02:00</time>
      </trkpt>
      <trkpt lat="45.52545" lon="-0.87673">
        <ele>58.8</ele>
        <time>2022-08-11T11:29:39.482+02:00</time>
      </trkpt>
      <trkpt lat="45.52538" lon="-0.87662">
        <ele>59</ele>
        <time>2022-08-11T11:29:43.487+02:00</time>
      </trkpt>
      <trkpt lat="45.52531" lon="-0.8765">
        <ele>60</ele>
        <time>2022-08-11T11:29:47.466+02:00</time>
      </trkpt>
      <trkpt lat="45.52523" lon="-0.87638">
        <ele>60.5</ele>
        <time>2022-08-11T11:29:51.486+02:00</time>
      </trkpt>
      <trkpt lat="45.52516" lon="-0.87626">
        <ele>61.6</ele>
        <time>2022-08-11T11:29:55.493+02:00</time>
      </trkpt>
      <trkpt lat="45.5251" lon="-0.87615">
        <ele>60.7</ele>
        <time>2022-08-11T11:29:59.484+02:00</time>
      </trkpt>
      <trkpt lat="45.52503" lon="-0.87606">
        <ele>61.9</ele>
        <time>2022-08-11T11:30:03.492+02:00</time>
      </trkpt>
      <trkpt lat="45.52496" lon="-0.87597">
        <ele>62.6</ele>
        <time>2022-08-11T11:30:07.495+02:00</time>
      </trkpt>
      <trkpt lat="45.52489" lon="-0.87587">
        <ele>63.2</ele>
        <time>2022-08-11T11:30:11.497+02:00</time>
      </trkpt>
      <trkpt lat="45.52481" lon="-0.87579">
        <ele>64.2</ele>
        <time>2022-08-11T11:30:15.492+02:00</time>
      </trkpt>
      <trkpt lat="45.52474" lon="-0.8757">
        <ele>65</ele>
        <time>2022-08-11T11:30:19.489+02:00</time>
      </trkpt>
      <trkpt lat="45.52467" lon="-0.87561">
        <ele>65.8</ele>
        <time>2022-08-11T11:30:23.48+02:00</time>
      </trkpt>
      <trkpt lat="45.52458" lon="-0.8755">
        <ele>66</ele>
        <time>2022-08-11T11:30:28.49+02:00</time>
      </trkpt>
      <trkpt lat="45.52451" lon="-0.8754">
        <ele>66.3</ele>
        <time>2022-08-11T11:30:32.485+02:00</time>
      </trkpt>
      <trkpt lat="45.52444" lon="-0.87529">
        <ele>67</ele>
        <time>2022-08-11T11:30:36.494+02:00</time>
      </trkpt>
      <trkpt lat="45.52437" lon="-0.87518">
        <ele>67.4</ele>
        <time>2022-08-11T11:30:40.483+02:00</time>
      </trkpt>
      <trkpt lat="45.52431" lon="-0.87505">
        <ele>67.8</ele>
        <time>2022-08-11T11:30:44.477+02:00</time>
      </trkpt>
      <trkpt lat="45.52425" lon="-0.87493">
        <ele>66.4</ele>
        <time>2022-08-11T11:30:48.477+02:00</time>
      </trkpt>
      <trkpt lat="45.52419" lon="-0.87482">
        <ele>68.7</ele>
        <time>2022-08-11T11:30:52.483+02:00</time>
      </trkpt>
      <trkpt lat="45.52412" lon="-0.87471">
        <ele>69.5</ele>
        <time>2022-08-11T11:30:56.485+02:00</time>
      </trkpt>
      <trkpt lat="45.52405" lon="-0.87463">
        <ele>70.2</ele>
        <time>2022-08-11T11:31:00.486+02:00</time>
      </trkpt>
      <trkpt lat="45.52397" lon="-0.87454">
        <ele>70.8</ele>
        <time>2022-08-11T11:31:05.492+02:00</time>
      </trkpt>
      <trkpt lat="45.52389" lon="-0.87447">
        <ele>72.1</ele>
        <time>2022-08-11T11:31:10.48+02:00</time>
      </trkpt>
      <trkpt lat="45.52379" lon="-0.8744">
        <ele>74</ele>
        <time>2022-08-11T11:31:15.484+02:00</time>
      </trkpt>
      <trkpt lat="45.5237" lon="-0.87432">
        <ele>76</ele>
        <time>2022-08-11T11:31:20.478+02:00</time>
      </trkpt>
      <trkpt lat="45.52361" lon="-0.87425">
        <ele>71.8</ele>
        <time>2022-08-11T11:31:25.482+02:00</time>
      </trkpt>
      <trkpt lat="45.52354" lon="-0.87416">
        <ele>76.7</ele>
        <time>2022-08-11T11:31:30.481+02:00</time>
      </trkpt>
      <trkpt lat="45.52346" lon="-0.87408">
        <ele>77.8</ele>
        <time>2022-08-11T11:31:35.491+02:00</time>
      </trkpt>
      <trkpt lat="45.52339" lon="-0.87398">
        <ele>78.2</ele>
        <time>2022-08-11T11:31:40.478+02:00</time>
      </trkpt>
      <trkpt lat="45.52332" lon="-0.87389">
        <ele>78</ele>
        <time>2022-08-11T11:31:44.476+02:00</time>
      </trkpt>
      <trkpt lat="45.52325" lon="-0.87379">
        <ele>78.1</ele>
        <time>2022-08-11T11:31:48.484+02:00</time>
      </trkpt>
      <trkpt lat="45.52317" lon="-0.87369">
        <ele>78.1</ele>
        <time>2022-08-11T11:31:52.488+02:00</time>
      </trkpt>
      <trkpt lat="45.52309" lon="-0.87358">
        <ele>77.9</ele>
        <time>2022-08-11T11:31:56.487+02:00</time>
      </trkpt>
      <trkpt lat="45.52303" lon="-0.87349">
        <ele>77.9</ele>
        <time>2022-08-11T11:31:59.494+02:00</time>
      </trkpt>
      <trkpt lat="45.52295" lon="-0.87339">
        <ele>78</ele>
        <time>2022-08-11T11:32:02.479+02:00</time>
      </trkpt>
      <trkpt lat="45.52288" lon="-0.87329">
        <ele>77.8</ele>
        <time>2022-08-11T11:32:05.486+02:00</time>
      </trkpt>
      <trkpt lat="45.52279" lon="-0.87319">
        <ele>75.8</ele>
        <time>2022-08-11T11:32:08.484+02:00</time>
      </trkpt>
      <trkpt lat="45.52272" lon="-0.8731">
        <ele>76.6</ele>
        <time>2022-08-11T11:32:11.491+02:00</time>
      </trkpt>
      <trkpt lat="45.52265" lon="-0.873">
        <ele>77.2</ele>
        <time>2022-08-11T11:32:14.474+02:00</time>
      </trkpt>
      <trkpt lat="45.52258" lon="-0.8729">
        <ele>77</ele>
        <time>2022-08-11T11:32:17.485+02:00</time>
      </trkpt>
      <trkpt lat="45.52251" lon="-0.8728">
        <ele>77.3</ele>
        <time>2022-08-11T11:32:20.477+02:00</time>
      </trkpt>
      <trkpt lat="45.52244" lon="-0.87269">
        <ele>78.1</ele>
        <time>2022-08-11T11:32:23.486+02:00</time>
      </trkpt>
      <trkpt lat="45.52237" lon="-0.87257">
        <ele>77.9</ele>
        <time>2022-08-11T11:32:26.492+02:00</time>
      </trkpt>
      <trkpt lat="45.5223" lon="-0.87247">
        <ele>77.9</ele>
        <time>2022-08-11T11:32:29.49+02:00</time>
      </trkpt>
      <trkpt lat="45.52224" lon="-0.87235">
        <ele>77.8</ele>
        <time>2022-08-11T11:32:32.491+02:00</time>
      </trkpt>
      <trkpt lat="45.52218" lon="-0.87224">
        <ele>77.7</ele>
        <time>2022-08-11T11:32:35.476+02:00</time>
      </trkpt>
      <trkpt lat="45.52213" lon="-0.87214">
        <ele>77.7</ele>
        <time>2022-08-11T11:32:38.48+02:00</time>
      </trkpt>
      <trkpt lat="45.52206" lon="-0.872">
        <ele>78</ele>
        <time>2022-08-11T11:32:42.48+02:00</time>
      </trkpt>
      <trkpt lat="45.522" lon="-0.87188">
        <ele>78</ele>
        <time>2022-08-11T11:32:45.494+02:00</time>
      </trkpt>
      <trkpt lat="45.52195" lon="-0.87177">
        <ele>78.4</ele>
        <time>2022-08-11T11:32:48.489+02:00</time>
      </trkpt>
      <trkpt lat="45.5219" lon="-0.87168">
        <ele>78.6</ele>
        <time>2022-08-11T11:32:53.489+02:00</time>
      </trkpt>
      <trkpt lat="45.5219" lon="-0.87168">
        <ele>72.2</ele>
        <time>2022-08-11T11:32:54.485+02:00</time>
      </trkpt>
      <trkpt lat="45.5219" lon="-0.87168">
        <ele>74.6</ele>
        <time>2022-08-11T11:32:55.493+02:00</time>
      </trkpt>
      <trkpt lat="45.52191" lon="-0.87169">
        <ele>75.9</ele>
        <time>2022-08-11T11:32:56.479+02:00</time>
      </trkpt>
      <trkpt lat="45.5219" lon="-0.8717">
        <ele>79.2</ele>
        <time>2022-08-11T11:33:36.472+02:00</time>
      </trkpt>
      <trkpt lat="45.5219" lon="-0.8717">
        <ele>79.1</ele>
        <time>2022-08-11T11:33:37.482+02:00</time>
      </trkpt>
      <trkpt lat="45.52186" lon="-0.87158">
        <ele>79</ele>
        <time>2022-08-11T11:33:46.485+02:00</time>
      </trkpt>
      <trkpt lat="45.5218" lon="-0.87147">
        <ele>79</ele>
        <time>2022-08-11T11:33:50.48+02:00</time>
      </trkpt>
      <trkpt lat="45.52175" lon="-0.87135">
        <ele>79.2</ele>
        <time>2022-08-11T11:33:53.481+02:00</time>
      </trkpt>
      <trkpt lat="45.52171" lon="-0.87124">
        <ele>79.2</ele>
        <time>2022-08-11T11:33:56.49+02:00</time>
      </trkpt>
      <trkpt lat="45.52165" lon="-0.87112">
        <ele>79.4</ele>
        <time>2022-08-11T11:33:59.496+02:00</time>
      </trkpt>
      <trkpt lat="45.52159" lon="-0.87101">
        <ele>79.4</ele>
        <time>2022-08-11T11:34:02.481+02:00</time>
      </trkpt>
      <trkpt lat="45.52151" lon="-0.8709">
        <ele>79</ele>
        <time>2022-08-11T11:34:06.472+02:00</time>
      </trkpt>
      <trkpt lat="45.52143" lon="-0.8708">
        <ele>78.8</ele>
        <time>2022-08-11T11:34:10.48+02:00</time>
      </trkpt>
      <trkpt lat="45.52135" lon="-0.8707">
        <ele>78.8</ele>
        <time>2022-08-11T11:34:14.488+02:00</time>
      </trkpt>
      <trkpt lat="45.52127" lon="-0.87061">
        <ele>78.5</ele>
        <time>2022-08-11T11:34:18.471+02:00</time>
      </trkpt>
      <trkpt lat="45.52119" lon="-0.87052">
        <ele>78.2</ele>
        <time>2022-08-11T11:34:22.483+02:00</time>
      </trkpt>
      <trkpt lat="45.52111" lon="-0.87041">
        <ele>78.2</ele>
        <time>2022-08-11T11:34:27.469+02:00</time>
      </trkpt>
      <trkpt lat="45.52104" lon="-0.87031">
        <ele>77</ele>
        <time>2022-08-11T11:34:31.487+02:00</time>
      </trkpt>
      <trkpt lat="45.52097" lon="-0.87017">
        <ele>76.5</ele>
        <time>2022-08-11T11:34:34.477+02:00</time>
      </trkpt>
      <trkpt lat="45.52093" lon="-0.87004">
        <ele>76.4</ele>
        <time>2022-08-11T11:34:36.482+02:00</time>
      </trkpt>
      <trkpt lat="45.52089" lon="-0.86991">
        <ele>75.8</ele>
        <time>2022-08-11T11:34:38.484+02:00</time>
      </trkpt>
      <trkpt lat="45.52084" lon="-0.86975">
        <ele>75.1</ele>
        <time>2022-08-11T11:34:40.474+02:00</time>
      </trkpt>
      <trkpt lat="45.5208" lon="-0.86959">
        <ele>74.6</ele>
        <time>2022-08-11T11:34:42.486+02:00</time>
      </trkpt>
      <trkpt lat="45.52075" lon="-0.86943">
        <ele>73.8</ele>
        <time>2022-08-11T11:34:44.485+02:00</time>
      </trkpt>
      <trkpt lat="45.52071" lon="-0.86925">
        <ele>73.5</ele>
        <time>2022-08-11T11:34:46.5+02:00</time>
      </trkpt>
      <trkpt lat="45.52066" lon="-0.86908">
        <ele>72.5</ele>
        <time>2022-08-11T11:34:48.479+02:00</time>
      </trkpt>
      <trkpt lat="45.5206" lon="-0.86889">
        <ele>72.3</ele>
        <time>2022-08-11T11:34:50.472+02:00</time>
      </trkpt>
      <trkpt lat="45.52054" lon="-0.86871">
        <ele>72.3</ele>
        <time>2022-08-11T11:34:52.488+02:00</time>
      </trkpt>
      <trkpt lat="45.52049" lon="-0.86853">
        <ele>72.6</ele>
        <time>2022-08-11T11:34:54.498+02:00</time>
      </trkpt>
      <trkpt lat="45.52044" lon="-0.86836">
        <ele>72.6</ele>
        <time>2022-08-11T11:34:56.492+02:00</time>
      </trkpt>
      <trkpt lat="45.52039" lon="-0.86822">
        <ele>72.4</ele>
        <time>2022-08-11T11:34:58.485+02:00</time>
      </trkpt>
      <trkpt lat="45.52034" lon="-0.86809">
        <ele>72.7</ele>
        <time>2022-08-11T11:35:00.461+02:00</time>
      </trkpt>
      <trkpt lat="45.5203" lon="-0.86797">
        <ele>72.4</ele>
        <time>2022-08-11T11:35:02.496+02:00</time>
      </trkpt>
      <trkpt lat="45.52026" lon="-0.86784">
        <ele>72.7</ele>
        <time>2022-08-11T11:35:04.491+02:00</time>
      </trkpt>
      <trkpt lat="45.52022" lon="-0.86772">
        <ele>72.9</ele>
        <time>2022-08-11T11:35:06.484+02:00</time>
      </trkpt>
      <trkpt lat="45.52018" lon="-0.86756">
        <ele>73.5</ele>
        <time>2022-08-11T11:35:09.491+02:00</time>
      </trkpt>
      <trkpt lat="45.52014" lon="-0.86744">
        <ele>73.9</ele>
        <time>2022-08-11T11:35:12.496+02:00</time>
      </trkpt>
      <trkpt lat="45.5201" lon="-0.86731">
        <ele>74</ele>
        <time>2022-08-11T11:35:15.495+02:00</time>
      </trkpt>
      <trkpt lat="45.52005" lon="-0.86719">
        <ele>73.9</ele>
        <time>2022-08-11T11:35:18.484+02:00</time>
      </trkpt>
      <trkpt lat="45.52" lon="-0.86707">
        <ele>73.2</ele>
        <time>2022-08-11T11:35:21.485+02:00</time>
      </trkpt>
      <trkpt lat="45.51994" lon="-0.86695">
        <ele>73.1</ele>
        <time>2022-08-11T11:35:24.496+02:00</time>
      </trkpt>
      <trkpt lat="45.51988" lon="-0.86683">
        <ele>73.2</ele>
        <time>2022-08-11T11:35:27.476+02:00</time>
      </trkpt>
      <trkpt lat="45.51981" lon="-0.86669">
        <ele>72.9</ele>
        <time>2022-08-11T11:35:30.464+02:00</time>
      </trkpt>
      <trkpt lat="45.51976" lon="-0.86658">
        <ele>72.4</ele>
        <time>2022-08-11T11:35:32.484+02:00</time>
      </trkpt>
      <trkpt lat="45.5197" lon="-0.86646">
        <ele>71.8</ele>
        <time>2022-08-11T11:35:34.479+02:00</time>
      </trkpt>
      <trkpt lat="45.51965" lon="-0.86632">
        <ele>71.4</ele>
        <time>2022-08-11T11:35:36.489+02:00</time>
      </trkpt>
      <trkpt lat="45.51959" lon="-0.86617">
        <ele>70.9</ele>
        <time>2022-08-11T11:35:38.486+02:00</time>
      </trkpt>
      <trkpt lat="45.51954" lon="-0.86602">
        <ele>70.6</ele>
        <time>2022-08-11T11:35:40.471+02:00</time>
      </trkpt>
      <trkpt lat="45.51948" lon="-0.86587">
        <ele>70.1</ele>
        <time>2022-08-11T11:35:42.488+02:00</time>
      </trkpt>
      <trkpt lat="45.51941" lon="-0.86572">
        <ele>70.8</ele>
        <time>2022-08-11T11:35:44.491+02:00</time>
      </trkpt>
      <trkpt lat="45.51934" lon="-0.86557">
        <ele>69.9</ele>
        <time>2022-08-11T11:35:46.492+02:00</time>
      </trkpt>
      <trkpt lat="45.51925" lon="-0.86543">
        <ele>69.5</ele>
        <time>2022-08-11T11:35:48.485+02:00</time>
      </trkpt>
      <trkpt lat="45.51917" lon="-0.86527">
        <ele>69.4</ele>
        <time>2022-08-11T11:35:50.472+02:00</time>
      </trkpt>
      <trkpt lat="45.51909" lon="-0.86513">
        <ele>69.1</ele>
        <time>2022-08-11T11:35:52.483+02:00</time>
      </trkpt>
      <trkpt lat="45.51901" lon="-0.86498">
        <ele>68.8</ele>
        <time>2022-08-11T11:35:54.487+02:00</time>
      </trkpt>
      <trkpt lat="45.51895" lon="-0.86483">
        <ele>68</ele>
        <time>2022-08-11T11:35:56.479+02:00</time>
      </trkpt>
      <trkpt lat="45.51889" lon="-0.86467">
        <ele>67.7</ele>
        <time>2022-08-11T11:35:58.484+02:00</time>
      </trkpt>
      <trkpt lat="45.51882" lon="-0.86452">
        <ele>67.7</ele>
        <time>2022-08-11T11:36:00.468+02:00</time>
      </trkpt>
      <trkpt lat="45.51877" lon="-0.86436">
        <ele>67.5</ele>
        <time>2022-08-11T11:36:02.493+02:00</time>
      </trkpt>
      <trkpt lat="45.51871" lon="-0.86421">
        <ele>67.3</ele>
        <time>2022-08-11T11:36:04.494+02:00</time>
      </trkpt>
      <trkpt lat="45.51866" lon="-0.86406">
        <ele>67.2</ele>
        <time>2022-08-11T11:36:06.495+02:00</time>
      </trkpt>
      <trkpt lat="45.51861" lon="-0.86392">
        <ele>67.2</ele>
        <time>2022-08-11T11:36:08.49+02:00</time>
      </trkpt>
      <trkpt lat="45.51855" lon="-0.86377">
        <ele>67.1</ele>
        <time>2022-08-11T11:36:10.477+02:00</time>
      </trkpt>
      <trkpt lat="45.51849" lon="-0.86363">
        <ele>67.3</ele>
        <time>2022-08-11T11:36:12.483+02:00</time>
      </trkpt>
      <trkpt lat="45.51844" lon="-0.86349">
        <ele>67.4</ele>
        <time>2022-08-11T11:36:14.487+02:00</time>
      </trkpt>
      <trkpt lat="45.51838" lon="-0.86336">
        <ele>67.3</ele>
        <time>2022-08-11T11:36:16.48+02:00</time>
      </trkpt>
      <trkpt lat="45.51832" lon="-0.86322">
        <ele>67</ele>
        <time>2022-08-11T11:36:18.47+02:00</time>
      </trkpt>
      <trkpt lat="45.51826" lon="-0.86308">
        <ele>66.8</ele>
        <time>2022-08-11T11:36:20.469+02:00</time>
      </trkpt>
      <trkpt lat="45.5182" lon="-0.86295">
        <ele>66.5</ele>
        <time>2022-08-11T11:36:22.482+02:00</time>
      </trkpt>
      <trkpt lat="45.51813" lon="-0.86282">
        <ele>66.5</ele>
        <time>2022-08-11T11:36:24.49+02:00</time>
      </trkpt>
      <trkpt lat="45.51808" lon="-0.86269">
        <ele>66.6</ele>
        <time>2022-08-11T11:36:26.482+02:00</time>
      </trkpt>
      <trkpt lat="45.51802" lon="-0.86257">
        <ele>66.4</ele>
        <time>2022-08-11T11:36:28.478+02:00</time>
      </trkpt>
      <trkpt lat="45.51796" lon="-0.86245">
        <ele>65.9</ele>
        <time>2022-08-11T11:36:30.472+02:00</time>
      </trkpt>
      <trkpt lat="45.5179" lon="-0.86233">
        <ele>65.6</ele>
        <time>2022-08-11T11:36:32.484+02:00</time>
      </trkpt>
      <trkpt lat="45.51784" lon="-0.8622">
        <ele>65.5</ele>
        <time>2022-08-11T11:36:34.49+02:00</time>
      </trkpt>
      <trkpt lat="45.51779" lon="-0.86207">
        <ele>65.6</ele>
        <time>2022-08-11T11:36:36.492+02:00</time>
      </trkpt>
      <trkpt lat="45.51775" lon="-0.86193">
        <ele>65.4</ele>
        <time>2022-08-11T11:36:38.462+02:00</time>
      </trkpt>
      <trkpt lat="45.51772" lon="-0.8618">
        <ele>65.2</ele>
        <time>2022-08-11T11:36:40.469+02:00</time>
      </trkpt>
      <trkpt lat="45.51768" lon="-0.86167">
        <ele>65.1</ele>
        <time>2022-08-11T11:36:42.472+02:00</time>
      </trkpt>
      <trkpt lat="45.51765" lon="-0.86155">
        <ele>65</ele>
        <time>2022-08-11T11:36:44.468+02:00</time>
      </trkpt>
      <trkpt lat="45.51764" lon="-0.86142">
        <ele>65.2</ele>
        <time>2022-08-11T11:36:46.469+02:00</time>
      </trkpt>
      <trkpt lat="45.51762" lon="-0.86127">
        <ele>65.2</ele>
        <time>2022-08-11T11:36:48.47+02:00</time>
      </trkpt>
      <trkpt lat="45.51761" lon="-0.86114">
        <ele>64.7</ele>
        <time>2022-08-11T11:36:50.467+02:00</time>
      </trkpt>
      <trkpt lat="45.51758" lon="-0.861">
        <ele>63.7</ele>
        <time>2022-08-11T11:36:52.468+02:00</time>
      </trkpt>
      <trkpt lat="45.51755" lon="-0.86086">
        <ele>63.6</ele>
        <time>2022-08-11T11:36:54.476+02:00</time>
      </trkpt>
      <trkpt lat="45.51752" lon="-0.86071">
        <ele>63.6</ele>
        <time>2022-08-11T11:36:56.465+02:00</time>
      </trkpt>
      <trkpt lat="45.51749" lon="-0.86057">
        <ele>63</ele>
        <time>2022-08-11T11:36:58.468+02:00</time>
      </trkpt>
      <trkpt lat="45.51746" lon="-0.86041">
        <ele>62.1</ele>
        <time>2022-08-11T11:37:00.463+02:00</time>
      </trkpt>
      <trkpt lat="45.51741" lon="-0.86024">
        <ele>61.6</ele>
        <time>2022-08-11T11:37:02.465+02:00</time>
      </trkpt>
      <trkpt lat="45.51738" lon="-0.86006">
        <ele>61</ele>
        <time>2022-08-11T11:37:04.461+02:00</time>
      </trkpt>
      <trkpt lat="45.51733" lon="-0.85988">
        <ele>59.5</ele>
        <time>2022-08-11T11:37:06.465+02:00</time>
      </trkpt>
      <trkpt lat="45.51728" lon="-0.85968">
        <ele>58.9</ele>
        <time>2022-08-11T11:37:08.473+02:00</time>
      </trkpt>
      <trkpt lat="45.51723" lon="-0.85949">
        <ele>57.7</ele>
        <time>2022-08-11T11:37:10.475+02:00</time>
      </trkpt>
      <trkpt lat="45.51719" lon="-0.85929">
        <ele>56.7</ele>
        <time>2022-08-11T11:37:12.48+02:00</time>
      </trkpt>
      <trkpt lat="45.51715" lon="-0.8591">
        <ele>55.2</ele>
        <time>2022-08-11T11:37:14.475+02:00</time>
      </trkpt>
      <trkpt lat="45.51712" lon="-0.85891">
        <ele>54.3</ele>
        <time>2022-08-11T11:37:16.482+02:00</time>
      </trkpt>
      <trkpt lat="45.5171" lon="-0.85872">
        <ele>53.4</ele>
        <time>2022-08-11T11:37:18.489+02:00</time>
      </trkpt>
      <trkpt lat="45.51708" lon="-0.85852">
        <ele>51.9</ele>
        <time>2022-08-11T11:37:20.47+02:00</time>
      </trkpt>
      <trkpt lat="45.51707" lon="-0.85832">
        <ele>49.7</ele>
        <time>2022-08-11T11:37:22.476+02:00</time>
      </trkpt>
      <trkpt lat="45.51704" lon="-0.85812">
        <ele>48.6</ele>
        <time>2022-08-11T11:37:24.481+02:00</time>
      </trkpt>
      <trkpt lat="45.51701" lon="-0.85797">
        <ele>47.7</ele>
        <time>2022-08-11T11:37:26.479+02:00</time>
      </trkpt>
      <trkpt lat="45.51698" lon="-0.85784">
        <ele>46.8</ele>
        <time>2022-08-11T11:37:29.482+02:00</time>
      </trkpt>
      <trkpt lat="45.51696" lon="-0.8577">
        <ele>45.4</ele>
        <time>2022-08-11T11:37:33.466+02:00</time>
      </trkpt>
      <trkpt lat="45.5169" lon="-0.85758">
        <ele>45.3</ele>
        <time>2022-08-11T11:37:36.462+02:00</time>
      </trkpt>
      <trkpt lat="45.51684" lon="-0.85744">
        <ele>46.1</ele>
        <time>2022-08-11T11:37:39.475+02:00</time>
      </trkpt>
      <trkpt lat="45.51679" lon="-0.8573">
        <ele>45.9</ele>
        <time>2022-08-11T11:37:42.481+02:00</time>
      </trkpt>
      <trkpt lat="45.51675" lon="-0.85715">
        <ele>46.3</ele>
        <time>2022-08-11T11:37:45.487+02:00</time>
      </trkpt>
      <trkpt lat="45.5167" lon="-0.85699">
        <ele>46.3</ele>
        <time>2022-08-11T11:37:48.485+02:00</time>
      </trkpt>
      <trkpt lat="45.51664" lon="-0.85682">
        <ele>46.1</ele>
        <time>2022-08-11T11:37:51.476+02:00</time>
      </trkpt>
      <trkpt lat="45.51661" lon="-0.8567">
        <ele>46.9</ele>
        <time>2022-08-11T11:37:53.49+02:00</time>
      </trkpt>
      <trkpt lat="45.51657" lon="-0.85659">
        <ele>47.1</ele>
        <time>2022-08-11T11:37:55.49+02:00</time>
      </trkpt>
      <trkpt lat="45.51652" lon="-0.85646">
        <ele>48.1</ele>
        <time>2022-08-11T11:37:57.495+02:00</time>
      </trkpt>
      <trkpt lat="45.51648" lon="-0.85635">
        <ele>48.4</ele>
        <time>2022-08-11T11:37:59.487+02:00</time>
      </trkpt>
      <trkpt lat="45.51642" lon="-0.85619">
        <ele>47.9</ele>
        <time>2022-08-11T11:38:02.486+02:00</time>
      </trkpt>
      <trkpt lat="45.51637" lon="-0.85605">
        <ele>47.6</ele>
        <time>2022-08-11T11:38:05.484+02:00</time>
      </trkpt>
      <trkpt lat="45.51632" lon="-0.85591">
        <ele>47.4</ele>
        <time>2022-08-11T11:38:08.488+02:00</time>
      </trkpt>
      <trkpt lat="45.51626" lon="-0.85582">
        <ele>47.9</ele>
        <time>2022-08-11T11:38:13.492+02:00</time>
      </trkpt>
      <trkpt lat="45.51632" lon="-0.85569">
        <ele>48.2</ele>
        <time>2022-08-11T11:38:19.479+02:00</time>
      </trkpt>
      <trkpt lat="45.5164" lon="-0.8556">
        <ele>47.9</ele>
        <time>2022-08-11T11:38:23.491+02:00</time>
      </trkpt>
      <trkpt lat="45.51647" lon="-0.85552">
        <ele>48.3</ele>
        <time>2022-08-11T11:38:27.489+02:00</time>
      </trkpt>
      <trkpt lat="45.51656" lon="-0.85543">
        <ele>48.3</ele>
        <time>2022-08-11T11:38:31.496+02:00</time>
      </trkpt>
      <trkpt lat="45.51665" lon="-0.85535">
        <ele>48.1</ele>
        <time>2022-08-11T11:38:35.494+02:00</time>
      </trkpt>
      <trkpt lat="45.51673" lon="-0.85527">
        <ele>48</ele>
        <time>2022-08-11T11:38:38.485+02:00</time>
      </trkpt>
      <trkpt lat="45.51681" lon="-0.8552">
        <ele>47.8</ele>
        <time>2022-08-11T11:38:41.487+02:00</time>
      </trkpt>
      <trkpt lat="45.5169" lon="-0.85513">
        <ele>48.2</ele>
        <time>2022-08-11T11:38:45.492+02:00</time>
      </trkpt>
      <trkpt lat="45.51695" lon="-0.85502">
        <ele>47.9</ele>
        <time>2022-08-11T11:38:49.473+02:00</time>
      </trkpt>
      <trkpt lat="45.51687" lon="-0.8549">
        <ele>48.4</ele>
        <time>2022-08-11T11:38:53.468+02:00</time>
      </trkpt>
      <trkpt lat="45.51679" lon="-0.85482">
        <ele>48.1</ele>
        <time>2022-08-11T11:38:56.468+02:00</time>
      </trkpt>
      <trkpt lat="45.5167" lon="-0.85476">
        <ele>47.8</ele>
        <time>2022-08-11T11:38:59.47+02:00</time>
      </trkpt>
      <trkpt lat="45.51662" lon="-0.85469">
        <ele>47.8</ele>
        <time>2022-08-11T11:39:02.475+02:00</time>
      </trkpt>
      <trkpt lat="45.51653" lon="-0.85462">
        <ele>47.7</ele>
        <time>2022-08-11T11:39:05.467+02:00</time>
      </trkpt>
      <trkpt lat="45.51643" lon="-0.85455">
        <ele>48.3</ele>
        <time>2022-08-11T11:39:08.472+02:00</time>
      </trkpt>
      <trkpt lat="45.51633" lon="-0.85447">
        <ele>48.7</ele>
        <time>2022-08-11T11:39:11.468+02:00</time>
      </trkpt>
      <trkpt lat="45.51624" lon="-0.85439">
        <ele>48.7</ele>
        <time>2022-08-11T11:39:14.474+02:00</time>
      </trkpt>
      <trkpt lat="45.51614" lon="-0.85432">
        <ele>48.4</ele>
        <time>2022-08-11T11:39:17.471+02:00</time>
      </trkpt>
      <trkpt lat="45.51603" lon="-0.85424">
        <ele>48.3</ele>
        <time>2022-08-11T11:39:20.466+02:00</time>
      </trkpt>
      <trkpt lat="45.51594" lon="-0.85415">
        <ele>49</ele>
        <time>2022-08-11T11:39:23.472+02:00</time>
      </trkpt>
      <trkpt lat="45.51585" lon="-0.85404">
        <ele>49.6</ele>
        <time>2022-08-11T11:39:26.473+02:00</time>
      </trkpt>
      <trkpt lat="45.51577" lon="-0.85393">
        <ele>49.8</ele>
        <time>2022-08-11T11:39:29.469+02:00</time>
      </trkpt>
      <trkpt lat="45.5157" lon="-0.85378">
        <ele>49.9</ele>
        <time>2022-08-11T11:39:32.468+02:00</time>
      </trkpt>
      <trkpt lat="45.51566" lon="-0.85361">
        <ele>49.6</ele>
        <time>2022-08-11T11:39:35.495+02:00</time>
      </trkpt>
      <trkpt lat="45.51563" lon="-0.85345">
        <ele>49.2</ele>
        <time>2022-08-11T11:39:38.482+02:00</time>
      </trkpt>
      <trkpt lat="45.51562" lon="-0.85328">
        <ele>48.5</ele>
        <time>2022-08-11T11:39:41.498+02:00</time>
      </trkpt>
      <trkpt lat="45.5156" lon="-0.85311">
        <ele>48.5</ele>
        <time>2022-08-11T11:39:44.483+02:00</time>
      </trkpt>
      <trkpt lat="45.51559" lon="-0.85294">
        <ele>48.2</ele>
        <time>2022-08-11T11:39:47.482+02:00</time>
      </trkpt>
      <trkpt lat="45.51559" lon="-0.85276">
        <ele>48</ele>
        <time>2022-08-11T11:39:50.473+02:00</time>
      </trkpt>
      <trkpt lat="45.51559" lon="-0.85259">
        <ele>48</ele>
        <time>2022-08-11T11:39:53.481+02:00</time>
      </trkpt>
      <trkpt lat="45.51562" lon="-0.8524">
        <ele>47.5</ele>
        <time>2022-08-11T11:39:56.485+02:00</time>
      </trkpt>
      <trkpt lat="45.51565" lon="-0.85228">
        <ele>47</ele>
        <time>2022-08-11T11:39:58.498+02:00</time>
      </trkpt>
      <trkpt lat="45.51566" lon="-0.85215">
        <ele>46.5</ele>
        <time>2022-08-11T11:40:00.479+02:00</time>
      </trkpt>
      <trkpt lat="45.51568" lon="-0.85202">
        <ele>46.5</ele>
        <time>2022-08-11T11:40:02.494+02:00</time>
      </trkpt>
      <trkpt lat="45.51571" lon="-0.85185">
        <ele>45.5</ele>
        <time>2022-08-11T11:40:05.46+02:00</time>
      </trkpt>
      <trkpt lat="45.51574" lon="-0.85168">
        <ele>45.6</ele>
        <time>2022-08-11T11:40:08.465+02:00</time>
      </trkpt>
      <trkpt lat="45.51575" lon="-0.8515">
        <ele>46.5</ele>
        <time>2022-08-11T11:40:11.463+02:00</time>
      </trkpt>
      <trkpt lat="45.51578" lon="-0.85135">
        <ele>47.5</ele>
        <time>2022-08-11T11:40:14.472+02:00</time>
      </trkpt>
      <trkpt lat="45.51581" lon="-0.85121">
        <ele>47.8</ele>
        <time>2022-08-11T11:40:17.466+02:00</time>
      </trkpt>
      <trkpt lat="45.51585" lon="-0.85107">
        <ele>47.9</ele>
        <time>2022-08-11T11:40:20.466+02:00</time>
      </trkpt>
      <trkpt lat="45.51588" lon="-0.85092">
        <ele>47.5</ele>
        <time>2022-08-11T11:40:23.481+02:00</time>
      </trkpt>
      <trkpt lat="45.51592" lon="-0.85078">
        <ele>47.5</ele>
        <time>2022-08-11T11:40:26.477+02:00</time>
      </trkpt>
      <trkpt lat="45.51595" lon="-0.85064">
        <ele>49</ele>
        <time>2022-08-11T11:40:29.489+02:00</time>
      </trkpt>
      <trkpt lat="45.516" lon="-0.85051">
        <ele>48.4</ele>
        <time>2022-08-11T11:40:32.481+02:00</time>
      </trkpt>
      <trkpt lat="45.51606" lon="-0.85037">
        <ele>48.8</ele>
        <time>2022-08-11T11:40:35.498+02:00</time>
      </trkpt>
      <trkpt lat="45.51613" lon="-0.85025">
        <ele>48.8</ele>
        <time>2022-08-11T11:40:38.46+02:00</time>
      </trkpt>
      <trkpt lat="45.51621" lon="-0.85014">
        <ele>48.7</ele>
        <time>2022-08-11T11:40:41.485+02:00</time>
      </trkpt>
      <trkpt lat="45.51628" lon="-0.85004">
        <ele>48.5</ele>
        <time>2022-08-11T11:40:44.485+02:00</time>
      </trkpt>
      <trkpt lat="45.51636" lon="-0.84994">
        <ele>48.6</ele>
        <time>2022-08-11T11:40:47.471+02:00</time>
      </trkpt>
      <trkpt lat="45.51644" lon="-0.84983">
        <ele>49</ele>
        <time>2022-08-11T11:40:50.462+02:00</time>
      </trkpt>
      <trkpt lat="45.51651" lon="-0.84973">
        <ele>49</ele>
        <time>2022-08-11T11:40:53.477+02:00</time>
      </trkpt>
      <trkpt lat="45.51659" lon="-0.84961">
        <ele>48.6</ele>
        <time>2022-08-11T11:40:57.468+02:00</time>
      </trkpt>
      <trkpt lat="45.51667" lon="-0.84949">
        <ele>48.7</ele>
        <time>2022-08-11T11:41:01.477+02:00</time>
      </trkpt>
      <trkpt lat="45.51673" lon="-0.8494">
        <ele>48.4</ele>
        <time>2022-08-11T11:41:04.475+02:00</time>
      </trkpt>
      <trkpt lat="45.51679" lon="-0.84929">
        <ele>48</ele>
        <time>2022-08-11T11:41:07.489+02:00</time>
      </trkpt>
      <trkpt lat="45.51686" lon="-0.84919">
        <ele>47.7</ele>
        <time>2022-08-11T11:41:10.461+02:00</time>
      </trkpt>
      <trkpt lat="45.51693" lon="-0.84908">
        <ele>47.6</ele>
        <time>2022-08-11T11:41:13.469+02:00</time>
      </trkpt>
      <trkpt lat="45.51699" lon="-0.84896">
        <ele>47.4</ele>
        <time>2022-08-11T11:41:16.471+02:00</time>
      </trkpt>
      <trkpt lat="45.51704" lon="-0.84883">
        <ele>47</ele>
        <time>2022-08-11T11:41:19.481+02:00</time>
      </trkpt>
      <trkpt lat="45.51708" lon="-0.84869">
        <ele>47</ele>
        <time>2022-08-11T11:41:22.485+02:00</time>
      </trkpt>
      <trkpt lat="45.51711" lon="-0.84856">
        <ele>46.8</ele>
        <time>2022-08-11T11:41:25.474+02:00</time>
      </trkpt>
      <trkpt lat="45.51715" lon="-0.84842">
        <ele>46.7</ele>
        <time>2022-08-11T11:41:28.487+02:00</time>
      </trkpt>
      <trkpt lat="45.51719" lon="-0.84827">
        <ele>47</ele>
        <time>2022-08-11T11:41:31.471+02:00</time>
      </trkpt>
      <trkpt lat="45.51723" lon="-0.84814">
        <ele>47.2</ele>
        <time>2022-08-11T11:41:34.49+02:00</time>
      </trkpt>
      <trkpt lat="45.51727" lon="-0.848">
        <ele>47.3</ele>
        <time>2022-08-11T11:41:37.487+02:00</time>
      </trkpt>
      <trkpt lat="45.51731" lon="-0.84787">
        <ele>47.7</ele>
        <time>2022-08-11T11:41:40.484+02:00</time>
      </trkpt>
      <trkpt lat="45.51733" lon="-0.84773">
        <ele>47.2</ele>
        <time>2022-08-11T11:41:43.485+02:00</time>
      </trkpt>
      <trkpt lat="45.51734" lon="-0.84757">
        <ele>47.3</ele>
        <time>2022-08-11T11:41:46.482+02:00</time>
      </trkpt>
      <trkpt lat="45.51734" lon="-0.84743">
        <ele>47.2</ele>
        <time>2022-08-11T11:41:49.487+02:00</time>
      </trkpt>
      <trkpt lat="45.51732" lon="-0.84727">
        <ele>47.4</ele>
        <time>2022-08-11T11:41:52.479+02:00</time>
      </trkpt>
      <trkpt lat="45.5173" lon="-0.84712">
        <ele>47.5</ele>
        <time>2022-08-11T11:41:55.486+02:00</time>
      </trkpt>
      <trkpt lat="45.51727" lon="-0.84697">
        <ele>47.5</ele>
        <time>2022-08-11T11:41:58.488+02:00</time>
      </trkpt>
      <trkpt lat="45.51724" lon="-0.84682">
        <ele>47.7</ele>
        <time>2022-08-11T11:42:01.481+02:00</time>
      </trkpt>
      <trkpt lat="45.51721" lon="-0.84668">
        <ele>48</ele>
        <time>2022-08-11T11:42:04.487+02:00</time>
      </trkpt>
      <trkpt lat="45.51717" lon="-0.84653">
        <ele>48.3</ele>
        <time>2022-08-11T11:42:07.494+02:00</time>
      </trkpt>
      <trkpt lat="45.51714" lon="-0.84638">
        <ele>48.3</ele>
        <time>2022-08-11T11:42:10.483+02:00</time>
      </trkpt>
      <trkpt lat="45.51711" lon="-0.84623">
        <ele>51.9</ele>
        <time>2022-08-11T11:42:13.481+02:00</time>
      </trkpt>
      <trkpt lat="45.51707" lon="-0.84608">
        <ele>49.5</ele>
        <time>2022-08-11T11:42:16.479+02:00</time>
      </trkpt>
      <trkpt lat="45.51704" lon="-0.84592">
        <ele>48.9</ele>
        <time>2022-08-11T11:42:19.481+02:00</time>
      </trkpt>
      <trkpt lat="45.517" lon="-0.84576">
        <ele>48.7</ele>
        <time>2022-08-11T11:42:22.485+02:00</time>
      </trkpt>
      <trkpt lat="45.51698" lon="-0.84561">
        <ele>48</ele>
        <time>2022-08-11T11:42:25.479+02:00</time>
      </trkpt>
      <trkpt lat="45.51696" lon="-0.84544">
        <ele>47.9</ele>
        <time>2022-08-11T11:42:28.487+02:00</time>
      </trkpt>
      <trkpt lat="45.51694" lon="-0.84526">
        <ele>48</ele>
        <time>2022-08-11T11:42:31.481+02:00</time>
      </trkpt>
      <trkpt lat="45.51692" lon="-0.84508">
        <ele>47.9</ele>
        <time>2022-08-11T11:42:34.487+02:00</time>
      </trkpt>
      <trkpt lat="45.5169" lon="-0.84491">
        <ele>48</ele>
        <time>2022-08-11T11:42:37.491+02:00</time>
      </trkpt>
      <trkpt lat="45.51688" lon="-0.84473">
        <ele>47.5</ele>
        <time>2022-08-11T11:42:40.489+02:00</time>
      </trkpt>
      <trkpt lat="45.51686" lon="-0.84455">
        <ele>47.4</ele>
        <time>2022-08-11T11:42:43.487+02:00</time>
      </trkpt>
      <trkpt lat="45.51684" lon="-0.84436">
        <ele>46.9</ele>
        <time>2022-08-11T11:42:46.484+02:00</time>
      </trkpt>
      <trkpt lat="45.51684" lon="-0.84417">
        <ele>46.8</ele>
        <time>2022-08-11T11:42:49.485+02:00</time>
      </trkpt>
      <trkpt lat="45.51684" lon="-0.84403">
        <ele>46.8</ele>
        <time>2022-08-11T11:42:51.47+02:00</time>
      </trkpt>
      <trkpt lat="45.51684" lon="-0.84389">
        <ele>46.5</ele>
        <time>2022-08-11T11:42:53.491+02:00</time>
      </trkpt>
      <trkpt lat="45.51685" lon="-0.84376">
        <ele>46</ele>
        <time>2022-08-11T11:42:55.486+02:00</time>
      </trkpt>
      <trkpt lat="45.51686" lon="-0.84357">
        <ele>45.6</ele>
        <time>2022-08-11T11:42:58.484+02:00</time>
      </trkpt>
      <trkpt lat="45.51687" lon="-0.84339">
        <ele>45</ele>
        <time>2022-08-11T11:43:01.476+02:00</time>
      </trkpt>
      <trkpt lat="45.51689" lon="-0.84321">
        <ele>44.9</ele>
        <time>2022-08-11T11:43:04.488+02:00</time>
      </trkpt>
      <trkpt lat="45.51694" lon="-0.84306">
        <ele>44.7</ele>
        <time>2022-08-11T11:43:07.483+02:00</time>
      </trkpt>
      <trkpt lat="45.51703" lon="-0.84294">
        <ele>44.4</ele>
        <time>2022-08-11T11:43:10.49+02:00</time>
      </trkpt>
      <trkpt lat="45.51712" lon="-0.84285">
        <ele>45</ele>
        <time>2022-08-11T11:43:12.49+02:00</time>
      </trkpt>
      <trkpt lat="45.51719" lon="-0.84275">
        <ele>45.5</ele>
        <time>2022-08-11T11:43:14.479+02:00</time>
      </trkpt>
      <trkpt lat="45.51725" lon="-0.84264">
        <ele>45.9</ele>
        <time>2022-08-11T11:43:16.482+02:00</time>
      </trkpt>
      <trkpt lat="45.5173" lon="-0.84253">
        <ele>46.3</ele>
        <time>2022-08-11T11:43:18.489+02:00</time>
      </trkpt>
      <trkpt lat="45.51735" lon="-0.84241">
        <ele>46.2</ele>
        <time>2022-08-11T11:43:20.48+02:00</time>
      </trkpt>
      <trkpt lat="45.51741" lon="-0.84229">
        <ele>45.9</ele>
        <time>2022-08-11T11:43:22.484+02:00</time>
      </trkpt>
      <trkpt lat="45.51747" lon="-0.84217">
        <ele>45.5</ele>
        <time>2022-08-11T11:43:24.48+02:00</time>
      </trkpt>
      <trkpt lat="45.51752" lon="-0.84204">
        <ele>45.6</ele>
        <time>2022-08-11T11:43:26.489+02:00</time>
      </trkpt>
      <trkpt lat="45.51758" lon="-0.84193">
        <ele>45.8</ele>
        <time>2022-08-11T11:43:28.495+02:00</time>
      </trkpt>
      <trkpt lat="45.51764" lon="-0.84181">
        <ele>46.1</ele>
        <time>2022-08-11T11:43:30.487+02:00</time>
      </trkpt>
      <trkpt lat="45.51771" lon="-0.84171">
        <ele>46.4</ele>
        <time>2022-08-11T11:43:32.492+02:00</time>
      </trkpt>
      <trkpt lat="45.51778" lon="-0.84162">
        <ele>46.3</ele>
        <time>2022-08-11T11:43:34.474+02:00</time>
      </trkpt>
      <trkpt lat="45.51787" lon="-0.84155">
        <ele>46.9</ele>
        <time>2022-08-11T11:43:36.488+02:00</time>
      </trkpt>
      <trkpt lat="45.51795" lon="-0.8415">
        <ele>46.6</ele>
        <time>2022-08-11T11:43:38.49+02:00</time>
      </trkpt>
      <trkpt lat="45.51807" lon="-0.84144">
        <ele>46.5</ele>
        <time>2022-08-11T11:43:41.469+02:00</time>
      </trkpt>
      <trkpt lat="45.51817" lon="-0.84137">
        <ele>47.4</ele>
        <time>2022-08-11T11:43:44.493+02:00</time>
      </trkpt>
      <trkpt lat="45.51826" lon="-0.84133">
        <ele>47.5</ele>
        <time>2022-08-11T11:43:47.488+02:00</time>
      </trkpt>
      <trkpt lat="45.51835" lon="-0.84127">
        <ele>47.6</ele>
        <time>2022-08-11T11:43:50.485+02:00</time>
      </trkpt>
      <trkpt lat="45.51844" lon="-0.84119">
        <ele>48.6</ele>
        <time>2022-08-11T11:43:53.49+02:00</time>
      </trkpt>
      <trkpt lat="45.51854" lon="-0.84111">
        <ele>48.8</ele>
        <time>2022-08-11T11:43:56.489+02:00</time>
      </trkpt>
      <trkpt lat="45.51865" lon="-0.84103">
        <ele>48.8</ele>
        <time>2022-08-11T11:43:59.49+02:00</time>
      </trkpt>
      <trkpt lat="45.51876" lon="-0.84096">
        <ele>48.6</ele>
        <time>2022-08-11T11:44:02.48+02:00</time>
      </trkpt>
      <trkpt lat="45.51887" lon="-0.84091">
        <ele>48.5</ele>
        <time>2022-08-11T11:44:05.482+02:00</time>
      </trkpt>
      <trkpt lat="45.51895" lon="-0.84086">
        <ele>48.4</ele>
        <time>2022-08-11T11:44:08.489+02:00</time>
      </trkpt>
      <trkpt lat="45.51906" lon="-0.84081">
        <ele>48.1</ele>
        <time>2022-08-11T11:44:11.483+02:00</time>
      </trkpt>
      <trkpt lat="45.51917" lon="-0.84076">
        <ele>48.4</ele>
        <time>2022-08-11T11:44:14.478+02:00</time>
      </trkpt>
      <trkpt lat="45.51929" lon="-0.8407">
        <ele>48.3</ele>
        <time>2022-08-11T11:44:17.476+02:00</time>
      </trkpt>
      <trkpt lat="45.5194" lon="-0.84064">
        <ele>48.1</ele>
        <time>2022-08-11T11:44:20.48+02:00</time>
      </trkpt>
      <trkpt lat="45.51952" lon="-0.84057">
        <ele>47.6</ele>
        <time>2022-08-11T11:44:23.489+02:00</time>
      </trkpt>
      <trkpt lat="45.51964" lon="-0.84049">
        <ele>47.1</ele>
        <time>2022-08-11T11:44:26.485+02:00</time>
      </trkpt>
      <trkpt lat="45.51975" lon="-0.84041">
        <ele>46.8</ele>
        <time>2022-08-11T11:44:29.489+02:00</time>
      </trkpt>
      <trkpt lat="45.51987" lon="-0.84034">
        <ele>46.6</ele>
        <time>2022-08-11T11:44:32.485+02:00</time>
      </trkpt>
      <trkpt lat="45.51998" lon="-0.84026">
        <ele>46.5</ele>
        <time>2022-08-11T11:44:35.479+02:00</time>
      </trkpt>
      <trkpt lat="45.5201" lon="-0.84017">
        <ele>46.8</ele>
        <time>2022-08-11T11:44:38.484+02:00</time>
      </trkpt>
      <trkpt lat="45.52021" lon="-0.84006">
        <ele>46.7</ele>
        <time>2022-08-11T11:44:41.483+02:00</time>
      </trkpt>
      <trkpt lat="45.52029" lon="-0.83993">
        <ele>46.7</ele>
        <time>2022-08-11T11:44:44.478+02:00</time>
      </trkpt>
      <trkpt lat="45.5203" lon="-0.83976">
        <ele>46.9</ele>
        <time>2022-08-11T11:44:47.488+02:00</time>
      </trkpt>
      <trkpt lat="45.52031" lon="-0.83959">
        <ele>47</ele>
        <time>2022-08-11T11:44:50.482+02:00</time>
      </trkpt>
      <trkpt lat="45.52034" lon="-0.83943">
        <ele>46.5</ele>
        <time>2022-08-11T11:44:53.486+02:00</time>
      </trkpt>
      <trkpt lat="45.5204" lon="-0.83928">
        <ele>46.2</ele>
        <time>2022-08-11T11:44:56.49+02:00</time>
      </trkpt>
      <trkpt lat="45.52048" lon="-0.83914">
        <ele>45.5</ele>
        <time>2022-08-11T11:44:59.487+02:00</time>
      </trkpt>
      <trkpt lat="45.52056" lon="-0.83901">
        <ele>45.3</ele>
        <time>2022-08-11T11:45:02.484+02:00</time>
      </trkpt>
      <trkpt lat="45.52065" lon="-0.83887">
        <ele>45.5</ele>
        <time>2022-08-11T11:45:05.482+02:00</time>
      </trkpt>
      <trkpt lat="45.52073" lon="-0.83874">
        <ele>45.7</ele>
        <time>2022-08-11T11:45:08.486+02:00</time>
      </trkpt>
      <trkpt lat="45.52081" lon="-0.8386">
        <ele>45.3</ele>
        <time>2022-08-11T11:45:11.476+02:00</time>
      </trkpt>
      <trkpt lat="45.5209" lon="-0.83846">
        <ele>45.9</ele>
        <time>2022-08-11T11:45:14.482+02:00</time>
      </trkpt>
      <trkpt lat="45.52098" lon="-0.83834">
        <ele>46.4</ele>
        <time>2022-08-11T11:45:17.479+02:00</time>
      </trkpt>
      <trkpt lat="45.52106" lon="-0.83824">
        <ele>46.8</ele>
        <time>2022-08-11T11:45:20.494+02:00</time>
      </trkpt>
      <trkpt lat="45.52115" lon="-0.83814">
        <ele>47.4</ele>
        <time>2022-08-11T11:45:24.485+02:00</time>
      </trkpt>
      <trkpt lat="45.52122" lon="-0.83805">
        <ele>47.9</ele>
        <time>2022-08-11T11:45:28.483+02:00</time>
      </trkpt>
      <trkpt lat="45.52129" lon="-0.83794">
        <ele>48.9</ele>
        <time>2022-08-11T11:45:33.508+02:00</time>
      </trkpt>
      <trkpt lat="45.52129" lon="-0.83781">
        <ele>48.8</ele>
        <time>2022-08-11T11:45:37.483+02:00</time>
      </trkpt>
      <trkpt lat="45.52128" lon="-0.83767">
        <ele>49</ele>
        <time>2022-08-11T11:45:41.48+02:00</time>
      </trkpt>
      <trkpt lat="45.52127" lon="-0.83753">
        <ele>49.6</ele>
        <time>2022-08-11T11:45:45.491+02:00</time>
      </trkpt>
      <trkpt lat="45.52127" lon="-0.83739">
        <ele>50.1</ele>
        <time>2022-08-11T11:45:49.485+02:00</time>
      </trkpt>
      <trkpt lat="45.52128" lon="-0.83725">
        <ele>50.7</ele>
        <time>2022-08-11T11:45:53.485+02:00</time>
      </trkpt>
      <trkpt lat="45.5213" lon="-0.83711">
        <ele>51.3</ele>
        <time>2022-08-11T11:45:57.49+02:00</time>
      </trkpt>
      <trkpt lat="45.52132" lon="-0.83698">
        <ele>51.4</ele>
        <time>2022-08-11T11:46:01.476+02:00</time>
      </trkpt>
      <trkpt lat="45.52134" lon="-0.83685">
        <ele>51.7</ele>
        <time>2022-08-11T11:46:05.485+02:00</time>
      </trkpt>
      <trkpt lat="45.52136" lon="-0.83673">
        <ele>52.5</ele>
        <time>2022-08-11T11:46:09.479+02:00</time>
      </trkpt>
      <trkpt lat="45.52138" lon="-0.8366">
        <ele>53</ele>
        <time>2022-08-11T11:46:13.489+02:00</time>
      </trkpt>
      <trkpt lat="45.52142" lon="-0.83648">
        <ele>53.5</ele>
        <time>2022-08-11T11:46:17.489+02:00</time>
      </trkpt>
      <trkpt lat="45.52144" lon="-0.83633">
        <ele>54.3</ele>
        <time>2022-08-11T11:46:22.481+02:00</time>
      </trkpt>
      <trkpt lat="45.52147" lon="-0.83619">
        <ele>55.2</ele>
        <time>2022-08-11T11:46:27.483+02:00</time>
      </trkpt>
      <trkpt lat="45.5215" lon="-0.83604">
        <ele>56</ele>
        <time>2022-08-11T11:46:32.488+02:00</time>
      </trkpt>
      <trkpt lat="45.52152" lon="-0.8359">
        <ele>56.7</ele>
        <time>2022-08-11T11:46:37.486+02:00</time>
      </trkpt>
      <trkpt lat="45.52154" lon="-0.83576">
        <ele>57.1</ele>
        <time>2022-08-11T11:46:42.485+02:00</time>
      </trkpt>
      <trkpt lat="45.52156" lon="-0.83562">
        <ele>57.4</ele>
        <time>2022-08-11T11:46:47.488+02:00</time>
      </trkpt>
      <trkpt lat="45.52156" lon="-0.83546">
        <ele>58.6</ele>
        <time>2022-08-11T11:46:52.488+02:00</time>
      </trkpt>
      <trkpt lat="45.52155" lon="-0.83533">
        <ele>59.6</ele>
        <time>2022-08-11T11:46:57.485+02:00</time>
      </trkpt>
      <trkpt lat="45.52152" lon="-0.83518">
        <ele>60.6</ele>
        <time>2022-08-11T11:47:03.495+02:00</time>
      </trkpt>
      <trkpt lat="45.5215" lon="-0.83505">
        <ele>61.8</ele>
        <time>2022-08-11T11:47:08.487+02:00</time>
      </trkpt>
      <trkpt lat="45.52146" lon="-0.83493">
        <ele>62.9</ele>
        <time>2022-08-11T11:47:13.482+02:00</time>
      </trkpt>
      <trkpt lat="45.52142" lon="-0.8348">
        <ele>64.2</ele>
        <time>2022-08-11T11:47:19.486+02:00</time>
      </trkpt>
      <trkpt lat="45.52139" lon="-0.83468">
        <ele>65.2</ele>
        <time>2022-08-11T11:47:24.48+02:00</time>
      </trkpt>
      <trkpt lat="45.52135" lon="-0.83455">
        <ele>66.9</ele>
        <time>2022-08-11T11:47:29.484+02:00</time>
      </trkpt>
      <trkpt lat="45.52132" lon="-0.83444">
        <ele>68.1</ele>
        <time>2022-08-11T11:47:34.488+02:00</time>
      </trkpt>
      <trkpt lat="45.52128" lon="-0.83431">
        <ele>68.7</ele>
        <time>2022-08-11T11:47:39.486+02:00</time>
      </trkpt>
      <trkpt lat="45.52124" lon="-0.83416">
        <ele>69.6</ele>
        <time>2022-08-11T11:47:44.488+02:00</time>
      </trkpt>
      <trkpt lat="45.5212" lon="-0.83404">
        <ele>70.6</ele>
        <time>2022-08-11T11:47:48.488+02:00</time>
      </trkpt>
      <trkpt lat="45.52115" lon="-0.8339">
        <ele>70.9</ele>
        <time>2022-08-11T11:47:53.482+02:00</time>
      </trkpt>
      <trkpt lat="45.52111" lon="-0.83377">
        <ele>73.1</ele>
        <time>2022-08-11T11:47:59.481+02:00</time>
      </trkpt>
      <trkpt lat="45.52107" lon="-0.83365">
        <ele>74.2</ele>
        <time>2022-08-11T11:48:05.489+02:00</time>
      </trkpt>
      <trkpt lat="45.52102" lon="-0.83354">
        <ele>75.2</ele>
        <time>2022-08-11T11:48:12.481+02:00</time>
      </trkpt>
      <trkpt lat="45.52098" lon="-0.83341">
        <ele>76.7</ele>
        <time>2022-08-11T11:48:19.487+02:00</time>
      </trkpt>
      <trkpt lat="45.52092" lon="-0.83331">
        <ele>77.5</ele>
        <time>2022-08-11T11:48:25.478+02:00</time>
      </trkpt>
      <trkpt lat="45.52086" lon="-0.83321">
        <ele>78</ele>
        <time>2022-08-11T11:48:32.49+02:00</time>
      </trkpt>
      <trkpt lat="45.5208" lon="-0.8331">
        <ele>79.1</ele>
        <time>2022-08-11T11:48:39.477+02:00</time>
      </trkpt>
      <trkpt lat="45.52076" lon="-0.83297">
        <ele>80.3</ele>
        <time>2022-08-11T11:48:46.484+02:00</time>
      </trkpt>
      <trkpt lat="45.5207" lon="-0.83285">
        <ele>81.6</ele>
        <time>2022-08-11T11:48:53.482+02:00</time>
      </trkpt>
      <trkpt lat="45.52065" lon="-0.83272">
        <ele>82.9</ele>
        <time>2022-08-11T11:49:00.463+02:00</time>
      </trkpt>
      <trkpt lat="45.52059" lon="-0.83261">
        <ele>84</ele>
        <time>2022-08-11T11:49:07.489+02:00</time>
      </trkpt>
      <trkpt lat="45.52054" lon="-0.83249">
        <ele>85.6</ele>
        <time>2022-08-11T11:49:13.474+02:00</time>
      </trkpt>
      <trkpt lat="45.52051" lon="-0.83235">
        <ele>84.6</ele>
        <time>2022-08-11T11:49:19.478+02:00</time>
      </trkpt>
      <trkpt lat="45.52048" lon="-0.83223">
        <ele>87.7</ele>
        <time>2022-08-11T11:49:25.484+02:00</time>
      </trkpt>
      <trkpt lat="45.52043" lon="-0.8321">
        <ele>88.8</ele>
        <time>2022-08-11T11:49:32.473+02:00</time>
      </trkpt>
      <trkpt lat="45.52045" lon="-0.83196">
        <ele>89.6</ele>
        <time>2022-08-11T11:49:39.481+02:00</time>
      </trkpt>
      <trkpt lat="45.52052" lon="-0.83187">
        <ele>90</ele>
        <time>2022-08-11T11:49:44.479+02:00</time>
      </trkpt>
      <trkpt lat="45.52061" lon="-0.8318">
        <ele>89.9</ele>
        <time>2022-08-11T11:49:48.484+02:00</time>
      </trkpt>
      <trkpt lat="45.52073" lon="-0.83176">
        <ele>89.9</ele>
        <time>2022-08-11T11:49:52.48+02:00</time>
      </trkpt>
      <trkpt lat="45.52083" lon="-0.8317">
        <ele>90</ele>
        <time>2022-08-11T11:49:56.477+02:00</time>
      </trkpt>
      <trkpt lat="45.52093" lon="-0.83164">
        <ele>90</ele>
        <time>2022-08-11T11:50:00.487+02:00</time>
      </trkpt>
      <trkpt lat="45.52103" lon="-0.83159">
        <ele>90.4</ele>
        <time>2022-08-11T11:50:04.477+02:00</time>
      </trkpt>
      <trkpt lat="45.52113" lon="-0.83152">
        <ele>90.7</ele>
        <time>2022-08-11T11:50:08.478+02:00</time>
      </trkpt>
      <trkpt lat="45.52123" lon="-0.83145">
        <ele>90.4</ele>
        <time>2022-08-11T11:50:12.49+02:00</time>
      </trkpt>
      <trkpt lat="45.52133" lon="-0.83137">
        <ele>90.6</ele>
        <time>2022-08-11T11:50:16.49+02:00</time>
      </trkpt>
      <trkpt lat="45.5214" lon="-0.83129">
        <ele>91</ele>
        <time>2022-08-11T11:50:19.495+02:00</time>
      </trkpt>
      <trkpt lat="45.52145" lon="-0.83118">
        <ele>91.2</ele>
        <time>2022-08-11T11:50:22.489+02:00</time>
      </trkpt>
      <trkpt lat="45.52147" lon="-0.83104">
        <ele>91.7</ele>
        <time>2022-08-11T11:50:25.475+02:00</time>
      </trkpt>
      <trkpt lat="45.52148" lon="-0.83087">
        <ele>92.3</ele>
        <time>2022-08-11T11:50:29.481+02:00</time>
      </trkpt>
      <trkpt lat="45.52148" lon="-0.83075">
        <ele>92.2</ele>
        <time>2022-08-11T11:50:32.492+02:00</time>
      </trkpt>
      <trkpt lat="45.52148" lon="-0.83061">
        <ele>92.8</ele>
        <time>2022-08-11T11:50:35.488+02:00</time>
      </trkpt>
      <trkpt lat="45.52148" lon="-0.83047">
        <ele>92.8</ele>
        <time>2022-08-11T11:50:38.489+02:00</time>
      </trkpt>
      <trkpt lat="45.52147" lon="-0.83034">
        <ele>92.9</ele>
        <time>2022-08-11T11:50:41.473+02:00</time>
      </trkpt>
      <trkpt lat="45.52147" lon="-0.8302">
        <ele>93.3</ele>
        <time>2022-08-11T11:50:44.485+02:00</time>
      </trkpt>
      <trkpt lat="45.52145" lon="-0.83006">
        <ele>93.1</ele>
        <time>2022-08-11T11:50:47.487+02:00</time>
      </trkpt>
      <trkpt lat="45.52142" lon="-0.82991">
        <ele>93.3</ele>
        <time>2022-08-11T11:50:50.489+02:00</time>
      </trkpt>
      <trkpt lat="45.52138" lon="-0.82979">
        <ele>93.3</ele>
        <time>2022-08-11T11:50:53.485+02:00</time>
      </trkpt>
      <trkpt lat="45.52132" lon="-0.82968">
        <ele>93.1</ele>
        <time>2022-08-11T11:50:56.478+02:00</time>
      </trkpt>
      <trkpt lat="45.52126" lon="-0.82956">
        <ele>93.4</ele>
        <time>2022-08-11T11:50:59.489+02:00</time>
      </trkpt>
      <trkpt lat="45.52118" lon="-0.82945">
        <ele>93.6</ele>
        <time>2022-08-11T11:51:02.484+02:00</time>
      </trkpt>
      <trkpt lat="45.5211" lon="-0.82935">
        <ele>93.2</ele>
        <time>2022-08-11T11:51:05.489+02:00</time>
      </trkpt>
      <trkpt lat="45.52102" lon="-0.82925">
        <ele>93.4</ele>
        <time>2022-08-11T11:51:08.487+02:00</time>
      </trkpt>
      <trkpt lat="45.52093" lon="-0.82916">
        <ele>93.4</ele>
        <time>2022-08-11T11:51:11.461+02:00</time>
      </trkpt>
      <trkpt lat="45.52084" lon="-0.82906">
        <ele>93.4</ele>
        <time>2022-08-11T11:51:14.477+02:00</time>
      </trkpt>
      <trkpt lat="45.52075" lon="-0.82897">
        <ele>93.5</ele>
        <time>2022-08-11T11:51:17.457+02:00</time>
      </trkpt>
      <trkpt lat="45.52066" lon="-0.82889">
        <ele>94.4</ele>
        <time>2022-08-11T11:51:20.458+02:00</time>
      </trkpt>
      <trkpt lat="45.52057" lon="-0.82879">
        <ele>94.5</ele>
        <time>2022-08-11T11:51:23.489+02:00</time>
      </trkpt>
      <trkpt lat="45.52048" lon="-0.82867">
        <ele>94.7</ele>
        <time>2022-08-11T11:51:26.481+02:00</time>
      </trkpt>
      <trkpt lat="45.5204" lon="-0.82854">
        <ele>94</ele>
        <time>2022-08-11T11:51:29.469+02:00</time>
      </trkpt>
      <trkpt lat="45.52033" lon="-0.82842">
        <ele>94.3</ele>
        <time>2022-08-11T11:51:32.459+02:00</time>
      </trkpt>
      <trkpt lat="45.52027" lon="-0.8283">
        <ele>92.3</ele>
        <time>2022-08-11T11:51:35.455+02:00</time>
      </trkpt>
      <trkpt lat="45.52022" lon="-0.82818">
        <ele>91.8</ele>
        <time>2022-08-11T11:51:38.46+02:00</time>
      </trkpt>
      <trkpt lat="45.52016" lon="-0.82806">
        <ele>92.2</ele>
        <time>2022-08-11T11:51:41.457+02:00</time>
      </trkpt>
      <trkpt lat="45.52011" lon="-0.82794">
        <ele>91.9</ele>
        <time>2022-08-11T11:51:44.461+02:00</time>
      </trkpt>
      <trkpt lat="45.52006" lon="-0.82783">
        <ele>92.6</ele>
        <time>2022-08-11T11:51:47.47+02:00</time>
      </trkpt>
      <trkpt lat="45.52002" lon="-0.82771">
        <ele>93.2</ele>
        <time>2022-08-11T11:51:50.46+02:00</time>
      </trkpt>
      <trkpt lat="45.51999" lon="-0.82759">
        <ele>93.5</ele>
        <time>2022-08-11T11:51:53.47+02:00</time>
      </trkpt>
      <trkpt lat="45.51995" lon="-0.82746">
        <ele>93.6</ele>
        <time>2022-08-11T11:51:56.463+02:00</time>
      </trkpt>
      <trkpt lat="45.51992" lon="-0.82732">
        <ele>93.8</ele>
        <time>2022-08-11T11:51:59.471+02:00</time>
      </trkpt>
      <trkpt lat="45.51989" lon="-0.82717">
        <ele>94.1</ele>
        <time>2022-08-11T11:52:02.487+02:00</time>
      </trkpt>
      <trkpt lat="45.51985" lon="-0.82702">
        <ele>93.9</ele>
        <time>2022-08-11T11:52:05.475+02:00</time>
      </trkpt>
      <trkpt lat="45.5198" lon="-0.82687">
        <ele>93.6</ele>
        <time>2022-08-11T11:52:08.487+02:00</time>
      </trkpt>
      <trkpt lat="45.51973" lon="-0.82673">
        <ele>93.2</ele>
        <time>2022-08-11T11:52:11.466+02:00</time>
      </trkpt>
      <trkpt lat="45.51963" lon="-0.8266">
        <ele>92.5</ele>
        <time>2022-08-11T11:52:14.476+02:00</time>
      </trkpt>
      <trkpt lat="45.51956" lon="-0.8265">
        <ele>92.1</ele>
        <time>2022-08-11T11:52:16.478+02:00</time>
      </trkpt>
      <trkpt lat="45.51948" lon="-0.82639">
        <ele>91.5</ele>
        <time>2022-08-11T11:52:18.483+02:00</time>
      </trkpt>
      <trkpt lat="45.5194" lon="-0.82629">
        <ele>91</ele>
        <time>2022-08-11T11:52:20.487+02:00</time>
      </trkpt>
      <trkpt lat="45.51931" lon="-0.82618">
        <ele>90.3</ele>
        <time>2022-08-11T11:52:22.491+02:00</time>
      </trkpt>
      <trkpt lat="45.51923" lon="-0.82607">
        <ele>89.8</ele>
        <time>2022-08-11T11:52:24.475+02:00</time>
      </trkpt>
      <trkpt lat="45.51913" lon="-0.82596">
        <ele>89.4</ele>
        <time>2022-08-11T11:52:26.478+02:00</time>
      </trkpt>
      <trkpt lat="45.51902" lon="-0.82592">
        <ele>88.9</ele>
        <time>2022-08-11T11:52:28.487+02:00</time>
      </trkpt>
      <trkpt lat="45.51889" lon="-0.82594">
        <ele>88.6</ele>
        <time>2022-08-11T11:52:30.476+02:00</time>
      </trkpt>
      <trkpt lat="45.51878" lon="-0.82602">
        <ele>87.8</ele>
        <time>2022-08-11T11:52:32.457+02:00</time>
      </trkpt>
      <trkpt lat="45.51867" lon="-0.8261">
        <ele>87.6</ele>
        <time>2022-08-11T11:52:34.466+02:00</time>
      </trkpt>
      <trkpt lat="45.51855" lon="-0.82617">
        <ele>87.3</ele>
        <time>2022-08-11T11:52:36.487+02:00</time>
      </trkpt>
      <trkpt lat="45.51844" lon="-0.82625">
        <ele>87</ele>
        <time>2022-08-11T11:52:38.462+02:00</time>
      </trkpt>
      <trkpt lat="45.51833" lon="-0.82632">
        <ele>86.6</ele>
        <time>2022-08-11T11:52:40.46+02:00</time>
      </trkpt>
      <trkpt lat="45.51823" lon="-0.82639">
        <ele>87</ele>
        <time>2022-08-11T11:52:42.458+02:00</time>
      </trkpt>
      <trkpt lat="45.51812" lon="-0.82646">
        <ele>87.1</ele>
        <time>2022-08-11T11:52:44.46+02:00</time>
      </trkpt>
      <trkpt lat="45.51804" lon="-0.82653">
        <ele>87.1</ele>
        <time>2022-08-11T11:52:46.461+02:00</time>
      </trkpt>
      <trkpt lat="45.51794" lon="-0.82658">
        <ele>87.5</ele>
        <time>2022-08-11T11:52:48.47+02:00</time>
      </trkpt>
      <trkpt lat="45.51785" lon="-0.82662">
        <ele>87</ele>
        <time>2022-08-11T11:52:50.477+02:00</time>
      </trkpt>
      <trkpt lat="45.51773" lon="-0.82667">
        <ele>87.5</ele>
        <time>2022-08-11T11:52:53.478+02:00</time>
      </trkpt>
      <trkpt lat="45.51762" lon="-0.82663">
        <ele>87.4</ele>
        <time>2022-08-11T11:52:56.486+02:00</time>
      </trkpt>
      <trkpt lat="45.51752" lon="-0.82658">
        <ele>86.9</ele>
        <time>2022-08-11T11:53:00.476+02:00</time>
      </trkpt>
      <trkpt lat="45.51741" lon="-0.82653">
        <ele>88.4</ele>
        <time>2022-08-11T11:53:04.48+02:00</time>
      </trkpt>
      <trkpt lat="45.5173" lon="-0.8265">
        <ele>88.5</ele>
        <time>2022-08-11T11:53:08.481+02:00</time>
      </trkpt>
      <trkpt lat="45.5172" lon="-0.82648">
        <ele>89.6</ele>
        <time>2022-08-11T11:53:12.472+02:00</time>
      </trkpt>
      <trkpt lat="45.5171" lon="-0.82645">
        <ele>89.4</ele>
        <time>2022-08-11T11:53:16.474+02:00</time>
      </trkpt>
      <trkpt lat="45.517" lon="-0.82644">
        <ele>89.2</ele>
        <time>2022-08-11T11:53:20.48+02:00</time>
      </trkpt>
      <trkpt lat="45.51688" lon="-0.8265">
        <ele>88.5</ele>
        <time>2022-08-11T11:53:24.475+02:00</time>
      </trkpt>
      <trkpt lat="45.51678" lon="-0.82654">
        <ele>88.2</ele>
        <time>2022-08-11T11:53:28.481+02:00</time>
      </trkpt>
      <trkpt lat="45.5167" lon="-0.82661">
        <ele>87.4</ele>
        <time>2022-08-11T11:53:31.469+02:00</time>
      </trkpt>
      <trkpt lat="45.51659" lon="-0.82674">
        <ele>85.1</ele>
        <time>2022-08-11T11:53:34.477+02:00</time>
      </trkpt>
      <trkpt lat="45.51647" lon="-0.82683">
        <ele>83.7</ele>
        <time>2022-08-11T11:53:36.481+02:00</time>
      </trkpt>
      <trkpt lat="45.51636" lon="-0.82697">
        <ele>82.4</ele>
        <time>2022-08-11T11:53:38.478+02:00</time>
      </trkpt>
      <trkpt lat="45.51624" lon="-0.82709">
        <ele>82.2</ele>
        <time>2022-08-11T11:53:40.484+02:00</time>
      </trkpt>
      <trkpt lat="45.51613" lon="-0.82718">
        <ele>83.1</ele>
        <time>2022-08-11T11:53:42.472+02:00</time>
      </trkpt>
      <trkpt lat="45.51602" lon="-0.82726">
        <ele>83.2</ele>
        <time>2022-08-11T11:53:44.486+02:00</time>
      </trkpt>
      <trkpt lat="45.51591" lon="-0.82734">
        <ele>84.6</ele>
        <time>2022-08-11T11:53:47.484+02:00</time>
      </trkpt>
      <trkpt lat="45.51581" lon="-0.8274">
        <ele>87</ele>
        <time>2022-08-11T11:53:52.48+02:00</time>
      </trkpt>
      <trkpt lat="45.5157" lon="-0.82743">
        <ele>88.7</ele>
        <time>2022-08-11T11:53:57.48+02:00</time>
      </trkpt>
      <trkpt lat="45.51562" lon="-0.82747">
        <ele>89.6</ele>
        <time>2022-08-11T11:54:01.477+02:00</time>
      </trkpt>
      <trkpt lat="45.51554" lon="-0.82756">
        <ele>90.3</ele>
        <time>2022-08-11T11:54:07.477+02:00</time>
      </trkpt>
      <trkpt lat="45.51545" lon="-0.82763">
        <ele>90</ele>
        <time>2022-08-11T11:54:12.488+02:00</time>
      </trkpt>
      <trkpt lat="45.51537" lon="-0.8277">
        <ele>90.1</ele>
        <time>2022-08-11T11:54:17.477+02:00</time>
      </trkpt>
      <trkpt lat="45.51528" lon="-0.82777">
        <ele>90.7</ele>
        <time>2022-08-11T11:54:23.485+02:00</time>
      </trkpt>
      <trkpt lat="45.5152" lon="-0.82784">
        <ele>91.3</ele>
        <time>2022-08-11T11:54:28.481+02:00</time>
      </trkpt>
      <trkpt lat="45.5151" lon="-0.82793">
        <ele>91.3</ele>
        <time>2022-08-11T11:54:33.472+02:00</time>
      </trkpt>
      <trkpt lat="45.51503" lon="-0.82802">
        <ele>91.3</ele>
        <time>2022-08-11T11:54:38.481+02:00</time>
      </trkpt>
      <trkpt lat="45.51501" lon="-0.82804">
        <ele>91.6</ele>
        <time>2022-08-11T11:54:40.484+02:00</time>
      </trkpt>
      <trkpt lat="45.515" lon="-0.82804">
        <ele>91.6</ele>
        <time>2022-08-11T11:54:41.47+02:00</time>
      </trkpt>
      <trkpt lat="45.515" lon="-0.82802">
        <ele>91.1</ele>
        <time>2022-08-11T11:55:17.485+02:00</time>
      </trkpt>
      <trkpt lat="45.515" lon="-0.82802">
        <ele>91.2</ele>
        <time>2022-08-11T11:55:18.484+02:00</time>
      </trkpt>
      <trkpt lat="45.51499" lon="-0.82802">
        <ele>91.3</ele>
        <time>2022-08-11T11:55:19.489+02:00</time>
      </trkpt>
      <trkpt lat="45.51499" lon="-0.828">
        <ele>91.5</ele>
        <time>2022-08-11T11:56:44.488+02:00</time>
      </trkpt>
      <trkpt lat="45.51499" lon="-0.828">
        <ele>91.4</ele>
        <time>2022-08-11T11:56:45.471+02:00</time>
      </trkpt>
      <trkpt lat="45.51493" lon="-0.82809">
        <ele>90.7</ele>
        <time>2022-08-11T11:56:52.475+02:00</time>
      </trkpt>
      <trkpt lat="45.51484" lon="-0.8282">
        <ele>89.6</ele>
        <time>2022-08-11T11:56:56.483+02:00</time>
      </trkpt>
      <trkpt lat="45.51476" lon="-0.82832">
        <ele>88.9</ele>
        <time>2022-08-11T11:56:59.483+02:00</time>
      </trkpt>
      <trkpt lat="45.51468" lon="-0.82844">
        <ele>88</ele>
        <time>2022-08-11T11:57:02.475+02:00</time>
      </trkpt>
      <trkpt lat="45.51458" lon="-0.82854">
        <ele>87.2</ele>
        <time>2022-08-11T11:57:05.485+02:00</time>
      </trkpt>
      <trkpt lat="45.51449" lon="-0.82866">
        <ele>85.5</ele>
        <time>2022-08-11T11:57:08.48+02:00</time>
      </trkpt>
      <trkpt lat="45.51441" lon="-0.82875">
        <ele>83.3</ele>
        <time>2022-08-11T11:57:11.478+02:00</time>
      </trkpt>
      <trkpt lat="45.51433" lon="-0.82885">
        <ele>80.8</ele>
        <time>2022-08-11T11:57:14.473+02:00</time>
      </trkpt>
      <trkpt lat="45.51425" lon="-0.82895">
        <ele>78.6</ele>
        <time>2022-08-11T11:57:17.475+02:00</time>
      </trkpt>
      <trkpt lat="45.51415" lon="-0.82905">
        <ele>76.6</ele>
        <time>2022-08-11T11:57:20.472+02:00</time>
      </trkpt>
      <trkpt lat="45.51404" lon="-0.82913">
        <ele>75.3</ele>
        <time>2022-08-11T11:57:23.486+02:00</time>
      </trkpt>
      <trkpt lat="45.51393" lon="-0.8292">
        <ele>74.1</ele>
        <time>2022-08-11T11:57:26.479+02:00</time>
      </trkpt>
      <trkpt lat="45.51383" lon="-0.82928">
        <ele>73.2</ele>
        <time>2022-08-11T11:57:29.487+02:00</time>
      </trkpt>
      <trkpt lat="45.51374" lon="-0.82937">
        <ele>72.5</ele>
        <time>2022-08-11T11:57:31.474+02:00</time>
      </trkpt>
      <trkpt lat="45.51367" lon="-0.82949">
        <ele>71</ele>
        <time>2022-08-11T11:57:33.474+02:00</time>
      </trkpt>
      <trkpt lat="45.51358" lon="-0.82962">
        <ele>69.5</ele>
        <time>2022-08-11T11:57:35.484+02:00</time>
      </trkpt>
      <trkpt lat="45.51348" lon="-0.82976">
        <ele>68.3</ele>
        <time>2022-08-11T11:57:37.478+02:00</time>
      </trkpt>
      <trkpt lat="45.51337" lon="-0.82991">
        <ele>67.3</ele>
        <time>2022-08-11T11:57:39.481+02:00</time>
      </trkpt>
      <trkpt lat="45.51326" lon="-0.83005">
        <ele>66.6</ele>
        <time>2022-08-11T11:57:41.474+02:00</time>
      </trkpt>
      <trkpt lat="45.51317" lon="-0.83018">
        <ele>66.1</ele>
        <time>2022-08-11T11:57:43.487+02:00</time>
      </trkpt>
      <trkpt lat="45.51307" lon="-0.8303">
        <ele>62.8</ele>
        <time>2022-08-11T11:57:45.504+02:00</time>
      </trkpt>
      <trkpt lat="45.513" lon="-0.83042">
        <ele>65.4</ele>
        <time>2022-08-11T11:57:47.473+02:00</time>
      </trkpt>
      <trkpt lat="45.51293" lon="-0.83052">
        <ele>66</ele>
        <time>2022-08-11T11:57:49.484+02:00</time>
      </trkpt>
      <trkpt lat="45.51286" lon="-0.83063">
        <ele>66.8</ele>
        <time>2022-08-11T11:57:52.476+02:00</time>
      </trkpt>
      <trkpt lat="45.51279" lon="-0.83073">
        <ele>67.5</ele>
        <time>2022-08-11T11:57:56.486+02:00</time>
      </trkpt>
      <trkpt lat="45.51273" lon="-0.83083">
        <ele>68.9</ele>
        <time>2022-08-11T11:58:01.483+02:00</time>
      </trkpt>
      <trkpt lat="45.51266" lon="-0.83092">
        <ele>70.2</ele>
        <time>2022-08-11T11:58:06.484+02:00</time>
      </trkpt>
      <trkpt lat="45.51258" lon="-0.83102">
        <ele>71.4</ele>
        <time>2022-08-11T11:58:10.484+02:00</time>
      </trkpt>
      <trkpt lat="45.5125" lon="-0.83112">
        <ele>72.7</ele>
        <time>2022-08-11T11:58:14.484+02:00</time>
      </trkpt>
      <trkpt lat="45.51242" lon="-0.8312">
        <ele>74.2</ele>
        <time>2022-08-11T11:58:18.474+02:00</time>
      </trkpt>
      <trkpt lat="45.51234" lon="-0.83128">
        <ele>76.1</ele>
        <time>2022-08-11T11:58:23.486+02:00</time>
      </trkpt>
      <trkpt lat="45.51225" lon="-0.83136">
        <ele>78.2</ele>
        <time>2022-08-11T11:58:29.484+02:00</time>
      </trkpt>
      <trkpt lat="45.51217" lon="-0.83144">
        <ele>79.8</ele>
        <time>2022-08-11T11:58:35.483+02:00</time>
      </trkpt>
      <trkpt lat="45.5121" lon="-0.83153">
        <ele>80.7</ele>
        <time>2022-08-11T11:58:41.485+02:00</time>
      </trkpt>
      <trkpt lat="45.51203" lon="-0.83161">
        <ele>81.1</ele>
        <time>2022-08-11T11:58:47.48+02:00</time>
      </trkpt>
      <trkpt lat="45.51196" lon="-0.83169">
        <ele>81.8</ele>
        <time>2022-08-11T11:58:54.475+02:00</time>
      </trkpt>
      <trkpt lat="45.51189" lon="-0.83177">
        <ele>82.5</ele>
        <time>2022-08-11T11:59:01.479+02:00</time>
      </trkpt>
      <trkpt lat="45.51181" lon="-0.83185">
        <ele>84</ele>
        <time>2022-08-11T11:59:08.48+02:00</time>
      </trkpt>
      <trkpt lat="45.51173" lon="-0.83194">
        <ele>84.5</ele>
        <time>2022-08-11T11:59:15.492+02:00</time>
      </trkpt>
      <trkpt lat="45.51165" lon="-0.83202">
        <ele>85.3</ele>
        <time>2022-08-11T11:59:21.482+02:00</time>
      </trkpt>
      <trkpt lat="45.51158" lon="-0.83211">
        <ele>85.9</ele>
        <time>2022-08-11T11:59:28.48+02:00</time>
      </trkpt>
      <trkpt lat="45.5115" lon="-0.83222">
        <ele>86.2</ele>
        <time>2022-08-11T11:59:34.491+02:00</time>
      </trkpt>
      <trkpt lat="45.51141" lon="-0.83231">
        <ele>86.2</ele>
        <time>2022-08-11T11:59:40.488+02:00</time>
      </trkpt>
      <trkpt lat="45.51133" lon="-0.8324">
        <ele>86.6</ele>
        <time>2022-08-11T11:59:45.479+02:00</time>
      </trkpt>
      <trkpt lat="45.51124" lon="-0.83249">
        <ele>87</ele>
        <time>2022-08-11T11:59:50.481+02:00</time>
      </trkpt>
      <trkpt lat="45.51115" lon="-0.83258">
        <ele>86.5</ele>
        <time>2022-08-11T11:59:55.491+02:00</time>
      </trkpt>
      <trkpt lat="45.51108" lon="-0.83267">
        <ele>86.4</ele>
        <time>2022-08-11T11:59:59.481+02:00</time>
      </trkpt>
      <trkpt lat="45.51101" lon="-0.83277">
        <ele>86.6</ele>
        <time>2022-08-11T12:00:03.478+02:00</time>
      </trkpt>
      <trkpt lat="45.51094" lon="-0.8329">
        <ele>86.7</ele>
        <time>2022-08-11T12:00:07.478+02:00</time>
      </trkpt>
      <trkpt lat="45.51086" lon="-0.83285">
        <ele>87.8</ele>
        <time>2022-08-11T12:00:12.475+02:00</time>
      </trkpt>
      <trkpt lat="45.5108" lon="-0.83272">
        <ele>88.3</ele>
        <time>2022-08-11T12:00:17.489+02:00</time>
      </trkpt>
      <trkpt lat="45.51074" lon="-0.83261">
        <ele>89.2</ele>
        <time>2022-08-11T12:00:21.473+02:00</time>
      </trkpt>
      <trkpt lat="45.51068" lon="-0.83248">
        <ele>89.4</ele>
        <time>2022-08-11T12:00:26.486+02:00</time>
      </trkpt>
      <trkpt lat="45.5106" lon="-0.83236">
        <ele>89.7</ele>
        <time>2022-08-11T12:00:31.484+02:00</time>
      </trkpt>
      <trkpt lat="45.51053" lon="-0.83228">
        <ele>89.8</ele>
        <time>2022-08-11T12:00:35.488+02:00</time>
      </trkpt>
      <trkpt lat="45.51044" lon="-0.83223">
        <ele>89.9</ele>
        <time>2022-08-11T12:00:39.489+02:00</time>
      </trkpt>
      <trkpt lat="45.51034" lon="-0.83219">
        <ele>89.7</ele>
        <time>2022-08-11T12:00:43.481+02:00</time>
      </trkpt>
      <trkpt lat="45.51024" lon="-0.83215">
        <ele>90.1</ele>
        <time>2022-08-11T12:00:47.478+02:00</time>
      </trkpt>
      <trkpt lat="45.51014" lon="-0.8321">
        <ele>90.4</ele>
        <time>2022-08-11T12:00:51.479+02:00</time>
      </trkpt>
      <trkpt lat="45.51004" lon="-0.83201">
        <ele>90.6</ele>
        <time>2022-08-11T12:00:55.482+02:00</time>
      </trkpt>
      <trkpt lat="45.50995" lon="-0.83191">
        <ele>90.3</ele>
        <time>2022-08-11T12:00:59.475+02:00</time>
      </trkpt>
      <trkpt lat="45.50988" lon="-0.83182">
        <ele>90.1</ele>
        <time>2022-08-11T12:01:02.473+02:00</time>
      </trkpt>
      <trkpt lat="45.50981" lon="-0.83175">
        <ele>89.6</ele>
        <time>2022-08-11T12:01:05.456+02:00</time>
      </trkpt>
      <trkpt lat="45.50972" lon="-0.83164">
        <ele>89.5</ele>
        <time>2022-08-11T12:01:09.473+02:00</time>
      </trkpt>
      <trkpt lat="45.50963" lon="-0.83154">
        <ele>83.7</ele>
        <time>2022-08-11T12:01:13.465+02:00</time>
      </trkpt>
      <trkpt lat="45.50953" lon="-0.83145">
        <ele>86.4</ele>
        <time>2022-08-11T12:01:17.48+02:00</time>
      </trkpt>
      <trkpt lat="45.50946" lon="-0.83138">
        <ele>87.3</ele>
        <time>2022-08-11T12:01:20.481+02:00</time>
      </trkpt>
      <trkpt lat="45.50938" lon="-0.8313">
        <ele>87.8</ele>
        <time>2022-08-11T12:01:23.481+02:00</time>
      </trkpt>
      <trkpt lat="45.50929" lon="-0.83122">
        <ele>88.1</ele>
        <time>2022-08-11T12:01:26.487+02:00</time>
      </trkpt>
      <trkpt lat="45.50921" lon="-0.83112">
        <ele>88.6</ele>
        <time>2022-08-11T12:01:29.477+02:00</time>
      </trkpt>
      <trkpt lat="45.50915" lon="-0.83101">
        <ele>88.8</ele>
        <time>2022-08-11T12:01:32.47+02:00</time>
      </trkpt>
      <trkpt lat="45.50908" lon="-0.83088">
        <ele>88.8</ele>
        <time>2022-08-11T12:01:35.477+02:00</time>
      </trkpt>
      <trkpt lat="45.50902" lon="-0.83074">
        <ele>87.7</ele>
        <time>2022-08-11T12:01:38.475+02:00</time>
      </trkpt>
      <trkpt lat="45.50898" lon="-0.83062">
        <ele>88.2</ele>
        <time>2022-08-11T12:01:41.475+02:00</time>
      </trkpt>
      <trkpt lat="45.50889" lon="-0.83055">
        <ele>87.3</ele>
        <time>2022-08-11T12:01:44.484+02:00</time>
      </trkpt>
      <trkpt lat="45.50877" lon="-0.8306">
        <ele>86.7</ele>
        <time>2022-08-11T12:01:47.477+02:00</time>
      </trkpt>
      <trkpt lat="45.50865" lon="-0.83067">
        <ele>86.8</ele>
        <time>2022-08-11T12:01:50.485+02:00</time>
      </trkpt>
      <trkpt lat="45.50857" lon="-0.83076">
        <ele>86.5</ele>
        <time>2022-08-11T12:01:52.47+02:00</time>
      </trkpt>
      <trkpt lat="45.50848" lon="-0.83082">
        <ele>85.8</ele>
        <time>2022-08-11T12:01:54.483+02:00</time>
      </trkpt>
      <trkpt lat="45.50838" lon="-0.83088">
        <ele>84.9</ele>
        <time>2022-08-11T12:01:56.476+02:00</time>
      </trkpt>
      <trkpt lat="45.50827" lon="-0.83094">
        <ele>83.3</ele>
        <time>2022-08-11T12:01:58.474+02:00</time>
      </trkpt>
      <trkpt lat="45.50813" lon="-0.83101">
        <ele>82.2</ele>
        <time>2022-08-11T12:02:00.48+02:00</time>
      </trkpt>
      <trkpt lat="45.50799" lon="-0.8311">
        <ele>80.7</ele>
        <time>2022-08-11T12:02:02.469+02:00</time>
      </trkpt>
      <trkpt lat="45.50784" lon="-0.83119">
        <ele>79.3</ele>
        <time>2022-08-11T12:02:04.475+02:00</time>
      </trkpt>
      <trkpt lat="45.50769" lon="-0.83128">
        <ele>77.7</ele>
        <time>2022-08-11T12:02:06.478+02:00</time>
      </trkpt>
      <trkpt lat="45.50753" lon="-0.83136">
        <ele>75.8</ele>
        <time>2022-08-11T12:02:08.48+02:00</time>
      </trkpt>
      <trkpt lat="45.50736" lon="-0.83144">
        <ele>74.2</ele>
        <time>2022-08-11T12:02:10.518+02:00</time>
      </trkpt>
      <trkpt lat="45.50728" lon="-0.83148">
        <ele>73.4</ele>
        <time>2022-08-11T12:02:11.458+02:00</time>
      </trkpt>
      <trkpt lat="45.50719" lon="-0.83153">
        <ele>72.7</ele>
        <time>2022-08-11T12:02:12.456+02:00</time>
      </trkpt>
      <trkpt lat="45.5071" lon="-0.83158">
        <ele>75.6</ele>
        <time>2022-08-11T12:02:13.459+02:00</time>
      </trkpt>
      <trkpt lat="45.50701" lon="-0.83163">
        <ele>73.5</ele>
        <time>2022-08-11T12:02:14.474+02:00</time>
      </trkpt>
      <trkpt lat="45.50692" lon="-0.83168">
        <ele>71.9</ele>
        <time>2022-08-11T12:02:15.465+02:00</time>
      </trkpt>
      <trkpt lat="45.50682" lon="-0.83174">
        <ele>70.5</ele>
        <time>2022-08-11T12:02:16.488+02:00</time>
      </trkpt>
      <trkpt lat="45.50671" lon="-0.83179">
        <ele>68.9</ele>
        <time>2022-08-11T12:02:17.475+02:00</time>
      </trkpt>
      <trkpt lat="45.50661" lon="-0.83184">
        <ele>67.5</ele>
        <time>2022-08-11T12:02:18.476+02:00</time>
      </trkpt>
      <trkpt lat="45.5065" lon="-0.8319">
        <ele>66.1</ele>
        <time>2022-08-11T12:02:19.477+02:00</time>
      </trkpt>
      <trkpt lat="45.50639" lon="-0.83196">
        <ele>64.7</ele>
        <time>2022-08-11T12:02:20.472+02:00</time>
      </trkpt>
      <trkpt lat="45.50627" lon="-0.83202">
        <ele>63.4</ele>
        <time>2022-08-11T12:02:21.478+02:00</time>
      </trkpt>
      <trkpt lat="45.50616" lon="-0.83208">
        <ele>61.9</ele>
        <time>2022-08-11T12:02:22.473+02:00</time>
      </trkpt>
      <trkpt lat="45.50603" lon="-0.83215">
        <ele>60.5</ele>
        <time>2022-08-11T12:02:23.469+02:00</time>
      </trkpt>
      <trkpt lat="45.50591" lon="-0.83222">
        <ele>58.7</ele>
        <time>2022-08-11T12:02:24.483+02:00</time>
      </trkpt>
      <trkpt lat="45.50578" lon="-0.83229">
        <ele>57.3</ele>
        <time>2022-08-11T12:02:25.492+02:00</time>
      </trkpt>
      <trkpt lat="45.50567" lon="-0.83236">
        <ele>55.9</ele>
        <time>2022-08-11T12:02:26.469+02:00</time>
      </trkpt>
      <trkpt lat="45.50556" lon="-0.83243">
        <ele>58.8</ele>
        <time>2022-08-11T12:02:27.474+02:00</time>
      </trkpt>
      <trkpt lat="45.50546" lon="-0.83249">
        <ele>56.2</ele>
        <time>2022-08-11T12:02:28.472+02:00</time>
      </trkpt>
      <trkpt lat="45.50531" lon="-0.83258">
        <ele>53.2</ele>
        <time>2022-08-11T12:02:30.489+02:00</time>
      </trkpt>
      <trkpt lat="45.50519" lon="-0.83266">
        <ele>52.3</ele>
        <time>2022-08-11T12:02:32.471+02:00</time>
      </trkpt>
      <trkpt lat="45.50507" lon="-0.83274">
        <ele>51</ele>
        <time>2022-08-11T12:02:34.476+02:00</time>
      </trkpt>
      <trkpt lat="45.50495" lon="-0.83281">
        <ele>50.1</ele>
        <time>2022-08-11T12:02:36.477+02:00</time>
      </trkpt>
      <trkpt lat="45.50483" lon="-0.83288">
        <ele>48.8</ele>
        <time>2022-08-11T12:02:38.479+02:00</time>
      </trkpt>
      <trkpt lat="45.50469" lon="-0.83293">
        <ele>48.5</ele>
        <time>2022-08-11T12:02:40.472+02:00</time>
      </trkpt>
      <trkpt lat="45.50456" lon="-0.83293">
        <ele>47.9</ele>
        <time>2022-08-11T12:02:42.472+02:00</time>
      </trkpt>
      <trkpt lat="45.50446" lon="-0.83292">
        <ele>45.9</ele>
        <time>2022-08-11T12:02:44.463+02:00</time>
      </trkpt>
      <trkpt lat="45.50436" lon="-0.83293">
        <ele>45.6</ele>
        <time>2022-08-11T12:02:46.459+02:00</time>
      </trkpt>
      <trkpt lat="45.50426" lon="-0.83294">
        <ele>45.5</ele>
        <time>2022-08-11T12:02:48.454+02:00</time>
      </trkpt>
      <trkpt lat="45.50413" lon="-0.83294">
        <ele>45.4</ele>
        <time>2022-08-11T12:02:51.464+02:00</time>
      </trkpt>
      <trkpt lat="45.50403" lon="-0.83295">
        <ele>46.1</ele>
        <time>2022-08-11T12:02:54.468+02:00</time>
      </trkpt>
      <trkpt lat="45.50392" lon="-0.83297">
        <ele>46.8</ele>
        <time>2022-08-11T12:02:58.476+02:00</time>
      </trkpt>
      <trkpt lat="45.50383" lon="-0.83299">
        <ele>47.1</ele>
        <time>2022-08-11T12:03:01.478+02:00</time>
      </trkpt>
      <trkpt lat="45.50372" lon="-0.83298">
        <ele>46.3</ele>
        <time>2022-08-11T12:03:05.475+02:00</time>
      </trkpt>
      <trkpt lat="45.5038" lon="-0.83288">
        <ele>45.9</ele>
        <time>2022-08-11T12:03:10.458+02:00</time>
      </trkpt>
      <trkpt lat="45.50389" lon="-0.83285">
        <ele>46.4</ele>
        <time>2022-08-11T12:03:14.455+02:00</time>
      </trkpt>
      <trkpt lat="45.50401" lon="-0.8328">
        <ele>47.1</ele>
        <time>2022-08-11T12:03:18.475+02:00</time>
      </trkpt>
      <trkpt lat="45.50411" lon="-0.83274">
        <ele>47</ele>
        <time>2022-08-11T12:03:22.471+02:00</time>
      </trkpt>
      <trkpt lat="45.50421" lon="-0.83265">
        <ele>46.7</ele>
        <time>2022-08-11T12:03:26.471+02:00</time>
      </trkpt>
      <trkpt lat="45.50429" lon="-0.83257">
        <ele>46.6</ele>
        <time>2022-08-11T12:03:29.485+02:00</time>
      </trkpt>
      <trkpt lat="45.50437" lon="-0.83249">
        <ele>46.8</ele>
        <time>2022-08-11T12:03:32.472+02:00</time>
      </trkpt>
      <trkpt lat="45.50445" lon="-0.83241">
        <ele>46.7</ele>
        <time>2022-08-11T12:03:35.467+02:00</time>
      </trkpt>
      <trkpt lat="45.50454" lon="-0.83232">
        <ele>46.9</ele>
        <time>2022-08-11T12:03:38.471+02:00</time>
      </trkpt>
      <trkpt lat="45.50462" lon="-0.83224">
        <ele>46.9</ele>
        <time>2022-08-11T12:03:41.478+02:00</time>
      </trkpt>
      <trkpt lat="45.50471" lon="-0.83215">
        <ele>47</ele>
        <time>2022-08-11T12:03:44.48+02:00</time>
      </trkpt>
      <trkpt lat="45.50479" lon="-0.83207">
        <ele>47</ele>
        <time>2022-08-11T12:03:47.479+02:00</time>
      </trkpt>
      <trkpt lat="45.50487" lon="-0.83198">
        <ele>47.1</ele>
        <time>2022-08-11T12:03:50.478+02:00</time>
      </trkpt>
      <trkpt lat="45.50495" lon="-0.83189">
        <ele>47.4</ele>
        <time>2022-08-11T12:03:53.485+02:00</time>
      </trkpt>
      <trkpt lat="45.50503" lon="-0.83181">
        <ele>46.7</ele>
        <time>2022-08-11T12:03:56.458+02:00</time>
      </trkpt>
      <trkpt lat="45.50511" lon="-0.83174">
        <ele>47</ele>
        <time>2022-08-11T12:03:59.477+02:00</time>
      </trkpt>
      <trkpt lat="45.5052" lon="-0.83163">
        <ele>46.9</ele>
        <time>2022-08-11T12:04:03.476+02:00</time>
      </trkpt>
      <trkpt lat="45.50529" lon="-0.83152">
        <ele>47</ele>
        <time>2022-08-11T12:04:07.47+02:00</time>
      </trkpt>
      <trkpt lat="45.50536" lon="-0.83139">
        <ele>55.3</ele>
        <time>2022-08-11T12:04:11.474+02:00</time>
      </trkpt>
      <trkpt lat="45.50542" lon="-0.83127">
        <ele>49</ele>
        <time>2022-08-11T12:04:14.475+02:00</time>
      </trkpt>
      <trkpt lat="45.5055" lon="-0.83115">
        <ele>46.6</ele>
        <time>2022-08-11T12:04:17.467+02:00</time>
      </trkpt>
      <trkpt lat="45.50558" lon="-0.83103">
        <ele>45.9</ele>
        <time>2022-08-11T12:04:20.476+02:00</time>
      </trkpt>
      <trkpt lat="45.50566" lon="-0.8309">
        <ele>45.6</ele>
        <time>2022-08-11T12:04:23.477+02:00</time>
      </trkpt>
      <trkpt lat="45.50573" lon="-0.83076">
        <ele>45.4</ele>
        <time>2022-08-11T12:04:26.478+02:00</time>
      </trkpt>
      <trkpt lat="45.5058" lon="-0.8306">
        <ele>45.4</ele>
        <time>2022-08-11T12:04:29.483+02:00</time>
      </trkpt>
      <trkpt lat="45.50586" lon="-0.83045">
        <ele>45.2</ele>
        <time>2022-08-11T12:04:32.467+02:00</time>
      </trkpt>
      <trkpt lat="45.50592" lon="-0.83029">
        <ele>45.1</ele>
        <time>2022-08-11T12:04:35.476+02:00</time>
      </trkpt>
      <trkpt lat="45.50597" lon="-0.83014">
        <ele>45.4</ele>
        <time>2022-08-11T12:04:38.476+02:00</time>
      </trkpt>
      <trkpt lat="45.50601" lon="-0.82999">
        <ele>44.9</ele>
        <time>2022-08-11T12:04:41.482+02:00</time>
      </trkpt>
      <trkpt lat="45.50606" lon="-0.82985">
        <ele>44.8</ele>
        <time>2022-08-11T12:04:44.475+02:00</time>
      </trkpt>
      <trkpt lat="45.5061" lon="-0.8297">
        <ele>44.8</ele>
        <time>2022-08-11T12:04:47.48+02:00</time>
      </trkpt>
      <trkpt lat="45.50615" lon="-0.82956">
        <ele>45</ele>
        <time>2022-08-11T12:04:50.474+02:00</time>
      </trkpt>
      <trkpt lat="45.5062" lon="-0.82942">
        <ele>45</ele>
        <time>2022-08-11T12:04:53.477+02:00</time>
      </trkpt>
      <trkpt lat="45.50624" lon="-0.82927">
        <ele>45.3</ele>
        <time>2022-08-11T12:04:56.475+02:00</time>
      </trkpt>
      <trkpt lat="45.50625" lon="-0.82911">
        <ele>45.3</ele>
        <time>2022-08-11T12:04:59.474+02:00</time>
      </trkpt>
      <trkpt lat="45.50619" lon="-0.82896">
        <ele>45.5</ele>
        <time>2022-08-11T12:05:02.47+02:00</time>
      </trkpt>
      <trkpt lat="45.50611" lon="-0.82884">
        <ele>45.6</ele>
        <time>2022-08-11T12:05:05.48+02:00</time>
      </trkpt>
      <trkpt lat="45.50603" lon="-0.82873">
        <ele>45.6</ele>
        <time>2022-08-11T12:05:08.476+02:00</time>
      </trkpt>
      <trkpt lat="45.50595" lon="-0.82862">
        <ele>45.6</ele>
        <time>2022-08-11T12:05:11.479+02:00</time>
      </trkpt>
      <trkpt lat="45.50587" lon="-0.82851">
        <ele>45.4</ele>
        <time>2022-08-11T12:05:14.473+02:00</time>
      </trkpt>
      <trkpt lat="45.5058" lon="-0.8284">
        <ele>45.9</ele>
        <time>2022-08-11T12:05:17.479+02:00</time>
      </trkpt>
      <trkpt lat="45.50571" lon="-0.82828">
        <ele>46.2</ele>
        <time>2022-08-11T12:05:20.477+02:00</time>
      </trkpt>
      <trkpt lat="45.50563" lon="-0.82817">
        <ele>46.1</ele>
        <time>2022-08-11T12:05:23.479+02:00</time>
      </trkpt>
      <trkpt lat="45.50556" lon="-0.82805">
        <ele>45.9</ele>
        <time>2022-08-11T12:05:26.472+02:00</time>
      </trkpt>
      <trkpt lat="45.50549" lon="-0.82794">
        <ele>45.6</ele>
        <time>2022-08-11T12:05:29.472+02:00</time>
      </trkpt>
      <trkpt lat="45.50541" lon="-0.82783">
        <ele>45.8</ele>
        <time>2022-08-11T12:05:32.469+02:00</time>
      </trkpt>
      <trkpt lat="45.50533" lon="-0.82772">
        <ele>45.5</ele>
        <time>2022-08-11T12:05:35.472+02:00</time>
      </trkpt>
      <trkpt lat="45.50525" lon="-0.8276">
        <ele>45.8</ele>
        <time>2022-08-11T12:05:38.477+02:00</time>
      </trkpt>
      <trkpt lat="45.50517" lon="-0.82749">
        <ele>45.7</ele>
        <time>2022-08-11T12:05:41.477+02:00</time>
      </trkpt>
      <trkpt lat="45.50511" lon="-0.82738">
        <ele>45.6</ele>
        <time>2022-08-11T12:05:44.473+02:00</time>
      </trkpt>
      <trkpt lat="45.50509" lon="-0.82723">
        <ele>45.8</ele>
        <time>2022-08-11T12:05:47.474+02:00</time>
      </trkpt>
      <trkpt lat="45.50512" lon="-0.82707">
        <ele>45.5</ele>
        <time>2022-08-11T12:05:50.467+02:00</time>
      </trkpt>
      <trkpt lat="45.50517" lon="-0.82692">
        <ele>45.4</ele>
        <time>2022-08-11T12:05:53.476+02:00</time>
      </trkpt>
      <trkpt lat="45.50522" lon="-0.82676">
        <ele>45.1</ele>
        <time>2022-08-11T12:05:56.476+02:00</time>
      </trkpt>
      <trkpt lat="45.50527" lon="-0.82661">
        <ele>45</ele>
        <time>2022-08-11T12:05:59.483+02:00</time>
      </trkpt>
      <trkpt lat="45.50532" lon="-0.82646">
        <ele>44.9</ele>
        <time>2022-08-11T12:06:02.477+02:00</time>
      </trkpt>
      <trkpt lat="45.50536" lon="-0.8263">
        <ele>44.7</ele>
        <time>2022-08-11T12:06:05.48+02:00</time>
      </trkpt>
      <trkpt lat="45.50541" lon="-0.82614">
        <ele>44.2</ele>
        <time>2022-08-11T12:06:08.48+02:00</time>
      </trkpt>
      <trkpt lat="45.50546" lon="-0.82598">
        <ele>44.5</ele>
        <time>2022-08-11T12:06:11.486+02:00</time>
      </trkpt>
      <trkpt lat="45.50551" lon="-0.82581">
        <ele>44.5</ele>
        <time>2022-08-11T12:06:14.48+02:00</time>
      </trkpt>
      <trkpt lat="45.50556" lon="-0.82565">
        <ele>44.2</ele>
        <time>2022-08-11T12:06:17.474+02:00</time>
      </trkpt>
      <trkpt lat="45.50561" lon="-0.82549">
        <ele>43.8</ele>
        <time>2022-08-11T12:06:20.477+02:00</time>
      </trkpt>
      <trkpt lat="45.50566" lon="-0.82532">
        <ele>43.9</ele>
        <time>2022-08-11T12:06:23.476+02:00</time>
      </trkpt>
      <trkpt lat="45.5057" lon="-0.82515">
        <ele>44.3</ele>
        <time>2022-08-11T12:06:26.478+02:00</time>
      </trkpt>
      <trkpt lat="45.50575" lon="-0.82501">
        <ele>44.4</ele>
        <time>2022-08-11T12:06:29.471+02:00</time>
      </trkpt>
      <trkpt lat="45.50579" lon="-0.82486">
        <ele>44.1</ele>
        <time>2022-08-11T12:06:32.467+02:00</time>
      </trkpt>
      <trkpt lat="45.50584" lon="-0.82471">
        <ele>43.6</ele>
        <time>2022-08-11T12:06:36.482+02:00</time>
      </trkpt>
      <trkpt lat="45.50586" lon="-0.82458">
        <ele>43</ele>
        <time>2022-08-11T12:06:39.479+02:00</time>
      </trkpt>
      <trkpt lat="45.50584" lon="-0.82444">
        <ele>43.1</ele>
        <time>2022-08-11T12:06:42.454+02:00</time>
      </trkpt>
      <trkpt lat="45.50579" lon="-0.8243">
        <ele>43.6</ele>
        <time>2022-08-11T12:06:45.48+02:00</time>
      </trkpt>
      <trkpt lat="45.50574" lon="-0.82416">
        <ele>44.2</ele>
        <time>2022-08-11T12:06:48.477+02:00</time>
      </trkpt>
      <trkpt lat="45.5057" lon="-0.82402">
        <ele>44.2</ele>
        <time>2022-08-11T12:06:51.487+02:00</time>
      </trkpt>
      <trkpt lat="45.50566" lon="-0.82387">
        <ele>44.1</ele>
        <time>2022-08-11T12:06:54.473+02:00</time>
      </trkpt>
      <trkpt lat="45.50563" lon="-0.82372">
        <ele>44.4</ele>
        <time>2022-08-11T12:06:57.476+02:00</time>
      </trkpt>
      <trkpt lat="45.50559" lon="-0.82357">
        <ele>44.9</ele>
        <time>2022-08-11T12:07:00.476+02:00</time>
      </trkpt>
      <trkpt lat="45.50555" lon="-0.82341">
        <ele>45.5</ele>
        <time>2022-08-11T12:07:03.47+02:00</time>
      </trkpt>
      <trkpt lat="45.50551" lon="-0.82325">
        <ele>45.2</ele>
        <time>2022-08-11T12:07:06.475+02:00</time>
      </trkpt>
      <trkpt lat="45.50548" lon="-0.82308">
        <ele>45</ele>
        <time>2022-08-11T12:07:09.476+02:00</time>
      </trkpt>
      <trkpt lat="45.50546" lon="-0.82291">
        <ele>45.4</ele>
        <time>2022-08-11T12:07:12.459+02:00</time>
      </trkpt>
      <trkpt lat="45.50544" lon="-0.82273">
        <ele>45.2</ele>
        <time>2022-08-11T12:07:15.477+02:00</time>
      </trkpt>
      <trkpt lat="45.50543" lon="-0.82255">
        <ele>45.6</ele>
        <time>2022-08-11T12:07:18.476+02:00</time>
      </trkpt>
      <trkpt lat="45.50542" lon="-0.82237">
        <ele>45.5</ele>
        <time>2022-08-11T12:07:21.489+02:00</time>
      </trkpt>
      <trkpt lat="45.50541" lon="-0.8222">
        <ele>45.2</ele>
        <time>2022-08-11T12:07:24.471+02:00</time>
      </trkpt>
      <trkpt lat="45.50541" lon="-0.82204">
        <ele>45.5</ele>
        <time>2022-08-11T12:07:27.476+02:00</time>
      </trkpt>
      <trkpt lat="45.50541" lon="-0.82187">
        <ele>45.6</ele>
        <time>2022-08-11T12:07:30.472+02:00</time>
      </trkpt>
      <trkpt lat="45.5054" lon="-0.82171">
        <ele>45.9</ele>
        <time>2022-08-11T12:07:33.473+02:00</time>
      </trkpt>
      <trkpt lat="45.5054" lon="-0.82155">
        <ele>46</ele>
        <time>2022-08-11T12:07:36.484+02:00</time>
      </trkpt>
      <trkpt lat="45.5054" lon="-0.82139">
        <ele>46.1</ele>
        <time>2022-08-11T12:07:39.477+02:00</time>
      </trkpt>
      <trkpt lat="45.50541" lon="-0.82124">
        <ele>46.7</ele>
        <time>2022-08-11T12:07:42.466+02:00</time>
      </trkpt>
      <trkpt lat="45.50541" lon="-0.82109">
        <ele>46.5</ele>
        <time>2022-08-11T12:07:45.483+02:00</time>
      </trkpt>
      <trkpt lat="45.50541" lon="-0.82095">
        <ele>46.7</ele>
        <time>2022-08-11T12:07:48.474+02:00</time>
      </trkpt>
      <trkpt lat="45.50541" lon="-0.82081">
        <ele>47.4</ele>
        <time>2022-08-11T12:07:51.472+02:00</time>
      </trkpt>
      <trkpt lat="45.50541" lon="-0.82065">
        <ele>47.8</ele>
        <time>2022-08-11T12:07:54.465+02:00</time>
      </trkpt>
      <trkpt lat="45.50541" lon="-0.8205">
        <ele>48.1</ele>
        <time>2022-08-11T12:07:57.479+02:00</time>
      </trkpt>
      <trkpt lat="45.5054" lon="-0.82033">
        <ele>48.4</ele>
        <time>2022-08-11T12:08:00.477+02:00</time>
      </trkpt>
      <trkpt lat="45.5054" lon="-0.82017">
        <ele>48.4</ele>
        <time>2022-08-11T12:08:03.474+02:00</time>
      </trkpt>
      <trkpt lat="45.50541" lon="-0.82001">
        <ele>48.4</ele>
        <time>2022-08-11T12:08:06.474+02:00</time>
      </trkpt>
      <trkpt lat="45.50541" lon="-0.81986">
        <ele>48.2</ele>
        <time>2022-08-11T12:08:09.482+02:00</time>
      </trkpt>
      <trkpt lat="45.50542" lon="-0.81972">
        <ele>48.3</ele>
        <time>2022-08-11T12:08:12.477+02:00</time>
      </trkpt>
      <trkpt lat="45.50543" lon="-0.81957">
        <ele>48.4</ele>
        <time>2022-08-11T12:08:15.477+02:00</time>
      </trkpt>
      <trkpt lat="45.50544" lon="-0.81942">
        <ele>52.1</ele>
        <time>2022-08-11T12:08:18.476+02:00</time>
      </trkpt>
      <trkpt lat="45.50545" lon="-0.81927">
        <ele>50.2</ele>
        <time>2022-08-11T12:08:21.481+02:00</time>
      </trkpt>
      <trkpt lat="45.50546" lon="-0.81913">
        <ele>49.5</ele>
        <time>2022-08-11T12:08:24.468+02:00</time>
      </trkpt>
      <trkpt lat="45.50547" lon="-0.81899">
        <ele>49.1</ele>
        <time>2022-08-11T12:08:27.475+02:00</time>
      </trkpt>
      <trkpt lat="45.50548" lon="-0.81883">
        <ele>49.3</ele>
        <time>2022-08-11T12:08:30.475+02:00</time>
      </trkpt>
      <trkpt lat="45.50549" lon="-0.81868">
        <ele>49.3</ele>
        <time>2022-08-11T12:08:33.473+02:00</time>
      </trkpt>
      <trkpt lat="45.5055" lon="-0.81852">
        <ele>49.2</ele>
        <time>2022-08-11T12:08:36.475+02:00</time>
      </trkpt>
      <trkpt lat="45.50551" lon="-0.81836">
        <ele>49.3</ele>
        <time>2022-08-11T12:08:39.481+02:00</time>
      </trkpt>
      <trkpt lat="45.50552" lon="-0.81821">
        <ele>49.4</ele>
        <time>2022-08-11T12:08:42.472+02:00</time>
      </trkpt>
      <trkpt lat="45.50552" lon="-0.81806">
        <ele>49.3</ele>
        <time>2022-08-11T12:08:45.481+02:00</time>
      </trkpt>
      <trkpt lat="45.50552" lon="-0.81791">
        <ele>49.3</ele>
        <time>2022-08-11T12:08:48.466+02:00</time>
      </trkpt>
      <trkpt lat="45.50551" lon="-0.81776">
        <ele>49.1</ele>
        <time>2022-08-11T12:08:51.479+02:00</time>
      </trkpt>
      <trkpt lat="45.50551" lon="-0.81761">
        <ele>49.2</ele>
        <time>2022-08-11T12:08:54.477+02:00</time>
      </trkpt>
      <trkpt lat="45.5055" lon="-0.81746">
        <ele>49.3</ele>
        <time>2022-08-11T12:08:57.477+02:00</time>
      </trkpt>
      <trkpt lat="45.50549" lon="-0.81731">
        <ele>49.2</ele>
        <time>2022-08-11T12:09:00.473+02:00</time>
      </trkpt>
      <trkpt lat="45.50548" lon="-0.81717">
        <ele>49.3</ele>
        <time>2022-08-11T12:09:03.479+02:00</time>
      </trkpt>
      <trkpt lat="45.50548" lon="-0.81702">
        <ele>49.3</ele>
        <time>2022-08-11T12:09:06.481+02:00</time>
      </trkpt>
      <trkpt lat="45.50547" lon="-0.81686">
        <ele>49.1</ele>
        <time>2022-08-11T12:09:09.485+02:00</time>
      </trkpt>
      <trkpt lat="45.50547" lon="-0.81671">
        <ele>49</ele>
        <time>2022-08-11T12:09:12.464+02:00</time>
      </trkpt>
      <trkpt lat="45.50546" lon="-0.81654">
        <ele>48.9</ele>
        <time>2022-08-11T12:09:15.475+02:00</time>
      </trkpt>
      <trkpt lat="45.50547" lon="-0.81638">
        <ele>48.5</ele>
        <time>2022-08-11T12:09:18.477+02:00</time>
      </trkpt>
      <trkpt lat="45.50547" lon="-0.81623">
        <ele>48.7</ele>
        <time>2022-08-11T12:09:21.475+02:00</time>
      </trkpt>
      <trkpt lat="45.50549" lon="-0.81607">
        <ele>49</ele>
        <time>2022-08-11T12:09:24.474+02:00</time>
      </trkpt>
      <trkpt lat="45.50551" lon="-0.81591">
        <ele>49.3</ele>
        <time>2022-08-11T12:09:27.476+02:00</time>
      </trkpt>
      <trkpt lat="45.50553" lon="-0.81574">
        <ele>49.3</ele>
        <time>2022-08-11T12:09:30.482+02:00</time>
      </trkpt>
      <trkpt lat="45.50555" lon="-0.81558">
        <ele>49.1</ele>
        <time>2022-08-11T12:09:33.485+02:00</time>
      </trkpt>
      <trkpt lat="45.50557" lon="-0.81542">
        <ele>48.8</ele>
        <time>2022-08-11T12:09:36.478+02:00</time>
      </trkpt>
      <trkpt lat="45.50558" lon="-0.81526">
        <ele>49.1</ele>
        <time>2022-08-11T12:09:39.475+02:00</time>
      </trkpt>
      <trkpt lat="45.50559" lon="-0.81512">
        <ele>49.5</ele>
        <time>2022-08-11T12:09:42.466+02:00</time>
      </trkpt>
      <trkpt lat="45.50561" lon="-0.81497">
        <ele>49.8</ele>
        <time>2022-08-11T12:09:45.476+02:00</time>
      </trkpt>
      <trkpt lat="45.50562" lon="-0.81484">
        <ele>50.3</ele>
        <time>2022-08-11T12:09:48.477+02:00</time>
      </trkpt>
      <trkpt lat="45.50563" lon="-0.81467">
        <ele>50.4</ele>
        <time>2022-08-11T12:09:52.466+02:00</time>
      </trkpt>
      <trkpt lat="45.50565" lon="-0.81451">
        <ele>50.7</ele>
        <time>2022-08-11T12:09:56.48+02:00</time>
      </trkpt>
      <trkpt lat="45.50567" lon="-0.81435">
        <ele>50.8</ele>
        <time>2022-08-11T12:10:00.479+02:00</time>
      </trkpt>
      <trkpt lat="45.50569" lon="-0.8142">
        <ele>51.1</ele>
        <time>2022-08-11T12:10:04.478+02:00</time>
      </trkpt>
      <trkpt lat="45.50571" lon="-0.81404">
        <ele>51.4</ele>
        <time>2022-08-11T12:10:08.473+02:00</time>
      </trkpt>
      <trkpt lat="45.50572" lon="-0.81388">
        <ele>51.9</ele>
        <time>2022-08-11T12:10:12.459+02:00</time>
      </trkpt>
      <trkpt lat="45.50574" lon="-0.81371">
        <ele>52</ele>
        <time>2022-08-11T12:10:16.469+02:00</time>
      </trkpt>
      <trkpt lat="45.50575" lon="-0.81357">
        <ele>51.2</ele>
        <time>2022-08-11T12:10:19.471+02:00</time>
      </trkpt>
      <trkpt lat="45.50576" lon="-0.81343">
        <ele>51.5</ele>
        <time>2022-08-11T12:10:22.452+02:00</time>
      </trkpt>
      <trkpt lat="45.50578" lon="-0.81328">
        <ele>51.8</ele>
        <time>2022-08-11T12:10:25.471+02:00</time>
      </trkpt>
      <trkpt lat="45.50579" lon="-0.81312">
        <ele>51.9</ele>
        <time>2022-08-11T12:10:28.473+02:00</time>
      </trkpt>
      <trkpt lat="45.5058" lon="-0.81297">
        <ele>51.9</ele>
        <time>2022-08-11T12:10:31.473+02:00</time>
      </trkpt>
      <trkpt lat="45.50582" lon="-0.81282">
        <ele>51.8</ele>
        <time>2022-08-11T12:10:34.476+02:00</time>
      </trkpt>
      <trkpt lat="45.50583" lon="-0.81266">
        <ele>51.9</ele>
        <time>2022-08-11T12:10:37.485+02:00</time>
      </trkpt>
      <trkpt lat="45.50584" lon="-0.81248">
        <ele>52.7</ele>
        <time>2022-08-11T12:10:40.486+02:00</time>
      </trkpt>
      <trkpt lat="45.50585" lon="-0.81231">
        <ele>51.8</ele>
        <time>2022-08-11T12:10:43.469+02:00</time>
      </trkpt>
      <trkpt lat="45.50584" lon="-0.81214">
        <ele>51.8</ele>
        <time>2022-08-11T12:10:46.467+02:00</time>
      </trkpt>
      <trkpt lat="45.50584" lon="-0.81198">
        <ele>51.8</ele>
        <time>2022-08-11T12:10:49.473+02:00</time>
      </trkpt>
      <trkpt lat="45.50583" lon="-0.81183">
        <ele>52</ele>
        <time>2022-08-11T12:10:52.474+02:00</time>
      </trkpt>
      <trkpt lat="45.50584" lon="-0.81168">
        <ele>51.6</ele>
        <time>2022-08-11T12:10:55.48+02:00</time>
      </trkpt>
      <trkpt lat="45.50585" lon="-0.81151">
        <ele>52</ele>
        <time>2022-08-11T12:10:58.472+02:00</time>
      </trkpt>
      <trkpt lat="45.50587" lon="-0.81134">
        <ele>51.8</ele>
        <time>2022-08-11T12:11:01.472+02:00</time>
      </trkpt>
      <trkpt lat="45.50589" lon="-0.81119">
        <ele>51.7</ele>
        <time>2022-08-11T12:11:04.475+02:00</time>
      </trkpt>
      <trkpt lat="45.50591" lon="-0.81104">
        <ele>51.6</ele>
        <time>2022-08-11T12:11:07.473+02:00</time>
      </trkpt>
      <trkpt lat="45.50594" lon="-0.81091">
        <ele>52</ele>
        <time>2022-08-11T12:11:10.476+02:00</time>
      </trkpt>
      <trkpt lat="45.50596" lon="-0.81075">
        <ele>51.9</ele>
        <time>2022-08-11T12:11:14.474+02:00</time>
      </trkpt>
      <trkpt lat="45.5059" lon="-0.81061">
        <ele>51.1</ele>
        <time>2022-08-11T12:11:18.48+02:00</time>
      </trkpt>
      <trkpt lat="45.50577" lon="-0.81056">
        <ele>50</ele>
        <time>2022-08-11T12:11:21.486+02:00</time>
      </trkpt>
      <trkpt lat="45.50567" lon="-0.81057">
        <ele>49.7</ele>
        <time>2022-08-11T12:11:23.464+02:00</time>
      </trkpt>
      <trkpt lat="45.50558" lon="-0.81054">
        <ele>49.7</ele>
        <time>2022-08-11T12:11:25.473+02:00</time>
      </trkpt>
      <trkpt lat="45.50549" lon="-0.8105">
        <ele>49.5</ele>
        <time>2022-08-11T12:11:27.475+02:00</time>
      </trkpt>
      <trkpt lat="45.50539" lon="-0.81047">
        <ele>49.5</ele>
        <time>2022-08-11T12:11:29.476+02:00</time>
      </trkpt>
      <trkpt lat="45.50529" lon="-0.81043">
        <ele>49.8</ele>
        <time>2022-08-11T12:11:31.484+02:00</time>
      </trkpt>
      <trkpt lat="45.50519" lon="-0.81041">
        <ele>50.5</ele>
        <time>2022-08-11T12:11:33.467+02:00</time>
      </trkpt>
      <trkpt lat="45.5051" lon="-0.81041">
        <ele>50.6</ele>
        <time>2022-08-11T12:11:35.475+02:00</time>
      </trkpt>
      <trkpt lat="45.50502" lon="-0.81049">
        <ele>50.1</ele>
        <time>2022-08-11T12:11:37.474+02:00</time>
      </trkpt>
      <trkpt lat="45.50496" lon="-0.81061">
        <ele>50.2</ele>
        <time>2022-08-11T12:11:39.478+02:00</time>
      </trkpt>
      <trkpt lat="45.5049" lon="-0.81072">
        <ele>50.3</ele>
        <time>2022-08-11T12:11:41.482+02:00</time>
      </trkpt>
      <trkpt lat="45.50484" lon="-0.81085">
        <ele>50.4</ele>
        <time>2022-08-11T12:11:43.469+02:00</time>
      </trkpt>
      <trkpt lat="45.50479" lon="-0.81097">
        <ele>49.7</ele>
        <time>2022-08-11T12:11:45.475+02:00</time>
      </trkpt>
      <trkpt lat="45.50473" lon="-0.81109">
        <ele>49.2</ele>
        <time>2022-08-11T12:11:47.475+02:00</time>
      </trkpt>
      <trkpt lat="45.50467" lon="-0.81121">
        <ele>49</ele>
        <time>2022-08-11T12:11:49.476+02:00</time>
      </trkpt>
      <trkpt lat="45.50461" lon="-0.81132">
        <ele>49.2</ele>
        <time>2022-08-11T12:11:51.475+02:00</time>
      </trkpt>
      <trkpt lat="45.50456" lon="-0.81144">
        <ele>49.3</ele>
        <time>2022-08-11T12:11:53.469+02:00</time>
      </trkpt>
      <trkpt lat="45.5045" lon="-0.81159">
        <ele>49.7</ele>
        <time>2022-08-11T12:11:56.489+02:00</time>
      </trkpt>
      <trkpt lat="45.50444" lon="-0.81173">
        <ele>49.5</ele>
        <time>2022-08-11T12:11:59.477+02:00</time>
      </trkpt>
      <trkpt lat="45.5044" lon="-0.81187">
        <ele>49.4</ele>
        <time>2022-08-11T12:12:02.479+02:00</time>
      </trkpt>
      <trkpt lat="45.50435" lon="-0.81204">
        <ele>48.7</ele>
        <time>2022-08-11T12:12:05.483+02:00</time>
      </trkpt>
      <trkpt lat="45.50429" lon="-0.81214">
        <ele>48.8</ele>
        <time>2022-08-11T12:12:07.481+02:00</time>
      </trkpt>
      <trkpt lat="45.50423" lon="-0.81224">
        <ele>48.5</ele>
        <time>2022-08-11T12:12:09.483+02:00</time>
      </trkpt>
      <trkpt lat="45.50414" lon="-0.81238">
        <ele>48.2</ele>
        <time>2022-08-11T12:12:12.481+02:00</time>
      </trkpt>
      <trkpt lat="45.50407" lon="-0.81247">
        <ele>48.1</ele>
        <time>2022-08-11T12:12:14.479+02:00</time>
      </trkpt>
      <trkpt lat="45.50399" lon="-0.81255">
        <ele>48.2</ele>
        <time>2022-08-11T12:12:16.486+02:00</time>
      </trkpt>
      <trkpt lat="45.50391" lon="-0.81262">
        <ele>48</ele>
        <time>2022-08-11T12:12:18.483+02:00</time>
      </trkpt>
      <trkpt lat="45.50384" lon="-0.81271">
        <ele>47.6</ele>
        <time>2022-08-11T12:12:20.486+02:00</time>
      </trkpt>
      <trkpt lat="45.50376" lon="-0.81279">
        <ele>47.8</ele>
        <time>2022-08-11T12:12:22.475+02:00</time>
      </trkpt>
      <trkpt lat="45.50369" lon="-0.81289">
        <ele>48.4</ele>
        <time>2022-08-11T12:12:24.48+02:00</time>
      </trkpt>
      <trkpt lat="45.50362" lon="-0.81301">
        <ele>48.5</ele>
        <time>2022-08-11T12:12:26.469+02:00</time>
      </trkpt>
      <trkpt lat="45.50356" lon="-0.81312">
        <ele>48.4</ele>
        <time>2022-08-11T12:12:28.474+02:00</time>
      </trkpt>
      <trkpt lat="45.50348" lon="-0.81323">
        <ele>48</ele>
        <time>2022-08-11T12:12:30.481+02:00</time>
      </trkpt>
      <trkpt lat="45.5034" lon="-0.81332">
        <ele>47.9</ele>
        <time>2022-08-11T12:12:32.47+02:00</time>
      </trkpt>
      <trkpt lat="45.50332" lon="-0.8134">
        <ele>48</ele>
        <time>2022-08-11T12:12:34.483+02:00</time>
      </trkpt>
      <trkpt lat="45.50324" lon="-0.81347">
        <ele>47.7</ele>
        <time>2022-08-11T12:12:36.482+02:00</time>
      </trkpt>
      <trkpt lat="45.50312" lon="-0.81358">
        <ele>47.8</ele>
        <time>2022-08-11T12:12:39.475+02:00</time>
      </trkpt>
      <trkpt lat="45.50305" lon="-0.81368">
        <ele>47.8</ele>
        <time>2022-08-11T12:12:41.484+02:00</time>
      </trkpt>
      <trkpt lat="45.503" lon="-0.81378">
        <ele>47.9</ele>
        <time>2022-08-11T12:12:43.467+02:00</time>
      </trkpt>
      <trkpt lat="45.50295" lon="-0.81389">
        <ele>48</ele>
        <time>2022-08-11T12:12:45.484+02:00</time>
      </trkpt>
      <trkpt lat="45.50291" lon="-0.81401">
        <ele>48.2</ele>
        <time>2022-08-11T12:12:47.48+02:00</time>
      </trkpt>
      <trkpt lat="45.50287" lon="-0.81412">
        <ele>48.7</ele>
        <time>2022-08-11T12:12:49.487+02:00</time>
      </trkpt>
      <trkpt lat="45.50283" lon="-0.81424">
        <ele>48.9</ele>
        <time>2022-08-11T12:12:51.479+02:00</time>
      </trkpt>
      <trkpt lat="45.50276" lon="-0.8144">
        <ele>49.2</ele>
        <time>2022-08-11T12:12:54.48+02:00</time>
      </trkpt>
      <trkpt lat="45.50269" lon="-0.81456">
        <ele>49.1</ele>
        <time>2022-08-11T12:12:57.47+02:00</time>
      </trkpt>
      <trkpt lat="45.50262" lon="-0.81472">
        <ele>49</ele>
        <time>2022-08-11T12:13:00.483+02:00</time>
      </trkpt>
      <trkpt lat="45.50255" lon="-0.81487">
        <ele>49</ele>
        <time>2022-08-11T12:13:03.474+02:00</time>
      </trkpt>
      <trkpt lat="45.50247" lon="-0.81502">
        <ele>49.2</ele>
        <time>2022-08-11T12:13:06.481+02:00</time>
      </trkpt>
      <trkpt lat="45.5024" lon="-0.81517">
        <ele>49.6</ele>
        <time>2022-08-11T12:13:09.47+02:00</time>
      </trkpt>
      <trkpt lat="45.50233" lon="-0.81531">
        <ele>49.7</ele>
        <time>2022-08-11T12:13:12.478+02:00</time>
      </trkpt>
      <trkpt lat="45.50228" lon="-0.81545">
        <ele>49.8</ele>
        <time>2022-08-11T12:13:15.476+02:00</time>
      </trkpt>
      <trkpt lat="45.50223" lon="-0.81558">
        <ele>50.2</ele>
        <time>2022-08-11T12:13:18.472+02:00</time>
      </trkpt>
      <trkpt lat="45.50218" lon="-0.81571">
        <ele>50.9</ele>
        <time>2022-08-11T12:13:21.474+02:00</time>
      </trkpt>
      <trkpt lat="45.50213" lon="-0.81583">
        <ele>51.4</ele>
        <time>2022-08-11T12:13:24.485+02:00</time>
      </trkpt>
      <trkpt lat="45.50208" lon="-0.81596">
        <ele>51.8</ele>
        <time>2022-08-11T12:13:27.479+02:00</time>
      </trkpt>
      <trkpt lat="45.50203" lon="-0.81609">
        <ele>52.6</ele>
        <time>2022-08-11T12:13:30.48+02:00</time>
      </trkpt>
      <trkpt lat="45.50198" lon="-0.81622">
        <ele>52.3</ele>
        <time>2022-08-11T12:13:33.474+02:00</time>
      </trkpt>
      <trkpt lat="45.50193" lon="-0.81633">
        <ele>53.1</ele>
        <time>2022-08-11T12:13:36.477+02:00</time>
      </trkpt>
      <trkpt lat="45.50188" lon="-0.81647">
        <ele>54.1</ele>
        <time>2022-08-11T12:13:40.48+02:00</time>
      </trkpt>
      <trkpt lat="45.50183" lon="-0.81659">
        <ele>54.7</ele>
        <time>2022-08-11T12:13:44.477+02:00</time>
      </trkpt>
      <trkpt lat="45.50178" lon="-0.81671">
        <ele>55.5</ele>
        <time>2022-08-11T12:13:48.479+02:00</time>
      </trkpt>
      <trkpt lat="45.50173" lon="-0.81682">
        <ele>56.5</ele>
        <time>2022-08-11T12:13:52.472+02:00</time>
      </trkpt>
      <trkpt lat="45.50167" lon="-0.81696">
        <ele>57.2</ele>
        <time>2022-08-11T12:13:57.48+02:00</time>
      </trkpt>
      <trkpt lat="45.50161" lon="-0.81709">
        <ele>57.8</ele>
        <time>2022-08-11T12:14:02.476+02:00</time>
      </trkpt>
      <trkpt lat="45.50155" lon="-0.81722">
        <ele>58.1</ele>
        <time>2022-08-11T12:14:07.482+02:00</time>
      </trkpt>
      <trkpt lat="45.50148" lon="-0.81734">
        <ele>58.6</ele>
        <time>2022-08-11T12:14:12.482+02:00</time>
      </trkpt>
      <trkpt lat="45.50141" lon="-0.81745">
        <ele>58.9</ele>
        <time>2022-08-11T12:14:17.477+02:00</time>
      </trkpt>
      <trkpt lat="45.50134" lon="-0.81755">
        <ele>59</ele>
        <time>2022-08-11T12:14:22.476+02:00</time>
      </trkpt>
      <trkpt lat="45.50128" lon="-0.81766">
        <ele>59</ele>
        <time>2022-08-11T12:14:27.482+02:00</time>
      </trkpt>
      <trkpt lat="45.5012" lon="-0.81778">
        <ele>59.8</ele>
        <time>2022-08-11T12:14:32.478+02:00</time>
      </trkpt>
      <trkpt lat="45.50112" lon="-0.81788">
        <ele>60.6</ele>
        <time>2022-08-11T12:14:36.474+02:00</time>
      </trkpt>
      <trkpt lat="45.50104" lon="-0.81798">
        <ele>61.3</ele>
        <time>2022-08-11T12:14:40.481+02:00</time>
      </trkpt>
      <trkpt lat="45.50096" lon="-0.81809">
        <ele>61.3</ele>
        <time>2022-08-11T12:14:44.475+02:00</time>
      </trkpt>
      <trkpt lat="45.50088" lon="-0.8182">
        <ele>62</ele>
        <time>2022-08-11T12:14:48.481+02:00</time>
      </trkpt>
      <trkpt lat="45.50079" lon="-0.81831">
        <ele>62.3</ele>
        <time>2022-08-11T12:14:52.481+02:00</time>
      </trkpt>
      <trkpt lat="45.50071" lon="-0.81842">
        <ele>63</ele>
        <time>2022-08-11T12:14:56.479+02:00</time>
      </trkpt>
      <trkpt lat="45.50064" lon="-0.8185">
        <ele>63.2</ele>
        <time>2022-08-11T12:14:59.475+02:00</time>
      </trkpt>
      <trkpt lat="45.50055" lon="-0.81861">
        <ele>64</ele>
        <time>2022-08-11T12:15:03.468+02:00</time>
      </trkpt>
      <trkpt lat="45.50048" lon="-0.8187">
        <ele>64.2</ele>
        <time>2022-08-11T12:15:06.475+02:00</time>
      </trkpt>
      <trkpt lat="45.50042" lon="-0.8188">
        <ele>65.1</ele>
        <time>2022-08-11T12:15:09.476+02:00</time>
      </trkpt>
      <trkpt lat="45.50036" lon="-0.8189">
        <ele>65.9</ele>
        <time>2022-08-11T12:15:12.471+02:00</time>
      </trkpt>
      <trkpt lat="45.50029" lon="-0.81904">
        <ele>66.7</ele>
        <time>2022-08-11T12:15:16.466+02:00</time>
      </trkpt>
      <trkpt lat="45.50023" lon="-0.81917">
        <ele>67.7</ele>
        <time>2022-08-11T12:15:20.477+02:00</time>
      </trkpt>
      <trkpt lat="45.50016" lon="-0.8193">
        <ele>68.1</ele>
        <time>2022-08-11T12:15:24.48+02:00</time>
      </trkpt>
      <trkpt lat="45.50011" lon="-0.81941">
        <ele>68.5</ele>
        <time>2022-08-11T12:15:27.472+02:00</time>
      </trkpt>
      <trkpt lat="45.50004" lon="-0.81951">
        <ele>68.9</ele>
        <time>2022-08-11T12:15:30.48+02:00</time>
      </trkpt>
      <trkpt lat="45.49996" lon="-0.81961">
        <ele>69.2</ele>
        <time>2022-08-11T12:15:33.472+02:00</time>
      </trkpt>
      <trkpt lat="45.49988" lon="-0.81968">
        <ele>69.6</ele>
        <time>2022-08-11T12:15:36.482+02:00</time>
      </trkpt>
      <trkpt lat="45.4998" lon="-0.81974">
        <ele>70.4</ele>
        <time>2022-08-11T12:15:39.478+02:00</time>
      </trkpt>
      <trkpt lat="45.49971" lon="-0.81978">
        <ele>71.4</ele>
        <time>2022-08-11T12:15:42.472+02:00</time>
      </trkpt>
      <trkpt lat="45.49961" lon="-0.81982">
        <ele>72.4</ele>
        <time>2022-08-11T12:15:46.475+02:00</time>
      </trkpt>
      <trkpt lat="45.4995" lon="-0.81984">
        <ele>73.5</ele>
        <time>2022-08-11T12:15:52.469+02:00</time>
      </trkpt>
      <trkpt lat="45.49943" lon="-0.81972">
        <ele>74.6</ele>
        <time>2022-08-11T12:15:57.481+02:00</time>
      </trkpt>
      <trkpt lat="45.49939" lon="-0.81959">
        <ele>75.2</ele>
        <time>2022-08-11T12:16:01.482+02:00</time>
      </trkpt>
      <trkpt lat="45.49935" lon="-0.81946">
        <ele>75.5</ele>
        <time>2022-08-11T12:16:04.477+02:00</time>
      </trkpt>
      <trkpt lat="45.4993" lon="-0.81933">
        <ele>76.1</ele>
        <time>2022-08-11T12:16:07.487+02:00</time>
      </trkpt>
      <trkpt lat="45.49924" lon="-0.81919">
        <ele>76.1</ele>
        <time>2022-08-11T12:16:10.48+02:00</time>
      </trkpt>
      <trkpt lat="45.49917" lon="-0.81907">
        <ele>76.1</ele>
        <time>2022-08-11T12:16:13.465+02:00</time>
      </trkpt>
      <trkpt lat="45.4991" lon="-0.81897">
        <ele>76.2</ele>
        <time>2022-08-11T12:16:16.476+02:00</time>
      </trkpt>
      <trkpt lat="45.49903" lon="-0.81888">
        <ele>76.6</ele>
        <time>2022-08-11T12:16:19.476+02:00</time>
      </trkpt>
      <trkpt lat="45.49897" lon="-0.81878">
        <ele>76.8</ele>
        <time>2022-08-11T12:16:22.477+02:00</time>
      </trkpt>
      <trkpt lat="45.4989" lon="-0.81869">
        <ele>77.2</ele>
        <time>2022-08-11T12:16:25.48+02:00</time>
      </trkpt>
      <trkpt lat="45.49884" lon="-0.81858">
        <ele>77.1</ele>
        <time>2022-08-11T12:16:28.48+02:00</time>
      </trkpt>
      <trkpt lat="45.49877" lon="-0.81849">
        <ele>76.9</ele>
        <time>2022-08-11T12:16:31.469+02:00</time>
      </trkpt>
      <trkpt lat="45.49871" lon="-0.81838">
        <ele>77.2</ele>
        <time>2022-08-11T12:16:34.472+02:00</time>
      </trkpt>
      <trkpt lat="45.49865" lon="-0.81827">
        <ele>79.6</ele>
        <time>2022-08-11T12:16:37.483+02:00</time>
      </trkpt>
      <trkpt lat="45.49858" lon="-0.81816">
        <ele>78.4</ele>
        <time>2022-08-11T12:16:40.486+02:00</time>
      </trkpt>
      <trkpt lat="45.49851" lon="-0.81806">
        <ele>78.6</ele>
        <time>2022-08-11T12:16:43.458+02:00</time>
      </trkpt>
      <trkpt lat="45.49842" lon="-0.81797">
        <ele>78.7</ele>
        <time>2022-08-11T12:16:46.458+02:00</time>
      </trkpt>
      <trkpt lat="45.49833" lon="-0.8179">
        <ele>79</ele>
        <time>2022-08-11T12:16:49.477+02:00</time>
      </trkpt>
      <trkpt lat="45.49824" lon="-0.81784">
        <ele>79.3</ele>
        <time>2022-08-11T12:16:52.472+02:00</time>
      </trkpt>
      <trkpt lat="45.49814" lon="-0.81778">
        <ele>79.7</ele>
        <time>2022-08-11T12:16:55.478+02:00</time>
      </trkpt>
      <trkpt lat="45.49805" lon="-0.81772">
        <ele>80.4</ele>
        <time>2022-08-11T12:16:58.475+02:00</time>
      </trkpt>
      <trkpt lat="45.49796" lon="-0.81767">
        <ele>80.2</ele>
        <time>2022-08-11T12:17:01.475+02:00</time>
      </trkpt>
      <trkpt lat="45.49787" lon="-0.8176">
        <ele>80.2</ele>
        <time>2022-08-11T12:17:04.477+02:00</time>
      </trkpt>
      <trkpt lat="45.49778" lon="-0.81754">
        <ele>79.9</ele>
        <time>2022-08-11T12:17:07.472+02:00</time>
      </trkpt>
      <trkpt lat="45.4977" lon="-0.81747">
        <ele>80.3</ele>
        <time>2022-08-11T12:17:10.48+02:00</time>
      </trkpt>
      <trkpt lat="45.4976" lon="-0.81739">
        <ele>79.2</ele>
        <time>2022-08-11T12:17:14.471+02:00</time>
      </trkpt>
      <trkpt lat="45.4975" lon="-0.81728">
        <ele>78.9</ele>
        <time>2022-08-11T12:17:18.478+02:00</time>
      </trkpt>
      <trkpt lat="45.49744" lon="-0.81718">
        <ele>78.3</ele>
        <time>2022-08-11T12:17:21.479+02:00</time>
      </trkpt>
      <trkpt lat="45.49737" lon="-0.81704">
        <ele>79.2</ele>
        <time>2022-08-11T12:17:25.478+02:00</time>
      </trkpt>
      <trkpt lat="45.49734" lon="-0.8169">
        <ele>81.1</ele>
        <time>2022-08-11T12:17:28.472+02:00</time>
      </trkpt>
      <trkpt lat="45.49732" lon="-0.81675">
        <ele>82.4</ele>
        <time>2022-08-11T12:17:31.476+02:00</time>
      </trkpt>
      <trkpt lat="45.49729" lon="-0.81661">
        <ele>83.1</ele>
        <time>2022-08-11T12:17:34.484+02:00</time>
      </trkpt>
      <trkpt lat="45.49725" lon="-0.81647">
        <ele>83.6</ele>
        <time>2022-08-11T12:17:37.481+02:00</time>
      </trkpt>
      <trkpt lat="45.49721" lon="-0.81634">
        <ele>84.3</ele>
        <time>2022-08-11T12:17:40.475+02:00</time>
      </trkpt>
      <trkpt lat="45.49716" lon="-0.81623">
        <ele>85.4</ele>
        <time>2022-08-11T12:17:43.48+02:00</time>
      </trkpt>
      <trkpt lat="45.49709" lon="-0.8161">
        <ele>86.3</ele>
        <time>2022-08-11T12:17:47.472+02:00</time>
      </trkpt>
      <trkpt lat="45.49703" lon="-0.81601">
        <ele>87.2</ele>
        <time>2022-08-11T12:17:52.455+02:00</time>
      </trkpt>
      <trkpt lat="45.49706" lon="-0.81588">
        <ele>86.3</ele>
        <time>2022-08-11T12:18:03.463+02:00</time>
      </trkpt>
      <trkpt lat="45.49714" lon="-0.8158">
        <ele>85.9</ele>
        <time>2022-08-11T12:18:09.45+02:00</time>
      </trkpt>
      <trkpt lat="45.49723" lon="-0.81571">
        <ele>87.3</ele>
        <time>2022-08-11T12:18:14.476+02:00</time>
      </trkpt>
      <trkpt lat="45.49731" lon="-0.81561">
        <ele>84.7</ele>
        <time>2022-08-11T12:18:18.476+02:00</time>
      </trkpt>
      <trkpt lat="45.49727" lon="-0.81549">
        <ele>85.9</ele>
        <time>2022-08-11T12:18:21.477+02:00</time>
      </trkpt>
      <trkpt lat="45.49718" lon="-0.81537">
        <ele>87.8</ele>
        <time>2022-08-11T12:18:24.477+02:00</time>
      </trkpt>
      <trkpt lat="45.49711" lon="-0.81527">
        <ele>88.9</ele>
        <time>2022-08-11T12:18:27.477+02:00</time>
      </trkpt>
      <trkpt lat="45.49713" lon="-0.81511">
        <ele>89</ele>
        <time>2022-08-11T12:18:31.48+02:00</time>
      </trkpt>
      <trkpt lat="45.49724" lon="-0.81503">
        <ele>87.7</ele>
        <time>2022-08-11T12:18:34.473+02:00</time>
      </trkpt>
      <trkpt lat="45.49733" lon="-0.81497">
        <ele>87.7</ele>
        <time>2022-08-11T12:18:36.472+02:00</time>
      </trkpt>
      <trkpt lat="45.49741" lon="-0.81491">
        <ele>87.9</ele>
        <time>2022-08-11T12:18:38.48+02:00</time>
      </trkpt>
      <trkpt lat="45.49747" lon="-0.8148">
        <ele>86.8</ele>
        <time>2022-08-11T12:18:41.484+02:00</time>
      </trkpt>
      <trkpt lat="45.49747" lon="-0.81464">
        <ele>88</ele>
        <time>2022-08-11T12:18:44.477+02:00</time>
      </trkpt>
      <trkpt lat="45.49746" lon="-0.81448">
        <ele>90.9</ele>
        <time>2022-08-11T12:18:47.48+02:00</time>
      </trkpt>
      <trkpt lat="45.49746" lon="-0.81434">
        <ele>88</ele>
        <time>2022-08-11T12:18:50.475+02:00</time>
      </trkpt>
      <trkpt lat="45.4974" lon="-0.81421">
        <ele>89.6</ele>
        <time>2022-08-11T12:18:54.477+02:00</time>
      </trkpt>
      <trkpt lat="45.49737" lon="-0.81405">
        <ele>87.7</ele>
        <time>2022-08-11T12:18:57.479+02:00</time>
      </trkpt>
      <trkpt lat="45.49733" lon="-0.81394">
        <ele>88.8</ele>
        <time>2022-08-11T12:18:59.48+02:00</time>
      </trkpt>
      <trkpt lat="45.49728" lon="-0.81383">
        <ele>89.7</ele>
        <time>2022-08-11T12:19:01.476+02:00</time>
      </trkpt>
      <trkpt lat="45.49721" lon="-0.81367">
        <ele>90.6</ele>
        <time>2022-08-11T12:19:04.479+02:00</time>
      </trkpt>
      <trkpt lat="45.49715" lon="-0.81351">
        <ele>90.4</ele>
        <time>2022-08-11T12:19:07.478+02:00</time>
      </trkpt>
      <trkpt lat="45.49709" lon="-0.81336">
        <ele>89.4</ele>
        <time>2022-08-11T12:19:10.473+02:00</time>
      </trkpt>
      <trkpt lat="45.49703" lon="-0.81323">
        <ele>89.7</ele>
        <time>2022-08-11T12:19:13.466+02:00</time>
      </trkpt>
      <trkpt lat="45.49697" lon="-0.8131">
        <ele>90</ele>
        <time>2022-08-11T12:19:16.474+02:00</time>
      </trkpt>
      <trkpt lat="45.49693" lon="-0.81296">
        <ele>90.4</ele>
        <time>2022-08-11T12:19:19.477+02:00</time>
      </trkpt>
      <trkpt lat="45.49687" lon="-0.81282">
        <ele>80.9</ele>
        <time>2022-08-11T12:19:22.471+02:00</time>
      </trkpt>
      <trkpt lat="45.49681" lon="-0.81267">
        <ele>87.5</ele>
        <time>2022-08-11T12:19:25.48+02:00</time>
      </trkpt>
      <trkpt lat="45.49673" lon="-0.81251">
        <ele>89.2</ele>
        <time>2022-08-11T12:19:28.474+02:00</time>
      </trkpt>
      <trkpt lat="45.49666" lon="-0.81237">
        <ele>89.7</ele>
        <time>2022-08-11T12:19:31.465+02:00</time>
      </trkpt>
      <trkpt lat="45.49658" lon="-0.81223">
        <ele>90.2</ele>
        <time>2022-08-11T12:19:34.484+02:00</time>
      </trkpt>
      <trkpt lat="45.4965" lon="-0.8121">
        <ele>89.5</ele>
        <time>2022-08-11T12:19:37.479+02:00</time>
      </trkpt>
      <trkpt lat="45.49639" lon="-0.81202">
        <ele>89.9</ele>
        <time>2022-08-11T12:19:40.481+02:00</time>
      </trkpt>
      <trkpt lat="45.49628" lon="-0.81197">
        <ele>89.6</ele>
        <time>2022-08-11T12:19:43.465+02:00</time>
      </trkpt>
      <trkpt lat="45.49618" lon="-0.81191">
        <ele>89.4</ele>
        <time>2022-08-11T12:19:46.477+02:00</time>
      </trkpt>
      <trkpt lat="45.49607" lon="-0.81186">
        <ele>89.7</ele>
        <time>2022-08-11T12:19:49.482+02:00</time>
      </trkpt>
      <trkpt lat="45.49597" lon="-0.8118">
        <ele>89.9</ele>
        <time>2022-08-11T12:19:52.48+02:00</time>
      </trkpt>
      <trkpt lat="45.49588" lon="-0.81171">
        <ele>90.2</ele>
        <time>2022-08-11T12:19:55.476+02:00</time>
      </trkpt>
      <trkpt lat="45.4958" lon="-0.81161">
        <ele>90.4</ele>
        <time>2022-08-11T12:19:58.48+02:00</time>
      </trkpt>
      <trkpt lat="45.49573" lon="-0.81152">
        <ele>90.6</ele>
        <time>2022-08-11T12:20:01.48+02:00</time>
      </trkpt>
      <trkpt lat="45.49566" lon="-0.81141">
        <ele>91.5</ele>
        <time>2022-08-11T12:20:04.477+02:00</time>
      </trkpt>
      <trkpt lat="45.49559" lon="-0.81133">
        <ele>91.8</ele>
        <time>2022-08-11T12:20:07.474+02:00</time>
      </trkpt>
      <trkpt lat="45.49552" lon="-0.81122">
        <ele>91.9</ele>
        <time>2022-08-11T12:20:11.481+02:00</time>
      </trkpt>
      <trkpt lat="45.49541" lon="-0.81121">
        <ele>92.1</ele>
        <time>2022-08-11T12:20:16.477+02:00</time>
      </trkpt>
      <trkpt lat="45.49533" lon="-0.81128">
        <ele>92.6</ele>
        <time>2022-08-11T12:20:20.488+02:00</time>
      </trkpt>
      <trkpt lat="45.49525" lon="-0.81136">
        <ele>90.1</ele>
        <time>2022-08-11T12:20:24.464+02:00</time>
      </trkpt>
      <trkpt lat="45.49517" lon="-0.81143">
        <ele>93.1</ele>
        <time>2022-08-11T12:20:28.457+02:00</time>
      </trkpt>
      <trkpt lat="45.49509" lon="-0.8115">
        <ele>94</ele>
        <time>2022-08-11T12:20:32.484+02:00</time>
      </trkpt>
      <trkpt lat="45.49501" lon="-0.81159">
        <ele>95</ele>
        <time>2022-08-11T12:20:37.479+02:00</time>
      </trkpt>
      <trkpt lat="45.49493" lon="-0.81168">
        <ele>94.9</ele>
        <time>2022-08-11T12:20:42.48+02:00</time>
      </trkpt>
      <trkpt lat="45.49484" lon="-0.8116">
        <ele>93.8</ele>
        <time>2022-08-11T12:20:50.459+02:00</time>
      </trkpt>
      <trkpt lat="45.4948" lon="-0.81146">
        <ele>93.2</ele>
        <time>2022-08-11T12:20:55.464+02:00</time>
      </trkpt>
      <trkpt lat="45.49476" lon="-0.81131">
        <ele>93.2</ele>
        <time>2022-08-11T12:21:00.476+02:00</time>
      </trkpt>
      <trkpt lat="45.49472" lon="-0.81118">
        <ele>93</ele>
        <time>2022-08-11T12:21:04.474+02:00</time>
      </trkpt>
      <trkpt lat="45.49468" lon="-0.81103">
        <ele>93</ele>
        <time>2022-08-11T12:21:08.476+02:00</time>
      </trkpt>
      <trkpt lat="45.49467" lon="-0.81087">
        <ele>92.2</ele>
        <time>2022-08-11T12:21:12.473+02:00</time>
      </trkpt>
      <trkpt lat="45.49467" lon="-0.81073">
        <ele>91.4</ele>
        <time>2022-08-11T12:21:15.474+02:00</time>
      </trkpt>
      <trkpt lat="45.49466" lon="-0.81059">
        <ele>91.2</ele>
        <time>2022-08-11T12:21:18.477+02:00</time>
      </trkpt>
      <trkpt lat="45.49465" lon="-0.81044">
        <ele>91.1</ele>
        <time>2022-08-11T12:21:21.476+02:00</time>
      </trkpt>
      <trkpt lat="45.49464" lon="-0.81027">
        <ele>91.1</ele>
        <time>2022-08-11T12:21:24.478+02:00</time>
      </trkpt>
      <trkpt lat="45.49467" lon="-0.81014">
        <ele>90.9</ele>
        <time>2022-08-11T12:21:26.475+02:00</time>
      </trkpt>
      <trkpt lat="45.49471" lon="-0.81001">
        <ele>90.5</ele>
        <time>2022-08-11T12:21:28.477+02:00</time>
      </trkpt>
      <trkpt lat="45.49477" lon="-0.8099">
        <ele>89.9</ele>
        <time>2022-08-11T12:21:30.474+02:00</time>
      </trkpt>
      <trkpt lat="45.49483" lon="-0.80979">
        <ele>82.9</ele>
        <time>2022-08-11T12:21:32.481+02:00</time>
      </trkpt>
      <trkpt lat="45.49489" lon="-0.80967">
        <ele>85.2</ele>
        <time>2022-08-11T12:21:34.485+02:00</time>
      </trkpt>
      <trkpt lat="45.49494" lon="-0.80954">
        <ele>86.2</ele>
        <time>2022-08-11T12:21:36.475+02:00</time>
      </trkpt>
      <trkpt lat="45.49496" lon="-0.8094">
        <ele>86.7</ele>
        <time>2022-08-11T12:21:38.481+02:00</time>
      </trkpt>
      <trkpt lat="45.49495" lon="-0.80926">
        <ele>87.1</ele>
        <time>2022-08-11T12:21:40.481+02:00</time>
      </trkpt>
      <trkpt lat="45.49493" lon="-0.80913">
        <ele>86.9</ele>
        <time>2022-08-11T12:21:42.48+02:00</time>
      </trkpt>
      <trkpt lat="45.4949" lon="-0.80899">
        <ele>86.7</ele>
        <time>2022-08-11T12:21:44.476+02:00</time>
      </trkpt>
      <trkpt lat="45.49487" lon="-0.80885">
        <ele>86.2</ele>
        <time>2022-08-11T12:21:46.475+02:00</time>
      </trkpt>
      <trkpt lat="45.49484" lon="-0.80871">
        <ele>86.3</ele>
        <time>2022-08-11T12:21:48.464+02:00</time>
      </trkpt>
      <trkpt lat="45.4948" lon="-0.80858">
        <ele>86.5</ele>
        <time>2022-08-11T12:21:50.479+02:00</time>
      </trkpt>
      <trkpt lat="45.49478" lon="-0.80846">
        <ele>86.4</ele>
        <time>2022-08-11T12:21:52.474+02:00</time>
      </trkpt>
      <trkpt lat="45.49477" lon="-0.80832">
        <ele>86.4</ele>
        <time>2022-08-11T12:21:54.472+02:00</time>
      </trkpt>
      <trkpt lat="45.49477" lon="-0.80818">
        <ele>80.7</ele>
        <time>2022-08-11T12:21:56.482+02:00</time>
      </trkpt>
      <trkpt lat="45.49478" lon="-0.80804">
        <ele>83.6</ele>
        <time>2022-08-11T12:21:58.486+02:00</time>
      </trkpt>
      <trkpt lat="45.49477" lon="-0.80791">
        <ele>85.4</ele>
        <time>2022-08-11T12:22:00.481+02:00</time>
      </trkpt>
      <trkpt lat="45.49472" lon="-0.80775">
        <ele>85.7</ele>
        <time>2022-08-11T12:22:03.462+02:00</time>
      </trkpt>
      <trkpt lat="45.49467" lon="-0.80762">
        <ele>85.8</ele>
        <time>2022-08-11T12:22:06.48+02:00</time>
      </trkpt>
      <trkpt lat="45.49464" lon="-0.80749">
        <ele>86.6</ele>
        <time>2022-08-11T12:22:09.477+02:00</time>
      </trkpt>
      <trkpt lat="45.49462" lon="-0.80733">
        <ele>86.8</ele>
        <time>2022-08-11T12:22:13.461+02:00</time>
      </trkpt>
      <trkpt lat="45.49462" lon="-0.80717">
        <ele>88.3</ele>
        <time>2022-08-11T12:22:17.48+02:00</time>
      </trkpt>
      <trkpt lat="45.4946" lon="-0.80705">
        <ele>89.5</ele>
        <time>2022-08-11T12:22:21.48+02:00</time>
      </trkpt>
      <trkpt lat="45.49454" lon="-0.8069">
        <ele>90.1</ele>
        <time>2022-08-11T12:22:26.478+02:00</time>
      </trkpt>
      <trkpt lat="45.49445" lon="-0.80681">
        <ele>88.9</ele>
        <time>2022-08-11T12:22:31.481+02:00</time>
      </trkpt>
      <trkpt lat="45.49436" lon="-0.80676">
        <ele>86.7</ele>
        <time>2022-08-11T12:22:35.48+02:00</time>
      </trkpt>
      <trkpt lat="45.49427" lon="-0.80667">
        <ele>87.4</ele>
        <time>2022-08-11T12:22:39.482+02:00</time>
      </trkpt>
      <trkpt lat="45.49418" lon="-0.80658">
        <ele>88.8</ele>
        <time>2022-08-11T12:22:43.471+02:00</time>
      </trkpt>
      <trkpt lat="45.49409" lon="-0.80652">
        <ele>88.1</ele>
        <time>2022-08-11T12:22:47.476+02:00</time>
      </trkpt>
      <trkpt lat="45.494" lon="-0.80643">
        <ele>89</ele>
        <time>2022-08-11T12:22:51.472+02:00</time>
      </trkpt>
      <trkpt lat="45.4939" lon="-0.80635">
        <ele>88.9</ele>
        <time>2022-08-11T12:22:55.482+02:00</time>
      </trkpt>
      <trkpt lat="45.49382" lon="-0.80626">
        <ele>89.2</ele>
        <time>2022-08-11T12:22:59.484+02:00</time>
      </trkpt>
      <trkpt lat="45.49373" lon="-0.80615">
        <ele>90.7</ele>
        <time>2022-08-11T12:23:03.459+02:00</time>
      </trkpt>
      <trkpt lat="45.49366" lon="-0.80606">
        <ele>89.1</ele>
        <time>2022-08-11T12:23:07.463+02:00</time>
      </trkpt>
      <trkpt lat="45.49358" lon="-0.80595">
        <ele>90.8</ele>
        <time>2022-08-11T12:23:11.479+02:00</time>
      </trkpt>
      <trkpt lat="45.4935" lon="-0.80585">
        <ele>88.2</ele>
        <time>2022-08-11T12:23:15.475+02:00</time>
      </trkpt>
      <trkpt lat="45.49342" lon="-0.80576">
        <ele>89.9</ele>
        <time>2022-08-11T12:23:19.476+02:00</time>
      </trkpt>
      <trkpt lat="45.49335" lon="-0.80565">
        <ele>85.3</ele>
        <time>2022-08-11T12:23:23.467+02:00</time>
      </trkpt>
      <trkpt lat="45.49328" lon="-0.80553">
        <ele>89.8</ele>
        <time>2022-08-11T12:23:27.474+02:00</time>
      </trkpt>
      <trkpt lat="45.49322" lon="-0.80541">
        <ele>91.2</ele>
        <time>2022-08-11T12:23:30.479+02:00</time>
      </trkpt>
      <trkpt lat="45.49314" lon="-0.80531">
        <ele>92</ele>
        <time>2022-08-11T12:23:33.472+02:00</time>
      </trkpt>
      <trkpt lat="45.49307" lon="-0.8052">
        <ele>91.5</ele>
        <time>2022-08-11T12:23:36.473+02:00</time>
      </trkpt>
      <trkpt lat="45.49299" lon="-0.80509">
        <ele>91.1</ele>
        <time>2022-08-11T12:23:39.477+02:00</time>
      </trkpt>
      <trkpt lat="45.49292" lon="-0.80498">
        <ele>90.2</ele>
        <time>2022-08-11T12:23:43.467+02:00</time>
      </trkpt>
      <trkpt lat="45.4929" lon="-0.80495">
        <ele>90.4</ele>
        <time>2022-08-11T12:23:45.481+02:00</time>
      </trkpt>
      <trkpt lat="45.4929" lon="-0.80495">
        <ele>90.7</ele>
        <time>2022-08-11T12:23:46.47+02:00</time>
      </trkpt>
      <trkpt lat="45.49291" lon="-0.80496">
        <ele>90.9</ele>
        <time>2022-08-11T12:23:57.469+02:00</time>
      </trkpt>
      <trkpt lat="45.49291" lon="-0.80495">
        <ele>90.9</ele>
        <time>2022-08-11T12:23:58.471+02:00</time>
      </trkpt>
      <trkpt lat="45.49284" lon="-0.80493">
        <ele>91</ele>
        <time>2022-08-11T12:24:03.469+02:00</time>
      </trkpt>
      <trkpt lat="45.49284" lon="-0.80493">
        <ele>91.2</ele>
        <time>2022-08-11T12:24:04.471+02:00</time>
      </trkpt>
      <trkpt lat="45.49284" lon="-0.80493">
        <ele>90.4</ele>
        <time>2022-08-11T12:24:21.485+02:00</time>
      </trkpt>
      <trkpt lat="45.49283" lon="-0.80493">
        <ele>90.5</ele>
        <time>2022-08-11T12:24:22.468+02:00</time>
      </trkpt>
      <trkpt lat="45.49281" lon="-0.80505">
        <ele>90.2</ele>
        <time>2022-08-11T12:24:29.485+02:00</time>
      </trkpt>
      <trkpt lat="45.49274" lon="-0.80518">
        <ele>89.6</ele>
        <time>2022-08-11T12:24:33.476+02:00</time>
      </trkpt>
      <trkpt lat="45.49266" lon="-0.8053">
        <ele>89.6</ele>
        <time>2022-08-11T12:24:37.477+02:00</time>
      </trkpt>
      <trkpt lat="45.49258" lon="-0.8054">
        <ele>89.7</ele>
        <time>2022-08-11T12:24:40.478+02:00</time>
      </trkpt>
      <trkpt lat="45.49247" lon="-0.80546">
        <ele>89</ele>
        <time>2022-08-11T12:24:43.473+02:00</time>
      </trkpt>
      <trkpt lat="45.49238" lon="-0.8055">
        <ele>88.9</ele>
        <time>2022-08-11T12:24:45.48+02:00</time>
      </trkpt>
      <trkpt lat="45.49229" lon="-0.80553">
        <ele>88.6</ele>
        <time>2022-08-11T12:24:47.479+02:00</time>
      </trkpt>
      <trkpt lat="45.4922" lon="-0.80557">
        <ele>88.7</ele>
        <time>2022-08-11T12:24:49.491+02:00</time>
      </trkpt>
      <trkpt lat="45.49209" lon="-0.80565">
        <ele>89.4</ele>
        <time>2022-08-11T12:24:52.483+02:00</time>
      </trkpt>
      <trkpt lat="45.49198" lon="-0.80574">
        <ele>89.6</ele>
        <time>2022-08-11T12:24:55.474+02:00</time>
      </trkpt>
      <trkpt lat="45.49189" lon="-0.80583">
        <ele>90.5</ele>
        <time>2022-08-11T12:24:58.476+02:00</time>
      </trkpt>
      <trkpt lat="45.4918" lon="-0.80591">
        <ele>91.1</ele>
        <time>2022-08-11T12:25:01.477+02:00</time>
      </trkpt>
      <trkpt lat="45.49173" lon="-0.80601">
        <ele>91.7</ele>
        <time>2022-08-11T12:25:04.478+02:00</time>
      </trkpt>
      <trkpt lat="45.49164" lon="-0.80608">
        <ele>92.3</ele>
        <time>2022-08-11T12:25:07.471+02:00</time>
      </trkpt>
      <trkpt lat="45.49157" lon="-0.80617">
        <ele>92.7</ele>
        <time>2022-08-11T12:25:11.474+02:00</time>
      </trkpt>
      <trkpt lat="45.49149" lon="-0.80626">
        <ele>92.3</ele>
        <time>2022-08-11T12:25:16.464+02:00</time>
      </trkpt>
      <trkpt lat="45.49141" lon="-0.80636">
        <ele>92.2</ele>
        <time>2022-08-11T12:25:21.462+02:00</time>
      </trkpt>
      <trkpt lat="45.49132" lon="-0.80643">
        <ele>92.5</ele>
        <time>2022-08-11T12:25:25.455+02:00</time>
      </trkpt>
      <trkpt lat="45.49124" lon="-0.80652">
        <ele>92.6</ele>
        <time>2022-08-11T12:25:29.477+02:00</time>
      </trkpt>
      <trkpt lat="45.49117" lon="-0.80659">
        <ele>92.6</ele>
        <time>2022-08-11T12:25:33.468+02:00</time>
      </trkpt>
      <trkpt lat="45.49109" lon="-0.80667">
        <ele>92.8</ele>
        <time>2022-08-11T12:25:37.479+02:00</time>
      </trkpt>
      <trkpt lat="45.49101" lon="-0.80674">
        <ele>92.9</ele>
        <time>2022-08-11T12:25:41.467+02:00</time>
      </trkpt>
      <trkpt lat="45.49091" lon="-0.80683">
        <ele>92.7</ele>
        <time>2022-08-11T12:25:45.483+02:00</time>
      </trkpt>
      <trkpt lat="45.49084" lon="-0.8069">
        <ele>92.8</ele>
        <time>2022-08-11T12:25:48.476+02:00</time>
      </trkpt>
      <trkpt lat="45.49076" lon="-0.80698">
        <ele>92.6</ele>
        <time>2022-08-11T12:25:51.473+02:00</time>
      </trkpt>
      <trkpt lat="45.49068" lon="-0.80706">
        <ele>92.5</ele>
        <time>2022-08-11T12:25:54.47+02:00</time>
      </trkpt>
      <trkpt lat="45.49059" lon="-0.80714">
        <ele>92.5</ele>
        <time>2022-08-11T12:25:57.479+02:00</time>
      </trkpt>
      <trkpt lat="45.4905" lon="-0.80722">
        <ele>92.2</ele>
        <time>2022-08-11T12:26:00.45+02:00</time>
      </trkpt>
      <trkpt lat="45.49041" lon="-0.80731">
        <ele>91.9</ele>
        <time>2022-08-11T12:26:03.463+02:00</time>
      </trkpt>
      <trkpt lat="45.49032" lon="-0.8074">
        <ele>92.3</ele>
        <time>2022-08-11T12:26:06.459+02:00</time>
      </trkpt>
      <trkpt lat="45.49022" lon="-0.8075">
        <ele>92.1</ele>
        <time>2022-08-11T12:26:09.46+02:00</time>
      </trkpt>
      <trkpt lat="45.49012" lon="-0.80761">
        <ele>91.9</ele>
        <time>2022-08-11T12:26:12.46+02:00</time>
      </trkpt>
      <trkpt lat="45.49002" lon="-0.80772">
        <ele>91.8</ele>
        <time>2022-08-11T12:26:15.457+02:00</time>
      </trkpt>
      <trkpt lat="45.48992" lon="-0.80783">
        <ele>91.7</ele>
        <time>2022-08-11T12:26:18.458+02:00</time>
      </trkpt>
      <trkpt lat="45.48983" lon="-0.80794">
        <ele>92</ele>
        <time>2022-08-11T12:26:21.46+02:00</time>
      </trkpt>
      <trkpt lat="45.48975" lon="-0.80808">
        <ele>91.8</ele>
        <time>2022-08-11T12:26:24.459+02:00</time>
      </trkpt>
      <trkpt lat="45.48975" lon="-0.80824">
        <ele>92</ele>
        <time>2022-08-11T12:26:27.464+02:00</time>
      </trkpt>
      <trkpt lat="45.4898" lon="-0.80837">
        <ele>92</ele>
        <time>2022-08-11T12:26:30.456+02:00</time>
      </trkpt>
      <trkpt lat="45.48987" lon="-0.8085">
        <ele>91.9</ele>
        <time>2022-08-11T12:26:34.457+02:00</time>
      </trkpt>
      <trkpt lat="45.4899" lon="-0.80863">
        <ele>92.1</ele>
        <time>2022-08-11T12:26:39.461+02:00</time>
      </trkpt>
      <trkpt lat="45.48996" lon="-0.80874">
        <ele>92.6</ele>
        <time>2022-08-11T12:26:44.455+02:00</time>
      </trkpt>
      <trkpt lat="45.49004" lon="-0.80884">
        <ele>93.7</ele>
        <time>2022-08-11T12:26:49.454+02:00</time>
      </trkpt>
      <trkpt lat="45.49012" lon="-0.80894">
        <ele>94</ele>
        <time>2022-08-11T12:26:54.453+02:00</time>
      </trkpt>
      <trkpt lat="45.49019" lon="-0.80903">
        <ele>93.9</ele>
        <time>2022-08-11T12:26:59.458+02:00</time>
      </trkpt>
      <trkpt lat="45.49026" lon="-0.80913">
        <ele>94.2</ele>
        <time>2022-08-11T12:27:04.454+02:00</time>
      </trkpt>
      <trkpt lat="45.49033" lon="-0.80922">
        <ele>94.4</ele>
        <time>2022-08-11T12:27:08.461+02:00</time>
      </trkpt>
      <trkpt lat="45.49041" lon="-0.80932">
        <ele>94.9</ele>
        <time>2022-08-11T12:27:12.462+02:00</time>
      </trkpt>
      <trkpt lat="45.49049" lon="-0.80941">
        <ele>95</ele>
        <time>2022-08-11T12:27:16.459+02:00</time>
      </trkpt>
      <trkpt lat="45.49056" lon="-0.80949">
        <ele>95</ele>
        <time>2022-08-11T12:27:22.47+02:00</time>
      </trkpt>
      <trkpt lat="45.49056" lon="-0.80949">
        <ele>95.1</ele>
        <time>2022-08-11T12:27:23.471+02:00</time>
      </trkpt>
      <trkpt lat="45.49056" lon="-0.80949">
        <ele>92.7</ele>
        <time>2022-08-11T12:27:30.477+02:00</time>
      </trkpt>
      <trkpt lat="45.49056" lon="-0.8095">
        <ele>93.6</ele>
        <time>2022-08-11T12:27:31.46+02:00</time>
      </trkpt>
      <trkpt lat="45.49046" lon="-0.80944">
        <ele>94.8</ele>
        <time>2022-08-11T12:27:37.463+02:00</time>
      </trkpt>
      <trkpt lat="45.49039" lon="-0.80935">
        <ele>93.2</ele>
        <time>2022-08-11T12:27:43.454+02:00</time>
      </trkpt>
      <trkpt lat="45.49031" lon="-0.80925">
        <ele>93.9</ele>
        <time>2022-08-11T12:27:47.466+02:00</time>
      </trkpt>
      <trkpt lat="45.49022" lon="-0.80913">
        <ele>94.4</ele>
        <time>2022-08-11T12:27:51.475+02:00</time>
      </trkpt>
      <trkpt lat="45.49015" lon="-0.80904">
        <ele>94.2</ele>
        <time>2022-08-11T12:27:54.47+02:00</time>
      </trkpt>
      <trkpt lat="45.49007" lon="-0.80893">
        <ele>94.4</ele>
        <time>2022-08-11T12:27:57.461+02:00</time>
      </trkpt>
      <trkpt lat="45.48998" lon="-0.8088">
        <ele>94</ele>
        <time>2022-08-11T12:28:00.456+02:00</time>
      </trkpt>
      <trkpt lat="45.48992" lon="-0.8087">
        <ele>93.3</ele>
        <time>2022-08-11T12:28:02.459+02:00</time>
      </trkpt>
      <trkpt lat="45.48983" lon="-0.80858">
        <ele>91.6</ele>
        <time>2022-08-11T12:28:05.452+02:00</time>
      </trkpt>
      <trkpt lat="45.48976" lon="-0.80848">
        <ele>90</ele>
        <time>2022-08-11T12:28:07.47+02:00</time>
      </trkpt>
      <trkpt lat="45.48967" lon="-0.80834">
        <ele>88</ele>
        <time>2022-08-11T12:28:09.476+02:00</time>
      </trkpt>
      <trkpt lat="45.48957" lon="-0.80817">
        <ele>86</ele>
        <time>2022-08-11T12:28:11.469+02:00</time>
      </trkpt>
      <trkpt lat="45.48945" lon="-0.80797">
        <ele>84</ele>
        <time>2022-08-11T12:28:13.47+02:00</time>
      </trkpt>
      <trkpt lat="45.48939" lon="-0.80786">
        <ele>83.3</ele>
        <time>2022-08-11T12:28:14.477+02:00</time>
      </trkpt>
      <trkpt lat="45.48933" lon="-0.80775">
        <ele>82.1</ele>
        <time>2022-08-11T12:28:15.484+02:00</time>
      </trkpt>
      <trkpt lat="45.48927" lon="-0.80764">
        <ele>80.9</ele>
        <time>2022-08-11T12:28:16.479+02:00</time>
      </trkpt>
      <trkpt lat="45.48918" lon="-0.80743">
        <ele>79.2</ele>
        <time>2022-08-11T12:28:18.477+02:00</time>
      </trkpt>
      <trkpt lat="45.48911" lon="-0.80725">
        <ele>77.1</ele>
        <time>2022-08-11T12:28:20.478+02:00</time>
      </trkpt>
      <trkpt lat="45.48907" lon="-0.80709">
        <ele>75</ele>
        <time>2022-08-11T12:28:22.474+02:00</time>
      </trkpt>
      <trkpt lat="45.48907" lon="-0.80691">
        <ele>73.3</ele>
        <time>2022-08-11T12:28:24.468+02:00</time>
      </trkpt>
      <trkpt lat="45.4891" lon="-0.80675">
        <ele>71.2</ele>
        <time>2022-08-11T12:28:26.467+02:00</time>
      </trkpt>
      <trkpt lat="45.48915" lon="-0.8066">
        <ele>68.7</ele>
        <time>2022-08-11T12:28:28.474+02:00</time>
      </trkpt>
      <trkpt lat="45.48918" lon="-0.80646">
        <ele>67.5</ele>
        <time>2022-08-11T12:28:30.48+02:00</time>
      </trkpt>
      <trkpt lat="45.4891" lon="-0.80633">
        <ele>64.5</ele>
        <time>2022-08-11T12:28:33.488+02:00</time>
      </trkpt>
      <trkpt lat="45.48898" lon="-0.80631">
        <ele>62</ele>
        <time>2022-08-11T12:28:36.478+02:00</time>
      </trkpt>
      <trkpt lat="45.48888" lon="-0.80628">
        <ele>61.4</ele>
        <time>2022-08-11T12:28:39.478+02:00</time>
      </trkpt>
      <trkpt lat="45.48879" lon="-0.80635">
        <ele>60</ele>
        <time>2022-08-11T12:28:41.48+02:00</time>
      </trkpt>
      <trkpt lat="45.4887" lon="-0.80648">
        <ele>59.4</ele>
        <time>2022-08-11T12:28:43.46+02:00</time>
      </trkpt>
      <trkpt lat="45.4886" lon="-0.80656">
        <ele>58.2</ele>
        <time>2022-08-11T12:28:45.459+02:00</time>
      </trkpt>
      <trkpt lat="45.4885" lon="-0.80662">
        <ele>56.9</ele>
        <time>2022-08-11T12:28:47.457+02:00</time>
      </trkpt>
      <trkpt lat="45.48841" lon="-0.80664">
        <ele>55.4</ele>
        <time>2022-08-11T12:28:49.46+02:00</time>
      </trkpt>
      <trkpt lat="45.48831" lon="-0.80662">
        <ele>54.2</ele>
        <time>2022-08-11T12:28:51.459+02:00</time>
      </trkpt>
      <trkpt lat="45.48823" lon="-0.80655">
        <ele>53.5</ele>
        <time>2022-08-11T12:28:53.469+02:00</time>
      </trkpt>
      <trkpt lat="45.48815" lon="-0.80645">
        <ele>53.7</ele>
        <time>2022-08-11T12:28:55.454+02:00</time>
      </trkpt>
      <trkpt lat="45.48807" lon="-0.80634">
        <ele>53.1</ele>
        <time>2022-08-11T12:28:57.464+02:00</time>
      </trkpt>
      <trkpt lat="45.48798" lon="-0.80624">
        <ele>51.3</ele>
        <time>2022-08-11T12:28:59.464+02:00</time>
      </trkpt>
      <trkpt lat="45.48786" lon="-0.8062">
        <ele>52</ele>
        <time>2022-08-11T12:29:01.456+02:00</time>
      </trkpt>
      <trkpt lat="45.48775" lon="-0.80625">
        <ele>51.5</ele>
        <time>2022-08-11T12:29:03.458+02:00</time>
      </trkpt>
      <trkpt lat="45.48767" lon="-0.80631">
        <ele>50.7</ele>
        <time>2022-08-11T12:29:05.459+02:00</time>
      </trkpt>
      <trkpt lat="45.48756" lon="-0.8064">
        <ele>49.6</ele>
        <time>2022-08-11T12:29:08.462+02:00</time>
      </trkpt>
      <trkpt lat="45.48744" lon="-0.80646">
        <ele>48.9</ele>
        <time>2022-08-11T12:29:11.461+02:00</time>
      </trkpt>
      <trkpt lat="45.48732" lon="-0.80653">
        <ele>49</ele>
        <time>2022-08-11T12:29:14.454+02:00</time>
      </trkpt>
      <trkpt lat="45.48719" lon="-0.80658">
        <ele>49.3</ele>
        <time>2022-08-11T12:29:17.462+02:00</time>
      </trkpt>
      <trkpt lat="45.48706" lon="-0.80656">
        <ele>48.9</ele>
        <time>2022-08-11T12:29:20.462+02:00</time>
      </trkpt>
      <trkpt lat="45.48697" lon="-0.80652">
        <ele>48.4</ele>
        <time>2022-08-11T12:29:22.476+02:00</time>
      </trkpt>
      <trkpt lat="45.48688" lon="-0.80649">
        <ele>48.5</ele>
        <time>2022-08-11T12:29:24.466+02:00</time>
      </trkpt>
      <trkpt lat="45.48675" lon="-0.80644">
        <ele>47.9</ele>
        <time>2022-08-11T12:29:27.468+02:00</time>
      </trkpt>
      <trkpt lat="45.48666" lon="-0.80643">
        <ele>48</ele>
        <time>2022-08-11T12:29:29.478+02:00</time>
      </trkpt>
      <trkpt lat="45.48657" lon="-0.80642">
        <ele>48.1</ele>
        <time>2022-08-11T12:29:31.476+02:00</time>
      </trkpt>
      <trkpt lat="45.48644" lon="-0.80642">
        <ele>47.9</ele>
        <time>2022-08-11T12:29:34.473+02:00</time>
      </trkpt>
      <trkpt lat="45.48631" lon="-0.80641">
        <ele>48.3</ele>
        <time>2022-08-11T12:29:37.472+02:00</time>
      </trkpt>
      <trkpt lat="45.48619" lon="-0.80637">
        <ele>48.4</ele>
        <time>2022-08-11T12:29:40.478+02:00</time>
      </trkpt>
      <trkpt lat="45.48607" lon="-0.80629">
        <ele>48.9</ele>
        <time>2022-08-11T12:29:43.475+02:00</time>
      </trkpt>
      <trkpt lat="45.48597" lon="-0.80621">
        <ele>49.2</ele>
        <time>2022-08-11T12:29:46.476+02:00</time>
      </trkpt>
      <trkpt lat="45.48586" lon="-0.80612">
        <ele>49.7</ele>
        <time>2022-08-11T12:29:49.474+02:00</time>
      </trkpt>
      <trkpt lat="45.48575" lon="-0.80602">
        <ele>50</ele>
        <time>2022-08-11T12:29:52.475+02:00</time>
      </trkpt>
      <trkpt lat="45.48565" lon="-0.80593">
        <ele>49.9</ele>
        <time>2022-08-11T12:29:55.481+02:00</time>
      </trkpt>
      <trkpt lat="45.48555" lon="-0.80583">
        <ele>49.5</ele>
        <time>2022-08-11T12:29:58.481+02:00</time>
      </trkpt>
      <trkpt lat="45.48546" lon="-0.80572">
        <ele>49.9</ele>
        <time>2022-08-11T12:30:01.48+02:00</time>
      </trkpt>
      <trkpt lat="45.48536" lon="-0.80562">
        <ele>50</ele>
        <time>2022-08-11T12:30:04.469+02:00</time>
      </trkpt>
      <trkpt lat="45.48526" lon="-0.80552">
        <ele>50.2</ele>
        <time>2022-08-11T12:30:07.466+02:00</time>
      </trkpt>
      <trkpt lat="45.48516" lon="-0.80541">
        <ele>50</ele>
        <time>2022-08-11T12:30:10.474+02:00</time>
      </trkpt>
      <trkpt lat="45.48507" lon="-0.80532">
        <ele>50.1</ele>
        <time>2022-08-11T12:30:13.478+02:00</time>
      </trkpt>
      <trkpt lat="45.48498" lon="-0.80523">
        <ele>50.2</ele>
        <time>2022-08-11T12:30:16.473+02:00</time>
      </trkpt>
      <trkpt lat="45.48488" lon="-0.80513">
        <ele>49.7</ele>
        <time>2022-08-11T12:30:19.478+02:00</time>
      </trkpt>
      <trkpt lat="45.48479" lon="-0.80504">
        <ele>49.7</ele>
        <time>2022-08-11T12:30:22.475+02:00</time>
      </trkpt>
      <trkpt lat="45.48469" lon="-0.80495">
        <ele>49.3</ele>
        <time>2022-08-11T12:30:25.478+02:00</time>
      </trkpt>
      <trkpt lat="45.48459" lon="-0.80485">
        <ele>49.3</ele>
        <time>2022-08-11T12:30:28.463+02:00</time>
      </trkpt>
      <trkpt lat="45.48449" lon="-0.80475">
        <ele>49.4</ele>
        <time>2022-08-11T12:30:31.477+02:00</time>
      </trkpt>
      <trkpt lat="45.4844" lon="-0.80465">
        <ele>49.7</ele>
        <time>2022-08-11T12:30:34.473+02:00</time>
      </trkpt>
      <trkpt lat="45.4843" lon="-0.80455">
        <ele>49.4</ele>
        <time>2022-08-11T12:30:37.48+02:00</time>
      </trkpt>
      <trkpt lat="45.48421" lon="-0.80445">
        <ele>49.5</ele>
        <time>2022-08-11T12:30:40.48+02:00</time>
      </trkpt>
      <trkpt lat="45.48413" lon="-0.80433">
        <ele>49.4</ele>
        <time>2022-08-11T12:30:43.465+02:00</time>
      </trkpt>
      <trkpt lat="45.48406" lon="-0.8042">
        <ele>49.5</ele>
        <time>2022-08-11T12:30:46.48+02:00</time>
      </trkpt>
      <trkpt lat="45.48398" lon="-0.80407">
        <ele>49.3</ele>
        <time>2022-08-11T12:30:49.482+02:00</time>
      </trkpt>
      <trkpt lat="45.48391" lon="-0.80393">
        <ele>49</ele>
        <time>2022-08-11T12:30:52.461+02:00</time>
      </trkpt>
      <trkpt lat="45.48384" lon="-0.8038">
        <ele>49.3</ele>
        <time>2022-08-11T12:30:55.481+02:00</time>
      </trkpt>
      <trkpt lat="45.48377" lon="-0.80367">
        <ele>49.1</ele>
        <time>2022-08-11T12:30:58.47+02:00</time>
      </trkpt>
      <trkpt lat="45.48369" lon="-0.80353">
        <ele>49.2</ele>
        <time>2022-08-11T12:31:01.476+02:00</time>
      </trkpt>
      <trkpt lat="45.48362" lon="-0.8034">
        <ele>48.7</ele>
        <time>2022-08-11T12:31:04.482+02:00</time>
      </trkpt>
      <trkpt lat="45.48355" lon="-0.80326">
        <ele>48.4</ele>
        <time>2022-08-11T12:31:07.475+02:00</time>
      </trkpt>
      <trkpt lat="45.48348" lon="-0.80313">
        <ele>48.4</ele>
        <time>2022-08-11T12:31:10.478+02:00</time>
      </trkpt>
      <trkpt lat="45.48341" lon="-0.803">
        <ele>47.8</ele>
        <time>2022-08-11T12:31:13.477+02:00</time>
      </trkpt>
      <trkpt lat="45.48333" lon="-0.80287">
        <ele>47.4</ele>
        <time>2022-08-11T12:31:16.461+02:00</time>
      </trkpt>
      <trkpt lat="45.48326" lon="-0.80274">
        <ele>47.1</ele>
        <time>2022-08-11T12:31:19.478+02:00</time>
      </trkpt>
      <trkpt lat="45.48319" lon="-0.8026">
        <ele>47.7</ele>
        <time>2022-08-11T12:31:22.474+02:00</time>
      </trkpt>
      <trkpt lat="45.48312" lon="-0.80248">
        <ele>47.7</ele>
        <time>2022-08-11T12:31:25.479+02:00</time>
      </trkpt>
      <trkpt lat="45.48305" lon="-0.80236">
        <ele>48.1</ele>
        <time>2022-08-11T12:31:28.457+02:00</time>
      </trkpt>
      <trkpt lat="45.48299" lon="-0.80223">
        <ele>47.9</ele>
        <time>2022-08-11T12:31:31.485+02:00</time>
      </trkpt>
      <trkpt lat="45.48293" lon="-0.8021">
        <ele>47.6</ele>
        <time>2022-08-11T12:31:34.462+02:00</time>
      </trkpt>
      <trkpt lat="45.48287" lon="-0.80198">
        <ele>47.7</ele>
        <time>2022-08-11T12:31:37.469+02:00</time>
      </trkpt>
      <trkpt lat="45.48281" lon="-0.80187">
        <ele>47.8</ele>
        <time>2022-08-11T12:31:40.483+02:00</time>
      </trkpt>
      <trkpt lat="45.48276" lon="-0.80175">
        <ele>47.9</ele>
        <time>2022-08-11T12:31:43.472+02:00</time>
      </trkpt>
      <trkpt lat="45.4827" lon="-0.80163">
        <ele>47.5</ele>
        <time>2022-08-11T12:31:46.469+02:00</time>
      </trkpt>
      <trkpt lat="45.48264" lon="-0.80151">
        <ele>47.4</ele>
        <time>2022-08-11T12:31:49.476+02:00</time>
      </trkpt>
      <trkpt lat="45.48258" lon="-0.80138">
        <ele>47.7</ele>
        <time>2022-08-11T12:31:52.485+02:00</time>
      </trkpt>
      <trkpt lat="45.48253" lon="-0.80126">
        <ele>47.9</ele>
        <time>2022-08-11T12:31:55.452+02:00</time>
      </trkpt>
      <trkpt lat="45.48247" lon="-0.80114">
        <ele>47.9</ele>
        <time>2022-08-11T12:31:58.454+02:00</time>
      </trkpt>
      <trkpt lat="45.48241" lon="-0.80102">
        <ele>48.4</ele>
        <time>2022-08-11T12:32:01.457+02:00</time>
      </trkpt>
      <trkpt lat="45.48235" lon="-0.8009">
        <ele>48.6</ele>
        <time>2022-08-11T12:32:04.447+02:00</time>
      </trkpt>
      <trkpt lat="45.48229" lon="-0.80077">
        <ele>48.5</ele>
        <time>2022-08-11T12:32:07.469+02:00</time>
      </trkpt>
      <trkpt lat="45.48224" lon="-0.80065">
        <ele>48.3</ele>
        <time>2022-08-11T12:32:10.462+02:00</time>
      </trkpt>
      <trkpt lat="45.48218" lon="-0.80051">
        <ele>48.4</ele>
        <time>2022-08-11T12:32:14.443+02:00</time>
      </trkpt>
      <trkpt lat="45.48212" lon="-0.80037">
        <ele>48.4</ele>
        <time>2022-08-11T12:32:18.465+02:00</time>
      </trkpt>
      <trkpt lat="45.48206" lon="-0.80022">
        <ele>48.2</ele>
        <time>2022-08-11T12:32:22.481+02:00</time>
      </trkpt>
      <trkpt lat="45.482" lon="-0.80009">
        <ele>46.6</ele>
        <time>2022-08-11T12:32:26.472+02:00</time>
      </trkpt>
      <trkpt lat="45.48195" lon="-0.79998">
        <ele>46.9</ele>
        <time>2022-08-11T12:32:30.46+02:00</time>
      </trkpt>
      <trkpt lat="45.48197" lon="-0.79991">
        <ele>47.5</ele>
        <time>2022-08-11T12:32:35.475+02:00</time>
      </trkpt>
      <trkpt lat="45.48198" lon="-0.79991">
        <ele>47.6</ele>
        <time>2022-08-11T12:32:36.488+02:00</time>
      </trkpt>
      <trkpt lat="45.48199" lon="-0.79989">
        <ele>50.5</ele>
        <time>2022-08-11T12:33:50.465+02:00</time>
      </trkpt>
      <trkpt lat="45.48198" lon="-0.79989">
        <ele>50.1</ele>
        <time>2022-08-11T12:33:51.481+02:00</time>
      </trkpt>
      <trkpt lat="45.48197" lon="-0.79987">
        <ele>50.4</ele>
        <time>2022-08-11T12:33:57.478+02:00</time>
      </trkpt>
      <trkpt lat="45.48196" lon="-0.79987">
        <ele>50.3</ele>
        <time>2022-08-11T12:33:58.476+02:00</time>
      </trkpt>
      <trkpt lat="45.48196" lon="-0.79987">
        <ele>49.5</ele>
        <time>2022-08-11T12:34:03.478+02:00</time>
      </trkpt>
      <trkpt lat="45.48195" lon="-0.79987">
        <ele>49.7</ele>
        <time>2022-08-11T12:34:04.47+02:00</time>
      </trkpt>
      <trkpt lat="45.48194" lon="-0.79987">
        <ele>48.9</ele>
        <time>2022-08-11T12:34:09.477+02:00</time>
      </trkpt>
      <trkpt lat="45.48193" lon="-0.79987">
        <ele>49</ele>
        <time>2022-08-11T12:34:10.474+02:00</time>
      </trkpt>
      <trkpt lat="45.48193" lon="-0.79987">
        <ele>48.8</ele>
        <time>2022-08-11T12:34:11.479+02:00</time>
      </trkpt>
      <trkpt lat="45.48193" lon="-0.79987">
        <ele>48.6</ele>
        <time>2022-08-11T12:34:12.479+02:00</time>
      </trkpt>
      <trkpt lat="45.48186" lon="-0.79975">
        <ele>48.9</ele>
        <time>2022-08-11T12:34:19.47+02:00</time>
      </trkpt>
      <trkpt lat="45.48181" lon="-0.79964">
        <ele>48.1</ele>
        <time>2022-08-11T12:34:23.48+02:00</time>
      </trkpt>
      <trkpt lat="45.48174" lon="-0.7995">
        <ele>48.1</ele>
        <time>2022-08-11T12:34:27.475+02:00</time>
      </trkpt>
      <trkpt lat="45.48168" lon="-0.79938">
        <ele>48.1</ele>
        <time>2022-08-11T12:34:30.476+02:00</time>
      </trkpt>
      <trkpt lat="45.48163" lon="-0.79927">
        <ele>47.9</ele>
        <time>2022-08-11T12:34:33.477+02:00</time>
      </trkpt>
      <trkpt lat="45.48157" lon="-0.79915">
        <ele>48</ele>
        <time>2022-08-11T12:34:36.472+02:00</time>
      </trkpt>
      <trkpt lat="45.48152" lon="-0.79903">
        <ele>47.3</ele>
        <time>2022-08-11T12:34:39.472+02:00</time>
      </trkpt>
      <trkpt lat="45.48146" lon="-0.79892">
        <ele>47.3</ele>
        <time>2022-08-11T12:34:42.478+02:00</time>
      </trkpt>
      <trkpt lat="45.4814" lon="-0.7988">
        <ele>47.1</ele>
        <time>2022-08-11T12:34:45.472+02:00</time>
      </trkpt>
      <trkpt lat="45.48134" lon="-0.79868">
        <ele>47.3</ele>
        <time>2022-08-11T12:34:48.464+02:00</time>
      </trkpt>
      <trkpt lat="45.48129" lon="-0.79856">
        <ele>47.3</ele>
        <time>2022-08-11T12:34:51.48+02:00</time>
      </trkpt>
      <trkpt lat="45.48123" lon="-0.79845">
        <ele>47.1</ele>
        <time>2022-08-11T12:34:54.469+02:00</time>
      </trkpt>
      <trkpt lat="45.48117" lon="-0.79832">
        <ele>47.2</ele>
        <time>2022-08-11T12:34:57.467+02:00</time>
      </trkpt>
      <trkpt lat="45.4811" lon="-0.7982">
        <ele>46.7</ele>
        <time>2022-08-11T12:35:00.481+02:00</time>
      </trkpt>
      <trkpt lat="45.48104" lon="-0.79807">
        <ele>46.9</ele>
        <time>2022-08-11T12:35:03.481+02:00</time>
      </trkpt>
      <trkpt lat="45.48098" lon="-0.79795">
        <ele>47.2</ele>
        <time>2022-08-11T12:35:06.481+02:00</time>
      </trkpt>
      <trkpt lat="45.48091" lon="-0.79782">
        <ele>47.6</ele>
        <time>2022-08-11T12:35:09.485+02:00</time>
      </trkpt>
      <trkpt lat="45.48083" lon="-0.79771">
        <ele>47.6</ele>
        <time>2022-08-11T12:35:12.466+02:00</time>
      </trkpt>
      <trkpt lat="45.48075" lon="-0.79759">
        <ele>47.9</ele>
        <time>2022-08-11T12:35:15.486+02:00</time>
      </trkpt>
      <trkpt lat="45.48066" lon="-0.79748">
        <ele>48.4</ele>
        <time>2022-08-11T12:35:18.482+02:00</time>
      </trkpt>
      <trkpt lat="45.48057" lon="-0.79735">
        <ele>48.6</ele>
        <time>2022-08-11T12:35:21.479+02:00</time>
      </trkpt>
      <trkpt lat="45.48048" lon="-0.79724">
        <ele>48.7</ele>
        <time>2022-08-11T12:35:24.468+02:00</time>
      </trkpt>
      <trkpt lat="45.48039" lon="-0.79713">
        <ele>49</ele>
        <time>2022-08-11T12:35:27.482+02:00</time>
      </trkpt>
      <trkpt lat="45.48029" lon="-0.79701">
        <ele>48.9</ele>
        <time>2022-08-11T12:35:30.486+02:00</time>
      </trkpt>
      <trkpt lat="45.4802" lon="-0.7969">
        <ele>49.2</ele>
        <time>2022-08-11T12:35:33.45+02:00</time>
      </trkpt>
      <trkpt lat="45.4801" lon="-0.79678">
        <ele>49.3</ele>
        <time>2022-08-11T12:35:36.47+02:00</time>
      </trkpt>
      <trkpt lat="45.48" lon="-0.79666">
        <ele>49.8</ele>
        <time>2022-08-11T12:35:39.477+02:00</time>
      </trkpt>
      <trkpt lat="45.47991" lon="-0.79654">
        <ele>49.7</ele>
        <time>2022-08-11T12:35:42.484+02:00</time>
      </trkpt>
      <trkpt lat="45.47981" lon="-0.79643">
        <ele>49.9</ele>
        <time>2022-08-11T12:35:45.47+02:00</time>
      </trkpt>
      <trkpt lat="45.47971" lon="-0.79631">
        <ele>49.7</ele>
        <time>2022-08-11T12:35:48.481+02:00</time>
      </trkpt>
      <trkpt lat="45.47961" lon="-0.79619">
        <ele>50</ele>
        <time>2022-08-11T12:35:51.477+02:00</time>
      </trkpt>
      <trkpt lat="45.47952" lon="-0.79607">
        <ele>50.3</ele>
        <time>2022-08-11T12:35:54.47+02:00</time>
      </trkpt>
      <trkpt lat="45.47945" lon="-0.79598">
        <ele>50.3</ele>
        <time>2022-08-11T12:35:56.484+02:00</time>
      </trkpt>
      <trkpt lat="45.47938" lon="-0.7959">
        <ele>50.2</ele>
        <time>2022-08-11T12:35:58.477+02:00</time>
      </trkpt>
      <trkpt lat="45.47927" lon="-0.79578">
        <ele>50.2</ele>
        <time>2022-08-11T12:36:01.485+02:00</time>
      </trkpt>
      <trkpt lat="45.47917" lon="-0.79565">
        <ele>51</ele>
        <time>2022-08-11T12:36:04.466+02:00</time>
      </trkpt>
      <trkpt lat="45.47908" lon="-0.79553">
        <ele>51.2</ele>
        <time>2022-08-11T12:36:07.466+02:00</time>
      </trkpt>
      <trkpt lat="45.47898" lon="-0.79541">
        <ele>51.1</ele>
        <time>2022-08-11T12:36:10.474+02:00</time>
      </trkpt>
      <trkpt lat="45.47889" lon="-0.79529">
        <ele>51.2</ele>
        <time>2022-08-11T12:36:13.475+02:00</time>
      </trkpt>
      <trkpt lat="45.4788" lon="-0.79517">
        <ele>51</ele>
        <time>2022-08-11T12:36:16.483+02:00</time>
      </trkpt>
      <trkpt lat="45.47871" lon="-0.79505">
        <ele>51.2</ele>
        <time>2022-08-11T12:36:19.479+02:00</time>
      </trkpt>
      <trkpt lat="45.47863" lon="-0.79492">
        <ele>50.5</ele>
        <time>2022-08-11T12:36:22.476+02:00</time>
      </trkpt>
      <trkpt lat="45.47856" lon="-0.79477">
        <ele>50.3</ele>
        <time>2022-08-11T12:36:25.477+02:00</time>
      </trkpt>
      <trkpt lat="45.47849" lon="-0.79463">
        <ele>50.1</ele>
        <time>2022-08-11T12:36:28.473+02:00</time>
      </trkpt>
      <trkpt lat="45.47843" lon="-0.79448">
        <ele>50.3</ele>
        <time>2022-08-11T12:36:31.477+02:00</time>
      </trkpt>
      <trkpt lat="45.47837" lon="-0.79434">
        <ele>50.3</ele>
        <time>2022-08-11T12:36:34.47+02:00</time>
      </trkpt>
      <trkpt lat="45.47831" lon="-0.79419">
        <ele>50.1</ele>
        <time>2022-08-11T12:36:37.46+02:00</time>
      </trkpt>
      <trkpt lat="45.47824" lon="-0.79405">
        <ele>50.1</ele>
        <time>2022-08-11T12:36:40.477+02:00</time>
      </trkpt>
      <trkpt lat="45.47817" lon="-0.7939">
        <ele>50.1</ele>
        <time>2022-08-11T12:36:43.464+02:00</time>
      </trkpt>
      <trkpt lat="45.47811" lon="-0.79377">
        <ele>50.3</ele>
        <time>2022-08-11T12:36:46.499+02:00</time>
      </trkpt>
      <trkpt lat="45.47806" lon="-0.79365">
        <ele>49.2</ele>
        <time>2022-08-11T12:36:49.47+02:00</time>
      </trkpt>
      <trkpt lat="45.478" lon="-0.79356">
        <ele>48.4</ele>
        <time>2022-08-11T12:36:52.474+02:00</time>
      </trkpt>
      <trkpt lat="45.47789" lon="-0.79355">
        <ele>49.2</ele>
        <time>2022-08-11T12:36:56.459+02:00</time>
      </trkpt>
      <trkpt lat="45.47782" lon="-0.79366">
        <ele>50.2</ele>
        <time>2022-08-11T12:37:00.471+02:00</time>
      </trkpt>
      <trkpt lat="45.47773" lon="-0.79376">
        <ele>50.9</ele>
        <time>2022-08-11T12:37:04.461+02:00</time>
      </trkpt>
      <trkpt lat="45.47766" lon="-0.79386">
        <ele>51.1</ele>
        <time>2022-08-11T12:37:07.476+02:00</time>
      </trkpt>
      <trkpt lat="45.47759" lon="-0.79398">
        <ele>51</ele>
        <time>2022-08-11T12:37:10.481+02:00</time>
      </trkpt>
      <trkpt lat="45.47753" lon="-0.79411">
        <ele>51.7</ele>
        <time>2022-08-11T12:37:13.465+02:00</time>
      </trkpt>
      <trkpt lat="45.47748" lon="-0.79422">
        <ele>52.2</ele>
        <time>2022-08-11T12:37:15.461+02:00</time>
      </trkpt>
      <trkpt lat="45.47741" lon="-0.79438">
        <ele>52.2</ele>
        <time>2022-08-11T12:37:18.476+02:00</time>
      </trkpt>
      <trkpt lat="45.47735" lon="-0.79452">
        <ele>54.2</ele>
        <time>2022-08-11T12:37:21.47+02:00</time>
      </trkpt>
      <trkpt lat="45.47729" lon="-0.79465">
        <ele>53.9</ele>
        <time>2022-08-11T12:37:24.469+02:00</time>
      </trkpt>
      <trkpt lat="45.47724" lon="-0.79477">
        <ele>53.1</ele>
        <time>2022-08-11T12:37:27.463+02:00</time>
      </trkpt>
      <trkpt lat="45.47718" lon="-0.79492">
        <ele>53.2</ele>
        <time>2022-08-11T12:37:30.481+02:00</time>
      </trkpt>
      <trkpt lat="45.47711" lon="-0.79505">
        <ele>52.5</ele>
        <time>2022-08-11T12:37:33.48+02:00</time>
      </trkpt>
      <trkpt lat="45.47705" lon="-0.79518">
        <ele>52.8</ele>
        <time>2022-08-11T12:37:36.484+02:00</time>
      </trkpt>
      <trkpt lat="45.47695" lon="-0.79526">
        <ele>52.1</ele>
        <time>2022-08-11T12:37:40.474+02:00</time>
      </trkpt>
      <trkpt lat="45.47684" lon="-0.79523">
        <ele>52.6</ele>
        <time>2022-08-11T12:37:44.462+02:00</time>
      </trkpt>
      <trkpt lat="45.47675" lon="-0.79518">
        <ele>54.5</ele>
        <time>2022-08-11T12:37:48.469+02:00</time>
      </trkpt>
      <trkpt lat="45.47666" lon="-0.79515">
        <ele>53.3</ele>
        <time>2022-08-11T12:37:55.472+02:00</time>
      </trkpt>
      <trkpt lat="45.47661" lon="-0.79526">
        <ele>53.3</ele>
        <time>2022-08-11T12:37:59.472+02:00</time>
      </trkpt>
      <trkpt lat="45.47655" lon="-0.7954">
        <ele>52.7</ele>
        <time>2022-08-11T12:38:03.481+02:00</time>
      </trkpt>
      <trkpt lat="45.47651" lon="-0.79552">
        <ele>52.9</ele>
        <time>2022-08-11T12:38:10.482+02:00</time>
      </trkpt>
      <trkpt lat="45.47653" lon="-0.79537">
        <ele>53.7</ele>
        <time>2022-08-11T12:38:21.478+02:00</time>
      </trkpt>
      <trkpt lat="45.47656" lon="-0.79525">
        <ele>53.6</ele>
        <time>2022-08-11T12:38:24.456+02:00</time>
      </trkpt>
      <trkpt lat="45.47661" lon="-0.79511">
        <ele>53.1</ele>
        <time>2022-08-11T12:38:28.477+02:00</time>
      </trkpt>
      <trkpt lat="45.47657" lon="-0.79499">
        <ele>52.3</ele>
        <time>2022-08-11T12:38:37.476+02:00</time>
      </trkpt>
      <trkpt lat="45.47657" lon="-0.79497">
        <ele>52.7</ele>
        <time>2022-08-11T12:38:38.479+02:00</time>
      </trkpt>
      <trkpt lat="45.47657" lon="-0.79497">
        <ele>52.8</ele>
        <time>2022-08-11T12:38:39.47+02:00</time>
      </trkpt>
      <trkpt lat="45.4766" lon="-0.79499">
        <ele>54.5</ele>
        <time>2022-08-11T12:39:28.454+02:00</time>
      </trkpt>
      <trkpt lat="45.4766" lon="-0.79499">
        <ele>54.6</ele>
        <time>2022-08-11T12:39:29.471+02:00</time>
      </trkpt>
      <trkpt lat="45.47666" lon="-0.79488">
        <ele>54</ele>
        <time>2022-08-11T12:39:35.468+02:00</time>
      </trkpt>
      <trkpt lat="45.47675" lon="-0.79486">
        <ele>52.9</ele>
        <time>2022-08-11T12:39:40.476+02:00</time>
      </trkpt>
      <trkpt lat="45.47681" lon="-0.79473">
        <ele>53</ele>
        <time>2022-08-11T12:39:44.453+02:00</time>
      </trkpt>
      <trkpt lat="45.47686" lon="-0.79458">
        <ele>53.5</ele>
        <time>2022-08-11T12:39:48.481+02:00</time>
      </trkpt>
      <trkpt lat="45.4769" lon="-0.79445">
        <ele>53.9</ele>
        <time>2022-08-11T12:39:51.468+02:00</time>
      </trkpt>
      <trkpt lat="45.47694" lon="-0.79432">
        <ele>53.8</ele>
        <time>2022-08-11T12:39:54.448+02:00</time>
      </trkpt>
      <trkpt lat="45.477" lon="-0.79419">
        <ele>53.7</ele>
        <time>2022-08-11T12:39:57.461+02:00</time>
      </trkpt>
      <trkpt lat="45.47704" lon="-0.79407">
        <ele>54.3</ele>
        <time>2022-08-11T12:40:00.474+02:00</time>
      </trkpt>
      <trkpt lat="45.47708" lon="-0.79395">
        <ele>53.6</ele>
        <time>2022-08-11T12:40:03.468+02:00</time>
      </trkpt>
      <trkpt lat="45.47712" lon="-0.79383">
        <ele>53.9</ele>
        <time>2022-08-11T12:40:06.484+02:00</time>
      </trkpt>
      <trkpt lat="45.47716" lon="-0.79371">
        <ele>53.7</ele>
        <time>2022-08-11T12:40:09.473+02:00</time>
      </trkpt>
      <trkpt lat="45.47721" lon="-0.79359">
        <ele>53.9</ele>
        <time>2022-08-11T12:40:12.472+02:00</time>
      </trkpt>
      <trkpt lat="45.47726" lon="-0.79348">
        <ele>54.1</ele>
        <time>2022-08-11T12:40:15.472+02:00</time>
      </trkpt>
      <trkpt lat="45.4773" lon="-0.79336">
        <ele>54.2</ele>
        <time>2022-08-11T12:40:18.475+02:00</time>
      </trkpt>
      <trkpt lat="45.47734" lon="-0.79323">
        <ele>53.8</ele>
        <time>2022-08-11T12:40:22.471+02:00</time>
      </trkpt>
      <trkpt lat="45.47738" lon="-0.79311">
        <ele>53.7</ele>
        <time>2022-08-11T12:40:26.465+02:00</time>
      </trkpt>
      <trkpt lat="45.47743" lon="-0.79297">
        <ele>53.1</ele>
        <time>2022-08-11T12:40:30.477+02:00</time>
      </trkpt>
      <trkpt lat="45.47747" lon="-0.79282">
        <ele>53.1</ele>
        <time>2022-08-11T12:40:34.464+02:00</time>
      </trkpt>
      <trkpt lat="45.47752" lon="-0.79269">
        <ele>53.2</ele>
        <time>2022-08-11T12:40:38.48+02:00</time>
      </trkpt>
      <trkpt lat="45.47753" lon="-0.79257">
        <ele>54.1</ele>
        <time>2022-08-11T12:40:43.482+02:00</time>
      </trkpt>
      <trkpt lat="45.47752" lon="-0.79257">
        <ele>54.6</ele>
        <time>2022-08-11T12:40:44.457+02:00</time>
      </trkpt>
      <trkpt lat="45.47752" lon="-0.79256">
        <ele>52.9</ele>
        <time>2022-08-11T12:41:45.478+02:00</time>
      </trkpt>
      <trkpt lat="45.47752" lon="-0.79255">
        <ele>53</ele>
        <time>2022-08-11T12:41:46.476+02:00</time>
      </trkpt>
      <trkpt lat="45.47758" lon="-0.79245">
        <ele>52.4</ele>
        <time>2022-08-11T12:41:51.462+02:00</time>
      </trkpt>
      <trkpt lat="45.47765" lon="-0.79232">
        <ele>51.8</ele>
        <time>2022-08-11T12:41:55.478+02:00</time>
      </trkpt>
      <trkpt lat="45.4777" lon="-0.7922">
        <ele>52</ele>
        <time>2022-08-11T12:41:58.476+02:00</time>
      </trkpt>
      <trkpt lat="45.47775" lon="-0.79208">
        <ele>52.6</ele>
        <time>2022-08-11T12:42:01.476+02:00</time>
      </trkpt>
      <trkpt lat="45.4778" lon="-0.79197">
        <ele>52.7</ele>
        <time>2022-08-11T12:42:04.47+02:00</time>
      </trkpt>
      <trkpt lat="45.47787" lon="-0.79183">
        <ele>53.2</ele>
        <time>2022-08-11T12:42:08.472+02:00</time>
      </trkpt>
      <trkpt lat="45.47794" lon="-0.7917">
        <ele>53.3</ele>
        <time>2022-08-11T12:42:12.464+02:00</time>
      </trkpt>
      <trkpt lat="45.478" lon="-0.7916">
        <ele>55</ele>
        <time>2022-08-11T12:42:16.471+02:00</time>
      </trkpt>
      <trkpt lat="45.47806" lon="-0.79149">
        <ele>55.8</ele>
        <time>2022-08-11T12:42:20.476+02:00</time>
      </trkpt>
      <trkpt lat="45.47813" lon="-0.79137">
        <ele>56.5</ele>
        <time>2022-08-11T12:42:25.469+02:00</time>
      </trkpt>
      <trkpt lat="45.47819" lon="-0.79127">
        <ele>57.7</ele>
        <time>2022-08-11T12:42:30.46+02:00</time>
      </trkpt>
      <trkpt lat="45.47828" lon="-0.79123">
        <ele>58.9</ele>
        <time>2022-08-11T12:42:35.473+02:00</time>
      </trkpt>
      <trkpt lat="45.47837" lon="-0.79128">
        <ele>60.2</ele>
        <time>2022-08-11T12:42:40.475+02:00</time>
      </trkpt>
      <trkpt lat="45.47846" lon="-0.79134">
        <ele>61.1</ele>
        <time>2022-08-11T12:42:46.48+02:00</time>
      </trkpt>
      <trkpt lat="45.47854" lon="-0.7914">
        <ele>61.8</ele>
        <time>2022-08-11T12:42:52.494+02:00</time>
      </trkpt>
      <trkpt lat="45.47863" lon="-0.79146">
        <ele>63.7</ele>
        <time>2022-08-11T12:42:58.481+02:00</time>
      </trkpt>
      <trkpt lat="45.47872" lon="-0.79151">
        <ele>64</ele>
        <time>2022-08-11T12:43:04.466+02:00</time>
      </trkpt>
      <trkpt lat="45.47881" lon="-0.79154">
        <ele>64.7</ele>
        <time>2022-08-11T12:43:10.47+02:00</time>
      </trkpt>
      <trkpt lat="45.47892" lon="-0.79155">
        <ele>63.7</ele>
        <time>2022-08-11T12:43:17.476+02:00</time>
      </trkpt>
      <trkpt lat="45.47902" lon="-0.79155">
        <ele>64.6</ele>
        <time>2022-08-11T12:43:23.473+02:00</time>
      </trkpt>
      <trkpt lat="45.47911" lon="-0.79161">
        <ele>64.6</ele>
        <time>2022-08-11T12:43:29.462+02:00</time>
      </trkpt>
      <trkpt lat="45.47922" lon="-0.79164">
        <ele>63.6</ele>
        <time>2022-08-11T12:43:36.487+02:00</time>
      </trkpt>
      <trkpt lat="45.47932" lon="-0.79163">
        <ele>62.6</ele>
        <time>2022-08-11T12:43:42.459+02:00</time>
      </trkpt>
      <trkpt lat="45.47942" lon="-0.79165">
        <ele>64</ele>
        <time>2022-08-11T12:43:47.472+02:00</time>
      </trkpt>
      <trkpt lat="45.47953" lon="-0.79167">
        <ele>66.1</ele>
        <time>2022-08-11T12:43:53.481+02:00</time>
      </trkpt>
      <trkpt lat="45.47963" lon="-0.7917">
        <ele>69</ele>
        <time>2022-08-11T12:43:59.477+02:00</time>
      </trkpt>
      <trkpt lat="45.47972" lon="-0.79172">
        <ele>71.1</ele>
        <time>2022-08-11T12:44:05.457+02:00</time>
      </trkpt>
      <trkpt lat="45.47982" lon="-0.79174">
        <ele>73.1</ele>
        <time>2022-08-11T12:44:11.472+02:00</time>
      </trkpt>
      <trkpt lat="45.47991" lon="-0.79176">
        <ele>80.2</ele>
        <time>2022-08-11T12:44:17.474+02:00</time>
      </trkpt>
      <trkpt lat="45.48001" lon="-0.79175">
        <ele>83.7</ele>
        <time>2022-08-11T12:44:23.446+02:00</time>
      </trkpt>
      <trkpt lat="45.4801" lon="-0.7917">
        <ele>85</ele>
        <time>2022-08-11T12:44:29.473+02:00</time>
      </trkpt>
      <trkpt lat="45.48019" lon="-0.79164">
        <ele>83.2</ele>
        <time>2022-08-11T12:44:34.464+02:00</time>
      </trkpt>
      <trkpt lat="45.48027" lon="-0.79158">
        <ele>82.4</ele>
        <time>2022-08-11T12:44:39.469+02:00</time>
      </trkpt>
      <trkpt lat="45.48035" lon="-0.79152">
        <ele>83.2</ele>
        <time>2022-08-11T12:44:44.476+02:00</time>
      </trkpt>
      <trkpt lat="45.48044" lon="-0.79147">
        <ele>83.2</ele>
        <time>2022-08-11T12:44:50.483+02:00</time>
      </trkpt>
      <trkpt lat="45.48053" lon="-0.79142">
        <ele>85.8</ele>
        <time>2022-08-11T12:44:56.459+02:00</time>
      </trkpt>
      <trkpt lat="45.48062" lon="-0.79136">
        <ele>86.8</ele>
        <time>2022-08-11T12:45:03.467+02:00</time>
      </trkpt>
      <trkpt lat="45.48071" lon="-0.79128">
        <ele>87.3</ele>
        <time>2022-08-11T12:45:09.479+02:00</time>
      </trkpt>
      <trkpt lat="45.48079" lon="-0.79122">
        <ele>88.5</ele>
        <time>2022-08-11T12:45:15.458+02:00</time>
      </trkpt>
      <trkpt lat="45.48087" lon="-0.79116">
        <ele>82.5</ele>
        <time>2022-08-11T12:45:21.467+02:00</time>
      </trkpt>
      <trkpt lat="45.48094" lon="-0.79105">
        <ele>88.1</ele>
        <time>2022-08-11T12:45:27.471+02:00</time>
      </trkpt>
      <trkpt lat="45.48096" lon="-0.79093">
        <ele>90.3</ele>
        <time>2022-08-11T12:45:32.468+02:00</time>
      </trkpt>
      <trkpt lat="45.48094" lon="-0.7908">
        <ele>91.5</ele>
        <time>2022-08-11T12:45:37.471+02:00</time>
      </trkpt>
      <trkpt lat="45.48091" lon="-0.79067">
        <ele>93</ele>
        <time>2022-08-11T12:45:43.452+02:00</time>
      </trkpt>
      <trkpt lat="45.48088" lon="-0.79054">
        <ele>94.3</ele>
        <time>2022-08-11T12:45:49.476+02:00</time>
      </trkpt>
      <trkpt lat="45.48084" lon="-0.79042">
        <ele>90.7</ele>
        <time>2022-08-11T12:45:55.466+02:00</time>
      </trkpt>
      <trkpt lat="45.48081" lon="-0.79028">
        <ele>95.2</ele>
        <time>2022-08-11T12:46:02.471+02:00</time>
      </trkpt>
      <trkpt lat="45.48079" lon="-0.79015">
        <ele>96.5</ele>
        <time>2022-08-11T12:46:08.461+02:00</time>
      </trkpt>
      <trkpt lat="45.48075" lon="-0.79001">
        <ele>97.6</ele>
        <time>2022-08-11T12:46:15.464+02:00</time>
      </trkpt>
      <trkpt lat="45.48072" lon="-0.78988">
        <ele>99.9</ele>
        <time>2022-08-11T12:46:21.463+02:00</time>
      </trkpt>
      <trkpt lat="45.48068" lon="-0.78975">
        <ele>99.5</ele>
        <time>2022-08-11T12:46:28.471+02:00</time>
      </trkpt>
      <trkpt lat="45.48065" lon="-0.78963">
        <ele>89.9</ele>
        <time>2022-08-11T12:46:38.477+02:00</time>
      </trkpt>
      <trkpt lat="45.48065" lon="-0.78947">
        <ele>93.7</ele>
        <time>2022-08-11T12:46:45.466+02:00</time>
      </trkpt>
      <trkpt lat="45.48072" lon="-0.78937">
        <ele>91.5</ele>
        <time>2022-08-11T12:46:49.466+02:00</time>
      </trkpt>
      <trkpt lat="45.48082" lon="-0.78936">
        <ele>98.2</ele>
        <time>2022-08-11T12:46:53.472+02:00</time>
      </trkpt>
      <trkpt lat="45.48092" lon="-0.78936">
        <ele>99.6</ele>
        <time>2022-08-11T12:46:57.48+02:00</time>
      </trkpt>
      <trkpt lat="45.48103" lon="-0.78934">
        <ele>99.6</ele>
        <time>2022-08-11T12:47:01.476+02:00</time>
      </trkpt>
      <trkpt lat="45.48109" lon="-0.78924">
        <ele>101.3</ele>
        <time>2022-08-11T12:47:09.47+02:00</time>
      </trkpt>
      <trkpt lat="45.48108" lon="-0.78923">
        <ele>100.1</ele>
        <time>2022-08-11T12:47:10.472+02:00</time>
      </trkpt>
      <trkpt lat="45.48108" lon="-0.78924">
        <ele>101.1</ele>
        <time>2022-08-11T12:47:11.459+02:00</time>
      </trkpt>
      <trkpt lat="45.48107" lon="-0.78924">
        <ele>100.8</ele>
        <time>2022-08-11T12:47:12.474+02:00</time>
      </trkpt>
      <trkpt lat="45.48112" lon="-0.78935">
        <ele>103.6</ele>
        <time>2022-08-11T12:47:20.471+02:00</time>
      </trkpt>
      <trkpt lat="45.48124" lon="-0.78934">
        <ele>104.5</ele>
        <time>2022-08-11T12:47:24.457+02:00</time>
      </trkpt>
      <trkpt lat="45.4813" lon="-0.78922">
        <ele>103</ele>
        <time>2022-08-11T12:47:29.472+02:00</time>
      </trkpt>
      <trkpt lat="45.4813" lon="-0.78908">
        <ele>102.6</ele>
        <time>2022-08-11T12:47:33.476+02:00</time>
      </trkpt>
      <trkpt lat="45.4813" lon="-0.78893">
        <ele>102.1</ele>
        <time>2022-08-11T12:47:37.474+02:00</time>
      </trkpt>
      <trkpt lat="45.48131" lon="-0.78879">
        <ele>102</ele>
        <time>2022-08-11T12:47:41.47+02:00</time>
      </trkpt>
      <trkpt lat="45.48132" lon="-0.78866">
        <ele>102.2</ele>
        <time>2022-08-11T12:47:46.459+02:00</time>
      </trkpt>
      <trkpt lat="45.48133" lon="-0.78852">
        <ele>101.9</ele>
        <time>2022-08-11T12:47:50.462+02:00</time>
      </trkpt>
      <trkpt lat="45.48135" lon="-0.78836">
        <ele>101.7</ele>
        <time>2022-08-11T12:47:54.469+02:00</time>
      </trkpt>
      <trkpt lat="45.48136" lon="-0.7882">
        <ele>102.1</ele>
        <time>2022-08-11T12:47:58.478+02:00</time>
      </trkpt>
      <trkpt lat="45.4814" lon="-0.78808">
        <ele>102.2</ele>
        <time>2022-08-11T12:48:02.46+02:00</time>
      </trkpt>
      <trkpt lat="45.48147" lon="-0.78796">
        <ele>103.4</ele>
        <time>2022-08-11T12:48:07.468+02:00</time>
      </trkpt>
      <trkpt lat="45.48149" lon="-0.78782">
        <ele>103</ele>
        <time>2022-08-11T12:48:11.476+02:00</time>
      </trkpt>
      <trkpt lat="45.48153" lon="-0.78766">
        <ele>102.6</ele>
        <time>2022-08-11T12:48:15.465+02:00</time>
      </trkpt>
      <trkpt lat="45.48155" lon="-0.78751">
        <ele>101.8</ele>
        <time>2022-08-11T12:48:19.474+02:00</time>
      </trkpt>
      <trkpt lat="45.48148" lon="-0.78738">
        <ele>100.6</ele>
        <time>2022-08-11T12:48:23.471+02:00</time>
      </trkpt>
      <trkpt lat="45.4814" lon="-0.78729">
        <ele>100.3</ele>
        <time>2022-08-11T12:48:27.462+02:00</time>
      </trkpt>
      <trkpt lat="45.48139" lon="-0.78727">
        <ele>99.8</ele>
        <time>2022-08-11T12:48:33.475+02:00</time>
      </trkpt>
      <trkpt lat="45.48139" lon="-0.78727">
        <ele>99.7</ele>
        <time>2022-08-11T12:48:34.464+02:00</time>
      </trkpt>
      <trkpt lat="45.48139" lon="-0.78727">
        <ele>99.7</ele>
        <time>2022-08-11T12:48:39.459+02:00</time>
      </trkpt>
      <trkpt lat="45.48139" lon="-0.78727">
        <ele>100.1</ele>
        <time>2022-08-11T12:48:40.481+02:00</time>
      </trkpt>
      <trkpt lat="45.48142" lon="-0.78713">
        <ele>99.5</ele>
        <time>2022-08-11T12:48:45.453+02:00</time>
      </trkpt>
      <trkpt lat="45.48149" lon="-0.78702">
        <ele>99.1</ele>
        <time>2022-08-11T12:48:48.471+02:00</time>
      </trkpt>
      <trkpt lat="45.48157" lon="-0.78691">
        <ele>98.8</ele>
        <time>2022-08-11T12:48:51.482+02:00</time>
      </trkpt>
      <trkpt lat="45.48165" lon="-0.78679">
        <ele>98.7</ele>
        <time>2022-08-11T12:48:54.475+02:00</time>
      </trkpt>
      <trkpt lat="45.48174" lon="-0.78667">
        <ele>98.9</ele>
        <time>2022-08-11T12:48:57.464+02:00</time>
      </trkpt>
      <trkpt lat="45.48183" lon="-0.78655">
        <ele>98.6</ele>
        <time>2022-08-11T12:49:00.476+02:00</time>
      </trkpt>
      <trkpt lat="45.4819" lon="-0.78644">
        <ele>98.1</ele>
        <time>2022-08-11T12:49:03.464+02:00</time>
      </trkpt>
      <trkpt lat="45.48198" lon="-0.78633">
        <ele>97.8</ele>
        <time>2022-08-11T12:49:06.441+02:00</time>
      </trkpt>
      <trkpt lat="45.48206" lon="-0.78623">
        <ele>97.1</ele>
        <time>2022-08-11T12:49:09.469+02:00</time>
      </trkpt>
      <trkpt lat="45.48213" lon="-0.78613">
        <ele>96.9</ele>
        <time>2022-08-11T12:49:12.461+02:00</time>
      </trkpt>
      <trkpt lat="45.48221" lon="-0.78603">
        <ele>97</ele>
        <time>2022-08-11T12:49:15.46+02:00</time>
      </trkpt>
      <trkpt lat="45.4823" lon="-0.78592">
        <ele>96.3</ele>
        <time>2022-08-11T12:49:18.46+02:00</time>
      </trkpt>
      <trkpt lat="45.48236" lon="-0.78582">
        <ele>96.1</ele>
        <time>2022-08-11T12:49:21.469+02:00</time>
      </trkpt>
      <trkpt lat="45.48246" lon="-0.78575">
        <ele>96</ele>
        <time>2022-08-11T12:49:26.471+02:00</time>
      </trkpt>
      <trkpt lat="45.48252" lon="-0.78568">
        <ele>95.6</ele>
        <time>2022-08-11T12:49:30.469+02:00</time>
      </trkpt>
      <trkpt lat="45.48252" lon="-0.78568">
        <ele>95.3</ele>
        <time>2022-08-11T12:49:31.468+02:00</time>
      </trkpt>
      <trkpt lat="45.48253" lon="-0.78568">
        <ele>95.1</ele>
        <time>2022-08-11T12:49:35.463+02:00</time>
      </trkpt>
      <trkpt lat="45.48253" lon="-0.78568">
        <ele>95</ele>
        <time>2022-08-11T12:49:36.462+02:00</time>
      </trkpt>
      <trkpt lat="45.48253" lon="-0.78568">
        <ele>95.4</ele>
        <time>2022-08-11T12:49:38.465+02:00</time>
      </trkpt>
      <trkpt lat="45.48253" lon="-0.7857">
        <ele>95.4</ele>
        <time>2022-08-11T12:49:39.474+02:00</time>
      </trkpt>
      <trkpt lat="45.48253" lon="-0.7857">
        <ele>95.6</ele>
        <time>2022-08-11T12:49:50.47+02:00</time>
      </trkpt>
      <trkpt lat="45.48254" lon="-0.7857">
        <ele>96.2</ele>
        <time>2022-08-11T12:49:51.455+02:00</time>
      </trkpt>
      <trkpt lat="45.48256" lon="-0.78567">
        <ele>98</ele>
        <time>2022-08-11T12:49:56.461+02:00</time>
      </trkpt>
      <trkpt lat="45.48256" lon="-0.78567">
        <ele>98.8</ele>
        <time>2022-08-11T12:49:57.475+02:00</time>
      </trkpt>
      <trkpt lat="45.48258" lon="-0.78568">
        <ele>99.8</ele>
        <time>2022-08-11T12:50:33.461+02:00</time>
      </trkpt>
      <trkpt lat="45.48257" lon="-0.78567">
        <ele>99.6</ele>
        <time>2022-08-11T12:50:34.464+02:00</time>
      </trkpt>
      <trkpt lat="45.48258" lon="-0.78562">
        <ele>100.8</ele>
        <time>2022-08-11T12:50:38.462+02:00</time>
      </trkpt>
      <trkpt lat="45.48258" lon="-0.7856">
        <ele>101.7</ele>
        <time>2022-08-11T12:50:39.467+02:00</time>
      </trkpt>
      <trkpt lat="45.48257" lon="-0.78559">
        <ele>102.6</ele>
        <time>2022-08-11T12:50:46.461+02:00</time>
      </trkpt>
      <trkpt lat="45.48256" lon="-0.78559">
        <ele>102.4</ele>
        <time>2022-08-11T12:50:47.452+02:00</time>
      </trkpt>
      <trkpt lat="45.48254" lon="-0.78563">
        <ele>100.8</ele>
        <time>2022-08-11T12:50:50.47+02:00</time>
      </trkpt>
      <trkpt lat="45.48253" lon="-0.78564">
        <ele>97.1</ele>
        <time>2022-08-11T12:50:51.477+02:00</time>
      </trkpt>
      <trkpt lat="45.48253" lon="-0.78564">
        <ele>96.1</ele>
        <time>2022-08-11T12:50:52.464+02:00</time>
      </trkpt>
      <trkpt lat="45.48253" lon="-0.78564">
        <ele>96.7</ele>
        <time>2022-08-11T12:50:53.47+02:00</time>
      </trkpt>
      <trkpt lat="45.48251" lon="-0.78564">
        <ele>95.9</ele>
        <time>2022-08-11T12:51:05.445+02:00</time>
      </trkpt>
      <trkpt lat="45.48251" lon="-0.78564">
        <ele>96.5</ele>
        <time>2022-08-11T12:51:06.449+02:00</time>
      </trkpt>
      <trkpt lat="45.48251" lon="-0.78564">
        <ele>96.5</ele>
        <time>2022-08-11T12:51:07.451+02:00</time>
      </trkpt>
      <trkpt lat="45.48251" lon="-0.78563">
        <ele>95.5</ele>
        <time>2022-08-11T12:51:46.454+02:00</time>
      </trkpt>
      <trkpt lat="45.4825" lon="-0.78563">
        <ele>95.1</ele>
        <time>2022-08-11T12:51:47.451+02:00</time>
      </trkpt>
      <trkpt lat="45.4825" lon="-0.78563">
        <ele>95.9</ele>
        <time>2022-08-11T12:51:48.459+02:00</time>
      </trkpt>
      <trkpt lat="45.48251" lon="-0.78565">
        <ele>100</ele>
        <time>2022-08-11T12:52:49.463+02:00</time>
      </trkpt>
      <trkpt lat="45.48251" lon="-0.78565">
        <ele>100.2</ele>
        <time>2022-08-11T12:52:50.455+02:00</time>
      </trkpt>
      <trkpt lat="45.48251" lon="-0.78565">
        <ele>100.6</ele>
        <time>2022-08-11T12:52:51.455+02:00</time>
      </trkpt>
      <trkpt lat="45.48251" lon="-0.78565">
        <ele>100.2</ele>
        <time>2022-08-11T12:52:54.443+02:00</time>
      </trkpt>
      <trkpt lat="45.48251" lon="-0.78565">
        <ele>100.1</ele>
        <time>2022-08-11T12:52:55.446+02:00</time>
      </trkpt>
      <trkpt lat="45.48252" lon="-0.78565">
        <ele>99.8</ele>
        <time>2022-08-11T12:52:56.451+02:00</time>
      </trkpt>
      <trkpt lat="45.48252" lon="-0.78565">
        <ele>99.9</ele>
        <time>2022-08-11T12:52:57.46+02:00</time>
      </trkpt>
      <trkpt lat="45.48252" lon="-0.78566">
        <ele>100.8</ele>
        <time>2022-08-11T12:53:42.452+02:00</time>
      </trkpt>
      <trkpt lat="45.48252" lon="-0.78565">
        <ele>100.8</ele>
        <time>2022-08-11T12:53:43.457+02:00</time>
      </trkpt>
      <trkpt lat="45.48244" lon="-0.78573">
        <ele>95.2</ele>
        <time>2022-08-11T12:53:52.458+02:00</time>
      </trkpt>
      <trkpt lat="45.48236" lon="-0.78586">
        <ele>96.1</ele>
        <time>2022-08-11T12:53:56.453+02:00</time>
      </trkpt>
      <trkpt lat="45.48228" lon="-0.78597">
        <ele>96.1</ele>
        <time>2022-08-11T12:53:59.453+02:00</time>
      </trkpt>
      <trkpt lat="45.48221" lon="-0.78608">
        <ele>96.4</ele>
        <time>2022-08-11T12:54:02.452+02:00</time>
      </trkpt>
      <trkpt lat="45.48213" lon="-0.78617">
        <ele>97.7</ele>
        <time>2022-08-11T12:54:05.446+02:00</time>
      </trkpt>
      <trkpt lat="45.48205" lon="-0.78627">
        <ele>97.6</ele>
        <time>2022-08-11T12:54:08.45+02:00</time>
      </trkpt>
      <trkpt lat="45.48197" lon="-0.78636">
        <ele>98.8</ele>
        <time>2022-08-11T12:54:11.456+02:00</time>
      </trkpt>
      <trkpt lat="45.48191" lon="-0.78645">
        <ele>98.5</ele>
        <time>2022-08-11T12:54:14.455+02:00</time>
      </trkpt>
      <trkpt lat="45.48183" lon="-0.78655">
        <ele>99.4</ele>
        <time>2022-08-11T12:54:17.454+02:00</time>
      </trkpt>
      <trkpt lat="45.48177" lon="-0.78665">
        <ele>99.4</ele>
        <time>2022-08-11T12:54:20.455+02:00</time>
      </trkpt>
      <trkpt lat="45.48169" lon="-0.78675">
        <ele>99.4</ele>
        <time>2022-08-11T12:54:23.451+02:00</time>
      </trkpt>
      <trkpt lat="45.48162" lon="-0.78684">
        <ele>99.3</ele>
        <time>2022-08-11T12:54:26.457+02:00</time>
      </trkpt>
      <trkpt lat="45.48156" lon="-0.78694">
        <ele>100.2</ele>
        <time>2022-08-11T12:54:29.454+02:00</time>
      </trkpt>
      <trkpt lat="45.4815" lon="-0.78704">
        <ele>102.1</ele>
        <time>2022-08-11T12:54:32.453+02:00</time>
      </trkpt>
      <trkpt lat="45.48144" lon="-0.78714">
        <ele>103.3</ele>
        <time>2022-08-11T12:54:35.447+02:00</time>
      </trkpt>
      <trkpt lat="45.48137" lon="-0.78727">
        <ele>103.1</ele>
        <time>2022-08-11T12:54:39.453+02:00</time>
      </trkpt>
      <trkpt lat="45.48132" lon="-0.78741">
        <ele>103.5</ele>
        <time>2022-08-11T12:54:43.453+02:00</time>
      </trkpt>
      <trkpt lat="45.48126" lon="-0.78753">
        <ele>102.2</ele>
        <time>2022-08-11T12:54:47.465+02:00</time>
      </trkpt>
      <trkpt lat="45.48122" lon="-0.78766">
        <ele>103.1</ele>
        <time>2022-08-11T12:54:51.447+02:00</time>
      </trkpt>
      <trkpt lat="45.48118" lon="-0.78778">
        <ele>103.2</ele>
        <time>2022-08-11T12:54:55.459+02:00</time>
      </trkpt>
      <trkpt lat="45.48113" lon="-0.7879">
        <ele>103.5</ele>
        <time>2022-08-11T12:55:01.467+02:00</time>
      </trkpt>
      <trkpt lat="45.48113" lon="-0.78784">
        <ele>102.6</ele>
        <time>2022-08-11T12:55:06.461+02:00</time>
      </trkpt>
      <trkpt lat="45.48114" lon="-0.78783">
        <ele>102.1</ele>
        <time>2022-08-11T12:55:07.473+02:00</time>
      </trkpt>
      <trkpt lat="45.48114" lon="-0.78783">
        <ele>102.1</ele>
        <time>2022-08-11T12:55:08.476+02:00</time>
      </trkpt>
      <trkpt lat="45.48114" lon="-0.78783">
        <ele>101.8</ele>
        <time>2022-08-11T12:55:09.469+02:00</time>
      </trkpt>
      <trkpt lat="45.48113" lon="-0.78783">
        <ele>101.9</ele>
        <time>2022-08-11T12:55:10.473+02:00</time>
      </trkpt>
      <trkpt lat="45.48113" lon="-0.78782">
        <ele>102.3</ele>
        <time>2022-08-11T12:55:24.454+02:00</time>
      </trkpt>
      <trkpt lat="45.48113" lon="-0.78783">
        <ele>102.1</ele>
        <time>2022-08-11T12:55:25.443+02:00</time>
      </trkpt>
      <trkpt lat="45.48106" lon="-0.78791">
        <ele>99.5</ele>
        <time>2022-08-11T12:55:50.448+02:00</time>
      </trkpt>
      <trkpt lat="45.48104" lon="-0.78793">
        <ele>98.8</ele>
        <time>2022-08-11T12:55:51.45+02:00</time>
      </trkpt>
      <trkpt lat="45.48103" lon="-0.78794">
        <ele>98.9</ele>
        <time>2022-08-11T12:55:52.444+02:00</time>
      </trkpt>
      <trkpt lat="45.48102" lon="-0.78794">
        <ele>98.9</ele>
        <time>2022-08-11T12:55:53.443+02:00</time>
      </trkpt>
      <trkpt lat="45.48102" lon="-0.78795">
        <ele>99.3</ele>
        <time>2022-08-11T12:55:54.441+02:00</time>
      </trkpt>
      <trkpt lat="45.48096" lon="-0.78781">
        <ele>98.9</ele>
        <time>2022-08-11T12:56:23.442+02:00</time>
      </trkpt>
      <trkpt lat="45.48096" lon="-0.78786">
        <ele>103.8</ele>
        <time>2022-08-11T12:56:25.448+02:00</time>
      </trkpt>
      <trkpt lat="45.48101" lon="-0.78786">
        <ele>105</ele>
        <time>2022-08-11T12:56:26.446+02:00</time>
      </trkpt>
      <trkpt lat="45.48108" lon="-0.78783">
        <ele>102.1</ele>
        <time>2022-08-11T12:56:30.447+02:00</time>
      </trkpt>
      <trkpt lat="45.4811" lon="-0.78782">
        <ele>103.3</ele>
        <time>2022-08-11T12:56:31.458+02:00</time>
      </trkpt>
      <trkpt lat="45.48111" lon="-0.78781">
        <ele>102.6</ele>
        <time>2022-08-11T12:56:32.449+02:00</time>
      </trkpt>
      <trkpt lat="45.48113" lon="-0.78781">
        <ele>101.2</ele>
        <time>2022-08-11T12:57:36.441+02:00</time>
      </trkpt>
      <trkpt lat="45.48116" lon="-0.78779">
        <ele>107.6</ele>
        <time>2022-08-11T12:57:37.449+02:00</time>
      </trkpt>
      <trkpt lat="45.48121" lon="-0.7878">
        <ele>109.3</ele>
        <time>2022-08-11T12:57:40.449+02:00</time>
      </trkpt>
      <trkpt lat="45.48122" lon="-0.78781">
        <ele>109.4</ele>
        <time>2022-08-11T12:57:41.442+02:00</time>
      </trkpt>
      <trkpt lat="45.48119" lon="-0.78782">
        <ele>108.2</ele>
        <time>2022-08-11T12:58:18.46+02:00</time>
      </trkpt>
      <trkpt lat="45.48119" lon="-0.78782">
        <ele>107.7</ele>
        <time>2022-08-11T12:58:19.441+02:00</time>
      </trkpt>
      <trkpt lat="45.48117" lon="-0.78782">
        <ele>104.4</ele>
        <time>2022-08-11T12:58:21.438+02:00</time>
      </trkpt>
      <trkpt lat="45.48115" lon="-0.78782">
        <ele>103.2</ele>
        <time>2022-08-11T12:58:22.447+02:00</time>
      </trkpt>
      <trkpt lat="45.48114" lon="-0.78781">
        <ele>101.1</ele>
        <time>2022-08-11T12:58:31.451+02:00</time>
      </trkpt>
      <trkpt lat="45.48114" lon="-0.78781">
        <ele>101.5</ele>
        <time>2022-08-11T12:58:32.45+02:00</time>
      </trkpt>
      <trkpt lat="45.48114" lon="-0.78781">
        <ele>101.2</ele>
        <time>2022-08-11T12:58:33.451+02:00</time>
      </trkpt>
      <trkpt lat="45.48114" lon="-0.7878">
        <ele>101.6</ele>
        <time>2022-08-11T12:58:34.453+02:00</time>
      </trkpt>
      <trkpt lat="45.48115" lon="-0.78779">
        <ele>102.6</ele>
        <time>2022-08-11T12:59:13.467+02:00</time>
      </trkpt>
      <trkpt lat="45.48115" lon="-0.7878">
        <ele>102.6</ele>
        <time>2022-08-11T12:59:14.468+02:00</time>
      </trkpt>
      <trkpt lat="45.48112" lon="-0.78795">
        <ele>102.2</ele>
        <time>2022-08-11T12:59:20.442+02:00</time>
      </trkpt>
      <trkpt lat="45.48107" lon="-0.78808">
        <ele>103.3</ele>
        <time>2022-08-11T12:59:23.453+02:00</time>
      </trkpt>
      <trkpt lat="45.48102" lon="-0.78822">
        <ele>104.2</ele>
        <time>2022-08-11T12:59:26.453+02:00</time>
      </trkpt>
      <trkpt lat="45.48097" lon="-0.78837">
        <ele>104.9</ele>
        <time>2022-08-11T12:59:29.449+02:00</time>
      </trkpt>
      <trkpt lat="45.48093" lon="-0.78851">
        <ele>104.9</ele>
        <time>2022-08-11T12:59:32.446+02:00</time>
      </trkpt>
      <trkpt lat="45.48088" lon="-0.78868">
        <ele>105</ele>
        <time>2022-08-11T12:59:35.449+02:00</time>
      </trkpt>
      <trkpt lat="45.48083" lon="-0.78884">
        <ele>104.3</ele>
        <time>2022-08-11T12:59:38.452+02:00</time>
      </trkpt>
      <trkpt lat="45.48079" lon="-0.78896">
        <ele>104.1</ele>
        <time>2022-08-11T12:59:40.448+02:00</time>
      </trkpt>
      <trkpt lat="45.48076" lon="-0.78908">
        <ele>104.4</ele>
        <time>2022-08-11T12:59:42.454+02:00</time>
      </trkpt>
      <trkpt lat="45.48075" lon="-0.78927">
        <ele>104.6</ele>
        <time>2022-08-11T12:59:45.46+02:00</time>
      </trkpt>
      <trkpt lat="45.48069" lon="-0.78942">
        <ele>104.7</ele>
        <time>2022-08-11T12:59:48.464+02:00</time>
      </trkpt>
      <trkpt lat="45.48067" lon="-0.78958">
        <ele>101.5</ele>
        <time>2022-08-11T12:59:51.449+02:00</time>
      </trkpt>
      <trkpt lat="45.48071" lon="-0.78972">
        <ele>101.7</ele>
        <time>2022-08-11T12:59:53.461+02:00</time>
      </trkpt>
      <trkpt lat="45.48075" lon="-0.78989">
        <ele>101.4</ele>
        <time>2022-08-11T12:59:55.457+02:00</time>
      </trkpt>
      <trkpt lat="45.48079" lon="-0.79008">
        <ele>100.2</ele>
        <time>2022-08-11T12:59:57.46+02:00</time>
      </trkpt>
      <trkpt lat="45.48083" lon="-0.79026">
        <ele>99.3</ele>
        <time>2022-08-11T12:59:59.457+02:00</time>
      </trkpt>
      <trkpt lat="45.48089" lon="-0.79046">
        <ele>98.1</ele>
        <time>2022-08-11T13:00:01.471+02:00</time>
      </trkpt>
      <trkpt lat="45.48094" lon="-0.79064">
        <ele>96.6</ele>
        <time>2022-08-11T13:00:03.465+02:00</time>
      </trkpt>
      <trkpt lat="45.48099" lon="-0.79083">
        <ele>96.8</ele>
        <time>2022-08-11T13:00:05.46+02:00</time>
      </trkpt>
      <trkpt lat="45.481" lon="-0.79102">
        <ele>90.5</ele>
        <time>2022-08-11T13:00:07.47+02:00</time>
      </trkpt>
      <trkpt lat="45.4809" lon="-0.7912">
        <ele>85.4</ele>
        <time>2022-08-11T13:00:09.463+02:00</time>
      </trkpt>
      <trkpt lat="45.48075" lon="-0.79131">
        <ele>87.6</ele>
        <time>2022-08-11T13:00:11.463+02:00</time>
      </trkpt>
      <trkpt lat="45.48058" lon="-0.79141">
        <ele>87.3</ele>
        <time>2022-08-11T13:00:13.454+02:00</time>
      </trkpt>
      <trkpt lat="45.4805" lon="-0.79147">
        <ele>86.5</ele>
        <time>2022-08-11T13:00:14.461+02:00</time>
      </trkpt>
      <trkpt lat="45.48041" lon="-0.79153">
        <ele>85.4</ele>
        <time>2022-08-11T13:00:15.473+02:00</time>
      </trkpt>
      <trkpt lat="45.48033" lon="-0.79159">
        <ele>84.9</ele>
        <time>2022-08-11T13:00:16.471+02:00</time>
      </trkpt>
      <trkpt lat="45.48024" lon="-0.79164">
        <ele>84.2</ele>
        <time>2022-08-11T13:00:17.461+02:00</time>
      </trkpt>
      <trkpt lat="45.48015" lon="-0.7917">
        <ele>83.2</ele>
        <time>2022-08-11T13:00:18.465+02:00</time>
      </trkpt>
      <trkpt lat="45.48005" lon="-0.79174">
        <ele>82.1</ele>
        <time>2022-08-11T13:00:19.48+02:00</time>
      </trkpt>
      <trkpt lat="45.47995" lon="-0.79177">
        <ele>81.7</ele>
        <time>2022-08-11T13:00:20.475+02:00</time>
      </trkpt>
      <trkpt lat="45.47985" lon="-0.79179">
        <ele>81.5</ele>
        <time>2022-08-11T13:00:21.473+02:00</time>
      </trkpt>
      <trkpt lat="45.47974" lon="-0.79182">
        <ele>81</ele>
        <time>2022-08-11T13:00:22.458+02:00</time>
      </trkpt>
      <trkpt lat="45.47964" lon="-0.79185">
        <ele>80.9</ele>
        <time>2022-08-11T13:00:23.454+02:00</time>
      </trkpt>
      <trkpt lat="45.47953" lon="-0.79185">
        <ele>81.2</ele>
        <time>2022-08-11T13:00:24.456+02:00</time>
      </trkpt>
      <trkpt lat="45.47941" lon="-0.79184">
        <ele>81.2</ele>
        <time>2022-08-11T13:00:25.461+02:00</time>
      </trkpt>
      <trkpt lat="45.4793" lon="-0.79178">
        <ele>81.1</ele>
        <time>2022-08-11T13:00:26.475+02:00</time>
      </trkpt>
      <trkpt lat="45.4792" lon="-0.79175">
        <ele>81</ele>
        <time>2022-08-11T13:00:27.476+02:00</time>
      </trkpt>
      <trkpt lat="45.47908" lon="-0.79172">
        <ele>80.9</ele>
        <time>2022-08-11T13:00:28.463+02:00</time>
      </trkpt>
      <trkpt lat="45.47898" lon="-0.79168">
        <ele>78.7</ele>
        <time>2022-08-11T13:00:29.462+02:00</time>
      </trkpt>
      <trkpt lat="45.47887" lon="-0.79167">
        <ele>74</ele>
        <time>2022-08-11T13:00:30.473+02:00</time>
      </trkpt>
      <trkpt lat="45.47878" lon="-0.79163">
        <ele>71.7</ele>
        <time>2022-08-11T13:00:31.474+02:00</time>
      </trkpt>
      <trkpt lat="45.47863" lon="-0.79153">
        <ele>66.7</ele>
        <time>2022-08-11T13:00:33.454+02:00</time>
      </trkpt>
      <trkpt lat="45.4785" lon="-0.79142">
        <ele>64.5</ele>
        <time>2022-08-11T13:00:35.46+02:00</time>
      </trkpt>
      <trkpt lat="45.47837" lon="-0.79133">
        <ele>64.2</ele>
        <time>2022-08-11T13:00:37.463+02:00</time>
      </trkpt>
      <trkpt lat="45.47825" lon="-0.79128">
        <ele>61.8</ele>
        <time>2022-08-11T13:00:39.472+02:00</time>
      </trkpt>
      <trkpt lat="45.47812" lon="-0.79137">
        <ele>60.3</ele>
        <time>2022-08-11T13:00:41.468+02:00</time>
      </trkpt>
      <trkpt lat="45.47802" lon="-0.79155">
        <ele>58.1</ele>
        <time>2022-08-11T13:00:43.463+02:00</time>
      </trkpt>
      <trkpt lat="45.47792" lon="-0.79175">
        <ele>56.8</ele>
        <time>2022-08-11T13:00:45.471+02:00</time>
      </trkpt>
      <trkpt lat="45.47784" lon="-0.79196">
        <ele>55.7</ele>
        <time>2022-08-11T13:00:47.469+02:00</time>
      </trkpt>
      <trkpt lat="45.47775" lon="-0.79214">
        <ele>54.8</ele>
        <time>2022-08-11T13:00:49.461+02:00</time>
      </trkpt>
      <trkpt lat="45.47769" lon="-0.79229">
        <ele>55</ele>
        <time>2022-08-11T13:00:51.455+02:00</time>
      </trkpt>
      <trkpt lat="45.47765" lon="-0.79241">
        <ele>54.8</ele>
        <time>2022-08-11T13:00:53.468+02:00</time>
      </trkpt>
      <trkpt lat="45.47755" lon="-0.79244">
        <ele>54</ele>
        <time>2022-08-11T13:00:59.463+02:00</time>
      </trkpt>
      <trkpt lat="45.47746" lon="-0.79235">
        <ele>54.3</ele>
        <time>2022-08-11T13:01:03.459+02:00</time>
      </trkpt>
      <trkpt lat="45.47736" lon="-0.79226">
        <ele>54.6</ele>
        <time>2022-08-11T13:01:06.459+02:00</time>
      </trkpt>
      <trkpt lat="45.47728" lon="-0.79215">
        <ele>54</ele>
        <time>2022-08-11T13:01:09.463+02:00</time>
      </trkpt>
      <trkpt lat="45.47717" lon="-0.79209">
        <ele>54.2</ele>
        <time>2022-08-11T13:01:12.46+02:00</time>
      </trkpt>
      <trkpt lat="45.47704" lon="-0.79203">
        <ele>54.4</ele>
        <time>2022-08-11T13:01:15.463+02:00</time>
      </trkpt>
      <trkpt lat="45.47691" lon="-0.79201">
        <ele>55</ele>
        <time>2022-08-11T13:01:18.464+02:00</time>
      </trkpt>
      <trkpt lat="45.47679" lon="-0.79206">
        <ele>54.7</ele>
        <time>2022-08-11T13:01:21.462+02:00</time>
      </trkpt>
      <trkpt lat="45.47669" lon="-0.79216">
        <ele>54.5</ele>
        <time>2022-08-11T13:01:24.458+02:00</time>
      </trkpt>
      <trkpt lat="45.47661" lon="-0.79226">
        <ele>54.4</ele>
        <time>2022-08-11T13:01:27.461+02:00</time>
      </trkpt>
      <trkpt lat="45.47651" lon="-0.79231">
        <ele>54.6</ele>
        <time>2022-08-11T13:01:31.467+02:00</time>
      </trkpt>
      <trkpt lat="45.47642" lon="-0.79225">
        <ele>53.1</ele>
        <time>2022-08-11T13:01:36.463+02:00</time>
      </trkpt>
      <trkpt lat="45.47639" lon="-0.79212">
        <ele>52</ele>
        <time>2022-08-11T13:01:41.463+02:00</time>
      </trkpt>
      <trkpt lat="45.4764" lon="-0.79211">
        <ele>51.8</ele>
        <time>2022-08-11T13:01:42.458+02:00</time>
      </trkpt>
      <trkpt lat="45.47639" lon="-0.7921">
        <ele>52.4</ele>
        <time>2022-08-11T13:01:46.46+02:00</time>
      </trkpt>
      <trkpt lat="45.47639" lon="-0.7921">
        <ele>52.5</ele>
        <time>2022-08-11T13:01:47.473+02:00</time>
      </trkpt>
      <trkpt lat="45.47638" lon="-0.7921">
        <ele>52.5</ele>
        <time>2022-08-11T13:01:49.462+02:00</time>
      </trkpt>
      <trkpt lat="45.47638" lon="-0.7921">
        <ele>52.1</ele>
        <time>2022-08-11T13:01:50.466+02:00</time>
      </trkpt>
      <trkpt lat="45.47639" lon="-0.79208">
        <ele>51.7</ele>
        <time>2022-08-11T13:02:02.441+02:00</time>
      </trkpt>
      <trkpt lat="45.4768" lon="-0.79519">
        <ele>36.4</ele>
        <time>2022-08-11T13:36:16.044+02:00</time>
      </trkpt>
      <trkpt lat="45.47679" lon="-0.79518">
        <ele>45.8</ele>
        <time>2022-08-11T13:36:16.43+02:00</time>
      </trkpt>
      <trkpt lat="45.47678" lon="-0.79518">
        <ele>48.8</ele>
        <time>2022-08-11T13:36:17.434+02:00</time>
      </trkpt>
      <trkpt lat="45.47681" lon="-0.79516">
        <ele>53.6</ele>
        <time>2022-08-11T13:36:39.457+02:00</time>
      </trkpt>
      <trkpt lat="45.4768" lon="-0.79513">
        <ele>53.7</ele>
        <time>2022-08-11T13:36:40.459+02:00</time>
      </trkpt>
      <trkpt lat="45.47671" lon="-0.79507">
        <ele>55.4</ele>
        <time>2022-08-11T13:36:45.463+02:00</time>
      </trkpt>
      <trkpt lat="45.47669" lon="-0.79493">
        <ele>53.9</ele>
        <time>2022-08-11T13:36:54.456+02:00</time>
      </trkpt>
      <trkpt lat="45.47673" lon="-0.7948">
        <ele>53.8</ele>
        <time>2022-08-11T13:36:58.468+02:00</time>
      </trkpt>
      <trkpt lat="45.47679" lon="-0.79466">
        <ele>53.9</ele>
        <time>2022-08-11T13:37:02.459+02:00</time>
      </trkpt>
      <trkpt lat="45.47685" lon="-0.79453">
        <ele>53.7</ele>
        <time>2022-08-11T13:37:06.459+02:00</time>
      </trkpt>
      <trkpt lat="45.4769" lon="-0.79441">
        <ele>53.6</ele>
        <time>2022-08-11T13:37:09.462+02:00</time>
      </trkpt>
      <trkpt lat="45.47694" lon="-0.7943">
        <ele>53.1</ele>
        <time>2022-08-11T13:37:12.465+02:00</time>
      </trkpt>
      <trkpt lat="45.477" lon="-0.79415">
        <ele>53.2</ele>
        <time>2022-08-11T13:37:16.461+02:00</time>
      </trkpt>
      <trkpt lat="45.47705" lon="-0.794">
        <ele>53.8</ele>
        <time>2022-08-11T13:37:20.462+02:00</time>
      </trkpt>
      <trkpt lat="45.4771" lon="-0.79386">
        <ele>54.1</ele>
        <time>2022-08-11T13:37:24.472+02:00</time>
      </trkpt>
      <trkpt lat="45.47714" lon="-0.79374">
        <ele>55.3</ele>
        <time>2022-08-11T13:37:27.448+02:00</time>
      </trkpt>
      <trkpt lat="45.47719" lon="-0.7936">
        <ele>54.2</ele>
        <time>2022-08-11T13:37:31.455+02:00</time>
      </trkpt>
      <trkpt lat="45.47723" lon="-0.79347">
        <ele>54.7</ele>
        <time>2022-08-11T13:37:34.454+02:00</time>
      </trkpt>
      <trkpt lat="45.47727" lon="-0.79335">
        <ele>55.3</ele>
        <time>2022-08-11T13:37:37.455+02:00</time>
      </trkpt>
      <trkpt lat="45.47733" lon="-0.79321">
        <ele>55</ele>
        <time>2022-08-11T13:37:41.454+02:00</time>
      </trkpt>
      <trkpt lat="45.47738" lon="-0.79308">
        <ele>55.1</ele>
        <time>2022-08-11T13:37:44.456+02:00</time>
      </trkpt>
      <trkpt lat="45.47742" lon="-0.79294">
        <ele>55.3</ele>
        <time>2022-08-11T13:37:47.453+02:00</time>
      </trkpt>
      <trkpt lat="45.47747" lon="-0.79281">
        <ele>55.5</ele>
        <time>2022-08-11T13:37:50.455+02:00</time>
      </trkpt>
      <trkpt lat="45.47752" lon="-0.79268">
        <ele>55.8</ele>
        <time>2022-08-11T13:37:54.444+02:00</time>
      </trkpt>
      <trkpt lat="45.47752" lon="-0.79255">
        <ele>55</ele>
        <time>2022-08-11T13:38:04.443+02:00</time>
      </trkpt>
      <trkpt lat="45.47749" lon="-0.79241">
        <ele>55.2</ele>
        <time>2022-08-11T13:38:12.439+02:00</time>
      </trkpt>
      <trkpt lat="45.47741" lon="-0.7923">
        <ele>55.4</ele>
        <time>2022-08-11T13:38:17.444+02:00</time>
      </trkpt>
      <trkpt lat="45.47732" lon="-0.79224">
        <ele>56</ele>
        <time>2022-08-11T13:38:20.469+02:00</time>
      </trkpt>
      <trkpt lat="45.47723" lon="-0.79218">
        <ele>56.2</ele>
        <time>2022-08-11T13:38:23.446+02:00</time>
      </trkpt>
      <trkpt lat="45.47715" lon="-0.79212">
        <ele>55.7</ele>
        <time>2022-08-11T13:38:26.446+02:00</time>
      </trkpt>
      <trkpt lat="45.47706" lon="-0.79206">
        <ele>55.4</ele>
        <time>2022-08-11T13:38:29.453+02:00</time>
      </trkpt>
      <trkpt lat="45.47696" lon="-0.792">
        <ele>55.1</ele>
        <time>2022-08-11T13:38:32.462+02:00</time>
      </trkpt>
      <trkpt lat="45.47686" lon="-0.79193">
        <ele>55.6</ele>
        <time>2022-08-11T13:38:35.459+02:00</time>
      </trkpt>
      <trkpt lat="45.47677" lon="-0.79184">
        <ele>54.7</ele>
        <time>2022-08-11T13:38:38.457+02:00</time>
      </trkpt>
      <trkpt lat="45.47678" lon="-0.7917">
        <ele>54.3</ele>
        <time>2022-08-11T13:38:41.454+02:00</time>
      </trkpt>
      <trkpt lat="45.47683" lon="-0.79158">
        <ele>53.1</ele>
        <time>2022-08-11T13:38:44.458+02:00</time>
      </trkpt>
      <trkpt lat="45.47688" lon="-0.79147">
        <ele>53.5</ele>
        <time>2022-08-11T13:38:47.453+02:00</time>
      </trkpt>
      <trkpt lat="45.47694" lon="-0.79135">
        <ele>53.4</ele>
        <time>2022-08-11T13:38:50.453+02:00</time>
      </trkpt>
      <trkpt lat="45.477" lon="-0.79125">
        <ele>53.5</ele>
        <time>2022-08-11T13:38:53.458+02:00</time>
      </trkpt>
      <trkpt lat="45.47706" lon="-0.79116">
        <ele>54.5</ele>
        <time>2022-08-11T13:38:57.448+02:00</time>
      </trkpt>
      <trkpt lat="45.47714" lon="-0.79104">
        <ele>54.5</ele>
        <time>2022-08-11T13:39:02.464+02:00</time>
      </trkpt>
      <trkpt lat="45.47711" lon="-0.79091">
        <ele>53.4</ele>
        <time>2022-08-11T13:39:08.438+02:00</time>
      </trkpt>
      <trkpt lat="45.47704" lon="-0.79082">
        <ele>53</ele>
        <time>2022-08-11T13:39:12.455+02:00</time>
      </trkpt>
      <trkpt lat="45.47697" lon="-0.79073">
        <ele>52.8</ele>
        <time>2022-08-11T13:39:15.459+02:00</time>
      </trkpt>
      <trkpt lat="45.47689" lon="-0.79061">
        <ele>52.1</ele>
        <time>2022-08-11T13:39:18.451+02:00</time>
      </trkpt>
      <trkpt lat="45.4768" lon="-0.7905">
        <ele>51.9</ele>
        <time>2022-08-11T13:39:21.452+02:00</time>
      </trkpt>
      <trkpt lat="45.47671" lon="-0.7904">
        <ele>52.5</ele>
        <time>2022-08-11T13:39:24.458+02:00</time>
      </trkpt>
      <trkpt lat="45.47661" lon="-0.79028">
        <ele>53.1</ele>
        <time>2022-08-11T13:39:27.453+02:00</time>
      </trkpt>
      <trkpt lat="45.47652" lon="-0.79017">
        <ele>53</ele>
        <time>2022-08-11T13:39:30.458+02:00</time>
      </trkpt>
      <trkpt lat="45.47642" lon="-0.79005">
        <ele>52.8</ele>
        <time>2022-08-11T13:39:33.459+02:00</time>
      </trkpt>
      <trkpt lat="45.47632" lon="-0.78993">
        <ele>53.1</ele>
        <time>2022-08-11T13:39:36.465+02:00</time>
      </trkpt>
      <trkpt lat="45.47623" lon="-0.78981">
        <ele>52.3</ele>
        <time>2022-08-11T13:39:39.456+02:00</time>
      </trkpt>
      <trkpt lat="45.47614" lon="-0.7897">
        <ele>52.8</ele>
        <time>2022-08-11T13:39:42.468+02:00</time>
      </trkpt>
      <trkpt lat="45.47604" lon="-0.78958">
        <ele>52.9</ele>
        <time>2022-08-11T13:39:45.455+02:00</time>
      </trkpt>
      <trkpt lat="45.47596" lon="-0.78947">
        <ele>52.5</ele>
        <time>2022-08-11T13:39:48.456+02:00</time>
      </trkpt>
      <trkpt lat="45.47588" lon="-0.78938">
        <ele>52.4</ele>
        <time>2022-08-11T13:39:51.455+02:00</time>
      </trkpt>
      <trkpt lat="45.47579" lon="-0.78927">
        <ele>52.4</ele>
        <time>2022-08-11T13:39:55.463+02:00</time>
      </trkpt>
      <trkpt lat="45.47571" lon="-0.78917">
        <ele>52.5</ele>
        <time>2022-08-11T13:39:58.458+02:00</time>
      </trkpt>
      <trkpt lat="45.47562" lon="-0.78906">
        <ele>53</ele>
        <time>2022-08-11T13:40:01.466+02:00</time>
      </trkpt>
      <trkpt lat="45.47553" lon="-0.78895">
        <ele>52.8</ele>
        <time>2022-08-11T13:40:04.46+02:00</time>
      </trkpt>
      <trkpt lat="45.47543" lon="-0.78883">
        <ele>52.7</ele>
        <time>2022-08-11T13:40:07.449+02:00</time>
      </trkpt>
      <trkpt lat="45.47534" lon="-0.7887">
        <ele>52.6</ele>
        <time>2022-08-11T13:40:10.454+02:00</time>
      </trkpt>
      <trkpt lat="45.47525" lon="-0.78858">
        <ele>52.2</ele>
        <time>2022-08-11T13:40:13.454+02:00</time>
      </trkpt>
      <trkpt lat="45.47516" lon="-0.78846">
        <ele>52.8</ele>
        <time>2022-08-11T13:40:16.458+02:00</time>
      </trkpt>
      <trkpt lat="45.47506" lon="-0.78834">
        <ele>52.8</ele>
        <time>2022-08-11T13:40:19.459+02:00</time>
      </trkpt>
      <trkpt lat="45.47497" lon="-0.78822">
        <ele>51.8</ele>
        <time>2022-08-11T13:40:22.449+02:00</time>
      </trkpt>
      <trkpt lat="45.47488" lon="-0.7881">
        <ele>51.8</ele>
        <time>2022-08-11T13:40:25.458+02:00</time>
      </trkpt>
      <trkpt lat="45.47479" lon="-0.78797">
        <ele>50.9</ele>
        <time>2022-08-11T13:40:28.461+02:00</time>
      </trkpt>
      <trkpt lat="45.47469" lon="-0.78785">
        <ele>52.4</ele>
        <time>2022-08-11T13:40:31.459+02:00</time>
      </trkpt>
      <trkpt lat="45.4746" lon="-0.78773">
        <ele>53.2</ele>
        <time>2022-08-11T13:40:34.448+02:00</time>
      </trkpt>
      <trkpt lat="45.4745" lon="-0.7876">
        <ele>52.5</ele>
        <time>2022-08-11T13:40:37.45+02:00</time>
      </trkpt>
      <trkpt lat="45.47441" lon="-0.78748">
        <ele>52.1</ele>
        <time>2022-08-11T13:40:40.452+02:00</time>
      </trkpt>
      <trkpt lat="45.47432" lon="-0.78735">
        <ele>51.6</ele>
        <time>2022-08-11T13:40:43.453+02:00</time>
      </trkpt>
      <trkpt lat="45.47422" lon="-0.78723">
        <ele>51.4</ele>
        <time>2022-08-11T13:40:46.466+02:00</time>
      </trkpt>
      <trkpt lat="45.47413" lon="-0.7871">
        <ele>51.8</ele>
        <time>2022-08-11T13:40:49.457+02:00</time>
      </trkpt>
      <trkpt lat="45.47403" lon="-0.78698">
        <ele>52.6</ele>
        <time>2022-08-11T13:40:52.458+02:00</time>
      </trkpt>
      <trkpt lat="45.47394" lon="-0.78685">
        <ele>52.6</ele>
        <time>2022-08-11T13:40:55.461+02:00</time>
      </trkpt>
      <trkpt lat="45.47385" lon="-0.78673">
        <ele>52.8</ele>
        <time>2022-08-11T13:40:58.461+02:00</time>
      </trkpt>
      <trkpt lat="45.47375" lon="-0.78661">
        <ele>52.7</ele>
        <time>2022-08-11T13:41:01.46+02:00</time>
      </trkpt>
      <trkpt lat="45.47365" lon="-0.78648">
        <ele>52.2</ele>
        <time>2022-08-11T13:41:04.458+02:00</time>
      </trkpt>
      <trkpt lat="45.47355" lon="-0.78636">
        <ele>52.2</ele>
        <time>2022-08-11T13:41:07.46+02:00</time>
      </trkpt>
      <trkpt lat="45.47346" lon="-0.78623">
        <ele>51.2</ele>
        <time>2022-08-11T13:41:10.461+02:00</time>
      </trkpt>
      <trkpt lat="45.47337" lon="-0.78611">
        <ele>51.4</ele>
        <time>2022-08-11T13:41:13.459+02:00</time>
      </trkpt>
      <trkpt lat="45.47328" lon="-0.78599">
        <ele>51.9</ele>
        <time>2022-08-11T13:41:16.459+02:00</time>
      </trkpt>
      <trkpt lat="45.47319" lon="-0.78587">
        <ele>51.9</ele>
        <time>2022-08-11T13:41:19.459+02:00</time>
      </trkpt>
      <trkpt lat="45.47309" lon="-0.78574">
        <ele>51.2</ele>
        <time>2022-08-11T13:41:22.456+02:00</time>
      </trkpt>
      <trkpt lat="45.47299" lon="-0.78561">
        <ele>51.4</ele>
        <time>2022-08-11T13:41:25.457+02:00</time>
      </trkpt>
      <trkpt lat="45.4729" lon="-0.78549">
        <ele>51.7</ele>
        <time>2022-08-11T13:41:28.465+02:00</time>
      </trkpt>
      <trkpt lat="45.47281" lon="-0.78536">
        <ele>51.3</ele>
        <time>2022-08-11T13:41:31.455+02:00</time>
      </trkpt>
      <trkpt lat="45.47271" lon="-0.78523">
        <ele>51.6</ele>
        <time>2022-08-11T13:41:34.458+02:00</time>
      </trkpt>
      <trkpt lat="45.47262" lon="-0.78511">
        <ele>51.2</ele>
        <time>2022-08-11T13:41:37.45+02:00</time>
      </trkpt>
      <trkpt lat="45.47252" lon="-0.78498">
        <ele>51.3</ele>
        <time>2022-08-11T13:41:40.453+02:00</time>
      </trkpt>
      <trkpt lat="45.47242" lon="-0.78486">
        <ele>51.2</ele>
        <time>2022-08-11T13:41:43.458+02:00</time>
      </trkpt>
      <trkpt lat="45.47235" lon="-0.78477">
        <ele>51.2</ele>
        <time>2022-08-11T13:41:45.444+02:00</time>
      </trkpt>
      <trkpt lat="45.47229" lon="-0.78468">
        <ele>50.9</ele>
        <time>2022-08-11T13:41:47.451+02:00</time>
      </trkpt>
      <trkpt lat="45.47219" lon="-0.78456">
        <ele>50.3</ele>
        <time>2022-08-11T13:41:50.455+02:00</time>
      </trkpt>
      <trkpt lat="45.47212" lon="-0.78447">
        <ele>51.4</ele>
        <time>2022-08-11T13:41:52.456+02:00</time>
      </trkpt>
      <trkpt lat="45.47203" lon="-0.78435">
        <ele>51.8</ele>
        <time>2022-08-11T13:41:55.457+02:00</time>
      </trkpt>
      <trkpt lat="45.47194" lon="-0.78422">
        <ele>52.2</ele>
        <time>2022-08-11T13:41:58.457+02:00</time>
      </trkpt>
      <trkpt lat="45.47184" lon="-0.78409">
        <ele>51.6</ele>
        <time>2022-08-11T13:42:01.458+02:00</time>
      </trkpt>
      <trkpt lat="45.47175" lon="-0.78397">
        <ele>49.9</ele>
        <time>2022-08-11T13:42:04.455+02:00</time>
      </trkpt>
      <trkpt lat="45.47167" lon="-0.78387">
        <ele>49.3</ele>
        <time>2022-08-11T13:42:07.452+02:00</time>
      </trkpt>
      <trkpt lat="45.47158" lon="-0.78376">
        <ele>50.6</ele>
        <time>2022-08-11T13:42:10.455+02:00</time>
      </trkpt>
      <trkpt lat="45.4715" lon="-0.78363">
        <ele>49.5</ele>
        <time>2022-08-11T13:42:13.455+02:00</time>
      </trkpt>
      <trkpt lat="45.47142" lon="-0.78351">
        <ele>48.7</ele>
        <time>2022-08-11T13:42:16.45+02:00</time>
      </trkpt>
      <trkpt lat="45.47132" lon="-0.78339">
        <ele>49.9</ele>
        <time>2022-08-11T13:42:19.456+02:00</time>
      </trkpt>
      <trkpt lat="45.47123" lon="-0.78326">
        <ele>49.8</ele>
        <time>2022-08-11T13:42:22.451+02:00</time>
      </trkpt>
      <trkpt lat="45.47114" lon="-0.78314">
        <ele>50.2</ele>
        <time>2022-08-11T13:42:25.458+02:00</time>
      </trkpt>
      <trkpt lat="45.47105" lon="-0.78301">
        <ele>49.9</ele>
        <time>2022-08-11T13:42:28.461+02:00</time>
      </trkpt>
      <trkpt lat="45.47095" lon="-0.78289">
        <ele>50.4</ele>
        <time>2022-08-11T13:42:31.457+02:00</time>
      </trkpt>
      <trkpt lat="45.47086" lon="-0.78276">
        <ele>50.6</ele>
        <time>2022-08-11T13:42:34.46+02:00</time>
      </trkpt>
      <trkpt lat="45.47077" lon="-0.78264">
        <ele>50.8</ele>
        <time>2022-08-11T13:42:37.449+02:00</time>
      </trkpt>
      <trkpt lat="45.47069" lon="-0.78253">
        <ele>50.9</ele>
        <time>2022-08-11T13:42:40.46+02:00</time>
      </trkpt>
      <trkpt lat="45.4706" lon="-0.78241">
        <ele>51.1</ele>
        <time>2022-08-11T13:42:43.457+02:00</time>
      </trkpt>
      <trkpt lat="45.47052" lon="-0.78232">
        <ele>51.7</ele>
        <time>2022-08-11T13:42:45.47+02:00</time>
      </trkpt>
      <trkpt lat="45.47044" lon="-0.78223">
        <ele>52.1</ele>
        <time>2022-08-11T13:42:47.446+02:00</time>
      </trkpt>
      <trkpt lat="45.47038" lon="-0.78213">
        <ele>52.1</ele>
        <time>2022-08-11T13:42:49.457+02:00</time>
      </trkpt>
      <trkpt lat="45.47031" lon="-0.78205">
        <ele>52</ele>
        <time>2022-08-11T13:42:51.457+02:00</time>
      </trkpt>
      <trkpt lat="45.47021" lon="-0.78193">
        <ele>52</ele>
        <time>2022-08-11T13:42:54.456+02:00</time>
      </trkpt>
      <trkpt lat="45.47011" lon="-0.7818">
        <ele>53</ele>
        <time>2022-08-11T13:42:57.447+02:00</time>
      </trkpt>
      <trkpt lat="45.47001" lon="-0.78167">
        <ele>53.3</ele>
        <time>2022-08-11T13:43:00.46+02:00</time>
      </trkpt>
      <trkpt lat="45.46992" lon="-0.78156">
        <ele>52.2</ele>
        <time>2022-08-11T13:43:03.457+02:00</time>
      </trkpt>
      <trkpt lat="45.46982" lon="-0.78143">
        <ele>51.3</ele>
        <time>2022-08-11T13:43:06.46+02:00</time>
      </trkpt>
      <trkpt lat="45.46973" lon="-0.7813">
        <ele>50.8</ele>
        <time>2022-08-11T13:43:09.459+02:00</time>
      </trkpt>
      <trkpt lat="45.46967" lon="-0.78121">
        <ele>51.4</ele>
        <time>2022-08-11T13:43:11.453+02:00</time>
      </trkpt>
      <trkpt lat="45.4696" lon="-0.78112">
        <ele>51.5</ele>
        <time>2022-08-11T13:43:13.457+02:00</time>
      </trkpt>
      <trkpt lat="45.46953" lon="-0.78103">
        <ele>51.2</ele>
        <time>2022-08-11T13:43:15.458+02:00</time>
      </trkpt>
      <trkpt lat="45.46946" lon="-0.78094">
        <ele>51.7</ele>
        <time>2022-08-11T13:43:17.454+02:00</time>
      </trkpt>
      <trkpt lat="45.4694" lon="-0.78085">
        <ele>51.4</ele>
        <time>2022-08-11T13:43:19.456+02:00</time>
      </trkpt>
      <trkpt lat="45.46933" lon="-0.78076">
        <ele>49.4</ele>
        <time>2022-08-11T13:43:21.459+02:00</time>
      </trkpt>
      <trkpt lat="45.46926" lon="-0.78067">
        <ele>49</ele>
        <time>2022-08-11T13:43:23.469+02:00</time>
      </trkpt>
      <trkpt lat="45.46917" lon="-0.78054">
        <ele>50.3</ele>
        <time>2022-08-11T13:43:26.459+02:00</time>
      </trkpt>
      <trkpt lat="45.46907" lon="-0.78041">
        <ele>51.1</ele>
        <time>2022-08-11T13:43:29.458+02:00</time>
      </trkpt>
      <trkpt lat="45.46898" lon="-0.78029">
        <ele>50.9</ele>
        <time>2022-08-11T13:43:32.45+02:00</time>
      </trkpt>
      <trkpt lat="45.46889" lon="-0.78017">
        <ele>51.2</ele>
        <time>2022-08-11T13:43:35.455+02:00</time>
      </trkpt>
      <trkpt lat="45.46879" lon="-0.78004">
        <ele>51.1</ele>
        <time>2022-08-11T13:43:38.456+02:00</time>
      </trkpt>
      <trkpt lat="45.4687" lon="-0.77992">
        <ele>51.1</ele>
        <time>2022-08-11T13:43:41.458+02:00</time>
      </trkpt>
      <trkpt lat="45.46863" lon="-0.77984">
        <ele>51.9</ele>
        <time>2022-08-11T13:43:43.458+02:00</time>
      </trkpt>
      <trkpt lat="45.46856" lon="-0.77975">
        <ele>52.1</ele>
        <time>2022-08-11T13:43:45.457+02:00</time>
      </trkpt>
      <trkpt lat="45.46846" lon="-0.77962">
        <ele>52.5</ele>
        <time>2022-08-11T13:43:48.445+02:00</time>
      </trkpt>
      <trkpt lat="45.46839" lon="-0.77953">
        <ele>52.8</ele>
        <time>2022-08-11T13:43:50.457+02:00</time>
      </trkpt>
      <trkpt lat="45.46833" lon="-0.77943">
        <ele>52.4</ele>
        <time>2022-08-11T13:43:52.455+02:00</time>
      </trkpt>
      <trkpt lat="45.46826" lon="-0.77935">
        <ele>51.1</ele>
        <time>2022-08-11T13:43:54.456+02:00</time>
      </trkpt>
      <trkpt lat="45.46816" lon="-0.77922">
        <ele>51.4</ele>
        <time>2022-08-11T13:43:57.454+02:00</time>
      </trkpt>
      <trkpt lat="45.46809" lon="-0.77913">
        <ele>52.5</ele>
        <time>2022-08-11T13:43:59.466+02:00</time>
      </trkpt>
      <trkpt lat="45.46802" lon="-0.77904">
        <ele>52.3</ele>
        <time>2022-08-11T13:44:01.456+02:00</time>
      </trkpt>
      <trkpt lat="45.46792" lon="-0.77891">
        <ele>52.2</ele>
        <time>2022-08-11T13:44:04.465+02:00</time>
      </trkpt>
      <trkpt lat="45.46783" lon="-0.7788">
        <ele>52.6</ele>
        <time>2022-08-11T13:44:07.443+02:00</time>
      </trkpt>
      <trkpt lat="45.46775" lon="-0.77871">
        <ele>54.4</ele>
        <time>2022-08-11T13:44:10.455+02:00</time>
      </trkpt>
      <trkpt lat="45.46767" lon="-0.77859">
        <ele>55.3</ele>
        <time>2022-08-11T13:44:14.462+02:00</time>
      </trkpt>
      <trkpt lat="45.46765" lon="-0.77842">
        <ele>54.6</ele>
        <time>2022-08-11T13:44:18.464+02:00</time>
      </trkpt>
      <trkpt lat="45.46764" lon="-0.77828">
        <ele>52.9</ele>
        <time>2022-08-11T13:44:21.46+02:00</time>
      </trkpt>
      <trkpt lat="45.46763" lon="-0.77812">
        <ele>52.7</ele>
        <time>2022-08-11T13:44:24.465+02:00</time>
      </trkpt>
      <trkpt lat="45.46767" lon="-0.77796">
        <ele>52</ele>
        <time>2022-08-11T13:44:28.459+02:00</time>
      </trkpt>
      <trkpt lat="45.46772" lon="-0.77783">
        <ele>52.8</ele>
        <time>2022-08-11T13:44:31.455+02:00</time>
      </trkpt>
      <trkpt lat="45.46778" lon="-0.77773">
        <ele>53.7</ele>
        <time>2022-08-11T13:44:34.452+02:00</time>
      </trkpt>
      <trkpt lat="45.46784" lon="-0.77761">
        <ele>54.8</ele>
        <time>2022-08-11T13:44:38.452+02:00</time>
      </trkpt>
      <trkpt lat="45.4679" lon="-0.77749">
        <ele>58</ele>
        <time>2022-08-11T13:44:42.452+02:00</time>
      </trkpt>
      <trkpt lat="45.46797" lon="-0.77739">
        <ele>58</ele>
        <time>2022-08-11T13:44:45.458+02:00</time>
      </trkpt>
      <trkpt lat="45.46803" lon="-0.77729">
        <ele>57.4</ele>
        <time>2022-08-11T13:44:48.433+02:00</time>
      </trkpt>
      <trkpt lat="45.4681" lon="-0.77718">
        <ele>57.6</ele>
        <time>2022-08-11T13:44:52.431+02:00</time>
      </trkpt>
      <trkpt lat="45.46816" lon="-0.77717">
        <ele>55.1</ele>
        <time>2022-08-11T13:45:01.433+02:00</time>
      </trkpt>
      <trkpt lat="45.46816" lon="-0.77717">
        <ele>55.7</ele>
        <time>2022-08-11T13:45:02.432+02:00</time>
      </trkpt>
      <trkpt lat="45.46817" lon="-0.77717">
        <ele>57.2</ele>
        <time>2022-08-11T13:45:07.453+02:00</time>
      </trkpt>
      <trkpt lat="45.46817" lon="-0.77717">
        <ele>57.1</ele>
        <time>2022-08-11T13:45:08.442+02:00</time>
      </trkpt>
      <trkpt lat="45.46806" lon="-0.7772">
        <ele>54.3</ele>
        <time>2022-08-11T13:45:17.432+02:00</time>
      </trkpt>
      <trkpt lat="45.46799" lon="-0.7773">
        <ele>54.7</ele>
        <time>2022-08-11T13:45:20.44+02:00</time>
      </trkpt>
      <trkpt lat="45.46793" lon="-0.77742">
        <ele>55.5</ele>
        <time>2022-08-11T13:45:23.438+02:00</time>
      </trkpt>
      <trkpt lat="45.46787" lon="-0.77752">
        <ele>55.5</ele>
        <time>2022-08-11T13:45:26.446+02:00</time>
      </trkpt>
      <trkpt lat="45.46781" lon="-0.77765">
        <ele>56.4</ele>
        <time>2022-08-11T13:45:29.438+02:00</time>
      </trkpt>
      <trkpt lat="45.46774" lon="-0.7778">
        <ele>56</ele>
        <time>2022-08-11T13:45:32.443+02:00</time>
      </trkpt>
      <trkpt lat="45.46768" lon="-0.77795">
        <ele>56.6</ele>
        <time>2022-08-11T13:45:35.438+02:00</time>
      </trkpt>
      <trkpt lat="45.46765" lon="-0.77812">
        <ele>55.7</ele>
        <time>2022-08-11T13:45:38.437+02:00</time>
      </trkpt>
      <trkpt lat="45.46765" lon="-0.77828">
        <ele>56.9</ele>
        <time>2022-08-11T13:45:41.44+02:00</time>
      </trkpt>
      <trkpt lat="45.46764" lon="-0.77841">
        <ele>56.6</ele>
        <time>2022-08-11T13:45:44.444+02:00</time>
      </trkpt>
      <trkpt lat="45.46753" lon="-0.77843">
        <ele>54.2</ele>
        <time>2022-08-11T13:45:50.436+02:00</time>
      </trkpt>
      <trkpt lat="45.46748" lon="-0.77831">
        <ele>53.2</ele>
        <time>2022-08-11T13:45:56.437+02:00</time>
      </trkpt>
      <trkpt lat="45.4675" lon="-0.77815">
        <ele>52.8</ele>
        <time>2022-08-11T13:46:00.459+02:00</time>
      </trkpt>
      <trkpt lat="45.46749" lon="-0.778">
        <ele>52.7</ele>
        <time>2022-08-11T13:46:04.458+02:00</time>
      </trkpt>
      <trkpt lat="45.46748" lon="-0.77786">
        <ele>51.2</ele>
        <time>2022-08-11T13:46:09.441+02:00</time>
      </trkpt>
      <trkpt lat="45.46748" lon="-0.77782">
        <ele>52.1</ele>
        <time>2022-08-11T13:46:12.453+02:00</time>
      </trkpt>
      <trkpt lat="45.46748" lon="-0.77782">
        <ele>52.2</ele>
        <time>2022-08-11T13:46:13.45+02:00</time>
      </trkpt>
      <trkpt lat="45.46748" lon="-0.77781">
        <ele>52.8</ele>
        <time>2022-08-11T13:46:15.445+02:00</time>
      </trkpt>
      <trkpt lat="45.46748" lon="-0.77781">
        <ele>53</ele>
        <time>2022-08-11T13:46:16.456+02:00</time>
      </trkpt>
      <trkpt lat="45.46749" lon="-0.77781">
        <ele>52.9</ele>
        <time>2022-08-11T13:46:17.448+02:00</time>
      </trkpt>
      <trkpt lat="45.46749" lon="-0.77781">
        <ele>54.2</ele>
        <time>2022-08-11T13:46:21.431+02:00</time>
      </trkpt>
      <trkpt lat="45.46749" lon="-0.7778">
        <ele>54</ele>
        <time>2022-08-11T13:46:22.433+02:00</time>
      </trkpt>
      <trkpt lat="45.46749" lon="-0.7778">
        <ele>54.3</ele>
        <time>2022-08-11T13:46:23.463+02:00</time>
      </trkpt>
      <trkpt lat="45.46748" lon="-0.7778">
        <ele>54.6</ele>
        <time>2022-08-11T13:46:26.434+02:00</time>
      </trkpt>
      <trkpt lat="45.46748" lon="-0.7778">
        <ele>55</ele>
        <time>2022-08-11T13:46:27.449+02:00</time>
      </trkpt>
      <trkpt lat="45.46749" lon="-0.77779">
        <ele>55.2</ele>
        <time>2022-08-11T13:46:28.467+02:00</time>
      </trkpt>
      <trkpt lat="45.46749" lon="-0.7778">
        <ele>54.9</ele>
        <time>2022-08-11T13:46:29.449+02:00</time>
      </trkpt>
      <trkpt lat="45.46748" lon="-0.77779">
        <ele>55.1</ele>
        <time>2022-08-11T13:46:30.468+02:00</time>
      </trkpt>
      <trkpt lat="45.46749" lon="-0.77779">
        <ele>55.2</ele>
        <time>2022-08-11T13:46:31.44+02:00</time>
      </trkpt>
      <trkpt lat="45.46749" lon="-0.77779">
        <ele>55.1</ele>
        <time>2022-08-11T13:46:52.455+02:00</time>
      </trkpt>
      <trkpt lat="45.46749" lon="-0.7778">
        <ele>55</ele>
        <time>2022-08-11T13:46:53.443+02:00</time>
      </trkpt>
      <trkpt lat="45.46749" lon="-0.77795">
        <ele>53.6</ele>
        <time>2022-08-11T13:46:59.465+02:00</time>
      </trkpt>
      <trkpt lat="45.46751" lon="-0.77808">
        <ele>53.9</ele>
        <time>2022-08-11T13:47:02.447+02:00</time>
      </trkpt>
      <trkpt lat="45.4675" lon="-0.77824">
        <ele>52.9</ele>
        <time>2022-08-11T13:47:06.456+02:00</time>
      </trkpt>
      <trkpt lat="45.46748" lon="-0.77837">
        <ele>53.2</ele>
        <time>2022-08-11T13:47:09.453+02:00</time>
      </trkpt>
      <trkpt lat="45.46743" lon="-0.77848">
        <ele>53.6</ele>
        <time>2022-08-11T13:47:13.466+02:00</time>
      </trkpt>
      <trkpt lat="45.46734" lon="-0.77841">
        <ele>53.1</ele>
        <time>2022-08-11T13:47:16.456+02:00</time>
      </trkpt>
      <trkpt lat="45.4673" lon="-0.77826">
        <ele>53.3</ele>
        <time>2022-08-11T13:47:18.458+02:00</time>
      </trkpt>
      <trkpt lat="45.46724" lon="-0.77815">
        <ele>53.1</ele>
        <time>2022-08-11T13:47:20.455+02:00</time>
      </trkpt>
      <trkpt lat="45.46718" lon="-0.77803">
        <ele>53.1</ele>
        <time>2022-08-11T13:47:22.452+02:00</time>
      </trkpt>
      <trkpt lat="45.46712" lon="-0.77791">
        <ele>53.3</ele>
        <time>2022-08-11T13:47:24.453+02:00</time>
      </trkpt>
      <trkpt lat="45.46706" lon="-0.77779">
        <ele>53.1</ele>
        <time>2022-08-11T13:47:26.449+02:00</time>
      </trkpt>
      <trkpt lat="45.46698" lon="-0.77764">
        <ele>53.3</ele>
        <time>2022-08-11T13:47:29.458+02:00</time>
      </trkpt>
      <trkpt lat="45.46693" lon="-0.77753">
        <ele>53.2</ele>
        <time>2022-08-11T13:47:31.453+02:00</time>
      </trkpt>
      <trkpt lat="45.46685" lon="-0.77738">
        <ele>53.2</ele>
        <time>2022-08-11T13:47:34.465+02:00</time>
      </trkpt>
      <trkpt lat="45.46677" lon="-0.77722">
        <ele>52.9</ele>
        <time>2022-08-11T13:47:37.448+02:00</time>
      </trkpt>
      <trkpt lat="45.46672" lon="-0.77711">
        <ele>52.9</ele>
        <time>2022-08-11T13:47:39.472+02:00</time>
      </trkpt>
      <trkpt lat="45.46667" lon="-0.77701">
        <ele>52.2</ele>
        <time>2022-08-11T13:47:41.459+02:00</time>
      </trkpt>
      <trkpt lat="45.46661" lon="-0.7769">
        <ele>52.4</ele>
        <time>2022-08-11T13:47:43.446+02:00</time>
      </trkpt>
      <trkpt lat="45.46656" lon="-0.77679">
        <ele>52.6</ele>
        <time>2022-08-11T13:47:45.446+02:00</time>
      </trkpt>
      <trkpt lat="45.4665" lon="-0.77668">
        <ele>52.5</ele>
        <time>2022-08-11T13:47:47.449+02:00</time>
      </trkpt>
      <trkpt lat="45.46645" lon="-0.77657">
        <ele>52.5</ele>
        <time>2022-08-11T13:47:49.457+02:00</time>
      </trkpt>
      <trkpt lat="45.46639" lon="-0.77646">
        <ele>52.9</ele>
        <time>2022-08-11T13:47:51.458+02:00</time>
      </trkpt>
      <trkpt lat="45.46633" lon="-0.77635">
        <ele>52.9</ele>
        <time>2022-08-11T13:47:53.457+02:00</time>
      </trkpt>
      <trkpt lat="45.46628" lon="-0.77622">
        <ele>52.9</ele>
        <time>2022-08-11T13:47:55.45+02:00</time>
      </trkpt>
      <trkpt lat="45.46622" lon="-0.77611">
        <ele>52.5</ele>
        <time>2022-08-11T13:47:57.446+02:00</time>
      </trkpt>
      <trkpt lat="45.46616" lon="-0.77598">
        <ele>52.4</ele>
        <time>2022-08-11T13:47:59.451+02:00</time>
      </trkpt>
      <trkpt lat="45.4661" lon="-0.77587">
        <ele>52.7</ele>
        <time>2022-08-11T13:48:01.452+02:00</time>
      </trkpt>
      <trkpt lat="45.46605" lon="-0.77576">
        <ele>53</ele>
        <time>2022-08-11T13:48:03.459+02:00</time>
      </trkpt>
      <trkpt lat="45.46596" lon="-0.77561">
        <ele>53</ele>
        <time>2022-08-11T13:48:06.458+02:00</time>
      </trkpt>
      <trkpt lat="45.4659" lon="-0.7755">
        <ele>53</ele>
        <time>2022-08-11T13:48:08.46+02:00</time>
      </trkpt>
      <trkpt lat="45.46585" lon="-0.77539">
        <ele>53.2</ele>
        <time>2022-08-11T13:48:10.457+02:00</time>
      </trkpt>
      <trkpt lat="45.46579" lon="-0.77528">
        <ele>53.4</ele>
        <time>2022-08-11T13:48:12.447+02:00</time>
      </trkpt>
      <trkpt lat="45.46572" lon="-0.77512">
        <ele>53.4</ele>
        <time>2022-08-11T13:48:15.452+02:00</time>
      </trkpt>
      <trkpt lat="45.46564" lon="-0.77496">
        <ele>52.8</ele>
        <time>2022-08-11T13:48:18.45+02:00</time>
      </trkpt>
      <trkpt lat="45.46558" lon="-0.77486">
        <ele>52.7</ele>
        <time>2022-08-11T13:48:20.453+02:00</time>
      </trkpt>
      <trkpt lat="45.46551" lon="-0.7747">
        <ele>52.7</ele>
        <time>2022-08-11T13:48:23.454+02:00</time>
      </trkpt>
      <trkpt lat="45.46546" lon="-0.77459">
        <ele>52.6</ele>
        <time>2022-08-11T13:48:25.457+02:00</time>
      </trkpt>
      <trkpt lat="45.4654" lon="-0.77448">
        <ele>52.7</ele>
        <time>2022-08-11T13:48:27.445+02:00</time>
      </trkpt>
      <trkpt lat="45.46534" lon="-0.77437">
        <ele>52.7</ele>
        <time>2022-08-11T13:48:29.457+02:00</time>
      </trkpt>
      <trkpt lat="45.46526" lon="-0.77422">
        <ele>53</ele>
        <time>2022-08-11T13:48:32.462+02:00</time>
      </trkpt>
      <trkpt lat="45.46518" lon="-0.77407">
        <ele>52.9</ele>
        <time>2022-08-11T13:48:35.467+02:00</time>
      </trkpt>
      <trkpt lat="45.46511" lon="-0.77393">
        <ele>53.2</ele>
        <time>2022-08-11T13:48:38.471+02:00</time>
      </trkpt>
      <trkpt lat="45.46504" lon="-0.77378">
        <ele>53.1</ele>
        <time>2022-08-11T13:48:41.463+02:00</time>
      </trkpt>
      <trkpt lat="45.46496" lon="-0.77363">
        <ele>53.1</ele>
        <time>2022-08-11T13:48:44.459+02:00</time>
      </trkpt>
      <trkpt lat="45.46489" lon="-0.77348">
        <ele>53.2</ele>
        <time>2022-08-11T13:48:47.446+02:00</time>
      </trkpt>
      <trkpt lat="45.46481" lon="-0.77333">
        <ele>53.3</ele>
        <time>2022-08-11T13:48:50.452+02:00</time>
      </trkpt>
      <trkpt lat="45.46474" lon="-0.77319">
        <ele>53</ele>
        <time>2022-08-11T13:48:53.439+02:00</time>
      </trkpt>
      <trkpt lat="45.46467" lon="-0.77305">
        <ele>52.9</ele>
        <time>2022-08-11T13:48:56.457+02:00</time>
      </trkpt>
      <trkpt lat="45.46461" lon="-0.77295">
        <ele>52.8</ele>
        <time>2022-08-11T13:48:58.451+02:00</time>
      </trkpt>
      <trkpt lat="45.46453" lon="-0.77279">
        <ele>53.2</ele>
        <time>2022-08-11T13:49:01.453+02:00</time>
      </trkpt>
      <trkpt lat="45.46448" lon="-0.77268">
        <ele>53.3</ele>
        <time>2022-08-11T13:49:03.46+02:00</time>
      </trkpt>
      <trkpt lat="45.46443" lon="-0.77257">
        <ele>53.4</ele>
        <time>2022-08-11T13:49:05.462+02:00</time>
      </trkpt>
      <trkpt lat="45.46435" lon="-0.77242">
        <ele>53.4</ele>
        <time>2022-08-11T13:49:08.461+02:00</time>
      </trkpt>
      <trkpt lat="45.46426" lon="-0.77228">
        <ele>53.5</ele>
        <time>2022-08-11T13:49:11.464+02:00</time>
      </trkpt>
      <trkpt lat="45.46418" lon="-0.77219">
        <ele>53.5</ele>
        <time>2022-08-11T13:49:13.459+02:00</time>
      </trkpt>
      <trkpt lat="45.46411" lon="-0.77211">
        <ele>53.5</ele>
        <time>2022-08-11T13:49:15.453+02:00</time>
      </trkpt>
      <trkpt lat="45.46403" lon="-0.77202">
        <ele>53.3</ele>
        <time>2022-08-11T13:49:17.451+02:00</time>
      </trkpt>
      <trkpt lat="45.46395" lon="-0.77194">
        <ele>53.5</ele>
        <time>2022-08-11T13:49:19.461+02:00</time>
      </trkpt>
      <trkpt lat="45.46387" lon="-0.77187">
        <ele>53.5</ele>
        <time>2022-08-11T13:49:21.443+02:00</time>
      </trkpt>
      <trkpt lat="45.46379" lon="-0.77179">
        <ele>53.6</ele>
        <time>2022-08-11T13:49:23.455+02:00</time>
      </trkpt>
      <trkpt lat="45.46372" lon="-0.77171">
        <ele>53</ele>
        <time>2022-08-11T13:49:25.457+02:00</time>
      </trkpt>
      <trkpt lat="45.46364" lon="-0.77163">
        <ele>53.6</ele>
        <time>2022-08-11T13:49:27.435+02:00</time>
      </trkpt>
      <trkpt lat="45.46356" lon="-0.77155">
        <ele>53.6</ele>
        <time>2022-08-11T13:49:29.446+02:00</time>
      </trkpt>
      <trkpt lat="45.46348" lon="-0.77147">
        <ele>53.4</ele>
        <time>2022-08-11T13:49:31.452+02:00</time>
      </trkpt>
      <trkpt lat="45.4634" lon="-0.7714">
        <ele>53.8</ele>
        <time>2022-08-11T13:49:33.438+02:00</time>
      </trkpt>
      <trkpt lat="45.46329" lon="-0.77129">
        <ele>53.5</ele>
        <time>2022-08-11T13:49:36.441+02:00</time>
      </trkpt>
      <trkpt lat="45.46318" lon="-0.77118">
        <ele>54</ele>
        <time>2022-08-11T13:49:39.479+02:00</time>
      </trkpt>
      <trkpt lat="45.46311" lon="-0.7711">
        <ele>54.2</ele>
        <time>2022-08-11T13:49:41.436+02:00</time>
      </trkpt>
      <trkpt lat="45.46303" lon="-0.77103">
        <ele>54.1</ele>
        <time>2022-08-11T13:49:43.48+02:00</time>
      </trkpt>
      <trkpt lat="45.46295" lon="-0.77096">
        <ele>53.6</ele>
        <time>2022-08-11T13:49:45.434+02:00</time>
      </trkpt>
      <trkpt lat="45.46287" lon="-0.77088">
        <ele>53.5</ele>
        <time>2022-08-11T13:49:47.431+02:00</time>
      </trkpt>
      <trkpt lat="45.4628" lon="-0.7708">
        <ele>53.7</ele>
        <time>2022-08-11T13:49:49.431+02:00</time>
      </trkpt>
      <trkpt lat="45.46271" lon="-0.77071">
        <ele>54</ele>
        <time>2022-08-11T13:49:51.441+02:00</time>
      </trkpt>
      <trkpt lat="45.46263" lon="-0.77064">
        <ele>53.9</ele>
        <time>2022-08-11T13:49:53.468+02:00</time>
      </trkpt>
      <trkpt lat="45.46255" lon="-0.77056">
        <ele>54.1</ele>
        <time>2022-08-11T13:49:55.454+02:00</time>
      </trkpt>
      <trkpt lat="45.46247" lon="-0.77049">
        <ele>54</ele>
        <time>2022-08-11T13:49:57.438+02:00</time>
      </trkpt>
      <trkpt lat="45.46238" lon="-0.77043">
        <ele>53.7</ele>
        <time>2022-08-11T13:49:59.459+02:00</time>
      </trkpt>
      <trkpt lat="45.4623" lon="-0.77038">
        <ele>53</ele>
        <time>2022-08-11T13:50:01.463+02:00</time>
      </trkpt>
      <trkpt lat="45.46221" lon="-0.77034">
        <ele>53.1</ele>
        <time>2022-08-11T13:50:03.458+02:00</time>
      </trkpt>
      <trkpt lat="45.46211" lon="-0.7703">
        <ele>53.3</ele>
        <time>2022-08-11T13:50:05.465+02:00</time>
      </trkpt>
      <trkpt lat="45.46201" lon="-0.77027">
        <ele>53.2</ele>
        <time>2022-08-11T13:50:07.444+02:00</time>
      </trkpt>
      <trkpt lat="45.46191" lon="-0.77025">
        <ele>53.4</ele>
        <time>2022-08-11T13:50:09.468+02:00</time>
      </trkpt>
      <trkpt lat="45.46181" lon="-0.77023">
        <ele>53.6</ele>
        <time>2022-08-11T13:50:11.446+02:00</time>
      </trkpt>
      <trkpt lat="45.4617" lon="-0.77022">
        <ele>53.7</ele>
        <time>2022-08-11T13:50:13.453+02:00</time>
      </trkpt>
      <trkpt lat="45.46159" lon="-0.77021">
        <ele>53.7</ele>
        <time>2022-08-11T13:50:15.458+02:00</time>
      </trkpt>
      <trkpt lat="45.46147" lon="-0.7702">
        <ele>53.5</ele>
        <time>2022-08-11T13:50:17.439+02:00</time>
      </trkpt>
      <trkpt lat="45.46136" lon="-0.77019">
        <ele>53.7</ele>
        <time>2022-08-11T13:50:19.455+02:00</time>
      </trkpt>
      <trkpt lat="45.46124" lon="-0.77017">
        <ele>53.8</ele>
        <time>2022-08-11T13:50:21.465+02:00</time>
      </trkpt>
      <trkpt lat="45.46113" lon="-0.77016">
        <ele>53.4</ele>
        <time>2022-08-11T13:50:23.451+02:00</time>
      </trkpt>
      <trkpt lat="45.46102" lon="-0.77015">
        <ele>53.6</ele>
        <time>2022-08-11T13:50:25.464+02:00</time>
      </trkpt>
      <trkpt lat="45.46091" lon="-0.77014">
        <ele>53.6</ele>
        <time>2022-08-11T13:50:27.432+02:00</time>
      </trkpt>
      <trkpt lat="45.4608" lon="-0.77012">
        <ele>54.1</ele>
        <time>2022-08-11T13:50:29.455+02:00</time>
      </trkpt>
      <trkpt lat="45.46069" lon="-0.77011">
        <ele>54</ele>
        <time>2022-08-11T13:50:31.455+02:00</time>
      </trkpt>
      <trkpt lat="45.46059" lon="-0.7701">
        <ele>53.8</ele>
        <time>2022-08-11T13:50:33.447+02:00</time>
      </trkpt>
      <trkpt lat="45.46048" lon="-0.77008">
        <ele>53.8</ele>
        <time>2022-08-11T13:50:35.451+02:00</time>
      </trkpt>
      <trkpt lat="45.46037" lon="-0.77007">
        <ele>53.8</ele>
        <time>2022-08-11T13:50:37.44+02:00</time>
      </trkpt>
      <trkpt lat="45.46026" lon="-0.77004">
        <ele>54.1</ele>
        <time>2022-08-11T13:50:39.454+02:00</time>
      </trkpt>
      <trkpt lat="45.46015" lon="-0.77002">
        <ele>54</ele>
        <time>2022-08-11T13:50:41.459+02:00</time>
      </trkpt>
      <trkpt lat="45.46005" lon="-0.76999">
        <ele>54.1</ele>
        <time>2022-08-11T13:50:43.449+02:00</time>
      </trkpt>
      <trkpt lat="45.45994" lon="-0.76994">
        <ele>54.1</ele>
        <time>2022-08-11T13:50:45.46+02:00</time>
      </trkpt>
      <trkpt lat="45.45983" lon="-0.76987">
        <ele>53.6</ele>
        <time>2022-08-11T13:50:47.453+02:00</time>
      </trkpt>
      <trkpt lat="45.45973" lon="-0.7698">
        <ele>53.8</ele>
        <time>2022-08-11T13:50:49.463+02:00</time>
      </trkpt>
      <trkpt lat="45.45963" lon="-0.76973">
        <ele>53.9</ele>
        <time>2022-08-11T13:50:51.441+02:00</time>
      </trkpt>
      <trkpt lat="45.45954" lon="-0.76965">
        <ele>53.6</ele>
        <time>2022-08-11T13:50:53.457+02:00</time>
      </trkpt>
      <trkpt lat="45.45944" lon="-0.76959">
        <ele>53.7</ele>
        <time>2022-08-11T13:50:55.455+02:00</time>
      </trkpt>
      <trkpt lat="45.45934" lon="-0.76952">
        <ele>53.6</ele>
        <time>2022-08-11T13:50:57.457+02:00</time>
      </trkpt>
      <trkpt lat="45.45924" lon="-0.76945">
        <ele>53.7</ele>
        <time>2022-08-11T13:50:59.46+02:00</time>
      </trkpt>
      <trkpt lat="45.45914" lon="-0.76939">
        <ele>53.3</ele>
        <time>2022-08-11T13:51:01.467+02:00</time>
      </trkpt>
      <trkpt lat="45.45904" lon="-0.76933">
        <ele>53.7</ele>
        <time>2022-08-11T13:51:03.465+02:00</time>
      </trkpt>
      <trkpt lat="45.45894" lon="-0.76928">
        <ele>54</ele>
        <time>2022-08-11T13:51:05.454+02:00</time>
      </trkpt>
      <trkpt lat="45.45884" lon="-0.76923">
        <ele>53.8</ele>
        <time>2022-08-11T13:51:07.455+02:00</time>
      </trkpt>
      <trkpt lat="45.45873" lon="-0.76918">
        <ele>53.5</ele>
        <time>2022-08-11T13:51:09.455+02:00</time>
      </trkpt>
      <trkpt lat="45.45863" lon="-0.76913">
        <ele>53.1</ele>
        <time>2022-08-11T13:51:11.445+02:00</time>
      </trkpt>
      <trkpt lat="45.45853" lon="-0.76908">
        <ele>52.8</ele>
        <time>2022-08-11T13:51:13.455+02:00</time>
      </trkpt>
      <trkpt lat="45.45843" lon="-0.76903">
        <ele>53</ele>
        <time>2022-08-11T13:51:15.462+02:00</time>
      </trkpt>
      <trkpt lat="45.45833" lon="-0.76898">
        <ele>53.1</ele>
        <time>2022-08-11T13:51:17.439+02:00</time>
      </trkpt>
      <trkpt lat="45.45823" lon="-0.76893">
        <ele>53.2</ele>
        <time>2022-08-11T13:51:19.461+02:00</time>
      </trkpt>
      <trkpt lat="45.45813" lon="-0.76888">
        <ele>52.6</ele>
        <time>2022-08-11T13:51:21.452+02:00</time>
      </trkpt>
      <trkpt lat="45.45803" lon="-0.76884">
        <ele>52.8</ele>
        <time>2022-08-11T13:51:23.471+02:00</time>
      </trkpt>
      <trkpt lat="45.45793" lon="-0.76879">
        <ele>53.3</ele>
        <time>2022-08-11T13:51:25.453+02:00</time>
      </trkpt>
      <trkpt lat="45.45783" lon="-0.76874">
        <ele>53.5</ele>
        <time>2022-08-11T13:51:27.445+02:00</time>
      </trkpt>
      <trkpt lat="45.45773" lon="-0.76868">
        <ele>53.4</ele>
        <time>2022-08-11T13:51:29.45+02:00</time>
      </trkpt>
      <trkpt lat="45.45763" lon="-0.76863">
        <ele>53.2</ele>
        <time>2022-08-11T13:51:31.463+02:00</time>
      </trkpt>
      <trkpt lat="45.45753" lon="-0.76857">
        <ele>53.2</ele>
        <time>2022-08-11T13:51:33.449+02:00</time>
      </trkpt>
      <trkpt lat="45.45743" lon="-0.76851">
        <ele>53</ele>
        <time>2022-08-11T13:51:35.459+02:00</time>
      </trkpt>
      <trkpt lat="45.45734" lon="-0.76844">
        <ele>53</ele>
        <time>2022-08-11T13:51:37.431+02:00</time>
      </trkpt>
      <trkpt lat="45.45724" lon="-0.76837">
        <ele>52.9</ele>
        <time>2022-08-11T13:51:39.446+02:00</time>
      </trkpt>
      <trkpt lat="45.45714" lon="-0.76829">
        <ele>52.7</ele>
        <time>2022-08-11T13:51:41.457+02:00</time>
      </trkpt>
      <trkpt lat="45.45705" lon="-0.76822">
        <ele>52.6</ele>
        <time>2022-08-11T13:51:43.454+02:00</time>
      </trkpt>
      <trkpt lat="45.45696" lon="-0.76815">
        <ele>52.5</ele>
        <time>2022-08-11T13:51:45.457+02:00</time>
      </trkpt>
      <trkpt lat="45.45687" lon="-0.76808">
        <ele>52.4</ele>
        <time>2022-08-11T13:51:47.443+02:00</time>
      </trkpt>
      <trkpt lat="45.45678" lon="-0.76801">
        <ele>52.5</ele>
        <time>2022-08-11T13:51:49.456+02:00</time>
      </trkpt>
      <trkpt lat="45.45668" lon="-0.76794">
        <ele>53</ele>
        <time>2022-08-11T13:51:51.467+02:00</time>
      </trkpt>
      <trkpt lat="45.45659" lon="-0.76786">
        <ele>52.5</ele>
        <time>2022-08-11T13:51:53.457+02:00</time>
      </trkpt>
      <trkpt lat="45.4565" lon="-0.76778">
        <ele>52.4</ele>
        <time>2022-08-11T13:51:55.458+02:00</time>
      </trkpt>
      <trkpt lat="45.4564" lon="-0.76771">
        <ele>53</ele>
        <time>2022-08-11T13:51:57.448+02:00</time>
      </trkpt>
      <trkpt lat="45.45631" lon="-0.76763">
        <ele>52.8</ele>
        <time>2022-08-11T13:51:59.464+02:00</time>
      </trkpt>
      <trkpt lat="45.45622" lon="-0.76756">
        <ele>52.8</ele>
        <time>2022-08-11T13:52:01.454+02:00</time>
      </trkpt>
      <trkpt lat="45.45612" lon="-0.76748">
        <ele>52.6</ele>
        <time>2022-08-11T13:52:03.456+02:00</time>
      </trkpt>
      <trkpt lat="45.45602" lon="-0.76741">
        <ele>52.5</ele>
        <time>2022-08-11T13:52:05.456+02:00</time>
      </trkpt>
      <trkpt lat="45.45592" lon="-0.76733">
        <ele>52.3</ele>
        <time>2022-08-11T13:52:07.446+02:00</time>
      </trkpt>
      <trkpt lat="45.45583" lon="-0.76725">
        <ele>52.3</ele>
        <time>2022-08-11T13:52:09.452+02:00</time>
      </trkpt>
      <trkpt lat="45.45573" lon="-0.76717">
        <ele>52.3</ele>
        <time>2022-08-11T13:52:11.455+02:00</time>
      </trkpt>
      <trkpt lat="45.45563" lon="-0.7671">
        <ele>52.5</ele>
        <time>2022-08-11T13:52:13.459+02:00</time>
      </trkpt>
      <trkpt lat="45.45553" lon="-0.76703">
        <ele>52.4</ele>
        <time>2022-08-11T13:52:15.455+02:00</time>
      </trkpt>
      <trkpt lat="45.45544" lon="-0.76696">
        <ele>52.4</ele>
        <time>2022-08-11T13:52:17.448+02:00</time>
      </trkpt>
      <trkpt lat="45.45533" lon="-0.76688">
        <ele>52.4</ele>
        <time>2022-08-11T13:52:19.446+02:00</time>
      </trkpt>
      <trkpt lat="45.45523" lon="-0.7668">
        <ele>52.4</ele>
        <time>2022-08-11T13:52:21.454+02:00</time>
      </trkpt>
      <trkpt lat="45.45513" lon="-0.76673">
        <ele>52.7</ele>
        <time>2022-08-11T13:52:23.461+02:00</time>
      </trkpt>
      <trkpt lat="45.45503" lon="-0.76665">
        <ele>52.9</ele>
        <time>2022-08-11T13:52:25.454+02:00</time>
      </trkpt>
      <trkpt lat="45.45493" lon="-0.76657">
        <ele>52.8</ele>
        <time>2022-08-11T13:52:27.465+02:00</time>
      </trkpt>
      <trkpt lat="45.45483" lon="-0.76649">
        <ele>52.7</ele>
        <time>2022-08-11T13:52:29.455+02:00</time>
      </trkpt>
      <trkpt lat="45.45473" lon="-0.76641">
        <ele>52.8</ele>
        <time>2022-08-11T13:52:31.454+02:00</time>
      </trkpt>
      <trkpt lat="45.45463" lon="-0.76634">
        <ele>52.6</ele>
        <time>2022-08-11T13:52:33.461+02:00</time>
      </trkpt>
      <trkpt lat="45.45453" lon="-0.76625">
        <ele>53</ele>
        <time>2022-08-11T13:52:35.459+02:00</time>
      </trkpt>
      <trkpt lat="45.45443" lon="-0.76618">
        <ele>52.8</ele>
        <time>2022-08-11T13:52:37.448+02:00</time>
      </trkpt>
      <trkpt lat="45.45433" lon="-0.7661">
        <ele>53.1</ele>
        <time>2022-08-11T13:52:39.449+02:00</time>
      </trkpt>
      <trkpt lat="45.45422" lon="-0.76603">
        <ele>53.2</ele>
        <time>2022-08-11T13:52:41.453+02:00</time>
      </trkpt>
      <trkpt lat="45.45411" lon="-0.76597">
        <ele>53.1</ele>
        <time>2022-08-11T13:52:43.456+02:00</time>
      </trkpt>
      <trkpt lat="45.454" lon="-0.76592">
        <ele>53.2</ele>
        <time>2022-08-11T13:52:45.453+02:00</time>
      </trkpt>
      <trkpt lat="45.45389" lon="-0.76588">
        <ele>53.5</ele>
        <time>2022-08-11T13:52:47.445+02:00</time>
      </trkpt>
      <trkpt lat="45.45378" lon="-0.76582">
        <ele>53.5</ele>
        <time>2022-08-11T13:52:49.459+02:00</time>
      </trkpt>
      <trkpt lat="45.45368" lon="-0.76576">
        <ele>53.3</ele>
        <time>2022-08-11T13:52:51.46+02:00</time>
      </trkpt>
      <trkpt lat="45.45358" lon="-0.7657">
        <ele>53.7</ele>
        <time>2022-08-11T13:52:53.452+02:00</time>
      </trkpt>
      <trkpt lat="45.45347" lon="-0.76564">
        <ele>53.7</ele>
        <time>2022-08-11T13:52:55.447+02:00</time>
      </trkpt>
      <trkpt lat="45.45337" lon="-0.76558">
        <ele>53.1</ele>
        <time>2022-08-11T13:52:57.441+02:00</time>
      </trkpt>
      <trkpt lat="45.45326" lon="-0.76552">
        <ele>53</ele>
        <time>2022-08-11T13:52:59.448+02:00</time>
      </trkpt>
      <trkpt lat="45.45316" lon="-0.76545">
        <ele>52.5</ele>
        <time>2022-08-11T13:53:01.459+02:00</time>
      </trkpt>
      <trkpt lat="45.45306" lon="-0.76538">
        <ele>52.4</ele>
        <time>2022-08-11T13:53:03.47+02:00</time>
      </trkpt>
      <trkpt lat="45.45296" lon="-0.76532">
        <ele>52.8</ele>
        <time>2022-08-11T13:53:05.458+02:00</time>
      </trkpt>
      <trkpt lat="45.45286" lon="-0.76526">
        <ele>52.7</ele>
        <time>2022-08-11T13:53:07.46+02:00</time>
      </trkpt>
      <trkpt lat="45.45277" lon="-0.7652">
        <ele>53</ele>
        <time>2022-08-11T13:53:09.455+02:00</time>
      </trkpt>
      <trkpt lat="45.45267" lon="-0.76514">
        <ele>52.8</ele>
        <time>2022-08-11T13:53:11.455+02:00</time>
      </trkpt>
      <trkpt lat="45.45257" lon="-0.76509">
        <ele>52.4</ele>
        <time>2022-08-11T13:53:13.468+02:00</time>
      </trkpt>
      <trkpt lat="45.45248" lon="-0.76503">
        <ele>52.3</ele>
        <time>2022-08-11T13:53:15.478+02:00</time>
      </trkpt>
      <trkpt lat="45.45239" lon="-0.76499">
        <ele>52.3</ele>
        <time>2022-08-11T13:53:17.435+02:00</time>
      </trkpt>
      <trkpt lat="45.4523" lon="-0.76493">
        <ele>52.4</ele>
        <time>2022-08-11T13:53:19.43+02:00</time>
      </trkpt>
      <trkpt lat="45.45221" lon="-0.76487">
        <ele>52.3</ele>
        <time>2022-08-11T13:53:21.449+02:00</time>
      </trkpt>
      <trkpt lat="45.45212" lon="-0.76481">
        <ele>52.6</ele>
        <time>2022-08-11T13:53:23.429+02:00</time>
      </trkpt>
      <trkpt lat="45.45204" lon="-0.76476">
        <ele>52.7</ele>
        <time>2022-08-11T13:53:25.429+02:00</time>
      </trkpt>
      <trkpt lat="45.45195" lon="-0.7647">
        <ele>52.7</ele>
        <time>2022-08-11T13:53:27.434+02:00</time>
      </trkpt>
      <trkpt lat="45.45186" lon="-0.76465">
        <ele>52.9</ele>
        <time>2022-08-11T13:53:29.43+02:00</time>
      </trkpt>
      <trkpt lat="45.45176" lon="-0.7646">
        <ele>53.1</ele>
        <time>2022-08-11T13:53:31.449+02:00</time>
      </trkpt>
      <trkpt lat="45.45168" lon="-0.76454">
        <ele>52.8</ele>
        <time>2022-08-11T13:53:33.441+02:00</time>
      </trkpt>
      <trkpt lat="45.45158" lon="-0.76448">
        <ele>52.6</ele>
        <time>2022-08-11T13:53:35.434+02:00</time>
      </trkpt>
      <trkpt lat="45.45148" lon="-0.76441">
        <ele>52.5</ele>
        <time>2022-08-11T13:53:37.447+02:00</time>
      </trkpt>
      <trkpt lat="45.45138" lon="-0.76435">
        <ele>52.3</ele>
        <time>2022-08-11T13:53:39.44+02:00</time>
      </trkpt>
      <trkpt lat="45.45128" lon="-0.76428">
        <ele>52.7</ele>
        <time>2022-08-11T13:53:41.444+02:00</time>
      </trkpt>
      <trkpt lat="45.45119" lon="-0.76423">
        <ele>52.8</ele>
        <time>2022-08-11T13:53:43.453+02:00</time>
      </trkpt>
      <trkpt lat="45.45109" lon="-0.76417">
        <ele>52.9</ele>
        <time>2022-08-11T13:53:45.46+02:00</time>
      </trkpt>
      <trkpt lat="45.45099" lon="-0.76411">
        <ele>52.9</ele>
        <time>2022-08-11T13:53:47.442+02:00</time>
      </trkpt>
      <trkpt lat="45.45089" lon="-0.76405">
        <ele>52.8</ele>
        <time>2022-08-11T13:53:49.463+02:00</time>
      </trkpt>
      <trkpt lat="45.4508" lon="-0.76399">
        <ele>52.7</ele>
        <time>2022-08-11T13:53:51.45+02:00</time>
      </trkpt>
      <trkpt lat="45.4507" lon="-0.76394">
        <ele>52.6</ele>
        <time>2022-08-11T13:53:53.446+02:00</time>
      </trkpt>
      <trkpt lat="45.4506" lon="-0.76388">
        <ele>52.2</ele>
        <time>2022-08-11T13:53:55.469+02:00</time>
      </trkpt>
      <trkpt lat="45.4505" lon="-0.76383">
        <ele>52.6</ele>
        <time>2022-08-11T13:53:57.44+02:00</time>
      </trkpt>
      <trkpt lat="45.4504" lon="-0.76379">
        <ele>52.9</ele>
        <time>2022-08-11T13:53:59.453+02:00</time>
      </trkpt>
      <trkpt lat="45.45029" lon="-0.76375">
        <ele>53.2</ele>
        <time>2022-08-11T13:54:01.465+02:00</time>
      </trkpt>
      <trkpt lat="45.45019" lon="-0.76371">
        <ele>53.4</ele>
        <time>2022-08-11T13:54:03.467+02:00</time>
      </trkpt>
      <trkpt lat="45.45009" lon="-0.76367">
        <ele>53.6</ele>
        <time>2022-08-11T13:54:05.465+02:00</time>
      </trkpt>
      <trkpt lat="45.44999" lon="-0.76363">
        <ele>53.6</ele>
        <time>2022-08-11T13:54:07.446+02:00</time>
      </trkpt>
      <trkpt lat="45.44989" lon="-0.76359">
        <ele>53.4</ele>
        <time>2022-08-11T13:54:09.447+02:00</time>
      </trkpt>
      <trkpt lat="45.44978" lon="-0.76355">
        <ele>53.1</ele>
        <time>2022-08-11T13:54:11.446+02:00</time>
      </trkpt>
      <trkpt lat="45.44968" lon="-0.76349">
        <ele>53.4</ele>
        <time>2022-08-11T13:54:13.452+02:00</time>
      </trkpt>
      <trkpt lat="45.44959" lon="-0.76342">
        <ele>53.2</ele>
        <time>2022-08-11T13:54:15.447+02:00</time>
      </trkpt>
      <trkpt lat="45.44951" lon="-0.76332">
        <ele>53.2</ele>
        <time>2022-08-11T13:54:17.45+02:00</time>
      </trkpt>
      <trkpt lat="45.44945" lon="-0.76321">
        <ele>53.5</ele>
        <time>2022-08-11T13:54:19.467+02:00</time>
      </trkpt>
      <trkpt lat="45.4494" lon="-0.7631">
        <ele>53.6</ele>
        <time>2022-08-11T13:54:21.458+02:00</time>
      </trkpt>
      <trkpt lat="45.44934" lon="-0.76298">
        <ele>53.5</ele>
        <time>2022-08-11T13:54:23.451+02:00</time>
      </trkpt>
      <trkpt lat="45.44929" lon="-0.76285">
        <ele>53.4</ele>
        <time>2022-08-11T13:54:25.446+02:00</time>
      </trkpt>
      <trkpt lat="45.44924" lon="-0.76272">
        <ele>53.2</ele>
        <time>2022-08-11T13:54:27.463+02:00</time>
      </trkpt>
      <trkpt lat="45.44919" lon="-0.7626">
        <ele>52.8</ele>
        <time>2022-08-11T13:54:29.46+02:00</time>
      </trkpt>
      <trkpt lat="45.44914" lon="-0.76249">
        <ele>53.4</ele>
        <time>2022-08-11T13:54:31.458+02:00</time>
      </trkpt>
      <trkpt lat="45.44907" lon="-0.76233">
        <ele>53</ele>
        <time>2022-08-11T13:54:34.442+02:00</time>
      </trkpt>
      <trkpt lat="45.449" lon="-0.76219">
        <ele>52.8</ele>
        <time>2022-08-11T13:54:37.445+02:00</time>
      </trkpt>
      <trkpt lat="45.44894" lon="-0.76206">
        <ele>52.9</ele>
        <time>2022-08-11T13:54:40.465+02:00</time>
      </trkpt>
      <trkpt lat="45.44885" lon="-0.76194">
        <ele>53.2</ele>
        <time>2022-08-11T13:54:43.45+02:00</time>
      </trkpt>
      <trkpt lat="45.44877" lon="-0.76187">
        <ele>53.6</ele>
        <time>2022-08-11T13:54:45.449+02:00</time>
      </trkpt>
      <trkpt lat="45.44866" lon="-0.76176">
        <ele>53.6</ele>
        <time>2022-08-11T13:54:48.435+02:00</time>
      </trkpt>
      <trkpt lat="45.44859" lon="-0.76169">
        <ele>53.5</ele>
        <time>2022-08-11T13:54:50.453+02:00</time>
      </trkpt>
      <trkpt lat="45.44851" lon="-0.76161">
        <ele>53.6</ele>
        <time>2022-08-11T13:54:52.452+02:00</time>
      </trkpt>
      <trkpt lat="45.44839" lon="-0.76151">
        <ele>53.8</ele>
        <time>2022-08-11T13:54:55.454+02:00</time>
      </trkpt>
      <trkpt lat="45.44832" lon="-0.76143">
        <ele>53.4</ele>
        <time>2022-08-11T13:54:57.449+02:00</time>
      </trkpt>
      <trkpt lat="45.44824" lon="-0.76136">
        <ele>53.8</ele>
        <time>2022-08-11T13:54:59.447+02:00</time>
      </trkpt>
      <trkpt lat="45.44816" lon="-0.76129">
        <ele>53.9</ele>
        <time>2022-08-11T13:55:01.436+02:00</time>
      </trkpt>
      <trkpt lat="45.44805" lon="-0.76118">
        <ele>53.9</ele>
        <time>2022-08-11T13:55:04.453+02:00</time>
      </trkpt>
      <trkpt lat="45.44796" lon="-0.76111">
        <ele>53.7</ele>
        <time>2022-08-11T13:55:06.46+02:00</time>
      </trkpt>
      <trkpt lat="45.44789" lon="-0.76103">
        <ele>53.5</ele>
        <time>2022-08-11T13:55:08.442+02:00</time>
      </trkpt>
      <trkpt lat="45.44781" lon="-0.76096">
        <ele>53.2</ele>
        <time>2022-08-11T13:55:10.453+02:00</time>
      </trkpt>
      <trkpt lat="45.44773" lon="-0.76088">
        <ele>54</ele>
        <time>2022-08-11T13:55:12.444+02:00</time>
      </trkpt>
      <trkpt lat="45.44765" lon="-0.7608">
        <ele>53.7</ele>
        <time>2022-08-11T13:55:14.459+02:00</time>
      </trkpt>
      <trkpt lat="45.44756" lon="-0.76072">
        <ele>53.5</ele>
        <time>2022-08-11T13:55:16.452+02:00</time>
      </trkpt>
      <trkpt lat="45.44748" lon="-0.76063">
        <ele>53.7</ele>
        <time>2022-08-11T13:55:18.441+02:00</time>
      </trkpt>
      <trkpt lat="45.4474" lon="-0.76053">
        <ele>53.5</ele>
        <time>2022-08-11T13:55:20.451+02:00</time>
      </trkpt>
      <trkpt lat="45.44732" lon="-0.76046">
        <ele>54</ele>
        <time>2022-08-11T13:55:22.451+02:00</time>
      </trkpt>
      <trkpt lat="45.44723" lon="-0.7604">
        <ele>53.8</ele>
        <time>2022-08-11T13:55:24.444+02:00</time>
      </trkpt>
      <trkpt lat="45.44715" lon="-0.76032">
        <ele>53.6</ele>
        <time>2022-08-11T13:55:26.449+02:00</time>
      </trkpt>
      <trkpt lat="45.44707" lon="-0.76024">
        <ele>53.7</ele>
        <time>2022-08-11T13:55:28.442+02:00</time>
      </trkpt>
      <trkpt lat="45.44699" lon="-0.76016">
        <ele>53.9</ele>
        <time>2022-08-11T13:55:30.446+02:00</time>
      </trkpt>
      <trkpt lat="45.44691" lon="-0.76009">
        <ele>53.9</ele>
        <time>2022-08-11T13:55:32.448+02:00</time>
      </trkpt>
      <trkpt lat="45.44682" lon="-0.76001">
        <ele>53.8</ele>
        <time>2022-08-11T13:55:34.445+02:00</time>
      </trkpt>
      <trkpt lat="45.44674" lon="-0.75993">
        <ele>53.5</ele>
        <time>2022-08-11T13:55:36.45+02:00</time>
      </trkpt>
      <trkpt lat="45.44666" lon="-0.75986">
        <ele>53.6</ele>
        <time>2022-08-11T13:55:38.442+02:00</time>
      </trkpt>
      <trkpt lat="45.44658" lon="-0.75979">
        <ele>53.5</ele>
        <time>2022-08-11T13:55:40.446+02:00</time>
      </trkpt>
      <trkpt lat="45.4465" lon="-0.75971">
        <ele>53.4</ele>
        <time>2022-08-11T13:55:42.442+02:00</time>
      </trkpt>
      <trkpt lat="45.44642" lon="-0.75963">
        <ele>53.5</ele>
        <time>2022-08-11T13:55:44.452+02:00</time>
      </trkpt>
      <trkpt lat="45.44634" lon="-0.75955">
        <ele>53.4</ele>
        <time>2022-08-11T13:55:46.451+02:00</time>
      </trkpt>
      <trkpt lat="45.44625" lon="-0.75947">
        <ele>53.1</ele>
        <time>2022-08-11T13:55:48.442+02:00</time>
      </trkpt>
      <trkpt lat="45.44617" lon="-0.75938">
        <ele>53.2</ele>
        <time>2022-08-11T13:55:50.457+02:00</time>
      </trkpt>
      <trkpt lat="45.44609" lon="-0.75931">
        <ele>53.5</ele>
        <time>2022-08-11T13:55:52.447+02:00</time>
      </trkpt>
      <trkpt lat="45.44601" lon="-0.75924">
        <ele>53.9</ele>
        <time>2022-08-11T13:55:54.437+02:00</time>
      </trkpt>
      <trkpt lat="45.44593" lon="-0.75916">
        <ele>53.7</ele>
        <time>2022-08-11T13:55:56.434+02:00</time>
      </trkpt>
      <trkpt lat="45.44585" lon="-0.75909">
        <ele>53.8</ele>
        <time>2022-08-11T13:55:58.429+02:00</time>
      </trkpt>
      <trkpt lat="45.44577" lon="-0.75903">
        <ele>54.2</ele>
        <time>2022-08-11T13:56:00.429+02:00</time>
      </trkpt>
      <trkpt lat="45.44566" lon="-0.75893">
        <ele>53.3</ele>
        <time>2022-08-11T13:56:03.441+02:00</time>
      </trkpt>
      <trkpt lat="45.44556" lon="-0.75883">
        <ele>53.5</ele>
        <time>2022-08-11T13:56:06.442+02:00</time>
      </trkpt>
      <trkpt lat="45.44546" lon="-0.75874">
        <ele>53.2</ele>
        <time>2022-08-11T13:56:09.435+02:00</time>
      </trkpt>
      <trkpt lat="45.44536" lon="-0.75866">
        <ele>53.5</ele>
        <time>2022-08-11T13:56:12.443+02:00</time>
      </trkpt>
      <trkpt lat="45.44527" lon="-0.75858">
        <ele>53.5</ele>
        <time>2022-08-11T13:56:15.454+02:00</time>
      </trkpt>
      <trkpt lat="45.44517" lon="-0.75849">
        <ele>53.3</ele>
        <time>2022-08-11T13:56:18.444+02:00</time>
      </trkpt>
      <trkpt lat="45.44506" lon="-0.75838">
        <ele>53.3</ele>
        <time>2022-08-11T13:56:21.452+02:00</time>
      </trkpt>
      <trkpt lat="45.44496" lon="-0.75828">
        <ele>53.2</ele>
        <time>2022-08-11T13:56:24.468+02:00</time>
      </trkpt>
      <trkpt lat="45.44485" lon="-0.75818">
        <ele>53.2</ele>
        <time>2022-08-11T13:56:27.446+02:00</time>
      </trkpt>
      <trkpt lat="45.44474" lon="-0.75808">
        <ele>52.7</ele>
        <time>2022-08-11T13:56:30.461+02:00</time>
      </trkpt>
      <trkpt lat="45.44463" lon="-0.75797">
        <ele>52.8</ele>
        <time>2022-08-11T13:56:33.44+02:00</time>
      </trkpt>
      <trkpt lat="45.44455" lon="-0.75791">
        <ele>52.7</ele>
        <time>2022-08-11T13:56:35.454+02:00</time>
      </trkpt>
      <trkpt lat="45.44447" lon="-0.75783">
        <ele>53.4</ele>
        <time>2022-08-11T13:56:37.452+02:00</time>
      </trkpt>
      <trkpt lat="45.44436" lon="-0.75773">
        <ele>53.5</ele>
        <time>2022-08-11T13:56:40.452+02:00</time>
      </trkpt>
      <trkpt lat="45.44425" lon="-0.75763">
        <ele>53.4</ele>
        <time>2022-08-11T13:56:43.442+02:00</time>
      </trkpt>
      <trkpt lat="45.44414" lon="-0.75752">
        <ele>53.8</ele>
        <time>2022-08-11T13:56:46.464+02:00</time>
      </trkpt>
      <trkpt lat="45.44407" lon="-0.75745">
        <ele>53.6</ele>
        <time>2022-08-11T13:56:48.443+02:00</time>
      </trkpt>
      <trkpt lat="45.44399" lon="-0.75738">
        <ele>53.9</ele>
        <time>2022-08-11T13:56:50.45+02:00</time>
      </trkpt>
      <trkpt lat="45.44391" lon="-0.75731">
        <ele>54</ele>
        <time>2022-08-11T13:56:52.452+02:00</time>
      </trkpt>
      <trkpt lat="45.44383" lon="-0.75724">
        <ele>53.9</ele>
        <time>2022-08-11T13:56:54.454+02:00</time>
      </trkpt>
      <trkpt lat="45.44374" lon="-0.75716">
        <ele>53.7</ele>
        <time>2022-08-11T13:56:56.447+02:00</time>
      </trkpt>
      <trkpt lat="45.44365" lon="-0.75708">
        <ele>53.6</ele>
        <time>2022-08-11T13:56:58.447+02:00</time>
      </trkpt>
      <trkpt lat="45.44356" lon="-0.757">
        <ele>53.7</ele>
        <time>2022-08-11T13:57:00.46+02:00</time>
      </trkpt>
      <trkpt lat="45.44347" lon="-0.75691">
        <ele>53.5</ele>
        <time>2022-08-11T13:57:02.461+02:00</time>
      </trkpt>
      <trkpt lat="45.44339" lon="-0.75683">
        <ele>53.7</ele>
        <time>2022-08-11T13:57:04.45+02:00</time>
      </trkpt>
      <trkpt lat="45.4433" lon="-0.75676">
        <ele>53.4</ele>
        <time>2022-08-11T13:57:06.447+02:00</time>
      </trkpt>
      <trkpt lat="45.44322" lon="-0.75668">
        <ele>53.8</ele>
        <time>2022-08-11T13:57:08.445+02:00</time>
      </trkpt>
      <trkpt lat="45.44313" lon="-0.7566">
        <ele>53.8</ele>
        <time>2022-08-11T13:57:10.454+02:00</time>
      </trkpt>
      <trkpt lat="45.44304" lon="-0.75653">
        <ele>54.1</ele>
        <time>2022-08-11T13:57:12.454+02:00</time>
      </trkpt>
      <trkpt lat="45.44296" lon="-0.75646">
        <ele>54.2</ele>
        <time>2022-08-11T13:57:14.456+02:00</time>
      </trkpt>
      <trkpt lat="45.44285" lon="-0.75641">
        <ele>54.5</ele>
        <time>2022-08-11T13:57:16.451+02:00</time>
      </trkpt>
      <trkpt lat="45.44275" lon="-0.75636">
        <ele>54.8</ele>
        <time>2022-08-11T13:57:18.446+02:00</time>
      </trkpt>
      <trkpt lat="45.44265" lon="-0.75632">
        <ele>54.8</ele>
        <time>2022-08-11T13:57:20.432+02:00</time>
      </trkpt>
      <trkpt lat="45.44255" lon="-0.7563">
        <ele>54.6</ele>
        <time>2022-08-11T13:57:22.465+02:00</time>
      </trkpt>
      <trkpt lat="45.44245" lon="-0.75628">
        <ele>54.4</ele>
        <time>2022-08-11T13:57:24.454+02:00</time>
      </trkpt>
      <trkpt lat="45.44234" lon="-0.75627">
        <ele>54.4</ele>
        <time>2022-08-11T13:57:26.448+02:00</time>
      </trkpt>
      <trkpt lat="45.44223" lon="-0.75625">
        <ele>54.4</ele>
        <time>2022-08-11T13:57:28.45+02:00</time>
      </trkpt>
      <trkpt lat="45.44212" lon="-0.75624">
        <ele>54.5</ele>
        <time>2022-08-11T13:57:30.453+02:00</time>
      </trkpt>
      <trkpt lat="45.44202" lon="-0.75623">
        <ele>54.8</ele>
        <time>2022-08-11T13:57:32.445+02:00</time>
      </trkpt>
      <trkpt lat="45.44191" lon="-0.75622">
        <ele>54.4</ele>
        <time>2022-08-11T13:57:34.45+02:00</time>
      </trkpt>
      <trkpt lat="45.4418" lon="-0.75622">
        <ele>54.5</ele>
        <time>2022-08-11T13:57:36.464+02:00</time>
      </trkpt>
      <trkpt lat="45.4417" lon="-0.75621">
        <ele>55</ele>
        <time>2022-08-11T13:57:38.436+02:00</time>
      </trkpt>
      <trkpt lat="45.44159" lon="-0.75621">
        <ele>55</ele>
        <time>2022-08-11T13:57:40.448+02:00</time>
      </trkpt>
      <trkpt lat="45.44148" lon="-0.7562">
        <ele>54.8</ele>
        <time>2022-08-11T13:57:42.454+02:00</time>
      </trkpt>
      <trkpt lat="45.44137" lon="-0.7562">
        <ele>55</ele>
        <time>2022-08-11T13:57:44.449+02:00</time>
      </trkpt>
      <trkpt lat="45.44125" lon="-0.7562">
        <ele>54.8</ele>
        <time>2022-08-11T13:57:46.469+02:00</time>
      </trkpt>
      <trkpt lat="45.44114" lon="-0.75618">
        <ele>55</ele>
        <time>2022-08-11T13:57:48.441+02:00</time>
      </trkpt>
      <trkpt lat="45.44103" lon="-0.75617">
        <ele>54.8</ele>
        <time>2022-08-11T13:57:50.463+02:00</time>
      </trkpt>
      <trkpt lat="45.44092" lon="-0.75616">
        <ele>54.6</ele>
        <time>2022-08-11T13:57:52.453+02:00</time>
      </trkpt>
      <trkpt lat="45.4408" lon="-0.75616">
        <ele>55.1</ele>
        <time>2022-08-11T13:57:54.441+02:00</time>
      </trkpt>
      <trkpt lat="45.44069" lon="-0.75616">
        <ele>55.3</ele>
        <time>2022-08-11T13:57:56.446+02:00</time>
      </trkpt>
      <trkpt lat="45.44058" lon="-0.75614">
        <ele>54.9</ele>
        <time>2022-08-11T13:57:58.441+02:00</time>
      </trkpt>
      <trkpt lat="45.44047" lon="-0.75614">
        <ele>55</ele>
        <time>2022-08-11T13:58:00.444+02:00</time>
      </trkpt>
      <trkpt lat="45.44036" lon="-0.75612">
        <ele>55</ele>
        <time>2022-08-11T13:58:02.438+02:00</time>
      </trkpt>
      <trkpt lat="45.44026" lon="-0.75611">
        <ele>55.3</ele>
        <time>2022-08-11T13:58:04.461+02:00</time>
      </trkpt>
      <trkpt lat="45.44016" lon="-0.75612">
        <ele>55.6</ele>
        <time>2022-08-11T13:58:06.453+02:00</time>
      </trkpt>
      <trkpt lat="45.44006" lon="-0.75611">
        <ele>55.9</ele>
        <time>2022-08-11T13:58:08.451+02:00</time>
      </trkpt>
      <trkpt lat="45.43995" lon="-0.7561">
        <ele>55.7</ele>
        <time>2022-08-11T13:58:10.457+02:00</time>
      </trkpt>
      <trkpt lat="45.43984" lon="-0.7561">
        <ele>55.4</ele>
        <time>2022-08-11T13:58:12.447+02:00</time>
      </trkpt>
      <trkpt lat="45.43973" lon="-0.7561">
        <ele>55.4</ele>
        <time>2022-08-11T13:58:14.449+02:00</time>
      </trkpt>
      <trkpt lat="45.43962" lon="-0.7561">
        <ele>55.7</ele>
        <time>2022-08-11T13:58:16.446+02:00</time>
      </trkpt>
      <trkpt lat="45.43951" lon="-0.7561">
        <ele>55.6</ele>
        <time>2022-08-11T13:58:18.453+02:00</time>
      </trkpt>
      <trkpt lat="45.43941" lon="-0.7561">
        <ele>55.5</ele>
        <time>2022-08-11T13:58:20.457+02:00</time>
      </trkpt>
      <trkpt lat="45.43931" lon="-0.75611">
        <ele>55.4</ele>
        <time>2022-08-11T13:58:22.445+02:00</time>
      </trkpt>
      <trkpt lat="45.43921" lon="-0.75612">
        <ele>55.2</ele>
        <time>2022-08-11T13:58:24.455+02:00</time>
      </trkpt>
      <trkpt lat="45.43911" lon="-0.75613">
        <ele>55.4</ele>
        <time>2022-08-11T13:58:26.448+02:00</time>
      </trkpt>
      <trkpt lat="45.43901" lon="-0.75614">
        <ele>55.4</ele>
        <time>2022-08-11T13:58:28.453+02:00</time>
      </trkpt>
      <trkpt lat="45.43891" lon="-0.75616">
        <ele>55.4</ele>
        <time>2022-08-11T13:58:30.45+02:00</time>
      </trkpt>
      <trkpt lat="45.4388" lon="-0.75617">
        <ele>54.7</ele>
        <time>2022-08-11T13:58:32.449+02:00</time>
      </trkpt>
      <trkpt lat="45.4387" lon="-0.75617">
        <ele>55</ele>
        <time>2022-08-11T13:58:34.448+02:00</time>
      </trkpt>
      <trkpt lat="45.43859" lon="-0.75619">
        <ele>55</ele>
        <time>2022-08-11T13:58:36.444+02:00</time>
      </trkpt>
      <trkpt lat="45.43849" lon="-0.7562">
        <ele>55.1</ele>
        <time>2022-08-11T13:58:38.448+02:00</time>
      </trkpt>
      <trkpt lat="45.43838" lon="-0.75619">
        <ele>55.2</ele>
        <time>2022-08-11T13:58:40.436+02:00</time>
      </trkpt>
      <trkpt lat="45.43827" lon="-0.75616">
        <ele>54.6</ele>
        <time>2022-08-11T13:58:42.455+02:00</time>
      </trkpt>
      <trkpt lat="45.43817" lon="-0.7561">
        <ele>54.6</ele>
        <time>2022-08-11T13:58:44.439+02:00</time>
      </trkpt>
      <trkpt lat="45.43807" lon="-0.75604">
        <ele>54.6</ele>
        <time>2022-08-11T13:58:46.445+02:00</time>
      </trkpt>
      <trkpt lat="45.43797" lon="-0.75598">
        <ele>54.4</ele>
        <time>2022-08-11T13:58:48.455+02:00</time>
      </trkpt>
      <trkpt lat="45.43787" lon="-0.75592">
        <ele>54.3</ele>
        <time>2022-08-11T13:58:50.455+02:00</time>
      </trkpt>
      <trkpt lat="45.43777" lon="-0.75587">
        <ele>54.4</ele>
        <time>2022-08-11T13:58:52.46+02:00</time>
      </trkpt>
      <trkpt lat="45.43768" lon="-0.75581">
        <ele>54.2</ele>
        <time>2022-08-11T13:58:54.446+02:00</time>
      </trkpt>
      <trkpt lat="45.43758" lon="-0.75575">
        <ele>54.3</ele>
        <time>2022-08-11T13:58:56.451+02:00</time>
      </trkpt>
      <trkpt lat="45.43749" lon="-0.7557">
        <ele>54.6</ele>
        <time>2022-08-11T13:58:58.437+02:00</time>
      </trkpt>
      <trkpt lat="45.4374" lon="-0.75564">
        <ele>54.5</ele>
        <time>2022-08-11T13:59:00.447+02:00</time>
      </trkpt>
      <trkpt lat="45.43731" lon="-0.75558">
        <ele>54.5</ele>
        <time>2022-08-11T13:59:02.453+02:00</time>
      </trkpt>
      <trkpt lat="45.43721" lon="-0.75553">
        <ele>54.3</ele>
        <time>2022-08-11T13:59:04.444+02:00</time>
      </trkpt>
      <trkpt lat="45.43712" lon="-0.75547">
        <ele>54.3</ele>
        <time>2022-08-11T13:59:06.46+02:00</time>
      </trkpt>
      <trkpt lat="45.43703" lon="-0.75542">
        <ele>54.7</ele>
        <time>2022-08-11T13:59:08.444+02:00</time>
      </trkpt>
      <trkpt lat="45.43693" lon="-0.75536">
        <ele>54.5</ele>
        <time>2022-08-11T13:59:10.447+02:00</time>
      </trkpt>
      <trkpt lat="45.43683" lon="-0.7553">
        <ele>54.8</ele>
        <time>2022-08-11T13:59:12.455+02:00</time>
      </trkpt>
      <trkpt lat="45.43674" lon="-0.75524">
        <ele>54.9</ele>
        <time>2022-08-11T13:59:14.449+02:00</time>
      </trkpt>
      <trkpt lat="45.43664" lon="-0.75518">
        <ele>54.6</ele>
        <time>2022-08-11T13:59:16.452+02:00</time>
      </trkpt>
      <trkpt lat="45.43655" lon="-0.75513">
        <ele>54.6</ele>
        <time>2022-08-11T13:59:18.44+02:00</time>
      </trkpt>
      <trkpt lat="45.43645" lon="-0.75508">
        <ele>54.8</ele>
        <time>2022-08-11T13:59:20.465+02:00</time>
      </trkpt>
      <trkpt lat="45.43636" lon="-0.75502">
        <ele>55.4</ele>
        <time>2022-08-11T13:59:22.43+02:00</time>
      </trkpt>
      <trkpt lat="45.43626" lon="-0.75496">
        <ele>55.2</ele>
        <time>2022-08-11T13:59:24.457+02:00</time>
      </trkpt>
      <trkpt lat="45.43617" lon="-0.7549">
        <ele>55.5</ele>
        <time>2022-08-11T13:59:26.438+02:00</time>
      </trkpt>
      <trkpt lat="45.43607" lon="-0.75485">
        <ele>55.5</ele>
        <time>2022-08-11T13:59:28.427+02:00</time>
      </trkpt>
      <trkpt lat="45.43598" lon="-0.75479">
        <ele>55.9</ele>
        <time>2022-08-11T13:59:30.444+02:00</time>
      </trkpt>
      <trkpt lat="45.43588" lon="-0.75474">
        <ele>56</ele>
        <time>2022-08-11T13:59:32.455+02:00</time>
      </trkpt>
      <trkpt lat="45.43578" lon="-0.75467">
        <ele>55.7</ele>
        <time>2022-08-11T13:59:34.447+02:00</time>
      </trkpt>
      <trkpt lat="45.43568" lon="-0.7546">
        <ele>55.7</ele>
        <time>2022-08-11T13:59:36.454+02:00</time>
      </trkpt>
      <trkpt lat="45.43557" lon="-0.75454">
        <ele>55.5</ele>
        <time>2022-08-11T13:59:38.437+02:00</time>
      </trkpt>
      <trkpt lat="45.43548" lon="-0.75447">
        <ele>55.4</ele>
        <time>2022-08-11T13:59:40.446+02:00</time>
      </trkpt>
      <trkpt lat="45.43539" lon="-0.7544">
        <ele>55.1</ele>
        <time>2022-08-11T13:59:42.451+02:00</time>
      </trkpt>
      <trkpt lat="45.4353" lon="-0.75433">
        <ele>54.1</ele>
        <time>2022-08-11T13:59:44.456+02:00</time>
      </trkpt>
      <trkpt lat="45.43522" lon="-0.75427">
        <ele>54.4</ele>
        <time>2022-08-11T13:59:46.453+02:00</time>
      </trkpt>
      <trkpt lat="45.43514" lon="-0.7542">
        <ele>54.7</ele>
        <time>2022-08-11T13:59:48.449+02:00</time>
      </trkpt>
      <trkpt lat="45.43505" lon="-0.75413">
        <ele>54.8</ele>
        <time>2022-08-11T13:59:50.449+02:00</time>
      </trkpt>
      <trkpt lat="45.43497" lon="-0.75407">
        <ele>55.1</ele>
        <time>2022-08-11T13:59:52.46+02:00</time>
      </trkpt>
      <trkpt lat="45.43489" lon="-0.75399">
        <ele>55.4</ele>
        <time>2022-08-11T13:59:54.459+02:00</time>
      </trkpt>
      <trkpt lat="45.43481" lon="-0.75392">
        <ele>55</ele>
        <time>2022-08-11T13:59:56.435+02:00</time>
      </trkpt>
      <trkpt lat="45.43473" lon="-0.75384">
        <ele>54.6</ele>
        <time>2022-08-11T13:59:58.44+02:00</time>
      </trkpt>
      <trkpt lat="45.43464" lon="-0.75376">
        <ele>54.5</ele>
        <time>2022-08-11T14:00:00.452+02:00</time>
      </trkpt>
      <trkpt lat="45.43456" lon="-0.75368">
        <ele>59.2</ele>
        <time>2022-08-11T14:00:02.447+02:00</time>
      </trkpt>
      <trkpt lat="45.43448" lon="-0.75361">
        <ele>56.8</ele>
        <time>2022-08-11T14:00:04.436+02:00</time>
      </trkpt>
      <trkpt lat="45.4344" lon="-0.75354">
        <ele>55.8</ele>
        <time>2022-08-11T14:00:06.447+02:00</time>
      </trkpt>
      <trkpt lat="45.43431" lon="-0.75347">
        <ele>55.5</ele>
        <time>2022-08-11T14:00:08.437+02:00</time>
      </trkpt>
      <trkpt lat="45.43423" lon="-0.75339">
        <ele>55.4</ele>
        <time>2022-08-11T14:00:10.45+02:00</time>
      </trkpt>
      <trkpt lat="45.43415" lon="-0.75332">
        <ele>55.3</ele>
        <time>2022-08-11T14:00:12.453+02:00</time>
      </trkpt>
      <trkpt lat="45.43407" lon="-0.75325">
        <ele>55.3</ele>
        <time>2022-08-11T14:00:14.427+02:00</time>
      </trkpt>
      <trkpt lat="45.43397" lon="-0.75316">
        <ele>55.1</ele>
        <time>2022-08-11T14:00:17.443+02:00</time>
      </trkpt>
      <trkpt lat="45.43392" lon="-0.75305">
        <ele>54.4</ele>
        <time>2022-08-11T14:00:20.443+02:00</time>
      </trkpt>
      <trkpt lat="45.43396" lon="-0.75288">
        <ele>55.3</ele>
        <time>2022-08-11T14:00:23.455+02:00</time>
      </trkpt>
      <trkpt lat="45.43402" lon="-0.75272">
        <ele>55</ele>
        <time>2022-08-11T14:00:26.455+02:00</time>
      </trkpt>
      <trkpt lat="45.4341" lon="-0.75256">
        <ele>55.4</ele>
        <time>2022-08-11T14:00:29.442+02:00</time>
      </trkpt>
      <trkpt lat="45.43409" lon="-0.75238">
        <ele>55.6</ele>
        <time>2022-08-11T14:00:32.457+02:00</time>
      </trkpt>
      <trkpt lat="45.43399" lon="-0.75232">
        <ele>56.1</ele>
        <time>2022-08-11T14:00:35.446+02:00</time>
      </trkpt>
      <trkpt lat="45.43388" lon="-0.75226">
        <ele>55.3</ele>
        <time>2022-08-11T14:00:38.441+02:00</time>
      </trkpt>
      <trkpt lat="45.43378" lon="-0.75224">
        <ele>55.2</ele>
        <time>2022-08-11T14:00:40.443+02:00</time>
      </trkpt>
      <trkpt lat="45.43369" lon="-0.7522">
        <ele>54.4</ele>
        <time>2022-08-11T14:00:42.427+02:00</time>
      </trkpt>
      <trkpt lat="45.4336" lon="-0.75217">
        <ele>54.3</ele>
        <time>2022-08-11T14:00:44.425+02:00</time>
      </trkpt>
      <trkpt lat="45.4335" lon="-0.75213">
        <ele>54.4</ele>
        <time>2022-08-11T14:00:46.445+02:00</time>
      </trkpt>
      <trkpt lat="45.4334" lon="-0.75209">
        <ele>54.2</ele>
        <time>2022-08-11T14:00:48.436+02:00</time>
      </trkpt>
      <trkpt lat="45.4333" lon="-0.75205">
        <ele>54.4</ele>
        <time>2022-08-11T14:00:50.451+02:00</time>
      </trkpt>
      <trkpt lat="45.4332" lon="-0.75201">
        <ele>54</ele>
        <time>2022-08-11T14:00:52.449+02:00</time>
      </trkpt>
      <trkpt lat="45.4331" lon="-0.75198">
        <ele>61.1</ele>
        <time>2022-08-11T14:00:54.444+02:00</time>
      </trkpt>
      <trkpt lat="45.43299" lon="-0.75194">
        <ele>58.5</ele>
        <time>2022-08-11T14:00:56.443+02:00</time>
      </trkpt>
      <trkpt lat="45.43289" lon="-0.7519">
        <ele>57.2</ele>
        <time>2022-08-11T14:00:58.442+02:00</time>
      </trkpt>
      <trkpt lat="45.43279" lon="-0.75185">
        <ele>56.8</ele>
        <time>2022-08-11T14:01:00.456+02:00</time>
      </trkpt>
      <trkpt lat="45.43269" lon="-0.7518">
        <ele>56.4</ele>
        <time>2022-08-11T14:01:02.451+02:00</time>
      </trkpt>
      <trkpt lat="45.43259" lon="-0.75173">
        <ele>56.7</ele>
        <time>2022-08-11T14:01:04.46+02:00</time>
      </trkpt>
      <trkpt lat="45.4325" lon="-0.75165">
        <ele>56</ele>
        <time>2022-08-11T14:01:06.445+02:00</time>
      </trkpt>
      <trkpt lat="45.43242" lon="-0.75155">
        <ele>55.8</ele>
        <time>2022-08-11T14:01:08.441+02:00</time>
      </trkpt>
      <trkpt lat="45.43235" lon="-0.75144">
        <ele>55.3</ele>
        <time>2022-08-11T14:01:10.454+02:00</time>
      </trkpt>
      <trkpt lat="45.43227" lon="-0.75132">
        <ele>55.5</ele>
        <time>2022-08-11T14:01:12.463+02:00</time>
      </trkpt>
      <trkpt lat="45.4322" lon="-0.75121">
        <ele>59.5</ele>
        <time>2022-08-11T14:01:14.45+02:00</time>
      </trkpt>
      <trkpt lat="45.43212" lon="-0.7511">
        <ele>56.8</ele>
        <time>2022-08-11T14:01:16.454+02:00</time>
      </trkpt>
      <trkpt lat="45.43204" lon="-0.751">
        <ele>55.6</ele>
        <time>2022-08-11T14:01:18.436+02:00</time>
      </trkpt>
      <trkpt lat="45.43195" lon="-0.7509">
        <ele>55.4</ele>
        <time>2022-08-11T14:01:20.44+02:00</time>
      </trkpt>
      <trkpt lat="45.43186" lon="-0.7508">
        <ele>55.7</ele>
        <time>2022-08-11T14:01:22.451+02:00</time>
      </trkpt>
      <trkpt lat="45.43177" lon="-0.75072">
        <ele>54.8</ele>
        <time>2022-08-11T14:01:24.446+02:00</time>
      </trkpt>
      <trkpt lat="45.43168" lon="-0.75064">
        <ele>54.2</ele>
        <time>2022-08-11T14:01:26.463+02:00</time>
      </trkpt>
      <trkpt lat="45.43159" lon="-0.75057">
        <ele>54.2</ele>
        <time>2022-08-11T14:01:28.436+02:00</time>
      </trkpt>
      <trkpt lat="45.43149" lon="-0.7505">
        <ele>54.8</ele>
        <time>2022-08-11T14:01:30.444+02:00</time>
      </trkpt>
      <trkpt lat="45.4314" lon="-0.75043">
        <ele>54.7</ele>
        <time>2022-08-11T14:01:32.443+02:00</time>
      </trkpt>
      <trkpt lat="45.4313" lon="-0.75038">
        <ele>54.8</ele>
        <time>2022-08-11T14:01:34.45+02:00</time>
      </trkpt>
      <trkpt lat="45.4312" lon="-0.75032">
        <ele>54.8</ele>
        <time>2022-08-11T14:01:36.447+02:00</time>
      </trkpt>
      <trkpt lat="45.4311" lon="-0.75024">
        <ele>54.6</ele>
        <time>2022-08-11T14:01:38.433+02:00</time>
      </trkpt>
      <trkpt lat="45.431" lon="-0.75018">
        <ele>54.4</ele>
        <time>2022-08-11T14:01:40.45+02:00</time>
      </trkpt>
      <trkpt lat="45.43089" lon="-0.75011">
        <ele>58.9</ele>
        <time>2022-08-11T14:01:42.444+02:00</time>
      </trkpt>
      <trkpt lat="45.43079" lon="-0.75004">
        <ele>55.9</ele>
        <time>2022-08-11T14:01:44.438+02:00</time>
      </trkpt>
      <trkpt lat="45.43069" lon="-0.74998">
        <ele>55</ele>
        <time>2022-08-11T14:01:46.443+02:00</time>
      </trkpt>
      <trkpt lat="45.43059" lon="-0.7499">
        <ele>54.6</ele>
        <time>2022-08-11T14:01:48.445+02:00</time>
      </trkpt>
      <trkpt lat="45.43049" lon="-0.74983">
        <ele>54.3</ele>
        <time>2022-08-11T14:01:50.439+02:00</time>
      </trkpt>
      <trkpt lat="45.43039" lon="-0.74976">
        <ele>54.1</ele>
        <time>2022-08-11T14:01:52.434+02:00</time>
      </trkpt>
      <trkpt lat="45.4303" lon="-0.74969">
        <ele>53.8</ele>
        <time>2022-08-11T14:01:54.436+02:00</time>
      </trkpt>
      <trkpt lat="45.4302" lon="-0.74961">
        <ele>53.8</ele>
        <time>2022-08-11T14:01:56.452+02:00</time>
      </trkpt>
      <trkpt lat="45.4301" lon="-0.74955">
        <ele>53.7</ele>
        <time>2022-08-11T14:01:58.43+02:00</time>
      </trkpt>
      <trkpt lat="45.43" lon="-0.74947">
        <ele>53.8</ele>
        <time>2022-08-11T14:02:00.439+02:00</time>
      </trkpt>
      <trkpt lat="45.42989" lon="-0.74939">
        <ele>53.9</ele>
        <time>2022-08-11T14:02:02.439+02:00</time>
      </trkpt>
      <trkpt lat="45.42979" lon="-0.74932">
        <ele>53.9</ele>
        <time>2022-08-11T14:02:04.439+02:00</time>
      </trkpt>
      <trkpt lat="45.42968" lon="-0.74925">
        <ele>53.8</ele>
        <time>2022-08-11T14:02:06.443+02:00</time>
      </trkpt>
      <trkpt lat="45.42957" lon="-0.74918">
        <ele>53.7</ele>
        <time>2022-08-11T14:02:08.442+02:00</time>
      </trkpt>
      <trkpt lat="45.42947" lon="-0.74911">
        <ele>53.6</ele>
        <time>2022-08-11T14:02:10.453+02:00</time>
      </trkpt>
      <trkpt lat="45.42936" lon="-0.74903">
        <ele>53.9</ele>
        <time>2022-08-11T14:02:12.453+02:00</time>
      </trkpt>
      <trkpt lat="45.42926" lon="-0.74896">
        <ele>53.6</ele>
        <time>2022-08-11T14:02:14.451+02:00</time>
      </trkpt>
      <trkpt lat="45.42916" lon="-0.74889">
        <ele>53.8</ele>
        <time>2022-08-11T14:02:16.453+02:00</time>
      </trkpt>
      <trkpt lat="45.42905" lon="-0.74882">
        <ele>54.1</ele>
        <time>2022-08-11T14:02:18.442+02:00</time>
      </trkpt>
      <trkpt lat="45.42895" lon="-0.74876">
        <ele>54.2</ele>
        <time>2022-08-11T14:02:20.458+02:00</time>
      </trkpt>
      <trkpt lat="45.42884" lon="-0.74869">
        <ele>54.2</ele>
        <time>2022-08-11T14:02:22.451+02:00</time>
      </trkpt>
      <trkpt lat="45.42875" lon="-0.74863">
        <ele>54.3</ele>
        <time>2022-08-11T14:02:24.445+02:00</time>
      </trkpt>
      <trkpt lat="45.42865" lon="-0.74856">
        <ele>53.9</ele>
        <time>2022-08-11T14:02:26.453+02:00</time>
      </trkpt>
      <trkpt lat="45.42855" lon="-0.74848">
        <ele>54.2</ele>
        <time>2022-08-11T14:02:28.444+02:00</time>
      </trkpt>
      <trkpt lat="45.42846" lon="-0.74841">
        <ele>54.3</ele>
        <time>2022-08-11T14:02:30.443+02:00</time>
      </trkpt>
      <trkpt lat="45.42836" lon="-0.74833">
        <ele>54.7</ele>
        <time>2022-08-11T14:02:32.458+02:00</time>
      </trkpt>
      <trkpt lat="45.42827" lon="-0.74825">
        <ele>54.8</ele>
        <time>2022-08-11T14:02:34.452+02:00</time>
      </trkpt>
      <trkpt lat="45.42818" lon="-0.74817">
        <ele>54.7</ele>
        <time>2022-08-11T14:02:36.461+02:00</time>
      </trkpt>
      <trkpt lat="45.42809" lon="-0.74809">
        <ele>54.7</ele>
        <time>2022-08-11T14:02:38.441+02:00</time>
      </trkpt>
      <trkpt lat="45.428" lon="-0.74801">
        <ele>54.8</ele>
        <time>2022-08-11T14:02:40.463+02:00</time>
      </trkpt>
      <trkpt lat="45.42792" lon="-0.74792">
        <ele>54.7</ele>
        <time>2022-08-11T14:02:42.448+02:00</time>
      </trkpt>
      <trkpt lat="45.42783" lon="-0.74784">
        <ele>55.3</ele>
        <time>2022-08-11T14:02:44.443+02:00</time>
      </trkpt>
      <trkpt lat="45.42774" lon="-0.74777">
        <ele>55.4</ele>
        <time>2022-08-11T14:02:46.444+02:00</time>
      </trkpt>
      <trkpt lat="45.42765" lon="-0.74768">
        <ele>55</ele>
        <time>2022-08-11T14:02:48.454+02:00</time>
      </trkpt>
      <trkpt lat="45.42756" lon="-0.74761">
        <ele>55.4</ele>
        <time>2022-08-11T14:02:50.443+02:00</time>
      </trkpt>
      <trkpt lat="45.42747" lon="-0.74753">
        <ele>55.3</ele>
        <time>2022-08-11T14:02:52.448+02:00</time>
      </trkpt>
      <trkpt lat="45.42738" lon="-0.74747">
        <ele>55.2</ele>
        <time>2022-08-11T14:02:54.449+02:00</time>
      </trkpt>
      <trkpt lat="45.42728" lon="-0.74742">
        <ele>55.3</ele>
        <time>2022-08-11T14:02:56.447+02:00</time>
      </trkpt>
      <trkpt lat="45.42718" lon="-0.74737">
        <ele>55.3</ele>
        <time>2022-08-11T14:02:58.431+02:00</time>
      </trkpt>
      <trkpt lat="45.42707" lon="-0.74733">
        <ele>55.5</ele>
        <time>2022-08-11T14:03:00.455+02:00</time>
      </trkpt>
      <trkpt lat="45.42697" lon="-0.7473">
        <ele>55.7</ele>
        <time>2022-08-11T14:03:02.439+02:00</time>
      </trkpt>
      <trkpt lat="45.42686" lon="-0.74725">
        <ele>55.5</ele>
        <time>2022-08-11T14:03:04.451+02:00</time>
      </trkpt>
      <trkpt lat="45.42674" lon="-0.74721">
        <ele>55.5</ele>
        <time>2022-08-11T14:03:06.45+02:00</time>
      </trkpt>
      <trkpt lat="45.42663" lon="-0.74717">
        <ele>55.1</ele>
        <time>2022-08-11T14:03:08.426+02:00</time>
      </trkpt>
      <trkpt lat="45.42652" lon="-0.74713">
        <ele>54.9</ele>
        <time>2022-08-11T14:03:10.452+02:00</time>
      </trkpt>
      <trkpt lat="45.42642" lon="-0.74708">
        <ele>57.3</ele>
        <time>2022-08-11T14:03:12.448+02:00</time>
      </trkpt>
      <trkpt lat="45.42632" lon="-0.74704">
        <ele>55.7</ele>
        <time>2022-08-11T14:03:14.448+02:00</time>
      </trkpt>
      <trkpt lat="45.42622" lon="-0.74699">
        <ele>55.5</ele>
        <time>2022-08-11T14:03:16.449+02:00</time>
      </trkpt>
      <trkpt lat="45.42612" lon="-0.74693">
        <ele>55</ele>
        <time>2022-08-11T14:03:18.427+02:00</time>
      </trkpt>
      <trkpt lat="45.42603" lon="-0.74686">
        <ele>54.8</ele>
        <time>2022-08-11T14:03:20.456+02:00</time>
      </trkpt>
      <trkpt lat="45.42594" lon="-0.74677">
        <ele>54.8</ele>
        <time>2022-08-11T14:03:22.437+02:00</time>
      </trkpt>
      <trkpt lat="45.42586" lon="-0.74666">
        <ele>54.9</ele>
        <time>2022-08-11T14:03:24.437+02:00</time>
      </trkpt>
      <trkpt lat="45.4258" lon="-0.74653">
        <ele>54.4</ele>
        <time>2022-08-11T14:03:26.468+02:00</time>
      </trkpt>
      <trkpt lat="45.42575" lon="-0.74639">
        <ele>54.4</ele>
        <time>2022-08-11T14:03:28.439+02:00</time>
      </trkpt>
      <trkpt lat="45.4257" lon="-0.74626">
        <ele>54.6</ele>
        <time>2022-08-11T14:03:30.437+02:00</time>
      </trkpt>
      <trkpt lat="45.42565" lon="-0.74612">
        <ele>54.3</ele>
        <time>2022-08-11T14:03:32.456+02:00</time>
      </trkpt>
      <trkpt lat="45.4256" lon="-0.74599">
        <ele>58.1</ele>
        <time>2022-08-11T14:03:34.443+02:00</time>
      </trkpt>
      <trkpt lat="45.42555" lon="-0.74587">
        <ele>56.3</ele>
        <time>2022-08-11T14:03:36.433+02:00</time>
      </trkpt>
      <trkpt lat="45.4255" lon="-0.74575">
        <ele>55.3</ele>
        <time>2022-08-11T14:03:38.453+02:00</time>
      </trkpt>
      <trkpt lat="45.42545" lon="-0.74562">
        <ele>53.4</ele>
        <time>2022-08-11T14:03:40.448+02:00</time>
      </trkpt>
      <trkpt lat="45.42539" lon="-0.7455">
        <ele>57.9</ele>
        <time>2022-08-11T14:03:42.448+02:00</time>
      </trkpt>
      <trkpt lat="45.42534" lon="-0.74537">
        <ele>55.2</ele>
        <time>2022-08-11T14:03:44.441+02:00</time>
      </trkpt>
      <trkpt lat="45.42529" lon="-0.74524">
        <ele>53.3</ele>
        <time>2022-08-11T14:03:46.451+02:00</time>
      </trkpt>
      <trkpt lat="45.42524" lon="-0.74511">
        <ele>53.6</ele>
        <time>2022-08-11T14:03:48.439+02:00</time>
      </trkpt>
      <trkpt lat="45.42518" lon="-0.74498">
        <ele>55.2</ele>
        <time>2022-08-11T14:03:50.448+02:00</time>
      </trkpt>
      <trkpt lat="45.42513" lon="-0.74486">
        <ele>55.5</ele>
        <time>2022-08-11T14:03:52.448+02:00</time>
      </trkpt>
      <trkpt lat="45.42509" lon="-0.74474">
        <ele>55.2</ele>
        <time>2022-08-11T14:03:54.449+02:00</time>
      </trkpt>
      <trkpt lat="45.42504" lon="-0.74462">
        <ele>54.9</ele>
        <time>2022-08-11T14:03:56.443+02:00</time>
      </trkpt>
      <trkpt lat="45.425" lon="-0.7445">
        <ele>53.8</ele>
        <time>2022-08-11T14:03:58.426+02:00</time>
      </trkpt>
      <trkpt lat="45.42493" lon="-0.74434">
        <ele>53.9</ele>
        <time>2022-08-11T14:04:01.425+02:00</time>
      </trkpt>
      <trkpt lat="45.42488" lon="-0.74422">
        <ele>54.2</ele>
        <time>2022-08-11T14:04:03.437+02:00</time>
      </trkpt>
      <trkpt lat="45.42483" lon="-0.7441">
        <ele>54.4</ele>
        <time>2022-08-11T14:04:05.438+02:00</time>
      </trkpt>
      <trkpt lat="45.42479" lon="-0.74398">
        <ele>55.1</ele>
        <time>2022-08-11T14:04:07.453+02:00</time>
      </trkpt>
      <trkpt lat="45.42474" lon="-0.74386">
        <ele>55.1</ele>
        <time>2022-08-11T14:04:09.501+02:00</time>
      </trkpt>
      <trkpt lat="45.42469" lon="-0.74374">
        <ele>55.2</ele>
        <time>2022-08-11T14:04:11.455+02:00</time>
      </trkpt>
      <trkpt lat="45.42464" lon="-0.74362">
        <ele>55.6</ele>
        <time>2022-08-11T14:04:13.447+02:00</time>
      </trkpt>
      <trkpt lat="45.42459" lon="-0.74349">
        <ele>55.2</ele>
        <time>2022-08-11T14:04:15.456+02:00</time>
      </trkpt>
      <trkpt lat="45.42456" lon="-0.74335">
        <ele>53.7</ele>
        <time>2022-08-11T14:04:17.457+02:00</time>
      </trkpt>
      <trkpt lat="45.42454" lon="-0.74321">
        <ele>53.4</ele>
        <time>2022-08-11T14:04:19.456+02:00</time>
      </trkpt>
      <trkpt lat="45.42452" lon="-0.74303">
        <ele>53.6</ele>
        <time>2022-08-11T14:04:22.424+02:00</time>
      </trkpt>
      <trkpt lat="45.42452" lon="-0.74289">
        <ele>53.3</ele>
        <time>2022-08-11T14:04:24.432+02:00</time>
      </trkpt>
      <trkpt lat="45.42452" lon="-0.74276">
        <ele>53.7</ele>
        <time>2022-08-11T14:04:26.434+02:00</time>
      </trkpt>
      <trkpt lat="45.42453" lon="-0.74261">
        <ele>54.6</ele>
        <time>2022-08-11T14:04:28.442+02:00</time>
      </trkpt>
      <trkpt lat="45.42454" lon="-0.74246">
        <ele>53.4</ele>
        <time>2022-08-11T14:04:30.436+02:00</time>
      </trkpt>
      <trkpt lat="45.42456" lon="-0.74232">
        <ele>54.1</ele>
        <time>2022-08-11T14:04:32.445+02:00</time>
      </trkpt>
      <trkpt lat="45.42457" lon="-0.74218">
        <ele>53.3</ele>
        <time>2022-08-11T14:04:34.451+02:00</time>
      </trkpt>
      <trkpt lat="45.42458" lon="-0.74203">
        <ele>53.1</ele>
        <time>2022-08-11T14:04:36.426+02:00</time>
      </trkpt>
      <trkpt lat="45.42459" lon="-0.74189">
        <ele>51.7</ele>
        <time>2022-08-11T14:04:38.425+02:00</time>
      </trkpt>
      <trkpt lat="45.4246" lon="-0.74174">
        <ele>51.6</ele>
        <time>2022-08-11T14:04:40.452+02:00</time>
      </trkpt>
      <trkpt lat="45.4246" lon="-0.74159">
        <ele>52.4</ele>
        <time>2022-08-11T14:04:42.452+02:00</time>
      </trkpt>
      <trkpt lat="45.42461" lon="-0.74144">
        <ele>52.4</ele>
        <time>2022-08-11T14:04:44.447+02:00</time>
      </trkpt>
      <trkpt lat="45.42462" lon="-0.74128">
        <ele>52</ele>
        <time>2022-08-11T14:04:46.441+02:00</time>
      </trkpt>
      <trkpt lat="45.42464" lon="-0.74113">
        <ele>51.2</ele>
        <time>2022-08-11T14:04:48.438+02:00</time>
      </trkpt>
      <trkpt lat="45.42465" lon="-0.74096">
        <ele>51</ele>
        <time>2022-08-11T14:04:50.438+02:00</time>
      </trkpt>
      <trkpt lat="45.42467" lon="-0.74081">
        <ele>52.5</ele>
        <time>2022-08-11T14:04:52.455+02:00</time>
      </trkpt>
      <trkpt lat="45.42468" lon="-0.74065">
        <ele>52.3</ele>
        <time>2022-08-11T14:04:54.445+02:00</time>
      </trkpt>
      <trkpt lat="45.42469" lon="-0.7405">
        <ele>52</ele>
        <time>2022-08-11T14:04:56.451+02:00</time>
      </trkpt>
      <trkpt lat="45.42468" lon="-0.74034">
        <ele>52.6</ele>
        <time>2022-08-11T14:04:58.432+02:00</time>
      </trkpt>
      <trkpt lat="45.42466" lon="-0.74019">
        <ele>57.2</ele>
        <time>2022-08-11T14:05:00.448+02:00</time>
      </trkpt>
      <trkpt lat="45.4246" lon="-0.74007">
        <ele>54.3</ele>
        <time>2022-08-11T14:05:02.441+02:00</time>
      </trkpt>
      <trkpt lat="45.42454" lon="-0.73997">
        <ele>53.6</ele>
        <time>2022-08-11T14:05:04.429+02:00</time>
      </trkpt>
      <trkpt lat="45.42447" lon="-0.73988">
        <ele>57.3</ele>
        <time>2022-08-11T14:05:06.437+02:00</time>
      </trkpt>
      <trkpt lat="45.42441" lon="-0.73974">
        <ele>53.6</ele>
        <time>2022-08-11T14:05:09.43+02:00</time>
      </trkpt>
      <trkpt lat="45.4244" lon="-0.73961">
        <ele>51.2</ele>
        <time>2022-08-11T14:05:14.452+02:00</time>
      </trkpt>
      <trkpt lat="45.4244" lon="-0.7396">
        <ele>51.5</ele>
        <time>2022-08-11T14:05:17.442+02:00</time>
      </trkpt>
      <trkpt lat="45.4244" lon="-0.7396">
        <ele>51.4</ele>
        <time>2022-08-11T14:05:18.437+02:00</time>
      </trkpt>
      <trkpt lat="45.42439" lon="-0.73959">
        <ele>52</ele>
        <time>2022-08-11T14:06:56.433+02:00</time>
      </trkpt>
      <trkpt lat="45.42439" lon="-0.73959">
        <ele>52</ele>
        <time>2022-08-11T14:06:57.431+02:00</time>
      </trkpt>
      <trkpt lat="45.4244" lon="-0.73959">
        <ele>51.8</ele>
        <time>2022-08-11T14:06:58.435+02:00</time>
      </trkpt>
      <trkpt lat="45.4244" lon="-0.73959">
        <ele>52</ele>
        <time>2022-08-11T14:06:59.443+02:00</time>
      </trkpt>
      <trkpt lat="45.4244" lon="-0.73959">
        <ele>51.8</ele>
        <time>2022-08-11T14:07:00.422+02:00</time>
      </trkpt>
      <trkpt lat="45.42441" lon="-0.73959">
        <ele>51.5</ele>
        <time>2022-08-11T14:07:10.452+02:00</time>
      </trkpt>
      <trkpt lat="45.42441" lon="-0.73958">
        <ele>51.5</ele>
        <time>2022-08-11T14:07:11.447+02:00</time>
      </trkpt>
      <trkpt lat="45.42445" lon="-0.73945">
        <ele>51.4</ele>
        <time>2022-08-11T14:07:17.451+02:00</time>
      </trkpt>
      <trkpt lat="45.42442" lon="-0.73932">
        <ele>51.5</ele>
        <time>2022-08-11T14:07:24.444+02:00</time>
      </trkpt>
      <trkpt lat="45.42433" lon="-0.73923">
        <ele>51.7</ele>
        <time>2022-08-11T14:07:31.438+02:00</time>
      </trkpt>
      <trkpt lat="45.42422" lon="-0.73915">
        <ele>52.2</ele>
        <time>2022-08-11T14:07:35.449+02:00</time>
      </trkpt>
      <trkpt lat="45.42413" lon="-0.73907">
        <ele>52.4</ele>
        <time>2022-08-11T14:07:38.434+02:00</time>
      </trkpt>
      <trkpt lat="45.42404" lon="-0.739">
        <ele>53</ele>
        <time>2022-08-11T14:07:41.439+02:00</time>
      </trkpt>
      <trkpt lat="45.42394" lon="-0.73893">
        <ele>52.9</ele>
        <time>2022-08-11T14:07:44.454+02:00</time>
      </trkpt>
      <trkpt lat="45.42384" lon="-0.73885">
        <ele>52.9</ele>
        <time>2022-08-11T14:07:47.436+02:00</time>
      </trkpt>
      <trkpt lat="45.42375" lon="-0.73878">
        <ele>52.7</ele>
        <time>2022-08-11T14:07:50.441+02:00</time>
      </trkpt>
      <trkpt lat="45.42364" lon="-0.7387">
        <ele>52.7</ele>
        <time>2022-08-11T14:07:53.446+02:00</time>
      </trkpt>
      <trkpt lat="45.42354" lon="-0.73862">
        <ele>52.6</ele>
        <time>2022-08-11T14:07:56.435+02:00</time>
      </trkpt>
      <trkpt lat="45.42344" lon="-0.73854">
        <ele>52.2</ele>
        <time>2022-08-11T14:07:59.422+02:00</time>
      </trkpt>
      <trkpt lat="45.42334" lon="-0.73846">
        <ele>52.3</ele>
        <time>2022-08-11T14:08:02.454+02:00</time>
      </trkpt>
      <trkpt lat="45.42324" lon="-0.73837">
        <ele>51.9</ele>
        <time>2022-08-11T14:08:05.449+02:00</time>
      </trkpt>
      <trkpt lat="45.42313" lon="-0.73829">
        <ele>51.6</ele>
        <time>2022-08-11T14:08:08.438+02:00</time>
      </trkpt>
      <trkpt lat="45.42302" lon="-0.73821">
        <ele>51.6</ele>
        <time>2022-08-11T14:08:11.443+02:00</time>
      </trkpt>
      <trkpt lat="45.42291" lon="-0.73812">
        <ele>51.6</ele>
        <time>2022-08-11T14:08:14.45+02:00</time>
      </trkpt>
      <trkpt lat="45.42281" lon="-0.73804">
        <ele>51.8</ele>
        <time>2022-08-11T14:08:17.454+02:00</time>
      </trkpt>
      <trkpt lat="45.4227" lon="-0.73795">
        <ele>51.6</ele>
        <time>2022-08-11T14:08:20.44+02:00</time>
      </trkpt>
      <trkpt lat="45.42259" lon="-0.73787">
        <ele>51.8</ele>
        <time>2022-08-11T14:08:23.445+02:00</time>
      </trkpt>
      <trkpt lat="45.42248" lon="-0.73777">
        <ele>51.9</ele>
        <time>2022-08-11T14:08:26.455+02:00</time>
      </trkpt>
      <trkpt lat="45.42237" lon="-0.73768">
        <ele>52</ele>
        <time>2022-08-11T14:08:29.441+02:00</time>
      </trkpt>
      <trkpt lat="45.42225" lon="-0.73759">
        <ele>52.1</ele>
        <time>2022-08-11T14:08:32.45+02:00</time>
      </trkpt>
      <trkpt lat="45.42214" lon="-0.7375">
        <ele>52</ele>
        <time>2022-08-11T14:08:35.45+02:00</time>
      </trkpt>
      <trkpt lat="45.42202" lon="-0.73741">
        <ele>52.2</ele>
        <time>2022-08-11T14:08:38.429+02:00</time>
      </trkpt>
      <trkpt lat="45.42194" lon="-0.73735">
        <ele>52.3</ele>
        <time>2022-08-11T14:08:40.44+02:00</time>
      </trkpt>
      <trkpt lat="45.42183" lon="-0.73725">
        <ele>52.3</ele>
        <time>2022-08-11T14:08:43.445+02:00</time>
      </trkpt>
      <trkpt lat="45.42171" lon="-0.73716">
        <ele>52.2</ele>
        <time>2022-08-11T14:08:46.439+02:00</time>
      </trkpt>
      <trkpt lat="45.42163" lon="-0.7371">
        <ele>52.4</ele>
        <time>2022-08-11T14:08:48.428+02:00</time>
      </trkpt>
      <trkpt lat="45.42152" lon="-0.737">
        <ele>52.3</ele>
        <time>2022-08-11T14:08:51.447+02:00</time>
      </trkpt>
      <trkpt lat="45.4214" lon="-0.73691">
        <ele>51.9</ele>
        <time>2022-08-11T14:08:54.443+02:00</time>
      </trkpt>
      <trkpt lat="45.42128" lon="-0.73681">
        <ele>52</ele>
        <time>2022-08-11T14:08:57.437+02:00</time>
      </trkpt>
      <trkpt lat="45.42117" lon="-0.73672">
        <ele>52.4</ele>
        <time>2022-08-11T14:09:00.445+02:00</time>
      </trkpt>
      <trkpt lat="45.42105" lon="-0.73663">
        <ele>52.7</ele>
        <time>2022-08-11T14:09:03.449+02:00</time>
      </trkpt>
      <trkpt lat="45.42094" lon="-0.73655">
        <ele>53</ele>
        <time>2022-08-11T14:09:06.453+02:00</time>
      </trkpt>
      <trkpt lat="45.42082" lon="-0.73645">
        <ele>53.1</ele>
        <time>2022-08-11T14:09:09.45+02:00</time>
      </trkpt>
      <trkpt lat="45.42071" lon="-0.73637">
        <ele>52.7</ele>
        <time>2022-08-11T14:09:12.443+02:00</time>
      </trkpt>
      <trkpt lat="45.4206" lon="-0.73627">
        <ele>52.4</ele>
        <time>2022-08-11T14:09:15.433+02:00</time>
      </trkpt>
      <trkpt lat="45.42049" lon="-0.73618">
        <ele>52.3</ele>
        <time>2022-08-11T14:09:18.428+02:00</time>
      </trkpt>
      <trkpt lat="45.42037" lon="-0.73609">
        <ele>52.5</ele>
        <time>2022-08-11T14:09:21.439+02:00</time>
      </trkpt>
      <trkpt lat="45.42026" lon="-0.73601">
        <ele>52.7</ele>
        <time>2022-08-11T14:09:24.447+02:00</time>
      </trkpt>
      <trkpt lat="45.42015" lon="-0.73592">
        <ele>52.9</ele>
        <time>2022-08-11T14:09:27.454+02:00</time>
      </trkpt>
      <trkpt lat="45.42003" lon="-0.73583">
        <ele>53.1</ele>
        <time>2022-08-11T14:09:30.449+02:00</time>
      </trkpt>
      <trkpt lat="45.41991" lon="-0.73575">
        <ele>52.8</ele>
        <time>2022-08-11T14:09:33.441+02:00</time>
      </trkpt>
      <trkpt lat="45.41979" lon="-0.73567">
        <ele>52.8</ele>
        <time>2022-08-11T14:09:36.433+02:00</time>
      </trkpt>
      <trkpt lat="45.4197" lon="-0.73563">
        <ele>53</ele>
        <time>2022-08-11T14:09:38.427+02:00</time>
      </trkpt>
      <trkpt lat="45.41962" lon="-0.73557">
        <ele>52.8</ele>
        <time>2022-08-11T14:09:40.45+02:00</time>
      </trkpt>
      <trkpt lat="45.41954" lon="-0.73553">
        <ele>53</ele>
        <time>2022-08-11T14:09:42.45+02:00</time>
      </trkpt>
      <trkpt lat="45.41945" lon="-0.73547">
        <ele>52.8</ele>
        <time>2022-08-11T14:09:44.479+02:00</time>
      </trkpt>
      <trkpt lat="45.41936" lon="-0.73542">
        <ele>53</ele>
        <time>2022-08-11T14:09:46.429+02:00</time>
      </trkpt>
      <trkpt lat="45.41927" lon="-0.73537">
        <ele>52.8</ele>
        <time>2022-08-11T14:09:48.427+02:00</time>
      </trkpt>
      <trkpt lat="45.41918" lon="-0.73532">
        <ele>51.9</ele>
        <time>2022-08-11T14:09:50.426+02:00</time>
      </trkpt>
      <trkpt lat="45.4191" lon="-0.73527">
        <ele>52</ele>
        <time>2022-08-11T14:09:52.434+02:00</time>
      </trkpt>
      <trkpt lat="45.419" lon="-0.73521">
        <ele>52</ele>
        <time>2022-08-11T14:09:54.425+02:00</time>
      </trkpt>
      <trkpt lat="45.41891" lon="-0.73516">
        <ele>51.8</ele>
        <time>2022-08-11T14:09:56.458+02:00</time>
      </trkpt>
      <trkpt lat="45.41882" lon="-0.7351">
        <ele>51.6</ele>
        <time>2022-08-11T14:09:58.457+02:00</time>
      </trkpt>
      <trkpt lat="45.41873" lon="-0.73504">
        <ele>51.3</ele>
        <time>2022-08-11T14:10:00.438+02:00</time>
      </trkpt>
      <trkpt lat="45.41864" lon="-0.73498">
        <ele>51.2</ele>
        <time>2022-08-11T14:10:02.455+02:00</time>
      </trkpt>
      <trkpt lat="45.41855" lon="-0.73491">
        <ele>50.9</ele>
        <time>2022-08-11T14:10:04.449+02:00</time>
      </trkpt>
      <trkpt lat="45.41845" lon="-0.73485">
        <ele>51.2</ele>
        <time>2022-08-11T14:10:06.441+02:00</time>
      </trkpt>
      <trkpt lat="45.41836" lon="-0.73478">
        <ele>51.4</ele>
        <time>2022-08-11T14:10:08.441+02:00</time>
      </trkpt>
      <trkpt lat="45.41827" lon="-0.73471">
        <ele>50.9</ele>
        <time>2022-08-11T14:10:10.453+02:00</time>
      </trkpt>
      <trkpt lat="45.41817" lon="-0.73466">
        <ele>51.2</ele>
        <time>2022-08-11T14:10:12.437+02:00</time>
      </trkpt>
      <trkpt lat="45.41808" lon="-0.7346">
        <ele>51.4</ele>
        <time>2022-08-11T14:10:14.453+02:00</time>
      </trkpt>
      <trkpt lat="45.41798" lon="-0.73454">
        <ele>51.4</ele>
        <time>2022-08-11T14:10:16.445+02:00</time>
      </trkpt>
      <trkpt lat="45.41789" lon="-0.73448">
        <ele>51.1</ele>
        <time>2022-08-11T14:10:18.439+02:00</time>
      </trkpt>
      <trkpt lat="45.41779" lon="-0.73442">
        <ele>51.6</ele>
        <time>2022-08-11T14:10:20.449+02:00</time>
      </trkpt>
      <trkpt lat="45.4177" lon="-0.73436">
        <ele>52.2</ele>
        <time>2022-08-11T14:10:22.446+02:00</time>
      </trkpt>
      <trkpt lat="45.41762" lon="-0.7343">
        <ele>52.4</ele>
        <time>2022-08-11T14:10:24.45+02:00</time>
      </trkpt>
      <trkpt lat="45.41752" lon="-0.73424">
        <ele>52.4</ele>
        <time>2022-08-11T14:10:26.445+02:00</time>
      </trkpt>
      <trkpt lat="45.41742" lon="-0.73418">
        <ele>52.2</ele>
        <time>2022-08-11T14:10:28.444+02:00</time>
      </trkpt>
      <trkpt lat="45.41733" lon="-0.73412">
        <ele>51.8</ele>
        <time>2022-08-11T14:10:30.446+02:00</time>
      </trkpt>
      <trkpt lat="45.41723" lon="-0.73407">
        <ele>51.6</ele>
        <time>2022-08-11T14:10:32.448+02:00</time>
      </trkpt>
      <trkpt lat="45.41714" lon="-0.73401">
        <ele>51.5</ele>
        <time>2022-08-11T14:10:34.446+02:00</time>
      </trkpt>
      <trkpt lat="45.41705" lon="-0.73395">
        <ele>51.7</ele>
        <time>2022-08-11T14:10:36.454+02:00</time>
      </trkpt>
      <trkpt lat="45.41696" lon="-0.73389">
        <ele>51.8</ele>
        <time>2022-08-11T14:10:38.422+02:00</time>
      </trkpt>
      <trkpt lat="45.41686" lon="-0.73383">
        <ele>51.8</ele>
        <time>2022-08-11T14:10:40.433+02:00</time>
      </trkpt>
      <trkpt lat="45.41677" lon="-0.73378">
        <ele>52.1</ele>
        <time>2022-08-11T14:10:42.428+02:00</time>
      </trkpt>
      <trkpt lat="45.41668" lon="-0.73372">
        <ele>52</ele>
        <time>2022-08-11T14:10:44.431+02:00</time>
      </trkpt>
      <trkpt lat="45.41659" lon="-0.73367">
        <ele>51.5</ele>
        <time>2022-08-11T14:10:46.426+02:00</time>
      </trkpt>
      <trkpt lat="45.4165" lon="-0.73361">
        <ele>51.2</ele>
        <time>2022-08-11T14:10:48.425+02:00</time>
      </trkpt>
      <trkpt lat="45.41641" lon="-0.73355">
        <ele>51.5</ele>
        <time>2022-08-11T14:10:50.43+02:00</time>
      </trkpt>
      <trkpt lat="45.4163" lon="-0.73346">
        <ele>51.3</ele>
        <time>2022-08-11T14:10:53.423+02:00</time>
      </trkpt>
      <trkpt lat="45.41621" lon="-0.73341">
        <ele>51</ele>
        <time>2022-08-11T14:10:55.43+02:00</time>
      </trkpt>
      <trkpt lat="45.41612" lon="-0.73335">
        <ele>51.2</ele>
        <time>2022-08-11T14:10:57.438+02:00</time>
      </trkpt>
      <trkpt lat="45.41603" lon="-0.7333">
        <ele>51</ele>
        <time>2022-08-11T14:10:59.431+02:00</time>
      </trkpt>
      <trkpt lat="45.41594" lon="-0.73324">
        <ele>50.3</ele>
        <time>2022-08-11T14:11:01.438+02:00</time>
      </trkpt>
      <trkpt lat="45.41585" lon="-0.73318">
        <ele>51.3</ele>
        <time>2022-08-11T14:11:03.431+02:00</time>
      </trkpt>
      <trkpt lat="45.41576" lon="-0.73312">
        <ele>51.5</ele>
        <time>2022-08-11T14:11:05.429+02:00</time>
      </trkpt>
      <trkpt lat="45.41568" lon="-0.73306">
        <ele>52.3</ele>
        <time>2022-08-11T14:11:07.427+02:00</time>
      </trkpt>
      <trkpt lat="45.41559" lon="-0.73302">
        <ele>52.1</ele>
        <time>2022-08-11T14:11:09.444+02:00</time>
      </trkpt>
      <trkpt lat="45.41546" lon="-0.73295">
        <ele>51.8</ele>
        <time>2022-08-11T14:11:12.433+02:00</time>
      </trkpt>
      <trkpt lat="45.41538" lon="-0.7329">
        <ele>51.9</ele>
        <time>2022-08-11T14:11:14.444+02:00</time>
      </trkpt>
      <trkpt lat="45.41526" lon="-0.73282">
        <ele>52.1</ele>
        <time>2022-08-11T14:11:17.436+02:00</time>
      </trkpt>
      <trkpt lat="45.41518" lon="-0.73276">
        <ele>52</ele>
        <time>2022-08-11T14:11:19.43+02:00</time>
      </trkpt>
      <trkpt lat="45.41509" lon="-0.73271">
        <ele>52.3</ele>
        <time>2022-08-11T14:11:21.44+02:00</time>
      </trkpt>
      <trkpt lat="45.41501" lon="-0.73266">
        <ele>52.5</ele>
        <time>2022-08-11T14:11:23.436+02:00</time>
      </trkpt>
      <trkpt lat="45.41492" lon="-0.73261">
        <ele>52.6</ele>
        <time>2022-08-11T14:11:25.44+02:00</time>
      </trkpt>
      <trkpt lat="45.4148" lon="-0.73254">
        <ele>52.8</ele>
        <time>2022-08-11T14:11:28.438+02:00</time>
      </trkpt>
      <trkpt lat="45.41471" lon="-0.73248">
        <ele>53.1</ele>
        <time>2022-08-11T14:11:30.444+02:00</time>
      </trkpt>
      <trkpt lat="45.41462" lon="-0.73243">
        <ele>53.2</ele>
        <time>2022-08-11T14:11:32.434+02:00</time>
      </trkpt>
      <trkpt lat="45.41453" lon="-0.73237">
        <ele>53</ele>
        <time>2022-08-11T14:11:34.437+02:00</time>
      </trkpt>
      <trkpt lat="45.41445" lon="-0.73232">
        <ele>53.7</ele>
        <time>2022-08-11T14:11:36.432+02:00</time>
      </trkpt>
      <trkpt lat="45.41433" lon="-0.73223">
        <ele>53.2</ele>
        <time>2022-08-11T14:11:39.445+02:00</time>
      </trkpt>
      <trkpt lat="45.41424" lon="-0.73216">
        <ele>53.5</ele>
        <time>2022-08-11T14:11:41.433+02:00</time>
      </trkpt>
      <trkpt lat="45.41416" lon="-0.73209">
        <ele>52.6</ele>
        <time>2022-08-11T14:11:43.441+02:00</time>
      </trkpt>
      <trkpt lat="45.41408" lon="-0.73201">
        <ele>52.9</ele>
        <time>2022-08-11T14:11:45.445+02:00</time>
      </trkpt>
      <trkpt lat="45.41401" lon="-0.73192">
        <ele>52.5</ele>
        <time>2022-08-11T14:11:47.44+02:00</time>
      </trkpt>
      <trkpt lat="45.41394" lon="-0.73182">
        <ele>52.4</ele>
        <time>2022-08-11T14:11:49.427+02:00</time>
      </trkpt>
      <trkpt lat="45.41386" lon="-0.73173">
        <ele>52.4</ele>
        <time>2022-08-11T14:11:51.448+02:00</time>
      </trkpt>
      <trkpt lat="45.41378" lon="-0.73164">
        <ele>52.4</ele>
        <time>2022-08-11T14:11:53.442+02:00</time>
      </trkpt>
      <trkpt lat="45.4137" lon="-0.73154">
        <ele>52.9</ele>
        <time>2022-08-11T14:11:55.447+02:00</time>
      </trkpt>
      <trkpt lat="45.41362" lon="-0.73145">
        <ele>53.1</ele>
        <time>2022-08-11T14:11:57.44+02:00</time>
      </trkpt>
      <trkpt lat="45.41354" lon="-0.73135">
        <ele>53.2</ele>
        <time>2022-08-11T14:11:59.46+02:00</time>
      </trkpt>
      <trkpt lat="45.41346" lon="-0.73125">
        <ele>52.8</ele>
        <time>2022-08-11T14:12:01.447+02:00</time>
      </trkpt>
      <trkpt lat="45.41338" lon="-0.73116">
        <ele>52.7</ele>
        <time>2022-08-11T14:12:03.451+02:00</time>
      </trkpt>
      <trkpt lat="45.41331" lon="-0.73107">
        <ele>52.4</ele>
        <time>2022-08-11T14:12:05.449+02:00</time>
      </trkpt>
      <trkpt lat="45.41323" lon="-0.73098">
        <ele>52.4</ele>
        <time>2022-08-11T14:12:07.445+02:00</time>
      </trkpt>
      <trkpt lat="45.41315" lon="-0.73088">
        <ele>52.5</ele>
        <time>2022-08-11T14:12:09.44+02:00</time>
      </trkpt>
      <trkpt lat="45.41307" lon="-0.73079">
        <ele>52.6</ele>
        <time>2022-08-11T14:12:11.434+02:00</time>
      </trkpt>
      <trkpt lat="45.41299" lon="-0.7307">
        <ele>52.7</ele>
        <time>2022-08-11T14:12:13.446+02:00</time>
      </trkpt>
      <trkpt lat="45.41291" lon="-0.73061">
        <ele>52.7</ele>
        <time>2022-08-11T14:12:15.435+02:00</time>
      </trkpt>
      <trkpt lat="45.41283" lon="-0.73051">
        <ele>53.1</ele>
        <time>2022-08-11T14:12:17.452+02:00</time>
      </trkpt>
      <trkpt lat="45.41275" lon="-0.73043">
        <ele>53</ele>
        <time>2022-08-11T14:12:19.442+02:00</time>
      </trkpt>
      <trkpt lat="45.41268" lon="-0.73034">
        <ele>53.4</ele>
        <time>2022-08-11T14:12:21.443+02:00</time>
      </trkpt>
      <trkpt lat="45.4126" lon="-0.73026">
        <ele>53.3</ele>
        <time>2022-08-11T14:12:23.446+02:00</time>
      </trkpt>
      <trkpt lat="45.41252" lon="-0.73016">
        <ele>53.3</ele>
        <time>2022-08-11T14:12:25.444+02:00</time>
      </trkpt>
      <trkpt lat="45.41244" lon="-0.73007">
        <ele>53.3</ele>
        <time>2022-08-11T14:12:27.453+02:00</time>
      </trkpt>
      <trkpt lat="45.41236" lon="-0.72997">
        <ele>52.7</ele>
        <time>2022-08-11T14:12:29.436+02:00</time>
      </trkpt>
      <trkpt lat="45.41228" lon="-0.72988">
        <ele>52.5</ele>
        <time>2022-08-11T14:12:31.437+02:00</time>
      </trkpt>
      <trkpt lat="45.4122" lon="-0.72979">
        <ele>52.4</ele>
        <time>2022-08-11T14:12:33.448+02:00</time>
      </trkpt>
      <trkpt lat="45.41212" lon="-0.72969">
        <ele>52.4</ele>
        <time>2022-08-11T14:12:35.446+02:00</time>
      </trkpt>
      <trkpt lat="45.41204" lon="-0.72959">
        <ele>52.5</ele>
        <time>2022-08-11T14:12:37.452+02:00</time>
      </trkpt>
      <trkpt lat="45.41196" lon="-0.7295">
        <ele>52.7</ele>
        <time>2022-08-11T14:12:39.457+02:00</time>
      </trkpt>
      <trkpt lat="45.41188" lon="-0.72941">
        <ele>52.7</ele>
        <time>2022-08-11T14:12:41.455+02:00</time>
      </trkpt>
      <trkpt lat="45.4118" lon="-0.72931">
        <ele>52.7</ele>
        <time>2022-08-11T14:12:43.447+02:00</time>
      </trkpt>
      <trkpt lat="45.41172" lon="-0.72921">
        <ele>52.8</ele>
        <time>2022-08-11T14:12:45.45+02:00</time>
      </trkpt>
      <trkpt lat="45.41163" lon="-0.72912">
        <ele>53.1</ele>
        <time>2022-08-11T14:12:47.431+02:00</time>
      </trkpt>
      <trkpt lat="45.41155" lon="-0.72902">
        <ele>53.2</ele>
        <time>2022-08-11T14:12:49.449+02:00</time>
      </trkpt>
      <trkpt lat="45.41147" lon="-0.72893">
        <ele>53.3</ele>
        <time>2022-08-11T14:12:51.443+02:00</time>
      </trkpt>
      <trkpt lat="45.41139" lon="-0.72883">
        <ele>53.6</ele>
        <time>2022-08-11T14:12:53.448+02:00</time>
      </trkpt>
      <trkpt lat="45.4113" lon="-0.72874">
        <ele>53.5</ele>
        <time>2022-08-11T14:12:55.455+02:00</time>
      </trkpt>
      <trkpt lat="45.41122" lon="-0.72864">
        <ele>53.9</ele>
        <time>2022-08-11T14:12:57.451+02:00</time>
      </trkpt>
      <trkpt lat="45.41114" lon="-0.72854">
        <ele>53.7</ele>
        <time>2022-08-11T14:12:59.444+02:00</time>
      </trkpt>
      <trkpt lat="45.41106" lon="-0.72844">
        <ele>53.9</ele>
        <time>2022-08-11T14:13:01.441+02:00</time>
      </trkpt>
      <trkpt lat="45.41098" lon="-0.72833">
        <ele>54</ele>
        <time>2022-08-11T14:13:03.447+02:00</time>
      </trkpt>
      <trkpt lat="45.4109" lon="-0.72824">
        <ele>53.8</ele>
        <time>2022-08-11T14:13:05.446+02:00</time>
      </trkpt>
      <trkpt lat="45.41082" lon="-0.72814">
        <ele>53.7</ele>
        <time>2022-08-11T14:13:07.451+02:00</time>
      </trkpt>
      <trkpt lat="45.41073" lon="-0.72805">
        <ele>53.3</ele>
        <time>2022-08-11T14:13:09.438+02:00</time>
      </trkpt>
      <trkpt lat="45.41065" lon="-0.72795">
        <ele>53.2</ele>
        <time>2022-08-11T14:13:11.44+02:00</time>
      </trkpt>
      <trkpt lat="45.41056" lon="-0.72785">
        <ele>53.5</ele>
        <time>2022-08-11T14:13:13.435+02:00</time>
      </trkpt>
      <trkpt lat="45.41048" lon="-0.72775">
        <ele>53.9</ele>
        <time>2022-08-11T14:13:15.448+02:00</time>
      </trkpt>
      <trkpt lat="45.4104" lon="-0.72765">
        <ele>54</ele>
        <time>2022-08-11T14:13:17.453+02:00</time>
      </trkpt>
      <trkpt lat="45.41032" lon="-0.72756">
        <ele>54.2</ele>
        <time>2022-08-11T14:13:19.448+02:00</time>
      </trkpt>
      <trkpt lat="45.41024" lon="-0.72747">
        <ele>54.7</ele>
        <time>2022-08-11T14:13:21.441+02:00</time>
      </trkpt>
      <trkpt lat="45.41017" lon="-0.72739">
        <ele>54.7</ele>
        <time>2022-08-11T14:13:23.446+02:00</time>
      </trkpt>
      <trkpt lat="45.4101" lon="-0.7273">
        <ele>54.7</ele>
        <time>2022-08-11T14:13:25.438+02:00</time>
      </trkpt>
      <trkpt lat="45.41" lon="-0.72719">
        <ele>55.2</ele>
        <time>2022-08-11T14:13:28.429+02:00</time>
      </trkpt>
      <trkpt lat="45.4099" lon="-0.72706">
        <ele>55</ele>
        <time>2022-08-11T14:13:31.449+02:00</time>
      </trkpt>
      <trkpt lat="45.4098" lon="-0.72694">
        <ele>55</ele>
        <time>2022-08-11T14:13:34.442+02:00</time>
      </trkpt>
      <trkpt lat="45.40973" lon="-0.72686">
        <ele>55.3</ele>
        <time>2022-08-11T14:13:36.455+02:00</time>
      </trkpt>
      <trkpt lat="45.40962" lon="-0.72673">
        <ele>55.2</ele>
        <time>2022-08-11T14:13:39.439+02:00</time>
      </trkpt>
      <trkpt lat="45.40952" lon="-0.72662">
        <ele>54.5</ele>
        <time>2022-08-11T14:13:42.436+02:00</time>
      </trkpt>
      <trkpt lat="45.40941" lon="-0.72652">
        <ele>54.6</ele>
        <time>2022-08-11T14:13:45.445+02:00</time>
      </trkpt>
      <trkpt lat="45.40928" lon="-0.72645">
        <ele>53.6</ele>
        <time>2022-08-11T14:13:48.428+02:00</time>
      </trkpt>
      <trkpt lat="45.40916" lon="-0.7264">
        <ele>53.9</ele>
        <time>2022-08-11T14:13:51.446+02:00</time>
      </trkpt>
      <trkpt lat="45.40907" lon="-0.72636">
        <ele>53.9</ele>
        <time>2022-08-11T14:13:53.439+02:00</time>
      </trkpt>
      <trkpt lat="45.40898" lon="-0.72631">
        <ele>54.1</ele>
        <time>2022-08-11T14:13:55.46+02:00</time>
      </trkpt>
      <trkpt lat="45.40888" lon="-0.72627">
        <ele>54.3</ele>
        <time>2022-08-11T14:13:57.444+02:00</time>
      </trkpt>
      <trkpt lat="45.40879" lon="-0.72622">
        <ele>54.6</ele>
        <time>2022-08-11T14:13:59.433+02:00</time>
      </trkpt>
      <trkpt lat="45.4087" lon="-0.72618">
        <ele>54.3</ele>
        <time>2022-08-11T14:14:01.445+02:00</time>
      </trkpt>
      <trkpt lat="45.40861" lon="-0.72614">
        <ele>54.2</ele>
        <time>2022-08-11T14:14:03.453+02:00</time>
      </trkpt>
      <trkpt lat="45.40852" lon="-0.72609">
        <ele>54.3</ele>
        <time>2022-08-11T14:14:05.474+02:00</time>
      </trkpt>
      <trkpt lat="45.40843" lon="-0.72604">
        <ele>54.5</ele>
        <time>2022-08-11T14:14:07.423+02:00</time>
      </trkpt>
      <trkpt lat="45.40833" lon="-0.726">
        <ele>54.6</ele>
        <time>2022-08-11T14:14:09.433+02:00</time>
      </trkpt>
      <trkpt lat="45.40824" lon="-0.72596">
        <ele>54.2</ele>
        <time>2022-08-11T14:14:11.437+02:00</time>
      </trkpt>
      <trkpt lat="45.40815" lon="-0.72592">
        <ele>54.4</ele>
        <time>2022-08-11T14:14:13.454+02:00</time>
      </trkpt>
      <trkpt lat="45.40806" lon="-0.72588">
        <ele>54.5</ele>
        <time>2022-08-11T14:14:15.438+02:00</time>
      </trkpt>
      <trkpt lat="45.40797" lon="-0.72584">
        <ele>54.6</ele>
        <time>2022-08-11T14:14:17.451+02:00</time>
      </trkpt>
      <trkpt lat="45.40784" lon="-0.72578">
        <ele>54.5</ele>
        <time>2022-08-11T14:14:20.445+02:00</time>
      </trkpt>
      <trkpt lat="45.40772" lon="-0.72572">
        <ele>54.4</ele>
        <time>2022-08-11T14:14:23.438+02:00</time>
      </trkpt>
      <trkpt lat="45.40759" lon="-0.72566">
        <ele>54.3</ele>
        <time>2022-08-11T14:14:26.441+02:00</time>
      </trkpt>
      <trkpt lat="45.4075" lon="-0.72562">
        <ele>54.4</ele>
        <time>2022-08-11T14:14:28.444+02:00</time>
      </trkpt>
      <trkpt lat="45.40737" lon="-0.72556">
        <ele>53.3</ele>
        <time>2022-08-11T14:14:31.428+02:00</time>
      </trkpt>
      <trkpt lat="45.40728" lon="-0.72552">
        <ele>53.5</ele>
        <time>2022-08-11T14:14:33.424+02:00</time>
      </trkpt>
      <trkpt lat="45.4072" lon="-0.72547">
        <ele>53.7</ele>
        <time>2022-08-11T14:14:35.432+02:00</time>
      </trkpt>
      <trkpt lat="45.4071" lon="-0.72543">
        <ele>53.3</ele>
        <time>2022-08-11T14:14:37.433+02:00</time>
      </trkpt>
      <trkpt lat="45.40702" lon="-0.72538">
        <ele>53.2</ele>
        <time>2022-08-11T14:14:39.427+02:00</time>
      </trkpt>
      <trkpt lat="45.40689" lon="-0.72532">
        <ele>53.5</ele>
        <time>2022-08-11T14:14:42.426+02:00</time>
      </trkpt>
      <trkpt lat="45.40677" lon="-0.72526">
        <ele>53.8</ele>
        <time>2022-08-11T14:14:45.424+02:00</time>
      </trkpt>
      <trkpt lat="45.40665" lon="-0.7252">
        <ele>53.8</ele>
        <time>2022-08-11T14:14:48.436+02:00</time>
      </trkpt>
      <trkpt lat="45.40652" lon="-0.72514">
        <ele>54.1</ele>
        <time>2022-08-11T14:14:51.429+02:00</time>
      </trkpt>
      <trkpt lat="45.40644" lon="-0.7251">
        <ele>54.4</ele>
        <time>2022-08-11T14:14:53.445+02:00</time>
      </trkpt>
      <trkpt lat="45.40635" lon="-0.72506">
        <ele>54.4</ele>
        <time>2022-08-11T14:14:55.454+02:00</time>
      </trkpt>
      <trkpt lat="45.40625" lon="-0.72502">
        <ele>54.2</ele>
        <time>2022-08-11T14:14:57.461+02:00</time>
      </trkpt>
      <trkpt lat="45.40615" lon="-0.72498">
        <ele>54.5</ele>
        <time>2022-08-11T14:14:59.44+02:00</time>
      </trkpt>
      <trkpt lat="45.40606" lon="-0.72495">
        <ele>54.5</ele>
        <time>2022-08-11T14:15:01.446+02:00</time>
      </trkpt>
      <trkpt lat="45.40596" lon="-0.72492">
        <ele>54.7</ele>
        <time>2022-08-11T14:15:03.437+02:00</time>
      </trkpt>
      <trkpt lat="45.40586" lon="-0.7249">
        <ele>54.6</ele>
        <time>2022-08-11T14:15:05.44+02:00</time>
      </trkpt>
      <trkpt lat="45.40576" lon="-0.72487">
        <ele>54.3</ele>
        <time>2022-08-11T14:15:07.438+02:00</time>
      </trkpt>
      <trkpt lat="45.40565" lon="-0.72483">
        <ele>54.4</ele>
        <time>2022-08-11T14:15:09.44+02:00</time>
      </trkpt>
      <trkpt lat="45.40556" lon="-0.72481">
        <ele>54.6</ele>
        <time>2022-08-11T14:15:11.447+02:00</time>
      </trkpt>
      <trkpt lat="45.40546" lon="-0.72478">
        <ele>54.7</ele>
        <time>2022-08-11T14:15:13.45+02:00</time>
      </trkpt>
      <trkpt lat="45.40537" lon="-0.72475">
        <ele>54.5</ele>
        <time>2022-08-11T14:15:15.45+02:00</time>
      </trkpt>
      <trkpt lat="45.40527" lon="-0.72473">
        <ele>54.2</ele>
        <time>2022-08-11T14:15:17.442+02:00</time>
      </trkpt>
      <trkpt lat="45.40518" lon="-0.72471">
        <ele>54.5</ele>
        <time>2022-08-11T14:15:19.434+02:00</time>
      </trkpt>
      <trkpt lat="45.40508" lon="-0.72468">
        <ele>54.1</ele>
        <time>2022-08-11T14:15:21.439+02:00</time>
      </trkpt>
      <trkpt lat="45.40498" lon="-0.72465">
        <ele>53.9</ele>
        <time>2022-08-11T14:15:23.449+02:00</time>
      </trkpt>
      <trkpt lat="45.40488" lon="-0.72462">
        <ele>54.1</ele>
        <time>2022-08-11T14:15:25.449+02:00</time>
      </trkpt>
      <trkpt lat="45.40478" lon="-0.72459">
        <ele>54.2</ele>
        <time>2022-08-11T14:15:27.446+02:00</time>
      </trkpt>
      <trkpt lat="45.40468" lon="-0.72456">
        <ele>54.5</ele>
        <time>2022-08-11T14:15:29.437+02:00</time>
      </trkpt>
      <trkpt lat="45.40458" lon="-0.72454">
        <ele>54.7</ele>
        <time>2022-08-11T14:15:31.445+02:00</time>
      </trkpt>
      <trkpt lat="45.40448" lon="-0.72452">
        <ele>54.8</ele>
        <time>2022-08-11T14:15:33.437+02:00</time>
      </trkpt>
      <trkpt lat="45.40439" lon="-0.72449">
        <ele>54.5</ele>
        <time>2022-08-11T14:15:35.442+02:00</time>
      </trkpt>
      <trkpt lat="45.40429" lon="-0.72447">
        <ele>54.6</ele>
        <time>2022-08-11T14:15:37.452+02:00</time>
      </trkpt>
      <trkpt lat="45.4042" lon="-0.72445">
        <ele>54.7</ele>
        <time>2022-08-11T14:15:39.429+02:00</time>
      </trkpt>
      <trkpt lat="45.40411" lon="-0.72442">
        <ele>54.6</ele>
        <time>2022-08-11T14:15:41.437+02:00</time>
      </trkpt>
      <trkpt lat="45.40402" lon="-0.72439">
        <ele>54.5</ele>
        <time>2022-08-11T14:15:43.45+02:00</time>
      </trkpt>
      <trkpt lat="45.40393" lon="-0.72437">
        <ele>54.4</ele>
        <time>2022-08-11T14:15:45.436+02:00</time>
      </trkpt>
      <trkpt lat="45.40384" lon="-0.72434">
        <ele>54.1</ele>
        <time>2022-08-11T14:15:47.456+02:00</time>
      </trkpt>
      <trkpt lat="45.40375" lon="-0.72432">
        <ele>54</ele>
        <time>2022-08-11T14:15:49.441+02:00</time>
      </trkpt>
      <trkpt lat="45.40365" lon="-0.7243">
        <ele>54.1</ele>
        <time>2022-08-11T14:15:51.436+02:00</time>
      </trkpt>
      <trkpt lat="45.40356" lon="-0.72427">
        <ele>54.4</ele>
        <time>2022-08-11T14:15:53.439+02:00</time>
      </trkpt>
      <trkpt lat="45.40347" lon="-0.72424">
        <ele>54.1</ele>
        <time>2022-08-11T14:15:55.438+02:00</time>
      </trkpt>
      <trkpt lat="45.40337" lon="-0.72422">
        <ele>54.2</ele>
        <time>2022-08-11T14:15:57.459+02:00</time>
      </trkpt>
      <trkpt lat="45.40328" lon="-0.7242">
        <ele>54</ele>
        <time>2022-08-11T14:15:59.441+02:00</time>
      </trkpt>
      <trkpt lat="45.40319" lon="-0.72416">
        <ele>54.2</ele>
        <time>2022-08-11T14:16:01.441+02:00</time>
      </trkpt>
      <trkpt lat="45.40309" lon="-0.72414">
        <ele>53.7</ele>
        <time>2022-08-11T14:16:03.438+02:00</time>
      </trkpt>
      <trkpt lat="45.403" lon="-0.72412">
        <ele>53.8</ele>
        <time>2022-08-11T14:16:05.44+02:00</time>
      </trkpt>
      <trkpt lat="45.40291" lon="-0.7241">
        <ele>53.6</ele>
        <time>2022-08-11T14:16:07.451+02:00</time>
      </trkpt>
      <trkpt lat="45.40282" lon="-0.72408">
        <ele>53.8</ele>
        <time>2022-08-11T14:16:09.438+02:00</time>
      </trkpt>
      <trkpt lat="45.40273" lon="-0.72404">
        <ele>54</ele>
        <time>2022-08-11T14:16:11.455+02:00</time>
      </trkpt>
      <trkpt lat="45.40264" lon="-0.72402">
        <ele>54</ele>
        <time>2022-08-11T14:16:13.447+02:00</time>
      </trkpt>
      <trkpt lat="45.40255" lon="-0.724">
        <ele>53.7</ele>
        <time>2022-08-11T14:16:15.447+02:00</time>
      </trkpt>
      <trkpt lat="45.40245" lon="-0.72397">
        <ele>53.4</ele>
        <time>2022-08-11T14:16:17.443+02:00</time>
      </trkpt>
      <trkpt lat="45.40236" lon="-0.72396">
        <ele>53.4</ele>
        <time>2022-08-11T14:16:19.44+02:00</time>
      </trkpt>
      <trkpt lat="45.40227" lon="-0.72393">
        <ele>53.4</ele>
        <time>2022-08-11T14:16:21.443+02:00</time>
      </trkpt>
      <trkpt lat="45.40218" lon="-0.7239">
        <ele>53.8</ele>
        <time>2022-08-11T14:16:23.44+02:00</time>
      </trkpt>
      <trkpt lat="45.40209" lon="-0.72388">
        <ele>53.7</ele>
        <time>2022-08-11T14:16:25.441+02:00</time>
      </trkpt>
      <trkpt lat="45.40201" lon="-0.72385">
        <ele>54</ele>
        <time>2022-08-11T14:16:27.445+02:00</time>
      </trkpt>
      <trkpt lat="45.40191" lon="-0.72383">
        <ele>54.2</ele>
        <time>2022-08-11T14:16:29.433+02:00</time>
      </trkpt>
      <trkpt lat="45.40182" lon="-0.7238">
        <ele>54.2</ele>
        <time>2022-08-11T14:16:31.436+02:00</time>
      </trkpt>
      <trkpt lat="45.40172" lon="-0.72377">
        <ele>54.2</ele>
        <time>2022-08-11T14:16:33.437+02:00</time>
      </trkpt>
      <trkpt lat="45.40162" lon="-0.72375">
        <ele>53.9</ele>
        <time>2022-08-11T14:16:35.448+02:00</time>
      </trkpt>
      <trkpt lat="45.40152" lon="-0.72372">
        <ele>53.8</ele>
        <time>2022-08-11T14:16:37.457+02:00</time>
      </trkpt>
      <trkpt lat="45.40142" lon="-0.7237">
        <ele>53.5</ele>
        <time>2022-08-11T14:16:39.437+02:00</time>
      </trkpt>
      <trkpt lat="45.40132" lon="-0.72367">
        <ele>53.5</ele>
        <time>2022-08-11T14:16:41.448+02:00</time>
      </trkpt>
      <trkpt lat="45.40122" lon="-0.72365">
        <ele>53.2</ele>
        <time>2022-08-11T14:16:43.456+02:00</time>
      </trkpt>
      <trkpt lat="45.40112" lon="-0.72362">
        <ele>53</ele>
        <time>2022-08-11T14:16:45.44+02:00</time>
      </trkpt>
      <trkpt lat="45.40101" lon="-0.7236">
        <ele>52.8</ele>
        <time>2022-08-11T14:16:47.456+02:00</time>
      </trkpt>
      <trkpt lat="45.40091" lon="-0.72357">
        <ele>52.7</ele>
        <time>2022-08-11T14:16:49.436+02:00</time>
      </trkpt>
      <trkpt lat="45.4008" lon="-0.72354">
        <ele>52.7</ele>
        <time>2022-08-11T14:16:51.441+02:00</time>
      </trkpt>
      <trkpt lat="45.4007" lon="-0.72351">
        <ele>52.2</ele>
        <time>2022-08-11T14:16:53.45+02:00</time>
      </trkpt>
      <trkpt lat="45.40059" lon="-0.72348">
        <ele>52.2</ele>
        <time>2022-08-11T14:16:55.439+02:00</time>
      </trkpt>
      <trkpt lat="45.40049" lon="-0.72345">
        <ele>51.8</ele>
        <time>2022-08-11T14:16:57.435+02:00</time>
      </trkpt>
      <trkpt lat="45.40039" lon="-0.72343">
        <ele>51.8</ele>
        <time>2022-08-11T14:16:59.441+02:00</time>
      </trkpt>
      <trkpt lat="45.40029" lon="-0.7234">
        <ele>51.6</ele>
        <time>2022-08-11T14:17:01.446+02:00</time>
      </trkpt>
      <trkpt lat="45.40019" lon="-0.72337">
        <ele>51.8</ele>
        <time>2022-08-11T14:17:03.445+02:00</time>
      </trkpt>
      <trkpt lat="45.40009" lon="-0.72335">
        <ele>52</ele>
        <time>2022-08-11T14:17:05.445+02:00</time>
      </trkpt>
      <trkpt lat="45.39998" lon="-0.72332">
        <ele>52</ele>
        <time>2022-08-11T14:17:07.446+02:00</time>
      </trkpt>
      <trkpt lat="45.39988" lon="-0.7233">
        <ele>52.1</ele>
        <time>2022-08-11T14:17:09.436+02:00</time>
      </trkpt>
      <trkpt lat="45.39978" lon="-0.72327">
        <ele>52.2</ele>
        <time>2022-08-11T14:17:11.437+02:00</time>
      </trkpt>
      <trkpt lat="45.39968" lon="-0.72324">
        <ele>52.1</ele>
        <time>2022-08-11T14:17:13.446+02:00</time>
      </trkpt>
      <trkpt lat="45.39958" lon="-0.7232">
        <ele>51.9</ele>
        <time>2022-08-11T14:17:15.437+02:00</time>
      </trkpt>
      <trkpt lat="45.39947" lon="-0.72318">
        <ele>52.1</ele>
        <time>2022-08-11T14:17:17.44+02:00</time>
      </trkpt>
      <trkpt lat="45.39936" lon="-0.72314">
        <ele>51.8</ele>
        <time>2022-08-11T14:17:19.44+02:00</time>
      </trkpt>
      <trkpt lat="45.39926" lon="-0.72311">
        <ele>51.8</ele>
        <time>2022-08-11T14:17:21.436+02:00</time>
      </trkpt>
      <trkpt lat="45.39915" lon="-0.72309">
        <ele>52.4</ele>
        <time>2022-08-11T14:17:23.445+02:00</time>
      </trkpt>
      <trkpt lat="45.39905" lon="-0.72306">
        <ele>52.1</ele>
        <time>2022-08-11T14:17:25.445+02:00</time>
      </trkpt>
      <trkpt lat="45.39894" lon="-0.72303">
        <ele>52.2</ele>
        <time>2022-08-11T14:17:27.445+02:00</time>
      </trkpt>
      <trkpt lat="45.39884" lon="-0.72301">
        <ele>52.3</ele>
        <time>2022-08-11T14:17:29.417+02:00</time>
      </trkpt>
      <trkpt lat="45.39873" lon="-0.72298">
        <ele>52.1</ele>
        <time>2022-08-11T14:17:31.422+02:00</time>
      </trkpt>
      <trkpt lat="45.39864" lon="-0.72295">
        <ele>52.4</ele>
        <time>2022-08-11T14:17:33.448+02:00</time>
      </trkpt>
      <trkpt lat="45.39853" lon="-0.72293">
        <ele>52.3</ele>
        <time>2022-08-11T14:17:35.437+02:00</time>
      </trkpt>
      <trkpt lat="45.39843" lon="-0.7229">
        <ele>52.1</ele>
        <time>2022-08-11T14:17:37.444+02:00</time>
      </trkpt>
      <trkpt lat="45.39832" lon="-0.72288">
        <ele>52.2</ele>
        <time>2022-08-11T14:17:39.437+02:00</time>
      </trkpt>
      <trkpt lat="45.39821" lon="-0.72286">
        <ele>52.5</ele>
        <time>2022-08-11T14:17:41.445+02:00</time>
      </trkpt>
      <trkpt lat="45.39811" lon="-0.72283">
        <ele>52.3</ele>
        <time>2022-08-11T14:17:43.443+02:00</time>
      </trkpt>
      <trkpt lat="45.39801" lon="-0.7228">
        <ele>52.1</ele>
        <time>2022-08-11T14:17:45.445+02:00</time>
      </trkpt>
      <trkpt lat="45.3979" lon="-0.72277">
        <ele>52</ele>
        <time>2022-08-11T14:17:47.439+02:00</time>
      </trkpt>
      <trkpt lat="45.3978" lon="-0.72275">
        <ele>51.6</ele>
        <time>2022-08-11T14:17:49.444+02:00</time>
      </trkpt>
      <trkpt lat="45.3977" lon="-0.72271">
        <ele>51.7</ele>
        <time>2022-08-11T14:17:51.443+02:00</time>
      </trkpt>
      <trkpt lat="45.3976" lon="-0.72269">
        <ele>51.6</ele>
        <time>2022-08-11T14:17:53.445+02:00</time>
      </trkpt>
      <trkpt lat="45.3975" lon="-0.72267">
        <ele>51.7</ele>
        <time>2022-08-11T14:17:55.454+02:00</time>
      </trkpt>
      <trkpt lat="45.3974" lon="-0.72264">
        <ele>52.1</ele>
        <time>2022-08-11T14:17:57.446+02:00</time>
      </trkpt>
      <trkpt lat="45.39729" lon="-0.72261">
        <ele>51.6</ele>
        <time>2022-08-11T14:17:59.433+02:00</time>
      </trkpt>
      <trkpt lat="45.39719" lon="-0.72258">
        <ele>51.5</ele>
        <time>2022-08-11T14:18:01.443+02:00</time>
      </trkpt>
      <trkpt lat="45.39708" lon="-0.72255">
        <ele>51.6</ele>
        <time>2022-08-11T14:18:03.453+02:00</time>
      </trkpt>
      <trkpt lat="45.39697" lon="-0.72253">
        <ele>51.6</ele>
        <time>2022-08-11T14:18:05.438+02:00</time>
      </trkpt>
      <trkpt lat="45.39687" lon="-0.7225">
        <ele>51.9</ele>
        <time>2022-08-11T14:18:07.449+02:00</time>
      </trkpt>
      <trkpt lat="45.39677" lon="-0.72247">
        <ele>51.9</ele>
        <time>2022-08-11T14:18:09.43+02:00</time>
      </trkpt>
      <trkpt lat="45.39666" lon="-0.72244">
        <ele>52.1</ele>
        <time>2022-08-11T14:18:11.446+02:00</time>
      </trkpt>
      <trkpt lat="45.39655" lon="-0.72241">
        <ele>51.4</ele>
        <time>2022-08-11T14:18:13.447+02:00</time>
      </trkpt>
      <trkpt lat="45.39644" lon="-0.72238">
        <ele>51.4</ele>
        <time>2022-08-11T14:18:15.451+02:00</time>
      </trkpt>
      <trkpt lat="45.39634" lon="-0.72235">
        <ele>51.1</ele>
        <time>2022-08-11T14:18:17.45+02:00</time>
      </trkpt>
      <trkpt lat="45.39623" lon="-0.72232">
        <ele>51.4</ele>
        <time>2022-08-11T14:18:19.443+02:00</time>
      </trkpt>
      <trkpt lat="45.39612" lon="-0.72229">
        <ele>51.1</ele>
        <time>2022-08-11T14:18:21.441+02:00</time>
      </trkpt>
      <trkpt lat="45.39601" lon="-0.72226">
        <ele>51.6</ele>
        <time>2022-08-11T14:18:23.436+02:00</time>
      </trkpt>
      <trkpt lat="45.3959" lon="-0.72222">
        <ele>51.8</ele>
        <time>2022-08-11T14:18:25.439+02:00</time>
      </trkpt>
      <trkpt lat="45.39579" lon="-0.7222">
        <ele>51.7</ele>
        <time>2022-08-11T14:18:27.452+02:00</time>
      </trkpt>
      <trkpt lat="45.39568" lon="-0.72217">
        <ele>51.5</ele>
        <time>2022-08-11T14:18:29.433+02:00</time>
      </trkpt>
      <trkpt lat="45.39557" lon="-0.72214">
        <ele>51.5</ele>
        <time>2022-08-11T14:18:31.431+02:00</time>
      </trkpt>
      <trkpt lat="45.39546" lon="-0.72211">
        <ele>51.4</ele>
        <time>2022-08-11T14:18:33.433+02:00</time>
      </trkpt>
      <trkpt lat="45.39535" lon="-0.72208">
        <ele>51.4</ele>
        <time>2022-08-11T14:18:35.443+02:00</time>
      </trkpt>
      <trkpt lat="45.39524" lon="-0.72205">
        <ele>51.7</ele>
        <time>2022-08-11T14:18:37.439+02:00</time>
      </trkpt>
      <trkpt lat="45.39513" lon="-0.72202">
        <ele>51.5</ele>
        <time>2022-08-11T14:18:39.433+02:00</time>
      </trkpt>
      <trkpt lat="45.39503" lon="-0.722">
        <ele>51.3</ele>
        <time>2022-08-11T14:18:41.445+02:00</time>
      </trkpt>
      <trkpt lat="45.39492" lon="-0.72198">
        <ele>50.9</ele>
        <time>2022-08-11T14:18:43.442+02:00</time>
      </trkpt>
      <trkpt lat="45.39482" lon="-0.72195">
        <ele>50.7</ele>
        <time>2022-08-11T14:18:45.453+02:00</time>
      </trkpt>
      <trkpt lat="45.39472" lon="-0.72192">
        <ele>51.2</ele>
        <time>2022-08-11T14:18:47.443+02:00</time>
      </trkpt>
      <trkpt lat="45.39461" lon="-0.72189">
        <ele>51.3</ele>
        <time>2022-08-11T14:18:49.437+02:00</time>
      </trkpt>
      <trkpt lat="45.39451" lon="-0.72186">
        <ele>51.5</ele>
        <time>2022-08-11T14:18:51.442+02:00</time>
      </trkpt>
      <trkpt lat="45.39441" lon="-0.72184">
        <ele>51.4</ele>
        <time>2022-08-11T14:18:53.442+02:00</time>
      </trkpt>
      <trkpt lat="45.39431" lon="-0.7218">
        <ele>51.1</ele>
        <time>2022-08-11T14:18:55.451+02:00</time>
      </trkpt>
      <trkpt lat="45.3942" lon="-0.72178">
        <ele>51.1</ele>
        <time>2022-08-11T14:18:57.447+02:00</time>
      </trkpt>
      <trkpt lat="45.39411" lon="-0.72175">
        <ele>51</ele>
        <time>2022-08-11T14:18:59.432+02:00</time>
      </trkpt>
      <trkpt lat="45.39401" lon="-0.72173">
        <ele>51</ele>
        <time>2022-08-11T14:19:01.437+02:00</time>
      </trkpt>
      <trkpt lat="45.39391" lon="-0.7217">
        <ele>51.1</ele>
        <time>2022-08-11T14:19:03.441+02:00</time>
      </trkpt>
      <trkpt lat="45.39381" lon="-0.72167">
        <ele>51.8</ele>
        <time>2022-08-11T14:19:05.439+02:00</time>
      </trkpt>
      <trkpt lat="45.39371" lon="-0.72165">
        <ele>51.7</ele>
        <time>2022-08-11T14:19:07.439+02:00</time>
      </trkpt>
      <trkpt lat="45.39361" lon="-0.72162">
        <ele>52</ele>
        <time>2022-08-11T14:19:09.451+02:00</time>
      </trkpt>
      <trkpt lat="45.39351" lon="-0.72159">
        <ele>51.7</ele>
        <time>2022-08-11T14:19:11.442+02:00</time>
      </trkpt>
      <trkpt lat="45.39341" lon="-0.72156">
        <ele>51.8</ele>
        <time>2022-08-11T14:19:13.428+02:00</time>
      </trkpt>
      <trkpt lat="45.39331" lon="-0.72154">
        <ele>51.8</ele>
        <time>2022-08-11T14:19:15.435+02:00</time>
      </trkpt>
      <trkpt lat="45.3932" lon="-0.72151">
        <ele>51.7</ele>
        <time>2022-08-11T14:19:17.444+02:00</time>
      </trkpt>
      <trkpt lat="45.3931" lon="-0.72149">
        <ele>51.5</ele>
        <time>2022-08-11T14:19:19.435+02:00</time>
      </trkpt>
      <trkpt lat="45.393" lon="-0.72146">
        <ele>51.1</ele>
        <time>2022-08-11T14:19:21.443+02:00</time>
      </trkpt>
      <trkpt lat="45.3929" lon="-0.72143">
        <ele>50.9</ele>
        <time>2022-08-11T14:19:23.441+02:00</time>
      </trkpt>
      <trkpt lat="45.39281" lon="-0.72141">
        <ele>50.8</ele>
        <time>2022-08-11T14:19:25.438+02:00</time>
      </trkpt>
      <trkpt lat="45.39271" lon="-0.72138">
        <ele>51.1</ele>
        <time>2022-08-11T14:19:27.438+02:00</time>
      </trkpt>
      <trkpt lat="45.39261" lon="-0.72136">
        <ele>51.2</ele>
        <time>2022-08-11T14:19:29.433+02:00</time>
      </trkpt>
      <trkpt lat="45.39251" lon="-0.72133">
        <ele>51.3</ele>
        <time>2022-08-11T14:19:31.452+02:00</time>
      </trkpt>
      <trkpt lat="45.39241" lon="-0.7213">
        <ele>51.5</ele>
        <time>2022-08-11T14:19:33.441+02:00</time>
      </trkpt>
      <trkpt lat="45.39231" lon="-0.72128">
        <ele>51.7</ele>
        <time>2022-08-11T14:19:35.436+02:00</time>
      </trkpt>
      <trkpt lat="45.39221" lon="-0.72125">
        <ele>52</ele>
        <time>2022-08-11T14:19:37.443+02:00</time>
      </trkpt>
      <trkpt lat="45.39211" lon="-0.72122">
        <ele>51.7</ele>
        <time>2022-08-11T14:19:39.427+02:00</time>
      </trkpt>
      <trkpt lat="45.39201" lon="-0.72119">
        <ele>52</ele>
        <time>2022-08-11T14:19:41.442+02:00</time>
      </trkpt>
      <trkpt lat="45.39191" lon="-0.72116">
        <ele>52.3</ele>
        <time>2022-08-11T14:19:43.435+02:00</time>
      </trkpt>
      <trkpt lat="45.39181" lon="-0.72114">
        <ele>52.3</ele>
        <time>2022-08-11T14:19:45.434+02:00</time>
      </trkpt>
      <trkpt lat="45.39172" lon="-0.72111">
        <ele>52.1</ele>
        <time>2022-08-11T14:19:47.432+02:00</time>
      </trkpt>
      <trkpt lat="45.39162" lon="-0.72109">
        <ele>52.3</ele>
        <time>2022-08-11T14:19:49.433+02:00</time>
      </trkpt>
      <trkpt lat="45.39153" lon="-0.72106">
        <ele>52.4</ele>
        <time>2022-08-11T14:19:51.436+02:00</time>
      </trkpt>
      <trkpt lat="45.39143" lon="-0.72104">
        <ele>52.4</ele>
        <time>2022-08-11T14:19:53.439+02:00</time>
      </trkpt>
      <trkpt lat="45.39133" lon="-0.72101">
        <ele>52.8</ele>
        <time>2022-08-11T14:19:55.44+02:00</time>
      </trkpt>
      <trkpt lat="45.39123" lon="-0.72098">
        <ele>52.8</ele>
        <time>2022-08-11T14:19:57.439+02:00</time>
      </trkpt>
      <trkpt lat="45.39113" lon="-0.72095">
        <ele>52.5</ele>
        <time>2022-08-11T14:19:59.439+02:00</time>
      </trkpt>
      <trkpt lat="45.39102" lon="-0.72093">
        <ele>52.4</ele>
        <time>2022-08-11T14:20:01.446+02:00</time>
      </trkpt>
      <trkpt lat="45.39092" lon="-0.72091">
        <ele>52.2</ele>
        <time>2022-08-11T14:20:03.438+02:00</time>
      </trkpt>
      <trkpt lat="45.39082" lon="-0.72087">
        <ele>52</ele>
        <time>2022-08-11T14:20:05.443+02:00</time>
      </trkpt>
      <trkpt lat="45.39072" lon="-0.72085">
        <ele>51.6</ele>
        <time>2022-08-11T14:20:07.447+02:00</time>
      </trkpt>
      <trkpt lat="45.39061" lon="-0.72083">
        <ele>51.5</ele>
        <time>2022-08-11T14:20:09.439+02:00</time>
      </trkpt>
      <trkpt lat="45.39051" lon="-0.7208">
        <ele>51.6</ele>
        <time>2022-08-11T14:20:11.441+02:00</time>
      </trkpt>
      <trkpt lat="45.39041" lon="-0.72077">
        <ele>51.9</ele>
        <time>2022-08-11T14:20:13.44+02:00</time>
      </trkpt>
      <trkpt lat="45.39031" lon="-0.72073">
        <ele>51.2</ele>
        <time>2022-08-11T14:20:15.446+02:00</time>
      </trkpt>
      <trkpt lat="45.39021" lon="-0.72069">
        <ele>51</ele>
        <time>2022-08-11T14:20:17.448+02:00</time>
      </trkpt>
      <trkpt lat="45.39012" lon="-0.72062">
        <ele>51.2</ele>
        <time>2022-08-11T14:20:19.421+02:00</time>
      </trkpt>
      <trkpt lat="45.39003" lon="-0.72055">
        <ele>51.2</ele>
        <time>2022-08-11T14:20:21.448+02:00</time>
      </trkpt>
      <trkpt lat="45.38994" lon="-0.72047">
        <ele>51</ele>
        <time>2022-08-11T14:20:23.445+02:00</time>
      </trkpt>
      <trkpt lat="45.38985" lon="-0.7204">
        <ele>50.9</ele>
        <time>2022-08-11T14:20:25.438+02:00</time>
      </trkpt>
      <trkpt lat="45.38976" lon="-0.72032">
        <ele>51.3</ele>
        <time>2022-08-11T14:20:27.448+02:00</time>
      </trkpt>
      <trkpt lat="45.38967" lon="-0.72025">
        <ele>51.2</ele>
        <time>2022-08-11T14:20:29.431+02:00</time>
      </trkpt>
      <trkpt lat="45.38958" lon="-0.72017">
        <ele>51.1</ele>
        <time>2022-08-11T14:20:31.437+02:00</time>
      </trkpt>
      <trkpt lat="45.38949" lon="-0.72009">
        <ele>51.2</ele>
        <time>2022-08-11T14:20:33.441+02:00</time>
      </trkpt>
      <trkpt lat="45.38939" lon="-0.72002">
        <ele>51.3</ele>
        <time>2022-08-11T14:20:35.443+02:00</time>
      </trkpt>
      <trkpt lat="45.3893" lon="-0.71994">
        <ele>51.3</ele>
        <time>2022-08-11T14:20:37.437+02:00</time>
      </trkpt>
      <trkpt lat="45.38921" lon="-0.71987">
        <ele>51.2</ele>
        <time>2022-08-11T14:20:39.432+02:00</time>
      </trkpt>
      <trkpt lat="45.38912" lon="-0.71979">
        <ele>51</ele>
        <time>2022-08-11T14:20:41.436+02:00</time>
      </trkpt>
      <trkpt lat="45.38903" lon="-0.71971">
        <ele>51.1</ele>
        <time>2022-08-11T14:20:43.436+02:00</time>
      </trkpt>
      <trkpt lat="45.38894" lon="-0.71965">
        <ele>51.1</ele>
        <time>2022-08-11T14:20:45.443+02:00</time>
      </trkpt>
      <trkpt lat="45.38886" lon="-0.71957">
        <ele>50.9</ele>
        <time>2022-08-11T14:20:47.446+02:00</time>
      </trkpt>
      <trkpt lat="45.38877" lon="-0.7195">
        <ele>50.9</ele>
        <time>2022-08-11T14:20:49.431+02:00</time>
      </trkpt>
      <trkpt lat="45.38868" lon="-0.71943">
        <ele>51.2</ele>
        <time>2022-08-11T14:20:51.437+02:00</time>
      </trkpt>
      <trkpt lat="45.38859" lon="-0.71936">
        <ele>51.1</ele>
        <time>2022-08-11T14:20:53.436+02:00</time>
      </trkpt>
      <trkpt lat="45.38851" lon="-0.7193">
        <ele>50.7</ele>
        <time>2022-08-11T14:20:55.446+02:00</time>
      </trkpt>
      <trkpt lat="45.38842" lon="-0.71922">
        <ele>50.9</ele>
        <time>2022-08-11T14:20:57.44+02:00</time>
      </trkpt>
      <trkpt lat="45.38833" lon="-0.71915">
        <ele>50.8</ele>
        <time>2022-08-11T14:20:59.447+02:00</time>
      </trkpt>
      <trkpt lat="45.38823" lon="-0.71907">
        <ele>50.5</ele>
        <time>2022-08-11T14:21:01.443+02:00</time>
      </trkpt>
      <trkpt lat="45.38814" lon="-0.71899">
        <ele>51</ele>
        <time>2022-08-11T14:21:03.449+02:00</time>
      </trkpt>
      <trkpt lat="45.38805" lon="-0.71892">
        <ele>50.9</ele>
        <time>2022-08-11T14:21:05.439+02:00</time>
      </trkpt>
      <trkpt lat="45.38796" lon="-0.71885">
        <ele>51</ele>
        <time>2022-08-11T14:21:07.449+02:00</time>
      </trkpt>
      <trkpt lat="45.38786" lon="-0.71877">
        <ele>51.4</ele>
        <time>2022-08-11T14:21:09.437+02:00</time>
      </trkpt>
      <trkpt lat="45.38777" lon="-0.71869">
        <ele>51.3</ele>
        <time>2022-08-11T14:21:11.439+02:00</time>
      </trkpt>
      <trkpt lat="45.38768" lon="-0.71861">
        <ele>51.4</ele>
        <time>2022-08-11T14:21:13.438+02:00</time>
      </trkpt>
      <trkpt lat="45.38759" lon="-0.71854">
        <ele>51.4</ele>
        <time>2022-08-11T14:21:15.437+02:00</time>
      </trkpt>
      <trkpt lat="45.3875" lon="-0.71847">
        <ele>51.4</ele>
        <time>2022-08-11T14:21:17.445+02:00</time>
      </trkpt>
      <trkpt lat="45.38742" lon="-0.7184">
        <ele>51</ele>
        <time>2022-08-11T14:21:19.438+02:00</time>
      </trkpt>
      <trkpt lat="45.38734" lon="-0.71833">
        <ele>51.2</ele>
        <time>2022-08-11T14:21:21.441+02:00</time>
      </trkpt>
      <trkpt lat="45.38726" lon="-0.71826">
        <ele>51</ele>
        <time>2022-08-11T14:21:23.439+02:00</time>
      </trkpt>
      <trkpt lat="45.38718" lon="-0.7182">
        <ele>51</ele>
        <time>2022-08-11T14:21:25.439+02:00</time>
      </trkpt>
      <trkpt lat="45.3871" lon="-0.71813">
        <ele>51</ele>
        <time>2022-08-11T14:21:27.447+02:00</time>
      </trkpt>
      <trkpt lat="45.38702" lon="-0.71806">
        <ele>51.4</ele>
        <time>2022-08-11T14:21:29.432+02:00</time>
      </trkpt>
      <trkpt lat="45.38691" lon="-0.71796">
        <ele>51.4</ele>
        <time>2022-08-11T14:21:32.434+02:00</time>
      </trkpt>
      <trkpt lat="45.38678" lon="-0.71787">
        <ele>51.1</ele>
        <time>2022-08-11T14:21:35.441+02:00</time>
      </trkpt>
      <trkpt lat="45.3867" lon="-0.7178">
        <ele>51.5</ele>
        <time>2022-08-11T14:21:37.442+02:00</time>
      </trkpt>
      <trkpt lat="45.38662" lon="-0.71773">
        <ele>51.4</ele>
        <time>2022-08-11T14:21:39.431+02:00</time>
      </trkpt>
      <trkpt lat="45.38653" lon="-0.71766">
        <ele>51.5</ele>
        <time>2022-08-11T14:21:41.441+02:00</time>
      </trkpt>
      <trkpt lat="45.38645" lon="-0.71759">
        <ele>51.6</ele>
        <time>2022-08-11T14:21:43.438+02:00</time>
      </trkpt>
      <trkpt lat="45.38636" lon="-0.71752">
        <ele>52</ele>
        <time>2022-08-11T14:21:45.442+02:00</time>
      </trkpt>
      <trkpt lat="45.38627" lon="-0.71745">
        <ele>51.7</ele>
        <time>2022-08-11T14:21:47.449+02:00</time>
      </trkpt>
      <trkpt lat="45.38619" lon="-0.71738">
        <ele>52</ele>
        <time>2022-08-11T14:21:49.419+02:00</time>
      </trkpt>
      <trkpt lat="45.38611" lon="-0.71732">
        <ele>51.7</ele>
        <time>2022-08-11T14:21:51.422+02:00</time>
      </trkpt>
      <trkpt lat="45.38603" lon="-0.71725">
        <ele>51.5</ele>
        <time>2022-08-11T14:21:53.428+02:00</time>
      </trkpt>
      <trkpt lat="45.38592" lon="-0.71716">
        <ele>51.7</ele>
        <time>2022-08-11T14:21:56.436+02:00</time>
      </trkpt>
      <trkpt lat="45.38584" lon="-0.71709">
        <ele>51.8</ele>
        <time>2022-08-11T14:21:58.442+02:00</time>
      </trkpt>
      <trkpt lat="45.38575" lon="-0.71703">
        <ele>51.9</ele>
        <time>2022-08-11T14:22:00.464+02:00</time>
      </trkpt>
      <trkpt lat="45.38567" lon="-0.71696">
        <ele>51.8</ele>
        <time>2022-08-11T14:22:02.461+02:00</time>
      </trkpt>
      <trkpt lat="45.38556" lon="-0.71687">
        <ele>51.8</ele>
        <time>2022-08-11T14:22:05.447+02:00</time>
      </trkpt>
      <trkpt lat="45.38545" lon="-0.71677">
        <ele>52</ele>
        <time>2022-08-11T14:22:08.442+02:00</time>
      </trkpt>
      <trkpt lat="45.38534" lon="-0.71668">
        <ele>52</ele>
        <time>2022-08-11T14:22:11.437+02:00</time>
      </trkpt>
      <trkpt lat="45.38523" lon="-0.71659">
        <ele>51.5</ele>
        <time>2022-08-11T14:22:14.446+02:00</time>
      </trkpt>
      <trkpt lat="45.38512" lon="-0.7165">
        <ele>51.4</ele>
        <time>2022-08-11T14:22:17.445+02:00</time>
      </trkpt>
      <trkpt lat="45.38503" lon="-0.71643">
        <ele>51.6</ele>
        <time>2022-08-11T14:22:19.433+02:00</time>
      </trkpt>
      <trkpt lat="45.38492" lon="-0.71633">
        <ele>51.7</ele>
        <time>2022-08-11T14:22:22.437+02:00</time>
      </trkpt>
      <trkpt lat="45.38481" lon="-0.71623">
        <ele>51.4</ele>
        <time>2022-08-11T14:22:25.447+02:00</time>
      </trkpt>
      <trkpt lat="45.38473" lon="-0.71617">
        <ele>51.3</ele>
        <time>2022-08-11T14:22:27.445+02:00</time>
      </trkpt>
      <trkpt lat="45.38465" lon="-0.7161">
        <ele>51.2</ele>
        <time>2022-08-11T14:22:29.431+02:00</time>
      </trkpt>
      <trkpt lat="45.38456" lon="-0.71604">
        <ele>51</ele>
        <time>2022-08-11T14:22:31.437+02:00</time>
      </trkpt>
      <trkpt lat="45.38448" lon="-0.71597">
        <ele>51.2</ele>
        <time>2022-08-11T14:22:33.45+02:00</time>
      </trkpt>
      <trkpt lat="45.38439" lon="-0.71591">
        <ele>50.5</ele>
        <time>2022-08-11T14:22:35.437+02:00</time>
      </trkpt>
      <trkpt lat="45.3843" lon="-0.71587">
        <ele>50.4</ele>
        <time>2022-08-11T14:22:37.44+02:00</time>
      </trkpt>
      <trkpt lat="45.3842" lon="-0.71583">
        <ele>50.3</ele>
        <time>2022-08-11T14:22:39.446+02:00</time>
      </trkpt>
      <trkpt lat="45.38412" lon="-0.71578">
        <ele>49.9</ele>
        <time>2022-08-11T14:22:41.445+02:00</time>
      </trkpt>
      <trkpt lat="45.38401" lon="-0.71575">
        <ele>50.3</ele>
        <time>2022-08-11T14:22:43.444+02:00</time>
      </trkpt>
      <trkpt lat="45.38393" lon="-0.71572">
        <ele>50.5</ele>
        <time>2022-08-11T14:22:45.438+02:00</time>
      </trkpt>
      <trkpt lat="45.38383" lon="-0.71568">
        <ele>50.8</ele>
        <time>2022-08-11T14:22:47.439+02:00</time>
      </trkpt>
      <trkpt lat="45.38374" lon="-0.71564">
        <ele>50.4</ele>
        <time>2022-08-11T14:22:49.434+02:00</time>
      </trkpt>
      <trkpt lat="45.38365" lon="-0.7156">
        <ele>50.8</ele>
        <time>2022-08-11T14:22:51.439+02:00</time>
      </trkpt>
      <trkpt lat="45.38356" lon="-0.71557">
        <ele>50.6</ele>
        <time>2022-08-11T14:22:53.452+02:00</time>
      </trkpt>
      <trkpt lat="45.38346" lon="-0.71553">
        <ele>50.8</ele>
        <time>2022-08-11T14:22:55.439+02:00</time>
      </trkpt>
      <trkpt lat="45.38336" lon="-0.71549">
        <ele>50.6</ele>
        <time>2022-08-11T14:22:57.45+02:00</time>
      </trkpt>
      <trkpt lat="45.38326" lon="-0.71545">
        <ele>50.7</ele>
        <time>2022-08-11T14:22:59.434+02:00</time>
      </trkpt>
      <trkpt lat="45.38316" lon="-0.71541">
        <ele>51</ele>
        <time>2022-08-11T14:23:01.433+02:00</time>
      </trkpt>
      <trkpt lat="45.38307" lon="-0.71537">
        <ele>51</ele>
        <time>2022-08-11T14:23:03.436+02:00</time>
      </trkpt>
      <trkpt lat="45.38297" lon="-0.71533">
        <ele>50.7</ele>
        <time>2022-08-11T14:23:05.452+02:00</time>
      </trkpt>
      <trkpt lat="45.38286" lon="-0.71528">
        <ele>50.8</ele>
        <time>2022-08-11T14:23:07.455+02:00</time>
      </trkpt>
      <trkpt lat="45.38276" lon="-0.71525">
        <ele>50.7</ele>
        <time>2022-08-11T14:23:09.433+02:00</time>
      </trkpt>
      <trkpt lat="45.38266" lon="-0.71521">
        <ele>50.6</ele>
        <time>2022-08-11T14:23:11.443+02:00</time>
      </trkpt>
      <trkpt lat="45.38255" lon="-0.71516">
        <ele>50.7</ele>
        <time>2022-08-11T14:23:13.447+02:00</time>
      </trkpt>
      <trkpt lat="45.38245" lon="-0.71511">
        <ele>51</ele>
        <time>2022-08-11T14:23:15.435+02:00</time>
      </trkpt>
      <trkpt lat="45.38234" lon="-0.71507">
        <ele>50.8</ele>
        <time>2022-08-11T14:23:17.444+02:00</time>
      </trkpt>
      <trkpt lat="45.38224" lon="-0.71503">
        <ele>50.9</ele>
        <time>2022-08-11T14:23:19.435+02:00</time>
      </trkpt>
      <trkpt lat="45.38213" lon="-0.71498">
        <ele>51</ele>
        <time>2022-08-11T14:23:21.437+02:00</time>
      </trkpt>
      <trkpt lat="45.38202" lon="-0.71493">
        <ele>51.5</ele>
        <time>2022-08-11T14:23:23.435+02:00</time>
      </trkpt>
      <trkpt lat="45.3819" lon="-0.71488">
        <ele>51.3</ele>
        <time>2022-08-11T14:23:25.442+02:00</time>
      </trkpt>
      <trkpt lat="45.38179" lon="-0.71484">
        <ele>50.9</ele>
        <time>2022-08-11T14:23:27.451+02:00</time>
      </trkpt>
      <trkpt lat="45.38168" lon="-0.7148">
        <ele>51.3</ele>
        <time>2022-08-11T14:23:29.428+02:00</time>
      </trkpt>
      <trkpt lat="45.38157" lon="-0.71475">
        <ele>51.2</ele>
        <time>2022-08-11T14:23:31.443+02:00</time>
      </trkpt>
      <trkpt lat="45.38146" lon="-0.71471">
        <ele>51.3</ele>
        <time>2022-08-11T14:23:33.437+02:00</time>
      </trkpt>
      <trkpt lat="45.38136" lon="-0.71466">
        <ele>51.1</ele>
        <time>2022-08-11T14:23:35.445+02:00</time>
      </trkpt>
      <trkpt lat="45.38126" lon="-0.71462">
        <ele>51</ele>
        <time>2022-08-11T14:23:37.438+02:00</time>
      </trkpt>
      <trkpt lat="45.38115" lon="-0.71457">
        <ele>50.9</ele>
        <time>2022-08-11T14:23:39.43+02:00</time>
      </trkpt>
      <trkpt lat="45.38105" lon="-0.71453">
        <ele>51</ele>
        <time>2022-08-11T14:23:41.444+02:00</time>
      </trkpt>
      <trkpt lat="45.38094" lon="-0.71449">
        <ele>50.4</ele>
        <time>2022-08-11T14:23:43.42+02:00</time>
      </trkpt>
      <trkpt lat="45.38084" lon="-0.71446">
        <ele>50.5</ele>
        <time>2022-08-11T14:23:45.418+02:00</time>
      </trkpt>
      <trkpt lat="45.38075" lon="-0.71442">
        <ele>51</ele>
        <time>2022-08-11T14:23:47.441+02:00</time>
      </trkpt>
      <trkpt lat="45.38065" lon="-0.71438">
        <ele>51.2</ele>
        <time>2022-08-11T14:23:49.429+02:00</time>
      </trkpt>
      <trkpt lat="45.38055" lon="-0.71433">
        <ele>51.3</ele>
        <time>2022-08-11T14:23:51.438+02:00</time>
      </trkpt>
      <trkpt lat="45.38046" lon="-0.71429">
        <ele>51.6</ele>
        <time>2022-08-11T14:23:53.436+02:00</time>
      </trkpt>
      <trkpt lat="45.38036" lon="-0.71425">
        <ele>51.4</ele>
        <time>2022-08-11T14:23:55.447+02:00</time>
      </trkpt>
      <trkpt lat="45.38026" lon="-0.71421">
        <ele>51.6</ele>
        <time>2022-08-11T14:23:57.453+02:00</time>
      </trkpt>
      <trkpt lat="45.38016" lon="-0.71417">
        <ele>51.7</ele>
        <time>2022-08-11T14:23:59.43+02:00</time>
      </trkpt>
      <trkpt lat="45.38007" lon="-0.71413">
        <ele>51.5</ele>
        <time>2022-08-11T14:24:01.445+02:00</time>
      </trkpt>
      <trkpt lat="45.37997" lon="-0.71409">
        <ele>51.7</ele>
        <time>2022-08-11T14:24:03.444+02:00</time>
      </trkpt>
      <trkpt lat="45.37986" lon="-0.71405">
        <ele>52</ele>
        <time>2022-08-11T14:24:05.45+02:00</time>
      </trkpt>
      <trkpt lat="45.37977" lon="-0.71401">
        <ele>52</ele>
        <time>2022-08-11T14:24:07.45+02:00</time>
      </trkpt>
      <trkpt lat="45.37968" lon="-0.71398">
        <ele>52.1</ele>
        <time>2022-08-11T14:24:09.428+02:00</time>
      </trkpt>
      <trkpt lat="45.37958" lon="-0.71393">
        <ele>51.8</ele>
        <time>2022-08-11T14:24:11.436+02:00</time>
      </trkpt>
      <trkpt lat="45.37948" lon="-0.7139">
        <ele>51.7</ele>
        <time>2022-08-11T14:24:13.441+02:00</time>
      </trkpt>
      <trkpt lat="45.37938" lon="-0.71386">
        <ele>51.7</ele>
        <time>2022-08-11T14:24:15.44+02:00</time>
      </trkpt>
      <trkpt lat="45.37928" lon="-0.71382">
        <ele>51.4</ele>
        <time>2022-08-11T14:24:17.446+02:00</time>
      </trkpt>
      <trkpt lat="45.37918" lon="-0.71378">
        <ele>51.1</ele>
        <time>2022-08-11T14:24:19.433+02:00</time>
      </trkpt>
      <trkpt lat="45.37908" lon="-0.71373">
        <ele>51.4</ele>
        <time>2022-08-11T14:24:21.444+02:00</time>
      </trkpt>
      <trkpt lat="45.37898" lon="-0.71369">
        <ele>51.8</ele>
        <time>2022-08-11T14:24:23.435+02:00</time>
      </trkpt>
      <trkpt lat="45.37888" lon="-0.71365">
        <ele>51.7</ele>
        <time>2022-08-11T14:24:25.436+02:00</time>
      </trkpt>
      <trkpt lat="45.37878" lon="-0.71361">
        <ele>51.4</ele>
        <time>2022-08-11T14:24:27.439+02:00</time>
      </trkpt>
      <trkpt lat="45.37868" lon="-0.71357">
        <ele>51.6</ele>
        <time>2022-08-11T14:24:29.435+02:00</time>
      </trkpt>
      <trkpt lat="45.37858" lon="-0.71352">
        <ele>51.8</ele>
        <time>2022-08-11T14:24:31.437+02:00</time>
      </trkpt>
      <trkpt lat="45.37849" lon="-0.71349">
        <ele>51.8</ele>
        <time>2022-08-11T14:24:33.434+02:00</time>
      </trkpt>
      <trkpt lat="45.37839" lon="-0.71345">
        <ele>51.6</ele>
        <time>2022-08-11T14:24:35.44+02:00</time>
      </trkpt>
      <trkpt lat="45.3783" lon="-0.71341">
        <ele>51.8</ele>
        <time>2022-08-11T14:24:37.453+02:00</time>
      </trkpt>
      <trkpt lat="45.3782" lon="-0.71337">
        <ele>51.4</ele>
        <time>2022-08-11T14:24:39.434+02:00</time>
      </trkpt>
      <trkpt lat="45.37811" lon="-0.71334">
        <ele>51.5</ele>
        <time>2022-08-11T14:24:41.449+02:00</time>
      </trkpt>
      <trkpt lat="45.37802" lon="-0.7133">
        <ele>51.4</ele>
        <time>2022-08-11T14:24:43.438+02:00</time>
      </trkpt>
      <trkpt lat="45.37792" lon="-0.71326">
        <ele>51.4</ele>
        <time>2022-08-11T14:24:45.439+02:00</time>
      </trkpt>
      <trkpt lat="45.37783" lon="-0.71322">
        <ele>51.3</ele>
        <time>2022-08-11T14:24:47.437+02:00</time>
      </trkpt>
      <trkpt lat="45.37773" lon="-0.71318">
        <ele>51.4</ele>
        <time>2022-08-11T14:24:49.432+02:00</time>
      </trkpt>
      <trkpt lat="45.37763" lon="-0.71314">
        <ele>51.9</ele>
        <time>2022-08-11T14:24:51.442+02:00</time>
      </trkpt>
      <trkpt lat="45.37754" lon="-0.7131">
        <ele>51.8</ele>
        <time>2022-08-11T14:24:53.437+02:00</time>
      </trkpt>
      <trkpt lat="45.37744" lon="-0.71306">
        <ele>52</ele>
        <time>2022-08-11T14:24:55.436+02:00</time>
      </trkpt>
      <trkpt lat="45.37735" lon="-0.71302">
        <ele>51.8</ele>
        <time>2022-08-11T14:24:57.443+02:00</time>
      </trkpt>
      <trkpt lat="45.37725" lon="-0.71298">
        <ele>51.9</ele>
        <time>2022-08-11T14:24:59.434+02:00</time>
      </trkpt>
      <trkpt lat="45.37716" lon="-0.71294">
        <ele>51.5</ele>
        <time>2022-08-11T14:25:01.437+02:00</time>
      </trkpt>
      <trkpt lat="45.37706" lon="-0.71291">
        <ele>51.4</ele>
        <time>2022-08-11T14:25:03.435+02:00</time>
      </trkpt>
      <trkpt lat="45.37697" lon="-0.71287">
        <ele>51.4</ele>
        <time>2022-08-11T14:25:05.439+02:00</time>
      </trkpt>
      <trkpt lat="45.37687" lon="-0.71283">
        <ele>51.2</ele>
        <time>2022-08-11T14:25:07.441+02:00</time>
      </trkpt>
      <trkpt lat="45.37678" lon="-0.71279">
        <ele>51.9</ele>
        <time>2022-08-11T14:25:09.434+02:00</time>
      </trkpt>
      <trkpt lat="45.37668" lon="-0.71275">
        <ele>51.7</ele>
        <time>2022-08-11T14:25:11.434+02:00</time>
      </trkpt>
      <trkpt lat="45.37659" lon="-0.71271">
        <ele>51.8</ele>
        <time>2022-08-11T14:25:13.442+02:00</time>
      </trkpt>
      <trkpt lat="45.37649" lon="-0.71267">
        <ele>51.5</ele>
        <time>2022-08-11T14:25:15.433+02:00</time>
      </trkpt>
      <trkpt lat="45.3764" lon="-0.71264">
        <ele>51.3</ele>
        <time>2022-08-11T14:25:17.445+02:00</time>
      </trkpt>
      <trkpt lat="45.3763" lon="-0.7126">
        <ele>51.3</ele>
        <time>2022-08-11T14:25:19.419+02:00</time>
      </trkpt>
      <trkpt lat="45.3762" lon="-0.71256">
        <ele>51.6</ele>
        <time>2022-08-11T14:25:21.427+02:00</time>
      </trkpt>
      <trkpt lat="45.37611" lon="-0.71252">
        <ele>51.9</ele>
        <time>2022-08-11T14:25:23.429+02:00</time>
      </trkpt>
      <trkpt lat="45.37602" lon="-0.71248">
        <ele>52.2</ele>
        <time>2022-08-11T14:25:25.432+02:00</time>
      </trkpt>
      <trkpt lat="45.37593" lon="-0.71245">
        <ele>51.8</ele>
        <time>2022-08-11T14:25:27.455+02:00</time>
      </trkpt>
      <trkpt lat="45.37584" lon="-0.71241">
        <ele>51.6</ele>
        <time>2022-08-11T14:25:29.429+02:00</time>
      </trkpt>
      <trkpt lat="45.37575" lon="-0.71237">
        <ele>51.6</ele>
        <time>2022-08-11T14:25:31.45+02:00</time>
      </trkpt>
      <trkpt lat="45.37562" lon="-0.71232">
        <ele>51.2</ele>
        <time>2022-08-11T14:25:34.437+02:00</time>
      </trkpt>
      <trkpt lat="45.37554" lon="-0.71229">
        <ele>51.2</ele>
        <time>2022-08-11T14:25:36.436+02:00</time>
      </trkpt>
      <trkpt lat="45.37541" lon="-0.71224">
        <ele>51.1</ele>
        <time>2022-08-11T14:25:39.436+02:00</time>
      </trkpt>
      <trkpt lat="45.37528" lon="-0.71218">
        <ele>51.2</ele>
        <time>2022-08-11T14:25:42.448+02:00</time>
      </trkpt>
      <trkpt lat="45.37519" lon="-0.71215">
        <ele>51.4</ele>
        <time>2022-08-11T14:25:44.436+02:00</time>
      </trkpt>
      <trkpt lat="45.3751" lon="-0.71211">
        <ele>51.3</ele>
        <time>2022-08-11T14:25:46.442+02:00</time>
      </trkpt>
      <trkpt lat="45.37497" lon="-0.71206">
        <ele>50.9</ele>
        <time>2022-08-11T14:25:49.429+02:00</time>
      </trkpt>
      <trkpt lat="45.37488" lon="-0.71203">
        <ele>51</ele>
        <time>2022-08-11T14:25:51.444+02:00</time>
      </trkpt>
      <trkpt lat="45.37479" lon="-0.71199">
        <ele>51.5</ele>
        <time>2022-08-11T14:25:53.439+02:00</time>
      </trkpt>
      <trkpt lat="45.3747" lon="-0.71195">
        <ele>51.7</ele>
        <time>2022-08-11T14:25:55.447+02:00</time>
      </trkpt>
      <trkpt lat="45.37457" lon="-0.71189">
        <ele>52</ele>
        <time>2022-08-11T14:25:58.435+02:00</time>
      </trkpt>
      <trkpt lat="45.37448" lon="-0.71186">
        <ele>52.3</ele>
        <time>2022-08-11T14:26:00.434+02:00</time>
      </trkpt>
      <trkpt lat="45.3744" lon="-0.71183">
        <ele>52.5</ele>
        <time>2022-08-11T14:26:02.438+02:00</time>
      </trkpt>
      <trkpt lat="45.37431" lon="-0.71179">
        <ele>52.6</ele>
        <time>2022-08-11T14:26:04.445+02:00</time>
      </trkpt>
      <trkpt lat="45.37418" lon="-0.71174">
        <ele>52.3</ele>
        <time>2022-08-11T14:26:07.434+02:00</time>
      </trkpt>
      <trkpt lat="45.37405" lon="-0.71168">
        <ele>52.2</ele>
        <time>2022-08-11T14:26:10.435+02:00</time>
      </trkpt>
      <trkpt lat="45.37396" lon="-0.71165">
        <ele>52.1</ele>
        <time>2022-08-11T14:26:12.436+02:00</time>
      </trkpt>
      <trkpt lat="45.37386" lon="-0.71161">
        <ele>52.1</ele>
        <time>2022-08-11T14:26:14.429+02:00</time>
      </trkpt>
      <trkpt lat="45.37377" lon="-0.71159">
        <ele>52.4</ele>
        <time>2022-08-11T14:26:16.434+02:00</time>
      </trkpt>
      <trkpt lat="45.37368" lon="-0.71157">
        <ele>52.3</ele>
        <time>2022-08-11T14:26:18.448+02:00</time>
      </trkpt>
      <trkpt lat="45.37359" lon="-0.71159">
        <ele>52.4</ele>
        <time>2022-08-11T14:26:20.436+02:00</time>
      </trkpt>
      <trkpt lat="45.3735" lon="-0.71162">
        <ele>52.3</ele>
        <time>2022-08-11T14:26:22.435+02:00</time>
      </trkpt>
      <trkpt lat="45.37341" lon="-0.71168">
        <ele>52.5</ele>
        <time>2022-08-11T14:26:24.443+02:00</time>
      </trkpt>
      <trkpt lat="45.37333" lon="-0.71174">
        <ele>52.3</ele>
        <time>2022-08-11T14:26:26.44+02:00</time>
      </trkpt>
      <trkpt lat="45.37324" lon="-0.7118">
        <ele>52.2</ele>
        <time>2022-08-11T14:26:28.436+02:00</time>
      </trkpt>
      <trkpt lat="45.37316" lon="-0.71186">
        <ele>52.1</ele>
        <time>2022-08-11T14:26:30.43+02:00</time>
      </trkpt>
      <trkpt lat="45.37307" lon="-0.71192">
        <ele>52.1</ele>
        <time>2022-08-11T14:26:32.44+02:00</time>
      </trkpt>
      <trkpt lat="45.37298" lon="-0.71198">
        <ele>52.2</ele>
        <time>2022-08-11T14:26:34.431+02:00</time>
      </trkpt>
      <trkpt lat="45.37289" lon="-0.71205">
        <ele>51.9</ele>
        <time>2022-08-11T14:26:36.441+02:00</time>
      </trkpt>
      <trkpt lat="45.3728" lon="-0.71211">
        <ele>51.6</ele>
        <time>2022-08-11T14:26:38.434+02:00</time>
      </trkpt>
      <trkpt lat="45.37271" lon="-0.71217">
        <ele>51.8</ele>
        <time>2022-08-11T14:26:40.437+02:00</time>
      </trkpt>
      <trkpt lat="45.37261" lon="-0.71224">
        <ele>52.1</ele>
        <time>2022-08-11T14:26:42.444+02:00</time>
      </trkpt>
      <trkpt lat="45.37252" lon="-0.7123">
        <ele>52.4</ele>
        <time>2022-08-11T14:26:44.45+02:00</time>
      </trkpt>
      <trkpt lat="45.37243" lon="-0.71236">
        <ele>52.4</ele>
        <time>2022-08-11T14:26:46.439+02:00</time>
      </trkpt>
      <trkpt lat="45.37233" lon="-0.71243">
        <ele>52.2</ele>
        <time>2022-08-11T14:26:48.44+02:00</time>
      </trkpt>
      <trkpt lat="45.37223" lon="-0.7125">
        <ele>52.3</ele>
        <time>2022-08-11T14:26:50.443+02:00</time>
      </trkpt>
      <trkpt lat="45.37214" lon="-0.71256">
        <ele>52.5</ele>
        <time>2022-08-11T14:26:52.439+02:00</time>
      </trkpt>
      <trkpt lat="45.37204" lon="-0.71262">
        <ele>52.7</ele>
        <time>2022-08-11T14:26:54.437+02:00</time>
      </trkpt>
      <trkpt lat="45.37195" lon="-0.71269">
        <ele>52.7</ele>
        <time>2022-08-11T14:26:56.449+02:00</time>
      </trkpt>
      <trkpt lat="45.37186" lon="-0.71275">
        <ele>52.6</ele>
        <time>2022-08-11T14:26:58.436+02:00</time>
      </trkpt>
      <trkpt lat="45.37176" lon="-0.71282">
        <ele>52.4</ele>
        <time>2022-08-11T14:27:00.454+02:00</time>
      </trkpt>
      <trkpt lat="45.37167" lon="-0.71288">
        <ele>52.2</ele>
        <time>2022-08-11T14:27:02.436+02:00</time>
      </trkpt>
      <trkpt lat="45.37157" lon="-0.71294">
        <ele>52.2</ele>
        <time>2022-08-11T14:27:04.442+02:00</time>
      </trkpt>
      <trkpt lat="45.37148" lon="-0.71301">
        <ele>52.4</ele>
        <time>2022-08-11T14:27:06.438+02:00</time>
      </trkpt>
      <trkpt lat="45.37138" lon="-0.71307">
        <ele>52.2</ele>
        <time>2022-08-11T14:27:08.443+02:00</time>
      </trkpt>
      <trkpt lat="45.37129" lon="-0.71313">
        <ele>52.5</ele>
        <time>2022-08-11T14:27:10.438+02:00</time>
      </trkpt>
      <trkpt lat="45.3712" lon="-0.7132">
        <ele>52.5</ele>
        <time>2022-08-11T14:27:12.442+02:00</time>
      </trkpt>
      <trkpt lat="45.37111" lon="-0.71326">
        <ele>52.7</ele>
        <time>2022-08-11T14:27:14.445+02:00</time>
      </trkpt>
      <trkpt lat="45.37102" lon="-0.71331">
        <ele>52.4</ele>
        <time>2022-08-11T14:27:16.434+02:00</time>
      </trkpt>
      <trkpt lat="45.37092" lon="-0.71337">
        <ele>52.3</ele>
        <time>2022-08-11T14:27:18.438+02:00</time>
      </trkpt>
      <trkpt lat="45.37083" lon="-0.71344">
        <ele>52.5</ele>
        <time>2022-08-11T14:27:20.438+02:00</time>
      </trkpt>
      <trkpt lat="45.37073" lon="-0.71349">
        <ele>52.6</ele>
        <time>2022-08-11T14:27:22.434+02:00</time>
      </trkpt>
      <trkpt lat="45.37064" lon="-0.71354">
        <ele>52.4</ele>
        <time>2022-08-11T14:27:24.444+02:00</time>
      </trkpt>
      <trkpt lat="45.37055" lon="-0.7136">
        <ele>52.2</ele>
        <time>2022-08-11T14:27:26.439+02:00</time>
      </trkpt>
      <trkpt lat="45.37046" lon="-0.71365">
        <ele>52.3</ele>
        <time>2022-08-11T14:27:28.435+02:00</time>
      </trkpt>
      <trkpt lat="45.37038" lon="-0.7137">
        <ele>52</ele>
        <time>2022-08-11T14:27:30.449+02:00</time>
      </trkpt>
      <trkpt lat="45.37029" lon="-0.71376">
        <ele>51.9</ele>
        <time>2022-08-11T14:27:32.437+02:00</time>
      </trkpt>
      <trkpt lat="45.3702" lon="-0.71381">
        <ele>52.2</ele>
        <time>2022-08-11T14:27:34.443+02:00</time>
      </trkpt>
      <trkpt lat="45.37011" lon="-0.71386">
        <ele>52.3</ele>
        <time>2022-08-11T14:27:36.433+02:00</time>
      </trkpt>
      <trkpt lat="45.37002" lon="-0.71391">
        <ele>52.2</ele>
        <time>2022-08-11T14:27:38.434+02:00</time>
      </trkpt>
      <trkpt lat="45.36993" lon="-0.71396">
        <ele>52.1</ele>
        <time>2022-08-11T14:27:40.435+02:00</time>
      </trkpt>
      <trkpt lat="45.36984" lon="-0.71402">
        <ele>51.9</ele>
        <time>2022-08-11T14:27:42.431+02:00</time>
      </trkpt>
      <trkpt lat="45.36975" lon="-0.71408">
        <ele>51.8</ele>
        <time>2022-08-11T14:27:44.442+02:00</time>
      </trkpt>
      <trkpt lat="45.36965" lon="-0.71413">
        <ele>51.9</ele>
        <time>2022-08-11T14:27:46.437+02:00</time>
      </trkpt>
      <trkpt lat="45.36956" lon="-0.71419">
        <ele>52</ele>
        <time>2022-08-11T14:27:48.45+02:00</time>
      </trkpt>
      <trkpt lat="45.36947" lon="-0.71424">
        <ele>52</ele>
        <time>2022-08-11T14:27:50.445+02:00</time>
      </trkpt>
      <trkpt lat="45.36937" lon="-0.7143">
        <ele>51.9</ele>
        <time>2022-08-11T14:27:52.439+02:00</time>
      </trkpt>
      <trkpt lat="45.36928" lon="-0.71435">
        <ele>51.7</ele>
        <time>2022-08-11T14:27:54.439+02:00</time>
      </trkpt>
      <trkpt lat="45.36919" lon="-0.71441">
        <ele>51.6</ele>
        <time>2022-08-11T14:27:56.437+02:00</time>
      </trkpt>
      <trkpt lat="45.36909" lon="-0.71446">
        <ele>51.9</ele>
        <time>2022-08-11T14:27:58.433+02:00</time>
      </trkpt>
      <trkpt lat="45.36901" lon="-0.71452">
        <ele>52.3</ele>
        <time>2022-08-11T14:28:00.426+02:00</time>
      </trkpt>
      <trkpt lat="45.36892" lon="-0.71457">
        <ele>52.2</ele>
        <time>2022-08-11T14:28:02.437+02:00</time>
      </trkpt>
      <trkpt lat="45.36884" lon="-0.71462">
        <ele>52.2</ele>
        <time>2022-08-11T14:28:04.435+02:00</time>
      </trkpt>
      <trkpt lat="45.36876" lon="-0.71468">
        <ele>52.3</ele>
        <time>2022-08-11T14:28:06.436+02:00</time>
      </trkpt>
      <trkpt lat="45.36867" lon="-0.71473">
        <ele>52.1</ele>
        <time>2022-08-11T14:28:08.431+02:00</time>
      </trkpt>
      <trkpt lat="45.36858" lon="-0.71478">
        <ele>52.2</ele>
        <time>2022-08-11T14:28:10.441+02:00</time>
      </trkpt>
      <trkpt lat="45.36849" lon="-0.71484">
        <ele>52.4</ele>
        <time>2022-08-11T14:28:12.44+02:00</time>
      </trkpt>
      <trkpt lat="45.3684" lon="-0.71489">
        <ele>52</ele>
        <time>2022-08-11T14:28:14.445+02:00</time>
      </trkpt>
      <trkpt lat="45.36831" lon="-0.71494">
        <ele>52</ele>
        <time>2022-08-11T14:28:16.44+02:00</time>
      </trkpt>
      <trkpt lat="45.36822" lon="-0.715">
        <ele>52.6</ele>
        <time>2022-08-11T14:28:18.438+02:00</time>
      </trkpt>
      <trkpt lat="45.36812" lon="-0.71505">
        <ele>52.6</ele>
        <time>2022-08-11T14:28:20.436+02:00</time>
      </trkpt>
      <trkpt lat="45.36802" lon="-0.7151">
        <ele>52.9</ele>
        <time>2022-08-11T14:28:22.433+02:00</time>
      </trkpt>
      <trkpt lat="45.36793" lon="-0.71516">
        <ele>53.4</ele>
        <time>2022-08-11T14:28:24.444+02:00</time>
      </trkpt>
      <trkpt lat="45.36785" lon="-0.71521">
        <ele>53.2</ele>
        <time>2022-08-11T14:28:26.445+02:00</time>
      </trkpt>
      <trkpt lat="45.36776" lon="-0.71526">
        <ele>52.9</ele>
        <time>2022-08-11T14:28:28.444+02:00</time>
      </trkpt>
      <trkpt lat="45.36768" lon="-0.71531">
        <ele>53</ele>
        <time>2022-08-11T14:28:30.438+02:00</time>
      </trkpt>
      <trkpt lat="45.36759" lon="-0.71536">
        <ele>53.3</ele>
        <time>2022-08-11T14:28:32.441+02:00</time>
      </trkpt>
      <trkpt lat="45.3675" lon="-0.71542">
        <ele>53</ele>
        <time>2022-08-11T14:28:34.44+02:00</time>
      </trkpt>
      <trkpt lat="45.36741" lon="-0.71547">
        <ele>52.7</ele>
        <time>2022-08-11T14:28:36.438+02:00</time>
      </trkpt>
      <trkpt lat="45.36732" lon="-0.71553">
        <ele>52.9</ele>
        <time>2022-08-11T14:28:38.435+02:00</time>
      </trkpt>
      <trkpt lat="45.36723" lon="-0.71559">
        <ele>52.8</ele>
        <time>2022-08-11T14:28:40.436+02:00</time>
      </trkpt>
      <trkpt lat="45.36714" lon="-0.71565">
        <ele>53.1</ele>
        <time>2022-08-11T14:28:42.44+02:00</time>
      </trkpt>
      <trkpt lat="45.36705" lon="-0.71571">
        <ele>52.8</ele>
        <time>2022-08-11T14:28:44.441+02:00</time>
      </trkpt>
      <trkpt lat="45.36696" lon="-0.71576">
        <ele>53</ele>
        <time>2022-08-11T14:28:46.425+02:00</time>
      </trkpt>
      <trkpt lat="45.36687" lon="-0.71582">
        <ele>52.9</ele>
        <time>2022-08-11T14:28:48.433+02:00</time>
      </trkpt>
      <trkpt lat="45.36678" lon="-0.71586">
        <ele>53</ele>
        <time>2022-08-11T14:28:50.442+02:00</time>
      </trkpt>
      <trkpt lat="45.3667" lon="-0.71592">
        <ele>53.6</ele>
        <time>2022-08-11T14:28:52.437+02:00</time>
      </trkpt>
      <trkpt lat="45.36661" lon="-0.71597">
        <ele>53.6</ele>
        <time>2022-08-11T14:28:54.437+02:00</time>
      </trkpt>
      <trkpt lat="45.36652" lon="-0.71602">
        <ele>53.8</ele>
        <time>2022-08-11T14:28:56.416+02:00</time>
      </trkpt>
      <trkpt lat="45.36643" lon="-0.71607">
        <ele>53.4</ele>
        <time>2022-08-11T14:28:58.421+02:00</time>
      </trkpt>
      <trkpt lat="45.36634" lon="-0.71612">
        <ele>53.6</ele>
        <time>2022-08-11T14:29:00.419+02:00</time>
      </trkpt>
      <trkpt lat="45.36622" lon="-0.71619">
        <ele>53</ele>
        <time>2022-08-11T14:29:03.421+02:00</time>
      </trkpt>
      <trkpt lat="45.3661" lon="-0.71627">
        <ele>52.6</ele>
        <time>2022-08-11T14:29:06.422+02:00</time>
      </trkpt>
      <trkpt lat="45.36598" lon="-0.71636">
        <ele>52.5</ele>
        <time>2022-08-11T14:29:09.419+02:00</time>
      </trkpt>
      <trkpt lat="45.36589" lon="-0.7164">
        <ele>52.4</ele>
        <time>2022-08-11T14:29:11.435+02:00</time>
      </trkpt>
      <trkpt lat="45.36581" lon="-0.71646">
        <ele>52.4</ele>
        <time>2022-08-11T14:29:13.448+02:00</time>
      </trkpt>
      <trkpt lat="45.36571" lon="-0.71652">
        <ele>52.5</ele>
        <time>2022-08-11T14:29:15.437+02:00</time>
      </trkpt>
      <trkpt lat="45.36562" lon="-0.71658">
        <ele>52.8</ele>
        <time>2022-08-11T14:29:17.444+02:00</time>
      </trkpt>
      <trkpt lat="45.36553" lon="-0.71664">
        <ele>53.1</ele>
        <time>2022-08-11T14:29:19.419+02:00</time>
      </trkpt>
      <trkpt lat="45.36544" lon="-0.7167">
        <ele>52.8</ele>
        <time>2022-08-11T14:29:21.448+02:00</time>
      </trkpt>
      <trkpt lat="45.36536" lon="-0.71675">
        <ele>52.6</ele>
        <time>2022-08-11T14:29:23.435+02:00</time>
      </trkpt>
      <trkpt lat="45.36527" lon="-0.71681">
        <ele>52.5</ele>
        <time>2022-08-11T14:29:25.444+02:00</time>
      </trkpt>
      <trkpt lat="45.36517" lon="-0.71687">
        <ele>52.6</ele>
        <time>2022-08-11T14:29:27.45+02:00</time>
      </trkpt>
      <trkpt lat="45.36508" lon="-0.71693">
        <ele>52.4</ele>
        <time>2022-08-11T14:29:29.426+02:00</time>
      </trkpt>
      <trkpt lat="45.36499" lon="-0.71698">
        <ele>52.5</ele>
        <time>2022-08-11T14:29:31.432+02:00</time>
      </trkpt>
      <trkpt lat="45.3649" lon="-0.71704">
        <ele>52.4</ele>
        <time>2022-08-11T14:29:33.438+02:00</time>
      </trkpt>
      <trkpt lat="45.36482" lon="-0.7171">
        <ele>52.4</ele>
        <time>2022-08-11T14:29:35.439+02:00</time>
      </trkpt>
      <trkpt lat="45.36474" lon="-0.7172">
        <ele>52.5</ele>
        <time>2022-08-11T14:29:37.44+02:00</time>
      </trkpt>
      <trkpt lat="45.36468" lon="-0.71733">
        <ele>52.9</ele>
        <time>2022-08-11T14:29:39.432+02:00</time>
      </trkpt>
      <trkpt lat="45.36465" lon="-0.71747">
        <ele>53.1</ele>
        <time>2022-08-11T14:29:41.444+02:00</time>
      </trkpt>
      <trkpt lat="45.36463" lon="-0.71762">
        <ele>53.1</ele>
        <time>2022-08-11T14:29:43.444+02:00</time>
      </trkpt>
      <trkpt lat="45.3646" lon="-0.71776">
        <ele>53.1</ele>
        <time>2022-08-11T14:29:45.433+02:00</time>
      </trkpt>
      <trkpt lat="45.36458" lon="-0.71789">
        <ele>52.8</ele>
        <time>2022-08-11T14:29:47.433+02:00</time>
      </trkpt>
      <trkpt lat="45.36456" lon="-0.71803">
        <ele>52.6</ele>
        <time>2022-08-11T14:29:49.428+02:00</time>
      </trkpt>
      <trkpt lat="45.36453" lon="-0.71819">
        <ele>53.2</ele>
        <time>2022-08-11T14:29:51.433+02:00</time>
      </trkpt>
      <trkpt lat="45.36451" lon="-0.71834">
        <ele>52.9</ele>
        <time>2022-08-11T14:29:53.434+02:00</time>
      </trkpt>
      <trkpt lat="45.36448" lon="-0.71848">
        <ele>52.7</ele>
        <time>2022-08-11T14:29:55.445+02:00</time>
      </trkpt>
      <trkpt lat="45.36446" lon="-0.71863">
        <ele>52.5</ele>
        <time>2022-08-11T14:29:57.436+02:00</time>
      </trkpt>
      <trkpt lat="45.36443" lon="-0.71878">
        <ele>52.8</ele>
        <time>2022-08-11T14:29:59.437+02:00</time>
      </trkpt>
      <trkpt lat="45.36441" lon="-0.71893">
        <ele>52.8</ele>
        <time>2022-08-11T14:30:01.444+02:00</time>
      </trkpt>
      <trkpt lat="45.36438" lon="-0.71908">
        <ele>52.8</ele>
        <time>2022-08-11T14:30:03.438+02:00</time>
      </trkpt>
      <trkpt lat="45.36435" lon="-0.71923">
        <ele>52.7</ele>
        <time>2022-08-11T14:30:05.435+02:00</time>
      </trkpt>
      <trkpt lat="45.36433" lon="-0.71937">
        <ele>52.6</ele>
        <time>2022-08-11T14:30:07.453+02:00</time>
      </trkpt>
      <trkpt lat="45.36431" lon="-0.71952">
        <ele>52.5</ele>
        <time>2022-08-11T14:30:09.433+02:00</time>
      </trkpt>
      <trkpt lat="45.36429" lon="-0.71967">
        <ele>52.6</ele>
        <time>2022-08-11T14:30:11.436+02:00</time>
      </trkpt>
      <trkpt lat="45.36426" lon="-0.71982">
        <ele>52.4</ele>
        <time>2022-08-11T14:30:13.429+02:00</time>
      </trkpt>
      <trkpt lat="45.36423" lon="-0.71997">
        <ele>52.2</ele>
        <time>2022-08-11T14:30:15.44+02:00</time>
      </trkpt>
      <trkpt lat="45.3642" lon="-0.72012">
        <ele>52.2</ele>
        <time>2022-08-11T14:30:17.445+02:00</time>
      </trkpt>
      <trkpt lat="45.36418" lon="-0.72027">
        <ele>51.9</ele>
        <time>2022-08-11T14:30:19.433+02:00</time>
      </trkpt>
      <trkpt lat="45.36415" lon="-0.72042">
        <ele>51.7</ele>
        <time>2022-08-11T14:30:21.44+02:00</time>
      </trkpt>
      <trkpt lat="45.36412" lon="-0.72057">
        <ele>51.6</ele>
        <time>2022-08-11T14:30:23.436+02:00</time>
      </trkpt>
      <trkpt lat="45.3641" lon="-0.72072">
        <ele>51.4</ele>
        <time>2022-08-11T14:30:25.434+02:00</time>
      </trkpt>
      <trkpt lat="45.36407" lon="-0.72087">
        <ele>51.3</ele>
        <time>2022-08-11T14:30:27.441+02:00</time>
      </trkpt>
      <trkpt lat="45.36404" lon="-0.72102">
        <ele>51.3</ele>
        <time>2022-08-11T14:30:29.427+02:00</time>
      </trkpt>
      <trkpt lat="45.36402" lon="-0.72117">
        <ele>51.4</ele>
        <time>2022-08-11T14:30:31.434+02:00</time>
      </trkpt>
      <trkpt lat="45.364" lon="-0.72132">
        <ele>51.3</ele>
        <time>2022-08-11T14:30:33.446+02:00</time>
      </trkpt>
      <trkpt lat="45.36397" lon="-0.72148">
        <ele>51.3</ele>
        <time>2022-08-11T14:30:35.442+02:00</time>
      </trkpt>
      <trkpt lat="45.36394" lon="-0.72163">
        <ele>51.5</ele>
        <time>2022-08-11T14:30:37.452+02:00</time>
      </trkpt>
      <trkpt lat="45.36391" lon="-0.72178">
        <ele>51.6</ele>
        <time>2022-08-11T14:30:39.43+02:00</time>
      </trkpt>
      <trkpt lat="45.36389" lon="-0.72193">
        <ele>51.6</ele>
        <time>2022-08-11T14:30:41.434+02:00</time>
      </trkpt>
      <trkpt lat="45.36386" lon="-0.72208">
        <ele>51.8</ele>
        <time>2022-08-11T14:30:43.442+02:00</time>
      </trkpt>
      <trkpt lat="45.36384" lon="-0.72223">
        <ele>51.7</ele>
        <time>2022-08-11T14:30:45.425+02:00</time>
      </trkpt>
      <trkpt lat="45.36381" lon="-0.72237">
        <ele>52</ele>
        <time>2022-08-11T14:30:47.451+02:00</time>
      </trkpt>
      <trkpt lat="45.3638" lon="-0.72252">
        <ele>51.8</ele>
        <time>2022-08-11T14:30:49.432+02:00</time>
      </trkpt>
      <trkpt lat="45.36379" lon="-0.72267">
        <ele>52.1</ele>
        <time>2022-08-11T14:30:51.435+02:00</time>
      </trkpt>
      <trkpt lat="45.36378" lon="-0.72282">
        <ele>52</ele>
        <time>2022-08-11T14:30:53.44+02:00</time>
      </trkpt>
      <trkpt lat="45.36378" lon="-0.72298">
        <ele>51.8</ele>
        <time>2022-08-11T14:30:55.437+02:00</time>
      </trkpt>
      <trkpt lat="45.36378" lon="-0.72313">
        <ele>51.5</ele>
        <time>2022-08-11T14:30:57.434+02:00</time>
      </trkpt>
      <trkpt lat="45.36377" lon="-0.72329">
        <ele>51.8</ele>
        <time>2022-08-11T14:30:59.426+02:00</time>
      </trkpt>
      <trkpt lat="45.36377" lon="-0.72344">
        <ele>51.7</ele>
        <time>2022-08-11T14:31:01.439+02:00</time>
      </trkpt>
      <trkpt lat="45.36376" lon="-0.72359">
        <ele>51.6</ele>
        <time>2022-08-11T14:31:03.435+02:00</time>
      </trkpt>
      <trkpt lat="45.36376" lon="-0.72375">
        <ele>51.6</ele>
        <time>2022-08-11T14:31:05.424+02:00</time>
      </trkpt>
      <trkpt lat="45.36376" lon="-0.7239">
        <ele>51.8</ele>
        <time>2022-08-11T14:31:07.431+02:00</time>
      </trkpt>
      <trkpt lat="45.36375" lon="-0.72405">
        <ele>51.6</ele>
        <time>2022-08-11T14:31:09.426+02:00</time>
      </trkpt>
      <trkpt lat="45.36375" lon="-0.7242">
        <ele>51.7</ele>
        <time>2022-08-11T14:31:11.437+02:00</time>
      </trkpt>
      <trkpt lat="45.36375" lon="-0.72435">
        <ele>51.5</ele>
        <time>2022-08-11T14:31:13.43+02:00</time>
      </trkpt>
      <trkpt lat="45.36375" lon="-0.7245">
        <ele>51.1</ele>
        <time>2022-08-11T14:31:15.441+02:00</time>
      </trkpt>
      <trkpt lat="45.36374" lon="-0.72465">
        <ele>51.5</ele>
        <time>2022-08-11T14:31:17.44+02:00</time>
      </trkpt>
      <trkpt lat="45.36374" lon="-0.7248">
        <ele>51.4</ele>
        <time>2022-08-11T14:31:19.43+02:00</time>
      </trkpt>
      <trkpt lat="45.36374" lon="-0.72496">
        <ele>51.6</ele>
        <time>2022-08-11T14:31:21.448+02:00</time>
      </trkpt>
      <trkpt lat="45.36373" lon="-0.72511">
        <ele>51.7</ele>
        <time>2022-08-11T14:31:23.438+02:00</time>
      </trkpt>
      <trkpt lat="45.36373" lon="-0.72526">
        <ele>52.1</ele>
        <time>2022-08-11T14:31:25.43+02:00</time>
      </trkpt>
      <trkpt lat="45.36373" lon="-0.72542">
        <ele>52.2</ele>
        <time>2022-08-11T14:31:27.439+02:00</time>
      </trkpt>
      <trkpt lat="45.36373" lon="-0.72556">
        <ele>51.8</ele>
        <time>2022-08-11T14:31:29.426+02:00</time>
      </trkpt>
      <trkpt lat="45.36372" lon="-0.72572">
        <ele>51.9</ele>
        <time>2022-08-11T14:31:31.436+02:00</time>
      </trkpt>
      <trkpt lat="45.36371" lon="-0.72587">
        <ele>52</ele>
        <time>2022-08-11T14:31:33.416+02:00</time>
      </trkpt>
      <trkpt lat="45.36371" lon="-0.72601">
        <ele>52.2</ele>
        <time>2022-08-11T14:31:35.431+02:00</time>
      </trkpt>
      <trkpt lat="45.36371" lon="-0.72615">
        <ele>52</ele>
        <time>2022-08-11T14:31:37.431+02:00</time>
      </trkpt>
      <trkpt lat="45.36371" lon="-0.72632">
        <ele>51.8</ele>
        <time>2022-08-11T14:31:40.421+02:00</time>
      </trkpt>
      <trkpt lat="45.3637" lon="-0.72649">
        <ele>51.6</ele>
        <time>2022-08-11T14:31:43.436+02:00</time>
      </trkpt>
      <trkpt lat="45.3637" lon="-0.72666">
        <ele>51.7</ele>
        <time>2022-08-11T14:31:46.438+02:00</time>
      </trkpt>
      <trkpt lat="45.3637" lon="-0.72681">
        <ele>52.2</ele>
        <time>2022-08-11T14:31:49.437+02:00</time>
      </trkpt>
      <trkpt lat="45.3637" lon="-0.72696">
        <ele>52.2</ele>
        <time>2022-08-11T14:31:52.436+02:00</time>
      </trkpt>
      <trkpt lat="45.3637" lon="-0.72711">
        <ele>52.1</ele>
        <time>2022-08-11T14:31:55.442+02:00</time>
      </trkpt>
      <trkpt lat="45.3637" lon="-0.72726">
        <ele>51.9</ele>
        <time>2022-08-11T14:31:59.433+02:00</time>
      </trkpt>
      <trkpt lat="45.36368" lon="-0.72737">
        <ele>51.7</ele>
        <time>2022-08-11T14:32:04.45+02:00</time>
      </trkpt>
      <trkpt lat="45.36367" lon="-0.72738">
        <ele>51.7</ele>
        <time>2022-08-11T14:32:05.422+02:00</time>
      </trkpt>
      <trkpt lat="45.36367" lon="-0.72738">
        <ele>52.3</ele>
        <time>2022-08-11T14:38:38.443+02:00</time>
      </trkpt>
      <trkpt lat="45.36367" lon="-0.72738">
        <ele>52.2</ele>
        <time>2022-08-11T14:38:39.439+02:00</time>
      </trkpt>
      <trkpt lat="45.36367" lon="-0.72738">
        <ele>52.1</ele>
        <time>2022-08-11T14:38:40.428+02:00</time>
      </trkpt>
      <trkpt lat="45.36367" lon="-0.72737">
        <ele>53.8</ele>
        <time>2022-08-11T14:39:08.427+02:00</time>
      </trkpt>
      <trkpt lat="45.36367" lon="-0.72737">
        <ele>53.6</ele>
        <time>2022-08-11T14:39:09.429+02:00</time>
      </trkpt>
      <trkpt lat="45.36368" lon="-0.72737">
        <ele>53.7</ele>
        <time>2022-08-11T14:39:10.429+02:00</time>
      </trkpt>
      <trkpt lat="45.36367" lon="-0.72737">
        <ele>53.9</ele>
        <time>2022-08-11T14:40:10.424+02:00</time>
      </trkpt>
      <trkpt lat="45.36367" lon="-0.72737">
        <ele>54</ele>
        <time>2022-08-11T14:40:11.444+02:00</time>
      </trkpt>
      <trkpt lat="45.36367" lon="-0.72738">
        <ele>54.4</ele>
        <time>2022-08-11T14:40:12.424+02:00</time>
      </trkpt>
      <trkpt lat="45.36367" lon="-0.72738">
        <ele>54.5</ele>
        <time>2022-08-11T14:40:13.446+02:00</time>
      </trkpt>
      <trkpt lat="45.36368" lon="-0.72737">
        <ele>54.2</ele>
        <time>2022-08-11T14:40:14.445+02:00</time>
      </trkpt>
      <trkpt lat="45.36368" lon="-0.72736">
        <ele>53.5</ele>
        <time>2022-08-11T14:40:16.45+02:00</time>
      </trkpt>
      <trkpt lat="45.36368" lon="-0.72735">
        <ele>53.3</ele>
        <time>2022-08-11T14:40:17.444+02:00</time>
      </trkpt>
      <trkpt lat="45.36369" lon="-0.72735">
        <ele>52.9</ele>
        <time>2022-08-11T14:40:25.438+02:00</time>
      </trkpt>
      <trkpt lat="45.36369" lon="-0.72734">
        <ele>52.3</ele>
        <time>2022-08-11T14:40:26.431+02:00</time>
      </trkpt>
      <trkpt lat="45.36368" lon="-0.72719">
        <ele>51.8</ele>
        <time>2022-08-11T14:40:33.44+02:00</time>
      </trkpt>
      <trkpt lat="45.36361" lon="-0.72708">
        <ele>51.7</ele>
        <time>2022-08-11T14:40:39.442+02:00</time>
      </trkpt>
      <trkpt lat="45.3635" lon="-0.72707">
        <ele>51.3</ele>
        <time>2022-08-11T14:40:43.416+02:00</time>
      </trkpt>
      <trkpt lat="45.36341" lon="-0.72704">
        <ele>51.2</ele>
        <time>2022-08-11T14:40:47.419+02:00</time>
      </trkpt>
      <trkpt lat="45.36338" lon="-0.72688">
        <ele>51.3</ele>
        <time>2022-08-11T14:40:52.449+02:00</time>
      </trkpt>
      <trkpt lat="45.36339" lon="-0.72673">
        <ele>51.4</ele>
        <time>2022-08-11T14:40:55.432+02:00</time>
      </trkpt>
      <trkpt lat="45.36341" lon="-0.72656">
        <ele>50.8</ele>
        <time>2022-08-11T14:40:58.454+02:00</time>
      </trkpt>
      <trkpt lat="45.36342" lon="-0.72637">
        <ele>50.7</ele>
        <time>2022-08-11T14:41:01.437+02:00</time>
      </trkpt>
      <trkpt lat="45.36343" lon="-0.72624">
        <ele>50.5</ele>
        <time>2022-08-11T14:41:03.43+02:00</time>
      </trkpt>
      <trkpt lat="45.36344" lon="-0.72611">
        <ele>50</ele>
        <time>2022-08-11T14:41:05.447+02:00</time>
      </trkpt>
      <trkpt lat="45.36344" lon="-0.72598">
        <ele>50</ele>
        <time>2022-08-11T14:41:07.455+02:00</time>
      </trkpt>
      <trkpt lat="45.36344" lon="-0.72586">
        <ele>49.8</ele>
        <time>2022-08-11T14:41:09.436+02:00</time>
      </trkpt>
      <trkpt lat="45.36344" lon="-0.72568">
        <ele>49.3</ele>
        <time>2022-08-11T14:41:12.429+02:00</time>
      </trkpt>
      <trkpt lat="45.36345" lon="-0.72549">
        <ele>49</ele>
        <time>2022-08-11T14:41:15.441+02:00</time>
      </trkpt>
      <trkpt lat="45.36345" lon="-0.72531">
        <ele>48.9</ele>
        <time>2022-08-11T14:41:18.431+02:00</time>
      </trkpt>
      <trkpt lat="45.36346" lon="-0.72512">
        <ele>48.8</ele>
        <time>2022-08-11T14:41:21.449+02:00</time>
      </trkpt>
      <trkpt lat="45.36347" lon="-0.72493">
        <ele>48.3</ele>
        <time>2022-08-11T14:41:24.431+02:00</time>
      </trkpt>
      <trkpt lat="45.36347" lon="-0.72474">
        <ele>48.6</ele>
        <time>2022-08-11T14:41:27.429+02:00</time>
      </trkpt>
      <trkpt lat="45.36347" lon="-0.72456">
        <ele>48.8</ele>
        <time>2022-08-11T14:41:30.422+02:00</time>
      </trkpt>
      <trkpt lat="45.36348" lon="-0.72443">
        <ele>48.8</ele>
        <time>2022-08-11T14:41:32.427+02:00</time>
      </trkpt>
      <trkpt lat="45.36349" lon="-0.7243">
        <ele>49.1</ele>
        <time>2022-08-11T14:41:34.444+02:00</time>
      </trkpt>
      <trkpt lat="45.36349" lon="-0.72417">
        <ele>49.2</ele>
        <time>2022-08-11T14:41:36.438+02:00</time>
      </trkpt>
      <trkpt lat="45.36349" lon="-0.72404">
        <ele>49.3</ele>
        <time>2022-08-11T14:41:38.439+02:00</time>
      </trkpt>
      <trkpt lat="45.3635" lon="-0.72391">
        <ele>49.4</ele>
        <time>2022-08-11T14:41:40.429+02:00</time>
      </trkpt>
      <trkpt lat="45.3635" lon="-0.72378">
        <ele>49.4</ele>
        <time>2022-08-11T14:41:42.45+02:00</time>
      </trkpt>
      <trkpt lat="45.3635" lon="-0.72365">
        <ele>49.8</ele>
        <time>2022-08-11T14:41:44.429+02:00</time>
      </trkpt>
      <trkpt lat="45.3635" lon="-0.72345">
        <ele>49.6</ele>
        <time>2022-08-11T14:41:47.449+02:00</time>
      </trkpt>
      <trkpt lat="45.3635" lon="-0.72332">
        <ele>49.6</ele>
        <time>2022-08-11T14:41:49.441+02:00</time>
      </trkpt>
      <trkpt lat="45.36343" lon="-0.72318">
        <ele>49.3</ele>
        <time>2022-08-11T14:41:52.419+02:00</time>
      </trkpt>
      <trkpt lat="45.36335" lon="-0.72315">
        <ele>49.3</ele>
        <time>2022-08-11T14:41:54.438+02:00</time>
      </trkpt>
      <trkpt lat="45.36323" lon="-0.72309">
        <ele>49.2</ele>
        <time>2022-08-11T14:41:57.435+02:00</time>
      </trkpt>
      <trkpt lat="45.3631" lon="-0.72304">
        <ele>49.6</ele>
        <time>2022-08-11T14:42:00.426+02:00</time>
      </trkpt>
      <trkpt lat="45.363" lon="-0.72304">
        <ele>49.9</ele>
        <time>2022-08-11T14:42:02.447+02:00</time>
      </trkpt>
      <trkpt lat="45.36288" lon="-0.723">
        <ele>50.2</ele>
        <time>2022-08-11T14:42:05.443+02:00</time>
      </trkpt>
      <trkpt lat="45.36274" lon="-0.72296">
        <ele>50</ele>
        <time>2022-08-11T14:42:08.436+02:00</time>
      </trkpt>
      <trkpt lat="45.36265" lon="-0.72293">
        <ele>49.5</ele>
        <time>2022-08-11T14:42:10.422+02:00</time>
      </trkpt>
      <trkpt lat="45.36255" lon="-0.7229">
        <ele>49.3</ele>
        <time>2022-08-11T14:42:12.434+02:00</time>
      </trkpt>
      <trkpt lat="45.36246" lon="-0.72287">
        <ele>49.3</ele>
        <time>2022-08-11T14:42:14.439+02:00</time>
      </trkpt>
      <trkpt lat="45.36237" lon="-0.72284">
        <ele>49.9</ele>
        <time>2022-08-11T14:42:16.439+02:00</time>
      </trkpt>
      <trkpt lat="45.36227" lon="-0.72281">
        <ele>50.1</ele>
        <time>2022-08-11T14:42:18.451+02:00</time>
      </trkpt>
      <trkpt lat="45.36217" lon="-0.72279">
        <ele>49.9</ele>
        <time>2022-08-11T14:42:20.435+02:00</time>
      </trkpt>
      <trkpt lat="45.36208" lon="-0.72276">
        <ele>50</ele>
        <time>2022-08-11T14:42:22.425+02:00</time>
      </trkpt>
      <trkpt lat="45.36198" lon="-0.72273">
        <ele>50</ele>
        <time>2022-08-11T14:42:24.447+02:00</time>
      </trkpt>
      <trkpt lat="45.36189" lon="-0.7227">
        <ele>49.8</ele>
        <time>2022-08-11T14:42:26.431+02:00</time>
      </trkpt>
      <trkpt lat="45.36179" lon="-0.72267">
        <ele>50</ele>
        <time>2022-08-11T14:42:28.442+02:00</time>
      </trkpt>
      <trkpt lat="45.3617" lon="-0.72264">
        <ele>50</ele>
        <time>2022-08-11T14:42:30.43+02:00</time>
      </trkpt>
      <trkpt lat="45.3616" lon="-0.72261">
        <ele>49.8</ele>
        <time>2022-08-11T14:42:32.427+02:00</time>
      </trkpt>
      <trkpt lat="45.3615" lon="-0.72258">
        <ele>49.8</ele>
        <time>2022-08-11T14:42:34.429+02:00</time>
      </trkpt>
      <trkpt lat="45.36141" lon="-0.72255">
        <ele>49.7</ele>
        <time>2022-08-11T14:42:36.441+02:00</time>
      </trkpt>
      <trkpt lat="45.36131" lon="-0.72251">
        <ele>50</ele>
        <time>2022-08-11T14:42:38.434+02:00</time>
      </trkpt>
      <trkpt lat="45.36122" lon="-0.72249">
        <ele>50.2</ele>
        <time>2022-08-11T14:42:40.424+02:00</time>
      </trkpt>
      <trkpt lat="45.36113" lon="-0.72246">
        <ele>50.5</ele>
        <time>2022-08-11T14:42:42.428+02:00</time>
      </trkpt>
      <trkpt lat="45.36103" lon="-0.72244">
        <ele>50.4</ele>
        <time>2022-08-11T14:42:44.439+02:00</time>
      </trkpt>
      <trkpt lat="45.36094" lon="-0.72241">
        <ele>50.5</ele>
        <time>2022-08-11T14:42:46.433+02:00</time>
      </trkpt>
      <trkpt lat="45.36085" lon="-0.72238">
        <ele>50.7</ele>
        <time>2022-08-11T14:42:48.436+02:00</time>
      </trkpt>
      <trkpt lat="45.36076" lon="-0.72235">
        <ele>50.6</ele>
        <time>2022-08-11T14:42:50.425+02:00</time>
      </trkpt>
      <trkpt lat="45.36063" lon="-0.72232">
        <ele>50.5</ele>
        <time>2022-08-11T14:42:53.426+02:00</time>
      </trkpt>
      <trkpt lat="45.36054" lon="-0.72229">
        <ele>50.6</ele>
        <time>2022-08-11T14:42:55.443+02:00</time>
      </trkpt>
      <trkpt lat="45.36046" lon="-0.72226">
        <ele>50.9</ele>
        <time>2022-08-11T14:42:57.435+02:00</time>
      </trkpt>
      <trkpt lat="45.36033" lon="-0.72222">
        <ele>50.9</ele>
        <time>2022-08-11T14:43:00.426+02:00</time>
      </trkpt>
      <trkpt lat="45.36021" lon="-0.72218">
        <ele>50.5</ele>
        <time>2022-08-11T14:43:03.443+02:00</time>
      </trkpt>
      <trkpt lat="45.36013" lon="-0.72207">
        <ele>50.7</ele>
        <time>2022-08-11T14:43:06.431+02:00</time>
      </trkpt>
      <trkpt lat="45.36003" lon="-0.72201">
        <ele>50.5</ele>
        <time>2022-08-11T14:43:10.436+02:00</time>
      </trkpt>
      <trkpt lat="45.35993" lon="-0.72204">
        <ele>50.5</ele>
        <time>2022-08-11T14:43:14.435+02:00</time>
      </trkpt>
      <trkpt lat="45.35989" lon="-0.72219">
        <ele>50.4</ele>
        <time>2022-08-11T14:43:18.439+02:00</time>
      </trkpt>
      <trkpt lat="45.35988" lon="-0.72232">
        <ele>50.5</ele>
        <time>2022-08-11T14:43:21.441+02:00</time>
      </trkpt>
      <trkpt lat="45.35987" lon="-0.72246">
        <ele>50.4</ele>
        <time>2022-08-11T14:43:24.442+02:00</time>
      </trkpt>
      <trkpt lat="45.35985" lon="-0.72261">
        <ele>50.2</ele>
        <time>2022-08-11T14:43:27.441+02:00</time>
      </trkpt>
      <trkpt lat="45.35984" lon="-0.72277">
        <ele>50.2</ele>
        <time>2022-08-11T14:43:30.426+02:00</time>
      </trkpt>
      <trkpt lat="45.35982" lon="-0.72293">
        <ele>50.3</ele>
        <time>2022-08-11T14:43:33.418+02:00</time>
      </trkpt>
      <trkpt lat="45.35981" lon="-0.72308">
        <ele>50.2</ele>
        <time>2022-08-11T14:43:36.414+02:00</time>
      </trkpt>
      <trkpt lat="45.35979" lon="-0.72323">
        <ele>50.1</ele>
        <time>2022-08-11T14:43:39.438+02:00</time>
      </trkpt>
      <trkpt lat="45.35977" lon="-0.72337">
        <ele>50.3</ele>
        <time>2022-08-11T14:43:42.424+02:00</time>
      </trkpt>
      <trkpt lat="45.35975" lon="-0.72351">
        <ele>50.1</ele>
        <time>2022-08-11T14:43:45.432+02:00</time>
      </trkpt>
      <trkpt lat="45.35971" lon="-0.72363">
        <ele>49.5</ele>
        <time>2022-08-11T14:43:48.432+02:00</time>
      </trkpt>
      <trkpt lat="45.3597" lon="-0.72376">
        <ele>49.7</ele>
        <time>2022-08-11T14:43:53.424+02:00</time>
      </trkpt>
      <trkpt lat="45.35969" lon="-0.72393">
        <ele>49.6</ele>
        <time>2022-08-11T14:43:58.448+02:00</time>
      </trkpt>
      <trkpt lat="45.35967" lon="-0.72407">
        <ele>49.4</ele>
        <time>2022-08-11T14:44:01.44+02:00</time>
      </trkpt>
      <trkpt lat="45.35965" lon="-0.72424">
        <ele>49.1</ele>
        <time>2022-08-11T14:44:04.431+02:00</time>
      </trkpt>
      <trkpt lat="45.35962" lon="-0.72442">
        <ele>48.6</ele>
        <time>2022-08-11T14:44:07.444+02:00</time>
      </trkpt>
      <trkpt lat="45.35961" lon="-0.72455">
        <ele>49.1</ele>
        <time>2022-08-11T14:44:09.437+02:00</time>
      </trkpt>
      <trkpt lat="45.35959" lon="-0.72473">
        <ele>49.5</ele>
        <time>2022-08-11T14:44:12.435+02:00</time>
      </trkpt>
      <trkpt lat="45.35958" lon="-0.72491">
        <ele>49.7</ele>
        <time>2022-08-11T14:44:15.44+02:00</time>
      </trkpt>
      <trkpt lat="45.35955" lon="-0.72509">
        <ele>49.5</ele>
        <time>2022-08-11T14:44:18.449+02:00</time>
      </trkpt>
      <trkpt lat="45.35951" lon="-0.72521">
        <ele>49.6</ele>
        <time>2022-08-11T14:44:20.43+02:00</time>
      </trkpt>
      <trkpt lat="45.35946" lon="-0.72532">
        <ele>50.2</ele>
        <time>2022-08-11T14:44:22.431+02:00</time>
      </trkpt>
      <trkpt lat="45.3594" lon="-0.72548">
        <ele>51</ele>
        <time>2022-08-11T14:44:25.448+02:00</time>
      </trkpt>
      <trkpt lat="45.35935" lon="-0.72564">
        <ele>51.5</ele>
        <time>2022-08-11T14:44:28.434+02:00</time>
      </trkpt>
      <trkpt lat="45.35929" lon="-0.72579">
        <ele>51.4</ele>
        <time>2022-08-11T14:44:31.445+02:00</time>
      </trkpt>
      <trkpt lat="45.35923" lon="-0.72595">
        <ele>51.9</ele>
        <time>2022-08-11T14:44:34.454+02:00</time>
      </trkpt>
      <trkpt lat="45.35918" lon="-0.72611">
        <ele>52</ele>
        <time>2022-08-11T14:44:37.436+02:00</time>
      </trkpt>
      <trkpt lat="45.35912" lon="-0.72626">
        <ele>52</ele>
        <time>2022-08-11T14:44:40.418+02:00</time>
      </trkpt>
      <trkpt lat="45.35906" lon="-0.7264">
        <ele>52.1</ele>
        <time>2022-08-11T14:44:43.433+02:00</time>
      </trkpt>
      <trkpt lat="45.35898" lon="-0.72649">
        <ele>52.1</ele>
        <time>2022-08-11T14:44:46.448+02:00</time>
      </trkpt>
      <trkpt lat="45.35887" lon="-0.72648">
        <ele>51.8</ele>
        <time>2022-08-11T14:44:49.436+02:00</time>
      </trkpt>
      <trkpt lat="45.35876" lon="-0.72645">
        <ele>52.2</ele>
        <time>2022-08-11T14:44:52.446+02:00</time>
      </trkpt>
      <trkpt lat="45.35865" lon="-0.72641">
        <ele>52.4</ele>
        <time>2022-08-11T14:44:55.439+02:00</time>
      </trkpt>
      <trkpt lat="45.35854" lon="-0.72636">
        <ele>52.1</ele>
        <time>2022-08-11T14:44:58.429+02:00</time>
      </trkpt>
      <trkpt lat="45.35843" lon="-0.72632">
        <ele>52.4</ele>
        <time>2022-08-11T14:45:01.438+02:00</time>
      </trkpt>
      <trkpt lat="45.35832" lon="-0.72627">
        <ele>52.2</ele>
        <time>2022-08-11T14:45:04.456+02:00</time>
      </trkpt>
      <trkpt lat="45.35821" lon="-0.72622">
        <ele>51.6</ele>
        <time>2022-08-11T14:45:07.443+02:00</time>
      </trkpt>
      <trkpt lat="45.35809" lon="-0.72617">
        <ele>51.3</ele>
        <time>2022-08-11T14:45:10.426+02:00</time>
      </trkpt>
      <trkpt lat="45.35796" lon="-0.72613">
        <ele>51.3</ele>
        <time>2022-08-11T14:45:13.433+02:00</time>
      </trkpt>
      <trkpt lat="45.35784" lon="-0.72609">
        <ele>51.2</ele>
        <time>2022-08-11T14:45:16.434+02:00</time>
      </trkpt>
      <trkpt lat="45.35775" lon="-0.72606">
        <ele>51.3</ele>
        <time>2022-08-11T14:45:18.437+02:00</time>
      </trkpt>
      <trkpt lat="45.35762" lon="-0.72601">
        <ele>51.7</ele>
        <time>2022-08-11T14:45:21.443+02:00</time>
      </trkpt>
      <trkpt lat="45.35753" lon="-0.72598">
        <ele>51.2</ele>
        <time>2022-08-11T14:45:23.433+02:00</time>
      </trkpt>
      <trkpt lat="45.35743" lon="-0.72595">
        <ele>51.3</ele>
        <time>2022-08-11T14:45:25.435+02:00</time>
      </trkpt>
      <trkpt lat="45.35734" lon="-0.72591">
        <ele>51.6</ele>
        <time>2022-08-11T14:45:27.433+02:00</time>
      </trkpt>
      <trkpt lat="45.35725" lon="-0.72588">
        <ele>51.6</ele>
        <time>2022-08-11T14:45:29.434+02:00</time>
      </trkpt>
      <trkpt lat="45.35716" lon="-0.72585">
        <ele>51.7</ele>
        <time>2022-08-11T14:45:31.445+02:00</time>
      </trkpt>
      <trkpt lat="45.35707" lon="-0.72582">
        <ele>51.5</ele>
        <time>2022-08-11T14:45:33.435+02:00</time>
      </trkpt>
      <trkpt lat="45.35698" lon="-0.72579">
        <ele>51.1</ele>
        <time>2022-08-11T14:45:35.446+02:00</time>
      </trkpt>
      <trkpt lat="45.35689" lon="-0.72576">
        <ele>50.5</ele>
        <time>2022-08-11T14:45:37.437+02:00</time>
      </trkpt>
      <trkpt lat="45.35676" lon="-0.72572">
        <ele>50.6</ele>
        <time>2022-08-11T14:45:40.417+02:00</time>
      </trkpt>
      <trkpt lat="45.35665" lon="-0.72569">
        <ele>50.6</ele>
        <time>2022-08-11T14:45:43.436+02:00</time>
      </trkpt>
      <trkpt lat="45.35656" lon="-0.72566">
        <ele>50.4</ele>
        <time>2022-08-11T14:45:47.429+02:00</time>
      </trkpt>
      <trkpt lat="45.35644" lon="-0.72561">
        <ele>50.8</ele>
        <time>2022-08-11T14:45:53.443+02:00</time>
      </trkpt>
      <trkpt lat="45.35633" lon="-0.72558">
        <ele>50.5</ele>
        <time>2022-08-11T14:45:56.441+02:00</time>
      </trkpt>
      <trkpt lat="45.35621" lon="-0.72554">
        <ele>50.9</ele>
        <time>2022-08-11T14:45:59.433+02:00</time>
      </trkpt>
      <trkpt lat="45.35609" lon="-0.7255">
        <ele>51.4</ele>
        <time>2022-08-11T14:46:02.432+02:00</time>
      </trkpt>
      <trkpt lat="45.35596" lon="-0.72546">
        <ele>51.5</ele>
        <time>2022-08-11T14:46:05.42+02:00</time>
      </trkpt>
      <trkpt lat="45.35583" lon="-0.72541">
        <ele>51.5</ele>
        <time>2022-08-11T14:46:08.439+02:00</time>
      </trkpt>
      <trkpt lat="45.35574" lon="-0.72539">
        <ele>51.7</ele>
        <time>2022-08-11T14:46:10.426+02:00</time>
      </trkpt>
      <trkpt lat="45.35561" lon="-0.72535">
        <ele>51.5</ele>
        <time>2022-08-11T14:46:13.435+02:00</time>
      </trkpt>
      <trkpt lat="45.35552" lon="-0.72532">
        <ele>51.7</ele>
        <time>2022-08-11T14:46:15.456+02:00</time>
      </trkpt>
      <trkpt lat="45.35543" lon="-0.72529">
        <ele>51.9</ele>
        <time>2022-08-11T14:46:17.443+02:00</time>
      </trkpt>
      <trkpt lat="45.35533" lon="-0.72526">
        <ele>51.7</ele>
        <time>2022-08-11T14:46:19.442+02:00</time>
      </trkpt>
      <trkpt lat="45.35524" lon="-0.72523">
        <ele>51.5</ele>
        <time>2022-08-11T14:46:21.434+02:00</time>
      </trkpt>
      <trkpt lat="45.35514" lon="-0.72521">
        <ele>51.5</ele>
        <time>2022-08-11T14:46:23.448+02:00</time>
      </trkpt>
      <trkpt lat="45.35505" lon="-0.72518">
        <ele>51.6</ele>
        <time>2022-08-11T14:46:25.417+02:00</time>
      </trkpt>
      <trkpt lat="45.35496" lon="-0.72515">
        <ele>51.5</ele>
        <time>2022-08-11T14:46:27.417+02:00</time>
      </trkpt>
      <trkpt lat="45.35483" lon="-0.72511">
        <ele>52.6</ele>
        <time>2022-08-11T14:46:30.41+02:00</time>
      </trkpt>
      <trkpt lat="45.35473" lon="-0.72508">
        <ele>53</ele>
        <time>2022-08-11T14:46:32.421+02:00</time>
      </trkpt>
      <trkpt lat="45.35464" lon="-0.72504">
        <ele>53.1</ele>
        <time>2022-08-11T14:46:34.432+02:00</time>
      </trkpt>
      <trkpt lat="45.35453" lon="-0.72501">
        <ele>53.2</ele>
        <time>2022-08-11T14:46:36.443+02:00</time>
      </trkpt>
      <trkpt lat="45.35443" lon="-0.72498">
        <ele>53</ele>
        <time>2022-08-11T14:46:38.412+02:00</time>
      </trkpt>
      <trkpt lat="45.35434" lon="-0.72494">
        <ele>53</ele>
        <time>2022-08-11T14:46:40.435+02:00</time>
      </trkpt>
      <trkpt lat="45.35425" lon="-0.7249">
        <ele>52.8</ele>
        <time>2022-08-11T14:46:42.429+02:00</time>
      </trkpt>
      <trkpt lat="45.35416" lon="-0.72488">
        <ele>52.8</ele>
        <time>2022-08-11T14:46:44.434+02:00</time>
      </trkpt>
      <trkpt lat="45.35407" lon="-0.72484">
        <ele>52.7</ele>
        <time>2022-08-11T14:46:46.439+02:00</time>
      </trkpt>
      <trkpt lat="45.35398" lon="-0.7248">
        <ele>52.8</ele>
        <time>2022-08-11T14:46:48.445+02:00</time>
      </trkpt>
      <trkpt lat="45.35388" lon="-0.72477">
        <ele>52.5</ele>
        <time>2022-08-11T14:46:50.433+02:00</time>
      </trkpt>
      <trkpt lat="45.35379" lon="-0.72474">
        <ele>52.7</ele>
        <time>2022-08-11T14:46:52.436+02:00</time>
      </trkpt>
      <trkpt lat="45.35369" lon="-0.7247">
        <ele>52.8</ele>
        <time>2022-08-11T14:46:54.447+02:00</time>
      </trkpt>
      <trkpt lat="45.35359" lon="-0.72468">
        <ele>52.5</ele>
        <time>2022-08-11T14:46:56.456+02:00</time>
      </trkpt>
      <trkpt lat="45.35349" lon="-0.72466">
        <ele>52.4</ele>
        <time>2022-08-11T14:46:58.447+02:00</time>
      </trkpt>
      <trkpt lat="45.3534" lon="-0.72463">
        <ele>52.3</ele>
        <time>2022-08-11T14:47:00.407+02:00</time>
      </trkpt>
      <trkpt lat="45.35331" lon="-0.72461">
        <ele>52</ele>
        <time>2022-08-11T14:47:02.417+02:00</time>
      </trkpt>
      <trkpt lat="45.35321" lon="-0.72457">
        <ele>52.2</ele>
        <time>2022-08-11T14:47:04.437+02:00</time>
      </trkpt>
      <trkpt lat="45.35311" lon="-0.72454">
        <ele>52</ele>
        <time>2022-08-11T14:47:06.429+02:00</time>
      </trkpt>
      <trkpt lat="45.35302" lon="-0.72451">
        <ele>51.9</ele>
        <time>2022-08-11T14:47:08.432+02:00</time>
      </trkpt>
      <trkpt lat="45.35293" lon="-0.72448">
        <ele>51.8</ele>
        <time>2022-08-11T14:47:10.418+02:00</time>
      </trkpt>
      <trkpt lat="45.35284" lon="-0.72446">
        <ele>51.7</ele>
        <time>2022-08-11T14:47:12.431+02:00</time>
      </trkpt>
      <trkpt lat="45.35275" lon="-0.72443">
        <ele>51.8</ele>
        <time>2022-08-11T14:47:14.417+02:00</time>
      </trkpt>
      <trkpt lat="45.35265" lon="-0.72441">
        <ele>52</ele>
        <time>2022-08-11T14:47:16.454+02:00</time>
      </trkpt>
      <trkpt lat="45.35255" lon="-0.72438">
        <ele>51.9</ele>
        <time>2022-08-11T14:47:18.435+02:00</time>
      </trkpt>
      <trkpt lat="45.35246" lon="-0.72434">
        <ele>52.2</ele>
        <time>2022-08-11T14:47:20.434+02:00</time>
      </trkpt>
      <trkpt lat="45.35237" lon="-0.72431">
        <ele>52.3</ele>
        <time>2022-08-11T14:47:22.444+02:00</time>
      </trkpt>
      <trkpt lat="45.35227" lon="-0.72427">
        <ele>52.5</ele>
        <time>2022-08-11T14:47:24.434+02:00</time>
      </trkpt>
      <trkpt lat="45.35218" lon="-0.72424">
        <ele>52.7</ele>
        <time>2022-08-11T14:47:26.432+02:00</time>
      </trkpt>
      <trkpt lat="45.35208" lon="-0.72421">
        <ele>52.7</ele>
        <time>2022-08-11T14:47:28.43+02:00</time>
      </trkpt>
      <trkpt lat="45.35198" lon="-0.72418">
        <ele>52.4</ele>
        <time>2022-08-11T14:47:30.423+02:00</time>
      </trkpt>
      <trkpt lat="45.35188" lon="-0.72415">
        <ele>52.1</ele>
        <time>2022-08-11T14:47:32.44+02:00</time>
      </trkpt>
      <trkpt lat="45.35178" lon="-0.72412">
        <ele>52.4</ele>
        <time>2022-08-11T14:47:34.438+02:00</time>
      </trkpt>
      <trkpt lat="45.35168" lon="-0.72409">
        <ele>52.2</ele>
        <time>2022-08-11T14:47:36.439+02:00</time>
      </trkpt>
      <trkpt lat="45.35158" lon="-0.72406">
        <ele>52.5</ele>
        <time>2022-08-11T14:47:38.433+02:00</time>
      </trkpt>
      <trkpt lat="45.35148" lon="-0.72403">
        <ele>52.6</ele>
        <time>2022-08-11T14:47:40.425+02:00</time>
      </trkpt>
      <trkpt lat="45.35138" lon="-0.72401">
        <ele>52.4</ele>
        <time>2022-08-11T14:47:42.432+02:00</time>
      </trkpt>
      <trkpt lat="45.35128" lon="-0.72398">
        <ele>52.2</ele>
        <time>2022-08-11T14:47:44.434+02:00</time>
      </trkpt>
      <trkpt lat="45.35119" lon="-0.72395">
        <ele>52.7</ele>
        <time>2022-08-11T14:47:46.445+02:00</time>
      </trkpt>
      <trkpt lat="45.35109" lon="-0.72392">
        <ele>52.8</ele>
        <time>2022-08-11T14:47:48.449+02:00</time>
      </trkpt>
      <trkpt lat="45.35099" lon="-0.7239">
        <ele>53.2</ele>
        <time>2022-08-11T14:47:50.426+02:00</time>
      </trkpt>
      <trkpt lat="45.35089" lon="-0.72387">
        <ele>52.8</ele>
        <time>2022-08-11T14:47:52.433+02:00</time>
      </trkpt>
      <trkpt lat="45.35079" lon="-0.72384">
        <ele>52.8</ele>
        <time>2022-08-11T14:47:54.435+02:00</time>
      </trkpt>
      <trkpt lat="45.3507" lon="-0.72382">
        <ele>53.1</ele>
        <time>2022-08-11T14:47:56.429+02:00</time>
      </trkpt>
      <trkpt lat="45.3506" lon="-0.7238">
        <ele>53</ele>
        <time>2022-08-11T14:47:58.435+02:00</time>
      </trkpt>
      <trkpt lat="45.3505" lon="-0.72378">
        <ele>52.9</ele>
        <time>2022-08-11T14:48:00.422+02:00</time>
      </trkpt>
      <trkpt lat="45.35041" lon="-0.72375">
        <ele>52.9</ele>
        <time>2022-08-11T14:48:02.446+02:00</time>
      </trkpt>
      <trkpt lat="45.35031" lon="-0.72372">
        <ele>53.1</ele>
        <time>2022-08-11T14:48:04.448+02:00</time>
      </trkpt>
      <trkpt lat="45.3502" lon="-0.7237">
        <ele>52.9</ele>
        <time>2022-08-11T14:48:06.426+02:00</time>
      </trkpt>
      <trkpt lat="45.3501" lon="-0.72367">
        <ele>52.8</ele>
        <time>2022-08-11T14:48:08.432+02:00</time>
      </trkpt>
      <trkpt lat="45.35001" lon="-0.72363">
        <ele>52.7</ele>
        <time>2022-08-11T14:48:10.435+02:00</time>
      </trkpt>
      <trkpt lat="45.34991" lon="-0.7236">
        <ele>52.4</ele>
        <time>2022-08-11T14:48:12.435+02:00</time>
      </trkpt>
      <trkpt lat="45.34981" lon="-0.72358">
        <ele>52</ele>
        <time>2022-08-11T14:48:14.437+02:00</time>
      </trkpt>
      <trkpt lat="45.34971" lon="-0.72355">
        <ele>52.2</ele>
        <time>2022-08-11T14:48:16.443+02:00</time>
      </trkpt>
      <trkpt lat="45.34961" lon="-0.72352">
        <ele>52.1</ele>
        <time>2022-08-11T14:48:18.446+02:00</time>
      </trkpt>
      <trkpt lat="45.34952" lon="-0.7235">
        <ele>52.4</ele>
        <time>2022-08-11T14:48:20.428+02:00</time>
      </trkpt>
      <trkpt lat="45.34942" lon="-0.72347">
        <ele>52.4</ele>
        <time>2022-08-11T14:48:22.438+02:00</time>
      </trkpt>
      <trkpt lat="45.34932" lon="-0.72345">
        <ele>52.3</ele>
        <time>2022-08-11T14:48:24.434+02:00</time>
      </trkpt>
      <trkpt lat="45.34923" lon="-0.72342">
        <ele>52.1</ele>
        <time>2022-08-11T14:48:26.449+02:00</time>
      </trkpt>
      <trkpt lat="45.34912" lon="-0.72339">
        <ele>52</ele>
        <time>2022-08-11T14:48:28.429+02:00</time>
      </trkpt>
      <trkpt lat="45.34902" lon="-0.72336">
        <ele>52.2</ele>
        <time>2022-08-11T14:48:30.429+02:00</time>
      </trkpt>
      <trkpt lat="45.34893" lon="-0.72332">
        <ele>52.4</ele>
        <time>2022-08-11T14:48:32.434+02:00</time>
      </trkpt>
      <trkpt lat="45.34883" lon="-0.72329">
        <ele>52.6</ele>
        <time>2022-08-11T14:48:34.428+02:00</time>
      </trkpt>
      <trkpt lat="45.34874" lon="-0.72326">
        <ele>53.1</ele>
        <time>2022-08-11T14:48:36.441+02:00</time>
      </trkpt>
      <trkpt lat="45.34865" lon="-0.72324">
        <ele>52.9</ele>
        <time>2022-08-11T14:48:38.432+02:00</time>
      </trkpt>
      <trkpt lat="45.34854" lon="-0.72321">
        <ele>52.9</ele>
        <time>2022-08-11T14:48:40.421+02:00</time>
      </trkpt>
      <trkpt lat="45.34844" lon="-0.72318">
        <ele>52.5</ele>
        <time>2022-08-11T14:48:42.427+02:00</time>
      </trkpt>
      <trkpt lat="45.34834" lon="-0.72316">
        <ele>52.7</ele>
        <time>2022-08-11T14:48:44.433+02:00</time>
      </trkpt>
      <trkpt lat="45.34824" lon="-0.72312">
        <ele>52.6</ele>
        <time>2022-08-11T14:48:46.412+02:00</time>
      </trkpt>
      <trkpt lat="45.34814" lon="-0.72311">
        <ele>52.4</ele>
        <time>2022-08-11T14:48:48.413+02:00</time>
      </trkpt>
      <trkpt lat="45.34804" lon="-0.72308">
        <ele>52.7</ele>
        <time>2022-08-11T14:48:50.41+02:00</time>
      </trkpt>
      <trkpt lat="45.34794" lon="-0.72305">
        <ele>52.6</ele>
        <time>2022-08-11T14:48:52.437+02:00</time>
      </trkpt>
      <trkpt lat="45.34784" lon="-0.72302">
        <ele>52.9</ele>
        <time>2022-08-11T14:48:54.435+02:00</time>
      </trkpt>
      <trkpt lat="45.34774" lon="-0.72299">
        <ele>53.2</ele>
        <time>2022-08-11T14:48:56.45+02:00</time>
      </trkpt>
      <trkpt lat="45.34764" lon="-0.72296">
        <ele>53.2</ele>
        <time>2022-08-11T14:48:58.424+02:00</time>
      </trkpt>
      <trkpt lat="45.34754" lon="-0.72293">
        <ele>52.3</ele>
        <time>2022-08-11T14:49:00.438+02:00</time>
      </trkpt>
      <trkpt lat="45.34744" lon="-0.7229">
        <ele>52.4</ele>
        <time>2022-08-11T14:49:02.437+02:00</time>
      </trkpt>
      <trkpt lat="45.34734" lon="-0.72287">
        <ele>51.9</ele>
        <time>2022-08-11T14:49:04.426+02:00</time>
      </trkpt>
      <trkpt lat="45.34724" lon="-0.72285">
        <ele>51.9</ele>
        <time>2022-08-11T14:49:06.435+02:00</time>
      </trkpt>
      <trkpt lat="45.34714" lon="-0.72282">
        <ele>52.2</ele>
        <time>2022-08-11T14:49:08.444+02:00</time>
      </trkpt>
      <trkpt lat="45.34704" lon="-0.72278">
        <ele>52.3</ele>
        <time>2022-08-11T14:49:10.431+02:00</time>
      </trkpt>
      <trkpt lat="45.34695" lon="-0.72275">
        <ele>51.8</ele>
        <time>2022-08-11T14:49:12.432+02:00</time>
      </trkpt>
      <trkpt lat="45.34685" lon="-0.72272">
        <ele>51.8</ele>
        <time>2022-08-11T14:49:14.447+02:00</time>
      </trkpt>
      <trkpt lat="45.34675" lon="-0.72269">
        <ele>52.2</ele>
        <time>2022-08-11T14:49:16.421+02:00</time>
      </trkpt>
      <trkpt lat="45.34666" lon="-0.72266">
        <ele>51.8</ele>
        <time>2022-08-11T14:49:18.436+02:00</time>
      </trkpt>
      <trkpt lat="45.34656" lon="-0.72263">
        <ele>52.1</ele>
        <time>2022-08-11T14:49:20.432+02:00</time>
      </trkpt>
      <trkpt lat="45.34646" lon="-0.7226">
        <ele>52</ele>
        <time>2022-08-11T14:49:22.428+02:00</time>
      </trkpt>
      <trkpt lat="45.34636" lon="-0.72258">
        <ele>51.9</ele>
        <time>2022-08-11T14:49:24.444+02:00</time>
      </trkpt>
      <trkpt lat="45.34627" lon="-0.72254">
        <ele>51.8</ele>
        <time>2022-08-11T14:49:26.425+02:00</time>
      </trkpt>
      <trkpt lat="45.34617" lon="-0.72252">
        <ele>51.7</ele>
        <time>2022-08-11T14:49:28.437+02:00</time>
      </trkpt>
      <trkpt lat="45.34607" lon="-0.72249">
        <ele>51.7</ele>
        <time>2022-08-11T14:49:30.44+02:00</time>
      </trkpt>
      <trkpt lat="45.34597" lon="-0.72245">
        <ele>51.8</ele>
        <time>2022-08-11T14:49:32.435+02:00</time>
      </trkpt>
      <trkpt lat="45.34588" lon="-0.72241">
        <ele>52.1</ele>
        <time>2022-08-11T14:49:34.447+02:00</time>
      </trkpt>
      <trkpt lat="45.34579" lon="-0.72238">
        <ele>51.8</ele>
        <time>2022-08-11T14:49:36.447+02:00</time>
      </trkpt>
      <trkpt lat="45.34569" lon="-0.72236">
        <ele>52.6</ele>
        <time>2022-08-11T14:49:38.426+02:00</time>
      </trkpt>
      <trkpt lat="45.34559" lon="-0.72234">
        <ele>52.5</ele>
        <time>2022-08-11T14:49:40.429+02:00</time>
      </trkpt>
      <trkpt lat="45.34549" lon="-0.72231">
        <ele>53</ele>
        <time>2022-08-11T14:49:42.434+02:00</time>
      </trkpt>
      <trkpt lat="45.34539" lon="-0.72228">
        <ele>52.5</ele>
        <time>2022-08-11T14:49:44.436+02:00</time>
      </trkpt>
      <trkpt lat="45.34529" lon="-0.72225">
        <ele>52.5</ele>
        <time>2022-08-11T14:49:46.419+02:00</time>
      </trkpt>
      <trkpt lat="45.3452" lon="-0.72222">
        <ele>51.9</ele>
        <time>2022-08-11T14:49:48.419+02:00</time>
      </trkpt>
      <trkpt lat="45.3451" lon="-0.72219">
        <ele>51.9</ele>
        <time>2022-08-11T14:49:50.446+02:00</time>
      </trkpt>
      <trkpt lat="45.34498" lon="-0.72215">
        <ele>51.2</ele>
        <time>2022-08-11T14:49:53.435+02:00</time>
      </trkpt>
      <trkpt lat="45.34489" lon="-0.72212">
        <ele>51.5</ele>
        <time>2022-08-11T14:49:56.431+02:00</time>
      </trkpt>
      <trkpt lat="45.3448" lon="-0.72209">
        <ele>51.5</ele>
        <time>2022-08-11T14:50:00.436+02:00</time>
      </trkpt>
      <trkpt lat="45.3447" lon="-0.72205">
        <ele>51.6</ele>
        <time>2022-08-11T14:50:04.444+02:00</time>
      </trkpt>
      <trkpt lat="45.34459" lon="-0.72201">
        <ele>51.9</ele>
        <time>2022-08-11T14:50:07.439+02:00</time>
      </trkpt>
      <trkpt lat="45.34446" lon="-0.72196">
        <ele>52.4</ele>
        <time>2022-08-11T14:50:10.419+02:00</time>
      </trkpt>
      <trkpt lat="45.34433" lon="-0.72193">
        <ele>52.2</ele>
        <time>2022-08-11T14:50:13.421+02:00</time>
      </trkpt>
      <trkpt lat="45.34424" lon="-0.7219">
        <ele>51.5</ele>
        <time>2022-08-11T14:50:15.41+02:00</time>
      </trkpt>
      <trkpt lat="45.34411" lon="-0.72185">
        <ele>51.4</ele>
        <time>2022-08-11T14:50:18.416+02:00</time>
      </trkpt>
      <trkpt lat="45.34399" lon="-0.72181">
        <ele>51.4</ele>
        <time>2022-08-11T14:50:21.425+02:00</time>
      </trkpt>
      <trkpt lat="45.34386" lon="-0.72177">
        <ele>51.7</ele>
        <time>2022-08-11T14:50:24.431+02:00</time>
      </trkpt>
      <trkpt lat="45.34373" lon="-0.72171">
        <ele>51.9</ele>
        <time>2022-08-11T14:50:27.449+02:00</time>
      </trkpt>
      <trkpt lat="45.3436" lon="-0.72164">
        <ele>51.7</ele>
        <time>2022-08-11T14:50:30.434+02:00</time>
      </trkpt>
      <trkpt lat="45.34354" lon="-0.72151">
        <ele>51.7</ele>
        <time>2022-08-11T14:50:33.439+02:00</time>
      </trkpt>
      <trkpt lat="45.34354" lon="-0.72137">
        <ele>50.8</ele>
        <time>2022-08-11T14:50:36.423+02:00</time>
      </trkpt>
      <trkpt lat="45.34361" lon="-0.7212">
        <ele>49.9</ele>
        <time>2022-08-11T14:50:39.438+02:00</time>
      </trkpt>
      <trkpt lat="45.34369" lon="-0.72111">
        <ele>49.6</ele>
        <time>2022-08-11T14:50:41.436+02:00</time>
      </trkpt>
      <trkpt lat="45.34374" lon="-0.72101">
        <ele>49.9</ele>
        <time>2022-08-11T14:50:43.425+02:00</time>
      </trkpt>
      <trkpt lat="45.34383" lon="-0.72088">
        <ele>50</ele>
        <time>2022-08-11T14:50:46.415+02:00</time>
      </trkpt>
      <trkpt lat="45.34388" lon="-0.72076">
        <ele>50.3</ele>
        <time>2022-08-11T14:50:49.414+02:00</time>
      </trkpt>
      <trkpt lat="45.34395" lon="-0.72064">
        <ele>50.7</ele>
        <time>2022-08-11T14:50:52.413+02:00</time>
      </trkpt>
      <trkpt lat="45.34402" lon="-0.72053">
        <ele>49.7</ele>
        <time>2022-08-11T14:50:55.411+02:00</time>
      </trkpt>
      <trkpt lat="45.34408" lon="-0.7204">
        <ele>50.5</ele>
        <time>2022-08-11T14:50:58.431+02:00</time>
      </trkpt>
      <trkpt lat="45.34414" lon="-0.72026">
        <ele>50.7</ele>
        <time>2022-08-11T14:51:01.429+02:00</time>
      </trkpt>
      <trkpt lat="45.34418" lon="-0.7201">
        <ele>50.6</ele>
        <time>2022-08-11T14:51:04.429+02:00</time>
      </trkpt>
      <trkpt lat="45.34424" lon="-0.71995">
        <ele>50.2</ele>
        <time>2022-08-11T14:51:07.445+02:00</time>
      </trkpt>
      <trkpt lat="45.34426" lon="-0.7198">
        <ele>50.1</ele>
        <time>2022-08-11T14:51:10.427+02:00</time>
      </trkpt>
      <trkpt lat="45.34417" lon="-0.71969">
        <ele>50.2</ele>
        <time>2022-08-11T14:51:14.43+02:00</time>
      </trkpt>
      <trkpt lat="45.34409" lon="-0.71964">
        <ele>50</ele>
        <time>2022-08-11T14:51:17.438+02:00</time>
      </trkpt>
      <trkpt lat="45.34398" lon="-0.71971">
        <ele>49.4</ele>
        <time>2022-08-11T14:51:20.439+02:00</time>
      </trkpt>
      <trkpt lat="45.3439" lon="-0.71981">
        <ele>49.3</ele>
        <time>2022-08-11T14:51:23.428+02:00</time>
      </trkpt>
      <trkpt lat="45.34382" lon="-0.71993">
        <ele>49.9</ele>
        <time>2022-08-11T14:51:26.423+02:00</time>
      </trkpt>
      <trkpt lat="45.34376" lon="-0.72004">
        <ele>49.1</ele>
        <time>2022-08-11T14:51:29.423+02:00</time>
      </trkpt>
      <trkpt lat="45.34365" lon="-0.72014">
        <ele>48.9</ele>
        <time>2022-08-11T14:51:32.44+02:00</time>
      </trkpt>
      <trkpt lat="45.34359" lon="-0.72028">
        <ele>48.6</ele>
        <time>2022-08-11T14:51:34.433+02:00</time>
      </trkpt>
      <trkpt lat="45.34351" lon="-0.72036">
        <ele>49.2</ele>
        <time>2022-08-11T14:51:36.442+02:00</time>
      </trkpt>
      <trkpt lat="45.3434" lon="-0.72041">
        <ele>48.7</ele>
        <time>2022-08-11T14:51:39.433+02:00</time>
      </trkpt>
      <trkpt lat="45.3433" lon="-0.72044">
        <ele>48.4</ele>
        <time>2022-08-11T14:51:42.437+02:00</time>
      </trkpt>
      <trkpt lat="45.34319" lon="-0.72047">
        <ele>47.9</ele>
        <time>2022-08-11T14:51:46.427+02:00</time>
      </trkpt>
      <trkpt lat="45.34308" lon="-0.72049">
        <ele>48.6</ele>
        <time>2022-08-11T14:51:49.436+02:00</time>
      </trkpt>
      <trkpt lat="45.34296" lon="-0.72051">
        <ele>49.5</ele>
        <time>2022-08-11T14:51:52.443+02:00</time>
      </trkpt>
      <trkpt lat="45.34283" lon="-0.72054">
        <ele>49.9</ele>
        <time>2022-08-11T14:51:55.441+02:00</time>
      </trkpt>
      <trkpt lat="45.34275" lon="-0.72057">
        <ele>50.1</ele>
        <time>2022-08-11T14:51:57.423+02:00</time>
      </trkpt>
      <trkpt lat="45.34264" lon="-0.72062">
        <ele>51</ele>
        <time>2022-08-11T14:52:00.432+02:00</time>
      </trkpt>
      <trkpt lat="45.34254" lon="-0.72066">
        <ele>51.1</ele>
        <time>2022-08-11T14:52:04.448+02:00</time>
      </trkpt>
      <trkpt lat="45.34244" lon="-0.7207">
        <ele>50.9</ele>
        <time>2022-08-11T14:52:07.433+02:00</time>
      </trkpt>
      <trkpt lat="45.34233" lon="-0.72071">
        <ele>50.7</ele>
        <time>2022-08-11T14:52:10.43+02:00</time>
      </trkpt>
      <trkpt lat="45.34221" lon="-0.72073">
        <ele>50.6</ele>
        <time>2022-08-11T14:52:13.436+02:00</time>
      </trkpt>
      <trkpt lat="45.34209" lon="-0.72076">
        <ele>50.9</ele>
        <time>2022-08-11T14:52:16.436+02:00</time>
      </trkpt>
      <trkpt lat="45.34198" lon="-0.72078">
        <ele>50.8</ele>
        <time>2022-08-11T14:52:19.437+02:00</time>
      </trkpt>
      <trkpt lat="45.34187" lon="-0.72079">
        <ele>51</ele>
        <time>2022-08-11T14:52:22.444+02:00</time>
      </trkpt>
      <trkpt lat="45.34176" lon="-0.72081">
        <ele>50.9</ele>
        <time>2022-08-11T14:52:25.434+02:00</time>
      </trkpt>
      <trkpt lat="45.34164" lon="-0.72085">
        <ele>50.7</ele>
        <time>2022-08-11T14:52:28.412+02:00</time>
      </trkpt>
      <trkpt lat="45.34152" lon="-0.72088">
        <ele>51.3</ele>
        <time>2022-08-11T14:52:31.415+02:00</time>
      </trkpt>
      <trkpt lat="45.34139" lon="-0.72091">
        <ele>51.9</ele>
        <time>2022-08-11T14:52:34.429+02:00</time>
      </trkpt>
      <trkpt lat="45.34127" lon="-0.72091">
        <ele>52.1</ele>
        <time>2022-08-11T14:52:37.425+02:00</time>
      </trkpt>
      <trkpt lat="45.34115" lon="-0.72087">
        <ele>51.8</ele>
        <time>2022-08-11T14:52:40.437+02:00</time>
      </trkpt>
      <trkpt lat="45.34103" lon="-0.72083">
        <ele>51.7</ele>
        <time>2022-08-11T14:52:43.437+02:00</time>
      </trkpt>
      <trkpt lat="45.34094" lon="-0.72079">
        <ele>52.2</ele>
        <time>2022-08-11T14:52:45.423+02:00</time>
      </trkpt>
      <trkpt lat="45.34085" lon="-0.72073">
        <ele>51.9</ele>
        <time>2022-08-11T14:52:47.435+02:00</time>
      </trkpt>
      <trkpt lat="45.34072" lon="-0.72068">
        <ele>51.8</ele>
        <time>2022-08-11T14:52:50.44+02:00</time>
      </trkpt>
      <trkpt lat="45.34059" lon="-0.72064">
        <ele>52</ele>
        <time>2022-08-11T14:52:53.437+02:00</time>
      </trkpt>
      <trkpt lat="45.3405" lon="-0.7206">
        <ele>52.1</ele>
        <time>2022-08-11T14:52:55.435+02:00</time>
      </trkpt>
      <trkpt lat="45.34041" lon="-0.72058">
        <ele>52.4</ele>
        <time>2022-08-11T14:52:57.44+02:00</time>
      </trkpt>
      <trkpt lat="45.34028" lon="-0.72053">
        <ele>52</ele>
        <time>2022-08-11T14:53:00.43+02:00</time>
      </trkpt>
      <trkpt lat="45.34016" lon="-0.72049">
        <ele>51.8</ele>
        <time>2022-08-11T14:53:03.438+02:00</time>
      </trkpt>
      <trkpt lat="45.34003" lon="-0.72045">
        <ele>51.6</ele>
        <time>2022-08-11T14:53:06.423+02:00</time>
      </trkpt>
      <trkpt lat="45.33994" lon="-0.72041">
        <ele>51.6</ele>
        <time>2022-08-11T14:53:08.433+02:00</time>
      </trkpt>
      <trkpt lat="45.33981" lon="-0.72037">
        <ele>51.8</ele>
        <time>2022-08-11T14:53:11.429+02:00</time>
      </trkpt>
      <trkpt lat="45.33972" lon="-0.72034">
        <ele>52.2</ele>
        <time>2022-08-11T14:53:13.432+02:00</time>
      </trkpt>
      <trkpt lat="45.33964" lon="-0.72028">
        <ele>51.9</ele>
        <time>2022-08-11T14:53:15.439+02:00</time>
      </trkpt>
      <trkpt lat="45.33955" lon="-0.72024">
        <ele>52.1</ele>
        <time>2022-08-11T14:53:17.433+02:00</time>
      </trkpt>
      <trkpt lat="45.33946" lon="-0.72021">
        <ele>52.2</ele>
        <time>2022-08-11T14:53:19.444+02:00</time>
      </trkpt>
      <trkpt lat="45.33935" lon="-0.72018">
        <ele>51.9</ele>
        <time>2022-08-11T14:53:21.435+02:00</time>
      </trkpt>
      <trkpt lat="45.33926" lon="-0.72015">
        <ele>51.8</ele>
        <time>2022-08-11T14:53:23.451+02:00</time>
      </trkpt>
      <trkpt lat="45.33917" lon="-0.72012">
        <ele>51.6</ele>
        <time>2022-08-11T14:53:25.438+02:00</time>
      </trkpt>
      <trkpt lat="45.33907" lon="-0.72008">
        <ele>51.7</ele>
        <time>2022-08-11T14:53:27.441+02:00</time>
      </trkpt>
      <trkpt lat="45.33898" lon="-0.72006">
        <ele>51.6</ele>
        <time>2022-08-11T14:53:29.418+02:00</time>
      </trkpt>
      <trkpt lat="45.33888" lon="-0.72002">
        <ele>51.7</ele>
        <time>2022-08-11T14:53:31.43+02:00</time>
      </trkpt>
      <trkpt lat="45.33878" lon="-0.71998">
        <ele>51.8</ele>
        <time>2022-08-11T14:53:33.424+02:00</time>
      </trkpt>
      <trkpt lat="45.33869" lon="-0.71995">
        <ele>51.9</ele>
        <time>2022-08-11T14:53:35.427+02:00</time>
      </trkpt>
      <trkpt lat="45.33859" lon="-0.71992">
        <ele>51.9</ele>
        <time>2022-08-11T14:53:37.435+02:00</time>
      </trkpt>
      <trkpt lat="45.33851" lon="-0.71989">
        <ele>52</ele>
        <time>2022-08-11T14:53:39.427+02:00</time>
      </trkpt>
      <trkpt lat="45.33842" lon="-0.71987">
        <ele>52.2</ele>
        <time>2022-08-11T14:53:41.422+02:00</time>
      </trkpt>
      <trkpt lat="45.33828" lon="-0.71984">
        <ele>52.8</ele>
        <time>2022-08-11T14:53:44.443+02:00</time>
      </trkpt>
      <trkpt lat="45.33819" lon="-0.71985">
        <ele>53.3</ele>
        <time>2022-08-11T14:53:46.437+02:00</time>
      </trkpt>
      <trkpt lat="45.33806" lon="-0.7198">
        <ele>52.9</ele>
        <time>2022-08-11T14:53:49.435+02:00</time>
      </trkpt>
      <trkpt lat="45.33792" lon="-0.71976">
        <ele>52.9</ele>
        <time>2022-08-11T14:53:52.429+02:00</time>
      </trkpt>
      <trkpt lat="45.33779" lon="-0.71971">
        <ele>52.4</ele>
        <time>2022-08-11T14:53:55.432+02:00</time>
      </trkpt>
      <trkpt lat="45.3377" lon="-0.71967">
        <ele>52.2</ele>
        <time>2022-08-11T14:53:57.435+02:00</time>
      </trkpt>
      <trkpt lat="45.33761" lon="-0.71964">
        <ele>52.1</ele>
        <time>2022-08-11T14:53:59.426+02:00</time>
      </trkpt>
      <trkpt lat="45.33751" lon="-0.7196">
        <ele>52.1</ele>
        <time>2022-08-11T14:54:01.428+02:00</time>
      </trkpt>
      <trkpt lat="45.33742" lon="-0.71956">
        <ele>52.2</ele>
        <time>2022-08-11T14:54:03.435+02:00</time>
      </trkpt>
      <trkpt lat="45.33732" lon="-0.71952">
        <ele>52.1</ele>
        <time>2022-08-11T14:54:05.436+02:00</time>
      </trkpt>
      <trkpt lat="45.33722" lon="-0.71948">
        <ele>52.3</ele>
        <time>2022-08-11T14:54:07.422+02:00</time>
      </trkpt>
      <trkpt lat="45.33713" lon="-0.71944">
        <ele>52.7</ele>
        <time>2022-08-11T14:54:09.432+02:00</time>
      </trkpt>
      <trkpt lat="45.33703" lon="-0.71941">
        <ele>52.6</ele>
        <time>2022-08-11T14:54:11.425+02:00</time>
      </trkpt>
      <trkpt lat="45.33693" lon="-0.71937">
        <ele>52.3</ele>
        <time>2022-08-11T14:54:13.431+02:00</time>
      </trkpt>
      <trkpt lat="45.33683" lon="-0.71933">
        <ele>52.6</ele>
        <time>2022-08-11T14:54:15.444+02:00</time>
      </trkpt>
      <trkpt lat="45.33673" lon="-0.71929">
        <ele>52.3</ele>
        <time>2022-08-11T14:54:17.435+02:00</time>
      </trkpt>
      <trkpt lat="45.33663" lon="-0.71924">
        <ele>52.1</ele>
        <time>2022-08-11T14:54:19.433+02:00</time>
      </trkpt>
      <trkpt lat="45.33653" lon="-0.7192">
        <ele>51.9</ele>
        <time>2022-08-11T14:54:21.42+02:00</time>
      </trkpt>
      <trkpt lat="45.33642" lon="-0.71916">
        <ele>51.6</ele>
        <time>2022-08-11T14:54:23.445+02:00</time>
      </trkpt>
      <trkpt lat="45.33632" lon="-0.71912">
        <ele>51.9</ele>
        <time>2022-08-11T14:54:25.43+02:00</time>
      </trkpt>
      <trkpt lat="45.33622" lon="-0.71909">
        <ele>51.5</ele>
        <time>2022-08-11T14:54:27.429+02:00</time>
      </trkpt>
      <trkpt lat="45.33612" lon="-0.71905">
        <ele>51.8</ele>
        <time>2022-08-11T14:54:29.427+02:00</time>
      </trkpt>
      <trkpt lat="45.33602" lon="-0.71901">
        <ele>51.6</ele>
        <time>2022-08-11T14:54:31.43+02:00</time>
      </trkpt>
      <trkpt lat="45.33592" lon="-0.71896">
        <ele>51.7</ele>
        <time>2022-08-11T14:54:33.433+02:00</time>
      </trkpt>
      <trkpt lat="45.3358" lon="-0.71892">
        <ele>51.7</ele>
        <time>2022-08-11T14:54:35.426+02:00</time>
      </trkpt>
      <trkpt lat="45.3357" lon="-0.71888">
        <ele>51.6</ele>
        <time>2022-08-11T14:54:37.436+02:00</time>
      </trkpt>
      <trkpt lat="45.33558" lon="-0.71883">
        <ele>51.6</ele>
        <time>2022-08-11T14:54:39.437+02:00</time>
      </trkpt>
      <trkpt lat="45.33547" lon="-0.71878">
        <ele>51.7</ele>
        <time>2022-08-11T14:54:41.426+02:00</time>
      </trkpt>
      <trkpt lat="45.33536" lon="-0.71874">
        <ele>51.1</ele>
        <time>2022-08-11T14:54:43.437+02:00</time>
      </trkpt>
      <trkpt lat="45.33526" lon="-0.7187">
        <ele>51.1</ele>
        <time>2022-08-11T14:54:45.427+02:00</time>
      </trkpt>
      <trkpt lat="45.33515" lon="-0.71865">
        <ele>51</ele>
        <time>2022-08-11T14:54:47.428+02:00</time>
      </trkpt>
      <trkpt lat="45.33504" lon="-0.71862">
        <ele>50.9</ele>
        <time>2022-08-11T14:54:49.429+02:00</time>
      </trkpt>
      <trkpt lat="45.33493" lon="-0.71858">
        <ele>50.7</ele>
        <time>2022-08-11T14:54:51.419+02:00</time>
      </trkpt>
      <trkpt lat="45.33482" lon="-0.71854">
        <ele>50.5</ele>
        <time>2022-08-11T14:54:53.429+02:00</time>
      </trkpt>
      <trkpt lat="45.33472" lon="-0.7185">
        <ele>50.9</ele>
        <time>2022-08-11T14:54:55.433+02:00</time>
      </trkpt>
      <trkpt lat="45.33461" lon="-0.71846">
        <ele>51</ele>
        <time>2022-08-11T14:54:57.435+02:00</time>
      </trkpt>
      <trkpt lat="45.3345" lon="-0.71841">
        <ele>51</ele>
        <time>2022-08-11T14:54:59.428+02:00</time>
      </trkpt>
      <trkpt lat="45.3344" lon="-0.71836">
        <ele>50.7</ele>
        <time>2022-08-11T14:55:01.433+02:00</time>
      </trkpt>
      <trkpt lat="45.33429" lon="-0.71833">
        <ele>50.4</ele>
        <time>2022-08-11T14:55:03.435+02:00</time>
      </trkpt>
      <trkpt lat="45.33419" lon="-0.71828">
        <ele>50.6</ele>
        <time>2022-08-11T14:55:05.441+02:00</time>
      </trkpt>
      <trkpt lat="45.33408" lon="-0.71824">
        <ele>50.4</ele>
        <time>2022-08-11T14:55:07.424+02:00</time>
      </trkpt>
      <trkpt lat="45.33398" lon="-0.7182">
        <ele>50.4</ele>
        <time>2022-08-11T14:55:09.44+02:00</time>
      </trkpt>
      <trkpt lat="45.33387" lon="-0.71817">
        <ele>50.9</ele>
        <time>2022-08-11T14:55:11.423+02:00</time>
      </trkpt>
      <trkpt lat="45.33376" lon="-0.71813">
        <ele>51</ele>
        <time>2022-08-11T14:55:13.43+02:00</time>
      </trkpt>
      <trkpt lat="45.33364" lon="-0.71809">
        <ele>51.3</ele>
        <time>2022-08-11T14:55:15.435+02:00</time>
      </trkpt>
      <trkpt lat="45.33352" lon="-0.71804">
        <ele>51.2</ele>
        <time>2022-08-11T14:55:17.435+02:00</time>
      </trkpt>
      <trkpt lat="45.33342" lon="-0.71801">
        <ele>51.9</ele>
        <time>2022-08-11T14:55:19.444+02:00</time>
      </trkpt>
      <trkpt lat="45.33331" lon="-0.71797">
        <ele>52.4</ele>
        <time>2022-08-11T14:55:21.425+02:00</time>
      </trkpt>
      <trkpt lat="45.33322" lon="-0.71794">
        <ele>52.2</ele>
        <time>2022-08-11T14:55:23.427+02:00</time>
      </trkpt>
      <trkpt lat="45.33312" lon="-0.7179">
        <ele>52.3</ele>
        <time>2022-08-11T14:55:25.432+02:00</time>
      </trkpt>
      <trkpt lat="45.33303" lon="-0.71786">
        <ele>52.3</ele>
        <time>2022-08-11T14:55:27.444+02:00</time>
      </trkpt>
      <trkpt lat="45.33293" lon="-0.71782">
        <ele>52.3</ele>
        <time>2022-08-11T14:55:29.435+02:00</time>
      </trkpt>
      <trkpt lat="45.33283" lon="-0.71778">
        <ele>52.3</ele>
        <time>2022-08-11T14:55:31.431+02:00</time>
      </trkpt>
      <trkpt lat="45.33273" lon="-0.71775">
        <ele>52.1</ele>
        <time>2022-08-11T14:55:33.432+02:00</time>
      </trkpt>
      <trkpt lat="45.33263" lon="-0.7177">
        <ele>52.1</ele>
        <time>2022-08-11T14:55:35.438+02:00</time>
      </trkpt>
      <trkpt lat="45.33254" lon="-0.71766">
        <ele>52</ele>
        <time>2022-08-11T14:55:37.427+02:00</time>
      </trkpt>
      <trkpt lat="45.33244" lon="-0.71762">
        <ele>52</ele>
        <time>2022-08-11T14:55:39.438+02:00</time>
      </trkpt>
      <trkpt lat="45.33234" lon="-0.71759">
        <ele>52.5</ele>
        <time>2022-08-11T14:55:41.417+02:00</time>
      </trkpt>
      <trkpt lat="45.33224" lon="-0.71755">
        <ele>52.4</ele>
        <time>2022-08-11T14:55:43.427+02:00</time>
      </trkpt>
      <trkpt lat="45.33214" lon="-0.71751">
        <ele>52.7</ele>
        <time>2022-08-11T14:55:45.438+02:00</time>
      </trkpt>
      <trkpt lat="45.33204" lon="-0.71747">
        <ele>52.8</ele>
        <time>2022-08-11T14:55:47.437+02:00</time>
      </trkpt>
      <trkpt lat="45.33194" lon="-0.71743">
        <ele>52.9</ele>
        <time>2022-08-11T14:55:49.431+02:00</time>
      </trkpt>
      <trkpt lat="45.33184" lon="-0.71739">
        <ele>52.9</ele>
        <time>2022-08-11T14:55:51.423+02:00</time>
      </trkpt>
      <trkpt lat="45.33174" lon="-0.71736">
        <ele>52.7</ele>
        <time>2022-08-11T14:55:53.436+02:00</time>
      </trkpt>
      <trkpt lat="45.33165" lon="-0.71732">
        <ele>52.9</ele>
        <time>2022-08-11T14:55:55.425+02:00</time>
      </trkpt>
      <trkpt lat="45.33155" lon="-0.71729">
        <ele>53.1</ele>
        <time>2022-08-11T14:55:57.435+02:00</time>
      </trkpt>
      <trkpt lat="45.33146" lon="-0.71725">
        <ele>53</ele>
        <time>2022-08-11T14:55:59.422+02:00</time>
      </trkpt>
      <trkpt lat="45.33136" lon="-0.71722">
        <ele>53.1</ele>
        <time>2022-08-11T14:56:01.425+02:00</time>
      </trkpt>
      <trkpt lat="45.33127" lon="-0.71719">
        <ele>52.8</ele>
        <time>2022-08-11T14:56:03.434+02:00</time>
      </trkpt>
      <trkpt lat="45.33118" lon="-0.71716">
        <ele>52.5</ele>
        <time>2022-08-11T14:56:05.43+02:00</time>
      </trkpt>
      <trkpt lat="45.33109" lon="-0.71713">
        <ele>52.5</ele>
        <time>2022-08-11T14:56:07.441+02:00</time>
      </trkpt>
      <trkpt lat="45.33099" lon="-0.71709">
        <ele>52.7</ele>
        <time>2022-08-11T14:56:09.437+02:00</time>
      </trkpt>
      <trkpt lat="45.33089" lon="-0.71705">
        <ele>52.4</ele>
        <time>2022-08-11T14:56:11.42+02:00</time>
      </trkpt>
      <trkpt lat="45.33079" lon="-0.71701">
        <ele>52.4</ele>
        <time>2022-08-11T14:56:13.436+02:00</time>
      </trkpt>
      <trkpt lat="45.33069" lon="-0.71698">
        <ele>52.7</ele>
        <time>2022-08-11T14:56:15.429+02:00</time>
      </trkpt>
      <trkpt lat="45.33059" lon="-0.71693">
        <ele>52.4</ele>
        <time>2022-08-11T14:56:17.437+02:00</time>
      </trkpt>
      <trkpt lat="45.33049" lon="-0.71689">
        <ele>52.8</ele>
        <time>2022-08-11T14:56:19.441+02:00</time>
      </trkpt>
      <trkpt lat="45.33039" lon="-0.71686">
        <ele>52.6</ele>
        <time>2022-08-11T14:56:21.421+02:00</time>
      </trkpt>
      <trkpt lat="45.3303" lon="-0.71682">
        <ele>52.7</ele>
        <time>2022-08-11T14:56:23.431+02:00</time>
      </trkpt>
      <trkpt lat="45.3302" lon="-0.71679">
        <ele>52.5</ele>
        <time>2022-08-11T14:56:25.432+02:00</time>
      </trkpt>
      <trkpt lat="45.3301" lon="-0.71675">
        <ele>52.4</ele>
        <time>2022-08-11T14:56:27.44+02:00</time>
      </trkpt>
      <trkpt lat="45.33" lon="-0.71671">
        <ele>52.2</ele>
        <time>2022-08-11T14:56:29.442+02:00</time>
      </trkpt>
      <trkpt lat="45.3299" lon="-0.71667">
        <ele>52.2</ele>
        <time>2022-08-11T14:56:31.424+02:00</time>
      </trkpt>
      <trkpt lat="45.3298" lon="-0.71663">
        <ele>52.2</ele>
        <time>2022-08-11T14:56:33.436+02:00</time>
      </trkpt>
      <trkpt lat="45.32971" lon="-0.71659">
        <ele>52</ele>
        <time>2022-08-11T14:56:35.438+02:00</time>
      </trkpt>
      <trkpt lat="45.32961" lon="-0.71655">
        <ele>51.4</ele>
        <time>2022-08-11T14:56:37.41+02:00</time>
      </trkpt>
      <trkpt lat="45.32952" lon="-0.7165">
        <ele>51.3</ele>
        <time>2022-08-11T14:56:39.425+02:00</time>
      </trkpt>
      <trkpt lat="45.32942" lon="-0.71646">
        <ele>51.1</ele>
        <time>2022-08-11T14:56:41.415+02:00</time>
      </trkpt>
      <trkpt lat="45.32932" lon="-0.71642">
        <ele>51.5</ele>
        <time>2022-08-11T14:56:43.411+02:00</time>
      </trkpt>
      <trkpt lat="45.32924" lon="-0.71638">
        <ele>51.4</ele>
        <time>2022-08-11T14:56:45.456+02:00</time>
      </trkpt>
      <trkpt lat="45.32914" lon="-0.71634">
        <ele>51.8</ele>
        <time>2022-08-11T14:56:47.429+02:00</time>
      </trkpt>
      <trkpt lat="45.32904" lon="-0.71629">
        <ele>51.9</ele>
        <time>2022-08-11T14:56:49.419+02:00</time>
      </trkpt>
      <trkpt lat="45.32895" lon="-0.71626">
        <ele>51.9</ele>
        <time>2022-08-11T14:56:51.431+02:00</time>
      </trkpt>
      <trkpt lat="45.32883" lon="-0.7162">
        <ele>52.2</ele>
        <time>2022-08-11T14:56:54.43+02:00</time>
      </trkpt>
      <trkpt lat="45.32873" lon="-0.71615">
        <ele>53</ele>
        <time>2022-08-11T14:56:57.437+02:00</time>
      </trkpt>
      <trkpt lat="45.32864" lon="-0.71608">
        <ele>53</ele>
        <time>2022-08-11T14:57:00.438+02:00</time>
      </trkpt>
      <trkpt lat="45.32855" lon="-0.71603">
        <ele>52.9</ele>
        <time>2022-08-11T14:57:03.415+02:00</time>
      </trkpt>
      <trkpt lat="45.32846" lon="-0.71598">
        <ele>52.7</ele>
        <time>2022-08-11T14:57:06.45+02:00</time>
      </trkpt>
      <trkpt lat="45.32836" lon="-0.71593">
        <ele>52.2</ele>
        <time>2022-08-11T14:57:09.435+02:00</time>
      </trkpt>
      <trkpt lat="45.32825" lon="-0.71587">
        <ele>51.2</ele>
        <time>2022-08-11T14:57:12.427+02:00</time>
      </trkpt>
      <trkpt lat="45.32817" lon="-0.7158">
        <ele>50.8</ele>
        <time>2022-08-11T14:57:15.43+02:00</time>
      </trkpt>
      <trkpt lat="45.32817" lon="-0.71567">
        <ele>50.2</ele>
        <time>2022-08-11T14:57:19.43+02:00</time>
      </trkpt>
      <trkpt lat="45.32812" lon="-0.71564">
        <ele>50.1</ele>
        <time>2022-08-11T14:57:32.434+02:00</time>
      </trkpt>
      <trkpt lat="45.32812" lon="-0.71564">
        <ele>50.1</ele>
        <time>2022-08-11T14:57:33.421+02:00</time>
      </trkpt>
      <trkpt lat="45.32812" lon="-0.71564">
        <ele>50.6</ele>
        <time>2022-08-11T14:57:40.434+02:00</time>
      </trkpt>
      <trkpt lat="45.32812" lon="-0.71564">
        <ele>50.5</ele>
        <time>2022-08-11T14:57:41.425+02:00</time>
      </trkpt>
      <trkpt lat="45.32812" lon="-0.71564">
        <ele>50.4</ele>
        <time>2022-08-11T14:57:42.423+02:00</time>
      </trkpt>
      <trkpt lat="45.32812" lon="-0.71564">
        <ele>50.6</ele>
        <time>2022-08-11T14:57:43.435+02:00</time>
      </trkpt>
      <trkpt lat="45.32811" lon="-0.71564">
        <ele>51.1</ele>
        <time>2022-08-11T15:03:51.424+02:00</time>
      </trkpt>
      <trkpt lat="45.32811" lon="-0.71564">
        <ele>51.4</ele>
        <time>2022-08-11T15:03:52.435+02:00</time>
      </trkpt>
      <trkpt lat="45.32812" lon="-0.71564">
        <ele>51.7</ele>
        <time>2022-08-11T15:03:53.437+02:00</time>
      </trkpt>
      <trkpt lat="45.32813" lon="-0.71564">
        <ele>52.1</ele>
        <time>2022-08-11T15:05:31.412+02:00</time>
      </trkpt>
      <trkpt lat="45.32813" lon="-0.71564">
        <ele>52.1</ele>
        <time>2022-08-11T15:05:32.426+02:00</time>
      </trkpt>
      <trkpt lat="45.32813" lon="-0.71565">
        <ele>52.3</ele>
        <time>2022-08-11T15:05:33.44+02:00</time>
      </trkpt>
      <trkpt lat="45.32812" lon="-0.71566">
        <ele>52</ele>
        <time>2022-08-11T15:05:46.429+02:00</time>
      </trkpt>
      <trkpt lat="45.32812" lon="-0.71566">
        <ele>52</ele>
        <time>2022-08-11T15:05:47.421+02:00</time>
      </trkpt>
      <trkpt lat="45.32817" lon="-0.71554">
        <ele>51.2</ele>
        <time>2022-08-11T15:05:55.415+02:00</time>
      </trkpt>
      <trkpt lat="45.32819" lon="-0.71539">
        <ele>51.8</ele>
        <time>2022-08-11T15:05:59.41+02:00</time>
      </trkpt>
      <trkpt lat="45.32819" lon="-0.71522">
        <ele>51.4</ele>
        <time>2022-08-11T15:06:03.412+02:00</time>
      </trkpt>
      <trkpt lat="45.32819" lon="-0.71507">
        <ele>51.4</ele>
        <time>2022-08-11T15:06:07.417+02:00</time>
      </trkpt>
      <trkpt lat="45.32818" lon="-0.71493">
        <ele>52.2</ele>
        <time>2022-08-11T15:06:11.423+02:00</time>
      </trkpt>
      <trkpt lat="45.32818" lon="-0.71476">
        <ele>51.7</ele>
        <time>2022-08-11T15:06:15.434+02:00</time>
      </trkpt>
      <trkpt lat="45.32818" lon="-0.7146">
        <ele>51.2</ele>
        <time>2022-08-11T15:06:18.45+02:00</time>
      </trkpt>
      <trkpt lat="45.32819" lon="-0.71444">
        <ele>51</ele>
        <time>2022-08-11T15:06:21.42+02:00</time>
      </trkpt>
      <trkpt lat="45.32818" lon="-0.71429">
        <ele>51.1</ele>
        <time>2022-08-11T15:06:24.425+02:00</time>
      </trkpt>
      <trkpt lat="45.32818" lon="-0.71415">
        <ele>51.8</ele>
        <time>2022-08-11T15:06:27.429+02:00</time>
      </trkpt>
      <trkpt lat="45.32816" lon="-0.714">
        <ele>52.1</ele>
        <time>2022-08-11T15:06:30.435+02:00</time>
      </trkpt>
      <trkpt lat="45.32815" lon="-0.71383">
        <ele>51.8</ele>
        <time>2022-08-11T15:06:33.42+02:00</time>
      </trkpt>
      <trkpt lat="45.32813" lon="-0.71365">
        <ele>51.5</ele>
        <time>2022-08-11T15:06:36.429+02:00</time>
      </trkpt>
      <trkpt lat="45.32813" lon="-0.71352">
        <ele>51.2</ele>
        <time>2022-08-11T15:06:38.433+02:00</time>
      </trkpt>
      <trkpt lat="45.32812" lon="-0.71339">
        <ele>51.4</ele>
        <time>2022-08-11T15:06:40.434+02:00</time>
      </trkpt>
      <trkpt lat="45.32811" lon="-0.71325">
        <ele>51.4</ele>
        <time>2022-08-11T15:06:42.441+02:00</time>
      </trkpt>
      <trkpt lat="45.32809" lon="-0.71307">
        <ele>51.7</ele>
        <time>2022-08-11T15:06:45.433+02:00</time>
      </trkpt>
      <trkpt lat="45.32807" lon="-0.71289">
        <ele>52</ele>
        <time>2022-08-11T15:06:48.44+02:00</time>
      </trkpt>
      <trkpt lat="45.32806" lon="-0.7127">
        <ele>51.8</ele>
        <time>2022-08-11T15:06:51.417+02:00</time>
      </trkpt>
      <trkpt lat="45.32804" lon="-0.71258">
        <ele>51.6</ele>
        <time>2022-08-11T15:06:53.428+02:00</time>
      </trkpt>
      <trkpt lat="45.32803" lon="-0.71245">
        <ele>51.2</ele>
        <time>2022-08-11T15:06:55.426+02:00</time>
      </trkpt>
      <trkpt lat="45.32801" lon="-0.71232">
        <ele>50.6</ele>
        <time>2022-08-11T15:06:57.447+02:00</time>
      </trkpt>
      <trkpt lat="45.328" lon="-0.71219">
        <ele>50.5</ele>
        <time>2022-08-11T15:06:59.425+02:00</time>
      </trkpt>
      <trkpt lat="45.32798" lon="-0.71206">
        <ele>50.7</ele>
        <time>2022-08-11T15:07:01.417+02:00</time>
      </trkpt>
      <trkpt lat="45.32795" lon="-0.71193">
        <ele>51.1</ele>
        <time>2022-08-11T15:07:03.425+02:00</time>
      </trkpt>
      <trkpt lat="45.32793" lon="-0.71179">
        <ele>50.5</ele>
        <time>2022-08-11T15:07:05.435+02:00</time>
      </trkpt>
      <trkpt lat="45.3279" lon="-0.71166">
        <ele>50.8</ele>
        <time>2022-08-11T15:07:07.438+02:00</time>
      </trkpt>
      <trkpt lat="45.32788" lon="-0.71152">
        <ele>50.8</ele>
        <time>2022-08-11T15:07:09.435+02:00</time>
      </trkpt>
      <trkpt lat="45.32787" lon="-0.7114">
        <ele>50.1</ele>
        <time>2022-08-11T15:07:11.427+02:00</time>
      </trkpt>
      <trkpt lat="45.32784" lon="-0.71126">
        <ele>49.7</ele>
        <time>2022-08-11T15:07:13.452+02:00</time>
      </trkpt>
      <trkpt lat="45.32782" lon="-0.71112">
        <ele>49.5</ele>
        <time>2022-08-11T15:07:15.436+02:00</time>
      </trkpt>
      <trkpt lat="45.32781" lon="-0.71097">
        <ele>49.4</ele>
        <time>2022-08-11T15:07:17.434+02:00</time>
      </trkpt>
      <trkpt lat="45.32779" lon="-0.71083">
        <ele>49.6</ele>
        <time>2022-08-11T15:07:19.447+02:00</time>
      </trkpt>
      <trkpt lat="45.32778" lon="-0.71068">
        <ele>49.8</ele>
        <time>2022-08-11T15:07:21.417+02:00</time>
      </trkpt>
      <trkpt lat="45.32777" lon="-0.71052">
        <ele>49.7</ele>
        <time>2022-08-11T15:07:23.436+02:00</time>
      </trkpt>
      <trkpt lat="45.32776" lon="-0.71037">
        <ele>49.8</ele>
        <time>2022-08-11T15:07:25.434+02:00</time>
      </trkpt>
      <trkpt lat="45.32775" lon="-0.71021">
        <ele>50</ele>
        <time>2022-08-11T15:07:27.437+02:00</time>
      </trkpt>
      <trkpt lat="45.32775" lon="-0.71007">
        <ele>49.2</ele>
        <time>2022-08-11T15:07:29.436+02:00</time>
      </trkpt>
      <trkpt lat="45.32774" lon="-0.70993">
        <ele>48.6</ele>
        <time>2022-08-11T15:07:31.426+02:00</time>
      </trkpt>
      <trkpt lat="45.32774" lon="-0.70979">
        <ele>48.7</ele>
        <time>2022-08-11T15:07:33.433+02:00</time>
      </trkpt>
      <trkpt lat="45.32775" lon="-0.7096">
        <ele>47.1</ele>
        <time>2022-08-11T15:07:36.43+02:00</time>
      </trkpt>
      <trkpt lat="45.32774" lon="-0.70942">
        <ele>46.5</ele>
        <time>2022-08-11T15:07:39.41+02:00</time>
      </trkpt>
      <trkpt lat="45.32772" lon="-0.70927">
        <ele>47.8</ele>
        <time>2022-08-11T15:07:41.404+02:00</time>
      </trkpt>
      <trkpt lat="45.32772" lon="-0.70912">
        <ele>48.2</ele>
        <time>2022-08-11T15:07:43.427+02:00</time>
      </trkpt>
      <trkpt lat="45.32773" lon="-0.70898">
        <ele>47.6</ele>
        <time>2022-08-11T15:07:45.416+02:00</time>
      </trkpt>
      <trkpt lat="45.32774" lon="-0.70878">
        <ele>47.8</ele>
        <time>2022-08-11T15:07:48.438+02:00</time>
      </trkpt>
      <trkpt lat="45.32775" lon="-0.70863">
        <ele>52.7</ele>
        <time>2022-08-11T15:07:50.414+02:00</time>
      </trkpt>
      <trkpt lat="45.32776" lon="-0.7085">
        <ele>50.3</ele>
        <time>2022-08-11T15:07:52.423+02:00</time>
      </trkpt>
      <trkpt lat="45.32779" lon="-0.70836">
        <ele>49.2</ele>
        <time>2022-08-11T15:07:54.432+02:00</time>
      </trkpt>
      <trkpt lat="45.32781" lon="-0.70822">
        <ele>49.4</ele>
        <time>2022-08-11T15:07:56.429+02:00</time>
      </trkpt>
      <trkpt lat="45.32784" lon="-0.70809">
        <ele>49.6</ele>
        <time>2022-08-11T15:07:58.431+02:00</time>
      </trkpt>
      <trkpt lat="45.32787" lon="-0.70796">
        <ele>49.4</ele>
        <time>2022-08-11T15:08:00.427+02:00</time>
      </trkpt>
      <trkpt lat="45.32788" lon="-0.70782">
        <ele>49.9</ele>
        <time>2022-08-11T15:08:02.421+02:00</time>
      </trkpt>
      <trkpt lat="45.32786" lon="-0.70769">
        <ele>50.3</ele>
        <time>2022-08-11T15:08:04.427+02:00</time>
      </trkpt>
      <trkpt lat="45.32779" lon="-0.70758">
        <ele>49.6</ele>
        <time>2022-08-11T15:08:06.43+02:00</time>
      </trkpt>
      <trkpt lat="45.32769" lon="-0.70751">
        <ele>49.8</ele>
        <time>2022-08-11T15:08:08.414+02:00</time>
      </trkpt>
      <trkpt lat="45.32759" lon="-0.70746">
        <ele>49.7</ele>
        <time>2022-08-11T15:08:10.438+02:00</time>
      </trkpt>
      <trkpt lat="45.32749" lon="-0.7074">
        <ele>49.6</ele>
        <time>2022-08-11T15:08:12.422+02:00</time>
      </trkpt>
      <trkpt lat="45.3274" lon="-0.70735">
        <ele>49.3</ele>
        <time>2022-08-11T15:08:14.42+02:00</time>
      </trkpt>
      <trkpt lat="45.32729" lon="-0.70732">
        <ele>49.6</ele>
        <time>2022-08-11T15:08:16.426+02:00</time>
      </trkpt>
      <trkpt lat="45.32718" lon="-0.70733">
        <ele>49.9</ele>
        <time>2022-08-11T15:08:18.451+02:00</time>
      </trkpt>
      <trkpt lat="45.32709" lon="-0.70738">
        <ele>49.8</ele>
        <time>2022-08-11T15:08:20.419+02:00</time>
      </trkpt>
      <trkpt lat="45.327" lon="-0.70744">
        <ele>49.2</ele>
        <time>2022-08-11T15:08:22.42+02:00</time>
      </trkpt>
      <trkpt lat="45.32691" lon="-0.7075">
        <ele>49.8</ele>
        <time>2022-08-11T15:08:24.436+02:00</time>
      </trkpt>
      <trkpt lat="45.32683" lon="-0.70756">
        <ele>50</ele>
        <time>2022-08-11T15:08:26.438+02:00</time>
      </trkpt>
      <trkpt lat="45.32675" lon="-0.70761">
        <ele>49.7</ele>
        <time>2022-08-11T15:08:28.428+02:00</time>
      </trkpt>
      <trkpt lat="45.32662" lon="-0.70766">
        <ele>50</ele>
        <time>2022-08-11T15:08:31.418+02:00</time>
      </trkpt>
      <trkpt lat="45.32651" lon="-0.70763">
        <ele>49.8</ele>
        <time>2022-08-11T15:08:34.438+02:00</time>
      </trkpt>
      <trkpt lat="45.32643" lon="-0.70747">
        <ele>50.2</ele>
        <time>2022-08-11T15:08:37.422+02:00</time>
      </trkpt>
      <trkpt lat="45.32637" lon="-0.70736">
        <ele>50.1</ele>
        <time>2022-08-11T15:08:39.425+02:00</time>
      </trkpt>
      <trkpt lat="45.32631" lon="-0.70726">
        <ele>50.1</ele>
        <time>2022-08-11T15:08:41.411+02:00</time>
      </trkpt>
      <trkpt lat="45.32626" lon="-0.70715">
        <ele>50</ele>
        <time>2022-08-11T15:08:43.421+02:00</time>
      </trkpt>
      <trkpt lat="45.3262" lon="-0.70704">
        <ele>49.6</ele>
        <time>2022-08-11T15:08:45.417+02:00</time>
      </trkpt>
      <trkpt lat="45.32614" lon="-0.70694">
        <ele>49.4</ele>
        <time>2022-08-11T15:08:47.418+02:00</time>
      </trkpt>
      <trkpt lat="45.32608" lon="-0.70684">
        <ele>49.9</ele>
        <time>2022-08-11T15:08:49.421+02:00</time>
      </trkpt>
      <trkpt lat="45.32601" lon="-0.70674">
        <ele>50.5</ele>
        <time>2022-08-11T15:08:51.428+02:00</time>
      </trkpt>
      <trkpt lat="45.32595" lon="-0.70664">
        <ele>50.5</ele>
        <time>2022-08-11T15:08:53.44+02:00</time>
      </trkpt>
      <trkpt lat="45.32589" lon="-0.70653">
        <ele>50.6</ele>
        <time>2022-08-11T15:08:55.418+02:00</time>
      </trkpt>
      <trkpt lat="45.32583" lon="-0.70642">
        <ele>50.4</ele>
        <time>2022-08-11T15:08:57.423+02:00</time>
      </trkpt>
      <trkpt lat="45.32576" lon="-0.7063">
        <ele>50.6</ele>
        <time>2022-08-11T15:08:59.426+02:00</time>
      </trkpt>
      <trkpt lat="45.32571" lon="-0.70619">
        <ele>50.2</ele>
        <time>2022-08-11T15:09:01.427+02:00</time>
      </trkpt>
      <trkpt lat="45.32565" lon="-0.70608">
        <ele>50.1</ele>
        <time>2022-08-11T15:09:03.406+02:00</time>
      </trkpt>
      <trkpt lat="45.32558" lon="-0.70596">
        <ele>50.4</ele>
        <time>2022-08-11T15:09:05.41+02:00</time>
      </trkpt>
      <trkpt lat="45.32552" lon="-0.70584">
        <ele>49.9</ele>
        <time>2022-08-11T15:09:07.41+02:00</time>
      </trkpt>
      <trkpt lat="45.32545" lon="-0.70573">
        <ele>49.8</ele>
        <time>2022-08-11T15:09:09.407+02:00</time>
      </trkpt>
      <trkpt lat="45.3254" lon="-0.70561">
        <ele>49</ele>
        <time>2022-08-11T15:09:11.425+02:00</time>
      </trkpt>
      <trkpt lat="45.32534" lon="-0.70549">
        <ele>49.1</ele>
        <time>2022-08-11T15:09:13.438+02:00</time>
      </trkpt>
      <trkpt lat="45.32527" lon="-0.70537">
        <ele>49.2</ele>
        <time>2022-08-11T15:09:15.417+02:00</time>
      </trkpt>
      <trkpt lat="45.3252" lon="-0.70526">
        <ele>49</ele>
        <time>2022-08-11T15:09:17.418+02:00</time>
      </trkpt>
      <trkpt lat="45.32513" lon="-0.70515">
        <ele>49.4</ele>
        <time>2022-08-11T15:09:19.418+02:00</time>
      </trkpt>
      <trkpt lat="45.32506" lon="-0.70503">
        <ele>49</ele>
        <time>2022-08-11T15:09:21.422+02:00</time>
      </trkpt>
      <trkpt lat="45.32499" lon="-0.7049">
        <ele>49.4</ele>
        <time>2022-08-11T15:09:23.42+02:00</time>
      </trkpt>
      <trkpt lat="45.32492" lon="-0.70478">
        <ele>49.8</ele>
        <time>2022-08-11T15:09:25.425+02:00</time>
      </trkpt>
      <trkpt lat="45.32486" lon="-0.70465">
        <ele>50.1</ele>
        <time>2022-08-11T15:09:27.43+02:00</time>
      </trkpt>
      <trkpt lat="45.32479" lon="-0.70453">
        <ele>50.4</ele>
        <time>2022-08-11T15:09:29.417+02:00</time>
      </trkpt>
      <trkpt lat="45.32473" lon="-0.70441">
        <ele>50.7</ele>
        <time>2022-08-11T15:09:31.434+02:00</time>
      </trkpt>
      <trkpt lat="45.32466" lon="-0.7043">
        <ele>50.7</ele>
        <time>2022-08-11T15:09:33.429+02:00</time>
      </trkpt>
      <trkpt lat="45.3246" lon="-0.70418">
        <ele>50.7</ele>
        <time>2022-08-11T15:09:35.424+02:00</time>
      </trkpt>
      <trkpt lat="45.32453" lon="-0.70406">
        <ele>50.6</ele>
        <time>2022-08-11T15:09:37.423+02:00</time>
      </trkpt>
      <trkpt lat="45.32446" lon="-0.70393">
        <ele>50.5</ele>
        <time>2022-08-11T15:09:39.425+02:00</time>
      </trkpt>
      <trkpt lat="45.32439" lon="-0.70382">
        <ele>50.4</ele>
        <time>2022-08-11T15:09:41.413+02:00</time>
      </trkpt>
      <trkpt lat="45.32433" lon="-0.7037">
        <ele>50.2</ele>
        <time>2022-08-11T15:09:43.415+02:00</time>
      </trkpt>
      <trkpt lat="45.32427" lon="-0.70358">
        <ele>50</ele>
        <time>2022-08-11T15:09:45.41+02:00</time>
      </trkpt>
      <trkpt lat="45.3242" lon="-0.70348">
        <ele>50.1</ele>
        <time>2022-08-11T15:09:47.407+02:00</time>
      </trkpt>
      <trkpt lat="45.32415" lon="-0.70336">
        <ele>51</ele>
        <time>2022-08-11T15:09:49.423+02:00</time>
      </trkpt>
      <trkpt lat="45.32409" lon="-0.70326">
        <ele>50.3</ele>
        <time>2022-08-11T15:09:51.429+02:00</time>
      </trkpt>
      <trkpt lat="45.32403" lon="-0.70316">
        <ele>50.9</ele>
        <time>2022-08-11T15:09:53.411+02:00</time>
      </trkpt>
      <trkpt lat="45.32398" lon="-0.70305">
        <ele>50.8</ele>
        <time>2022-08-11T15:09:55.408+02:00</time>
      </trkpt>
      <trkpt lat="45.32392" lon="-0.70295">
        <ele>50.8</ele>
        <time>2022-08-11T15:09:57.417+02:00</time>
      </trkpt>
      <trkpt lat="45.32386" lon="-0.70284">
        <ele>50.8</ele>
        <time>2022-08-11T15:09:59.434+02:00</time>
      </trkpt>
      <trkpt lat="45.32379" lon="-0.70274">
        <ele>51</ele>
        <time>2022-08-11T15:10:01.428+02:00</time>
      </trkpt>
      <trkpt lat="45.32371" lon="-0.70267">
        <ele>51.3</ele>
        <time>2022-08-11T15:10:03.424+02:00</time>
      </trkpt>
      <trkpt lat="45.32364" lon="-0.70258">
        <ele>51.5</ele>
        <time>2022-08-11T15:10:05.433+02:00</time>
      </trkpt>
      <trkpt lat="45.32359" lon="-0.70247">
        <ele>50.9</ele>
        <time>2022-08-11T15:10:07.432+02:00</time>
      </trkpt>
      <trkpt lat="45.32353" lon="-0.70236">
        <ele>50.6</ele>
        <time>2022-08-11T15:10:09.435+02:00</time>
      </trkpt>
      <trkpt lat="45.32347" lon="-0.70225">
        <ele>50.9</ele>
        <time>2022-08-11T15:10:11.43+02:00</time>
      </trkpt>
      <trkpt lat="45.32341" lon="-0.70214">
        <ele>50.5</ele>
        <time>2022-08-11T15:10:13.417+02:00</time>
      </trkpt>
      <trkpt lat="45.32335" lon="-0.70202">
        <ele>50.3</ele>
        <time>2022-08-11T15:10:15.433+02:00</time>
      </trkpt>
      <trkpt lat="45.32329" lon="-0.7019">
        <ele>50.2</ele>
        <time>2022-08-11T15:10:17.431+02:00</time>
      </trkpt>
      <trkpt lat="45.32321" lon="-0.7018">
        <ele>50.1</ele>
        <time>2022-08-11T15:10:19.432+02:00</time>
      </trkpt>
      <trkpt lat="45.32315" lon="-0.70168">
        <ele>49.8</ele>
        <time>2022-08-11T15:10:21.421+02:00</time>
      </trkpt>
      <trkpt lat="45.32308" lon="-0.70157">
        <ele>49.5</ele>
        <time>2022-08-11T15:10:23.453+02:00</time>
      </trkpt>
      <trkpt lat="45.32301" lon="-0.70145">
        <ele>49.2</ele>
        <time>2022-08-11T15:10:25.432+02:00</time>
      </trkpt>
      <trkpt lat="45.32294" lon="-0.70133">
        <ele>49.3</ele>
        <time>2022-08-11T15:10:27.434+02:00</time>
      </trkpt>
      <trkpt lat="45.32288" lon="-0.70122">
        <ele>48.9</ele>
        <time>2022-08-11T15:10:29.434+02:00</time>
      </trkpt>
      <trkpt lat="45.32284" lon="-0.7011">
        <ele>48.7</ele>
        <time>2022-08-11T15:10:31.44+02:00</time>
      </trkpt>
      <trkpt lat="45.32278" lon="-0.70099">
        <ele>48.7</ele>
        <time>2022-08-11T15:10:33.429+02:00</time>
      </trkpt>
      <trkpt lat="45.32273" lon="-0.70088">
        <ele>48.8</ele>
        <time>2022-08-11T15:10:35.429+02:00</time>
      </trkpt>
      <trkpt lat="45.32263" lon="-0.70075">
        <ele>49.2</ele>
        <time>2022-08-11T15:10:38.426+02:00</time>
      </trkpt>
      <trkpt lat="45.32252" lon="-0.70066">
        <ele>49.2</ele>
        <time>2022-08-11T15:10:41.438+02:00</time>
      </trkpt>
      <trkpt lat="45.32242" lon="-0.70062">
        <ele>49.1</ele>
        <time>2022-08-11T15:10:43.43+02:00</time>
      </trkpt>
      <trkpt lat="45.32232" lon="-0.70059">
        <ele>49.5</ele>
        <time>2022-08-11T15:10:45.433+02:00</time>
      </trkpt>
      <trkpt lat="45.32222" lon="-0.70056">
        <ele>49.2</ele>
        <time>2022-08-11T15:10:47.43+02:00</time>
      </trkpt>
      <trkpt lat="45.32211" lon="-0.70053">
        <ele>49.3</ele>
        <time>2022-08-11T15:10:49.441+02:00</time>
      </trkpt>
      <trkpt lat="45.32201" lon="-0.70051">
        <ele>48.5</ele>
        <time>2022-08-11T15:10:51.434+02:00</time>
      </trkpt>
      <trkpt lat="45.3219" lon="-0.70049">
        <ele>48.6</ele>
        <time>2022-08-11T15:10:53.443+02:00</time>
      </trkpt>
      <trkpt lat="45.3218" lon="-0.70047">
        <ele>48.8</ele>
        <time>2022-08-11T15:10:55.422+02:00</time>
      </trkpt>
      <trkpt lat="45.3217" lon="-0.70045">
        <ele>51.7</ele>
        <time>2022-08-11T15:10:57.425+02:00</time>
      </trkpt>
      <trkpt lat="45.3216" lon="-0.70042">
        <ele>50.2</ele>
        <time>2022-08-11T15:10:59.44+02:00</time>
      </trkpt>
      <trkpt lat="45.3215" lon="-0.7004">
        <ele>49.8</ele>
        <time>2022-08-11T15:11:01.428+02:00</time>
      </trkpt>
      <trkpt lat="45.3214" lon="-0.70038">
        <ele>49.5</ele>
        <time>2022-08-11T15:11:03.426+02:00</time>
      </trkpt>
      <trkpt lat="45.32131" lon="-0.70036">
        <ele>49.3</ele>
        <time>2022-08-11T15:11:05.43+02:00</time>
      </trkpt>
      <trkpt lat="45.32122" lon="-0.70033">
        <ele>49.4</ele>
        <time>2022-08-11T15:11:07.441+02:00</time>
      </trkpt>
      <trkpt lat="45.32112" lon="-0.70031">
        <ele>49.5</ele>
        <time>2022-08-11T15:11:09.438+02:00</time>
      </trkpt>
      <trkpt lat="45.32103" lon="-0.70029">
        <ele>49.9</ele>
        <time>2022-08-11T15:11:11.429+02:00</time>
      </trkpt>
      <trkpt lat="45.32094" lon="-0.70027">
        <ele>50.1</ele>
        <time>2022-08-11T15:11:13.421+02:00</time>
      </trkpt>
      <trkpt lat="45.32084" lon="-0.70025">
        <ele>50.1</ele>
        <time>2022-08-11T15:11:15.421+02:00</time>
      </trkpt>
      <trkpt lat="45.32075" lon="-0.70023">
        <ele>50.4</ele>
        <time>2022-08-11T15:11:17.43+02:00</time>
      </trkpt>
      <trkpt lat="45.32065" lon="-0.70021">
        <ele>50.6</ele>
        <time>2022-08-11T15:11:19.428+02:00</time>
      </trkpt>
      <trkpt lat="45.32056" lon="-0.70019">
        <ele>50.2</ele>
        <time>2022-08-11T15:11:21.432+02:00</time>
      </trkpt>
      <trkpt lat="45.32047" lon="-0.70017">
        <ele>50.1</ele>
        <time>2022-08-11T15:11:23.441+02:00</time>
      </trkpt>
      <trkpt lat="45.32037" lon="-0.70015">
        <ele>49.9</ele>
        <time>2022-08-11T15:11:25.441+02:00</time>
      </trkpt>
      <trkpt lat="45.32025" lon="-0.7001">
        <ele>50.5</ele>
        <time>2022-08-11T15:11:28.419+02:00</time>
      </trkpt>
      <trkpt lat="45.32013" lon="-0.70002">
        <ele>50.6</ele>
        <time>2022-08-11T15:11:31.434+02:00</time>
      </trkpt>
      <trkpt lat="45.32005" lon="-0.69997">
        <ele>50.6</ele>
        <time>2022-08-11T15:11:33.434+02:00</time>
      </trkpt>
      <trkpt lat="45.31995" lon="-0.69993">
        <ele>50.6</ele>
        <time>2022-08-11T15:11:35.429+02:00</time>
      </trkpt>
      <trkpt lat="45.31986" lon="-0.6999">
        <ele>50.5</ele>
        <time>2022-08-11T15:11:37.429+02:00</time>
      </trkpt>
      <trkpt lat="45.31976" lon="-0.69987">
        <ele>50.2</ele>
        <time>2022-08-11T15:11:39.436+02:00</time>
      </trkpt>
      <trkpt lat="45.31966" lon="-0.69985">
        <ele>50.2</ele>
        <time>2022-08-11T15:11:41.441+02:00</time>
      </trkpt>
      <trkpt lat="45.31955" lon="-0.69981">
        <ele>50.5</ele>
        <time>2022-08-11T15:11:43.44+02:00</time>
      </trkpt>
      <trkpt lat="45.31945" lon="-0.6998">
        <ele>49.9</ele>
        <time>2022-08-11T15:11:45.434+02:00</time>
      </trkpt>
      <trkpt lat="45.31935" lon="-0.69977">
        <ele>49.8</ele>
        <time>2022-08-11T15:11:47.441+02:00</time>
      </trkpt>
      <trkpt lat="45.31925" lon="-0.69975">
        <ele>49.6</ele>
        <time>2022-08-11T15:11:49.42+02:00</time>
      </trkpt>
      <trkpt lat="45.31915" lon="-0.69974">
        <ele>49.4</ele>
        <time>2022-08-11T15:11:51.421+02:00</time>
      </trkpt>
      <trkpt lat="45.31905" lon="-0.69971">
        <ele>49.6</ele>
        <time>2022-08-11T15:11:53.434+02:00</time>
      </trkpt>
      <trkpt lat="45.31896" lon="-0.69969">
        <ele>49.6</ele>
        <time>2022-08-11T15:11:55.436+02:00</time>
      </trkpt>
      <trkpt lat="45.31885" lon="-0.69966">
        <ele>49.8</ele>
        <time>2022-08-11T15:11:57.424+02:00</time>
      </trkpt>
      <trkpt lat="45.31875" lon="-0.69964">
        <ele>50.3</ele>
        <time>2022-08-11T15:11:59.428+02:00</time>
      </trkpt>
      <trkpt lat="45.31865" lon="-0.69961">
        <ele>50</ele>
        <time>2022-08-11T15:12:01.425+02:00</time>
      </trkpt>
      <trkpt lat="45.31856" lon="-0.69959">
        <ele>49.8</ele>
        <time>2022-08-11T15:12:03.411+02:00</time>
      </trkpt>
      <trkpt lat="45.31846" lon="-0.69956">
        <ele>49.8</ele>
        <time>2022-08-11T15:12:05.404+02:00</time>
      </trkpt>
      <trkpt lat="45.31837" lon="-0.69954">
        <ele>49.9</ele>
        <time>2022-08-11T15:12:07.409+02:00</time>
      </trkpt>
      <trkpt lat="45.31824" lon="-0.69951">
        <ele>50.6</ele>
        <time>2022-08-11T15:12:10.424+02:00</time>
      </trkpt>
      <trkpt lat="45.31815" lon="-0.69955">
        <ele>49.5</ele>
        <time>2022-08-11T15:12:13.434+02:00</time>
      </trkpt>
      <trkpt lat="45.31812" lon="-0.69959">
        <ele>49</ele>
        <time>2022-08-11T15:12:17.429+02:00</time>
      </trkpt>
      <trkpt lat="45.31812" lon="-0.6996">
        <ele>48.8</ele>
        <time>2022-08-11T15:12:18.413+02:00</time>
      </trkpt>
      <trkpt lat="45.31812" lon="-0.6996">
        <ele>49.9</ele>
        <time>2022-08-11T15:12:32.418+02:00</time>
      </trkpt>
      <trkpt lat="45.31812" lon="-0.6996">
        <ele>49.5</ele>
        <time>2022-08-11T15:12:33.431+02:00</time>
      </trkpt>
      <trkpt lat="45.31809" lon="-0.69975">
        <ele>49.1</ele>
        <time>2022-08-11T15:12:38.428+02:00</time>
      </trkpt>
      <trkpt lat="45.31813" lon="-0.6999">
        <ele>49.1</ele>
        <time>2022-08-11T15:12:41.43+02:00</time>
      </trkpt>
      <trkpt lat="45.31818" lon="-0.70004">
        <ele>49.3</ele>
        <time>2022-08-11T15:12:44.424+02:00</time>
      </trkpt>
      <trkpt lat="45.31823" lon="-0.7002">
        <ele>49.4</ele>
        <time>2022-08-11T15:12:47.438+02:00</time>
      </trkpt>
      <trkpt lat="45.31826" lon="-0.70036">
        <ele>49.3</ele>
        <time>2022-08-11T15:12:50.434+02:00</time>
      </trkpt>
      <trkpt lat="45.3183" lon="-0.70052">
        <ele>49.4</ele>
        <time>2022-08-11T15:12:53.429+02:00</time>
      </trkpt>
      <trkpt lat="45.31835" lon="-0.70068">
        <ele>49.1</ele>
        <time>2022-08-11T15:12:56.425+02:00</time>
      </trkpt>
      <trkpt lat="45.31839" lon="-0.70085">
        <ele>49.3</ele>
        <time>2022-08-11T15:12:59.417+02:00</time>
      </trkpt>
      <trkpt lat="45.31843" lon="-0.70103">
        <ele>49.6</ele>
        <time>2022-08-11T15:13:02.433+02:00</time>
      </trkpt>
      <trkpt lat="45.31847" lon="-0.70121">
        <ele>49.8</ele>
        <time>2022-08-11T15:13:05.424+02:00</time>
      </trkpt>
      <trkpt lat="45.31851" lon="-0.70138">
        <ele>49.9</ele>
        <time>2022-08-11T15:13:08.436+02:00</time>
      </trkpt>
      <trkpt lat="45.31855" lon="-0.70155">
        <ele>49.5</ele>
        <time>2022-08-11T15:13:11.447+02:00</time>
      </trkpt>
      <trkpt lat="45.3186" lon="-0.70172">
        <ele>50.1</ele>
        <time>2022-08-11T15:13:14.427+02:00</time>
      </trkpt>
      <trkpt lat="45.31863" lon="-0.70185">
        <ele>49.9</ele>
        <time>2022-08-11T15:13:16.433+02:00</time>
      </trkpt>
      <trkpt lat="45.31867" lon="-0.70203">
        <ele>49.9</ele>
        <time>2022-08-11T15:13:19.428+02:00</time>
      </trkpt>
      <trkpt lat="45.31871" lon="-0.7022">
        <ele>49.7</ele>
        <time>2022-08-11T15:13:22.415+02:00</time>
      </trkpt>
      <trkpt lat="45.31875" lon="-0.70238">
        <ele>49.5</ele>
        <time>2022-08-11T15:13:25.425+02:00</time>
      </trkpt>
      <trkpt lat="45.31879" lon="-0.70256">
        <ele>49.1</ele>
        <time>2022-08-11T15:13:28.434+02:00</time>
      </trkpt>
      <trkpt lat="45.31883" lon="-0.70273">
        <ele>48.9</ele>
        <time>2022-08-11T15:13:31.425+02:00</time>
      </trkpt>
      <trkpt lat="45.31887" lon="-0.70291">
        <ele>49.2</ele>
        <time>2022-08-11T15:13:34.438+02:00</time>
      </trkpt>
      <trkpt lat="45.31891" lon="-0.70309">
        <ele>49.3</ele>
        <time>2022-08-11T15:13:37.431+02:00</time>
      </trkpt>
      <trkpt lat="45.31895" lon="-0.70326">
        <ele>48.7</ele>
        <time>2022-08-11T15:13:40.424+02:00</time>
      </trkpt>
      <trkpt lat="45.31899" lon="-0.70344">
        <ele>48.6</ele>
        <time>2022-08-11T15:13:43.425+02:00</time>
      </trkpt>
      <trkpt lat="45.31902" lon="-0.70356">
        <ele>48.5</ele>
        <time>2022-08-11T15:13:45.434+02:00</time>
      </trkpt>
      <trkpt lat="45.31906" lon="-0.70373">
        <ele>48.2</ele>
        <time>2022-08-11T15:13:48.431+02:00</time>
      </trkpt>
      <trkpt lat="45.31909" lon="-0.70391">
        <ele>48.6</ele>
        <time>2022-08-11T15:13:51.445+02:00</time>
      </trkpt>
      <trkpt lat="45.31914" lon="-0.70408">
        <ele>48.9</ele>
        <time>2022-08-11T15:13:54.42+02:00</time>
      </trkpt>
      <trkpt lat="45.31918" lon="-0.70426">
        <ele>48.8</ele>
        <time>2022-08-11T15:13:57.44+02:00</time>
      </trkpt>
      <trkpt lat="45.31922" lon="-0.70443">
        <ele>48.7</ele>
        <time>2022-08-11T15:14:00.433+02:00</time>
      </trkpt>
      <trkpt lat="45.31926" lon="-0.70461">
        <ele>48.3</ele>
        <time>2022-08-11T15:14:03.425+02:00</time>
      </trkpt>
      <trkpt lat="45.3193" lon="-0.70477">
        <ele>48.4</ele>
        <time>2022-08-11T15:14:06.429+02:00</time>
      </trkpt>
      <trkpt lat="45.31934" lon="-0.70494">
        <ele>48.3</ele>
        <time>2022-08-11T15:14:09.417+02:00</time>
      </trkpt>
      <trkpt lat="45.31939" lon="-0.70511">
        <ele>48.5</ele>
        <time>2022-08-11T15:14:12.42+02:00</time>
      </trkpt>
      <trkpt lat="45.31942" lon="-0.70528">
        <ele>48.5</ele>
        <time>2022-08-11T15:14:15.424+02:00</time>
      </trkpt>
      <trkpt lat="45.31947" lon="-0.70545">
        <ele>48.5</ele>
        <time>2022-08-11T15:14:18.429+02:00</time>
      </trkpt>
      <trkpt lat="45.31951" lon="-0.70563">
        <ele>49</ele>
        <time>2022-08-11T15:14:21.435+02:00</time>
      </trkpt>
      <trkpt lat="45.31955" lon="-0.70581">
        <ele>48.6</ele>
        <time>2022-08-11T15:14:24.426+02:00</time>
      </trkpt>
      <trkpt lat="45.31959" lon="-0.70598">
        <ele>48.4</ele>
        <time>2022-08-11T15:14:27.429+02:00</time>
      </trkpt>
      <trkpt lat="45.31964" lon="-0.70615">
        <ele>48.5</ele>
        <time>2022-08-11T15:14:30.423+02:00</time>
      </trkpt>
      <trkpt lat="45.31968" lon="-0.70631">
        <ele>48.7</ele>
        <time>2022-08-11T15:14:33.433+02:00</time>
      </trkpt>
      <trkpt lat="45.31972" lon="-0.70648">
        <ele>48.6</ele>
        <time>2022-08-11T15:14:36.427+02:00</time>
      </trkpt>
      <trkpt lat="45.31977" lon="-0.70665">
        <ele>48.7</ele>
        <time>2022-08-11T15:14:39.433+02:00</time>
      </trkpt>
      <trkpt lat="45.31981" lon="-0.70682">
        <ele>49</ele>
        <time>2022-08-11T15:14:42.415+02:00</time>
      </trkpt>
      <trkpt lat="45.31985" lon="-0.70698">
        <ele>48.6</ele>
        <time>2022-08-11T15:14:45.426+02:00</time>
      </trkpt>
      <trkpt lat="45.31983" lon="-0.70715">
        <ele>51</ele>
        <time>2022-08-11T15:14:48.429+02:00</time>
      </trkpt>
      <trkpt lat="45.31975" lon="-0.70725">
        <ele>49.4</ele>
        <time>2022-08-11T15:14:51.427+02:00</time>
      </trkpt>
      <trkpt lat="45.31966" lon="-0.70734">
        <ele>48.6</ele>
        <time>2022-08-11T15:14:54.433+02:00</time>
      </trkpt>
      <trkpt lat="45.31964" lon="-0.70751">
        <ele>48.6</ele>
        <time>2022-08-11T15:14:57.437+02:00</time>
      </trkpt>
      <trkpt lat="45.31967" lon="-0.7077">
        <ele>48.5</ele>
        <time>2022-08-11T15:15:00.417+02:00</time>
      </trkpt>
      <trkpt lat="45.3197" lon="-0.70783">
        <ele>48.4</ele>
        <time>2022-08-11T15:15:02.42+02:00</time>
      </trkpt>
      <trkpt lat="45.31974" lon="-0.70795">
        <ele>48.9</ele>
        <time>2022-08-11T15:15:04.428+02:00</time>
      </trkpt>
      <trkpt lat="45.31978" lon="-0.70808">
        <ele>49.2</ele>
        <time>2022-08-11T15:15:06.435+02:00</time>
      </trkpt>
      <trkpt lat="45.31982" lon="-0.70826">
        <ele>49.2</ele>
        <time>2022-08-11T15:15:09.431+02:00</time>
      </trkpt>
      <trkpt lat="45.31984" lon="-0.7084">
        <ele>49.2</ele>
        <time>2022-08-11T15:15:11.426+02:00</time>
      </trkpt>
      <trkpt lat="45.31983" lon="-0.70854">
        <ele>49.5</ele>
        <time>2022-08-11T15:15:13.422+02:00</time>
      </trkpt>
      <trkpt lat="45.31982" lon="-0.70867">
        <ele>49.5</ele>
        <time>2022-08-11T15:15:15.427+02:00</time>
      </trkpt>
      <trkpt lat="45.3198" lon="-0.7088">
        <ele>49.5</ele>
        <time>2022-08-11T15:15:17.427+02:00</time>
      </trkpt>
      <trkpt lat="45.31979" lon="-0.70893">
        <ele>49.2</ele>
        <time>2022-08-11T15:15:19.422+02:00</time>
      </trkpt>
      <trkpt lat="45.3198" lon="-0.7091">
        <ele>49</ele>
        <time>2022-08-11T15:15:22.424+02:00</time>
      </trkpt>
      <trkpt lat="45.31987" lon="-0.70924">
        <ele>50.7</ele>
        <time>2022-08-11T15:15:25.425+02:00</time>
      </trkpt>
      <trkpt lat="45.31993" lon="-0.7094">
        <ele>50.3</ele>
        <time>2022-08-11T15:15:28.429+02:00</time>
      </trkpt>
      <trkpt lat="45.31989" lon="-0.70957">
        <ele>50.1</ele>
        <time>2022-08-11T15:15:31.421+02:00</time>
      </trkpt>
      <trkpt lat="45.3198" lon="-0.70962">
        <ele>49.5</ele>
        <time>2022-08-11T15:15:34.43+02:00</time>
      </trkpt>
      <trkpt lat="45.31969" lon="-0.70957">
        <ele>49.9</ele>
        <time>2022-08-11T15:15:37.434+02:00</time>
      </trkpt>
      <trkpt lat="45.31959" lon="-0.70945">
        <ele>50.2</ele>
        <time>2022-08-11T15:15:40.432+02:00</time>
      </trkpt>
      <trkpt lat="45.31954" lon="-0.70931">
        <ele>50.4</ele>
        <time>2022-08-11T15:15:42.424+02:00</time>
      </trkpt>
      <trkpt lat="45.31945" lon="-0.70915">
        <ele>50.8</ele>
        <time>2022-08-11T15:15:45.452+02:00</time>
      </trkpt>
      <trkpt lat="45.31939" lon="-0.70905">
        <ele>51.1</ele>
        <time>2022-08-11T15:15:47.424+02:00</time>
      </trkpt>
      <trkpt lat="45.31932" lon="-0.70894">
        <ele>50.8</ele>
        <time>2022-08-11T15:15:49.439+02:00</time>
      </trkpt>
      <trkpt lat="45.31925" lon="-0.70883">
        <ele>50.4</ele>
        <time>2022-08-11T15:15:51.425+02:00</time>
      </trkpt>
      <trkpt lat="45.31918" lon="-0.70872">
        <ele>50.4</ele>
        <time>2022-08-11T15:15:53.423+02:00</time>
      </trkpt>
      <trkpt lat="45.31912" lon="-0.70862">
        <ele>50.5</ele>
        <time>2022-08-11T15:15:55.416+02:00</time>
      </trkpt>
      <trkpt lat="45.31906" lon="-0.70853">
        <ele>50.2</ele>
        <time>2022-08-11T15:15:57.431+02:00</time>
      </trkpt>
      <trkpt lat="45.319" lon="-0.70843">
        <ele>50.3</ele>
        <time>2022-08-11T15:15:59.426+02:00</time>
      </trkpt>
      <trkpt lat="45.31893" lon="-0.70831">
        <ele>50.2</ele>
        <time>2022-08-11T15:16:01.424+02:00</time>
      </trkpt>
      <trkpt lat="45.31886" lon="-0.7082">
        <ele>50.6</ele>
        <time>2022-08-11T15:16:03.422+02:00</time>
      </trkpt>
      <trkpt lat="45.31879" lon="-0.7081">
        <ele>50.5</ele>
        <time>2022-08-11T15:16:05.43+02:00</time>
      </trkpt>
      <trkpt lat="45.31873" lon="-0.708">
        <ele>50.6</ele>
        <time>2022-08-11T15:16:07.426+02:00</time>
      </trkpt>
      <trkpt lat="45.31866" lon="-0.7079">
        <ele>50.5</ele>
        <time>2022-08-11T15:16:09.422+02:00</time>
      </trkpt>
      <trkpt lat="45.3186" lon="-0.7078">
        <ele>49.9</ele>
        <time>2022-08-11T15:16:11.432+02:00</time>
      </trkpt>
      <trkpt lat="45.31854" lon="-0.70769">
        <ele>49.9</ele>
        <time>2022-08-11T15:16:13.437+02:00</time>
      </trkpt>
      <trkpt lat="45.31847" lon="-0.70758">
        <ele>49.9</ele>
        <time>2022-08-11T15:16:15.423+02:00</time>
      </trkpt>
      <trkpt lat="45.3184" lon="-0.70746">
        <ele>49.6</ele>
        <time>2022-08-11T15:16:17.429+02:00</time>
      </trkpt>
      <trkpt lat="45.31833" lon="-0.70734">
        <ele>49.9</ele>
        <time>2022-08-11T15:16:19.449+02:00</time>
      </trkpt>
      <trkpt lat="45.31826" lon="-0.70722">
        <ele>49.3</ele>
        <time>2022-08-11T15:16:21.423+02:00</time>
      </trkpt>
      <trkpt lat="45.31819" lon="-0.70711">
        <ele>48.9</ele>
        <time>2022-08-11T15:16:23.41+02:00</time>
      </trkpt>
      <trkpt lat="45.31812" lon="-0.707">
        <ele>48.9</ele>
        <time>2022-08-11T15:16:25.405+02:00</time>
      </trkpt>
      <trkpt lat="45.31805" lon="-0.7069">
        <ele>48.8</ele>
        <time>2022-08-11T15:16:27.409+02:00</time>
      </trkpt>
      <trkpt lat="45.31798" lon="-0.70682">
        <ele>48.2</ele>
        <time>2022-08-11T15:16:29.41+02:00</time>
      </trkpt>
      <trkpt lat="45.31792" lon="-0.70671">
        <ele>47.8</ele>
        <time>2022-08-11T15:16:31.409+02:00</time>
      </trkpt>
      <trkpt lat="45.31785" lon="-0.70662">
        <ele>47.6</ele>
        <time>2022-08-11T15:16:33.412+02:00</time>
      </trkpt>
      <trkpt lat="45.31778" lon="-0.7065">
        <ele>47.7</ele>
        <time>2022-08-11T15:16:35.403+02:00</time>
      </trkpt>
      <trkpt lat="45.3177" lon="-0.70639">
        <ele>47.6</ele>
        <time>2022-08-11T15:16:37.409+02:00</time>
      </trkpt>
      <trkpt lat="45.31764" lon="-0.70626">
        <ele>47.8</ele>
        <time>2022-08-11T15:16:39.414+02:00</time>
      </trkpt>
      <trkpt lat="45.31756" lon="-0.70615">
        <ele>49.5</ele>
        <time>2022-08-11T15:16:41.42+02:00</time>
      </trkpt>
      <trkpt lat="45.31748" lon="-0.70603">
        <ele>50.2</ele>
        <time>2022-08-11T15:16:43.417+02:00</time>
      </trkpt>
      <trkpt lat="45.3174" lon="-0.7059">
        <ele>51.4</ele>
        <time>2022-08-11T15:16:45.417+02:00</time>
      </trkpt>
      <trkpt lat="45.31733" lon="-0.70579">
        <ele>51.2</ele>
        <time>2022-08-11T15:16:47.415+02:00</time>
      </trkpt>
      <trkpt lat="45.31725" lon="-0.70567">
        <ele>52</ele>
        <time>2022-08-11T15:16:49.415+02:00</time>
      </trkpt>
      <trkpt lat="45.31719" lon="-0.70556">
        <ele>50.6</ele>
        <time>2022-08-11T15:16:51.423+02:00</time>
      </trkpt>
      <trkpt lat="45.31711" lon="-0.70544">
        <ele>51.1</ele>
        <time>2022-08-11T15:16:53.411+02:00</time>
      </trkpt>
      <trkpt lat="45.31702" lon="-0.70534">
        <ele>51.4</ele>
        <time>2022-08-11T15:16:55.409+02:00</time>
      </trkpt>
      <trkpt lat="45.31695" lon="-0.70522">
        <ele>52.4</ele>
        <time>2022-08-11T15:16:57.411+02:00</time>
      </trkpt>
      <trkpt lat="45.31686" lon="-0.7051">
        <ele>52.1</ele>
        <time>2022-08-11T15:16:59.416+02:00</time>
      </trkpt>
      <trkpt lat="45.31676" lon="-0.70496">
        <ele>51.5</ele>
        <time>2022-08-11T15:17:02.42+02:00</time>
      </trkpt>
      <trkpt lat="45.31669" lon="-0.70485">
        <ele>50.4</ele>
        <time>2022-08-11T15:17:04.406+02:00</time>
      </trkpt>
      <trkpt lat="45.31661" lon="-0.70472">
        <ele>50.1</ele>
        <time>2022-08-11T15:17:06.404+02:00</time>
      </trkpt>
      <trkpt lat="45.31653" lon="-0.70462">
        <ele>49.9</ele>
        <time>2022-08-11T15:17:08.427+02:00</time>
      </trkpt>
      <trkpt lat="45.31646" lon="-0.70451">
        <ele>50.2</ele>
        <time>2022-08-11T15:17:10.425+02:00</time>
      </trkpt>
      <trkpt lat="45.31639" lon="-0.70439">
        <ele>50.2</ele>
        <time>2022-08-11T15:17:12.402+02:00</time>
      </trkpt>
      <trkpt lat="45.31631" lon="-0.70428">
        <ele>50.1</ele>
        <time>2022-08-11T15:17:14.405+02:00</time>
      </trkpt>
      <trkpt lat="45.31621" lon="-0.70411">
        <ele>48.8</ele>
        <time>2022-08-11T15:17:17.42+02:00</time>
      </trkpt>
      <trkpt lat="45.31614" lon="-0.70399">
        <ele>49.1</ele>
        <time>2022-08-11T15:17:19.414+02:00</time>
      </trkpt>
      <trkpt lat="45.31607" lon="-0.70387">
        <ele>49.3</ele>
        <time>2022-08-11T15:17:21.414+02:00</time>
      </trkpt>
      <trkpt lat="45.316" lon="-0.70376">
        <ele>49.4</ele>
        <time>2022-08-11T15:17:23.418+02:00</time>
      </trkpt>
      <trkpt lat="45.31592" lon="-0.70365">
        <ele>49.9</ele>
        <time>2022-08-11T15:17:25.418+02:00</time>
      </trkpt>
      <trkpt lat="45.31584" lon="-0.70353">
        <ele>49.8</ele>
        <time>2022-08-11T15:17:27.419+02:00</time>
      </trkpt>
      <trkpt lat="45.31577" lon="-0.70343">
        <ele>49.8</ele>
        <time>2022-08-11T15:17:29.411+02:00</time>
      </trkpt>
      <trkpt lat="45.31571" lon="-0.7033">
        <ele>49.9</ele>
        <time>2022-08-11T15:17:31.413+02:00</time>
      </trkpt>
      <trkpt lat="45.31563" lon="-0.70319">
        <ele>49.6</ele>
        <time>2022-08-11T15:17:33.42+02:00</time>
      </trkpt>
      <trkpt lat="45.31555" lon="-0.70308">
        <ele>50</ele>
        <time>2022-08-11T15:17:35.422+02:00</time>
      </trkpt>
      <trkpt lat="45.31547" lon="-0.70295">
        <ele>50.2</ele>
        <time>2022-08-11T15:17:37.425+02:00</time>
      </trkpt>
      <trkpt lat="45.3154" lon="-0.70283">
        <ele>49.8</ele>
        <time>2022-08-11T15:17:39.436+02:00</time>
      </trkpt>
      <trkpt lat="45.31533" lon="-0.70272">
        <ele>50.3</ele>
        <time>2022-08-11T15:17:41.437+02:00</time>
      </trkpt>
      <trkpt lat="45.31525" lon="-0.7026">
        <ele>50.3</ele>
        <time>2022-08-11T15:17:43.444+02:00</time>
      </trkpt>
      <trkpt lat="45.31516" lon="-0.70249">
        <ele>50.3</ele>
        <time>2022-08-11T15:17:45.435+02:00</time>
      </trkpt>
      <trkpt lat="45.31509" lon="-0.70236">
        <ele>50.4</ele>
        <time>2022-08-11T15:17:47.42+02:00</time>
      </trkpt>
      <trkpt lat="45.315" lon="-0.70225">
        <ele>50.3</ele>
        <time>2022-08-11T15:17:49.43+02:00</time>
      </trkpt>
      <trkpt lat="45.31493" lon="-0.70211">
        <ele>50.1</ele>
        <time>2022-08-11T15:17:51.425+02:00</time>
      </trkpt>
      <trkpt lat="45.31485" lon="-0.70199">
        <ele>49.7</ele>
        <time>2022-08-11T15:17:53.424+02:00</time>
      </trkpt>
      <trkpt lat="45.31477" lon="-0.70187">
        <ele>49.8</ele>
        <time>2022-08-11T15:17:55.422+02:00</time>
      </trkpt>
      <trkpt lat="45.31469" lon="-0.70175">
        <ele>50</ele>
        <time>2022-08-11T15:17:57.42+02:00</time>
      </trkpt>
      <trkpt lat="45.31461" lon="-0.70163">
        <ele>50</ele>
        <time>2022-08-11T15:17:59.438+02:00</time>
      </trkpt>
      <trkpt lat="45.31453" lon="-0.70151">
        <ele>50.3</ele>
        <time>2022-08-11T15:18:01.43+02:00</time>
      </trkpt>
      <trkpt lat="45.31446" lon="-0.7014">
        <ele>50.2</ele>
        <time>2022-08-11T15:18:03.425+02:00</time>
      </trkpt>
      <trkpt lat="45.31438" lon="-0.70128">
        <ele>50.1</ele>
        <time>2022-08-11T15:18:05.427+02:00</time>
      </trkpt>
      <trkpt lat="45.3143" lon="-0.70116">
        <ele>49.9</ele>
        <time>2022-08-11T15:18:07.431+02:00</time>
      </trkpt>
      <trkpt lat="45.31422" lon="-0.70104">
        <ele>49.9</ele>
        <time>2022-08-11T15:18:09.436+02:00</time>
      </trkpt>
      <trkpt lat="45.31415" lon="-0.70091">
        <ele>49.9</ele>
        <time>2022-08-11T15:18:11.434+02:00</time>
      </trkpt>
      <trkpt lat="45.31407" lon="-0.70079">
        <ele>50</ele>
        <time>2022-08-11T15:18:13.425+02:00</time>
      </trkpt>
      <trkpt lat="45.31399" lon="-0.70067">
        <ele>50.3</ele>
        <time>2022-08-11T15:18:15.428+02:00</time>
      </trkpt>
      <trkpt lat="45.31391" lon="-0.70055">
        <ele>50.2</ele>
        <time>2022-08-11T15:18:17.443+02:00</time>
      </trkpt>
      <trkpt lat="45.31383" lon="-0.70043">
        <ele>49.9</ele>
        <time>2022-08-11T15:18:19.439+02:00</time>
      </trkpt>
      <trkpt lat="45.31376" lon="-0.7003">
        <ele>50.1</ele>
        <time>2022-08-11T15:18:21.44+02:00</time>
      </trkpt>
      <trkpt lat="45.31368" lon="-0.70019">
        <ele>50.3</ele>
        <time>2022-08-11T15:18:23.424+02:00</time>
      </trkpt>
      <trkpt lat="45.3136" lon="-0.70007">
        <ele>50.2</ele>
        <time>2022-08-11T15:18:25.426+02:00</time>
      </trkpt>
      <trkpt lat="45.31353" lon="-0.69994">
        <ele>50.2</ele>
        <time>2022-08-11T15:18:27.433+02:00</time>
      </trkpt>
      <trkpt lat="45.31345" lon="-0.69982">
        <ele>50.3</ele>
        <time>2022-08-11T15:18:29.419+02:00</time>
      </trkpt>
      <trkpt lat="45.31337" lon="-0.69971">
        <ele>50.5</ele>
        <time>2022-08-11T15:18:31.433+02:00</time>
      </trkpt>
      <trkpt lat="45.31329" lon="-0.69958">
        <ele>50.3</ele>
        <time>2022-08-11T15:18:33.439+02:00</time>
      </trkpt>
      <trkpt lat="45.3132" lon="-0.69946">
        <ele>50.2</ele>
        <time>2022-08-11T15:18:35.423+02:00</time>
      </trkpt>
      <trkpt lat="45.31312" lon="-0.69934">
        <ele>50.2</ele>
        <time>2022-08-11T15:18:37.423+02:00</time>
      </trkpt>
      <trkpt lat="45.31305" lon="-0.69922">
        <ele>50</ele>
        <time>2022-08-11T15:18:39.432+02:00</time>
      </trkpt>
      <trkpt lat="45.31297" lon="-0.6991">
        <ele>49.8</ele>
        <time>2022-08-11T15:18:41.424+02:00</time>
      </trkpt>
      <trkpt lat="45.3129" lon="-0.69898">
        <ele>50.1</ele>
        <time>2022-08-11T15:18:43.427+02:00</time>
      </trkpt>
      <trkpt lat="45.31282" lon="-0.69886">
        <ele>50</ele>
        <time>2022-08-11T15:18:45.438+02:00</time>
      </trkpt>
      <trkpt lat="45.31274" lon="-0.69874">
        <ele>50</ele>
        <time>2022-08-11T15:18:47.439+02:00</time>
      </trkpt>
      <trkpt lat="45.31267" lon="-0.69861">
        <ele>49.7</ele>
        <time>2022-08-11T15:18:49.428+02:00</time>
      </trkpt>
      <trkpt lat="45.31259" lon="-0.69849">
        <ele>49.5</ele>
        <time>2022-08-11T15:18:51.42+02:00</time>
      </trkpt>
      <trkpt lat="45.31251" lon="-0.69836">
        <ele>49.2</ele>
        <time>2022-08-11T15:18:53.441+02:00</time>
      </trkpt>
      <trkpt lat="45.31243" lon="-0.69824">
        <ele>49.1</ele>
        <time>2022-08-11T15:18:55.427+02:00</time>
      </trkpt>
      <trkpt lat="45.31235" lon="-0.69812">
        <ele>49</ele>
        <time>2022-08-11T15:18:57.435+02:00</time>
      </trkpt>
      <trkpt lat="45.31227" lon="-0.698">
        <ele>48.9</ele>
        <time>2022-08-11T15:18:59.424+02:00</time>
      </trkpt>
      <trkpt lat="45.31219" lon="-0.69787">
        <ele>48.7</ele>
        <time>2022-08-11T15:19:01.425+02:00</time>
      </trkpt>
      <trkpt lat="45.3121" lon="-0.69775">
        <ele>48.7</ele>
        <time>2022-08-11T15:19:03.424+02:00</time>
      </trkpt>
      <trkpt lat="45.31202" lon="-0.69762">
        <ele>49</ele>
        <time>2022-08-11T15:19:05.44+02:00</time>
      </trkpt>
      <trkpt lat="45.31194" lon="-0.69751">
        <ele>49</ele>
        <time>2022-08-11T15:19:07.405+02:00</time>
      </trkpt>
      <trkpt lat="45.31187" lon="-0.69739">
        <ele>48.8</ele>
        <time>2022-08-11T15:19:09.428+02:00</time>
      </trkpt>
      <trkpt lat="45.31179" lon="-0.69728">
        <ele>49</ele>
        <time>2022-08-11T15:19:11.425+02:00</time>
      </trkpt>
      <trkpt lat="45.31171" lon="-0.69716">
        <ele>48.9</ele>
        <time>2022-08-11T15:19:13.429+02:00</time>
      </trkpt>
      <trkpt lat="45.31164" lon="-0.69704">
        <ele>49</ele>
        <time>2022-08-11T15:19:15.423+02:00</time>
      </trkpt>
      <trkpt lat="45.31156" lon="-0.69692">
        <ele>49.2</ele>
        <time>2022-08-11T15:19:17.444+02:00</time>
      </trkpt>
      <trkpt lat="45.31148" lon="-0.6968">
        <ele>49.2</ele>
        <time>2022-08-11T15:19:19.426+02:00</time>
      </trkpt>
      <trkpt lat="45.31139" lon="-0.69667">
        <ele>49.3</ele>
        <time>2022-08-11T15:19:21.434+02:00</time>
      </trkpt>
      <trkpt lat="45.31132" lon="-0.69655">
        <ele>49.3</ele>
        <time>2022-08-11T15:19:23.424+02:00</time>
      </trkpt>
      <trkpt lat="45.31124" lon="-0.69643">
        <ele>49.1</ele>
        <time>2022-08-11T15:19:25.445+02:00</time>
      </trkpt>
      <trkpt lat="45.31116" lon="-0.6963">
        <ele>49</ele>
        <time>2022-08-11T15:19:27.429+02:00</time>
      </trkpt>
      <trkpt lat="45.31108" lon="-0.69618">
        <ele>49</ele>
        <time>2022-08-11T15:19:29.434+02:00</time>
      </trkpt>
      <trkpt lat="45.311" lon="-0.69606">
        <ele>48.8</ele>
        <time>2022-08-11T15:19:31.428+02:00</time>
      </trkpt>
      <trkpt lat="45.31092" lon="-0.69594">
        <ele>48.8</ele>
        <time>2022-08-11T15:19:33.43+02:00</time>
      </trkpt>
      <trkpt lat="45.31084" lon="-0.69582">
        <ele>48.9</ele>
        <time>2022-08-11T15:19:35.425+02:00</time>
      </trkpt>
      <trkpt lat="45.31077" lon="-0.6957">
        <ele>49.1</ele>
        <time>2022-08-11T15:19:37.422+02:00</time>
      </trkpt>
      <trkpt lat="45.31069" lon="-0.69558">
        <ele>49</ele>
        <time>2022-08-11T15:19:39.412+02:00</time>
      </trkpt>
      <trkpt lat="45.31062" lon="-0.69547">
        <ele>49.4</ele>
        <time>2022-08-11T15:19:41.428+02:00</time>
      </trkpt>
      <trkpt lat="45.31054" lon="-0.69534">
        <ele>49.7</ele>
        <time>2022-08-11T15:19:43.438+02:00</time>
      </trkpt>
      <trkpt lat="45.31048" lon="-0.69523">
        <ele>49.1</ele>
        <time>2022-08-11T15:19:45.432+02:00</time>
      </trkpt>
      <trkpt lat="45.3104" lon="-0.69512">
        <ele>49.3</ele>
        <time>2022-08-11T15:19:47.424+02:00</time>
      </trkpt>
      <trkpt lat="45.31033" lon="-0.69501">
        <ele>49.4</ele>
        <time>2022-08-11T15:19:49.427+02:00</time>
      </trkpt>
      <trkpt lat="45.31026" lon="-0.69489">
        <ele>49.3</ele>
        <time>2022-08-11T15:19:51.44+02:00</time>
      </trkpt>
      <trkpt lat="45.31018" lon="-0.69477">
        <ele>49.3</ele>
        <time>2022-08-11T15:19:53.419+02:00</time>
      </trkpt>
      <trkpt lat="45.31011" lon="-0.69466">
        <ele>49.3</ele>
        <time>2022-08-11T15:19:55.432+02:00</time>
      </trkpt>
      <trkpt lat="45.31004" lon="-0.69454">
        <ele>49.3</ele>
        <time>2022-08-11T15:19:57.423+02:00</time>
      </trkpt>
      <trkpt lat="45.30996" lon="-0.69442">
        <ele>49.5</ele>
        <time>2022-08-11T15:19:59.422+02:00</time>
      </trkpt>
      <trkpt lat="45.30989" lon="-0.69431">
        <ele>49.4</ele>
        <time>2022-08-11T15:20:01.43+02:00</time>
      </trkpt>
      <trkpt lat="45.30981" lon="-0.6942">
        <ele>49.7</ele>
        <time>2022-08-11T15:20:03.441+02:00</time>
      </trkpt>
      <trkpt lat="45.30975" lon="-0.69408">
        <ele>49.2</ele>
        <time>2022-08-11T15:20:05.424+02:00</time>
      </trkpt>
      <trkpt lat="45.30967" lon="-0.69398">
        <ele>49.5</ele>
        <time>2022-08-11T15:20:07.419+02:00</time>
      </trkpt>
      <trkpt lat="45.3096" lon="-0.69386">
        <ele>49.5</ele>
        <time>2022-08-11T15:20:09.43+02:00</time>
      </trkpt>
      <trkpt lat="45.30952" lon="-0.69374">
        <ele>50.2</ele>
        <time>2022-08-11T15:20:11.428+02:00</time>
      </trkpt>
      <trkpt lat="45.30945" lon="-0.69363">
        <ele>50</ele>
        <time>2022-08-11T15:20:13.422+02:00</time>
      </trkpt>
      <trkpt lat="45.30937" lon="-0.6935">
        <ele>50</ele>
        <time>2022-08-11T15:20:15.423+02:00</time>
      </trkpt>
      <trkpt lat="45.30929" lon="-0.69339">
        <ele>50</ele>
        <time>2022-08-11T15:20:17.428+02:00</time>
      </trkpt>
      <trkpt lat="45.30921" lon="-0.69326">
        <ele>50.4</ele>
        <time>2022-08-11T15:20:19.428+02:00</time>
      </trkpt>
      <trkpt lat="45.30913" lon="-0.69314">
        <ele>50.9</ele>
        <time>2022-08-11T15:20:21.436+02:00</time>
      </trkpt>
      <trkpt lat="45.30905" lon="-0.69302">
        <ele>50.8</ele>
        <time>2022-08-11T15:20:23.443+02:00</time>
      </trkpt>
      <trkpt lat="45.30897" lon="-0.69289">
        <ele>51.3</ele>
        <time>2022-08-11T15:20:25.424+02:00</time>
      </trkpt>
      <trkpt lat="45.30889" lon="-0.69277">
        <ele>51.5</ele>
        <time>2022-08-11T15:20:27.429+02:00</time>
      </trkpt>
      <trkpt lat="45.30881" lon="-0.69264">
        <ele>51.4</ele>
        <time>2022-08-11T15:20:29.429+02:00</time>
      </trkpt>
      <trkpt lat="45.30872" lon="-0.69252">
        <ele>51.5</ele>
        <time>2022-08-11T15:20:31.439+02:00</time>
      </trkpt>
      <trkpt lat="45.30864" lon="-0.69239">
        <ele>51.6</ele>
        <time>2022-08-11T15:20:33.425+02:00</time>
      </trkpt>
      <trkpt lat="45.30856" lon="-0.69226">
        <ele>51.7</ele>
        <time>2022-08-11T15:20:35.421+02:00</time>
      </trkpt>
      <trkpt lat="45.30848" lon="-0.69213">
        <ele>51.3</ele>
        <time>2022-08-11T15:20:37.417+02:00</time>
      </trkpt>
      <trkpt lat="45.30839" lon="-0.69201">
        <ele>51.4</ele>
        <time>2022-08-11T15:20:39.433+02:00</time>
      </trkpt>
      <trkpt lat="45.30831" lon="-0.69189">
        <ele>51.1</ele>
        <time>2022-08-11T15:20:41.424+02:00</time>
      </trkpt>
      <trkpt lat="45.30823" lon="-0.69176">
        <ele>50.9</ele>
        <time>2022-08-11T15:20:43.428+02:00</time>
      </trkpt>
      <trkpt lat="45.30815" lon="-0.69163">
        <ele>51</ele>
        <time>2022-08-11T15:20:45.428+02:00</time>
      </trkpt>
      <trkpt lat="45.30806" lon="-0.69151">
        <ele>51.3</ele>
        <time>2022-08-11T15:20:47.422+02:00</time>
      </trkpt>
      <trkpt lat="45.30798" lon="-0.69137">
        <ele>50.7</ele>
        <time>2022-08-11T15:20:49.43+02:00</time>
      </trkpt>
      <trkpt lat="45.30791" lon="-0.69125">
        <ele>50.1</ele>
        <time>2022-08-11T15:20:51.424+02:00</time>
      </trkpt>
      <trkpt lat="45.30783" lon="-0.69113">
        <ele>50.3</ele>
        <time>2022-08-11T15:20:53.406+02:00</time>
      </trkpt>
      <trkpt lat="45.30775" lon="-0.691">
        <ele>50.5</ele>
        <time>2022-08-11T15:20:55.408+02:00</time>
      </trkpt>
      <trkpt lat="45.30767" lon="-0.69087">
        <ele>50.8</ele>
        <time>2022-08-11T15:20:57.411+02:00</time>
      </trkpt>
      <trkpt lat="45.30759" lon="-0.69075">
        <ele>51.1</ele>
        <time>2022-08-11T15:20:59.407+02:00</time>
      </trkpt>
      <trkpt lat="45.30752" lon="-0.69063">
        <ele>51.6</ele>
        <time>2022-08-11T15:21:01.414+02:00</time>
      </trkpt>
      <trkpt lat="45.30744" lon="-0.69051">
        <ele>51.4</ele>
        <time>2022-08-11T15:21:03.419+02:00</time>
      </trkpt>
      <trkpt lat="45.30736" lon="-0.69039">
        <ele>51.6</ele>
        <time>2022-08-11T15:21:05.416+02:00</time>
      </trkpt>
      <trkpt lat="45.30728" lon="-0.69027">
        <ele>51.7</ele>
        <time>2022-08-11T15:21:07.436+02:00</time>
      </trkpt>
      <trkpt lat="45.3072" lon="-0.69014">
        <ele>52.2</ele>
        <time>2022-08-11T15:21:09.416+02:00</time>
      </trkpt>
      <trkpt lat="45.30712" lon="-0.69002">
        <ele>52.3</ele>
        <time>2022-08-11T15:21:11.407+02:00</time>
      </trkpt>
      <trkpt lat="45.30703" lon="-0.68989">
        <ele>52.5</ele>
        <time>2022-08-11T15:21:13.411+02:00</time>
      </trkpt>
      <trkpt lat="45.30695" lon="-0.68977">
        <ele>52.4</ele>
        <time>2022-08-11T15:21:15.424+02:00</time>
      </trkpt>
      <trkpt lat="45.30687" lon="-0.68965">
        <ele>52.6</ele>
        <time>2022-08-11T15:21:17.411+02:00</time>
      </trkpt>
      <trkpt lat="45.3068" lon="-0.68952">
        <ele>52.5</ele>
        <time>2022-08-11T15:21:19.414+02:00</time>
      </trkpt>
      <trkpt lat="45.30672" lon="-0.6894">
        <ele>52.2</ele>
        <time>2022-08-11T15:21:21.416+02:00</time>
      </trkpt>
      <trkpt lat="45.30664" lon="-0.68929">
        <ele>52.4</ele>
        <time>2022-08-11T15:21:23.415+02:00</time>
      </trkpt>
      <trkpt lat="45.30656" lon="-0.68916">
        <ele>52.1</ele>
        <time>2022-08-11T15:21:25.409+02:00</time>
      </trkpt>
      <trkpt lat="45.30648" lon="-0.68903">
        <ele>52.1</ele>
        <time>2022-08-11T15:21:27.414+02:00</time>
      </trkpt>
      <trkpt lat="45.3064" lon="-0.68892">
        <ele>51.8</ele>
        <time>2022-08-11T15:21:29.419+02:00</time>
      </trkpt>
      <trkpt lat="45.30633" lon="-0.6888">
        <ele>52</ele>
        <time>2022-08-11T15:21:31.42+02:00</time>
      </trkpt>
      <trkpt lat="45.30625" lon="-0.68868">
        <ele>52.5</ele>
        <time>2022-08-11T15:21:33.415+02:00</time>
      </trkpt>
      <trkpt lat="45.30617" lon="-0.68856">
        <ele>53.1</ele>
        <time>2022-08-11T15:21:35.416+02:00</time>
      </trkpt>
      <trkpt lat="45.3061" lon="-0.68844">
        <ele>53.1</ele>
        <time>2022-08-11T15:21:37.415+02:00</time>
      </trkpt>
      <trkpt lat="45.30602" lon="-0.68832">
        <ele>53.1</ele>
        <time>2022-08-11T15:21:39.419+02:00</time>
      </trkpt>
      <trkpt lat="45.30594" lon="-0.68821">
        <ele>52.2</ele>
        <time>2022-08-11T15:21:41.413+02:00</time>
      </trkpt>
      <trkpt lat="45.30586" lon="-0.68809">
        <ele>52</ele>
        <time>2022-08-11T15:21:43.416+02:00</time>
      </trkpt>
      <trkpt lat="45.30579" lon="-0.68797">
        <ele>51.7</ele>
        <time>2022-08-11T15:21:45.419+02:00</time>
      </trkpt>
      <trkpt lat="45.3057" lon="-0.68786">
        <ele>51.5</ele>
        <time>2022-08-11T15:21:47.41+02:00</time>
      </trkpt>
      <trkpt lat="45.30562" lon="-0.68774">
        <ele>51.4</ele>
        <time>2022-08-11T15:21:49.416+02:00</time>
      </trkpt>
      <trkpt lat="45.30555" lon="-0.68762">
        <ele>51.1</ele>
        <time>2022-08-11T15:21:51.419+02:00</time>
      </trkpt>
      <trkpt lat="45.30547" lon="-0.68749">
        <ele>51.2</ele>
        <time>2022-08-11T15:21:53.424+02:00</time>
      </trkpt>
      <trkpt lat="45.3054" lon="-0.68737">
        <ele>51</ele>
        <time>2022-08-11T15:21:55.421+02:00</time>
      </trkpt>
      <trkpt lat="45.30532" lon="-0.68726">
        <ele>50.9</ele>
        <time>2022-08-11T15:21:57.411+02:00</time>
      </trkpt>
      <trkpt lat="45.30525" lon="-0.68714">
        <ele>50.8</ele>
        <time>2022-08-11T15:21:59.421+02:00</time>
      </trkpt>
      <trkpt lat="45.30517" lon="-0.68702">
        <ele>50.8</ele>
        <time>2022-08-11T15:22:01.42+02:00</time>
      </trkpt>
      <trkpt lat="45.30508" lon="-0.6869">
        <ele>51</ele>
        <time>2022-08-11T15:22:03.416+02:00</time>
      </trkpt>
      <trkpt lat="45.30501" lon="-0.68677">
        <ele>50.7</ele>
        <time>2022-08-11T15:22:05.409+02:00</time>
      </trkpt>
      <trkpt lat="45.30493" lon="-0.68665">
        <ele>51.1</ele>
        <time>2022-08-11T15:22:07.402+02:00</time>
      </trkpt>
      <trkpt lat="45.30485" lon="-0.68654">
        <ele>51.1</ele>
        <time>2022-08-11T15:22:09.413+02:00</time>
      </trkpt>
      <trkpt lat="45.30478" lon="-0.68642">
        <ele>51.1</ele>
        <time>2022-08-11T15:22:11.42+02:00</time>
      </trkpt>
      <trkpt lat="45.30472" lon="-0.68631">
        <ele>50.5</ele>
        <time>2022-08-11T15:22:13.422+02:00</time>
      </trkpt>
      <trkpt lat="45.30464" lon="-0.6862">
        <ele>50.4</ele>
        <time>2022-08-11T15:22:16.42+02:00</time>
      </trkpt>
      <trkpt lat="45.30455" lon="-0.68611">
        <ele>51.4</ele>
        <time>2022-08-11T15:22:20.412+02:00</time>
      </trkpt>
      <trkpt lat="45.30453" lon="-0.68609">
        <ele>51.5</ele>
        <time>2022-08-11T15:22:22.41+02:00</time>
      </trkpt>
      <trkpt lat="45.30454" lon="-0.68608">
        <ele>51.5</ele>
        <time>2022-08-11T15:22:23.413+02:00</time>
      </trkpt>
      <trkpt lat="45.30454" lon="-0.68608">
        <ele>51.3</ele>
        <time>2022-08-11T15:22:24.424+02:00</time>
      </trkpt>
      <trkpt lat="45.30453" lon="-0.68608">
        <ele>51.6</ele>
        <time>2022-08-11T15:22:25.415+02:00</time>
      </trkpt>
      <trkpt lat="45.30454" lon="-0.68607">
        <ele>51.3</ele>
        <time>2022-08-11T15:22:26.423+02:00</time>
      </trkpt>
      <trkpt lat="45.30453" lon="-0.68608">
        <ele>52.1</ele>
        <time>2022-08-11T15:23:15.434+02:00</time>
      </trkpt>
      <trkpt lat="45.30454" lon="-0.68609">
        <ele>52.1</ele>
        <time>2022-08-11T15:23:16.425+02:00</time>
      </trkpt>
      <trkpt lat="45.30454" lon="-0.6861">
        <ele>52.1</ele>
        <time>2022-08-11T15:23:17.418+02:00</time>
      </trkpt>
      <trkpt lat="45.30454" lon="-0.68609">
        <ele>53.3</ele>
        <time>2022-08-11T15:23:36.424+02:00</time>
      </trkpt>
      <trkpt lat="45.30454" lon="-0.6861">
        <ele>53.2</ele>
        <time>2022-08-11T15:23:37.424+02:00</time>
      </trkpt>
      <trkpt lat="45.30453" lon="-0.68611">
        <ele>52.4</ele>
        <time>2022-08-11T15:23:43.416+02:00</time>
      </trkpt>
      <trkpt lat="45.30454" lon="-0.68611">
        <ele>52.3</ele>
        <time>2022-08-11T15:23:44.417+02:00</time>
      </trkpt>
      <trkpt lat="45.30453" lon="-0.68612">
        <ele>52.2</ele>
        <time>2022-08-11T15:24:13.421+02:00</time>
      </trkpt>
      <trkpt lat="45.30453" lon="-0.68612">
        <ele>52.1</ele>
        <time>2022-08-11T15:24:14.426+02:00</time>
      </trkpt>
      <trkpt lat="45.30454" lon="-0.68612">
        <ele>52.4</ele>
        <time>2022-08-11T15:24:15.418+02:00</time>
      </trkpt>
      <trkpt lat="45.30454" lon="-0.68612">
        <ele>52.2</ele>
        <time>2022-08-11T15:24:25.427+02:00</time>
      </trkpt>
      <trkpt lat="45.30454" lon="-0.68612">
        <ele>52.3</ele>
        <time>2022-08-11T15:24:26.43+02:00</time>
      </trkpt>
      <trkpt lat="45.30454" lon="-0.68612">
        <ele>52.6</ele>
        <time>2022-08-11T15:24:27.435+02:00</time>
      </trkpt>
      <trkpt lat="45.30454" lon="-0.68612">
        <ele>52.7</ele>
        <time>2022-08-11T15:24:30.417+02:00</time>
      </trkpt>
      <trkpt lat="45.30454" lon="-0.68612">
        <ele>52.5</ele>
        <time>2022-08-11T15:24:31.419+02:00</time>
      </trkpt>
      <trkpt lat="45.30454" lon="-0.68612">
        <ele>52.5</ele>
        <time>2022-08-11T15:24:32.403+02:00</time>
      </trkpt>
      <trkpt lat="45.30453" lon="-0.68612">
        <ele>51.2</ele>
        <time>2022-08-11T15:26:07.419+02:00</time>
      </trkpt>
      <trkpt lat="45.30453" lon="-0.68612">
        <ele>51.4</ele>
        <time>2022-08-11T15:26:08.406+02:00</time>
      </trkpt>
      <trkpt lat="45.30455" lon="-0.6861">
        <ele>51.4</ele>
        <time>2022-08-11T15:26:10.407+02:00</time>
      </trkpt>
      <trkpt lat="45.30454" lon="-0.6861">
        <ele>50.8</ele>
        <time>2022-08-11T15:26:11.413+02:00</time>
      </trkpt>
      <trkpt lat="45.30454" lon="-0.68609">
        <ele>50.4</ele>
        <time>2022-08-11T15:26:12.405+02:00</time>
      </trkpt>
      <trkpt lat="45.30453" lon="-0.68609">
        <ele>50.1</ele>
        <time>2022-08-11T15:26:14.401+02:00</time>
      </trkpt>
      <trkpt lat="45.30452" lon="-0.68608">
        <ele>49.6</ele>
        <time>2022-08-11T15:26:15.414+02:00</time>
      </trkpt>
      <trkpt lat="45.30452" lon="-0.68608">
        <ele>49.7</ele>
        <time>2022-08-11T15:26:18.426+02:00</time>
      </trkpt>
      <trkpt lat="45.30452" lon="-0.68608">
        <ele>49.9</ele>
        <time>2022-08-11T15:26:19.416+02:00</time>
      </trkpt>
      <trkpt lat="45.30453" lon="-0.68608">
        <ele>49.4</ele>
        <time>2022-08-11T15:26:22.424+02:00</time>
      </trkpt>
      <trkpt lat="45.30454" lon="-0.68608">
        <ele>49.6</ele>
        <time>2022-08-11T15:26:23.426+02:00</time>
      </trkpt>
      <trkpt lat="45.30454" lon="-0.68609">
        <ele>49.6</ele>
        <time>2022-08-11T15:26:24.42+02:00</time>
      </trkpt>
      <trkpt lat="45.30454" lon="-0.68609">
        <ele>49.5</ele>
        <time>2022-08-11T15:26:25.421+02:00</time>
      </trkpt>
      <trkpt lat="45.30454" lon="-0.68609">
        <ele>49.6</ele>
        <time>2022-08-11T15:26:26.418+02:00</time>
      </trkpt>
      <trkpt lat="45.30454" lon="-0.68609">
        <ele>49.9</ele>
        <time>2022-08-11T15:26:50.414+02:00</time>
      </trkpt>
      <trkpt lat="45.30454" lon="-0.68609">
        <ele>49.8</ele>
        <time>2022-08-11T15:26:51.428+02:00</time>
      </trkpt>
      <trkpt lat="45.30454" lon="-0.68609">
        <ele>49.8</ele>
        <time>2022-08-11T15:26:52.426+02:00</time>
      </trkpt>
      <trkpt lat="45.30454" lon="-0.6861">
        <ele>49.6</ele>
        <time>2022-08-11T15:26:53.418+02:00</time>
      </trkpt>
      <trkpt lat="45.30454" lon="-0.6861">
        <ele>49.8</ele>
        <time>2022-08-11T15:26:55.417+02:00</time>
      </trkpt>
      <trkpt lat="45.30454" lon="-0.6861">
        <ele>49.9</ele>
        <time>2022-08-11T15:26:56.419+02:00</time>
      </trkpt>
      <trkpt lat="45.30453" lon="-0.6861">
        <ele>49.8</ele>
        <time>2022-08-11T15:26:57.438+02:00</time>
      </trkpt>
      <trkpt lat="45.30453" lon="-0.6861">
        <ele>49.4</ele>
        <time>2022-08-11T15:27:45.41+02:00</time>
      </trkpt>
      <trkpt lat="45.30453" lon="-0.6861">
        <ele>49.3</ele>
        <time>2022-08-11T15:27:46.422+02:00</time>
      </trkpt>
      <trkpt lat="45.30454" lon="-0.6861">
        <ele>49.6</ele>
        <time>2022-08-11T15:27:47.428+02:00</time>
      </trkpt>
      <trkpt lat="45.30454" lon="-0.6861">
        <ele>50.2</ele>
        <time>2022-08-11T15:29:42.425+02:00</time>
      </trkpt>
      <trkpt lat="45.30454" lon="-0.6861">
        <ele>49.9</ele>
        <time>2022-08-11T15:29:43.413+02:00</time>
      </trkpt>
      <trkpt lat="45.30454" lon="-0.6861">
        <ele>50.3</ele>
        <time>2022-08-11T15:29:44.43+02:00</time>
      </trkpt>
      <trkpt lat="45.30454" lon="-0.6861">
        <ele>50.5</ele>
        <time>2022-08-11T15:29:45.407+02:00</time>
      </trkpt>
      <trkpt lat="45.30454" lon="-0.6861">
        <ele>50.8</ele>
        <time>2022-08-11T15:29:46.41+02:00</time>
      </trkpt>
      <trkpt lat="45.30454" lon="-0.6861">
        <ele>50.9</ele>
        <time>2022-08-11T15:29:47.42+02:00</time>
      </trkpt>
      <trkpt lat="45.30453" lon="-0.6861">
        <ele>51.4</ele>
        <time>2022-08-11T15:29:56.411+02:00</time>
      </trkpt>
      <trkpt lat="45.30453" lon="-0.68611">
        <ele>51.5</ele>
        <time>2022-08-11T15:29:57.418+02:00</time>
      </trkpt>
      <trkpt lat="45.30454" lon="-0.68612">
        <ele>51.9</ele>
        <time>2022-08-11T15:29:59.404+02:00</time>
      </trkpt>
      <trkpt lat="45.30453" lon="-0.68612">
        <ele>52.1</ele>
        <time>2022-08-11T15:30:00.415+02:00</time>
      </trkpt>
      <trkpt lat="45.30454" lon="-0.68612">
        <ele>52.4</ele>
        <time>2022-08-11T15:30:08.419+02:00</time>
      </trkpt>
      <trkpt lat="45.30454" lon="-0.68612">
        <ele>52.5</ele>
        <time>2022-08-11T15:30:09.419+02:00</time>
      </trkpt>
      <trkpt lat="45.30454" lon="-0.68612">
        <ele>52.5</ele>
        <time>2022-08-11T15:30:10.419+02:00</time>
      </trkpt>
      <trkpt lat="45.30454" lon="-0.68612">
        <ele>52.3</ele>
        <time>2022-08-11T15:30:14.419+02:00</time>
      </trkpt>
      <trkpt lat="45.30454" lon="-0.68612">
        <ele>52.3</ele>
        <time>2022-08-11T15:30:15.412+02:00</time>
      </trkpt>
      <trkpt lat="45.30455" lon="-0.68613">
        <ele>51.6</ele>
        <time>2022-08-11T15:30:17.416+02:00</time>
      </trkpt>
      <trkpt lat="45.30455" lon="-0.68613">
        <ele>51.2</ele>
        <time>2022-08-11T15:30:18.423+02:00</time>
      </trkpt>
      <trkpt lat="45.30454" lon="-0.68614">
        <ele>51</ele>
        <time>2022-08-11T15:30:19.42+02:00</time>
      </trkpt>
      <trkpt lat="45.30455" lon="-0.68614">
        <ele>51.3</ele>
        <time>2022-08-11T15:30:20.419+02:00</time>
      </trkpt>
      <trkpt lat="45.30455" lon="-0.68614">
        <ele>51.2</ele>
        <time>2022-08-11T15:30:21.417+02:00</time>
      </trkpt>
      <trkpt lat="45.30455" lon="-0.68614">
        <ele>51.3</ele>
        <time>2022-08-11T15:30:22.428+02:00</time>
      </trkpt>
      <trkpt lat="45.30455" lon="-0.68614">
        <ele>51.8</ele>
        <time>2022-08-11T15:30:25.43+02:00</time>
      </trkpt>
      <trkpt lat="45.30455" lon="-0.68614">
        <ele>51.8</ele>
        <time>2022-08-11T15:30:26.419+02:00</time>
      </trkpt>
      <trkpt lat="45.30455" lon="-0.68614">
        <ele>52</ele>
        <time>2022-08-11T15:30:27.418+02:00</time>
      </trkpt>
      <trkpt lat="45.30455" lon="-0.68614">
        <ele>51.4</ele>
        <time>2022-08-11T15:30:58.422+02:00</time>
      </trkpt>
      <trkpt lat="45.30455" lon="-0.68614">
        <ele>51.4</ele>
        <time>2022-08-11T15:30:59.434+02:00</time>
      </trkpt>
      <trkpt lat="45.30455" lon="-0.68613">
        <ele>50.9</ele>
        <time>2022-08-11T15:31:02.42+02:00</time>
      </trkpt>
      <trkpt lat="45.30455" lon="-0.68613">
        <ele>50.5</ele>
        <time>2022-08-11T15:31:03.41+02:00</time>
      </trkpt>
      <trkpt lat="45.30456" lon="-0.68612">
        <ele>50.3</ele>
        <time>2022-08-11T15:31:47.419+02:00</time>
      </trkpt>
      <trkpt lat="45.30456" lon="-0.68612">
        <ele>50.4</ele>
        <time>2022-08-11T15:31:48.416+02:00</time>
      </trkpt>
      <trkpt lat="45.30456" lon="-0.68612">
        <ele>50.4</ele>
        <time>2022-08-11T15:31:49.418+02:00</time>
      </trkpt>
      <trkpt lat="45.30456" lon="-0.68611">
        <ele>50.1</ele>
        <time>2022-08-11T15:31:50.418+02:00</time>
      </trkpt>
      <trkpt lat="45.30455" lon="-0.68609">
        <ele>50.8</ele>
        <time>2022-08-11T15:34:15.421+02:00</time>
      </trkpt>
      <trkpt lat="45.30455" lon="-0.68609">
        <ele>50.7</ele>
        <time>2022-08-11T15:34:16.421+02:00</time>
      </trkpt>
      <trkpt lat="45.30455" lon="-0.68607">
        <ele>50.3</ele>
        <time>2022-08-11T15:34:20.42+02:00</time>
      </trkpt>
      <trkpt lat="45.30454" lon="-0.68607">
        <ele>50.3</ele>
        <time>2022-08-11T15:34:21.417+02:00</time>
      </trkpt>
      <trkpt lat="45.30453" lon="-0.68608">
        <ele>50</ele>
        <time>2022-08-11T15:34:28.417+02:00</time>
      </trkpt>
      <trkpt lat="45.30453" lon="-0.68607">
        <ele>50.3</ele>
        <time>2022-08-11T15:34:29.42+02:00</time>
      </trkpt>
      <trkpt lat="45.30453" lon="-0.68608">
        <ele>50.1</ele>
        <time>2022-08-11T15:34:30.417+02:00</time>
      </trkpt>
      <trkpt lat="45.30453" lon="-0.68608">
        <ele>49.9</ele>
        <time>2022-08-11T15:34:55.415+02:00</time>
      </trkpt>
      <trkpt lat="45.30452" lon="-0.68608">
        <ele>50</ele>
        <time>2022-08-11T15:34:56.416+02:00</time>
      </trkpt>
      <trkpt lat="45.30452" lon="-0.68608">
        <ele>49.9</ele>
        <time>2022-08-11T15:34:57.414+02:00</time>
      </trkpt>
      <trkpt lat="45.30452" lon="-0.68608">
        <ele>49.7</ele>
        <time>2022-08-11T15:34:58.421+02:00</time>
      </trkpt>
      <trkpt lat="45.30452" lon="-0.68608">
        <ele>49.7</ele>
        <time>2022-08-11T15:34:59.418+02:00</time>
      </trkpt>
      <trkpt lat="45.30452" lon="-0.68608">
        <ele>49.4</ele>
        <time>2022-08-11T15:35:00.42+02:00</time>
      </trkpt>
      <trkpt lat="45.30451" lon="-0.68608">
        <ele>49</ele>
        <time>2022-08-11T15:35:01.421+02:00</time>
      </trkpt>
      <trkpt lat="45.30451" lon="-0.68608">
        <ele>49</ele>
        <time>2022-08-11T15:35:18.421+02:00</time>
      </trkpt>
      <trkpt lat="45.30452" lon="-0.68608">
        <ele>48.8</ele>
        <time>2022-08-11T15:35:19.42+02:00</time>
      </trkpt>
      <trkpt lat="45.30451" lon="-0.68609">
        <ele>49</ele>
        <time>2022-08-11T15:35:20.42+02:00</time>
      </trkpt>
      <trkpt lat="45.30452" lon="-0.68608">
        <ele>48.7</ele>
        <time>2022-08-11T15:35:32.417+02:00</time>
      </trkpt>
      <trkpt lat="45.30452" lon="-0.68609">
        <ele>48.5</ele>
        <time>2022-08-11T15:35:33.403+02:00</time>
      </trkpt>
      <trkpt lat="45.30452" lon="-0.68608">
        <ele>48.4</ele>
        <time>2022-08-11T15:35:34.405+02:00</time>
      </trkpt>
      <trkpt lat="45.30452" lon="-0.68608">
        <ele>48.4</ele>
        <time>2022-08-11T15:35:35.409+02:00</time>
      </trkpt>
      <trkpt lat="45.30452" lon="-0.68608">
        <ele>48.4</ele>
        <time>2022-08-11T15:35:36.418+02:00</time>
      </trkpt>
      <trkpt lat="45.30452" lon="-0.68608">
        <ele>48.3</ele>
        <time>2022-08-11T15:35:37.422+02:00</time>
      </trkpt>
      <trkpt lat="45.30452" lon="-0.68609">
        <ele>49</ele>
        <time>2022-08-11T15:36:38.417+02:00</time>
      </trkpt>
      <trkpt lat="45.30452" lon="-0.68609">
        <ele>49</ele>
        <time>2022-08-11T15:36:39.42+02:00</time>
      </trkpt>
      <trkpt lat="45.30452" lon="-0.68608">
        <ele>49.5</ele>
        <time>2022-08-11T15:36:41.422+02:00</time>
      </trkpt>
      <trkpt lat="45.30451" lon="-0.68608">
        <ele>49.4</ele>
        <time>2022-08-11T15:36:42.425+02:00</time>
      </trkpt>
      <trkpt lat="45.30451" lon="-0.68607">
        <ele>49.1</ele>
        <time>2022-08-11T15:37:06.414+02:00</time>
      </trkpt>
      <trkpt lat="45.30451" lon="-0.68607">
        <ele>49.1</ele>
        <time>2022-08-11T15:37:07.417+02:00</time>
      </trkpt>
      <trkpt lat="45.30451" lon="-0.68606">
        <ele>48.4</ele>
        <time>2022-08-11T15:37:10.406+02:00</time>
      </trkpt>
      <trkpt lat="45.30451" lon="-0.68607">
        <ele>48.7</ele>
        <time>2022-08-11T15:37:11.405+02:00</time>
      </trkpt>
      <trkpt lat="45.30451" lon="-0.68607">
        <ele>48.8</ele>
        <time>2022-08-11T15:38:43.407+02:00</time>
      </trkpt>
      <trkpt lat="45.30451" lon="-0.68607">
        <ele>48.6</ele>
        <time>2022-08-11T15:38:44.415+02:00</time>
      </trkpt>
      <trkpt lat="45.30451" lon="-0.68606">
        <ele>48.4</ele>
        <time>2022-08-11T15:38:45.421+02:00</time>
      </trkpt>
      <trkpt lat="45.3045" lon="-0.68606">
        <ele>48.8</ele>
        <time>2022-08-11T15:39:03.407+02:00</time>
      </trkpt>
      <trkpt lat="45.3045" lon="-0.68606">
        <ele>48.5</ele>
        <time>2022-08-11T15:39:04.416+02:00</time>
      </trkpt>
      <trkpt lat="45.3045" lon="-0.68606">
        <ele>48.7</ele>
        <time>2022-08-11T15:39:05.409+02:00</time>
      </trkpt>
      <trkpt lat="45.3045" lon="-0.68606">
        <ele>48.6</ele>
        <time>2022-08-11T15:39:06.413+02:00</time>
      </trkpt>
      <trkpt lat="45.30451" lon="-0.68606">
        <ele>48.7</ele>
        <time>2022-08-11T15:39:07.412+02:00</time>
      </trkpt>
      <trkpt lat="45.30453" lon="-0.68607">
        <ele>48.7</ele>
        <time>2022-08-11T15:39:11.414+02:00</time>
      </trkpt>
      <trkpt lat="45.30453" lon="-0.68608">
        <ele>48.8</ele>
        <time>2022-08-11T15:39:12.421+02:00</time>
      </trkpt>
      <trkpt lat="45.30453" lon="-0.68608">
        <ele>49.6</ele>
        <time>2022-08-11T15:39:29.416+02:00</time>
      </trkpt>
      <trkpt lat="45.30453" lon="-0.68608">
        <ele>49.6</ele>
        <time>2022-08-11T15:39:30.416+02:00</time>
      </trkpt>
      <trkpt lat="45.30453" lon="-0.68609">
        <ele>50.4</ele>
        <time>2022-08-11T15:39:32.421+02:00</time>
      </trkpt>
      <trkpt lat="45.30452" lon="-0.68609">
        <ele>50.4</ele>
        <time>2022-08-11T15:39:33.416+02:00</time>
      </trkpt>
      <trkpt lat="45.30452" lon="-0.68609">
        <ele>48.3</ele>
        <time>2022-08-11T15:39:46.418+02:00</time>
      </trkpt>
      <trkpt lat="45.30452" lon="-0.6861">
        <ele>48.2</ele>
        <time>2022-08-11T15:39:47.399+02:00</time>
      </trkpt>
      <trkpt lat="45.30452" lon="-0.68609">
        <ele>47.9</ele>
        <time>2022-08-11T15:39:48.404+02:00</time>
      </trkpt>
      <trkpt lat="45.30452" lon="-0.68609">
        <ele>48.1</ele>
        <time>2022-08-11T15:39:49.411+02:00</time>
      </trkpt>
      <trkpt lat="45.30452" lon="-0.68609">
        <ele>47.8</ele>
        <time>2022-08-11T15:39:50.419+02:00</time>
      </trkpt>
      <trkpt lat="45.30451" lon="-0.68609">
        <ele>48.1</ele>
        <time>2022-08-11T15:39:51.416+02:00</time>
      </trkpt>
      <trkpt lat="45.30451" lon="-0.68609">
        <ele>48.1</ele>
        <time>2022-08-11T15:39:52.413+02:00</time>
      </trkpt>
      <trkpt lat="45.30452" lon="-0.68608">
        <ele>47.7</ele>
        <time>2022-08-11T15:40:05.42+02:00</time>
      </trkpt>
      <trkpt lat="45.30452" lon="-0.68609">
        <ele>47.5</ele>
        <time>2022-08-11T15:40:06.42+02:00</time>
      </trkpt>
      <trkpt lat="45.30452" lon="-0.68609">
        <ele>47.6</ele>
        <time>2022-08-11T15:40:07.422+02:00</time>
      </trkpt>
      <trkpt lat="45.30452" lon="-0.68609">
        <ele>48.7</ele>
        <time>2022-08-11T15:40:19.416+02:00</time>
      </trkpt>
      <trkpt lat="45.30452" lon="-0.68609">
        <ele>49.2</ele>
        <time>2022-08-11T15:40:20.42+02:00</time>
      </trkpt>
      <trkpt lat="45.30452" lon="-0.68608">
        <ele>49.2</ele>
        <time>2022-08-11T15:40:22.42+02:00</time>
      </trkpt>
      <trkpt lat="45.30452" lon="-0.68608">
        <ele>49.4</ele>
        <time>2022-08-11T15:40:23.418+02:00</time>
      </trkpt>
      <trkpt lat="45.30453" lon="-0.68608">
        <ele>50</ele>
        <time>2022-08-11T15:40:45.416+02:00</time>
      </trkpt>
      <trkpt lat="45.30452" lon="-0.68608">
        <ele>50</ele>
        <time>2022-08-11T15:40:46.413+02:00</time>
      </trkpt>
      <trkpt lat="45.30452" lon="-0.68607">
        <ele>49.7</ele>
        <time>2022-08-11T15:40:47.414+02:00</time>
      </trkpt>
      <trkpt lat="45.30454" lon="-0.68605">
        <ele>49.8</ele>
        <time>2022-08-11T15:42:31.415+02:00</time>
      </trkpt>
      <trkpt lat="45.30454" lon="-0.68605">
        <ele>49.9</ele>
        <time>2022-08-11T15:42:32.422+02:00</time>
      </trkpt>
      <trkpt lat="45.30454" lon="-0.68606">
        <ele>50</ele>
        <time>2022-08-11T15:42:33.409+02:00</time>
      </trkpt>
      <trkpt lat="45.30454" lon="-0.68606">
        <ele>50.1</ele>
        <time>2022-08-11T15:42:36.415+02:00</time>
      </trkpt>
      <trkpt lat="45.30453" lon="-0.68606">
        <ele>50.1</ele>
        <time>2022-08-11T15:42:37.415+02:00</time>
      </trkpt>
      <trkpt lat="45.30453" lon="-0.68606">
        <ele>50</ele>
        <time>2022-08-11T15:42:38.42+02:00</time>
      </trkpt>
      <trkpt lat="45.30453" lon="-0.68606">
        <ele>49.9</ele>
        <time>2022-08-11T15:42:39.416+02:00</time>
      </trkpt>
      <trkpt lat="45.30453" lon="-0.68606">
        <ele>49.8</ele>
        <time>2022-08-11T15:42:40.415+02:00</time>
      </trkpt>
      <trkpt lat="45.30453" lon="-0.68606">
        <ele>50.1</ele>
        <time>2022-08-11T15:42:41.417+02:00</time>
      </trkpt>
      <trkpt lat="45.30452" lon="-0.68607">
        <ele>50.5</ele>
        <time>2022-08-11T15:43:20.4+02:00</time>
      </trkpt>
      <trkpt lat="45.30453" lon="-0.68607">
        <ele>50</ele>
        <time>2022-08-11T15:43:21.416+02:00</time>
      </trkpt>
      <trkpt lat="45.30453" lon="-0.68607">
        <ele>49.4</ele>
        <time>2022-08-11T15:43:22.416+02:00</time>
      </trkpt>
      <trkpt lat="45.30453" lon="-0.68607">
        <ele>49.5</ele>
        <time>2022-08-11T15:43:23.403+02:00</time>
      </trkpt>
      <trkpt lat="45.30453" lon="-0.68607">
        <ele>49.9</ele>
        <time>2022-08-11T15:43:24.412+02:00</time>
      </trkpt>
      <trkpt lat="45.30453" lon="-0.68607">
        <ele>50.1</ele>
        <time>2022-08-11T15:43:25.415+02:00</time>
      </trkpt>
      <trkpt lat="45.30453" lon="-0.68607">
        <ele>49.9</ele>
        <time>2022-08-11T15:43:28.412+02:00</time>
      </trkpt>
      <trkpt lat="45.30454" lon="-0.68608">
        <ele>49.7</ele>
        <time>2022-08-11T15:43:29.411+02:00</time>
      </trkpt>
      <trkpt lat="45.30456" lon="-0.68609">
        <ele>49.7</ele>
        <time>2022-08-11T15:43:34.412+02:00</time>
      </trkpt>
      <trkpt lat="45.30455" lon="-0.68609">
        <ele>49.4</ele>
        <time>2022-08-11T15:43:35.417+02:00</time>
      </trkpt>
      <trkpt lat="45.30455" lon="-0.6861">
        <ele>49.5</ele>
        <time>2022-08-11T15:43:36.408+02:00</time>
      </trkpt>
      <trkpt lat="45.30455" lon="-0.6861">
        <ele>49.6</ele>
        <time>2022-08-11T15:43:37.41+02:00</time>
      </trkpt>
      <trkpt lat="45.30455" lon="-0.6861">
        <ele>49.4</ele>
        <time>2022-08-11T15:43:57.415+02:00</time>
      </trkpt>
      <trkpt lat="45.30455" lon="-0.6861">
        <ele>49.9</ele>
        <time>2022-08-11T15:43:58.415+02:00</time>
      </trkpt>
      <trkpt lat="45.30455" lon="-0.68611">
        <ele>50.3</ele>
        <time>2022-08-11T15:43:59.413+02:00</time>
      </trkpt>
      <trkpt lat="45.30456" lon="-0.68611">
        <ele>50.1</ele>
        <time>2022-08-11T15:44:05.409+02:00</time>
      </trkpt>
      <trkpt lat="45.30456" lon="-0.68611">
        <ele>50</ele>
        <time>2022-08-11T15:44:06.415+02:00</time>
      </trkpt>
      <trkpt lat="45.30456" lon="-0.68612">
        <ele>50.5</ele>
        <time>2022-08-11T15:44:07.417+02:00</time>
      </trkpt>
      <trkpt lat="45.30456" lon="-0.68612">
        <ele>50.4</ele>
        <time>2022-08-11T15:44:08.414+02:00</time>
      </trkpt>
      <trkpt lat="45.30456" lon="-0.68612">
        <ele>50.3</ele>
        <time>2022-08-11T15:44:09.414+02:00</time>
      </trkpt>
      <trkpt lat="45.30456" lon="-0.68613">
        <ele>51.5</ele>
        <time>2022-08-11T15:44:36.416+02:00</time>
      </trkpt>
      <trkpt lat="45.30456" lon="-0.68613">
        <ele>51.5</ele>
        <time>2022-08-11T15:44:37.419+02:00</time>
      </trkpt>
      <trkpt lat="45.30453" lon="-0.68611">
        <ele>50.4</ele>
        <time>2022-08-11T15:44:44.413+02:00</time>
      </trkpt>
      <trkpt lat="45.30454" lon="-0.68611">
        <ele>50.4</ele>
        <time>2022-08-11T15:44:45.408+02:00</time>
      </trkpt>
      <trkpt lat="45.30454" lon="-0.68612">
        <ele>50.2</ele>
        <time>2022-08-11T15:44:48.412+02:00</time>
      </trkpt>
      <trkpt lat="45.30453" lon="-0.68612">
        <ele>49.9</ele>
        <time>2022-08-11T15:44:49.432+02:00</time>
      </trkpt>
      <trkpt lat="45.30453" lon="-0.68612">
        <ele>49.8</ele>
        <time>2022-08-11T15:44:50.421+02:00</time>
      </trkpt>
      <trkpt lat="45.30453" lon="-0.68612">
        <ele>49.3</ele>
        <time>2022-08-11T15:45:05.41+02:00</time>
      </trkpt>
      <trkpt lat="45.30453" lon="-0.68612">
        <ele>49.6</ele>
        <time>2022-08-11T15:45:06.4+02:00</time>
      </trkpt>
      <trkpt lat="45.30453" lon="-0.68612">
        <ele>49.8</ele>
        <time>2022-08-11T15:45:07.416+02:00</time>
      </trkpt>
      <trkpt lat="45.30454" lon="-0.68612">
        <ele>49.9</ele>
        <time>2022-08-11T15:45:08.423+02:00</time>
      </trkpt>
      <trkpt lat="45.30454" lon="-0.68612">
        <ele>50.2</ele>
        <time>2022-08-11T15:45:09.414+02:00</time>
      </trkpt>
      <trkpt lat="45.30455" lon="-0.68612">
        <ele>49.9</ele>
        <time>2022-08-11T15:45:12.413+02:00</time>
      </trkpt>
      <trkpt lat="45.30456" lon="-0.68612">
        <ele>49.4</ele>
        <time>2022-08-11T15:45:13.407+02:00</time>
      </trkpt>
      <trkpt lat="45.30456" lon="-0.68612">
        <ele>50.1</ele>
        <time>2022-08-11T15:45:17.42+02:00</time>
      </trkpt>
      <trkpt lat="45.30456" lon="-0.68612">
        <ele>50.3</ele>
        <time>2022-08-11T15:45:18.413+02:00</time>
      </trkpt>
      <trkpt lat="45.30456" lon="-0.68613">
        <ele>50.1</ele>
        <time>2022-08-11T15:45:20.411+02:00</time>
      </trkpt>
      <trkpt lat="45.30456" lon="-0.68613">
        <ele>50.1</ele>
        <time>2022-08-11T15:45:21.417+02:00</time>
      </trkpt>
      <trkpt lat="45.30456" lon="-0.68613">
        <ele>49.9</ele>
        <time>2022-08-11T15:45:23.408+02:00</time>
      </trkpt>
      <trkpt lat="45.30456" lon="-0.68612">
        <ele>50.2</ele>
        <time>2022-08-11T15:45:24.406+02:00</time>
      </trkpt>
      <trkpt lat="45.30456" lon="-0.68612">
        <ele>50</ele>
        <time>2022-08-11T15:45:25.407+02:00</time>
      </trkpt>
      <trkpt lat="45.30456" lon="-0.68612">
        <ele>50.1</ele>
        <time>2022-08-11T15:45:26.417+02:00</time>
      </trkpt>
      <trkpt lat="45.30456" lon="-0.68612">
        <ele>50.2</ele>
        <time>2022-08-11T15:45:34.415+02:00</time>
      </trkpt>
      <trkpt lat="45.30457" lon="-0.68612">
        <ele>49.8</ele>
        <time>2022-08-11T15:45:35.406+02:00</time>
      </trkpt>
      <trkpt lat="45.30457" lon="-0.68612">
        <ele>49.5</ele>
        <time>2022-08-11T15:45:36.409+02:00</time>
      </trkpt>
      <trkpt lat="45.30457" lon="-0.68612">
        <ele>49.7</ele>
        <time>2022-08-11T15:45:40.404+02:00</time>
      </trkpt>
      <trkpt lat="45.30457" lon="-0.68612">
        <ele>49.4</ele>
        <time>2022-08-11T15:45:41.416+02:00</time>
      </trkpt>
      <trkpt lat="45.30457" lon="-0.68612">
        <ele>49.4</ele>
        <time>2022-08-11T15:45:42.415+02:00</time>
      </trkpt>
      <trkpt lat="45.30457" lon="-0.68612">
        <ele>49.4</ele>
        <time>2022-08-11T15:45:43.403+02:00</time>
      </trkpt>
      <trkpt lat="45.30457" lon="-0.68612">
        <ele>49.4</ele>
        <time>2022-08-11T15:45:44.408+02:00</time>
      </trkpt>
      <trkpt lat="45.30457" lon="-0.68611">
        <ele>49.2</ele>
        <time>2022-08-11T15:45:46.406+02:00</time>
      </trkpt>
      <trkpt lat="45.30457" lon="-0.68612">
        <ele>49.2</ele>
        <time>2022-08-11T15:45:47.412+02:00</time>
      </trkpt>
      <trkpt lat="45.30457" lon="-0.68611">
        <ele>49.5</ele>
        <time>2022-08-11T15:45:51.4+02:00</time>
      </trkpt>
      <trkpt lat="45.30457" lon="-0.68611">
        <ele>49.8</ele>
        <time>2022-08-11T15:45:52.417+02:00</time>
      </trkpt>
      <trkpt lat="45.30456" lon="-0.6861">
        <ele>50</ele>
        <time>2022-08-11T15:45:56.417+02:00</time>
      </trkpt>
      <trkpt lat="45.30456" lon="-0.6861">
        <ele>50.3</ele>
        <time>2022-08-11T15:45:57.417+02:00</time>
      </trkpt>
      <trkpt lat="45.30456" lon="-0.6861">
        <ele>50.5</ele>
        <time>2022-08-11T15:45:58.411+02:00</time>
      </trkpt>
      <trkpt lat="45.30454" lon="-0.68608">
        <ele>50.8</ele>
        <time>2022-08-11T15:46:15.414+02:00</time>
      </trkpt>
      <trkpt lat="45.30454" lon="-0.68608">
        <ele>50.4</ele>
        <time>2022-08-11T15:46:16.417+02:00</time>
      </trkpt>
      <trkpt lat="45.30455" lon="-0.68608">
        <ele>50.5</ele>
        <time>2022-08-11T15:46:29.416+02:00</time>
      </trkpt>
      <trkpt lat="45.30455" lon="-0.68608">
        <ele>50.3</ele>
        <time>2022-08-11T15:46:30.417+02:00</time>
      </trkpt>
      <trkpt lat="45.30455" lon="-0.68608">
        <ele>50.3</ele>
        <time>2022-08-11T15:46:31.413+02:00</time>
      </trkpt>
      <trkpt lat="45.30455" lon="-0.68608">
        <ele>50.1</ele>
        <time>2022-08-11T15:46:32.419+02:00</time>
      </trkpt>
      <trkpt lat="45.30455" lon="-0.68609">
        <ele>50.2</ele>
        <time>2022-08-11T15:46:33.407+02:00</time>
      </trkpt>
      <trkpt lat="45.30454" lon="-0.68609">
        <ele>50.2</ele>
        <time>2022-08-11T15:46:34.421+02:00</time>
      </trkpt>
      <trkpt lat="45.30454" lon="-0.68609">
        <ele>50.2</ele>
        <time>2022-08-11T15:46:35.418+02:00</time>
      </trkpt>
      <trkpt lat="45.30454" lon="-0.68609">
        <ele>50.2</ele>
        <time>2022-08-11T15:46:36.415+02:00</time>
      </trkpt>
      <trkpt lat="45.30454" lon="-0.68609">
        <ele>50.4</ele>
        <time>2022-08-11T15:46:37.418+02:00</time>
      </trkpt>
      <trkpt lat="45.30453" lon="-0.68609">
        <ele>50.7</ele>
        <time>2022-08-11T15:46:38.413+02:00</time>
      </trkpt>
      <trkpt lat="45.30453" lon="-0.68609">
        <ele>50.7</ele>
        <time>2022-08-11T15:46:40.417+02:00</time>
      </trkpt>
      <trkpt lat="45.30453" lon="-0.68609">
        <ele>50.7</ele>
        <time>2022-08-11T15:46:41.421+02:00</time>
      </trkpt>
      <trkpt lat="45.30453" lon="-0.68609">
        <ele>51.1</ele>
        <time>2022-08-11T15:46:46.418+02:00</time>
      </trkpt>
      <trkpt lat="45.30453" lon="-0.68609">
        <ele>51</ele>
        <time>2022-08-11T15:46:47.417+02:00</time>
      </trkpt>
      <trkpt lat="45.30453" lon="-0.6861">
        <ele>51.4</ele>
        <time>2022-08-11T15:46:48.417+02:00</time>
      </trkpt>
      <trkpt lat="45.30453" lon="-0.68609">
        <ele>51.5</ele>
        <time>2022-08-11T15:46:56.418+02:00</time>
      </trkpt>
      <trkpt lat="45.30453" lon="-0.68609">
        <ele>51.3</ele>
        <time>2022-08-11T15:46:57.419+02:00</time>
      </trkpt>
      <trkpt lat="45.30453" lon="-0.68609">
        <ele>51.2</ele>
        <time>2022-08-11T15:46:58.422+02:00</time>
      </trkpt>
      <trkpt lat="45.30453" lon="-0.68608">
        <ele>51.1</ele>
        <time>2022-08-11T15:46:59.416+02:00</time>
      </trkpt>
      <trkpt lat="45.30456" lon="-0.68611">
        <ele>51.2</ele>
        <time>2022-08-11T15:47:05.414+02:00</time>
      </trkpt>
      <trkpt lat="45.30456" lon="-0.68611">
        <ele>51.2</ele>
        <time>2022-08-11T15:47:06.415+02:00</time>
      </trkpt>
      <trkpt lat="45.30456" lon="-0.68611">
        <ele>51.1</ele>
        <time>2022-08-11T15:47:11.409+02:00</time>
      </trkpt>
      <trkpt lat="45.30456" lon="-0.68612">
        <ele>51.1</ele>
        <time>2022-08-11T15:47:12.418+02:00</time>
      </trkpt>
      <trkpt lat="45.30456" lon="-0.68614">
        <ele>51.2</ele>
        <time>2022-08-11T15:47:16.415+02:00</time>
      </trkpt>
      <trkpt lat="45.30456" lon="-0.68613">
        <ele>51.2</ele>
        <time>2022-08-11T15:47:17.421+02:00</time>
      </trkpt>
      <trkpt lat="45.30456" lon="-0.68614">
        <ele>51.3</ele>
        <time>2022-08-11T15:47:18.416+02:00</time>
      </trkpt>
      <trkpt lat="45.30456" lon="-0.68614">
        <ele>51.3</ele>
        <time>2022-08-11T15:47:19.416+02:00</time>
      </trkpt>
      <trkpt lat="45.30456" lon="-0.68614">
        <ele>51</ele>
        <time>2022-08-11T15:47:20.412+02:00</time>
      </trkpt>
      <trkpt lat="45.30456" lon="-0.68614">
        <ele>51</ele>
        <time>2022-08-11T15:47:21.414+02:00</time>
      </trkpt>
      <trkpt lat="45.30454" lon="-0.68608">
        <ele>51.4</ele>
        <time>2022-08-11T15:47:31.424+02:00</time>
      </trkpt>
      <trkpt lat="45.30454" lon="-0.68608">
        <ele>51.5</ele>
        <time>2022-08-11T15:47:32.423+02:00</time>
      </trkpt>
      <trkpt lat="45.30454" lon="-0.68608">
        <ele>51.6</ele>
        <time>2022-08-11T15:47:33.41+02:00</time>
      </trkpt>
      <trkpt lat="45.30454" lon="-0.68609">
        <ele>51.6</ele>
        <time>2022-08-11T15:47:34.419+02:00</time>
      </trkpt>
      <trkpt lat="45.30454" lon="-0.68609">
        <ele>51.6</ele>
        <time>2022-08-11T15:47:39.422+02:00</time>
      </trkpt>
      <trkpt lat="45.30454" lon="-0.68608">
        <ele>51.5</ele>
        <time>2022-08-11T15:47:40.412+02:00</time>
      </trkpt>
      <trkpt lat="45.30454" lon="-0.68608">
        <ele>51.8</ele>
        <time>2022-08-11T15:47:41.413+02:00</time>
      </trkpt>
      <trkpt lat="45.30454" lon="-0.68608">
        <ele>51.8</ele>
        <time>2022-08-11T15:48:08.425+02:00</time>
      </trkpt>
      <trkpt lat="45.30454" lon="-0.68609">
        <ele>52.2</ele>
        <time>2022-08-11T15:48:09.415+02:00</time>
      </trkpt>
      <trkpt lat="45.30455" lon="-0.68609">
        <ele>52</ele>
        <time>2022-08-11T15:48:11.417+02:00</time>
      </trkpt>
      <trkpt lat="45.30455" lon="-0.68609">
        <ele>52</ele>
        <time>2022-08-11T15:48:12.411+02:00</time>
      </trkpt>
      <trkpt lat="45.30455" lon="-0.68609">
        <ele>52.1</ele>
        <time>2022-08-11T15:48:19.422+02:00</time>
      </trkpt>
      <trkpt lat="45.30455" lon="-0.68609">
        <ele>51.9</ele>
        <time>2022-08-11T15:48:20.42+02:00</time>
      </trkpt>
      <trkpt lat="45.30455" lon="-0.68609">
        <ele>51.7</ele>
        <time>2022-08-11T15:48:21.413+02:00</time>
      </trkpt>
      <trkpt lat="45.30455" lon="-0.6861">
        <ele>51.7</ele>
        <time>2022-08-11T15:48:22.417+02:00</time>
      </trkpt>
      <trkpt lat="45.30455" lon="-0.6861">
        <ele>51.7</ele>
        <time>2022-08-11T15:48:23.414+02:00</time>
      </trkpt>
      <trkpt lat="45.30455" lon="-0.6861">
        <ele>51.7</ele>
        <time>2022-08-11T15:48:24.408+02:00</time>
      </trkpt>
      <trkpt lat="45.30455" lon="-0.6861">
        <ele>51.4</ele>
        <time>2022-08-11T15:48:47.414+02:00</time>
      </trkpt>
      <trkpt lat="45.30454" lon="-0.6861">
        <ele>51.6</ele>
        <time>2022-08-11T15:48:48.414+02:00</time>
      </trkpt>
      <trkpt lat="45.30453" lon="-0.68609">
        <ele>51.7</ele>
        <time>2022-08-11T15:48:50.397+02:00</time>
      </trkpt>
      <trkpt lat="45.30453" lon="-0.68609">
        <ele>51.1</ele>
        <time>2022-08-11T15:48:51.405+02:00</time>
      </trkpt>
      <trkpt lat="45.30453" lon="-0.68608">
        <ele>51.3</ele>
        <time>2022-08-11T15:48:52.397+02:00</time>
      </trkpt>
      <trkpt lat="45.30453" lon="-0.68608">
        <ele>51.3</ele>
        <time>2022-08-11T15:48:53.397+02:00</time>
      </trkpt>
      <trkpt lat="45.30453" lon="-0.68608">
        <ele>51.4</ele>
        <time>2022-08-11T15:49:10.402+02:00</time>
      </trkpt>
      <trkpt lat="45.30453" lon="-0.68607">
        <ele>51.3</ele>
        <time>2022-08-11T15:49:11.402+02:00</time>
      </trkpt>
      <trkpt lat="45.30453" lon="-0.68607">
        <ele>51.2</ele>
        <time>2022-08-11T15:49:12.398+02:00</time>
      </trkpt>
      <trkpt lat="45.30453" lon="-0.68607">
        <ele>51.2</ele>
        <time>2022-08-11T15:49:13.403+02:00</time>
      </trkpt>
      <trkpt lat="45.30452" lon="-0.68607">
        <ele>51.2</ele>
        <time>2022-08-11T15:49:22.393+02:00</time>
      </trkpt>
      <trkpt lat="45.30452" lon="-0.68607">
        <ele>51.2</ele>
        <time>2022-08-11T15:49:23.399+02:00</time>
      </trkpt>
      <trkpt lat="45.30452" lon="-0.68607">
        <ele>51.1</ele>
        <time>2022-08-11T15:49:24.397+02:00</time>
      </trkpt>
      <trkpt lat="45.30452" lon="-0.68607">
        <ele>51.1</ele>
        <time>2022-08-11T15:49:25.4+02:00</time>
      </trkpt>
      <trkpt lat="45.30452" lon="-0.68607">
        <ele>50.7</ele>
        <time>2022-08-11T15:49:49.41+02:00</time>
      </trkpt>
      <trkpt lat="45.30452" lon="-0.68607">
        <ele>50.5</ele>
        <time>2022-08-11T15:49:50.411+02:00</time>
      </trkpt>
      <trkpt lat="45.30452" lon="-0.68607">
        <ele>50.5</ele>
        <time>2022-08-11T15:49:51.408+02:00</time>
      </trkpt>
      <trkpt lat="45.30452" lon="-0.68608">
        <ele>50.6</ele>
        <time>2022-08-11T15:49:52.404+02:00</time>
      </trkpt>
      <trkpt lat="45.30446" lon="-0.68597">
        <ele>51.3</ele>
        <time>2022-08-11T15:50:03.401+02:00</time>
      </trkpt>
      <trkpt lat="45.30438" lon="-0.68587">
        <ele>51.1</ele>
        <time>2022-08-11T15:50:07.401+02:00</time>
      </trkpt>
      <trkpt lat="45.30434" lon="-0.68576">
        <ele>51.3</ele>
        <time>2022-08-11T15:50:09.409+02:00</time>
      </trkpt>
      <trkpt lat="45.30426" lon="-0.68565">
        <ele>51.3</ele>
        <time>2022-08-11T15:50:12.408+02:00</time>
      </trkpt>
      <trkpt lat="45.30417" lon="-0.68552">
        <ele>51.8</ele>
        <time>2022-08-11T15:50:15.418+02:00</time>
      </trkpt>
      <trkpt lat="45.30411" lon="-0.68543">
        <ele>50.6</ele>
        <time>2022-08-11T15:50:17.404+02:00</time>
      </trkpt>
      <trkpt lat="45.30401" lon="-0.68531">
        <ele>51.4</ele>
        <time>2022-08-11T15:50:20.408+02:00</time>
      </trkpt>
      <trkpt lat="45.30392" lon="-0.68518">
        <ele>51.6</ele>
        <time>2022-08-11T15:50:23.404+02:00</time>
      </trkpt>
      <trkpt lat="45.30385" lon="-0.68508">
        <ele>51.5</ele>
        <time>2022-08-11T15:50:25.405+02:00</time>
      </trkpt>
      <trkpt lat="45.30376" lon="-0.68494">
        <ele>52</ele>
        <time>2022-08-11T15:50:28.406+02:00</time>
      </trkpt>
      <trkpt lat="45.3037" lon="-0.68482">
        <ele>52.5</ele>
        <time>2022-08-11T15:50:30.427+02:00</time>
      </trkpt>
      <trkpt lat="45.30362" lon="-0.68473">
        <ele>52.2</ele>
        <time>2022-08-11T15:50:32.408+02:00</time>
      </trkpt>
      <trkpt lat="45.30354" lon="-0.68465">
        <ele>50.4</ele>
        <time>2022-08-11T15:50:34.406+02:00</time>
      </trkpt>
      <trkpt lat="45.30344" lon="-0.6846">
        <ele>50.1</ele>
        <time>2022-08-11T15:50:36.399+02:00</time>
      </trkpt>
      <trkpt lat="45.30333" lon="-0.68455">
        <ele>49.8</ele>
        <time>2022-08-11T15:50:38.41+02:00</time>
      </trkpt>
      <trkpt lat="45.30323" lon="-0.68452">
        <ele>49.1</ele>
        <time>2022-08-11T15:50:40.417+02:00</time>
      </trkpt>
      <trkpt lat="45.30312" lon="-0.68449">
        <ele>48.9</ele>
        <time>2022-08-11T15:50:42.428+02:00</time>
      </trkpt>
      <trkpt lat="45.30302" lon="-0.68446">
        <ele>49.2</ele>
        <time>2022-08-11T15:50:44.414+02:00</time>
      </trkpt>
      <trkpt lat="45.30291" lon="-0.68443">
        <ele>49.2</ele>
        <time>2022-08-11T15:50:46.415+02:00</time>
      </trkpt>
      <trkpt lat="45.3028" lon="-0.68439">
        <ele>49.2</ele>
        <time>2022-08-11T15:50:48.425+02:00</time>
      </trkpt>
      <trkpt lat="45.30269" lon="-0.68435">
        <ele>49.4</ele>
        <time>2022-08-11T15:50:50.419+02:00</time>
      </trkpt>
      <trkpt lat="45.30258" lon="-0.68433">
        <ele>49.3</ele>
        <time>2022-08-11T15:50:52.42+02:00</time>
      </trkpt>
      <trkpt lat="45.30247" lon="-0.68429">
        <ele>49.5</ele>
        <time>2022-08-11T15:50:54.416+02:00</time>
      </trkpt>
      <trkpt lat="45.30235" lon="-0.68426">
        <ele>49.5</ele>
        <time>2022-08-11T15:50:56.413+02:00</time>
      </trkpt>
      <trkpt lat="45.30223" lon="-0.68423">
        <ele>49.2</ele>
        <time>2022-08-11T15:50:58.414+02:00</time>
      </trkpt>
      <trkpt lat="45.30212" lon="-0.6842">
        <ele>49.2</ele>
        <time>2022-08-11T15:51:00.429+02:00</time>
      </trkpt>
      <trkpt lat="45.30201" lon="-0.68416">
        <ele>49.3</ele>
        <time>2022-08-11T15:51:02.424+02:00</time>
      </trkpt>
      <trkpt lat="45.30189" lon="-0.68413">
        <ele>49.3</ele>
        <time>2022-08-11T15:51:04.412+02:00</time>
      </trkpt>
      <trkpt lat="45.30178" lon="-0.68409">
        <ele>49.3</ele>
        <time>2022-08-11T15:51:06.418+02:00</time>
      </trkpt>
      <trkpt lat="45.30166" lon="-0.68406">
        <ele>49.5</ele>
        <time>2022-08-11T15:51:08.419+02:00</time>
      </trkpt>
      <trkpt lat="45.30155" lon="-0.68403">
        <ele>49.4</ele>
        <time>2022-08-11T15:51:10.43+02:00</time>
      </trkpt>
      <trkpt lat="45.30143" lon="-0.68399">
        <ele>49</ele>
        <time>2022-08-11T15:51:12.416+02:00</time>
      </trkpt>
      <trkpt lat="45.30132" lon="-0.68395">
        <ele>49.2</ele>
        <time>2022-08-11T15:51:14.402+02:00</time>
      </trkpt>
      <trkpt lat="45.3012" lon="-0.68392">
        <ele>49</ele>
        <time>2022-08-11T15:51:16.428+02:00</time>
      </trkpt>
      <trkpt lat="45.30108" lon="-0.68388">
        <ele>48.9</ele>
        <time>2022-08-11T15:51:18.415+02:00</time>
      </trkpt>
      <trkpt lat="45.30096" lon="-0.68384">
        <ele>49.1</ele>
        <time>2022-08-11T15:51:20.43+02:00</time>
      </trkpt>
      <trkpt lat="45.30085" lon="-0.68381">
        <ele>49.2</ele>
        <time>2022-08-11T15:51:22.426+02:00</time>
      </trkpt>
      <trkpt lat="45.30073" lon="-0.68378">
        <ele>49.3</ele>
        <time>2022-08-11T15:51:24.404+02:00</time>
      </trkpt>
      <trkpt lat="45.30062" lon="-0.68374">
        <ele>48.5</ele>
        <time>2022-08-11T15:51:26.418+02:00</time>
      </trkpt>
      <trkpt lat="45.3005" lon="-0.68371">
        <ele>48.5</ele>
        <time>2022-08-11T15:51:28.41+02:00</time>
      </trkpt>
      <trkpt lat="45.30038" lon="-0.68367">
        <ele>48.5</ele>
        <time>2022-08-11T15:51:30.425+02:00</time>
      </trkpt>
      <trkpt lat="45.30025" lon="-0.68363">
        <ele>48.1</ele>
        <time>2022-08-11T15:51:32.419+02:00</time>
      </trkpt>
      <trkpt lat="45.30013" lon="-0.68359">
        <ele>48.1</ele>
        <time>2022-08-11T15:51:34.412+02:00</time>
      </trkpt>
      <trkpt lat="45.30001" lon="-0.68356">
        <ele>48.3</ele>
        <time>2022-08-11T15:51:36.424+02:00</time>
      </trkpt>
      <trkpt lat="45.2999" lon="-0.68352">
        <ele>48.8</ele>
        <time>2022-08-11T15:51:38.422+02:00</time>
      </trkpt>
      <trkpt lat="45.29979" lon="-0.68349">
        <ele>48.8</ele>
        <time>2022-08-11T15:51:40.413+02:00</time>
      </trkpt>
      <trkpt lat="45.29968" lon="-0.68346">
        <ele>48.7</ele>
        <time>2022-08-11T15:51:42.414+02:00</time>
      </trkpt>
      <trkpt lat="45.29957" lon="-0.68343">
        <ele>48.8</ele>
        <time>2022-08-11T15:51:44.419+02:00</time>
      </trkpt>
      <trkpt lat="45.29945" lon="-0.68339">
        <ele>49.2</ele>
        <time>2022-08-11T15:51:46.426+02:00</time>
      </trkpt>
      <trkpt lat="45.29934" lon="-0.68336">
        <ele>49.3</ele>
        <time>2022-08-11T15:51:48.42+02:00</time>
      </trkpt>
      <trkpt lat="45.29923" lon="-0.68333">
        <ele>49.4</ele>
        <time>2022-08-11T15:51:50.424+02:00</time>
      </trkpt>
      <trkpt lat="45.29912" lon="-0.6833">
        <ele>49.5</ele>
        <time>2022-08-11T15:51:52.41+02:00</time>
      </trkpt>
      <trkpt lat="45.299" lon="-0.68326">
        <ele>48.8</ele>
        <time>2022-08-11T15:51:54.412+02:00</time>
      </trkpt>
      <trkpt lat="45.29889" lon="-0.68322">
        <ele>48.6</ele>
        <time>2022-08-11T15:51:56.42+02:00</time>
      </trkpt>
      <trkpt lat="45.29877" lon="-0.68319">
        <ele>48.5</ele>
        <time>2022-08-11T15:51:58.422+02:00</time>
      </trkpt>
      <trkpt lat="45.29866" lon="-0.68315">
        <ele>48.3</ele>
        <time>2022-08-11T15:52:00.416+02:00</time>
      </trkpt>
      <trkpt lat="45.29855" lon="-0.68312">
        <ele>48.2</ele>
        <time>2022-08-11T15:52:02.416+02:00</time>
      </trkpt>
      <trkpt lat="45.29843" lon="-0.68308">
        <ele>48.5</ele>
        <time>2022-08-11T15:52:04.408+02:00</time>
      </trkpt>
      <trkpt lat="45.29832" lon="-0.68305">
        <ele>48.7</ele>
        <time>2022-08-11T15:52:06.429+02:00</time>
      </trkpt>
      <trkpt lat="45.2982" lon="-0.68302">
        <ele>48.7</ele>
        <time>2022-08-11T15:52:08.423+02:00</time>
      </trkpt>
      <trkpt lat="45.29808" lon="-0.68298">
        <ele>48.2</ele>
        <time>2022-08-11T15:52:10.419+02:00</time>
      </trkpt>
      <trkpt lat="45.29797" lon="-0.68295">
        <ele>48.3</ele>
        <time>2022-08-11T15:52:12.425+02:00</time>
      </trkpt>
      <trkpt lat="45.29785" lon="-0.68291">
        <ele>48.5</ele>
        <time>2022-08-11T15:52:14.416+02:00</time>
      </trkpt>
      <trkpt lat="45.29774" lon="-0.68288">
        <ele>48.7</ele>
        <time>2022-08-11T15:52:16.418+02:00</time>
      </trkpt>
      <trkpt lat="45.29762" lon="-0.68284">
        <ele>48.4</ele>
        <time>2022-08-11T15:52:18.419+02:00</time>
      </trkpt>
      <trkpt lat="45.29751" lon="-0.68281">
        <ele>48.2</ele>
        <time>2022-08-11T15:52:20.418+02:00</time>
      </trkpt>
      <trkpt lat="45.29739" lon="-0.68277">
        <ele>47.8</ele>
        <time>2022-08-11T15:52:22.422+02:00</time>
      </trkpt>
      <trkpt lat="45.29728" lon="-0.68274">
        <ele>47.5</ele>
        <time>2022-08-11T15:52:24.423+02:00</time>
      </trkpt>
      <trkpt lat="45.29716" lon="-0.68271">
        <ele>47.5</ele>
        <time>2022-08-11T15:52:26.427+02:00</time>
      </trkpt>
      <trkpt lat="45.29704" lon="-0.68267">
        <ele>47.5</ele>
        <time>2022-08-11T15:52:28.42+02:00</time>
      </trkpt>
      <trkpt lat="45.29692" lon="-0.68263">
        <ele>47.7</ele>
        <time>2022-08-11T15:52:30.417+02:00</time>
      </trkpt>
      <trkpt lat="45.29681" lon="-0.68259">
        <ele>47.6</ele>
        <time>2022-08-11T15:52:32.404+02:00</time>
      </trkpt>
      <trkpt lat="45.29669" lon="-0.68256">
        <ele>47.7</ele>
        <time>2022-08-11T15:52:34.417+02:00</time>
      </trkpt>
      <trkpt lat="45.29658" lon="-0.68253">
        <ele>47.8</ele>
        <time>2022-08-11T15:52:36.422+02:00</time>
      </trkpt>
      <trkpt lat="45.29647" lon="-0.68249">
        <ele>47.8</ele>
        <time>2022-08-11T15:52:38.431+02:00</time>
      </trkpt>
      <trkpt lat="45.29635" lon="-0.68246">
        <ele>47.8</ele>
        <time>2022-08-11T15:52:40.43+02:00</time>
      </trkpt>
      <trkpt lat="45.29623" lon="-0.68242">
        <ele>48.2</ele>
        <time>2022-08-11T15:52:42.412+02:00</time>
      </trkpt>
      <trkpt lat="45.29611" lon="-0.68239">
        <ele>48</ele>
        <time>2022-08-11T15:52:44.412+02:00</time>
      </trkpt>
      <trkpt lat="45.29599" lon="-0.68235">
        <ele>48</ele>
        <time>2022-08-11T15:52:46.424+02:00</time>
      </trkpt>
      <trkpt lat="45.29587" lon="-0.68231">
        <ele>48.2</ele>
        <time>2022-08-11T15:52:48.413+02:00</time>
      </trkpt>
      <trkpt lat="45.29576" lon="-0.68227">
        <ele>47.5</ele>
        <time>2022-08-11T15:52:50.417+02:00</time>
      </trkpt>
      <trkpt lat="45.29564" lon="-0.68224">
        <ele>47.4</ele>
        <time>2022-08-11T15:52:52.413+02:00</time>
      </trkpt>
      <trkpt lat="45.29552" lon="-0.68221">
        <ele>47.5</ele>
        <time>2022-08-11T15:52:54.406+02:00</time>
      </trkpt>
      <trkpt lat="45.29541" lon="-0.68218">
        <ele>47.7</ele>
        <time>2022-08-11T15:52:56.424+02:00</time>
      </trkpt>
      <trkpt lat="45.2953" lon="-0.68215">
        <ele>47.2</ele>
        <time>2022-08-11T15:52:58.418+02:00</time>
      </trkpt>
      <trkpt lat="45.29519" lon="-0.68211">
        <ele>47.1</ele>
        <time>2022-08-11T15:53:00.415+02:00</time>
      </trkpt>
      <trkpt lat="45.29508" lon="-0.68208">
        <ele>47.2</ele>
        <time>2022-08-11T15:53:02.421+02:00</time>
      </trkpt>
      <trkpt lat="45.29498" lon="-0.68205">
        <ele>46.8</ele>
        <time>2022-08-11T15:53:04.412+02:00</time>
      </trkpt>
      <trkpt lat="45.29488" lon="-0.68202">
        <ele>47.4</ele>
        <time>2022-08-11T15:53:06.411+02:00</time>
      </trkpt>
      <trkpt lat="45.29478" lon="-0.68199">
        <ele>47.9</ele>
        <time>2022-08-11T15:53:08.403+02:00</time>
      </trkpt>
      <trkpt lat="45.29467" lon="-0.68196">
        <ele>47.9</ele>
        <time>2022-08-11T15:53:10.423+02:00</time>
      </trkpt>
      <trkpt lat="45.29457" lon="-0.68193">
        <ele>48.2</ele>
        <time>2022-08-11T15:53:12.425+02:00</time>
      </trkpt>
      <trkpt lat="45.29446" lon="-0.6819">
        <ele>48.3</ele>
        <time>2022-08-11T15:53:14.411+02:00</time>
      </trkpt>
      <trkpt lat="45.29435" lon="-0.68187">
        <ele>48.7</ele>
        <time>2022-08-11T15:53:16.429+02:00</time>
      </trkpt>
      <trkpt lat="45.29424" lon="-0.68184">
        <ele>48.8</ele>
        <time>2022-08-11T15:53:18.419+02:00</time>
      </trkpt>
      <trkpt lat="45.29413" lon="-0.68181">
        <ele>48.7</ele>
        <time>2022-08-11T15:53:20.423+02:00</time>
      </trkpt>
      <trkpt lat="45.29403" lon="-0.68178">
        <ele>48.5</ele>
        <time>2022-08-11T15:53:22.43+02:00</time>
      </trkpt>
      <trkpt lat="45.29392" lon="-0.68175">
        <ele>48.3</ele>
        <time>2022-08-11T15:53:24.417+02:00</time>
      </trkpt>
      <trkpt lat="45.29382" lon="-0.68172">
        <ele>48.2</ele>
        <time>2022-08-11T15:53:26.41+02:00</time>
      </trkpt>
      <trkpt lat="45.29371" lon="-0.68168">
        <ele>48</ele>
        <time>2022-08-11T15:53:28.417+02:00</time>
      </trkpt>
      <trkpt lat="45.29361" lon="-0.68165">
        <ele>48</ele>
        <time>2022-08-11T15:53:30.405+02:00</time>
      </trkpt>
      <trkpt lat="45.29351" lon="-0.68162">
        <ele>48.5</ele>
        <time>2022-08-11T15:53:32.432+02:00</time>
      </trkpt>
      <trkpt lat="45.2934" lon="-0.68159">
        <ele>48.6</ele>
        <time>2022-08-11T15:53:34.419+02:00</time>
      </trkpt>
      <trkpt lat="45.29329" lon="-0.68156">
        <ele>48.4</ele>
        <time>2022-08-11T15:53:36.423+02:00</time>
      </trkpt>
      <trkpt lat="45.29319" lon="-0.68152">
        <ele>48.6</ele>
        <time>2022-08-11T15:53:38.421+02:00</time>
      </trkpt>
      <trkpt lat="45.29309" lon="-0.68149">
        <ele>48.9</ele>
        <time>2022-08-11T15:53:40.42+02:00</time>
      </trkpt>
      <trkpt lat="45.29299" lon="-0.68146">
        <ele>48.8</ele>
        <time>2022-08-11T15:53:42.427+02:00</time>
      </trkpt>
      <trkpt lat="45.29288" lon="-0.68143">
        <ele>49.6</ele>
        <time>2022-08-11T15:53:44.411+02:00</time>
      </trkpt>
      <trkpt lat="45.29278" lon="-0.68141">
        <ele>49.7</ele>
        <time>2022-08-11T15:53:46.396+02:00</time>
      </trkpt>
      <trkpt lat="45.29267" lon="-0.68138">
        <ele>49.1</ele>
        <time>2022-08-11T15:53:48.403+02:00</time>
      </trkpt>
      <trkpt lat="45.29256" lon="-0.68134">
        <ele>48.8</ele>
        <time>2022-08-11T15:53:50.408+02:00</time>
      </trkpt>
      <trkpt lat="45.29245" lon="-0.6813">
        <ele>48.4</ele>
        <time>2022-08-11T15:53:52.433+02:00</time>
      </trkpt>
      <trkpt lat="45.29234" lon="-0.68128">
        <ele>48.4</ele>
        <time>2022-08-11T15:53:54.413+02:00</time>
      </trkpt>
      <trkpt lat="45.29223" lon="-0.68125">
        <ele>48.7</ele>
        <time>2022-08-11T15:53:56.419+02:00</time>
      </trkpt>
      <trkpt lat="45.29212" lon="-0.68121">
        <ele>49</ele>
        <time>2022-08-11T15:53:58.4+02:00</time>
      </trkpt>
      <trkpt lat="45.29201" lon="-0.68118">
        <ele>48.6</ele>
        <time>2022-08-11T15:54:00.426+02:00</time>
      </trkpt>
      <trkpt lat="45.2919" lon="-0.68115">
        <ele>48.9</ele>
        <time>2022-08-11T15:54:02.406+02:00</time>
      </trkpt>
      <trkpt lat="45.2918" lon="-0.68112">
        <ele>48.7</ele>
        <time>2022-08-11T15:54:04.411+02:00</time>
      </trkpt>
      <trkpt lat="45.29169" lon="-0.68109">
        <ele>49.2</ele>
        <time>2022-08-11T15:54:06.424+02:00</time>
      </trkpt>
      <trkpt lat="45.29159" lon="-0.68106">
        <ele>49.1</ele>
        <time>2022-08-11T15:54:08.421+02:00</time>
      </trkpt>
      <trkpt lat="45.29148" lon="-0.68103">
        <ele>49.2</ele>
        <time>2022-08-11T15:54:10.41+02:00</time>
      </trkpt>
      <trkpt lat="45.29138" lon="-0.681">
        <ele>49.4</ele>
        <time>2022-08-11T15:54:12.419+02:00</time>
      </trkpt>
      <trkpt lat="45.29127" lon="-0.68096">
        <ele>49.3</ele>
        <time>2022-08-11T15:54:14.415+02:00</time>
      </trkpt>
      <trkpt lat="45.29117" lon="-0.68093">
        <ele>49.3</ele>
        <time>2022-08-11T15:54:16.427+02:00</time>
      </trkpt>
      <trkpt lat="45.29106" lon="-0.6809">
        <ele>49.4</ele>
        <time>2022-08-11T15:54:18.422+02:00</time>
      </trkpt>
      <trkpt lat="45.29095" lon="-0.68087">
        <ele>48.9</ele>
        <time>2022-08-11T15:54:20.41+02:00</time>
      </trkpt>
      <trkpt lat="45.29085" lon="-0.68083">
        <ele>49</ele>
        <time>2022-08-11T15:54:22.41+02:00</time>
      </trkpt>
      <trkpt lat="45.29074" lon="-0.68079">
        <ele>48.6</ele>
        <time>2022-08-11T15:54:24.415+02:00</time>
      </trkpt>
      <trkpt lat="45.29063" lon="-0.68077">
        <ele>48.5</ele>
        <time>2022-08-11T15:54:26.414+02:00</time>
      </trkpt>
      <trkpt lat="45.29052" lon="-0.68074">
        <ele>48.6</ele>
        <time>2022-08-11T15:54:28.406+02:00</time>
      </trkpt>
      <trkpt lat="45.29041" lon="-0.6807">
        <ele>48.9</ele>
        <time>2022-08-11T15:54:30.421+02:00</time>
      </trkpt>
      <trkpt lat="45.2903" lon="-0.68067">
        <ele>48.6</ele>
        <time>2022-08-11T15:54:32.423+02:00</time>
      </trkpt>
      <trkpt lat="45.29019" lon="-0.68063">
        <ele>48.3</ele>
        <time>2022-08-11T15:54:34.405+02:00</time>
      </trkpt>
      <trkpt lat="45.29008" lon="-0.6806">
        <ele>47.8</ele>
        <time>2022-08-11T15:54:36.436+02:00</time>
      </trkpt>
      <trkpt lat="45.28999" lon="-0.68057">
        <ele>47.5</ele>
        <time>2022-08-11T15:54:38.414+02:00</time>
      </trkpt>
      <trkpt lat="45.28989" lon="-0.68053">
        <ele>47.3</ele>
        <time>2022-08-11T15:54:40.403+02:00</time>
      </trkpt>
      <trkpt lat="45.28978" lon="-0.6805">
        <ele>47.5</ele>
        <time>2022-08-11T15:54:42.414+02:00</time>
      </trkpt>
      <trkpt lat="45.28967" lon="-0.68047">
        <ele>47.9</ele>
        <time>2022-08-11T15:54:44.407+02:00</time>
      </trkpt>
      <trkpt lat="45.28957" lon="-0.68044">
        <ele>48.4</ele>
        <time>2022-08-11T15:54:46.418+02:00</time>
      </trkpt>
      <trkpt lat="45.28946" lon="-0.6804">
        <ele>48.4</ele>
        <time>2022-08-11T15:54:48.413+02:00</time>
      </trkpt>
      <trkpt lat="45.28935" lon="-0.68037">
        <ele>48.5</ele>
        <time>2022-08-11T15:54:50.415+02:00</time>
      </trkpt>
      <trkpt lat="45.28924" lon="-0.68035">
        <ele>48.6</ele>
        <time>2022-08-11T15:54:52.416+02:00</time>
      </trkpt>
      <trkpt lat="45.28914" lon="-0.68031">
        <ele>48.7</ele>
        <time>2022-08-11T15:54:54.407+02:00</time>
      </trkpt>
      <trkpt lat="45.28903" lon="-0.68027">
        <ele>48.5</ele>
        <time>2022-08-11T15:54:56.418+02:00</time>
      </trkpt>
      <trkpt lat="45.28893" lon="-0.68024">
        <ele>49.1</ele>
        <time>2022-08-11T15:54:58.415+02:00</time>
      </trkpt>
      <trkpt lat="45.28883" lon="-0.68022">
        <ele>49.1</ele>
        <time>2022-08-11T15:55:00.408+02:00</time>
      </trkpt>
      <trkpt lat="45.28873" lon="-0.68019">
        <ele>49.7</ele>
        <time>2022-08-11T15:55:02.428+02:00</time>
      </trkpt>
      <trkpt lat="45.28863" lon="-0.68016">
        <ele>49.6</ele>
        <time>2022-08-11T15:55:04.407+02:00</time>
      </trkpt>
      <trkpt lat="45.28854" lon="-0.68012">
        <ele>49.3</ele>
        <time>2022-08-11T15:55:06.409+02:00</time>
      </trkpt>
      <trkpt lat="45.28843" lon="-0.68009">
        <ele>49.3</ele>
        <time>2022-08-11T15:55:08.419+02:00</time>
      </trkpt>
      <trkpt lat="45.28834" lon="-0.68006">
        <ele>49</ele>
        <time>2022-08-11T15:55:10.424+02:00</time>
      </trkpt>
      <trkpt lat="45.28823" lon="-0.68003">
        <ele>48.8</ele>
        <time>2022-08-11T15:55:12.418+02:00</time>
      </trkpt>
      <trkpt lat="45.28813" lon="-0.68">
        <ele>49</ele>
        <time>2022-08-11T15:55:14.407+02:00</time>
      </trkpt>
      <trkpt lat="45.28802" lon="-0.67997">
        <ele>49.3</ele>
        <time>2022-08-11T15:55:16.392+02:00</time>
      </trkpt>
      <trkpt lat="45.28792" lon="-0.67994">
        <ele>49.2</ele>
        <time>2022-08-11T15:55:18.414+02:00</time>
      </trkpt>
      <trkpt lat="45.28782" lon="-0.67991">
        <ele>49.2</ele>
        <time>2022-08-11T15:55:20.394+02:00</time>
      </trkpt>
      <trkpt lat="45.28771" lon="-0.67988">
        <ele>49.3</ele>
        <time>2022-08-11T15:55:22.402+02:00</time>
      </trkpt>
      <trkpt lat="45.28761" lon="-0.67984">
        <ele>49.8</ele>
        <time>2022-08-11T15:55:24.397+02:00</time>
      </trkpt>
      <trkpt lat="45.28751" lon="-0.67981">
        <ele>49.8</ele>
        <time>2022-08-11T15:55:26.395+02:00</time>
      </trkpt>
      <trkpt lat="45.28741" lon="-0.67979">
        <ele>49.4</ele>
        <time>2022-08-11T15:55:28.401+02:00</time>
      </trkpt>
      <trkpt lat="45.28731" lon="-0.67976">
        <ele>49</ele>
        <time>2022-08-11T15:55:30.394+02:00</time>
      </trkpt>
      <trkpt lat="45.28722" lon="-0.67972">
        <ele>48.2</ele>
        <time>2022-08-11T15:55:32.404+02:00</time>
      </trkpt>
      <trkpt lat="45.28713" lon="-0.6797">
        <ele>48.2</ele>
        <time>2022-08-11T15:55:34.408+02:00</time>
      </trkpt>
      <trkpt lat="45.28704" lon="-0.67966">
        <ele>48.4</ele>
        <time>2022-08-11T15:55:36.409+02:00</time>
      </trkpt>
      <trkpt lat="45.28694" lon="-0.67964">
        <ele>48.8</ele>
        <time>2022-08-11T15:55:38.415+02:00</time>
      </trkpt>
      <trkpt lat="45.28683" lon="-0.67961">
        <ele>49.1</ele>
        <time>2022-08-11T15:55:41.414+02:00</time>
      </trkpt>
      <trkpt lat="45.28671" lon="-0.67957">
        <ele>48.3</ele>
        <time>2022-08-11T15:55:44.406+02:00</time>
      </trkpt>
      <trkpt lat="45.28661" lon="-0.67954">
        <ele>48.1</ele>
        <time>2022-08-11T15:55:46.42+02:00</time>
      </trkpt>
      <trkpt lat="45.28652" lon="-0.67951">
        <ele>48.2</ele>
        <time>2022-08-11T15:55:48.395+02:00</time>
      </trkpt>
      <trkpt lat="45.28643" lon="-0.67949">
        <ele>47.5</ele>
        <time>2022-08-11T15:55:50.405+02:00</time>
      </trkpt>
      <trkpt lat="45.28633" lon="-0.67946">
        <ele>47.3</ele>
        <time>2022-08-11T15:55:52.397+02:00</time>
      </trkpt>
      <trkpt lat="45.28622" lon="-0.67942">
        <ele>46.4</ele>
        <time>2022-08-11T15:55:54.396+02:00</time>
      </trkpt>
      <trkpt lat="45.28613" lon="-0.6794">
        <ele>46.8</ele>
        <time>2022-08-11T15:55:56.415+02:00</time>
      </trkpt>
      <trkpt lat="45.28602" lon="-0.67938">
        <ele>47.3</ele>
        <time>2022-08-11T15:55:58.412+02:00</time>
      </trkpt>
      <trkpt lat="45.28592" lon="-0.67935">
        <ele>47.5</ele>
        <time>2022-08-11T15:56:00.411+02:00</time>
      </trkpt>
      <trkpt lat="45.28582" lon="-0.67932">
        <ele>48</ele>
        <time>2022-08-11T15:56:02.411+02:00</time>
      </trkpt>
      <trkpt lat="45.28572" lon="-0.67929">
        <ele>48.2</ele>
        <time>2022-08-11T15:56:04.413+02:00</time>
      </trkpt>
      <trkpt lat="45.28562" lon="-0.67925">
        <ele>47.6</ele>
        <time>2022-08-11T15:56:06.421+02:00</time>
      </trkpt>
      <trkpt lat="45.28552" lon="-0.67922">
        <ele>48.2</ele>
        <time>2022-08-11T15:56:08.419+02:00</time>
      </trkpt>
      <trkpt lat="45.28541" lon="-0.67919">
        <ele>48.7</ele>
        <time>2022-08-11T15:56:10.415+02:00</time>
      </trkpt>
      <trkpt lat="45.2853" lon="-0.67915">
        <ele>49.2</ele>
        <time>2022-08-11T15:56:12.427+02:00</time>
      </trkpt>
      <trkpt lat="45.2852" lon="-0.67912">
        <ele>49.5</ele>
        <time>2022-08-11T15:56:14.415+02:00</time>
      </trkpt>
      <trkpt lat="45.28509" lon="-0.6791">
        <ele>48.9</ele>
        <time>2022-08-11T15:56:16.407+02:00</time>
      </trkpt>
      <trkpt lat="45.28499" lon="-0.67906">
        <ele>48.9</ele>
        <time>2022-08-11T15:56:18.41+02:00</time>
      </trkpt>
      <trkpt lat="45.28489" lon="-0.67903">
        <ele>48.7</ele>
        <time>2022-08-11T15:56:20.424+02:00</time>
      </trkpt>
      <trkpt lat="45.28478" lon="-0.679">
        <ele>48.9</ele>
        <time>2022-08-11T15:56:22.432+02:00</time>
      </trkpt>
      <trkpt lat="45.28467" lon="-0.67896">
        <ele>49.4</ele>
        <time>2022-08-11T15:56:24.417+02:00</time>
      </trkpt>
      <trkpt lat="45.28457" lon="-0.67893">
        <ele>49.6</ele>
        <time>2022-08-11T15:56:26.413+02:00</time>
      </trkpt>
      <trkpt lat="45.28446" lon="-0.6789">
        <ele>49.7</ele>
        <time>2022-08-11T15:56:28.415+02:00</time>
      </trkpt>
      <trkpt lat="45.28436" lon="-0.67887">
        <ele>49.4</ele>
        <time>2022-08-11T15:56:30.408+02:00</time>
      </trkpt>
      <trkpt lat="45.28426" lon="-0.67884">
        <ele>48.7</ele>
        <time>2022-08-11T15:56:32.412+02:00</time>
      </trkpt>
      <trkpt lat="45.28416" lon="-0.67881">
        <ele>48.8</ele>
        <time>2022-08-11T15:56:34.417+02:00</time>
      </trkpt>
      <trkpt lat="45.28405" lon="-0.67879">
        <ele>49.2</ele>
        <time>2022-08-11T15:56:36.412+02:00</time>
      </trkpt>
      <trkpt lat="45.28394" lon="-0.67875">
        <ele>49.3</ele>
        <time>2022-08-11T15:56:38.419+02:00</time>
      </trkpt>
      <trkpt lat="45.28383" lon="-0.67872">
        <ele>49.3</ele>
        <time>2022-08-11T15:56:40.419+02:00</time>
      </trkpt>
      <trkpt lat="45.28372" lon="-0.67868">
        <ele>49.5</ele>
        <time>2022-08-11T15:56:42.413+02:00</time>
      </trkpt>
      <trkpt lat="45.28362" lon="-0.67866">
        <ele>50.3</ele>
        <time>2022-08-11T15:56:44.405+02:00</time>
      </trkpt>
      <trkpt lat="45.28352" lon="-0.67862">
        <ele>49.9</ele>
        <time>2022-08-11T15:56:46.42+02:00</time>
      </trkpt>
      <trkpt lat="45.28342" lon="-0.67858">
        <ele>48.9</ele>
        <time>2022-08-11T15:56:48.421+02:00</time>
      </trkpt>
      <trkpt lat="45.28331" lon="-0.67855">
        <ele>48.6</ele>
        <time>2022-08-11T15:56:50.402+02:00</time>
      </trkpt>
      <trkpt lat="45.28321" lon="-0.67852">
        <ele>48.2</ele>
        <time>2022-08-11T15:56:52.421+02:00</time>
      </trkpt>
      <trkpt lat="45.28311" lon="-0.67848">
        <ele>47.6</ele>
        <time>2022-08-11T15:56:54.413+02:00</time>
      </trkpt>
      <trkpt lat="45.28299" lon="-0.67845">
        <ele>48</ele>
        <time>2022-08-11T15:56:56.416+02:00</time>
      </trkpt>
      <trkpt lat="45.28288" lon="-0.67842">
        <ele>48</ele>
        <time>2022-08-11T15:56:58.421+02:00</time>
      </trkpt>
      <trkpt lat="45.28276" lon="-0.67839">
        <ele>48.9</ele>
        <time>2022-08-11T15:57:00.405+02:00</time>
      </trkpt>
      <trkpt lat="45.28266" lon="-0.67837">
        <ele>48.6</ele>
        <time>2022-08-11T15:57:02.413+02:00</time>
      </trkpt>
      <trkpt lat="45.28254" lon="-0.67834">
        <ele>48.6</ele>
        <time>2022-08-11T15:57:04.404+02:00</time>
      </trkpt>
      <trkpt lat="45.28244" lon="-0.6783">
        <ele>48.8</ele>
        <time>2022-08-11T15:57:06.415+02:00</time>
      </trkpt>
      <trkpt lat="45.28233" lon="-0.67827">
        <ele>48.7</ele>
        <time>2022-08-11T15:57:08.426+02:00</time>
      </trkpt>
      <trkpt lat="45.28222" lon="-0.67824">
        <ele>48.8</ele>
        <time>2022-08-11T15:57:10.428+02:00</time>
      </trkpt>
      <trkpt lat="45.28211" lon="-0.67821">
        <ele>49.3</ele>
        <time>2022-08-11T15:57:12.415+02:00</time>
      </trkpt>
      <trkpt lat="45.282" lon="-0.67818">
        <ele>49.1</ele>
        <time>2022-08-11T15:57:14.405+02:00</time>
      </trkpt>
      <trkpt lat="45.28189" lon="-0.67815">
        <ele>49.2</ele>
        <time>2022-08-11T15:57:16.415+02:00</time>
      </trkpt>
      <trkpt lat="45.28179" lon="-0.67811">
        <ele>49.3</ele>
        <time>2022-08-11T15:57:18.424+02:00</time>
      </trkpt>
      <trkpt lat="45.28167" lon="-0.67808">
        <ele>49.4</ele>
        <time>2022-08-11T15:57:20.417+02:00</time>
      </trkpt>
      <trkpt lat="45.28156" lon="-0.67805">
        <ele>49.3</ele>
        <time>2022-08-11T15:57:22.411+02:00</time>
      </trkpt>
      <trkpt lat="45.28144" lon="-0.67802">
        <ele>49.5</ele>
        <time>2022-08-11T15:57:24.406+02:00</time>
      </trkpt>
      <trkpt lat="45.28133" lon="-0.67798">
        <ele>49.5</ele>
        <time>2022-08-11T15:57:26.425+02:00</time>
      </trkpt>
      <trkpt lat="45.28121" lon="-0.67795">
        <ele>49.2</ele>
        <time>2022-08-11T15:57:28.413+02:00</time>
      </trkpt>
      <trkpt lat="45.28109" lon="-0.67791">
        <ele>49.4</ele>
        <time>2022-08-11T15:57:30.428+02:00</time>
      </trkpt>
      <trkpt lat="45.28098" lon="-0.67788">
        <ele>49.9</ele>
        <time>2022-08-11T15:57:32.42+02:00</time>
      </trkpt>
      <trkpt lat="45.28086" lon="-0.67784">
        <ele>50</ele>
        <time>2022-08-11T15:57:34.405+02:00</time>
      </trkpt>
      <trkpt lat="45.28075" lon="-0.6778">
        <ele>49.8</ele>
        <time>2022-08-11T15:57:36.418+02:00</time>
      </trkpt>
      <trkpt lat="45.28064" lon="-0.67776">
        <ele>50.1</ele>
        <time>2022-08-11T15:57:38.424+02:00</time>
      </trkpt>
      <trkpt lat="45.28053" lon="-0.67772">
        <ele>49.4</ele>
        <time>2022-08-11T15:57:40.426+02:00</time>
      </trkpt>
      <trkpt lat="45.28042" lon="-0.67769">
        <ele>49.4</ele>
        <time>2022-08-11T15:57:42.426+02:00</time>
      </trkpt>
      <trkpt lat="45.28032" lon="-0.67765">
        <ele>49.7</ele>
        <time>2022-08-11T15:57:44.408+02:00</time>
      </trkpt>
      <trkpt lat="45.2802" lon="-0.67762">
        <ele>49.6</ele>
        <time>2022-08-11T15:57:46.421+02:00</time>
      </trkpt>
      <trkpt lat="45.28009" lon="-0.67759">
        <ele>49.8</ele>
        <time>2022-08-11T15:57:48.426+02:00</time>
      </trkpt>
      <trkpt lat="45.27998" lon="-0.67756">
        <ele>49.5</ele>
        <time>2022-08-11T15:57:50.416+02:00</time>
      </trkpt>
      <trkpt lat="45.27986" lon="-0.67752">
        <ele>49.2</ele>
        <time>2022-08-11T15:57:52.419+02:00</time>
      </trkpt>
      <trkpt lat="45.27975" lon="-0.67749">
        <ele>49</ele>
        <time>2022-08-11T15:57:54.415+02:00</time>
      </trkpt>
      <trkpt lat="45.27963" lon="-0.67745">
        <ele>48.9</ele>
        <time>2022-08-11T15:57:56.403+02:00</time>
      </trkpt>
      <trkpt lat="45.27952" lon="-0.67743">
        <ele>48.9</ele>
        <time>2022-08-11T15:57:58.415+02:00</time>
      </trkpt>
      <trkpt lat="45.27941" lon="-0.67739">
        <ele>48.5</ele>
        <time>2022-08-11T15:58:00.415+02:00</time>
      </trkpt>
      <trkpt lat="45.27929" lon="-0.67735">
        <ele>48.1</ele>
        <time>2022-08-11T15:58:02.423+02:00</time>
      </trkpt>
      <trkpt lat="45.27918" lon="-0.67732">
        <ele>48.5</ele>
        <time>2022-08-11T15:58:04.417+02:00</time>
      </trkpt>
      <trkpt lat="45.27906" lon="-0.67728">
        <ele>48.2</ele>
        <time>2022-08-11T15:58:06.423+02:00</time>
      </trkpt>
      <trkpt lat="45.27894" lon="-0.67725">
        <ele>48.5</ele>
        <time>2022-08-11T15:58:08.419+02:00</time>
      </trkpt>
      <trkpt lat="45.27883" lon="-0.67721">
        <ele>49.2</ele>
        <time>2022-08-11T15:58:10.415+02:00</time>
      </trkpt>
      <trkpt lat="45.27871" lon="-0.67718">
        <ele>48.9</ele>
        <time>2022-08-11T15:58:12.418+02:00</time>
      </trkpt>
      <trkpt lat="45.27859" lon="-0.67715">
        <ele>49.2</ele>
        <time>2022-08-11T15:58:14.404+02:00</time>
      </trkpt>
      <trkpt lat="45.27848" lon="-0.67712">
        <ele>49.4</ele>
        <time>2022-08-11T15:58:16.419+02:00</time>
      </trkpt>
      <trkpt lat="45.27837" lon="-0.67708">
        <ele>49.2</ele>
        <time>2022-08-11T15:58:18.414+02:00</time>
      </trkpt>
      <trkpt lat="45.27825" lon="-0.67705">
        <ele>48.7</ele>
        <time>2022-08-11T15:58:20.417+02:00</time>
      </trkpt>
      <trkpt lat="45.27813" lon="-0.67701">
        <ele>49.1</ele>
        <time>2022-08-11T15:58:22.428+02:00</time>
      </trkpt>
      <trkpt lat="45.27801" lon="-0.67698">
        <ele>48.8</ele>
        <time>2022-08-11T15:58:24.397+02:00</time>
      </trkpt>
      <trkpt lat="45.27789" lon="-0.67694">
        <ele>49.1</ele>
        <time>2022-08-11T15:58:26.427+02:00</time>
      </trkpt>
      <trkpt lat="45.27777" lon="-0.6769">
        <ele>49.1</ele>
        <time>2022-08-11T15:58:28.413+02:00</time>
      </trkpt>
      <trkpt lat="45.27765" lon="-0.67687">
        <ele>49.2</ele>
        <time>2022-08-11T15:58:30.412+02:00</time>
      </trkpt>
      <trkpt lat="45.27754" lon="-0.67683">
        <ele>49.3</ele>
        <time>2022-08-11T15:58:32.414+02:00</time>
      </trkpt>
      <trkpt lat="45.27743" lon="-0.6768">
        <ele>49.4</ele>
        <time>2022-08-11T15:58:34.406+02:00</time>
      </trkpt>
      <trkpt lat="45.27731" lon="-0.67676">
        <ele>49.3</ele>
        <time>2022-08-11T15:58:36.426+02:00</time>
      </trkpt>
      <trkpt lat="45.27719" lon="-0.67673">
        <ele>50.1</ele>
        <time>2022-08-11T15:58:38.418+02:00</time>
      </trkpt>
      <trkpt lat="45.27708" lon="-0.6767">
        <ele>50.2</ele>
        <time>2022-08-11T15:58:40.414+02:00</time>
      </trkpt>
      <trkpt lat="45.27696" lon="-0.67666">
        <ele>50.3</ele>
        <time>2022-08-11T15:58:42.416+02:00</time>
      </trkpt>
      <trkpt lat="45.27685" lon="-0.67662">
        <ele>50</ele>
        <time>2022-08-11T15:58:44.404+02:00</time>
      </trkpt>
      <trkpt lat="45.27674" lon="-0.67659">
        <ele>50.2</ele>
        <time>2022-08-11T15:58:46.41+02:00</time>
      </trkpt>
      <trkpt lat="45.27662" lon="-0.67655">
        <ele>50.1</ele>
        <time>2022-08-11T15:58:48.412+02:00</time>
      </trkpt>
      <trkpt lat="45.2765" lon="-0.67652">
        <ele>50.2</ele>
        <time>2022-08-11T15:58:50.414+02:00</time>
      </trkpt>
      <trkpt lat="45.27639" lon="-0.67648">
        <ele>50.1</ele>
        <time>2022-08-11T15:58:52.414+02:00</time>
      </trkpt>
      <trkpt lat="45.27628" lon="-0.67645">
        <ele>50.4</ele>
        <time>2022-08-11T15:58:54.402+02:00</time>
      </trkpt>
      <trkpt lat="45.27618" lon="-0.67642">
        <ele>50.5</ele>
        <time>2022-08-11T15:58:56.407+02:00</time>
      </trkpt>
      <trkpt lat="45.27607" lon="-0.67638">
        <ele>50.4</ele>
        <time>2022-08-11T15:58:58.411+02:00</time>
      </trkpt>
      <trkpt lat="45.27596" lon="-0.67635">
        <ele>50.3</ele>
        <time>2022-08-11T15:59:00.407+02:00</time>
      </trkpt>
      <trkpt lat="45.27585" lon="-0.67631">
        <ele>49.9</ele>
        <time>2022-08-11T15:59:02.422+02:00</time>
      </trkpt>
      <trkpt lat="45.27574" lon="-0.67628">
        <ele>49.8</ele>
        <time>2022-08-11T15:59:04.414+02:00</time>
      </trkpt>
      <trkpt lat="45.27563" lon="-0.67624">
        <ele>49.5</ele>
        <time>2022-08-11T15:59:06.411+02:00</time>
      </trkpt>
      <trkpt lat="45.27552" lon="-0.67621">
        <ele>50</ele>
        <time>2022-08-11T15:59:08.413+02:00</time>
      </trkpt>
      <trkpt lat="45.27541" lon="-0.67618">
        <ele>50.2</ele>
        <time>2022-08-11T15:59:10.423+02:00</time>
      </trkpt>
      <trkpt lat="45.2753" lon="-0.67615">
        <ele>50.3</ele>
        <time>2022-08-11T15:59:12.417+02:00</time>
      </trkpt>
      <trkpt lat="45.27519" lon="-0.67612">
        <ele>50.5</ele>
        <time>2022-08-11T15:59:14.41+02:00</time>
      </trkpt>
      <trkpt lat="45.27509" lon="-0.67608">
        <ele>50.5</ele>
        <time>2022-08-11T15:59:16.427+02:00</time>
      </trkpt>
      <trkpt lat="45.27498" lon="-0.67605">
        <ele>50.7</ele>
        <time>2022-08-11T15:59:18.421+02:00</time>
      </trkpt>
      <trkpt lat="45.27488" lon="-0.67602">
        <ele>50.9</ele>
        <time>2022-08-11T15:59:20.43+02:00</time>
      </trkpt>
      <trkpt lat="45.27477" lon="-0.67598">
        <ele>51.1</ele>
        <time>2022-08-11T15:59:22.412+02:00</time>
      </trkpt>
      <trkpt lat="45.27466" lon="-0.67595">
        <ele>51.3</ele>
        <time>2022-08-11T15:59:24.41+02:00</time>
      </trkpt>
      <trkpt lat="45.27454" lon="-0.67592">
        <ele>51.2</ele>
        <time>2022-08-11T15:59:26.402+02:00</time>
      </trkpt>
      <trkpt lat="45.27442" lon="-0.67588">
        <ele>51.1</ele>
        <time>2022-08-11T15:59:28.419+02:00</time>
      </trkpt>
      <trkpt lat="45.27431" lon="-0.67585">
        <ele>51.1</ele>
        <time>2022-08-11T15:59:30.418+02:00</time>
      </trkpt>
      <trkpt lat="45.2742" lon="-0.67581">
        <ele>51</ele>
        <time>2022-08-11T15:59:32.406+02:00</time>
      </trkpt>
      <trkpt lat="45.27409" lon="-0.67579">
        <ele>51</ele>
        <time>2022-08-11T15:59:34.41+02:00</time>
      </trkpt>
      <trkpt lat="45.27398" lon="-0.67575">
        <ele>50.7</ele>
        <time>2022-08-11T15:59:36.421+02:00</time>
      </trkpt>
      <trkpt lat="45.27387" lon="-0.67573">
        <ele>51</ele>
        <time>2022-08-11T15:59:38.421+02:00</time>
      </trkpt>
      <trkpt lat="45.27376" lon="-0.6757">
        <ele>50.9</ele>
        <time>2022-08-11T15:59:40.418+02:00</time>
      </trkpt>
      <trkpt lat="45.27365" lon="-0.67566">
        <ele>50.9</ele>
        <time>2022-08-11T15:59:42.411+02:00</time>
      </trkpt>
      <trkpt lat="45.27354" lon="-0.67563">
        <ele>51.2</ele>
        <time>2022-08-11T15:59:44.401+02:00</time>
      </trkpt>
      <trkpt lat="45.27343" lon="-0.6756">
        <ele>51</ele>
        <time>2022-08-11T15:59:46.426+02:00</time>
      </trkpt>
      <trkpt lat="45.27332" lon="-0.67557">
        <ele>51.1</ele>
        <time>2022-08-11T15:59:48.416+02:00</time>
      </trkpt>
      <trkpt lat="45.27321" lon="-0.67554">
        <ele>50.7</ele>
        <time>2022-08-11T15:59:50.426+02:00</time>
      </trkpt>
      <trkpt lat="45.2731" lon="-0.67551">
        <ele>51</ele>
        <time>2022-08-11T15:59:52.435+02:00</time>
      </trkpt>
      <trkpt lat="45.273" lon="-0.67547">
        <ele>50.7</ele>
        <time>2022-08-11T15:59:54.408+02:00</time>
      </trkpt>
      <trkpt lat="45.27289" lon="-0.67544">
        <ele>50.4</ele>
        <time>2022-08-11T15:59:56.419+02:00</time>
      </trkpt>
      <trkpt lat="45.27278" lon="-0.6754">
        <ele>50.2</ele>
        <time>2022-08-11T15:59:58.415+02:00</time>
      </trkpt>
      <trkpt lat="45.27267" lon="-0.67537">
        <ele>49.8</ele>
        <time>2022-08-11T16:00:00.408+02:00</time>
      </trkpt>
      <trkpt lat="45.27255" lon="-0.67533">
        <ele>49.7</ele>
        <time>2022-08-11T16:00:02.42+02:00</time>
      </trkpt>
      <trkpt lat="45.27243" lon="-0.6753">
        <ele>49.7</ele>
        <time>2022-08-11T16:00:04.406+02:00</time>
      </trkpt>
      <trkpt lat="45.27231" lon="-0.67526">
        <ele>49.8</ele>
        <time>2022-08-11T16:00:06.428+02:00</time>
      </trkpt>
      <trkpt lat="45.2722" lon="-0.67522">
        <ele>49.9</ele>
        <time>2022-08-11T16:00:08.422+02:00</time>
      </trkpt>
      <trkpt lat="45.27208" lon="-0.67519">
        <ele>50</ele>
        <time>2022-08-11T16:00:10.419+02:00</time>
      </trkpt>
      <trkpt lat="45.27197" lon="-0.67516">
        <ele>50.1</ele>
        <time>2022-08-11T16:00:12.413+02:00</time>
      </trkpt>
      <trkpt lat="45.27185" lon="-0.67513">
        <ele>50.2</ele>
        <time>2022-08-11T16:00:14.403+02:00</time>
      </trkpt>
      <trkpt lat="45.27174" lon="-0.6751">
        <ele>50.3</ele>
        <time>2022-08-11T16:00:16.422+02:00</time>
      </trkpt>
      <trkpt lat="45.27163" lon="-0.67506">
        <ele>50.5</ele>
        <time>2022-08-11T16:00:18.427+02:00</time>
      </trkpt>
      <trkpt lat="45.27152" lon="-0.67503">
        <ele>50.6</ele>
        <time>2022-08-11T16:00:20.427+02:00</time>
      </trkpt>
      <trkpt lat="45.2714" lon="-0.675">
        <ele>50.7</ele>
        <time>2022-08-11T16:00:22.419+02:00</time>
      </trkpt>
      <trkpt lat="45.2713" lon="-0.67497">
        <ele>50.6</ele>
        <time>2022-08-11T16:00:24.409+02:00</time>
      </trkpt>
      <trkpt lat="45.2712" lon="-0.67492">
        <ele>49.9</ele>
        <time>2022-08-11T16:00:26.418+02:00</time>
      </trkpt>
      <trkpt lat="45.27109" lon="-0.67489">
        <ele>50</ele>
        <time>2022-08-11T16:00:28.415+02:00</time>
      </trkpt>
      <trkpt lat="45.27098" lon="-0.67485">
        <ele>50.1</ele>
        <time>2022-08-11T16:00:30.415+02:00</time>
      </trkpt>
      <trkpt lat="45.27086" lon="-0.67482">
        <ele>50.5</ele>
        <time>2022-08-11T16:00:32.403+02:00</time>
      </trkpt>
      <trkpt lat="45.27076" lon="-0.67479">
        <ele>50.2</ele>
        <time>2022-08-11T16:00:34.401+02:00</time>
      </trkpt>
      <trkpt lat="45.27065" lon="-0.67476">
        <ele>50.6</ele>
        <time>2022-08-11T16:00:36.399+02:00</time>
      </trkpt>
      <trkpt lat="45.27053" lon="-0.67473">
        <ele>50.9</ele>
        <time>2022-08-11T16:00:38.411+02:00</time>
      </trkpt>
      <trkpt lat="45.27042" lon="-0.67469">
        <ele>50</ele>
        <time>2022-08-11T16:00:40.433+02:00</time>
      </trkpt>
      <trkpt lat="45.27031" lon="-0.67466">
        <ele>50.8</ele>
        <time>2022-08-11T16:00:42.413+02:00</time>
      </trkpt>
      <trkpt lat="45.2702" lon="-0.67462">
        <ele>50.5</ele>
        <time>2022-08-11T16:00:44.391+02:00</time>
      </trkpt>
      <trkpt lat="45.2701" lon="-0.67459">
        <ele>50.2</ele>
        <time>2022-08-11T16:00:46.393+02:00</time>
      </trkpt>
      <trkpt lat="45.26998" lon="-0.67456">
        <ele>49.9</ele>
        <time>2022-08-11T16:00:48.401+02:00</time>
      </trkpt>
      <trkpt lat="45.26987" lon="-0.67453">
        <ele>49.8</ele>
        <time>2022-08-11T16:00:50.421+02:00</time>
      </trkpt>
      <trkpt lat="45.26975" lon="-0.6745">
        <ele>49.3</ele>
        <time>2022-08-11T16:00:52.427+02:00</time>
      </trkpt>
      <trkpt lat="45.26964" lon="-0.67446">
        <ele>49.3</ele>
        <time>2022-08-11T16:00:54.406+02:00</time>
      </trkpt>
      <trkpt lat="45.26954" lon="-0.67443">
        <ele>49.1</ele>
        <time>2022-08-11T16:00:56.416+02:00</time>
      </trkpt>
      <trkpt lat="45.26942" lon="-0.6744">
        <ele>48.8</ele>
        <time>2022-08-11T16:00:58.416+02:00</time>
      </trkpt>
      <trkpt lat="45.26932" lon="-0.67436">
        <ele>48.5</ele>
        <time>2022-08-11T16:01:00.428+02:00</time>
      </trkpt>
      <trkpt lat="45.26921" lon="-0.67433">
        <ele>48.5</ele>
        <time>2022-08-11T16:01:02.42+02:00</time>
      </trkpt>
      <trkpt lat="45.2691" lon="-0.6743">
        <ele>49.1</ele>
        <time>2022-08-11T16:01:04.401+02:00</time>
      </trkpt>
      <trkpt lat="45.26899" lon="-0.67427">
        <ele>49.7</ele>
        <time>2022-08-11T16:01:06.396+02:00</time>
      </trkpt>
      <trkpt lat="45.26889" lon="-0.67424">
        <ele>49.7</ele>
        <time>2022-08-11T16:01:08.397+02:00</time>
      </trkpt>
      <trkpt lat="45.26878" lon="-0.6742">
        <ele>49.7</ele>
        <time>2022-08-11T16:01:10.408+02:00</time>
      </trkpt>
      <trkpt lat="45.26867" lon="-0.67418">
        <ele>50</ele>
        <time>2022-08-11T16:01:12.415+02:00</time>
      </trkpt>
      <trkpt lat="45.26856" lon="-0.67414">
        <ele>50.4</ele>
        <time>2022-08-11T16:01:14.391+02:00</time>
      </trkpt>
      <trkpt lat="45.26846" lon="-0.67411">
        <ele>50.4</ele>
        <time>2022-08-11T16:01:16.412+02:00</time>
      </trkpt>
      <trkpt lat="45.26836" lon="-0.67407">
        <ele>50</ele>
        <time>2022-08-11T16:01:18.409+02:00</time>
      </trkpt>
      <trkpt lat="45.26825" lon="-0.67405">
        <ele>50</ele>
        <time>2022-08-11T16:01:20.407+02:00</time>
      </trkpt>
      <trkpt lat="45.26815" lon="-0.67402">
        <ele>49.4</ele>
        <time>2022-08-11T16:01:22.414+02:00</time>
      </trkpt>
      <trkpt lat="45.26804" lon="-0.67398">
        <ele>49.6</ele>
        <time>2022-08-11T16:01:24.395+02:00</time>
      </trkpt>
      <trkpt lat="45.26793" lon="-0.67396">
        <ele>49.9</ele>
        <time>2022-08-11T16:01:26.412+02:00</time>
      </trkpt>
      <trkpt lat="45.26782" lon="-0.67392">
        <ele>50.1</ele>
        <time>2022-08-11T16:01:28.429+02:00</time>
      </trkpt>
      <trkpt lat="45.26771" lon="-0.67389">
        <ele>50.2</ele>
        <time>2022-08-11T16:01:30.418+02:00</time>
      </trkpt>
      <trkpt lat="45.26761" lon="-0.67386">
        <ele>50.4</ele>
        <time>2022-08-11T16:01:32.409+02:00</time>
      </trkpt>
      <trkpt lat="45.2675" lon="-0.67383">
        <ele>50.4</ele>
        <time>2022-08-11T16:01:34.399+02:00</time>
      </trkpt>
      <trkpt lat="45.2674" lon="-0.6738">
        <ele>50.6</ele>
        <time>2022-08-11T16:01:36.4+02:00</time>
      </trkpt>
      <trkpt lat="45.2673" lon="-0.67378">
        <ele>50.9</ele>
        <time>2022-08-11T16:01:38.393+02:00</time>
      </trkpt>
      <trkpt lat="45.2672" lon="-0.67374">
        <ele>51</ele>
        <time>2022-08-11T16:01:40.425+02:00</time>
      </trkpt>
      <trkpt lat="45.26709" lon="-0.67371">
        <ele>51</ele>
        <time>2022-08-11T16:01:42.423+02:00</time>
      </trkpt>
      <trkpt lat="45.26699" lon="-0.67368">
        <ele>51.4</ele>
        <time>2022-08-11T16:01:44.407+02:00</time>
      </trkpt>
      <trkpt lat="45.26688" lon="-0.67365">
        <ele>51.5</ele>
        <time>2022-08-11T16:01:46.418+02:00</time>
      </trkpt>
      <trkpt lat="45.26678" lon="-0.67361">
        <ele>51.4</ele>
        <time>2022-08-11T16:01:48.42+02:00</time>
      </trkpt>
      <trkpt lat="45.26669" lon="-0.67357">
        <ele>50.9</ele>
        <time>2022-08-11T16:01:50.401+02:00</time>
      </trkpt>
      <trkpt lat="45.26659" lon="-0.67353">
        <ele>50.6</ele>
        <time>2022-08-11T16:01:52.427+02:00</time>
      </trkpt>
      <trkpt lat="45.26649" lon="-0.6735">
        <ele>50.6</ele>
        <time>2022-08-11T16:01:54.41+02:00</time>
      </trkpt>
      <trkpt lat="45.26639" lon="-0.67348">
        <ele>50.7</ele>
        <time>2022-08-11T16:01:56.42+02:00</time>
      </trkpt>
      <trkpt lat="45.26629" lon="-0.67345">
        <ele>50.6</ele>
        <time>2022-08-11T16:01:58.42+02:00</time>
      </trkpt>
      <trkpt lat="45.26619" lon="-0.67342">
        <ele>50.6</ele>
        <time>2022-08-11T16:02:00.423+02:00</time>
      </trkpt>
      <trkpt lat="45.26609" lon="-0.67339">
        <ele>50.6</ele>
        <time>2022-08-11T16:02:02.429+02:00</time>
      </trkpt>
      <trkpt lat="45.26598" lon="-0.67336">
        <ele>50.4</ele>
        <time>2022-08-11T16:02:04.396+02:00</time>
      </trkpt>
      <trkpt lat="45.26587" lon="-0.67333">
        <ele>50.4</ele>
        <time>2022-08-11T16:02:06.414+02:00</time>
      </trkpt>
      <trkpt lat="45.26576" lon="-0.67329">
        <ele>50.5</ele>
        <time>2022-08-11T16:02:08.419+02:00</time>
      </trkpt>
      <trkpt lat="45.26565" lon="-0.67326">
        <ele>50.1</ele>
        <time>2022-08-11T16:02:10.415+02:00</time>
      </trkpt>
      <trkpt lat="45.26554" lon="-0.67323">
        <ele>50.4</ele>
        <time>2022-08-11T16:02:12.411+02:00</time>
      </trkpt>
      <trkpt lat="45.26543" lon="-0.67319">
        <ele>50.7</ele>
        <time>2022-08-11T16:02:14.407+02:00</time>
      </trkpt>
      <trkpt lat="45.26531" lon="-0.67315">
        <ele>51.2</ele>
        <time>2022-08-11T16:02:16.414+02:00</time>
      </trkpt>
      <trkpt lat="45.2652" lon="-0.67312">
        <ele>50.8</ele>
        <time>2022-08-11T16:02:18.413+02:00</time>
      </trkpt>
      <trkpt lat="45.26508" lon="-0.67308">
        <ele>50.3</ele>
        <time>2022-08-11T16:02:20.414+02:00</time>
      </trkpt>
      <trkpt lat="45.26496" lon="-0.67305">
        <ele>50.5</ele>
        <time>2022-08-11T16:02:22.411+02:00</time>
      </trkpt>
      <trkpt lat="45.26484" lon="-0.67301">
        <ele>50.1</ele>
        <time>2022-08-11T16:02:24.4+02:00</time>
      </trkpt>
      <trkpt lat="45.26471" lon="-0.67298">
        <ele>49.9</ele>
        <time>2022-08-11T16:02:26.426+02:00</time>
      </trkpt>
      <trkpt lat="45.2646" lon="-0.67294">
        <ele>50.3</ele>
        <time>2022-08-11T16:02:28.414+02:00</time>
      </trkpt>
      <trkpt lat="45.26448" lon="-0.67291">
        <ele>50.3</ele>
        <time>2022-08-11T16:02:30.41+02:00</time>
      </trkpt>
      <trkpt lat="45.26436" lon="-0.67289">
        <ele>50.6</ele>
        <time>2022-08-11T16:02:32.413+02:00</time>
      </trkpt>
      <trkpt lat="45.26424" lon="-0.67285">
        <ele>50.7</ele>
        <time>2022-08-11T16:02:34.407+02:00</time>
      </trkpt>
      <trkpt lat="45.26413" lon="-0.67281">
        <ele>51</ele>
        <time>2022-08-11T16:02:36.444+02:00</time>
      </trkpt>
      <trkpt lat="45.26402" lon="-0.67278">
        <ele>50.5</ele>
        <time>2022-08-11T16:02:38.405+02:00</time>
      </trkpt>
      <trkpt lat="45.2639" lon="-0.67274">
        <ele>50.9</ele>
        <time>2022-08-11T16:02:40.417+02:00</time>
      </trkpt>
      <trkpt lat="45.26378" lon="-0.6727">
        <ele>50.8</ele>
        <time>2022-08-11T16:02:42.41+02:00</time>
      </trkpt>
      <trkpt lat="45.26366" lon="-0.67267">
        <ele>50.1</ele>
        <time>2022-08-11T16:02:44.394+02:00</time>
      </trkpt>
      <trkpt lat="45.26355" lon="-0.67264">
        <ele>50.1</ele>
        <time>2022-08-11T16:02:46.391+02:00</time>
      </trkpt>
      <trkpt lat="45.26343" lon="-0.67259">
        <ele>49.4</ele>
        <time>2022-08-11T16:02:48.416+02:00</time>
      </trkpt>
      <trkpt lat="45.26332" lon="-0.67256">
        <ele>49.3</ele>
        <time>2022-08-11T16:02:50.424+02:00</time>
      </trkpt>
      <trkpt lat="45.2632" lon="-0.67253">
        <ele>49.9</ele>
        <time>2022-08-11T16:02:52.408+02:00</time>
      </trkpt>
      <trkpt lat="45.26309" lon="-0.67249">
        <ele>50.3</ele>
        <time>2022-08-11T16:02:54.4+02:00</time>
      </trkpt>
      <trkpt lat="45.26298" lon="-0.67246">
        <ele>50.4</ele>
        <time>2022-08-11T16:02:56.411+02:00</time>
      </trkpt>
      <trkpt lat="45.26287" lon="-0.67242">
        <ele>50.4</ele>
        <time>2022-08-11T16:02:58.407+02:00</time>
      </trkpt>
      <trkpt lat="45.26276" lon="-0.6724">
        <ele>50.4</ele>
        <time>2022-08-11T16:03:00.414+02:00</time>
      </trkpt>
      <trkpt lat="45.26265" lon="-0.67237">
        <ele>50.8</ele>
        <time>2022-08-11T16:03:02.423+02:00</time>
      </trkpt>
      <trkpt lat="45.26254" lon="-0.67233">
        <ele>50.8</ele>
        <time>2022-08-11T16:03:04.411+02:00</time>
      </trkpt>
      <trkpt lat="45.26243" lon="-0.6723">
        <ele>51.6</ele>
        <time>2022-08-11T16:03:06.407+02:00</time>
      </trkpt>
      <trkpt lat="45.26232" lon="-0.67227">
        <ele>52.1</ele>
        <time>2022-08-11T16:03:08.414+02:00</time>
      </trkpt>
      <trkpt lat="45.26222" lon="-0.67224">
        <ele>52</ele>
        <time>2022-08-11T16:03:10.415+02:00</time>
      </trkpt>
      <trkpt lat="45.26211" lon="-0.67221">
        <ele>51.4</ele>
        <time>2022-08-11T16:03:12.424+02:00</time>
      </trkpt>
      <trkpt lat="45.262" lon="-0.67218">
        <ele>51.2</ele>
        <time>2022-08-11T16:03:14.423+02:00</time>
      </trkpt>
      <trkpt lat="45.26189" lon="-0.67215">
        <ele>51.3</ele>
        <time>2022-08-11T16:03:16.416+02:00</time>
      </trkpt>
      <trkpt lat="45.26178" lon="-0.6721">
        <ele>51.4</ele>
        <time>2022-08-11T16:03:18.423+02:00</time>
      </trkpt>
      <trkpt lat="45.26167" lon="-0.67208">
        <ele>51.7</ele>
        <time>2022-08-11T16:03:20.429+02:00</time>
      </trkpt>
      <trkpt lat="45.26156" lon="-0.67205">
        <ele>51.8</ele>
        <time>2022-08-11T16:03:22.421+02:00</time>
      </trkpt>
      <trkpt lat="45.26146" lon="-0.67201">
        <ele>51.9</ele>
        <time>2022-08-11T16:03:24.413+02:00</time>
      </trkpt>
      <trkpt lat="45.26134" lon="-0.67197">
        <ele>51.6</ele>
        <time>2022-08-11T16:03:26.421+02:00</time>
      </trkpt>
      <trkpt lat="45.26124" lon="-0.67194">
        <ele>52.1</ele>
        <time>2022-08-11T16:03:28.395+02:00</time>
      </trkpt>
      <trkpt lat="45.26112" lon="-0.67191">
        <ele>51.9</ele>
        <time>2022-08-11T16:03:30.412+02:00</time>
      </trkpt>
      <trkpt lat="45.26102" lon="-0.67187">
        <ele>51.3</ele>
        <time>2022-08-11T16:03:32.421+02:00</time>
      </trkpt>
      <trkpt lat="45.26091" lon="-0.67183">
        <ele>50.7</ele>
        <time>2022-08-11T16:03:34.403+02:00</time>
      </trkpt>
      <trkpt lat="45.26081" lon="-0.6718">
        <ele>50.8</ele>
        <time>2022-08-11T16:03:36.414+02:00</time>
      </trkpt>
      <trkpt lat="45.26069" lon="-0.67177">
        <ele>50.5</ele>
        <time>2022-08-11T16:03:38.408+02:00</time>
      </trkpt>
      <trkpt lat="45.26058" lon="-0.67174">
        <ele>50.6</ele>
        <time>2022-08-11T16:03:40.408+02:00</time>
      </trkpt>
      <trkpt lat="45.26047" lon="-0.6717">
        <ele>50.4</ele>
        <time>2022-08-11T16:03:42.416+02:00</time>
      </trkpt>
      <trkpt lat="45.26036" lon="-0.67167">
        <ele>50.7</ele>
        <time>2022-08-11T16:03:44.403+02:00</time>
      </trkpt>
      <trkpt lat="45.26025" lon="-0.67163">
        <ele>50.6</ele>
        <time>2022-08-11T16:03:46.413+02:00</time>
      </trkpt>
      <trkpt lat="45.26014" lon="-0.6716">
        <ele>50.7</ele>
        <time>2022-08-11T16:03:48.423+02:00</time>
      </trkpt>
      <trkpt lat="45.26002" lon="-0.67157">
        <ele>51.1</ele>
        <time>2022-08-11T16:03:50.414+02:00</time>
      </trkpt>
      <trkpt lat="45.25991" lon="-0.67153">
        <ele>51.2</ele>
        <time>2022-08-11T16:03:52.411+02:00</time>
      </trkpt>
      <trkpt lat="45.2598" lon="-0.6715">
        <ele>50.9</ele>
        <time>2022-08-11T16:03:54.408+02:00</time>
      </trkpt>
      <trkpt lat="45.25968" lon="-0.67147">
        <ele>50.9</ele>
        <time>2022-08-11T16:03:56.417+02:00</time>
      </trkpt>
      <trkpt lat="45.25957" lon="-0.67144">
        <ele>51.3</ele>
        <time>2022-08-11T16:03:58.422+02:00</time>
      </trkpt>
      <trkpt lat="45.25945" lon="-0.6714">
        <ele>51.5</ele>
        <time>2022-08-11T16:04:00.414+02:00</time>
      </trkpt>
      <trkpt lat="45.25933" lon="-0.67137">
        <ele>51.4</ele>
        <time>2022-08-11T16:04:02.416+02:00</time>
      </trkpt>
      <trkpt lat="45.25921" lon="-0.67134">
        <ele>51.8</ele>
        <time>2022-08-11T16:04:04.414+02:00</time>
      </trkpt>
      <trkpt lat="45.25909" lon="-0.6713">
        <ele>52.1</ele>
        <time>2022-08-11T16:04:06.412+02:00</time>
      </trkpt>
      <trkpt lat="45.25898" lon="-0.67127">
        <ele>52.3</ele>
        <time>2022-08-11T16:04:08.423+02:00</time>
      </trkpt>
      <trkpt lat="45.25886" lon="-0.67123">
        <ele>52.2</ele>
        <time>2022-08-11T16:04:10.423+02:00</time>
      </trkpt>
      <trkpt lat="45.25875" lon="-0.6712">
        <ele>52.2</ele>
        <time>2022-08-11T16:04:12.414+02:00</time>
      </trkpt>
      <trkpt lat="45.25863" lon="-0.67116">
        <ele>51.8</ele>
        <time>2022-08-11T16:04:14.409+02:00</time>
      </trkpt>
      <trkpt lat="45.25852" lon="-0.67113">
        <ele>51.9</ele>
        <time>2022-08-11T16:04:16.417+02:00</time>
      </trkpt>
      <trkpt lat="45.25841" lon="-0.67109">
        <ele>51.5</ele>
        <time>2022-08-11T16:04:18.415+02:00</time>
      </trkpt>
      <trkpt lat="45.2583" lon="-0.67106">
        <ele>51.2</ele>
        <time>2022-08-11T16:04:20.405+02:00</time>
      </trkpt>
      <trkpt lat="45.2582" lon="-0.67103">
        <ele>51.4</ele>
        <time>2022-08-11T16:04:22.427+02:00</time>
      </trkpt>
      <trkpt lat="45.25809" lon="-0.67099">
        <ele>51</ele>
        <time>2022-08-11T16:04:24.415+02:00</time>
      </trkpt>
      <trkpt lat="45.25798" lon="-0.67096">
        <ele>51.3</ele>
        <time>2022-08-11T16:04:26.416+02:00</time>
      </trkpt>
      <trkpt lat="45.25787" lon="-0.67093">
        <ele>50.9</ele>
        <time>2022-08-11T16:04:28.427+02:00</time>
      </trkpt>
      <trkpt lat="45.25776" lon="-0.6709">
        <ele>51</ele>
        <time>2022-08-11T16:04:30.415+02:00</time>
      </trkpt>
      <trkpt lat="45.25766" lon="-0.67087">
        <ele>51.6</ele>
        <time>2022-08-11T16:04:32.409+02:00</time>
      </trkpt>
      <trkpt lat="45.25755" lon="-0.67083">
        <ele>51.6</ele>
        <time>2022-08-11T16:04:34.397+02:00</time>
      </trkpt>
      <trkpt lat="45.25744" lon="-0.67079">
        <ele>51.8</ele>
        <time>2022-08-11T16:04:36.415+02:00</time>
      </trkpt>
      <trkpt lat="45.25734" lon="-0.67077">
        <ele>51.7</ele>
        <time>2022-08-11T16:04:38.413+02:00</time>
      </trkpt>
      <trkpt lat="45.25723" lon="-0.67073">
        <ele>51.4</ele>
        <time>2022-08-11T16:04:40.42+02:00</time>
      </trkpt>
      <trkpt lat="45.25712" lon="-0.6707">
        <ele>51.8</ele>
        <time>2022-08-11T16:04:42.412+02:00</time>
      </trkpt>
      <trkpt lat="45.25702" lon="-0.67068">
        <ele>52</ele>
        <time>2022-08-11T16:04:44.388+02:00</time>
      </trkpt>
      <trkpt lat="45.25691" lon="-0.67065">
        <ele>51.3</ele>
        <time>2022-08-11T16:04:46.393+02:00</time>
      </trkpt>
      <trkpt lat="45.25681" lon="-0.67061">
        <ele>51.6</ele>
        <time>2022-08-11T16:04:48.404+02:00</time>
      </trkpt>
      <trkpt lat="45.25671" lon="-0.67059">
        <ele>51.5</ele>
        <time>2022-08-11T16:04:50.396+02:00</time>
      </trkpt>
      <trkpt lat="45.25661" lon="-0.67056">
        <ele>51</ele>
        <time>2022-08-11T16:04:52.393+02:00</time>
      </trkpt>
      <trkpt lat="45.2565" lon="-0.67053">
        <ele>51</ele>
        <time>2022-08-11T16:04:54.402+02:00</time>
      </trkpt>
      <trkpt lat="45.2564" lon="-0.67049">
        <ele>51.4</ele>
        <time>2022-08-11T16:04:56.421+02:00</time>
      </trkpt>
      <trkpt lat="45.25628" lon="-0.67046">
        <ele>51.9</ele>
        <time>2022-08-11T16:04:58.415+02:00</time>
      </trkpt>
      <trkpt lat="45.25618" lon="-0.67042">
        <ele>51.6</ele>
        <time>2022-08-11T16:05:00.43+02:00</time>
      </trkpt>
      <trkpt lat="45.25607" lon="-0.67039">
        <ele>51.5</ele>
        <time>2022-08-11T16:05:02.422+02:00</time>
      </trkpt>
      <trkpt lat="45.25596" lon="-0.67035">
        <ele>52.1</ele>
        <time>2022-08-11T16:05:04.427+02:00</time>
      </trkpt>
      <trkpt lat="45.25585" lon="-0.67032">
        <ele>51.9</ele>
        <time>2022-08-11T16:05:06.413+02:00</time>
      </trkpt>
      <trkpt lat="45.25574" lon="-0.67028">
        <ele>51.6</ele>
        <time>2022-08-11T16:05:08.414+02:00</time>
      </trkpt>
      <trkpt lat="45.25563" lon="-0.67024">
        <ele>51.4</ele>
        <time>2022-08-11T16:05:10.424+02:00</time>
      </trkpt>
      <trkpt lat="45.25552" lon="-0.67021">
        <ele>50.9</ele>
        <time>2022-08-11T16:05:12.42+02:00</time>
      </trkpt>
      <trkpt lat="45.25541" lon="-0.67018">
        <ele>50.7</ele>
        <time>2022-08-11T16:05:14.434+02:00</time>
      </trkpt>
      <trkpt lat="45.2553" lon="-0.67015">
        <ele>50.5</ele>
        <time>2022-08-11T16:05:16.41+02:00</time>
      </trkpt>
      <trkpt lat="45.2552" lon="-0.67012">
        <ele>50.6</ele>
        <time>2022-08-11T16:05:18.419+02:00</time>
      </trkpt>
      <trkpt lat="45.2551" lon="-0.67011">
        <ele>50.2</ele>
        <time>2022-08-11T16:05:20.421+02:00</time>
      </trkpt>
      <trkpt lat="45.25498" lon="-0.67012">
        <ele>50.3</ele>
        <time>2022-08-11T16:05:23.409+02:00</time>
      </trkpt>
      <trkpt lat="45.25488" lon="-0.6701">
        <ele>50.7</ele>
        <time>2022-08-11T16:05:27.426+02:00</time>
      </trkpt>
      <trkpt lat="45.25486" lon="-0.66996">
        <ele>51.6</ele>
        <time>2022-08-11T16:05:30.416+02:00</time>
      </trkpt>
      <trkpt lat="45.25489" lon="-0.66981">
        <ele>51.8</ele>
        <time>2022-08-11T16:05:33.413+02:00</time>
      </trkpt>
      <trkpt lat="45.25492" lon="-0.66964">
        <ele>52.3</ele>
        <time>2022-08-11T16:05:36.407+02:00</time>
      </trkpt>
      <trkpt lat="45.25499" lon="-0.66945">
        <ele>52.4</ele>
        <time>2022-08-11T16:05:39.426+02:00</time>
      </trkpt>
      <trkpt lat="45.25501" lon="-0.66932">
        <ele>52</ele>
        <time>2022-08-11T16:05:41.419+02:00</time>
      </trkpt>
      <trkpt lat="45.25502" lon="-0.66918">
        <ele>52.1</ele>
        <time>2022-08-11T16:05:43.419+02:00</time>
      </trkpt>
      <trkpt lat="45.25505" lon="-0.66904">
        <ele>52.1</ele>
        <time>2022-08-11T16:05:45.417+02:00</time>
      </trkpt>
      <trkpt lat="45.25507" lon="-0.66889">
        <ele>51.7</ele>
        <time>2022-08-11T16:05:47.416+02:00</time>
      </trkpt>
      <trkpt lat="45.2551" lon="-0.66874">
        <ele>52.1</ele>
        <time>2022-08-11T16:05:49.411+02:00</time>
      </trkpt>
      <trkpt lat="45.25512" lon="-0.66859">
        <ele>52.2</ele>
        <time>2022-08-11T16:05:51.419+02:00</time>
      </trkpt>
      <trkpt lat="45.25515" lon="-0.66843">
        <ele>52.5</ele>
        <time>2022-08-11T16:05:53.412+02:00</time>
      </trkpt>
      <trkpt lat="45.25518" lon="-0.66827">
        <ele>52.6</ele>
        <time>2022-08-11T16:05:55.408+02:00</time>
      </trkpt>
      <trkpt lat="45.25521" lon="-0.66812">
        <ele>52.7</ele>
        <time>2022-08-11T16:05:57.41+02:00</time>
      </trkpt>
      <trkpt lat="45.25523" lon="-0.66796">
        <ele>52.7</ele>
        <time>2022-08-11T16:05:59.412+02:00</time>
      </trkpt>
      <trkpt lat="45.25526" lon="-0.6678">
        <ele>52.5</ele>
        <time>2022-08-11T16:06:01.4+02:00</time>
      </trkpt>
      <trkpt lat="45.25529" lon="-0.66765">
        <ele>52.3</ele>
        <time>2022-08-11T16:06:03.414+02:00</time>
      </trkpt>
      <trkpt lat="45.25531" lon="-0.66749">
        <ele>52.6</ele>
        <time>2022-08-11T16:06:05.419+02:00</time>
      </trkpt>
      <trkpt lat="45.25533" lon="-0.66733">
        <ele>52.8</ele>
        <time>2022-08-11T16:06:07.424+02:00</time>
      </trkpt>
      <trkpt lat="45.25535" lon="-0.66718">
        <ele>53</ele>
        <time>2022-08-11T16:06:09.395+02:00</time>
      </trkpt>
      <trkpt lat="45.25537" lon="-0.66703">
        <ele>53.1</ele>
        <time>2022-08-11T16:06:11.39+02:00</time>
      </trkpt>
      <trkpt lat="45.25539" lon="-0.66689">
        <ele>53.4</ele>
        <time>2022-08-11T16:06:13.397+02:00</time>
      </trkpt>
      <trkpt lat="45.25542" lon="-0.66675">
        <ele>53.9</ele>
        <time>2022-08-11T16:06:15.393+02:00</time>
      </trkpt>
      <trkpt lat="45.25544" lon="-0.66659">
        <ele>54.1</ele>
        <time>2022-08-11T16:06:17.396+02:00</time>
      </trkpt>
      <trkpt lat="45.25546" lon="-0.66643">
        <ele>53.8</ele>
        <time>2022-08-11T16:06:19.388+02:00</time>
      </trkpt>
      <trkpt lat="45.25549" lon="-0.66628">
        <ele>53.6</ele>
        <time>2022-08-11T16:06:21.397+02:00</time>
      </trkpt>
      <trkpt lat="45.25551" lon="-0.66613">
        <ele>54.2</ele>
        <time>2022-08-11T16:06:23.402+02:00</time>
      </trkpt>
      <trkpt lat="45.25553" lon="-0.66598">
        <ele>54.3</ele>
        <time>2022-08-11T16:06:25.414+02:00</time>
      </trkpt>
      <trkpt lat="45.25556" lon="-0.66584">
        <ele>54</ele>
        <time>2022-08-11T16:06:27.409+02:00</time>
      </trkpt>
      <trkpt lat="45.25557" lon="-0.6657">
        <ele>53.8</ele>
        <time>2022-08-11T16:06:29.43+02:00</time>
      </trkpt>
      <trkpt lat="45.25559" lon="-0.66557">
        <ele>54</ele>
        <time>2022-08-11T16:06:31.398+02:00</time>
      </trkpt>
      <trkpt lat="45.25562" lon="-0.66542">
        <ele>53.4</ele>
        <time>2022-08-11T16:06:33.409+02:00</time>
      </trkpt>
      <trkpt lat="45.25564" lon="-0.66529">
        <ele>53.7</ele>
        <time>2022-08-11T16:06:35.398+02:00</time>
      </trkpt>
      <trkpt lat="45.25566" lon="-0.66515">
        <ele>54.1</ele>
        <time>2022-08-11T16:06:37.4+02:00</time>
      </trkpt>
      <trkpt lat="45.25569" lon="-0.665">
        <ele>53.9</ele>
        <time>2022-08-11T16:06:39.413+02:00</time>
      </trkpt>
      <trkpt lat="45.25571" lon="-0.66486">
        <ele>53.7</ele>
        <time>2022-08-11T16:06:41.409+02:00</time>
      </trkpt>
      <trkpt lat="45.25573" lon="-0.66471">
        <ele>53.8</ele>
        <time>2022-08-11T16:06:43.424+02:00</time>
      </trkpt>
      <trkpt lat="45.25575" lon="-0.66456">
        <ele>53.6</ele>
        <time>2022-08-11T16:06:45.404+02:00</time>
      </trkpt>
      <trkpt lat="45.25577" lon="-0.66441">
        <ele>53.6</ele>
        <time>2022-08-11T16:06:47.407+02:00</time>
      </trkpt>
      <trkpt lat="45.2558" lon="-0.66426">
        <ele>53.8</ele>
        <time>2022-08-11T16:06:49.406+02:00</time>
      </trkpt>
      <trkpt lat="45.25582" lon="-0.66411">
        <ele>53.8</ele>
        <time>2022-08-11T16:06:51.393+02:00</time>
      </trkpt>
      <trkpt lat="45.25584" lon="-0.66395">
        <ele>54</ele>
        <time>2022-08-11T16:06:53.401+02:00</time>
      </trkpt>
      <trkpt lat="45.25587" lon="-0.6638">
        <ele>54.2</ele>
        <time>2022-08-11T16:06:55.391+02:00</time>
      </trkpt>
      <trkpt lat="45.25589" lon="-0.66365">
        <ele>54.3</ele>
        <time>2022-08-11T16:06:57.396+02:00</time>
      </trkpt>
      <trkpt lat="45.25591" lon="-0.6635">
        <ele>54.4</ele>
        <time>2022-08-11T16:06:59.398+02:00</time>
      </trkpt>
      <trkpt lat="45.25593" lon="-0.66336">
        <ele>54.1</ele>
        <time>2022-08-11T16:07:01.402+02:00</time>
      </trkpt>
      <trkpt lat="45.25595" lon="-0.66321">
        <ele>54.1</ele>
        <time>2022-08-11T16:07:03.41+02:00</time>
      </trkpt>
      <trkpt lat="45.25598" lon="-0.66307">
        <ele>54.1</ele>
        <time>2022-08-11T16:07:05.405+02:00</time>
      </trkpt>
      <trkpt lat="45.256" lon="-0.66293">
        <ele>54.5</ele>
        <time>2022-08-11T16:07:07.396+02:00</time>
      </trkpt>
      <trkpt lat="45.25602" lon="-0.66278">
        <ele>54.3</ele>
        <time>2022-08-11T16:07:09.403+02:00</time>
      </trkpt>
      <trkpt lat="45.25604" lon="-0.66264">
        <ele>54.5</ele>
        <time>2022-08-11T16:07:11.397+02:00</time>
      </trkpt>
      <trkpt lat="45.25607" lon="-0.66249">
        <ele>53.7</ele>
        <time>2022-08-11T16:07:13.405+02:00</time>
      </trkpt>
      <trkpt lat="45.25609" lon="-0.66235">
        <ele>54</ele>
        <time>2022-08-11T16:07:15.389+02:00</time>
      </trkpt>
      <trkpt lat="45.25611" lon="-0.6622">
        <ele>53.8</ele>
        <time>2022-08-11T16:07:17.393+02:00</time>
      </trkpt>
      <trkpt lat="45.25613" lon="-0.66205">
        <ele>54</ele>
        <time>2022-08-11T16:07:19.391+02:00</time>
      </trkpt>
      <trkpt lat="45.25616" lon="-0.6619">
        <ele>53.8</ele>
        <time>2022-08-11T16:07:21.412+02:00</time>
      </trkpt>
      <trkpt lat="45.25619" lon="-0.66174">
        <ele>54</ele>
        <time>2022-08-11T16:07:23.395+02:00</time>
      </trkpt>
      <trkpt lat="45.25621" lon="-0.66159">
        <ele>54.7</ele>
        <time>2022-08-11T16:07:25.39+02:00</time>
      </trkpt>
      <trkpt lat="45.25623" lon="-0.66144">
        <ele>54.6</ele>
        <time>2022-08-11T16:07:27.483+02:00</time>
      </trkpt>
      <trkpt lat="45.25625" lon="-0.66129">
        <ele>54.8</ele>
        <time>2022-08-11T16:07:29.389+02:00</time>
      </trkpt>
      <trkpt lat="45.25628" lon="-0.66113">
        <ele>53.9</ele>
        <time>2022-08-11T16:07:31.39+02:00</time>
      </trkpt>
      <trkpt lat="45.2563" lon="-0.66098">
        <ele>54.1</ele>
        <time>2022-08-11T16:07:33.394+02:00</time>
      </trkpt>
      <trkpt lat="45.25632" lon="-0.66082">
        <ele>54.3</ele>
        <time>2022-08-11T16:07:35.393+02:00</time>
      </trkpt>
      <trkpt lat="45.25634" lon="-0.66068">
        <ele>54.6</ele>
        <time>2022-08-11T16:07:37.402+02:00</time>
      </trkpt>
      <trkpt lat="45.25636" lon="-0.66053">
        <ele>54.9</ele>
        <time>2022-08-11T16:07:39.397+02:00</time>
      </trkpt>
      <trkpt lat="45.25639" lon="-0.66038">
        <ele>55.2</ele>
        <time>2022-08-11T16:07:41.404+02:00</time>
      </trkpt>
      <trkpt lat="45.25641" lon="-0.66023">
        <ele>54.9</ele>
        <time>2022-08-11T16:07:43.403+02:00</time>
      </trkpt>
      <trkpt lat="45.25643" lon="-0.66008">
        <ele>54.8</ele>
        <time>2022-08-11T16:07:45.404+02:00</time>
      </trkpt>
      <trkpt lat="45.25646" lon="-0.65993">
        <ele>54.7</ele>
        <time>2022-08-11T16:07:47.406+02:00</time>
      </trkpt>
      <trkpt lat="45.25648" lon="-0.65977">
        <ele>54.6</ele>
        <time>2022-08-11T16:07:49.401+02:00</time>
      </trkpt>
      <trkpt lat="45.2565" lon="-0.65963">
        <ele>54.4</ele>
        <time>2022-08-11T16:07:51.403+02:00</time>
      </trkpt>
      <trkpt lat="45.25654" lon="-0.65948">
        <ele>55.1</ele>
        <time>2022-08-11T16:07:53.402+02:00</time>
      </trkpt>
      <trkpt lat="45.25656" lon="-0.65933">
        <ele>55</ele>
        <time>2022-08-11T16:07:55.404+02:00</time>
      </trkpt>
      <trkpt lat="45.25659" lon="-0.65919">
        <ele>55.2</ele>
        <time>2022-08-11T16:07:57.396+02:00</time>
      </trkpt>
      <trkpt lat="45.2566" lon="-0.65905">
        <ele>55</ele>
        <time>2022-08-11T16:07:59.415+02:00</time>
      </trkpt>
      <trkpt lat="45.25662" lon="-0.6589">
        <ele>54.7</ele>
        <time>2022-08-11T16:08:01.396+02:00</time>
      </trkpt>
      <trkpt lat="45.25665" lon="-0.65875">
        <ele>54.7</ele>
        <time>2022-08-11T16:08:03.392+02:00</time>
      </trkpt>
      <trkpt lat="45.25667" lon="-0.65861">
        <ele>54.4</ele>
        <time>2022-08-11T16:08:05.393+02:00</time>
      </trkpt>
      <trkpt lat="45.25669" lon="-0.65847">
        <ele>54</ele>
        <time>2022-08-11T16:08:07.393+02:00</time>
      </trkpt>
      <trkpt lat="45.25671" lon="-0.65834">
        <ele>53.7</ele>
        <time>2022-08-11T16:08:09.39+02:00</time>
      </trkpt>
      <trkpt lat="45.25673" lon="-0.65822">
        <ele>54.1</ele>
        <time>2022-08-11T16:08:11.391+02:00</time>
      </trkpt>
      <trkpt lat="45.25675" lon="-0.65809">
        <ele>54.2</ele>
        <time>2022-08-11T16:08:13.399+02:00</time>
      </trkpt>
      <trkpt lat="45.25678" lon="-0.65791">
        <ele>54.7</ele>
        <time>2022-08-11T16:08:16.396+02:00</time>
      </trkpt>
      <trkpt lat="45.25679" lon="-0.65779">
        <ele>54.5</ele>
        <time>2022-08-11T16:08:18.403+02:00</time>
      </trkpt>
      <trkpt lat="45.25682" lon="-0.65762">
        <ele>54.2</ele>
        <time>2022-08-11T16:08:21.395+02:00</time>
      </trkpt>
      <trkpt lat="45.25684" lon="-0.65746">
        <ele>54.2</ele>
        <time>2022-08-11T16:08:24.403+02:00</time>
      </trkpt>
      <trkpt lat="45.25686" lon="-0.65732">
        <ele>53.8</ele>
        <time>2022-08-11T16:08:27.406+02:00</time>
      </trkpt>
      <trkpt lat="45.25688" lon="-0.65718">
        <ele>53.5</ele>
        <time>2022-08-11T16:08:30.406+02:00</time>
      </trkpt>
      <trkpt lat="45.2569" lon="-0.65702">
        <ele>53.5</ele>
        <time>2022-08-11T16:08:33.404+02:00</time>
      </trkpt>
      <trkpt lat="45.25692" lon="-0.6569">
        <ele>54</ele>
        <time>2022-08-11T16:08:35.414+02:00</time>
      </trkpt>
      <trkpt lat="45.25695" lon="-0.65672">
        <ele>53.2</ele>
        <time>2022-08-11T16:08:38.387+02:00</time>
      </trkpt>
      <trkpt lat="45.25699" lon="-0.65655">
        <ele>53</ele>
        <time>2022-08-11T16:08:41.397+02:00</time>
      </trkpt>
      <trkpt lat="45.25699" lon="-0.65643">
        <ele>52.7</ele>
        <time>2022-08-11T16:08:43.4+02:00</time>
      </trkpt>
      <trkpt lat="45.25701" lon="-0.65625">
        <ele>52.8</ele>
        <time>2022-08-11T16:08:46.413+02:00</time>
      </trkpt>
      <trkpt lat="45.25704" lon="-0.65607">
        <ele>52.8</ele>
        <time>2022-08-11T16:08:49.404+02:00</time>
      </trkpt>
      <trkpt lat="45.25707" lon="-0.65588">
        <ele>52.4</ele>
        <time>2022-08-11T16:08:52.408+02:00</time>
      </trkpt>
      <trkpt lat="45.25709" lon="-0.65575">
        <ele>52.2</ele>
        <time>2022-08-11T16:08:54.407+02:00</time>
      </trkpt>
      <trkpt lat="45.25711" lon="-0.65562">
        <ele>52.2</ele>
        <time>2022-08-11T16:08:56.413+02:00</time>
      </trkpt>
      <trkpt lat="45.25713" lon="-0.6555">
        <ele>51.4</ele>
        <time>2022-08-11T16:08:58.411+02:00</time>
      </trkpt>
      <trkpt lat="45.25715" lon="-0.65537">
        <ele>51.2</ele>
        <time>2022-08-11T16:09:00.404+02:00</time>
      </trkpt>
      <trkpt lat="45.25717" lon="-0.65524">
        <ele>51.1</ele>
        <time>2022-08-11T16:09:02.412+02:00</time>
      </trkpt>
      <trkpt lat="45.25719" lon="-0.65511">
        <ele>51.4</ele>
        <time>2022-08-11T16:09:04.402+02:00</time>
      </trkpt>
      <trkpt lat="45.2572" lon="-0.65497">
        <ele>51.4</ele>
        <time>2022-08-11T16:09:06.41+02:00</time>
      </trkpt>
      <trkpt lat="45.25723" lon="-0.65485">
        <ele>51.2</ele>
        <time>2022-08-11T16:09:08.407+02:00</time>
      </trkpt>
      <trkpt lat="45.25726" lon="-0.65465">
        <ele>51.9</ele>
        <time>2022-08-11T16:09:11.414+02:00</time>
      </trkpt>
      <trkpt lat="45.25728" lon="-0.65452">
        <ele>51.7</ele>
        <time>2022-08-11T16:09:13.403+02:00</time>
      </trkpt>
      <trkpt lat="45.2573" lon="-0.65439">
        <ele>51.9</ele>
        <time>2022-08-11T16:09:15.401+02:00</time>
      </trkpt>
      <trkpt lat="45.25732" lon="-0.65425">
        <ele>51.7</ele>
        <time>2022-08-11T16:09:17.425+02:00</time>
      </trkpt>
      <trkpt lat="45.25734" lon="-0.65413">
        <ele>51.2</ele>
        <time>2022-08-11T16:09:19.4+02:00</time>
      </trkpt>
      <trkpt lat="45.25735" lon="-0.654">
        <ele>51.8</ele>
        <time>2022-08-11T16:09:21.409+02:00</time>
      </trkpt>
      <trkpt lat="45.25738" lon="-0.65381">
        <ele>52.7</ele>
        <time>2022-08-11T16:09:24.416+02:00</time>
      </trkpt>
      <trkpt lat="45.25741" lon="-0.65363">
        <ele>52.4</ele>
        <time>2022-08-11T16:09:27.42+02:00</time>
      </trkpt>
      <trkpt lat="45.25744" lon="-0.65343">
        <ele>52.8</ele>
        <time>2022-08-11T16:09:30.413+02:00</time>
      </trkpt>
      <trkpt lat="45.25746" lon="-0.6533">
        <ele>53.1</ele>
        <time>2022-08-11T16:09:32.404+02:00</time>
      </trkpt>
      <trkpt lat="45.25748" lon="-0.65317">
        <ele>52.9</ele>
        <time>2022-08-11T16:09:34.403+02:00</time>
      </trkpt>
      <trkpt lat="45.25751" lon="-0.65304">
        <ele>52.2</ele>
        <time>2022-08-11T16:09:36.405+02:00</time>
      </trkpt>
      <trkpt lat="45.25753" lon="-0.6529">
        <ele>52.2</ele>
        <time>2022-08-11T16:09:38.413+02:00</time>
      </trkpt>
      <trkpt lat="45.25755" lon="-0.65277">
        <ele>53</ele>
        <time>2022-08-11T16:09:40.412+02:00</time>
      </trkpt>
      <trkpt lat="45.25757" lon="-0.65263">
        <ele>52.7</ele>
        <time>2022-08-11T16:09:42.418+02:00</time>
      </trkpt>
      <trkpt lat="45.25759" lon="-0.6525">
        <ele>52.8</ele>
        <time>2022-08-11T16:09:44.421+02:00</time>
      </trkpt>
      <trkpt lat="45.25762" lon="-0.65236">
        <ele>52.9</ele>
        <time>2022-08-11T16:09:46.404+02:00</time>
      </trkpt>
      <trkpt lat="45.25763" lon="-0.65223">
        <ele>52.7</ele>
        <time>2022-08-11T16:09:48.409+02:00</time>
      </trkpt>
      <trkpt lat="45.25765" lon="-0.6521">
        <ele>52.2</ele>
        <time>2022-08-11T16:09:50.421+02:00</time>
      </trkpt>
      <trkpt lat="45.25768" lon="-0.65191">
        <ele>53.1</ele>
        <time>2022-08-11T16:09:53.414+02:00</time>
      </trkpt>
      <trkpt lat="45.25771" lon="-0.65178">
        <ele>53.1</ele>
        <time>2022-08-11T16:09:55.403+02:00</time>
      </trkpt>
      <trkpt lat="45.25772" lon="-0.65164">
        <ele>53.1</ele>
        <time>2022-08-11T16:09:57.411+02:00</time>
      </trkpt>
      <trkpt lat="45.25774" lon="-0.65149">
        <ele>53.2</ele>
        <time>2022-08-11T16:09:59.407+02:00</time>
      </trkpt>
      <trkpt lat="45.25776" lon="-0.65135">
        <ele>52.6</ele>
        <time>2022-08-11T16:10:01.408+02:00</time>
      </trkpt>
      <trkpt lat="45.25779" lon="-0.65122">
        <ele>53.1</ele>
        <time>2022-08-11T16:10:03.406+02:00</time>
      </trkpt>
      <trkpt lat="45.25781" lon="-0.65107">
        <ele>53.4</ele>
        <time>2022-08-11T16:10:05.401+02:00</time>
      </trkpt>
      <trkpt lat="45.25783" lon="-0.65093">
        <ele>53</ele>
        <time>2022-08-11T16:10:07.415+02:00</time>
      </trkpt>
      <trkpt lat="45.25785" lon="-0.65078">
        <ele>52.6</ele>
        <time>2022-08-11T16:10:09.41+02:00</time>
      </trkpt>
      <trkpt lat="45.25787" lon="-0.65065">
        <ele>52.9</ele>
        <time>2022-08-11T16:10:11.403+02:00</time>
      </trkpt>
      <trkpt lat="45.25789" lon="-0.65051">
        <ele>51.8</ele>
        <time>2022-08-11T16:10:13.41+02:00</time>
      </trkpt>
      <trkpt lat="45.25792" lon="-0.65036">
        <ele>52.2</ele>
        <time>2022-08-11T16:10:15.411+02:00</time>
      </trkpt>
      <trkpt lat="45.25794" lon="-0.65022">
        <ele>51.8</ele>
        <time>2022-08-11T16:10:17.411+02:00</time>
      </trkpt>
      <trkpt lat="45.25796" lon="-0.65007">
        <ele>51.8</ele>
        <time>2022-08-11T16:10:19.397+02:00</time>
      </trkpt>
      <trkpt lat="45.25798" lon="-0.64992">
        <ele>50.9</ele>
        <time>2022-08-11T16:10:21.403+02:00</time>
      </trkpt>
      <trkpt lat="45.25801" lon="-0.64978">
        <ele>51.2</ele>
        <time>2022-08-11T16:10:23.406+02:00</time>
      </trkpt>
      <trkpt lat="45.25803" lon="-0.64963">
        <ele>50.6</ele>
        <time>2022-08-11T16:10:25.406+02:00</time>
      </trkpt>
      <trkpt lat="45.25805" lon="-0.64948">
        <ele>49.9</ele>
        <time>2022-08-11T16:10:27.414+02:00</time>
      </trkpt>
      <trkpt lat="45.25806" lon="-0.64934">
        <ele>48.7</ele>
        <time>2022-08-11T16:10:29.391+02:00</time>
      </trkpt>
      <trkpt lat="45.25809" lon="-0.64921">
        <ele>48.1</ele>
        <time>2022-08-11T16:10:31.397+02:00</time>
      </trkpt>
      <trkpt lat="45.25812" lon="-0.64908">
        <ele>48</ele>
        <time>2022-08-11T16:10:33.395+02:00</time>
      </trkpt>
      <trkpt lat="45.25814" lon="-0.64894">
        <ele>47.9</ele>
        <time>2022-08-11T16:10:35.39+02:00</time>
      </trkpt>
      <trkpt lat="45.25816" lon="-0.64881">
        <ele>47.9</ele>
        <time>2022-08-11T16:10:37.399+02:00</time>
      </trkpt>
      <trkpt lat="45.25818" lon="-0.64869">
        <ele>48.4</ele>
        <time>2022-08-11T16:10:39.408+02:00</time>
      </trkpt>
      <trkpt lat="45.25821" lon="-0.64851">
        <ele>48.4</ele>
        <time>2022-08-11T16:10:42.397+02:00</time>
      </trkpt>
      <trkpt lat="45.25823" lon="-0.64833">
        <ele>48</ele>
        <time>2022-08-11T16:10:45.389+02:00</time>
      </trkpt>
      <trkpt lat="45.25826" lon="-0.64814">
        <ele>47.8</ele>
        <time>2022-08-11T16:10:48.402+02:00</time>
      </trkpt>
      <trkpt lat="45.25826" lon="-0.64801">
        <ele>47</ele>
        <time>2022-08-11T16:10:50.389+02:00</time>
      </trkpt>
      <trkpt lat="45.25828" lon="-0.64788">
        <ele>47.1</ele>
        <time>2022-08-11T16:10:52.394+02:00</time>
      </trkpt>
      <trkpt lat="45.2583" lon="-0.64775">
        <ele>47.4</ele>
        <time>2022-08-11T16:10:54.397+02:00</time>
      </trkpt>
      <trkpt lat="45.25833" lon="-0.64762">
        <ele>48.6</ele>
        <time>2022-08-11T16:10:56.397+02:00</time>
      </trkpt>
      <trkpt lat="45.25835" lon="-0.64749">
        <ele>48.8</ele>
        <time>2022-08-11T16:10:58.39+02:00</time>
      </trkpt>
      <trkpt lat="45.25837" lon="-0.64736">
        <ele>49.9</ele>
        <time>2022-08-11T16:11:00.399+02:00</time>
      </trkpt>
      <trkpt lat="45.25839" lon="-0.64723">
        <ele>49.7</ele>
        <time>2022-08-11T16:11:02.394+02:00</time>
      </trkpt>
      <trkpt lat="45.25843" lon="-0.64705">
        <ele>50.7</ele>
        <time>2022-08-11T16:11:05.394+02:00</time>
      </trkpt>
      <trkpt lat="45.25846" lon="-0.64689">
        <ele>49.9</ele>
        <time>2022-08-11T16:11:08.399+02:00</time>
      </trkpt>
      <trkpt lat="45.25847" lon="-0.64674">
        <ele>49.1</ele>
        <time>2022-08-11T16:11:11.395+02:00</time>
      </trkpt>
      <trkpt lat="45.2585" lon="-0.64659">
        <ele>48.7</ele>
        <time>2022-08-11T16:11:14.404+02:00</time>
      </trkpt>
      <trkpt lat="45.25851" lon="-0.64645">
        <ele>48.9</ele>
        <time>2022-08-11T16:11:17.393+02:00</time>
      </trkpt>
      <trkpt lat="45.25853" lon="-0.6463">
        <ele>49.6</ele>
        <time>2022-08-11T16:11:20.396+02:00</time>
      </trkpt>
      <trkpt lat="45.25856" lon="-0.64612">
        <ele>49.5</ele>
        <time>2022-08-11T16:11:23.396+02:00</time>
      </trkpt>
      <trkpt lat="45.25859" lon="-0.64599">
        <ele>49.8</ele>
        <time>2022-08-11T16:11:25.391+02:00</time>
      </trkpt>
      <trkpt lat="45.2586" lon="-0.64586">
        <ele>49.5</ele>
        <time>2022-08-11T16:11:27.394+02:00</time>
      </trkpt>
      <trkpt lat="45.25863" lon="-0.64572">
        <ele>50.2</ele>
        <time>2022-08-11T16:11:29.395+02:00</time>
      </trkpt>
      <trkpt lat="45.25864" lon="-0.64558">
        <ele>50.3</ele>
        <time>2022-08-11T16:11:31.404+02:00</time>
      </trkpt>
      <trkpt lat="45.25867" lon="-0.64543">
        <ele>50.1</ele>
        <time>2022-08-11T16:11:33.395+02:00</time>
      </trkpt>
      <trkpt lat="45.25869" lon="-0.64528">
        <ele>50.2</ele>
        <time>2022-08-11T16:11:35.39+02:00</time>
      </trkpt>
      <trkpt lat="45.25873" lon="-0.64514">
        <ele>50</ele>
        <time>2022-08-11T16:11:37.392+02:00</time>
      </trkpt>
      <trkpt lat="45.25875" lon="-0.64499">
        <ele>50.6</ele>
        <time>2022-08-11T16:11:39.404+02:00</time>
      </trkpt>
      <trkpt lat="45.25876" lon="-0.64484">
        <ele>50.5</ele>
        <time>2022-08-11T16:11:41.405+02:00</time>
      </trkpt>
      <trkpt lat="45.25879" lon="-0.64468">
        <ele>50.8</ele>
        <time>2022-08-11T16:11:43.399+02:00</time>
      </trkpt>
      <trkpt lat="45.25882" lon="-0.64452">
        <ele>50.8</ele>
        <time>2022-08-11T16:11:45.391+02:00</time>
      </trkpt>
      <trkpt lat="45.25884" lon="-0.64437">
        <ele>50.4</ele>
        <time>2022-08-11T16:11:47.41+02:00</time>
      </trkpt>
      <trkpt lat="45.25886" lon="-0.64421">
        <ele>49.6</ele>
        <time>2022-08-11T16:11:49.402+02:00</time>
      </trkpt>
      <trkpt lat="45.25889" lon="-0.64405">
        <ele>48.8</ele>
        <time>2022-08-11T16:11:51.4+02:00</time>
      </trkpt>
      <trkpt lat="45.25891" lon="-0.64389">
        <ele>49.7</ele>
        <time>2022-08-11T16:11:53.397+02:00</time>
      </trkpt>
      <trkpt lat="45.25893" lon="-0.64374">
        <ele>50.5</ele>
        <time>2022-08-11T16:11:55.4+02:00</time>
      </trkpt>
      <trkpt lat="45.25896" lon="-0.64359">
        <ele>51</ele>
        <time>2022-08-11T16:11:57.406+02:00</time>
      </trkpt>
      <trkpt lat="45.25899" lon="-0.64343">
        <ele>51</ele>
        <time>2022-08-11T16:11:59.405+02:00</time>
      </trkpt>
      <trkpt lat="45.25901" lon="-0.64328">
        <ele>51.5</ele>
        <time>2022-08-11T16:12:01.398+02:00</time>
      </trkpt>
      <trkpt lat="45.25903" lon="-0.64313">
        <ele>50.8</ele>
        <time>2022-08-11T16:12:03.396+02:00</time>
      </trkpt>
      <trkpt lat="45.25905" lon="-0.64297">
        <ele>51.7</ele>
        <time>2022-08-11T16:12:05.401+02:00</time>
      </trkpt>
      <trkpt lat="45.25908" lon="-0.64281">
        <ele>51.6</ele>
        <time>2022-08-11T16:12:07.395+02:00</time>
      </trkpt>
      <trkpt lat="45.25911" lon="-0.64266">
        <ele>51.3</ele>
        <time>2022-08-11T16:12:09.399+02:00</time>
      </trkpt>
      <trkpt lat="45.25913" lon="-0.64251">
        <ele>52.3</ele>
        <time>2022-08-11T16:12:11.402+02:00</time>
      </trkpt>
      <trkpt lat="45.25916" lon="-0.64235">
        <ele>51.7</ele>
        <time>2022-08-11T16:12:13.403+02:00</time>
      </trkpt>
      <trkpt lat="45.25918" lon="-0.64221">
        <ele>51.2</ele>
        <time>2022-08-11T16:12:15.399+02:00</time>
      </trkpt>
      <trkpt lat="45.2592" lon="-0.64206">
        <ele>50.9</ele>
        <time>2022-08-11T16:12:17.401+02:00</time>
      </trkpt>
      <trkpt lat="45.25922" lon="-0.6419">
        <ele>51.3</ele>
        <time>2022-08-11T16:12:19.395+02:00</time>
      </trkpt>
      <trkpt lat="45.25925" lon="-0.64174">
        <ele>51.1</ele>
        <time>2022-08-11T16:12:21.398+02:00</time>
      </trkpt>
      <trkpt lat="45.25927" lon="-0.64159">
        <ele>50.5</ele>
        <time>2022-08-11T16:12:23.4+02:00</time>
      </trkpt>
      <trkpt lat="45.25929" lon="-0.64144">
        <ele>51.1</ele>
        <time>2022-08-11T16:12:25.392+02:00</time>
      </trkpt>
      <trkpt lat="45.25932" lon="-0.64129">
        <ele>50.9</ele>
        <time>2022-08-11T16:12:27.394+02:00</time>
      </trkpt>
      <trkpt lat="45.25934" lon="-0.64113">
        <ele>50.5</ele>
        <time>2022-08-11T16:12:29.397+02:00</time>
      </trkpt>
      <trkpt lat="45.25937" lon="-0.64098">
        <ele>51.2</ele>
        <time>2022-08-11T16:12:31.402+02:00</time>
      </trkpt>
      <trkpt lat="45.25939" lon="-0.64083">
        <ele>51.2</ele>
        <time>2022-08-11T16:12:33.4+02:00</time>
      </trkpt>
      <trkpt lat="45.25942" lon="-0.64068">
        <ele>50.9</ele>
        <time>2022-08-11T16:12:35.395+02:00</time>
      </trkpt>
      <trkpt lat="45.25944" lon="-0.64053">
        <ele>51.6</ele>
        <time>2022-08-11T16:12:37.407+02:00</time>
      </trkpt>
      <trkpt lat="45.25946" lon="-0.64038">
        <ele>51.1</ele>
        <time>2022-08-11T16:12:39.397+02:00</time>
      </trkpt>
      <trkpt lat="45.25949" lon="-0.64023">
        <ele>50.8</ele>
        <time>2022-08-11T16:12:41.395+02:00</time>
      </trkpt>
      <trkpt lat="45.25951" lon="-0.64008">
        <ele>50.7</ele>
        <time>2022-08-11T16:12:43.401+02:00</time>
      </trkpt>
      <trkpt lat="45.25953" lon="-0.63994">
        <ele>50.6</ele>
        <time>2022-08-11T16:12:45.395+02:00</time>
      </trkpt>
      <trkpt lat="45.25956" lon="-0.63979">
        <ele>50.8</ele>
        <time>2022-08-11T16:12:47.394+02:00</time>
      </trkpt>
      <trkpt lat="45.25958" lon="-0.63964">
        <ele>51.2</ele>
        <time>2022-08-11T16:12:49.399+02:00</time>
      </trkpt>
      <trkpt lat="45.2596" lon="-0.63949">
        <ele>50.7</ele>
        <time>2022-08-11T16:12:51.395+02:00</time>
      </trkpt>
      <trkpt lat="45.25963" lon="-0.63934">
        <ele>50.6</ele>
        <time>2022-08-11T16:12:53.398+02:00</time>
      </trkpt>
      <trkpt lat="45.25965" lon="-0.6392">
        <ele>50.5</ele>
        <time>2022-08-11T16:12:55.397+02:00</time>
      </trkpt>
      <trkpt lat="45.25967" lon="-0.63905">
        <ele>50.3</ele>
        <time>2022-08-11T16:12:57.397+02:00</time>
      </trkpt>
      <trkpt lat="45.2597" lon="-0.63889">
        <ele>49.8</ele>
        <time>2022-08-11T16:12:59.398+02:00</time>
      </trkpt>
      <trkpt lat="45.25973" lon="-0.63875">
        <ele>49.8</ele>
        <time>2022-08-11T16:13:01.402+02:00</time>
      </trkpt>
      <trkpt lat="45.25975" lon="-0.6386">
        <ele>49.8</ele>
        <time>2022-08-11T16:13:03.405+02:00</time>
      </trkpt>
      <trkpt lat="45.25976" lon="-0.63846">
        <ele>49.2</ele>
        <time>2022-08-11T16:13:05.401+02:00</time>
      </trkpt>
      <trkpt lat="45.25978" lon="-0.63831">
        <ele>49.7</ele>
        <time>2022-08-11T16:13:07.406+02:00</time>
      </trkpt>
      <trkpt lat="45.25981" lon="-0.63816">
        <ele>49.9</ele>
        <time>2022-08-11T16:13:09.417+02:00</time>
      </trkpt>
      <trkpt lat="45.25984" lon="-0.63802">
        <ele>49.2</ele>
        <time>2022-08-11T16:13:11.418+02:00</time>
      </trkpt>
      <trkpt lat="45.25986" lon="-0.63787">
        <ele>49.4</ele>
        <time>2022-08-11T16:13:13.415+02:00</time>
      </trkpt>
      <trkpt lat="45.25989" lon="-0.63771">
        <ele>49.7</ele>
        <time>2022-08-11T16:13:15.407+02:00</time>
      </trkpt>
      <trkpt lat="45.25991" lon="-0.63756">
        <ele>49.8</ele>
        <time>2022-08-11T16:13:17.405+02:00</time>
      </trkpt>
      <trkpt lat="45.25993" lon="-0.63741">
        <ele>49.6</ele>
        <time>2022-08-11T16:13:19.407+02:00</time>
      </trkpt>
      <trkpt lat="45.25995" lon="-0.63725">
        <ele>49.4</ele>
        <time>2022-08-11T16:13:21.405+02:00</time>
      </trkpt>
      <trkpt lat="45.25998" lon="-0.6371">
        <ele>48.9</ele>
        <time>2022-08-11T16:13:23.396+02:00</time>
      </trkpt>
      <trkpt lat="45.26" lon="-0.63695">
        <ele>49.2</ele>
        <time>2022-08-11T16:13:25.406+02:00</time>
      </trkpt>
      <trkpt lat="45.26003" lon="-0.63679">
        <ele>49.2</ele>
        <time>2022-08-11T16:13:27.418+02:00</time>
      </trkpt>
      <trkpt lat="45.26006" lon="-0.63663">
        <ele>49.6</ele>
        <time>2022-08-11T16:13:29.417+02:00</time>
      </trkpt>
      <trkpt lat="45.26008" lon="-0.63648">
        <ele>49.3</ele>
        <time>2022-08-11T16:13:31.416+02:00</time>
      </trkpt>
      <trkpt lat="45.26011" lon="-0.63633">
        <ele>49.1</ele>
        <time>2022-08-11T16:13:33.411+02:00</time>
      </trkpt>
      <trkpt lat="45.26013" lon="-0.63618">
        <ele>49.1</ele>
        <time>2022-08-11T16:13:35.403+02:00</time>
      </trkpt>
      <trkpt lat="45.26015" lon="-0.63603">
        <ele>49.3</ele>
        <time>2022-08-11T16:13:37.413+02:00</time>
      </trkpt>
      <trkpt lat="45.26017" lon="-0.63587">
        <ele>49.4</ele>
        <time>2022-08-11T16:13:39.417+02:00</time>
      </trkpt>
      <trkpt lat="45.26019" lon="-0.63572">
        <ele>49.6</ele>
        <time>2022-08-11T16:13:41.417+02:00</time>
      </trkpt>
      <trkpt lat="45.26022" lon="-0.63557">
        <ele>49.4</ele>
        <time>2022-08-11T16:13:43.42+02:00</time>
      </trkpt>
      <trkpt lat="45.26025" lon="-0.63541">
        <ele>48.9</ele>
        <time>2022-08-11T16:13:45.403+02:00</time>
      </trkpt>
      <trkpt lat="45.26027" lon="-0.63526">
        <ele>48.8</ele>
        <time>2022-08-11T16:13:47.418+02:00</time>
      </trkpt>
      <trkpt lat="45.26029" lon="-0.6351">
        <ele>48.9</ele>
        <time>2022-08-11T16:13:49.415+02:00</time>
      </trkpt>
      <trkpt lat="45.26031" lon="-0.63495">
        <ele>49</ele>
        <time>2022-08-11T16:13:51.415+02:00</time>
      </trkpt>
      <trkpt lat="45.26034" lon="-0.63479">
        <ele>49.4</ele>
        <time>2022-08-11T16:13:53.411+02:00</time>
      </trkpt>
      <trkpt lat="45.26037" lon="-0.63464">
        <ele>49.4</ele>
        <time>2022-08-11T16:13:55.398+02:00</time>
      </trkpt>
      <trkpt lat="45.26039" lon="-0.63448">
        <ele>49.2</ele>
        <time>2022-08-11T16:13:57.415+02:00</time>
      </trkpt>
      <trkpt lat="45.26041" lon="-0.63432">
        <ele>49</ele>
        <time>2022-08-11T16:13:59.402+02:00</time>
      </trkpt>
      <trkpt lat="45.26044" lon="-0.63418">
        <ele>49.6</ele>
        <time>2022-08-11T16:14:01.411+02:00</time>
      </trkpt>
      <trkpt lat="45.26046" lon="-0.63402">
        <ele>49.2</ele>
        <time>2022-08-11T16:14:03.401+02:00</time>
      </trkpt>
      <trkpt lat="45.26047" lon="-0.63387">
        <ele>48.8</ele>
        <time>2022-08-11T16:14:05.398+02:00</time>
      </trkpt>
      <trkpt lat="45.2605" lon="-0.63372">
        <ele>48.6</ele>
        <time>2022-08-11T16:14:07.415+02:00</time>
      </trkpt>
      <trkpt lat="45.26052" lon="-0.63357">
        <ele>48.2</ele>
        <time>2022-08-11T16:14:09.41+02:00</time>
      </trkpt>
      <trkpt lat="45.26054" lon="-0.63342">
        <ele>48.1</ele>
        <time>2022-08-11T16:14:11.417+02:00</time>
      </trkpt>
      <trkpt lat="45.26057" lon="-0.63327">
        <ele>48.2</ele>
        <time>2022-08-11T16:14:13.409+02:00</time>
      </trkpt>
      <trkpt lat="45.26059" lon="-0.63312">
        <ele>48</ele>
        <time>2022-08-11T16:14:15.407+02:00</time>
      </trkpt>
      <trkpt lat="45.26062" lon="-0.63296">
        <ele>48</ele>
        <time>2022-08-11T16:14:17.413+02:00</time>
      </trkpt>
      <trkpt lat="45.26064" lon="-0.63282">
        <ele>48.1</ele>
        <time>2022-08-11T16:14:19.421+02:00</time>
      </trkpt>
      <trkpt lat="45.26066" lon="-0.63267">
        <ele>48.3</ele>
        <time>2022-08-11T16:14:21.42+02:00</time>
      </trkpt>
      <trkpt lat="45.26068" lon="-0.63253">
        <ele>48.7</ele>
        <time>2022-08-11T16:14:23.412+02:00</time>
      </trkpt>
      <trkpt lat="45.26071" lon="-0.63238">
        <ele>49.1</ele>
        <time>2022-08-11T16:14:25.395+02:00</time>
      </trkpt>
      <trkpt lat="45.26072" lon="-0.63223">
        <ele>48.7</ele>
        <time>2022-08-11T16:14:27.404+02:00</time>
      </trkpt>
      <trkpt lat="45.26075" lon="-0.63209">
        <ele>48.8</ele>
        <time>2022-08-11T16:14:29.405+02:00</time>
      </trkpt>
      <trkpt lat="45.26078" lon="-0.63195">
        <ele>49</ele>
        <time>2022-08-11T16:14:31.402+02:00</time>
      </trkpt>
      <trkpt lat="45.26079" lon="-0.63182">
        <ele>50.1</ele>
        <time>2022-08-11T16:14:33.397+02:00</time>
      </trkpt>
      <trkpt lat="45.26082" lon="-0.63169">
        <ele>50.7</ele>
        <time>2022-08-11T16:14:35.392+02:00</time>
      </trkpt>
      <trkpt lat="45.26084" lon="-0.63155">
        <ele>51</ele>
        <time>2022-08-11T16:14:37.397+02:00</time>
      </trkpt>
      <trkpt lat="45.26086" lon="-0.63141">
        <ele>51.7</ele>
        <time>2022-08-11T16:14:39.405+02:00</time>
      </trkpt>
      <trkpt lat="45.26088" lon="-0.63127">
        <ele>52.2</ele>
        <time>2022-08-11T16:14:41.402+02:00</time>
      </trkpt>
      <trkpt lat="45.2609" lon="-0.63113">
        <ele>52.5</ele>
        <time>2022-08-11T16:14:43.393+02:00</time>
      </trkpt>
      <trkpt lat="45.26092" lon="-0.63099">
        <ele>52.7</ele>
        <time>2022-08-11T16:14:45.391+02:00</time>
      </trkpt>
      <trkpt lat="45.26094" lon="-0.63084">
        <ele>52.7</ele>
        <time>2022-08-11T16:14:47.408+02:00</time>
      </trkpt>
      <trkpt lat="45.26096" lon="-0.6307">
        <ele>52.5</ele>
        <time>2022-08-11T16:14:49.401+02:00</time>
      </trkpt>
      <trkpt lat="45.26099" lon="-0.63056">
        <ele>53</ele>
        <time>2022-08-11T16:14:51.4+02:00</time>
      </trkpt>
      <trkpt lat="45.26101" lon="-0.63042">
        <ele>53.3</ele>
        <time>2022-08-11T16:14:53.416+02:00</time>
      </trkpt>
      <trkpt lat="45.26103" lon="-0.63027">
        <ele>53.1</ele>
        <time>2022-08-11T16:14:55.395+02:00</time>
      </trkpt>
      <trkpt lat="45.26105" lon="-0.63013">
        <ele>52.5</ele>
        <time>2022-08-11T16:14:57.4+02:00</time>
      </trkpt>
      <trkpt lat="45.26108" lon="-0.62999">
        <ele>52.2</ele>
        <time>2022-08-11T16:14:59.402+02:00</time>
      </trkpt>
      <trkpt lat="45.2611" lon="-0.62985">
        <ele>52.4</ele>
        <time>2022-08-11T16:15:01.395+02:00</time>
      </trkpt>
      <trkpt lat="45.26112" lon="-0.62971">
        <ele>52.5</ele>
        <time>2022-08-11T16:15:03.405+02:00</time>
      </trkpt>
      <trkpt lat="45.26114" lon="-0.62958">
        <ele>52.7</ele>
        <time>2022-08-11T16:15:05.39+02:00</time>
      </trkpt>
      <trkpt lat="45.26116" lon="-0.62945">
        <ele>52.6</ele>
        <time>2022-08-11T16:15:07.408+02:00</time>
      </trkpt>
      <trkpt lat="45.26118" lon="-0.62931">
        <ele>51.9</ele>
        <time>2022-08-11T16:15:09.394+02:00</time>
      </trkpt>
      <trkpt lat="45.26121" lon="-0.62917">
        <ele>51.8</ele>
        <time>2022-08-11T16:15:11.394+02:00</time>
      </trkpt>
      <trkpt lat="45.26123" lon="-0.62905">
        <ele>50.8</ele>
        <time>2022-08-11T16:15:13.395+02:00</time>
      </trkpt>
      <trkpt lat="45.26125" lon="-0.62891">
        <ele>51.3</ele>
        <time>2022-08-11T16:15:15.392+02:00</time>
      </trkpt>
      <trkpt lat="45.26121" lon="-0.6288">
        <ele>51.9</ele>
        <time>2022-08-11T16:15:17.407+02:00</time>
      </trkpt>
      <trkpt lat="45.2611" lon="-0.62873">
        <ele>51.5</ele>
        <time>2022-08-11T16:15:20.395+02:00</time>
      </trkpt>
      <trkpt lat="45.26099" lon="-0.62867">
        <ele>51.5</ele>
        <time>2022-08-11T16:15:23.397+02:00</time>
      </trkpt>
      <trkpt lat="45.26087" lon="-0.62867">
        <ele>50.7</ele>
        <time>2022-08-11T16:15:26.406+02:00</time>
      </trkpt>
      <trkpt lat="45.26077" lon="-0.62876">
        <ele>50.3</ele>
        <time>2022-08-11T16:15:28.406+02:00</time>
      </trkpt>
      <trkpt lat="45.26069" lon="-0.62883">
        <ele>50.6</ele>
        <time>2022-08-11T16:15:30.392+02:00</time>
      </trkpt>
      <trkpt lat="45.26061" lon="-0.62889">
        <ele>49.8</ele>
        <time>2022-08-11T16:15:32.397+02:00</time>
      </trkpt>
      <trkpt lat="45.2605" lon="-0.62899">
        <ele>50</ele>
        <time>2022-08-11T16:15:35.394+02:00</time>
      </trkpt>
      <trkpt lat="45.26039" lon="-0.62908">
        <ele>49.7</ele>
        <time>2022-08-11T16:15:38.395+02:00</time>
      </trkpt>
      <trkpt lat="45.26032" lon="-0.62918">
        <ele>49.1</ele>
        <time>2022-08-11T16:15:40.395+02:00</time>
      </trkpt>
      <trkpt lat="45.26024" lon="-0.62925">
        <ele>48.7</ele>
        <time>2022-08-11T16:15:42.399+02:00</time>
      </trkpt>
      <trkpt lat="45.26015" lon="-0.62933">
        <ele>48.8</ele>
        <time>2022-08-11T16:15:44.396+02:00</time>
      </trkpt>
      <trkpt lat="45.26008" lon="-0.6294">
        <ele>48</ele>
        <time>2022-08-11T16:15:46.395+02:00</time>
      </trkpt>
      <trkpt lat="45.26" lon="-0.62947">
        <ele>47.9</ele>
        <time>2022-08-11T16:15:48.4+02:00</time>
      </trkpt>
      <trkpt lat="45.25991" lon="-0.62955">
        <ele>47.8</ele>
        <time>2022-08-11T16:15:50.391+02:00</time>
      </trkpt>
      <trkpt lat="45.25984" lon="-0.62963">
        <ele>48.7</ele>
        <time>2022-08-11T16:15:52.397+02:00</time>
      </trkpt>
      <trkpt lat="45.25976" lon="-0.6297">
        <ele>49.4</ele>
        <time>2022-08-11T16:15:54.396+02:00</time>
      </trkpt>
      <trkpt lat="45.25968" lon="-0.62977">
        <ele>49.5</ele>
        <time>2022-08-11T16:15:56.393+02:00</time>
      </trkpt>
      <trkpt lat="45.2596" lon="-0.62984">
        <ele>49.8</ele>
        <time>2022-08-11T16:15:58.405+02:00</time>
      </trkpt>
      <trkpt lat="45.25952" lon="-0.62992">
        <ele>49.3</ele>
        <time>2022-08-11T16:16:00.398+02:00</time>
      </trkpt>
      <trkpt lat="45.25944" lon="-0.62999">
        <ele>49.4</ele>
        <time>2022-08-11T16:16:02.392+02:00</time>
      </trkpt>
      <trkpt lat="45.25936" lon="-0.63007">
        <ele>49.1</ele>
        <time>2022-08-11T16:16:04.407+02:00</time>
      </trkpt>
      <trkpt lat="45.25928" lon="-0.63014">
        <ele>48.6</ele>
        <time>2022-08-11T16:16:06.401+02:00</time>
      </trkpt>
      <trkpt lat="45.25919" lon="-0.63022">
        <ele>48.3</ele>
        <time>2022-08-11T16:16:08.4+02:00</time>
      </trkpt>
      <trkpt lat="45.2591" lon="-0.6303">
        <ele>48</ele>
        <time>2022-08-11T16:16:10.392+02:00</time>
      </trkpt>
      <trkpt lat="45.25902" lon="-0.63038">
        <ele>48.2</ele>
        <time>2022-08-11T16:16:12.396+02:00</time>
      </trkpt>
      <trkpt lat="45.25894" lon="-0.63046">
        <ele>48.2</ele>
        <time>2022-08-11T16:16:14.392+02:00</time>
      </trkpt>
      <trkpt lat="45.25885" lon="-0.63054">
        <ele>48.1</ele>
        <time>2022-08-11T16:16:16.403+02:00</time>
      </trkpt>
      <trkpt lat="45.25877" lon="-0.63062">
        <ele>47.6</ele>
        <time>2022-08-11T16:16:18.398+02:00</time>
      </trkpt>
      <trkpt lat="45.25868" lon="-0.63069">
        <ele>47.2</ele>
        <time>2022-08-11T16:16:20.401+02:00</time>
      </trkpt>
      <trkpt lat="45.25859" lon="-0.63077">
        <ele>47.2</ele>
        <time>2022-08-11T16:16:22.394+02:00</time>
      </trkpt>
      <trkpt lat="45.25851" lon="-0.63085">
        <ele>47.6</ele>
        <time>2022-08-11T16:16:24.395+02:00</time>
      </trkpt>
      <trkpt lat="45.25842" lon="-0.63094">
        <ele>47.2</ele>
        <time>2022-08-11T16:16:26.399+02:00</time>
      </trkpt>
      <trkpt lat="45.25832" lon="-0.63101">
        <ele>46.6</ele>
        <time>2022-08-11T16:16:28.4+02:00</time>
      </trkpt>
      <trkpt lat="45.25824" lon="-0.63109">
        <ele>46.8</ele>
        <time>2022-08-11T16:16:30.395+02:00</time>
      </trkpt>
      <trkpt lat="45.25815" lon="-0.63117">
        <ele>47.5</ele>
        <time>2022-08-11T16:16:32.405+02:00</time>
      </trkpt>
      <trkpt lat="45.25807" lon="-0.63125">
        <ele>47.4</ele>
        <time>2022-08-11T16:16:34.399+02:00</time>
      </trkpt>
      <trkpt lat="45.25798" lon="-0.63133">
        <ele>47.4</ele>
        <time>2022-08-11T16:16:36.407+02:00</time>
      </trkpt>
      <trkpt lat="45.25789" lon="-0.6314">
        <ele>47</ele>
        <time>2022-08-11T16:16:38.396+02:00</time>
      </trkpt>
      <trkpt lat="45.25781" lon="-0.63148">
        <ele>46.9</ele>
        <time>2022-08-11T16:16:40.402+02:00</time>
      </trkpt>
      <trkpt lat="45.25773" lon="-0.63156">
        <ele>47.1</ele>
        <time>2022-08-11T16:16:42.392+02:00</time>
      </trkpt>
      <trkpt lat="45.25765" lon="-0.63165">
        <ele>46.8</ele>
        <time>2022-08-11T16:16:44.409+02:00</time>
      </trkpt>
      <trkpt lat="45.25757" lon="-0.63173">
        <ele>47.7</ele>
        <time>2022-08-11T16:16:46.417+02:00</time>
      </trkpt>
      <trkpt lat="45.25749" lon="-0.63181">
        <ele>47.9</ele>
        <time>2022-08-11T16:16:48.412+02:00</time>
      </trkpt>
      <trkpt lat="45.2574" lon="-0.63189">
        <ele>48.1</ele>
        <time>2022-08-11T16:16:50.408+02:00</time>
      </trkpt>
      <trkpt lat="45.25732" lon="-0.63198">
        <ele>48.4</ele>
        <time>2022-08-11T16:16:52.411+02:00</time>
      </trkpt>
      <trkpt lat="45.25723" lon="-0.63206">
        <ele>49.2</ele>
        <time>2022-08-11T16:16:54.406+02:00</time>
      </trkpt>
      <trkpt lat="45.25715" lon="-0.63213">
        <ele>49.7</ele>
        <time>2022-08-11T16:16:56.401+02:00</time>
      </trkpt>
      <trkpt lat="45.25707" lon="-0.6322">
        <ele>50</ele>
        <time>2022-08-11T16:16:58.415+02:00</time>
      </trkpt>
      <trkpt lat="45.25699" lon="-0.63227">
        <ele>49.7</ele>
        <time>2022-08-11T16:17:00.399+02:00</time>
      </trkpt>
      <trkpt lat="45.25691" lon="-0.63235">
        <ele>49.7</ele>
        <time>2022-08-11T16:17:02.411+02:00</time>
      </trkpt>
      <trkpt lat="45.25683" lon="-0.63243">
        <ele>50.4</ele>
        <time>2022-08-11T16:17:04.419+02:00</time>
      </trkpt>
      <trkpt lat="45.25676" lon="-0.63251">
        <ele>50.2</ele>
        <time>2022-08-11T16:17:06.411+02:00</time>
      </trkpt>
      <trkpt lat="45.25668" lon="-0.63258">
        <ele>50.5</ele>
        <time>2022-08-11T16:17:08.408+02:00</time>
      </trkpt>
      <trkpt lat="45.2566" lon="-0.63265">
        <ele>50.6</ele>
        <time>2022-08-11T16:17:10.411+02:00</time>
      </trkpt>
      <trkpt lat="45.25652" lon="-0.63273">
        <ele>50.5</ele>
        <time>2022-08-11T16:17:12.405+02:00</time>
      </trkpt>
      <trkpt lat="45.25641" lon="-0.63283">
        <ele>50.3</ele>
        <time>2022-08-11T16:17:15.398+02:00</time>
      </trkpt>
      <trkpt lat="45.25633" lon="-0.63291">
        <ele>50</ele>
        <time>2022-08-11T16:17:17.409+02:00</time>
      </trkpt>
      <trkpt lat="45.25626" lon="-0.63298">
        <ele>50.3</ele>
        <time>2022-08-11T16:17:19.408+02:00</time>
      </trkpt>
      <trkpt lat="45.25617" lon="-0.63306">
        <ele>50.1</ele>
        <time>2022-08-11T16:17:21.404+02:00</time>
      </trkpt>
      <trkpt lat="45.2561" lon="-0.63313">
        <ele>50</ele>
        <time>2022-08-11T16:17:23.412+02:00</time>
      </trkpt>
      <trkpt lat="45.25602" lon="-0.6332">
        <ele>50.1</ele>
        <time>2022-08-11T16:17:25.404+02:00</time>
      </trkpt>
      <trkpt lat="45.25594" lon="-0.63327">
        <ele>49.7</ele>
        <time>2022-08-11T16:17:27.408+02:00</time>
      </trkpt>
      <trkpt lat="45.25585" lon="-0.63335">
        <ele>49.6</ele>
        <time>2022-08-11T16:17:29.408+02:00</time>
      </trkpt>
      <trkpt lat="45.25578" lon="-0.63343">
        <ele>49.6</ele>
        <time>2022-08-11T16:17:31.409+02:00</time>
      </trkpt>
      <trkpt lat="45.25569" lon="-0.63351">
        <ele>49.8</ele>
        <time>2022-08-11T16:17:33.412+02:00</time>
      </trkpt>
      <trkpt lat="45.25561" lon="-0.63359">
        <ele>49.9</ele>
        <time>2022-08-11T16:17:35.406+02:00</time>
      </trkpt>
      <trkpt lat="45.25552" lon="-0.63366">
        <ele>49.8</ele>
        <time>2022-08-11T16:17:37.409+02:00</time>
      </trkpt>
      <trkpt lat="45.25544" lon="-0.63374">
        <ele>49.8</ele>
        <time>2022-08-11T16:17:39.405+02:00</time>
      </trkpt>
      <trkpt lat="45.25535" lon="-0.63382">
        <ele>50</ele>
        <time>2022-08-11T16:17:41.406+02:00</time>
      </trkpt>
      <trkpt lat="45.25527" lon="-0.6339">
        <ele>50</ele>
        <time>2022-08-11T16:17:43.405+02:00</time>
      </trkpt>
      <trkpt lat="45.25518" lon="-0.63398">
        <ele>49.7</ele>
        <time>2022-08-11T16:17:45.399+02:00</time>
      </trkpt>
      <trkpt lat="45.2551" lon="-0.63405">
        <ele>49.9</ele>
        <time>2022-08-11T16:17:47.405+02:00</time>
      </trkpt>
      <trkpt lat="45.25502" lon="-0.63413">
        <ele>49.8</ele>
        <time>2022-08-11T16:17:49.401+02:00</time>
      </trkpt>
      <trkpt lat="45.25494" lon="-0.6342">
        <ele>49.7</ele>
        <time>2022-08-11T16:17:51.399+02:00</time>
      </trkpt>
      <trkpt lat="45.25486" lon="-0.63427">
        <ele>49.7</ele>
        <time>2022-08-11T16:17:53.403+02:00</time>
      </trkpt>
      <trkpt lat="45.25479" lon="-0.63434">
        <ele>49.7</ele>
        <time>2022-08-11T16:17:55.389+02:00</time>
      </trkpt>
      <trkpt lat="45.25468" lon="-0.63445">
        <ele>49.8</ele>
        <time>2022-08-11T16:17:58.4+02:00</time>
      </trkpt>
      <trkpt lat="45.2546" lon="-0.63452">
        <ele>49.8</ele>
        <time>2022-08-11T16:18:00.403+02:00</time>
      </trkpt>
      <trkpt lat="45.25452" lon="-0.6346">
        <ele>49.2</ele>
        <time>2022-08-11T16:18:02.4+02:00</time>
      </trkpt>
      <trkpt lat="45.25443" lon="-0.63467">
        <ele>49.3</ele>
        <time>2022-08-11T16:18:04.403+02:00</time>
      </trkpt>
      <trkpt lat="45.25435" lon="-0.63475">
        <ele>49.4</ele>
        <time>2022-08-11T16:18:06.396+02:00</time>
      </trkpt>
      <trkpt lat="45.25427" lon="-0.63482">
        <ele>49.4</ele>
        <time>2022-08-11T16:18:08.392+02:00</time>
      </trkpt>
      <trkpt lat="45.25419" lon="-0.6349">
        <ele>49.6</ele>
        <time>2022-08-11T16:18:10.394+02:00</time>
      </trkpt>
      <trkpt lat="45.2541" lon="-0.63498">
        <ele>49.4</ele>
        <time>2022-08-11T16:18:12.396+02:00</time>
      </trkpt>
      <trkpt lat="45.25402" lon="-0.63505">
        <ele>49.3</ele>
        <time>2022-08-11T16:18:14.398+02:00</time>
      </trkpt>
      <trkpt lat="45.25394" lon="-0.63513">
        <ele>48.9</ele>
        <time>2022-08-11T16:18:16.396+02:00</time>
      </trkpt>
      <trkpt lat="45.25386" lon="-0.63521">
        <ele>48.8</ele>
        <time>2022-08-11T16:18:18.394+02:00</time>
      </trkpt>
      <trkpt lat="45.25378" lon="-0.63529">
        <ele>48.9</ele>
        <time>2022-08-11T16:18:20.397+02:00</time>
      </trkpt>
      <trkpt lat="45.2537" lon="-0.63536">
        <ele>49.8</ele>
        <time>2022-08-11T16:18:22.399+02:00</time>
      </trkpt>
      <trkpt lat="45.25358" lon="-0.63546">
        <ele>49.9</ele>
        <time>2022-08-11T16:18:25.408+02:00</time>
      </trkpt>
      <trkpt lat="45.2535" lon="-0.63553">
        <ele>49.6</ele>
        <time>2022-08-11T16:18:27.42+02:00</time>
      </trkpt>
      <trkpt lat="45.25342" lon="-0.6356">
        <ele>49.6</ele>
        <time>2022-08-11T16:18:29.399+02:00</time>
      </trkpt>
      <trkpt lat="45.25335" lon="-0.63568">
        <ele>49.7</ele>
        <time>2022-08-11T16:18:31.398+02:00</time>
      </trkpt>
      <trkpt lat="45.25323" lon="-0.63577">
        <ele>49.9</ele>
        <time>2022-08-11T16:18:34.403+02:00</time>
      </trkpt>
      <trkpt lat="45.25316" lon="-0.63585">
        <ele>50.2</ele>
        <time>2022-08-11T16:18:36.394+02:00</time>
      </trkpt>
      <trkpt lat="45.25305" lon="-0.63595">
        <ele>49.9</ele>
        <time>2022-08-11T16:18:39.401+02:00</time>
      </trkpt>
      <trkpt lat="45.25294" lon="-0.63605">
        <ele>50.1</ele>
        <time>2022-08-11T16:18:42.401+02:00</time>
      </trkpt>
      <trkpt lat="45.25284" lon="-0.63614">
        <ele>49.5</ele>
        <time>2022-08-11T16:18:45.389+02:00</time>
      </trkpt>
      <trkpt lat="45.25277" lon="-0.63622">
        <ele>49.7</ele>
        <time>2022-08-11T16:18:48.399+02:00</time>
      </trkpt>
      <trkpt lat="45.25268" lon="-0.63631">
        <ele>49.6</ele>
        <time>2022-08-11T16:18:52.42+02:00</time>
      </trkpt>
      <trkpt lat="45.25261" lon="-0.6364">
        <ele>50.3</ele>
        <time>2022-08-11T16:18:57.41+02:00</time>
      </trkpt>
      <trkpt lat="45.25257" lon="-0.63643">
        <ele>48.7</ele>
        <time>2022-08-11T16:19:04.403+02:00</time>
      </trkpt>
      <trkpt lat="45.25258" lon="-0.63642">
        <ele>49.5</ele>
        <time>2022-08-11T16:19:05.403+02:00</time>
      </trkpt>
      <trkpt lat="45.25258" lon="-0.63643">
        <ele>49.9</ele>
        <time>2022-08-11T16:19:06.41+02:00</time>
      </trkpt>
      <trkpt lat="45.25258" lon="-0.63642">
        <ele>49.8</ele>
        <time>2022-08-11T16:19:07.397+02:00</time>
      </trkpt>
      <trkpt lat="45.25267" lon="-0.63632">
        <ele>48</ele>
        <time>2022-08-11T16:19:13.392+02:00</time>
      </trkpt>
      <trkpt lat="45.25275" lon="-0.63626">
        <ele>48.6</ele>
        <time>2022-08-11T16:19:16.402+02:00</time>
      </trkpt>
      <trkpt lat="45.25283" lon="-0.63618">
        <ele>49.3</ele>
        <time>2022-08-11T16:19:19.401+02:00</time>
      </trkpt>
      <trkpt lat="45.25284" lon="-0.63602">
        <ele>49.6</ele>
        <time>2022-08-11T16:19:22.403+02:00</time>
      </trkpt>
      <trkpt lat="45.25278" lon="-0.63586">
        <ele>48.8</ele>
        <time>2022-08-11T16:19:25.39+02:00</time>
      </trkpt>
      <trkpt lat="45.25272" lon="-0.63572">
        <ele>48.2</ele>
        <time>2022-08-11T16:19:28.393+02:00</time>
      </trkpt>
      <trkpt lat="45.25266" lon="-0.63555">
        <ele>48.4</ele>
        <time>2022-08-11T16:19:31.397+02:00</time>
      </trkpt>
      <trkpt lat="45.25261" lon="-0.63545">
        <ele>47.9</ele>
        <time>2022-08-11T16:19:33.407+02:00</time>
      </trkpt>
      <trkpt lat="45.25254" lon="-0.63529">
        <ele>47.2</ele>
        <time>2022-08-11T16:19:36.395+02:00</time>
      </trkpt>
      <trkpt lat="45.25247" lon="-0.63513">
        <ele>48.6</ele>
        <time>2022-08-11T16:19:39.406+02:00</time>
      </trkpt>
      <trkpt lat="45.2524" lon="-0.63497">
        <ele>51.3</ele>
        <time>2022-08-11T16:19:42.392+02:00</time>
      </trkpt>
      <trkpt lat="45.25234" lon="-0.63482">
        <ele>49.8</ele>
        <time>2022-08-11T16:19:45.391+02:00</time>
      </trkpt>
      <trkpt lat="45.25228" lon="-0.6347">
        <ele>53.3</ele>
        <time>2022-08-11T16:19:48.402+02:00</time>
      </trkpt>
      <trkpt lat="45.25224" lon="-0.63453">
        <ele>52.9</ele>
        <time>2022-08-11T16:19:51.394+02:00</time>
      </trkpt>
      <trkpt lat="45.2522" lon="-0.63436">
        <ele>52.2</ele>
        <time>2022-08-11T16:19:54.395+02:00</time>
      </trkpt>
      <trkpt lat="45.25216" lon="-0.63419">
        <ele>52.6</ele>
        <time>2022-08-11T16:19:57.393+02:00</time>
      </trkpt>
      <trkpt lat="45.25213" lon="-0.63401">
        <ele>52.6</ele>
        <time>2022-08-11T16:20:00.398+02:00</time>
      </trkpt>
      <trkpt lat="45.2521" lon="-0.63385">
        <ele>52.1</ele>
        <time>2022-08-11T16:20:03.392+02:00</time>
      </trkpt>
      <trkpt lat="45.25207" lon="-0.63367">
        <ele>52.7</ele>
        <time>2022-08-11T16:20:06.413+02:00</time>
      </trkpt>
      <trkpt lat="45.25204" lon="-0.63349">
        <ele>53.5</ele>
        <time>2022-08-11T16:20:09.396+02:00</time>
      </trkpt>
      <trkpt lat="45.252" lon="-0.63331">
        <ele>52.9</ele>
        <time>2022-08-11T16:20:12.393+02:00</time>
      </trkpt>
      <trkpt lat="45.25197" lon="-0.63318">
        <ele>53.3</ele>
        <time>2022-08-11T16:20:14.393+02:00</time>
      </trkpt>
      <trkpt lat="45.25191" lon="-0.63301">
        <ele>53.2</ele>
        <time>2022-08-11T16:20:17.393+02:00</time>
      </trkpt>
      <trkpt lat="45.25185" lon="-0.63291">
        <ele>53.3</ele>
        <time>2022-08-11T16:20:19.4+02:00</time>
      </trkpt>
      <trkpt lat="45.25176" lon="-0.63276">
        <ele>53.3</ele>
        <time>2022-08-11T16:20:22.396+02:00</time>
      </trkpt>
      <trkpt lat="45.25168" lon="-0.63264">
        <ele>50.8</ele>
        <time>2022-08-11T16:20:25.395+02:00</time>
      </trkpt>
      <trkpt lat="45.25157" lon="-0.63252">
        <ele>49.6</ele>
        <time>2022-08-11T16:20:28.403+02:00</time>
      </trkpt>
      <trkpt lat="45.2515" lon="-0.63243">
        <ele>49.2</ele>
        <time>2022-08-11T16:20:30.395+02:00</time>
      </trkpt>
      <trkpt lat="45.25142" lon="-0.63234">
        <ele>48.7</ele>
        <time>2022-08-11T16:20:32.396+02:00</time>
      </trkpt>
      <trkpt lat="45.25134" lon="-0.63224">
        <ele>48.2</ele>
        <time>2022-08-11T16:20:34.395+02:00</time>
      </trkpt>
      <trkpt lat="45.25127" lon="-0.63215">
        <ele>48.2</ele>
        <time>2022-08-11T16:20:36.393+02:00</time>
      </trkpt>
      <trkpt lat="45.2512" lon="-0.63208">
        <ele>47.7</ele>
        <time>2022-08-11T16:20:38.399+02:00</time>
      </trkpt>
      <trkpt lat="45.25112" lon="-0.63201">
        <ele>47.4</ele>
        <time>2022-08-11T16:20:40.393+02:00</time>
      </trkpt>
      <trkpt lat="45.25103" lon="-0.63197">
        <ele>47.7</ele>
        <time>2022-08-11T16:20:42.411+02:00</time>
      </trkpt>
      <trkpt lat="45.2509" lon="-0.63193">
        <ele>47.1</ele>
        <time>2022-08-11T16:20:45.395+02:00</time>
      </trkpt>
      <trkpt lat="45.25081" lon="-0.63191">
        <ele>47.4</ele>
        <time>2022-08-11T16:20:47.399+02:00</time>
      </trkpt>
      <trkpt lat="45.25068" lon="-0.63184">
        <ele>48.1</ele>
        <time>2022-08-11T16:20:50.401+02:00</time>
      </trkpt>
      <trkpt lat="45.25057" lon="-0.63177">
        <ele>48.4</ele>
        <time>2022-08-11T16:20:53.386+02:00</time>
      </trkpt>
      <trkpt lat="45.25046" lon="-0.63169">
        <ele>48.3</ele>
        <time>2022-08-11T16:20:56.391+02:00</time>
      </trkpt>
      <trkpt lat="45.25037" lon="-0.63158">
        <ele>47.5</ele>
        <time>2022-08-11T16:20:59.393+02:00</time>
      </trkpt>
      <trkpt lat="45.2503" lon="-0.63144">
        <ele>48.7</ele>
        <time>2022-08-11T16:21:02.411+02:00</time>
      </trkpt>
      <trkpt lat="45.25022" lon="-0.6313">
        <ele>49.3</ele>
        <time>2022-08-11T16:21:05.398+02:00</time>
      </trkpt>
      <trkpt lat="45.25014" lon="-0.63118">
        <ele>48.9</ele>
        <time>2022-08-11T16:21:08.391+02:00</time>
      </trkpt>
      <trkpt lat="45.25005" lon="-0.63107">
        <ele>49.2</ele>
        <time>2022-08-11T16:21:11.399+02:00</time>
      </trkpt>
      <trkpt lat="45.24995" lon="-0.63097">
        <ele>49.5</ele>
        <time>2022-08-11T16:21:14.398+02:00</time>
      </trkpt>
      <trkpt lat="45.24984" lon="-0.6309">
        <ele>49</ele>
        <time>2022-08-11T16:21:17.391+02:00</time>
      </trkpt>
      <trkpt lat="45.24974" lon="-0.63083">
        <ele>49.2</ele>
        <time>2022-08-11T16:21:20.394+02:00</time>
      </trkpt>
      <trkpt lat="45.24965" lon="-0.63077">
        <ele>49.7</ele>
        <time>2022-08-11T16:21:23.399+02:00</time>
      </trkpt>
      <trkpt lat="45.24957" lon="-0.63065">
        <ele>50.2</ele>
        <time>2022-08-11T16:21:27.395+02:00</time>
      </trkpt>
      <trkpt lat="45.24958" lon="-0.6305">
        <ele>50.4</ele>
        <time>2022-08-11T16:21:30.393+02:00</time>
      </trkpt>
      <trkpt lat="45.24962" lon="-0.63037">
        <ele>50.4</ele>
        <time>2022-08-11T16:21:32.394+02:00</time>
      </trkpt>
      <trkpt lat="45.24965" lon="-0.63024">
        <ele>50.7</ele>
        <time>2022-08-11T16:21:34.403+02:00</time>
      </trkpt>
      <trkpt lat="45.24968" lon="-0.6301">
        <ele>50.6</ele>
        <time>2022-08-11T16:21:36.398+02:00</time>
      </trkpt>
      <trkpt lat="45.2497" lon="-0.62996">
        <ele>51.3</ele>
        <time>2022-08-11T16:21:38.393+02:00</time>
      </trkpt>
      <trkpt lat="45.24973" lon="-0.62982">
        <ele>50.9</ele>
        <time>2022-08-11T16:21:40.4+02:00</time>
      </trkpt>
      <trkpt lat="45.24975" lon="-0.62969">
        <ele>50.7</ele>
        <time>2022-08-11T16:21:42.401+02:00</time>
      </trkpt>
      <trkpt lat="45.24978" lon="-0.62955">
        <ele>51</ele>
        <time>2022-08-11T16:21:44.395+02:00</time>
      </trkpt>
      <trkpt lat="45.24981" lon="-0.62942">
        <ele>50.7</ele>
        <time>2022-08-11T16:21:46.396+02:00</time>
      </trkpt>
      <trkpt lat="45.24982" lon="-0.6293">
        <ele>51.6</ele>
        <time>2022-08-11T16:21:48.396+02:00</time>
      </trkpt>
      <trkpt lat="45.24978" lon="-0.62913">
        <ele>52.8</ele>
        <time>2022-08-11T16:21:51.395+02:00</time>
      </trkpt>
      <trkpt lat="45.24971" lon="-0.62899">
        <ele>52.8</ele>
        <time>2022-08-11T16:21:54.4+02:00</time>
      </trkpt>
      <trkpt lat="45.24965" lon="-0.62885">
        <ele>52.6</ele>
        <time>2022-08-11T16:21:57.394+02:00</time>
      </trkpt>
      <trkpt lat="45.24957" lon="-0.62872">
        <ele>52.5</ele>
        <time>2022-08-11T16:22:00.39+02:00</time>
      </trkpt>
      <trkpt lat="45.24947" lon="-0.6286">
        <ele>52.6</ele>
        <time>2022-08-11T16:22:03.396+02:00</time>
      </trkpt>
      <trkpt lat="45.24937" lon="-0.62849">
        <ele>53</ele>
        <time>2022-08-11T16:22:06.394+02:00</time>
      </trkpt>
      <trkpt lat="45.24927" lon="-0.62839">
        <ele>53</ele>
        <time>2022-08-11T16:22:09.394+02:00</time>
      </trkpt>
      <trkpt lat="45.24917" lon="-0.62829">
        <ele>52.9</ele>
        <time>2022-08-11T16:22:12.392+02:00</time>
      </trkpt>
      <trkpt lat="45.24907" lon="-0.62819">
        <ele>53</ele>
        <time>2022-08-11T16:22:15.391+02:00</time>
      </trkpt>
      <trkpt lat="45.24897" lon="-0.62809">
        <ele>52.6</ele>
        <time>2022-08-11T16:22:18.404+02:00</time>
      </trkpt>
      <trkpt lat="45.24888" lon="-0.62796">
        <ele>52.3</ele>
        <time>2022-08-11T16:22:21.394+02:00</time>
      </trkpt>
      <trkpt lat="45.24881" lon="-0.62782">
        <ele>52.2</ele>
        <time>2022-08-11T16:22:24.39+02:00</time>
      </trkpt>
      <trkpt lat="45.24874" lon="-0.62767">
        <ele>52.3</ele>
        <time>2022-08-11T16:22:27.398+02:00</time>
      </trkpt>
      <trkpt lat="45.24867" lon="-0.62755">
        <ele>52.3</ele>
        <time>2022-08-11T16:22:30.396+02:00</time>
      </trkpt>
      <trkpt lat="45.24856" lon="-0.62758">
        <ele>52.3</ele>
        <time>2022-08-11T16:22:33.4+02:00</time>
      </trkpt>
      <trkpt lat="45.24845" lon="-0.62764">
        <ele>51.3</ele>
        <time>2022-08-11T16:22:36.393+02:00</time>
      </trkpt>
      <trkpt lat="45.24833" lon="-0.62771">
        <ele>51.1</ele>
        <time>2022-08-11T16:22:39.397+02:00</time>
      </trkpt>
      <trkpt lat="45.24821" lon="-0.62779">
        <ele>50.3</ele>
        <time>2022-08-11T16:22:42.395+02:00</time>
      </trkpt>
      <trkpt lat="45.24813" lon="-0.62786">
        <ele>50.5</ele>
        <time>2022-08-11T16:22:44.4+02:00</time>
      </trkpt>
      <trkpt lat="45.24805" lon="-0.62793">
        <ele>50.4</ele>
        <time>2022-08-11T16:22:46.394+02:00</time>
      </trkpt>
      <trkpt lat="45.24797" lon="-0.62801">
        <ele>50</ele>
        <time>2022-08-11T16:22:48.401+02:00</time>
      </trkpt>
      <trkpt lat="45.2479" lon="-0.62809">
        <ele>49.5</ele>
        <time>2022-08-11T16:22:50.397+02:00</time>
      </trkpt>
      <trkpt lat="45.24782" lon="-0.62818">
        <ele>49.6</ele>
        <time>2022-08-11T16:22:52.396+02:00</time>
      </trkpt>
      <trkpt lat="45.24775" lon="-0.62828">
        <ele>49.6</ele>
        <time>2022-08-11T16:22:54.399+02:00</time>
      </trkpt>
      <trkpt lat="45.24769" lon="-0.62838">
        <ele>49.4</ele>
        <time>2022-08-11T16:22:56.401+02:00</time>
      </trkpt>
      <trkpt lat="45.24763" lon="-0.62848">
        <ele>49.4</ele>
        <time>2022-08-11T16:22:58.395+02:00</time>
      </trkpt>
      <trkpt lat="45.24758" lon="-0.6286">
        <ele>49.5</ele>
        <time>2022-08-11T16:23:00.394+02:00</time>
      </trkpt>
      <trkpt lat="45.24753" lon="-0.62872">
        <ele>50.7</ele>
        <time>2022-08-11T16:23:02.388+02:00</time>
      </trkpt>
      <trkpt lat="45.24749" lon="-0.62883">
        <ele>50.1</ele>
        <time>2022-08-11T16:23:04.416+02:00</time>
      </trkpt>
      <trkpt lat="45.24741" lon="-0.62899">
        <ele>50.2</ele>
        <time>2022-08-11T16:23:07.393+02:00</time>
      </trkpt>
      <trkpt lat="45.24736" lon="-0.6291">
        <ele>50.7</ele>
        <time>2022-08-11T16:23:09.391+02:00</time>
      </trkpt>
      <trkpt lat="45.24726" lon="-0.62923">
        <ele>51.1</ele>
        <time>2022-08-11T16:23:12.391+02:00</time>
      </trkpt>
      <trkpt lat="45.24714" lon="-0.62931">
        <ele>51</ele>
        <time>2022-08-11T16:23:15.391+02:00</time>
      </trkpt>
      <trkpt lat="45.24703" lon="-0.6294">
        <ele>51.3</ele>
        <time>2022-08-11T16:23:18.39+02:00</time>
      </trkpt>
      <trkpt lat="45.24691" lon="-0.62946">
        <ele>51.7</ele>
        <time>2022-08-11T16:23:21.396+02:00</time>
      </trkpt>
      <trkpt lat="45.24678" lon="-0.62951">
        <ele>51.8</ele>
        <time>2022-08-11T16:23:24.393+02:00</time>
      </trkpt>
      <trkpt lat="45.24666" lon="-0.62956">
        <ele>51.7</ele>
        <time>2022-08-11T16:23:27.396+02:00</time>
      </trkpt>
      <trkpt lat="45.24654" lon="-0.62961">
        <ele>52</ele>
        <time>2022-08-11T16:23:30.396+02:00</time>
      </trkpt>
      <trkpt lat="45.24641" lon="-0.62967">
        <ele>51.9</ele>
        <time>2022-08-11T16:23:33.396+02:00</time>
      </trkpt>
      <trkpt lat="45.24629" lon="-0.62972">
        <ele>52.6</ele>
        <time>2022-08-11T16:23:36.397+02:00</time>
      </trkpt>
      <trkpt lat="45.24616" lon="-0.62978">
        <ele>52.4</ele>
        <time>2022-08-11T16:23:39.394+02:00</time>
      </trkpt>
      <trkpt lat="45.24607" lon="-0.62982">
        <ele>52.4</ele>
        <time>2022-08-11T16:23:41.397+02:00</time>
      </trkpt>
      <trkpt lat="45.24595" lon="-0.62986">
        <ele>52</ele>
        <time>2022-08-11T16:23:44.4+02:00</time>
      </trkpt>
      <trkpt lat="45.24582" lon="-0.62989">
        <ele>52.8</ele>
        <time>2022-08-11T16:23:47.399+02:00</time>
      </trkpt>
      <trkpt lat="45.24573" lon="-0.62984">
        <ele>53.3</ele>
        <time>2022-08-11T16:23:50.405+02:00</time>
      </trkpt>
      <trkpt lat="45.24582" lon="-0.62984">
        <ele>55.9</ele>
        <time>2022-08-11T16:23:59.4+02:00</time>
      </trkpt>
      <trkpt lat="45.24591" lon="-0.62979">
        <ele>55.1</ele>
        <time>2022-08-11T16:24:06.408+02:00</time>
      </trkpt>
      <trkpt lat="45.24586" lon="-0.62968">
        <ele>54.1</ele>
        <time>2022-08-11T16:24:15.394+02:00</time>
      </trkpt>
      <trkpt lat="45.24586" lon="-0.62969">
        <ele>54.1</ele>
        <time>2022-08-11T16:24:16.407+02:00</time>
      </trkpt>
      <trkpt lat="45.24586" lon="-0.62968">
        <ele>53.9</ele>
        <time>2022-08-11T16:24:47.386+02:00</time>
      </trkpt>
    </trkseg>
  </trk>
</gpx>